<?xml version="1.0" encoding="UTF-8" standalone="no" ?>
<gpx xmlns="http://www.topografix.com/GPX/1/1" xmlns:xsi="http://www.w3.org/2001/XMLSchema-instance" xsi:schemaLocation="http://www.topografix.com/GPX/1/1 http://www.topografix.com/GPX/1/1/gpx.xsd" version="1.1" creator="VisuGPX - https://www.visugpx.com">
  <metadata>
    <name>Tour du Mont Blanc 2022-Sembrancher</name>
  </metadata>
  <trk>
    <name><![CDATA[Tour du Mont Blanc 2022 - Sembrancher]]></name>
    <extensions>
      <line xmlns="http://www.topografix.com/GPX/gpx_style/0/2">
        <color>0000FF</color>
        <width>4</width>
      </line>
    </extensions>
    <trkseg>
      <trkpt lat="45.75976" lon="6.53333">
        <ele>1657</ele>
        <time>2022-07-16T03:00:00.000Z</time>
      </trkpt>
      <trkpt lat="45.75948" lon="6.53379">
        <ele>1657</ele>
        <time>2022-07-16T03:00:05.974Z</time>
      </trkpt>
      <trkpt lat="45.75945" lon="6.53407">
        <ele>1658</ele>
        <time>2022-07-16T03:00:10.841Z</time>
      </trkpt>
      <trkpt lat="45.75957" lon="6.53417">
        <ele>1658</ele>
        <time>2022-07-16T03:00:12.788Z</time>
      </trkpt>
      <trkpt lat="45.7599" lon="6.53385">
        <ele>1659</ele>
        <time>2022-07-16T03:00:20.046Z</time>
      </trkpt>
      <trkpt lat="45.76018" lon="6.53366">
        <ele>1660</ele>
        <time>2022-07-16T03:00:26.216Z</time>
      </trkpt>
      <trkpt lat="45.76034" lon="6.53358">
        <ele>1660</ele>
        <time>2022-07-16T03:00:28.593Z</time>
      </trkpt>
      <trkpt lat="45.76068" lon="6.5335">
        <ele>1660</ele>
        <time>2022-07-16T03:00:33.426Z</time>
      </trkpt>
      <trkpt lat="45.76157" lon="6.53335">
        <ele>1657</ele>
        <time>2022-07-16T03:00:41.948Z</time>
      </trkpt>
      <trkpt lat="45.76232" lon="6.53337">
        <ele>1657</ele>
        <time>2022-07-16T03:00:52.471Z</time>
      </trkpt>
      <trkpt lat="45.76266" lon="6.53343">
        <ele>1656</ele>
        <time>2022-07-16T03:00:55.876Z</time>
      </trkpt>
      <trkpt lat="45.76316" lon="6.53372">
        <ele>1658</ele>
        <time>2022-07-16T03:01:07.334Z</time>
      </trkpt>
      <trkpt lat="45.76315" lon="6.53385">
        <ele>1659</ele>
        <time>2022-07-16T03:01:11.006Z</time>
      </trkpt>
      <trkpt lat="45.76321" lon="6.53393">
        <ele>1659</ele>
        <time>2022-07-16T03:01:12.155Z</time>
      </trkpt>
      <trkpt lat="45.76327" lon="6.53395">
        <ele>1659</ele>
        <time>2022-07-16T03:01:13.019Z</time>
      </trkpt>
      <trkpt lat="45.76334" lon="6.53391">
        <ele>1659</ele>
        <time>2022-07-16T03:01:14.076Z</time>
      </trkpt>
      <trkpt lat="45.76336" lon="6.53386">
        <ele>1658</ele>
        <time>2022-07-16T03:01:14.389Z</time>
      </trkpt>
      <trkpt lat="45.76355" lon="6.53392">
        <ele>1659</ele>
        <time>2022-07-16T03:01:19.205Z</time>
      </trkpt>
      <trkpt lat="45.76377" lon="6.53391">
        <ele>1659</ele>
        <time>2022-07-16T03:01:22.293Z</time>
      </trkpt>
      <trkpt lat="45.76478" lon="6.53356">
        <ele>1652</ele>
        <time>2022-07-16T03:01:30.366Z</time>
      </trkpt>
      <trkpt lat="45.7652" lon="6.53338">
        <ele>1650</ele>
        <time>2022-07-16T03:01:34.078Z</time>
      </trkpt>
      <trkpt lat="45.76554" lon="6.53313">
        <ele>1648</ele>
        <time>2022-07-16T03:01:37.129Z</time>
      </trkpt>
      <trkpt lat="45.76601" lon="6.53273">
        <ele>1644</ele>
        <time>2022-07-16T03:01:41.376Z</time>
      </trkpt>
      <trkpt lat="45.76619" lon="6.53261">
        <ele>1643</ele>
        <time>2022-07-16T03:01:42.988Z</time>
      </trkpt>
      <trkpt lat="45.76691" lon="6.53227">
        <ele>1640</ele>
        <time>2022-07-16T03:01:49.777Z</time>
      </trkpt>
      <trkpt lat="45.76754" lon="6.53206">
        <ele>1638</ele>
        <time>2022-07-16T03:01:56.092Z</time>
      </trkpt>
      <trkpt lat="45.76836" lon="6.53183">
        <ele>1627</ele>
        <time>2022-07-16T03:02:02.584Z</time>
      </trkpt>
      <trkpt lat="45.76873" lon="6.53188">
        <ele>1624</ele>
        <time>2022-07-16T03:02:05.471Z</time>
      </trkpt>
      <trkpt lat="45.76917" lon="6.5321">
        <ele>1626</ele>
        <time>2022-07-16T03:02:16.242Z</time>
      </trkpt>
      <trkpt lat="45.76943" lon="6.53229">
        <ele>1625</ele>
        <time>2022-07-16T03:02:18.996Z</time>
      </trkpt>
      <trkpt lat="45.76989" lon="6.53276">
        <ele>1622</ele>
        <time>2022-07-16T03:02:23.477Z</time>
      </trkpt>
      <trkpt lat="45.77022" lon="6.53302">
        <ele>1616</ele>
        <time>2022-07-16T03:02:26.402Z</time>
      </trkpt>
      <trkpt lat="45.7703" lon="6.53311">
        <ele>1614</ele>
        <time>2022-07-16T03:02:27.192Z</time>
      </trkpt>
      <trkpt lat="45.77053" lon="6.53349">
        <ele>1609</ele>
        <time>2022-07-16T03:02:29.919Z</time>
      </trkpt>
      <trkpt lat="45.77093" lon="6.5344">
        <ele>1607</ele>
        <time>2022-07-16T03:02:37.583Z</time>
      </trkpt>
      <trkpt lat="45.77109" lon="6.53467">
        <ele>1607</ele>
        <time>2022-07-16T03:02:41.050Z</time>
      </trkpt>
      <trkpt lat="45.77166" lon="6.53541">
        <ele>1599</ele>
        <time>2022-07-16T03:02:47.024Z</time>
      </trkpt>
      <trkpt lat="45.77216" lon="6.53628">
        <ele>1604</ele>
        <time>2022-07-16T03:03:08.196Z</time>
      </trkpt>
      <trkpt lat="45.77232" lon="6.53643">
        <ele>1604</ele>
        <time>2022-07-16T03:03:10.877Z</time>
      </trkpt>
      <trkpt lat="45.77247" lon="6.53647">
        <ele>1604</ele>
        <time>2022-07-16T03:03:13.017Z</time>
      </trkpt>
      <trkpt lat="45.7727" lon="6.5364">
        <ele>1607</ele>
        <time>2022-07-16T03:03:24.749Z</time>
      </trkpt>
      <trkpt lat="45.77315" lon="6.53634">
        <ele>1613</ele>
        <time>2022-07-16T03:03:48.966Z</time>
      </trkpt>
      <trkpt lat="45.77327" lon="6.53629">
        <ele>1614</ele>
        <time>2022-07-16T03:03:52.782Z</time>
      </trkpt>
      <trkpt lat="45.77359" lon="6.53604">
        <ele>1615</ele>
        <time>2022-07-16T03:03:59.610Z</time>
      </trkpt>
      <trkpt lat="45.77383" lon="6.53572">
        <ele>1611</ele>
        <time>2022-07-16T03:04:02.156Z</time>
      </trkpt>
      <trkpt lat="45.77399" lon="6.53558">
        <ele>1609</ele>
        <time>2022-07-16T03:04:03.613Z</time>
      </trkpt>
      <trkpt lat="45.77407" lon="6.53554">
        <ele>1609</ele>
        <time>2022-07-16T03:04:04.801Z</time>
      </trkpt>
      <trkpt lat="45.77487" lon="6.53552">
        <ele>1606</ele>
        <time>2022-07-16T03:04:12.113Z</time>
      </trkpt>
      <trkpt lat="45.77512" lon="6.53556">
        <ele>1605</ele>
        <time>2022-07-16T03:04:14.362Z</time>
      </trkpt>
      <trkpt lat="45.77542" lon="6.53567">
        <ele>1603</ele>
        <time>2022-07-16T03:04:16.601Z</time>
      </trkpt>
      <trkpt lat="45.77572" lon="6.53584">
        <ele>1602</ele>
        <time>2022-07-16T03:04:19.748Z</time>
      </trkpt>
      <trkpt lat="45.77603" lon="6.53609">
        <ele>1604</ele>
        <time>2022-07-16T03:04:28.843Z</time>
      </trkpt>
      <trkpt lat="45.77632" lon="6.53639">
        <ele>1606</ele>
        <time>2022-07-16T03:04:37.969Z</time>
      </trkpt>
      <trkpt lat="45.77658" lon="6.53654">
        <ele>1604</ele>
        <time>2022-07-16T03:04:40.147Z</time>
      </trkpt>
      <trkpt lat="45.77676" lon="6.53661">
        <ele>1601</ele>
        <time>2022-07-16T03:04:41.596Z</time>
      </trkpt>
      <trkpt lat="45.77744" lon="6.53678">
        <ele>1591</ele>
        <time>2022-07-16T03:04:46.958Z</time>
      </trkpt>
      <trkpt lat="45.77798" lon="6.537">
        <ele>1583</ele>
        <time>2022-07-16T03:04:51.320Z</time>
      </trkpt>
      <trkpt lat="45.77881" lon="6.5376">
        <ele>1571</ele>
        <time>2022-07-16T03:04:58.542Z</time>
      </trkpt>
      <trkpt lat="45.77908" lon="6.53784">
        <ele>1566</ele>
        <time>2022-07-16T03:05:01.010Z</time>
      </trkpt>
      <trkpt lat="45.77931" lon="6.53819">
        <ele>1564</ele>
        <time>2022-07-16T03:05:03.532Z</time>
      </trkpt>
      <trkpt lat="45.77969" lon="6.53898">
        <ele>1556</ele>
        <time>2022-07-16T03:05:08.732Z</time>
      </trkpt>
      <trkpt lat="45.78023" lon="6.54043">
        <ele>1543</ele>
        <time>2022-07-16T03:05:17.638Z</time>
      </trkpt>
      <trkpt lat="45.7805" lon="6.54133">
        <ele>1540</ele>
        <time>2022-07-16T03:05:23.516Z</time>
      </trkpt>
      <trkpt lat="45.78061" lon="6.54179">
        <ele>1536</ele>
        <time>2022-07-16T03:05:26.150Z</time>
      </trkpt>
      <trkpt lat="45.78065" lon="6.54216">
        <ele>1535</ele>
        <time>2022-07-16T03:05:28.518Z</time>
      </trkpt>
      <trkpt lat="45.78062" lon="6.54245">
        <ele>1536</ele>
        <time>2022-07-16T03:05:33.498Z</time>
      </trkpt>
      <trkpt lat="45.7805" lon="6.54287">
        <ele>1542</ele>
        <time>2022-07-16T03:05:50.624Z</time>
      </trkpt>
      <trkpt lat="45.7805" lon="6.54322">
        <ele>1541</ele>
        <time>2022-07-16T03:05:52.782Z</time>
      </trkpt>
      <trkpt lat="45.78053" lon="6.54332">
        <ele>1540</ele>
        <time>2022-07-16T03:05:53.372Z</time>
      </trkpt>
      <trkpt lat="45.78058" lon="6.5434">
        <ele>1539</ele>
        <time>2022-07-16T03:05:53.954Z</time>
      </trkpt>
      <trkpt lat="45.78066" lon="6.54346">
        <ele>1536</ele>
        <time>2022-07-16T03:05:54.655Z</time>
      </trkpt>
      <trkpt lat="45.78098" lon="6.54361">
        <ele>1528</ele>
        <time>2022-07-16T03:05:57.271Z</time>
      </trkpt>
      <trkpt lat="45.78123" lon="6.54377">
        <ele>1525</ele>
        <time>2022-07-16T03:05:59.398Z</time>
      </trkpt>
      <trkpt lat="45.78137" lon="6.54389">
        <ele>1523</ele>
        <time>2022-07-16T03:06:00.665Z</time>
      </trkpt>
      <trkpt lat="45.7816" lon="6.54425">
        <ele>1520</ele>
        <time>2022-07-16T03:06:03.311Z</time>
      </trkpt>
      <trkpt lat="45.78171" lon="6.54455">
        <ele>1519</ele>
        <time>2022-07-16T03:06:05.374Z</time>
      </trkpt>
      <trkpt lat="45.78181" lon="6.54654">
        <ele>1510</ele>
        <time>2022-07-16T03:06:15.429Z</time>
      </trkpt>
      <trkpt lat="45.78175" lon="6.54711">
        <ele>1506</ele>
        <time>2022-07-16T03:06:18.552Z</time>
      </trkpt>
      <trkpt lat="45.78164" lon="6.54754">
        <ele>1506</ele>
        <time>2022-07-16T03:06:23.033Z</time>
      </trkpt>
      <trkpt lat="45.78147" lon="6.54801">
        <ele>1505</ele>
        <time>2022-07-16T03:06:26.787Z</time>
      </trkpt>
      <trkpt lat="45.7813" lon="6.5483">
        <ele>1505</ele>
        <time>2022-07-16T03:06:30.494Z</time>
      </trkpt>
      <trkpt lat="45.7806" lon="6.54929">
        <ele>1488</ele>
        <time>2022-07-16T03:06:38.132Z</time>
      </trkpt>
      <trkpt lat="45.78048" lon="6.54945">
        <ele>1488</ele>
        <time>2022-07-16T03:06:40.431Z</time>
      </trkpt>
      <trkpt lat="45.78027" lon="6.54965">
        <ele>1492</ele>
        <time>2022-07-16T03:06:54.071Z</time>
      </trkpt>
      <trkpt lat="45.78016" lon="6.54988">
        <ele>1493</ele>
        <time>2022-07-16T03:06:58.887Z</time>
      </trkpt>
      <trkpt lat="45.7801" lon="6.55013">
        <ele>1494</ele>
        <time>2022-07-16T03:07:03.538Z</time>
      </trkpt>
      <trkpt lat="45.78009" lon="6.55033">
        <ele>1495</ele>
        <time>2022-07-16T03:07:07.531Z</time>
      </trkpt>
      <trkpt lat="45.78012" lon="6.55052">
        <ele>1494</ele>
        <time>2022-07-16T03:07:08.587Z</time>
      </trkpt>
      <trkpt lat="45.78024" lon="6.55086">
        <ele>1490</ele>
        <time>2022-07-16T03:07:10.651Z</time>
      </trkpt>
      <trkpt lat="45.78028" lon="6.5511">
        <ele>1487</ele>
        <time>2022-07-16T03:07:11.989Z</time>
      </trkpt>
      <trkpt lat="45.78018" lon="6.55168">
        <ele>1487</ele>
        <time>2022-07-16T03:07:17.834Z</time>
      </trkpt>
      <trkpt lat="45.77987" lon="6.55294">
        <ele>1486</ele>
        <time>2022-07-16T03:07:29.347Z</time>
      </trkpt>
      <trkpt lat="45.77986" lon="6.55319">
        <ele>1482</ele>
        <time>2022-07-16T03:07:30.704Z</time>
      </trkpt>
      <trkpt lat="45.77992" lon="6.55371">
        <ele>1475</ele>
        <time>2022-07-16T03:07:33.560Z</time>
      </trkpt>
      <trkpt lat="45.77992" lon="6.55391">
        <ele>1474</ele>
        <time>2022-07-16T03:07:34.644Z</time>
      </trkpt>
      <trkpt lat="45.77972" lon="6.55545">
        <ele>1460</ele>
        <time>2022-07-16T03:07:43.132Z</time>
      </trkpt>
      <trkpt lat="45.77963" lon="6.55574">
        <ele>1456</ele>
        <time>2022-07-16T03:07:44.851Z</time>
      </trkpt>
      <trkpt lat="45.77866" lon="6.55768">
        <ele>1453</ele>
        <time>2022-07-16T03:08:03.622Z</time>
      </trkpt>
      <trkpt lat="45.77841" lon="6.55873">
        <ele>1442</ele>
        <time>2022-07-16T03:08:09.634Z</time>
      </trkpt>
      <trkpt lat="45.77821" lon="6.55914">
        <ele>1439</ele>
        <time>2022-07-16T03:08:12.345Z</time>
      </trkpt>
      <trkpt lat="45.77818" lon="6.55929">
        <ele>1439</ele>
        <time>2022-07-16T03:08:13.871Z</time>
      </trkpt>
      <trkpt lat="45.77819" lon="6.55943">
        <ele>1438</ele>
        <time>2022-07-16T03:08:14.634Z</time>
      </trkpt>
      <trkpt lat="45.77823" lon="6.55956">
        <ele>1437</ele>
        <time>2022-07-16T03:08:15.404Z</time>
      </trkpt>
      <trkpt lat="45.77835" lon="6.55975">
        <ele>1435</ele>
        <time>2022-07-16T03:08:16.793Z</time>
      </trkpt>
      <trkpt lat="45.77852" lon="6.55989">
        <ele>1438</ele>
        <time>2022-07-16T03:08:27.400Z</time>
      </trkpt>
      <trkpt lat="45.77862" lon="6.55994">
        <ele>1440</ele>
        <time>2022-07-16T03:08:33.130Z</time>
      </trkpt>
      <trkpt lat="45.7788" lon="6.55996">
        <ele>1442</ele>
        <time>2022-07-16T03:08:40.489Z</time>
      </trkpt>
      <trkpt lat="45.7794" lon="6.55969">
        <ele>1445</ele>
        <time>2022-07-16T03:08:55.685Z</time>
      </trkpt>
      <trkpt lat="45.77956" lon="6.55956">
        <ele>1445</ele>
        <time>2022-07-16T03:08:58.265Z</time>
      </trkpt>
      <trkpt lat="45.77973" lon="6.55938">
        <ele>1443</ele>
        <time>2022-07-16T03:08:59.907Z</time>
      </trkpt>
      <trkpt lat="45.78008" lon="6.55892">
        <ele>1440</ele>
        <time>2022-07-16T03:09:03.378Z</time>
      </trkpt>
      <trkpt lat="45.78028" lon="6.55853">
        <ele>1439</ele>
        <time>2022-07-16T03:09:06.719Z</time>
      </trkpt>
      <trkpt lat="45.78051" lon="6.55818">
        <ele>1439</ele>
        <time>2022-07-16T03:09:11.423Z</time>
      </trkpt>
      <trkpt lat="45.78073" lon="6.55798">
        <ele>1440</ele>
        <time>2022-07-16T03:09:17.059Z</time>
      </trkpt>
      <trkpt lat="45.78118" lon="6.5577">
        <ele>1447</ele>
        <time>2022-07-16T03:09:43.601Z</time>
      </trkpt>
      <trkpt lat="45.78126" lon="6.5576">
        <ele>1448</ele>
        <time>2022-07-16T03:09:47.266Z</time>
      </trkpt>
      <trkpt lat="45.78154" lon="6.55683">
        <ele>1444</ele>
        <time>2022-07-16T03:09:51.597Z</time>
      </trkpt>
      <trkpt lat="45.78198" lon="6.55605">
        <ele>1451</ele>
        <time>2022-07-16T03:10:17.132Z</time>
      </trkpt>
      <trkpt lat="45.7824" lon="6.55485">
        <ele>1452</ele>
        <time>2022-07-16T03:10:31.691Z</time>
      </trkpt>
      <trkpt lat="45.78264" lon="6.55431">
        <ele>1453</ele>
        <time>2022-07-16T03:10:39.571Z</time>
      </trkpt>
      <trkpt lat="45.78319" lon="6.55347">
        <ele>1458</ele>
        <time>2022-07-16T03:11:00.996Z</time>
      </trkpt>
      <trkpt lat="45.78361" lon="6.55271">
        <ele>1458</ele>
        <time>2022-07-16T03:11:10.483Z</time>
      </trkpt>
      <trkpt lat="45.78407" lon="6.55198">
        <ele>1454</ele>
        <time>2022-07-16T03:11:15.697Z</time>
      </trkpt>
      <trkpt lat="45.78476" lon="6.55111">
        <ele>1457</ele>
        <time>2022-07-16T03:11:34.085Z</time>
      </trkpt>
      <trkpt lat="45.78494" lon="6.55094">
        <ele>1462</ele>
        <time>2022-07-16T03:11:45.746Z</time>
      </trkpt>
      <trkpt lat="45.78516" lon="6.55066">
        <ele>1465</ele>
        <time>2022-07-16T03:11:56.689Z</time>
      </trkpt>
      <trkpt lat="45.78553" lon="6.54978">
        <ele>1466</ele>
        <time>2022-07-16T03:12:08.214Z</time>
      </trkpt>
      <trkpt lat="45.7859" lon="6.54867">
        <ele>1461</ele>
        <time>2022-07-16T03:12:14.735Z</time>
      </trkpt>
      <trkpt lat="45.78605" lon="6.54843">
        <ele>1461</ele>
        <time>2022-07-16T03:12:17.887Z</time>
      </trkpt>
      <trkpt lat="45.78649" lon="6.54759">
        <ele>1459</ele>
        <time>2022-07-16T03:12:25.319Z</time>
      </trkpt>
      <trkpt lat="45.78672" lon="6.54724">
        <ele>1461</ele>
        <time>2022-07-16T03:12:34.100Z</time>
      </trkpt>
      <trkpt lat="45.787" lon="6.54708">
        <ele>1462</ele>
        <time>2022-07-16T03:12:40.174Z</time>
      </trkpt>
      <trkpt lat="45.78736" lon="6.54697">
        <ele>1466</ele>
        <time>2022-07-16T03:12:54.840Z</time>
      </trkpt>
      <trkpt lat="45.78861" lon="6.54694">
        <ele>1466</ele>
        <time>2022-07-16T03:13:12.377Z</time>
      </trkpt>
      <trkpt lat="45.78886" lon="6.54687">
        <ele>1465</ele>
        <time>2022-07-16T03:13:14.665Z</time>
      </trkpt>
      <trkpt lat="45.78912" lon="6.54673">
        <ele>1463</ele>
        <time>2022-07-16T03:13:16.823Z</time>
      </trkpt>
      <trkpt lat="45.78922" lon="6.54666">
        <ele>1463</ele>
        <time>2022-07-16T03:13:18.384Z</time>
      </trkpt>
      <trkpt lat="45.78932" lon="6.54652">
        <ele>1463</ele>
        <time>2022-07-16T03:13:20.344Z</time>
      </trkpt>
      <trkpt lat="45.78984" lon="6.54548">
        <ele>1456</ele>
        <time>2022-07-16T03:13:27.277Z</time>
      </trkpt>
      <trkpt lat="45.7901" lon="6.54517">
        <ele>1454</ele>
        <time>2022-07-16T03:13:29.829Z</time>
      </trkpt>
      <trkpt lat="45.79037" lon="6.54491">
        <ele>1452</ele>
        <time>2022-07-16T03:13:32.239Z</time>
      </trkpt>
      <trkpt lat="45.79049" lon="6.54484">
        <ele>1451</ele>
        <time>2022-07-16T03:13:33.245Z</time>
      </trkpt>
      <trkpt lat="45.7912" lon="6.54461">
        <ele>1449</ele>
        <time>2022-07-16T03:13:40.615Z</time>
      </trkpt>
      <trkpt lat="45.7917" lon="6.54439">
        <ele>1445</ele>
        <time>2022-07-16T03:13:44.678Z</time>
      </trkpt>
      <trkpt lat="45.79214" lon="6.54406">
        <ele>1439</ele>
        <time>2022-07-16T03:13:48.536Z</time>
      </trkpt>
      <trkpt lat="45.79229" lon="6.54392">
        <ele>1436</ele>
        <time>2022-07-16T03:13:49.927Z</time>
      </trkpt>
      <trkpt lat="45.79268" lon="6.54345">
        <ele>1429</ele>
        <time>2022-07-16T03:13:53.884Z</time>
      </trkpt>
      <trkpt lat="45.79288" lon="6.54329">
        <ele>1427</ele>
        <time>2022-07-16T03:13:55.664Z</time>
      </trkpt>
      <trkpt lat="45.79342" lon="6.54306">
        <ele>1429</ele>
        <time>2022-07-16T03:14:07.374Z</time>
      </trkpt>
      <trkpt lat="45.79374" lon="6.54271">
        <ele>1426</ele>
        <time>2022-07-16T03:14:10.501Z</time>
      </trkpt>
      <trkpt lat="45.79385" lon="6.54262">
        <ele>1425</ele>
        <time>2022-07-16T03:14:11.484Z</time>
      </trkpt>
      <trkpt lat="45.79396" lon="6.5426">
        <ele>1425</ele>
        <time>2022-07-16T03:14:13.040Z</time>
      </trkpt>
      <trkpt lat="45.79421" lon="6.54247">
        <ele>1423</ele>
        <time>2022-07-16T03:14:15.106Z</time>
      </trkpt>
      <trkpt lat="45.7945" lon="6.54218">
        <ele>1416</ele>
        <time>2022-07-16T03:14:17.853Z</time>
      </trkpt>
      <trkpt lat="45.79463" lon="6.54208">
        <ele>1413</ele>
        <time>2022-07-16T03:14:18.999Z</time>
      </trkpt>
      <trkpt lat="45.79529" lon="6.5417">
        <ele>1406</ele>
        <time>2022-07-16T03:14:24.524Z</time>
      </trkpt>
      <trkpt lat="45.79544" lon="6.54154">
        <ele>1404</ele>
        <time>2022-07-16T03:14:25.977Z</time>
      </trkpt>
      <trkpt lat="45.79577" lon="6.54109">
        <ele>1402</ele>
        <time>2022-07-16T03:14:29.893Z</time>
      </trkpt>
      <trkpt lat="45.79601" lon="6.54092">
        <ele>1400</ele>
        <time>2022-07-16T03:14:31.972Z</time>
      </trkpt>
      <trkpt lat="45.79631" lon="6.54087">
        <ele>1400</ele>
        <time>2022-07-16T03:14:36.209Z</time>
      </trkpt>
      <trkpt lat="45.79671" lon="6.54094">
        <ele>1398</ele>
        <time>2022-07-16T03:14:39.502Z</time>
      </trkpt>
      <trkpt lat="45.79693" lon="6.54108">
        <ele>1395</ele>
        <time>2022-07-16T03:14:41.372Z</time>
      </trkpt>
      <trkpt lat="45.79743" lon="6.54149">
        <ele>1388</ele>
        <time>2022-07-16T03:14:45.847Z</time>
      </trkpt>
      <trkpt lat="45.79757" lon="6.5417">
        <ele>1386</ele>
        <time>2022-07-16T03:14:47.421Z</time>
      </trkpt>
      <trkpt lat="45.79783" lon="6.54237">
        <ele>1381</ele>
        <time>2022-07-16T03:14:51.574Z</time>
      </trkpt>
      <trkpt lat="45.79834" lon="6.54286">
        <ele>1374</ele>
        <time>2022-07-16T03:14:56.344Z</time>
      </trkpt>
      <trkpt lat="45.79991" lon="6.54469">
        <ele>1354</ele>
        <time>2022-07-16T03:15:12.061Z</time>
      </trkpt>
      <trkpt lat="45.80066" lon="6.54576">
        <ele>1346</ele>
        <time>2022-07-16T03:15:20.280Z</time>
      </trkpt>
      <trkpt lat="45.80098" lon="6.54641">
        <ele>1343</ele>
        <time>2022-07-16T03:15:24.645Z</time>
      </trkpt>
      <trkpt lat="45.80118" lon="6.5467">
        <ele>1341</ele>
        <time>2022-07-16T03:15:26.854Z</time>
      </trkpt>
      <trkpt lat="45.8019" lon="6.54742">
        <ele>1332</ele>
        <time>2022-07-16T03:15:33.673Z</time>
      </trkpt>
      <trkpt lat="45.80225" lon="6.5479">
        <ele>1328</ele>
        <time>2022-07-16T03:15:37.435Z</time>
      </trkpt>
      <trkpt lat="45.80257" lon="6.54823">
        <ele>1324</ele>
        <time>2022-07-16T03:15:40.497Z</time>
      </trkpt>
      <trkpt lat="45.803" lon="6.54862">
        <ele>1321</ele>
        <time>2022-07-16T03:15:44.343Z</time>
      </trkpt>
      <trkpt lat="45.80354" lon="6.54926">
        <ele>1317</ele>
        <time>2022-07-16T03:15:49.718Z</time>
      </trkpt>
      <trkpt lat="45.80364" lon="6.54945">
        <ele>1316</ele>
        <time>2022-07-16T03:15:50.960Z</time>
      </trkpt>
      <trkpt lat="45.80374" lon="6.54973">
        <ele>1316</ele>
        <time>2022-07-16T03:15:54.036Z</time>
      </trkpt>
      <trkpt lat="45.8038" lon="6.54999">
        <ele>1316</ele>
        <time>2022-07-16T03:15:56.714Z</time>
      </trkpt>
      <trkpt lat="45.80382" lon="6.55024">
        <ele>1317</ele>
        <time>2022-07-16T03:16:01.224Z</time>
      </trkpt>
      <trkpt lat="45.80389" lon="6.55037">
        <ele>1317</ele>
        <time>2022-07-16T03:16:02.830Z</time>
      </trkpt>
      <trkpt lat="45.80397" lon="6.55044">
        <ele>1316</ele>
        <time>2022-07-16T03:16:03.559Z</time>
      </trkpt>
      <trkpt lat="45.80406" lon="6.55046">
        <ele>1314</ele>
        <time>2022-07-16T03:16:04.266Z</time>
      </trkpt>
      <trkpt lat="45.80417" lon="6.55046">
        <ele>1313</ele>
        <time>2022-07-16T03:16:05.121Z</time>
      </trkpt>
      <trkpt lat="45.80428" lon="6.55039">
        <ele>1313</ele>
        <time>2022-07-16T03:16:06.809Z</time>
      </trkpt>
      <trkpt lat="45.80437" lon="6.55024">
        <ele>1314</ele>
        <time>2022-07-16T03:16:10.777Z</time>
      </trkpt>
      <trkpt lat="45.80441" lon="6.5501">
        <ele>1314</ele>
        <time>2022-07-16T03:16:12.257Z</time>
      </trkpt>
      <trkpt lat="45.80436" lon="6.54953">
        <ele>1311</ele>
        <time>2022-07-16T03:16:15.368Z</time>
      </trkpt>
      <trkpt lat="45.80437" lon="6.54921">
        <ele>1310</ele>
        <time>2022-07-16T03:16:17.274Z</time>
      </trkpt>
      <trkpt lat="45.80444" lon="6.54901">
        <ele>1309</ele>
        <time>2022-07-16T03:16:18.406Z</time>
      </trkpt>
      <trkpt lat="45.80469" lon="6.54852">
        <ele>1307</ele>
        <time>2022-07-16T03:16:21.939Z</time>
      </trkpt>
      <trkpt lat="45.80473" lon="6.54828">
        <ele>1305</ele>
        <time>2022-07-16T03:16:23.276Z</time>
      </trkpt>
      <trkpt lat="45.80476" lon="6.54784">
        <ele>1301</ele>
        <time>2022-07-16T03:16:25.670Z</time>
      </trkpt>
      <trkpt lat="45.80488" lon="6.54762">
        <ele>1299</ele>
        <time>2022-07-16T03:16:27.183Z</time>
      </trkpt>
      <trkpt lat="45.80517" lon="6.54742">
        <ele>1300</ele>
        <time>2022-07-16T03:16:33.493Z</time>
      </trkpt>
      <trkpt lat="45.80532" lon="6.54725">
        <ele>1301</ele>
        <time>2022-07-16T03:16:38.254Z</time>
      </trkpt>
      <trkpt lat="45.80537" lon="6.54706">
        <ele>1302</ele>
        <time>2022-07-16T03:16:42.269Z</time>
      </trkpt>
      <trkpt lat="45.8054" lon="6.54681">
        <ele>1302</ele>
        <time>2022-07-16T03:16:44.750Z</time>
      </trkpt>
      <trkpt lat="45.80538" lon="6.54619">
        <ele>1305</ele>
        <time>2022-07-16T03:16:56.902Z</time>
      </trkpt>
      <trkpt lat="45.80534" lon="6.54599">
        <ele>1305</ele>
        <time>2022-07-16T03:16:58.937Z</time>
      </trkpt>
      <trkpt lat="45.80516" lon="6.54557">
        <ele>1302</ele>
        <time>2022-07-16T03:17:01.607Z</time>
      </trkpt>
      <trkpt lat="45.8051" lon="6.54532">
        <ele>1300</ele>
        <time>2022-07-16T03:17:03.039Z</time>
      </trkpt>
      <trkpt lat="45.80489" lon="6.54332">
        <ele>1304</ele>
        <time>2022-07-16T03:17:29.761Z</time>
      </trkpt>
      <trkpt lat="45.80455" lon="6.54179">
        <ele>1301</ele>
        <time>2022-07-16T03:17:41.179Z</time>
      </trkpt>
      <trkpt lat="45.80442" lon="6.54109">
        <ele>1297</ele>
        <time>2022-07-16T03:17:45.103Z</time>
      </trkpt>
      <trkpt lat="45.80438" lon="6.54071">
        <ele>1294</ele>
        <time>2022-07-16T03:17:47.184Z</time>
      </trkpt>
      <trkpt lat="45.80441" lon="6.54031">
        <ele>1291</ele>
        <time>2022-07-16T03:17:49.363Z</time>
      </trkpt>
      <trkpt lat="45.80462" lon="6.53922">
        <ele>1284</ele>
        <time>2022-07-16T03:17:55.488Z</time>
      </trkpt>
      <trkpt lat="45.80481" lon="6.53877">
        <ele>1285</ele>
        <time>2022-07-16T03:18:02.345Z</time>
      </trkpt>
      <trkpt lat="45.805" lon="6.53848">
        <ele>1289</ele>
        <time>2022-07-16T03:18:17.356Z</time>
      </trkpt>
      <trkpt lat="45.80508" lon="6.5383">
        <ele>1292</ele>
        <time>2022-07-16T03:18:25.408Z</time>
      </trkpt>
      <trkpt lat="45.8051" lon="6.53817">
        <ele>1292</ele>
        <time>2022-07-16T03:18:26.710Z</time>
      </trkpt>
      <trkpt lat="45.80502" lon="6.53767">
        <ele>1285</ele>
        <time>2022-07-16T03:18:29.488Z</time>
      </trkpt>
      <trkpt lat="45.80502" lon="6.53756">
        <ele>1284</ele>
        <time>2022-07-16T03:18:30.084Z</time>
      </trkpt>
      <trkpt lat="45.80507" lon="6.53734">
        <ele>1287</ele>
        <time>2022-07-16T03:18:38.812Z</time>
      </trkpt>
      <trkpt lat="45.80507" lon="6.53705">
        <ele>1286</ele>
        <time>2022-07-16T03:18:40.466Z</time>
      </trkpt>
      <trkpt lat="45.805" lon="6.53688">
        <ele>1282</ele>
        <time>2022-07-16T03:18:41.535Z</time>
      </trkpt>
      <trkpt lat="45.80481" lon="6.53655">
        <ele>1273</ele>
        <time>2022-07-16T03:18:43.854Z</time>
      </trkpt>
      <trkpt lat="45.80475" lon="6.53599">
        <ele>1274</ele>
        <time>2022-07-16T03:18:51.067Z</time>
      </trkpt>
      <trkpt lat="45.80464" lon="6.53566">
        <ele>1271</ele>
        <time>2022-07-16T03:18:53.048Z</time>
      </trkpt>
      <trkpt lat="45.80449" lon="6.53542">
        <ele>1267</ele>
        <time>2022-07-16T03:18:54.794Z</time>
      </trkpt>
      <trkpt lat="45.8044" lon="6.53514">
        <ele>1267</ele>
        <time>2022-07-16T03:18:57.809Z</time>
      </trkpt>
      <trkpt lat="45.80444" lon="6.53401">
        <ele>1266</ele>
        <time>2022-07-16T03:19:07.311Z</time>
      </trkpt>
      <trkpt lat="45.80466" lon="6.53236">
        <ele>1260</ele>
        <time>2022-07-16T03:19:16.751Z</time>
      </trkpt>
      <trkpt lat="45.80465" lon="6.5318">
        <ele>1255</ele>
        <time>2022-07-16T03:19:19.785Z</time>
      </trkpt>
      <trkpt lat="45.80457" lon="6.53094">
        <ele>1248</ele>
        <time>2022-07-16T03:19:24.484Z</time>
      </trkpt>
      <trkpt lat="45.80458" lon="6.53084">
        <ele>1248</ele>
        <time>2022-07-16T03:19:25.472Z</time>
      </trkpt>
      <trkpt lat="45.80465" lon="6.53068">
        <ele>1247</ele>
        <time>2022-07-16T03:19:26.495Z</time>
      </trkpt>
      <trkpt lat="45.80471" lon="6.53061">
        <ele>1247</ele>
        <time>2022-07-16T03:19:27.580Z</time>
      </trkpt>
      <trkpt lat="45.8051" lon="6.53027">
        <ele>1246</ele>
        <time>2022-07-16T03:19:32.495Z</time>
      </trkpt>
      <trkpt lat="45.80555" lon="6.52952">
        <ele>1239</ele>
        <time>2022-07-16T03:19:37.855Z</time>
      </trkpt>
      <trkpt lat="45.80578" lon="6.52897">
        <ele>1234</ele>
        <time>2022-07-16T03:19:41.328Z</time>
      </trkpt>
      <trkpt lat="45.80591" lon="6.52852">
        <ele>1230</ele>
        <time>2022-07-16T03:19:43.967Z</time>
      </trkpt>
      <trkpt lat="45.80629" lon="6.5279">
        <ele>1230</ele>
        <time>2022-07-16T03:19:52.039Z</time>
      </trkpt>
      <trkpt lat="45.8066" lon="6.52719">
        <ele>1226</ele>
        <time>2022-07-16T03:19:56.577Z</time>
      </trkpt>
      <trkpt lat="45.80708" lon="6.52554">
        <ele>1208</ele>
        <time>2022-07-16T03:20:06.260Z</time>
      </trkpt>
      <trkpt lat="45.80717" lon="6.52538">
        <ele>1207</ele>
        <time>2022-07-16T03:20:07.373Z</time>
      </trkpt>
      <trkpt lat="45.80755" lon="6.52488">
        <ele>1204</ele>
        <time>2022-07-16T03:20:11.296Z</time>
      </trkpt>
      <trkpt lat="45.8077" lon="6.52474">
        <ele>1202</ele>
        <time>2022-07-16T03:20:12.686Z</time>
      </trkpt>
      <trkpt lat="45.8081" lon="6.52444">
        <ele>1199</ele>
        <time>2022-07-16T03:20:15.904Z</time>
      </trkpt>
      <trkpt lat="45.80844" lon="6.52403">
        <ele>1193</ele>
        <time>2022-07-16T03:20:19.354Z</time>
      </trkpt>
      <trkpt lat="45.80873" lon="6.52352">
        <ele>1189</ele>
        <time>2022-07-16T03:20:22.919Z</time>
      </trkpt>
      <trkpt lat="45.80888" lon="6.52314">
        <ele>1185</ele>
        <time>2022-07-16T03:20:25.284Z</time>
      </trkpt>
      <trkpt lat="45.80898" lon="6.52278">
        <ele>1182</ele>
        <time>2022-07-16T03:20:27.383Z</time>
      </trkpt>
      <trkpt lat="45.80914" lon="6.52183">
        <ele>1175</ele>
        <time>2022-07-16T03:20:32.676Z</time>
      </trkpt>
      <trkpt lat="45.80926" lon="6.52168">
        <ele>1173</ele>
        <time>2022-07-16T03:20:33.912Z</time>
      </trkpt>
      <trkpt lat="45.80946" lon="6.52164">
        <ele>1171</ele>
        <time>2022-07-16T03:20:35.481Z</time>
      </trkpt>
      <trkpt lat="45.80953" lon="6.52156">
        <ele>1169</ele>
        <time>2022-07-16T03:20:36.176Z</time>
      </trkpt>
      <trkpt lat="45.80954" lon="6.52143">
        <ele>1167</ele>
        <time>2022-07-16T03:20:36.885Z</time>
      </trkpt>
      <trkpt lat="45.80949" lon="6.52132">
        <ele>1166</ele>
        <time>2022-07-16T03:20:37.596Z</time>
      </trkpt>
      <trkpt lat="45.8089" lon="6.52077">
        <ele>1159</ele>
        <time>2022-07-16T03:20:43.063Z</time>
      </trkpt>
      <trkpt lat="45.80874" lon="6.52067">
        <ele>1158</ele>
        <time>2022-07-16T03:20:44.400Z</time>
      </trkpt>
      <trkpt lat="45.80867" lon="6.52066">
        <ele>1157</ele>
        <time>2022-07-16T03:20:44.946Z</time>
      </trkpt>
      <trkpt lat="45.80832" lon="6.52072">
        <ele>1157</ele>
        <time>2022-07-16T03:20:49.891Z</time>
      </trkpt>
      <trkpt lat="45.80823" lon="6.52065">
        <ele>1154</ele>
        <time>2022-07-16T03:20:50.686Z</time>
      </trkpt>
      <trkpt lat="45.80821" lon="6.52051">
        <ele>1152</ele>
        <time>2022-07-16T03:20:51.460Z</time>
      </trkpt>
      <trkpt lat="45.80862" lon="6.5201">
        <ele>1149</ele>
        <time>2022-07-16T03:20:55.206Z</time>
      </trkpt>
      <trkpt lat="45.80877" lon="6.52">
        <ele>1147</ele>
        <time>2022-07-16T03:20:56.491Z</time>
      </trkpt>
      <trkpt lat="45.80891" lon="6.51994">
        <ele>1146</ele>
        <time>2022-07-16T03:20:57.626Z</time>
      </trkpt>
      <trkpt lat="45.80899" lon="6.51993">
        <ele>1146</ele>
        <time>2022-07-16T03:20:58.753Z</time>
      </trkpt>
      <trkpt lat="45.80917" lon="6.51996">
        <ele>1147</ele>
        <time>2022-07-16T03:21:03.354Z</time>
      </trkpt>
      <trkpt lat="45.80939" lon="6.52005">
        <ele>1148</ele>
        <time>2022-07-16T03:21:08.706Z</time>
      </trkpt>
      <trkpt lat="45.8096" lon="6.5201">
        <ele>1149</ele>
        <time>2022-07-16T03:21:13.826Z</time>
      </trkpt>
      <trkpt lat="45.80967" lon="6.52009">
        <ele>1149</ele>
        <time>2022-07-16T03:21:14.812Z</time>
      </trkpt>
      <trkpt lat="45.80973" lon="6.52004">
        <ele>1148</ele>
        <time>2022-07-16T03:21:15.352Z</time>
      </trkpt>
      <trkpt lat="45.80978" lon="6.51993">
        <ele>1147</ele>
        <time>2022-07-16T03:21:16.063Z</time>
      </trkpt>
      <trkpt lat="45.80975" lon="6.51976">
        <ele>1146</ele>
        <time>2022-07-16T03:21:17.012Z</time>
      </trkpt>
      <trkpt lat="45.80965" lon="6.5196">
        <ele>1144</ele>
        <time>2022-07-16T03:21:18.176Z</time>
      </trkpt>
      <trkpt lat="45.80924" lon="6.51904">
        <ele>1137</ele>
        <time>2022-07-16T03:21:22.574Z</time>
      </trkpt>
      <trkpt lat="45.80856" lon="6.51804">
        <ele>1131</ele>
        <time>2022-07-16T03:21:29.781Z</time>
      </trkpt>
      <trkpt lat="45.80806" lon="6.51737">
        <ele>1126</ele>
        <time>2022-07-16T03:21:35.097Z</time>
      </trkpt>
      <trkpt lat="45.80798" lon="6.51719">
        <ele>1125</ele>
        <time>2022-07-16T03:21:36.253Z</time>
      </trkpt>
      <trkpt lat="45.80797" lon="6.51706">
        <ele>1124</ele>
        <time>2022-07-16T03:21:36.962Z</time>
      </trkpt>
      <trkpt lat="45.808" lon="6.5169">
        <ele>1123</ele>
        <time>2022-07-16T03:21:37.859Z</time>
      </trkpt>
      <trkpt lat="45.80813" lon="6.51674">
        <ele>1123</ele>
        <time>2022-07-16T03:21:40.262Z</time>
      </trkpt>
      <trkpt lat="45.80826" lon="6.51663">
        <ele>1122</ele>
        <time>2022-07-16T03:21:41.339Z</time>
      </trkpt>
      <trkpt lat="45.80927" lon="6.51586">
        <ele>1115</ele>
        <time>2022-07-16T03:21:49.832Z</time>
      </trkpt>
      <trkpt lat="45.80936" lon="6.51585">
        <ele>1115</ele>
        <time>2022-07-16T03:21:51.098Z</time>
      </trkpt>
      <trkpt lat="45.80972" lon="6.51599">
        <ele>1114</ele>
        <time>2022-07-16T03:21:54.902Z</time>
      </trkpt>
      <trkpt lat="45.80989" lon="6.516">
        <ele>1113</ele>
        <time>2022-07-16T03:21:56.190Z</time>
      </trkpt>
      <trkpt lat="45.80998" lon="6.51598">
        <ele>1112</ele>
        <time>2022-07-16T03:21:56.898Z</time>
      </trkpt>
      <trkpt lat="45.81015" lon="6.51589">
        <ele>1110</ele>
        <time>2022-07-16T03:21:58.306Z</time>
      </trkpt>
      <trkpt lat="45.81053" lon="6.51551">
        <ele>1105</ele>
        <time>2022-07-16T03:22:01.904Z</time>
      </trkpt>
      <trkpt lat="45.81069" lon="6.51544">
        <ele>1104</ele>
        <time>2022-07-16T03:22:03.160Z</time>
      </trkpt>
      <trkpt lat="45.81095" lon="6.51545">
        <ele>1102</ele>
        <time>2022-07-16T03:22:05.181Z</time>
      </trkpt>
      <trkpt lat="45.81137" lon="6.51561">
        <ele>1099</ele>
        <time>2022-07-16T03:22:08.557Z</time>
      </trkpt>
      <trkpt lat="45.81166" lon="6.51576">
        <ele>1099</ele>
        <time>2022-07-16T03:22:12.882Z</time>
      </trkpt>
      <trkpt lat="45.81282" lon="6.51659">
        <ele>1091</ele>
        <time>2022-07-16T03:22:22.468Z</time>
      </trkpt>
      <trkpt lat="45.81305" lon="6.51679">
        <ele>1089</ele>
        <time>2022-07-16T03:22:24.557Z</time>
      </trkpt>
      <trkpt lat="45.81347" lon="6.51737">
        <ele>1088</ele>
        <time>2022-07-16T03:22:31.199Z</time>
      </trkpt>
      <trkpt lat="45.81408" lon="6.51802">
        <ele>1081</ele>
        <time>2022-07-16T03:22:37.102Z</time>
      </trkpt>
      <trkpt lat="45.81417" lon="6.51815">
        <ele>1080</ele>
        <time>2022-07-16T03:22:38.094Z</time>
      </trkpt>
      <trkpt lat="45.81489" lon="6.51949">
        <ele>1085</ele>
        <time>2022-07-16T03:23:05.141Z</time>
      </trkpt>
      <trkpt lat="45.8156" lon="6.52074">
        <ele>1074</ele>
        <time>2022-07-16T03:23:13.873Z</time>
      </trkpt>
      <trkpt lat="45.81621" lon="6.52197">
        <ele>1061</ele>
        <time>2022-07-16T03:23:22.047Z</time>
      </trkpt>
      <trkpt lat="45.81644" lon="6.52269">
        <ele>1060</ele>
        <time>2022-07-16T03:23:28.264Z</time>
      </trkpt>
      <trkpt lat="45.81679" lon="6.52474">
        <ele>1053</ele>
        <time>2022-07-16T03:23:40.504Z</time>
      </trkpt>
      <trkpt lat="45.81696" lon="6.52551">
        <ele>1049</ele>
        <time>2022-07-16T03:23:44.877Z</time>
      </trkpt>
      <trkpt lat="45.81702" lon="6.52572">
        <ele>1048</ele>
        <time>2022-07-16T03:23:46.034Z</time>
      </trkpt>
      <trkpt lat="45.8173" lon="6.52635">
        <ele>1037</ele>
        <time>2022-07-16T03:23:50.080Z</time>
      </trkpt>
      <trkpt lat="45.81773" lon="6.52781">
        <ele>1027</ele>
        <time>2022-07-16T03:23:58.662Z</time>
      </trkpt>
      <trkpt lat="45.81783" lon="6.52797">
        <ele>1025</ele>
        <time>2022-07-16T03:23:59.826Z</time>
      </trkpt>
      <trkpt lat="45.8181" lon="6.52825">
        <ele>1018</ele>
        <time>2022-07-16T03:24:02.414Z</time>
      </trkpt>
      <trkpt lat="45.81821" lon="6.52833">
        <ele>1015</ele>
        <time>2022-07-16T03:24:03.372Z</time>
      </trkpt>
      <trkpt lat="45.81843" lon="6.52862">
        <ele>1009</ele>
        <time>2022-07-16T03:24:05.693Z</time>
      </trkpt>
      <trkpt lat="45.81861" lon="6.52901">
        <ele>1005</ele>
        <time>2022-07-16T03:24:08.226Z</time>
      </trkpt>
      <trkpt lat="45.81898" lon="6.52994">
        <ele>1004</ele>
        <time>2022-07-16T03:24:17.135Z</time>
      </trkpt>
      <trkpt lat="45.81908" lon="6.53009">
        <ele>1002</ele>
        <time>2022-07-16T03:24:18.259Z</time>
      </trkpt>
      <trkpt lat="45.8192" lon="6.5301">
        <ele>999</ele>
        <time>2022-07-16T03:24:19.193Z</time>
      </trkpt>
      <trkpt lat="45.81927" lon="6.53008">
        <ele>998</ele>
        <time>2022-07-16T03:24:19.747Z</time>
      </trkpt>
      <trkpt lat="45.81936" lon="6.52996">
        <ele>995</ele>
        <time>2022-07-16T03:24:20.702Z</time>
      </trkpt>
      <trkpt lat="45.81939" lon="6.52983">
        <ele>994</ele>
        <time>2022-07-16T03:24:21.443Z</time>
      </trkpt>
      <trkpt lat="45.81935" lon="6.52878">
        <ele>988</ele>
        <time>2022-07-16T03:24:27.137Z</time>
      </trkpt>
      <trkpt lat="45.81939" lon="6.52808">
        <ele>985</ele>
        <time>2022-07-16T03:24:30.769Z</time>
      </trkpt>
      <trkpt lat="45.81944" lon="6.52786">
        <ele>984</ele>
        <time>2022-07-16T03:24:31.959Z</time>
      </trkpt>
      <trkpt lat="45.81949" lon="6.52779">
        <ele>983</ele>
        <time>2022-07-16T03:24:32.502Z</time>
      </trkpt>
      <trkpt lat="45.81958" lon="6.52775">
        <ele>982</ele>
        <time>2022-07-16T03:24:33.234Z</time>
      </trkpt>
      <trkpt lat="45.81964" lon="6.52775">
        <ele>982</ele>
        <time>2022-07-16T03:24:34.076Z</time>
      </trkpt>
      <trkpt lat="45.81973" lon="6.5278">
        <ele>981</ele>
        <time>2022-07-16T03:24:34.825Z</time>
      </trkpt>
      <trkpt lat="45.82012" lon="6.52826">
        <ele>978</ele>
        <time>2022-07-16T03:24:38.627Z</time>
      </trkpt>
      <trkpt lat="45.82056" lon="6.52884">
        <ele>974</ele>
        <time>2022-07-16T03:24:43.269Z</time>
      </trkpt>
      <trkpt lat="45.82067" lon="6.52902">
        <ele>972</ele>
        <time>2022-07-16T03:24:44.566Z</time>
      </trkpt>
      <trkpt lat="45.82091" lon="6.52962">
        <ele>967</ele>
        <time>2022-07-16T03:24:48.312Z</time>
      </trkpt>
      <trkpt lat="45.82109" lon="6.53015">
        <ele>966</ele>
        <time>2022-07-16T03:24:52.617Z</time>
      </trkpt>
      <trkpt lat="45.8212" lon="6.53056">
        <ele>967</ele>
        <time>2022-07-16T03:24:58.746Z</time>
      </trkpt>
      <trkpt lat="45.8212" lon="6.53103">
        <ele>966</ele>
        <time>2022-07-16T03:25:01.956Z</time>
      </trkpt>
      <trkpt lat="45.82124" lon="6.53118">
        <ele>965</ele>
        <time>2022-07-16T03:25:02.826Z</time>
      </trkpt>
      <trkpt lat="45.82132" lon="6.53118">
        <ele>965</ele>
        <time>2022-07-16T03:25:03.948Z</time>
      </trkpt>
      <trkpt lat="45.82135" lon="6.5311">
        <ele>965</ele>
        <time>2022-07-16T03:25:04.836Z</time>
      </trkpt>
      <trkpt lat="45.82134" lon="6.53106">
        <ele>965</ele>
        <time>2022-07-16T03:25:05.252Z</time>
      </trkpt>
      <trkpt lat="45.82141" lon="6.53107">
        <ele>964</ele>
        <time>2022-07-16T03:25:05.798Z</time>
      </trkpt>
      <trkpt lat="45.82145" lon="6.53128">
        <ele>963</ele>
        <time>2022-07-16T03:25:06.884Z</time>
      </trkpt>
      <trkpt lat="45.82187" lon="6.532">
        <ele>963</ele>
        <time>2022-07-16T03:25:16.063Z</time>
      </trkpt>
      <trkpt lat="45.82208" lon="6.53255">
        <ele>963</ele>
        <time>2022-07-16T03:25:22.194Z</time>
      </trkpt>
      <trkpt lat="45.82216" lon="6.53269">
        <ele>964</ele>
        <time>2022-07-16T03:25:26.023Z</time>
      </trkpt>
      <trkpt lat="45.82231" lon="6.53286">
        <ele>965</ele>
        <time>2022-07-16T03:25:30.783Z</time>
      </trkpt>
      <trkpt lat="45.82284" lon="6.53331">
        <ele>970</ele>
        <time>2022-07-16T03:25:49.768Z</time>
      </trkpt>
      <trkpt lat="45.82316" lon="6.53374">
        <ele>974</ele>
        <time>2022-07-16T03:26:04.503Z</time>
      </trkpt>
      <trkpt lat="45.82327" lon="6.53394">
        <ele>975</ele>
        <time>2022-07-16T03:26:09.046Z</time>
      </trkpt>
      <trkpt lat="45.82342" lon="6.53449">
        <ele>974</ele>
        <time>2022-07-16T03:26:13.362Z</time>
      </trkpt>
      <trkpt lat="45.82352" lon="6.53473">
        <ele>975</ele>
        <time>2022-07-16T03:26:18.183Z</time>
      </trkpt>
      <trkpt lat="45.82368" lon="6.53496">
        <ele>978</ele>
        <time>2022-07-16T03:26:30.268Z</time>
      </trkpt>
      <trkpt lat="45.82412" lon="6.53542">
        <ele>984</ele>
        <time>2022-07-16T03:26:52.322Z</time>
      </trkpt>
      <trkpt lat="45.82465" lon="6.53632">
        <ele>990</ele>
        <time>2022-07-16T03:27:16.049Z</time>
      </trkpt>
      <trkpt lat="45.82471" lon="6.53655">
        <ele>991</ele>
        <time>2022-07-16T03:27:20.492Z</time>
      </trkpt>
      <trkpt lat="45.82469" lon="6.53688">
        <ele>991</ele>
        <time>2022-07-16T03:27:23.730Z</time>
      </trkpt>
      <trkpt lat="45.82464" lon="6.53709">
        <ele>989</ele>
        <time>2022-07-16T03:27:24.932Z</time>
      </trkpt>
      <trkpt lat="45.82462" lon="6.53758">
        <ele>989</ele>
        <time>2022-07-16T03:27:29.730Z</time>
      </trkpt>
      <trkpt lat="45.82463" lon="6.53774">
        <ele>989</ele>
        <time>2022-07-16T03:27:31.300Z</time>
      </trkpt>
      <trkpt lat="45.82478" lon="6.53845">
        <ele>993</ele>
        <time>2022-07-16T03:27:46.752Z</time>
      </trkpt>
      <trkpt lat="45.82499" lon="6.5389">
        <ele>996</ele>
        <time>2022-07-16T03:27:58.226Z</time>
      </trkpt>
      <trkpt lat="45.82551" lon="6.53972">
        <ele>1002</ele>
        <time>2022-07-16T03:28:21.371Z</time>
      </trkpt>
      <trkpt lat="45.82582" lon="6.54011">
        <ele>1005</ele>
        <time>2022-07-16T03:28:33.256Z</time>
      </trkpt>
      <trkpt lat="45.82631" lon="6.54057">
        <ele>1011</ele>
        <time>2022-07-16T03:28:55.143Z</time>
      </trkpt>
      <trkpt lat="45.82649" lon="6.54089">
        <ele>1012</ele>
        <time>2022-07-16T03:29:01.051Z</time>
      </trkpt>
      <trkpt lat="45.82705" lon="6.54234">
        <ele>1017</ele>
        <time>2022-07-16T03:29:27.901Z</time>
      </trkpt>
      <trkpt lat="45.82726" lon="6.54305">
        <ele>1017</ele>
        <time>2022-07-16T03:29:35.440Z</time>
      </trkpt>
      <trkpt lat="45.8273" lon="6.54329">
        <ele>1016</ele>
        <time>2022-07-16T03:29:36.748Z</time>
      </trkpt>
      <trkpt lat="45.82731" lon="6.5436">
        <ele>1016</ele>
        <time>2022-07-16T03:29:39.782Z</time>
      </trkpt>
      <trkpt lat="45.82728" lon="6.544">
        <ele>1015</ele>
        <time>2022-07-16T03:29:42.390Z</time>
      </trkpt>
      <trkpt lat="45.82724" lon="6.5442">
        <ele>1013</ele>
        <time>2022-07-16T03:29:43.516Z</time>
      </trkpt>
      <trkpt lat="45.82739" lon="6.545">
        <ele>1017</ele>
        <time>2022-07-16T03:29:59.725Z</time>
      </trkpt>
      <trkpt lat="45.82754" lon="6.54495">
        <ele>1021</ele>
        <time>2022-07-16T03:30:08.057Z</time>
      </trkpt>
      <trkpt lat="45.8279" lon="6.5453">
        <ele>1027</ele>
        <time>2022-07-16T03:30:31.584Z</time>
      </trkpt>
      <trkpt lat="45.82793" lon="6.5453">
        <ele>1028</ele>
        <time>2022-07-16T03:30:33.207Z</time>
      </trkpt>
      <trkpt lat="45.82798" lon="6.54524">
        <ele>1029</ele>
        <time>2022-07-16T03:30:36.734Z</time>
      </trkpt>
      <trkpt lat="45.82825" lon="6.54583">
        <ele>1034</ele>
        <time>2022-07-16T03:30:54.970Z</time>
      </trkpt>
      <trkpt lat="45.8284" lon="6.54599">
        <ele>1035</ele>
        <time>2022-07-16T03:30:59.662Z</time>
      </trkpt>
      <trkpt lat="45.82849" lon="6.54602">
        <ele>1037</ele>
        <time>2022-07-16T03:31:04.661Z</time>
      </trkpt>
      <trkpt lat="45.82852" lon="6.54595">
        <ele>1038</ele>
        <time>2022-07-16T03:31:07.760Z</time>
      </trkpt>
      <trkpt lat="45.82844" lon="6.54564">
        <ele>1039</ele>
        <time>2022-07-16T03:31:13.124Z</time>
      </trkpt>
      <trkpt lat="45.82844" lon="6.54548">
        <ele>1040</ele>
        <time>2022-07-16T03:31:16.820Z</time>
      </trkpt>
      <trkpt lat="45.82848" lon="6.54523">
        <ele>1042</ele>
        <time>2022-07-16T03:31:24.195Z</time>
      </trkpt>
      <trkpt lat="45.82847" lon="6.54504">
        <ele>1042</ele>
        <time>2022-07-16T03:31:26.057Z</time>
      </trkpt>
      <trkpt lat="45.82824" lon="6.54422">
        <ele>1041</ele>
        <time>2022-07-16T03:31:33.154Z</time>
      </trkpt>
      <trkpt lat="45.82819" lon="6.54411">
        <ele>1040</ele>
        <time>2022-07-16T03:31:33.865Z</time>
      </trkpt>
      <trkpt lat="45.82813" lon="6.54408">
        <ele>1039</ele>
        <time>2022-07-16T03:31:34.359Z</time>
      </trkpt>
      <trkpt lat="45.82804" lon="6.5446">
        <ele>1034</ele>
        <time>2022-07-16T03:31:37.259Z</time>
      </trkpt>
      <trkpt lat="45.82798" lon="6.54524">
        <ele>1029</ele>
        <time>2022-07-16T03:31:40.756Z</time>
      </trkpt>
      <trkpt lat="45.82795" lon="6.54529">
        <ele>1028</ele>
        <time>2022-07-16T03:31:41.113Z</time>
      </trkpt>
      <trkpt lat="45.8279" lon="6.5453">
        <ele>1027</ele>
        <time>2022-07-16T03:31:41.505Z</time>
      </trkpt>
      <trkpt lat="45.82786" lon="6.54527">
        <ele>1026</ele>
        <time>2022-07-16T03:31:41.856Z</time>
      </trkpt>
      <trkpt lat="45.82766" lon="6.54508">
        <ele>1023</ele>
        <time>2022-07-16T03:31:43.719Z</time>
      </trkpt>
      <trkpt lat="45.82758" lon="6.54497">
        <ele>1022</ele>
        <time>2022-07-16T03:31:44.580Z</time>
      </trkpt>
      <trkpt lat="45.82754" lon="6.54495">
        <ele>1021</ele>
        <time>2022-07-16T03:31:44.909Z</time>
      </trkpt>
      <trkpt lat="45.82739" lon="6.545">
        <ele>1017</ele>
        <time>2022-07-16T03:31:46.105Z</time>
      </trkpt>
      <trkpt lat="45.82753" lon="6.54545">
        <ele>1016</ele>
        <time>2022-07-16T03:31:49.522Z</time>
      </trkpt>
      <trkpt lat="45.82764" lon="6.54576">
        <ele>1016</ele>
        <time>2022-07-16T03:31:52.922Z</time>
      </trkpt>
      <trkpt lat="45.8278" lon="6.54607">
        <ele>1016</ele>
        <time>2022-07-16T03:31:56.693Z</time>
      </trkpt>
      <trkpt lat="45.82811" lon="6.54643">
        <ele>1019</ele>
        <time>2022-07-16T03:32:08.412Z</time>
      </trkpt>
      <trkpt lat="45.82831" lon="6.54675">
        <ele>1021</ele>
        <time>2022-07-16T03:32:16.666Z</time>
      </trkpt>
      <trkpt lat="45.8288" lon="6.54783">
        <ele>1022</ele>
        <time>2022-07-16T03:32:30.693Z</time>
      </trkpt>
      <trkpt lat="45.82885" lon="6.54798">
        <ele>1022</ele>
        <time>2022-07-16T03:32:32.319Z</time>
      </trkpt>
      <trkpt lat="45.82888" lon="6.54824">
        <ele>1020</ele>
        <time>2022-07-16T03:32:33.746Z</time>
      </trkpt>
      <trkpt lat="45.82886" lon="6.54896">
        <ele>1010</ele>
        <time>2022-07-16T03:32:37.647Z</time>
      </trkpt>
      <trkpt lat="45.82891" lon="6.54943">
        <ele>1008</ele>
        <time>2022-07-16T03:32:40.123Z</time>
      </trkpt>
      <trkpt lat="45.82902" lon="6.54979">
        <ele>1008</ele>
        <time>2022-07-16T03:32:43.965Z</time>
      </trkpt>
      <trkpt lat="45.82949" lon="6.55072">
        <ele>1010</ele>
        <time>2022-07-16T03:32:58.527Z</time>
      </trkpt>
      <trkpt lat="45.82968" lon="6.55099">
        <ele>1011</ele>
        <time>2022-07-16T03:33:04.232Z</time>
      </trkpt>
      <trkpt lat="45.83012" lon="6.55134">
        <ele>1011</ele>
        <time>2022-07-16T03:33:11.289Z</time>
      </trkpt>
      <trkpt lat="45.83042" lon="6.55167">
        <ele>1007</ele>
        <time>2022-07-16T03:33:14.225Z</time>
      </trkpt>
      <trkpt lat="45.83078" lon="6.55233">
        <ele>1002</ele>
        <time>2022-07-16T03:33:18.763Z</time>
      </trkpt>
      <trkpt lat="45.83087" lon="6.55244">
        <ele>1000</ele>
        <time>2022-07-16T03:33:19.681Z</time>
      </trkpt>
      <trkpt lat="45.83145" lon="6.55284">
        <ele>1003</ele>
        <time>2022-07-16T03:33:35.123Z</time>
      </trkpt>
      <trkpt lat="45.83177" lon="6.5532">
        <ele>1003</ele>
        <time>2022-07-16T03:33:40.827Z</time>
      </trkpt>
      <trkpt lat="45.83195" lon="6.5535">
        <ele>1004</ele>
        <time>2022-07-16T03:33:46.620Z</time>
      </trkpt>
      <trkpt lat="45.83211" lon="6.55402">
        <ele>1007</ele>
        <time>2022-07-16T03:33:58.306Z</time>
      </trkpt>
      <trkpt lat="45.83272" lon="6.55713">
        <ele>1003</ele>
        <time>2022-07-16T03:34:23.764Z</time>
      </trkpt>
      <trkpt lat="45.83273" lon="6.55752">
        <ele>1004</ele>
        <time>2022-07-16T03:34:29.516Z</time>
      </trkpt>
      <trkpt lat="45.83266" lon="6.55924">
        <ele>1002</ele>
        <time>2022-07-16T03:34:43.275Z</time>
      </trkpt>
      <trkpt lat="45.83267" lon="6.55938">
        <ele>1002</ele>
        <time>2022-07-16T03:34:44.651Z</time>
      </trkpt>
      <trkpt lat="45.83273" lon="6.55961">
        <ele>1003</ele>
        <time>2022-07-16T03:34:49.094Z</time>
      </trkpt>
      <trkpt lat="45.83283" lon="6.55985">
        <ele>1004</ele>
        <time>2022-07-16T03:34:53.915Z</time>
      </trkpt>
      <trkpt lat="45.83292" lon="6.56">
        <ele>1005</ele>
        <time>2022-07-16T03:34:57.883Z</time>
      </trkpt>
      <trkpt lat="45.83366" lon="6.56113">
        <ele>1011</ele>
        <time>2022-07-16T03:35:25.382Z</time>
      </trkpt>
      <trkpt lat="45.83395" lon="6.5617">
        <ele>1013</ele>
        <time>2022-07-16T03:35:36.375Z</time>
      </trkpt>
      <trkpt lat="45.83408" lon="6.5621">
        <ele>1013</ele>
        <time>2022-07-16T03:35:40.689Z</time>
      </trkpt>
      <trkpt lat="45.83457" lon="6.56388">
        <ele>1012</ele>
        <time>2022-07-16T03:35:57.898Z</time>
      </trkpt>
      <trkpt lat="45.83493" lon="6.56471">
        <ele>1012</ele>
        <time>2022-07-16T03:36:07.453Z</time>
      </trkpt>
      <trkpt lat="45.83656" lon="6.56825">
        <ele>1020</ele>
        <time>2022-07-16T03:37:02.590Z</time>
      </trkpt>
      <trkpt lat="45.83702" lon="6.5692">
        <ele>1024</ele>
        <time>2022-07-16T03:37:22.312Z</time>
      </trkpt>
      <trkpt lat="45.83783" lon="6.57099">
        <ele>1031</ele>
        <time>2022-07-16T03:37:58.100Z</time>
      </trkpt>
      <trkpt lat="45.83783" lon="6.57109">
        <ele>1031</ele>
        <time>2022-07-16T03:37:59.078Z</time>
      </trkpt>
      <trkpt lat="45.83801" lon="6.57162">
        <ele>1031</ele>
        <time>2022-07-16T03:38:04.840Z</time>
      </trkpt>
      <trkpt lat="45.8384" lon="6.57336">
        <ele>1030</ele>
        <time>2022-07-16T03:38:21.194Z</time>
      </trkpt>
      <trkpt lat="45.83927" lon="6.57676">
        <ele>1023</ele>
        <time>2022-07-16T03:38:46.672Z</time>
      </trkpt>
      <trkpt lat="45.83928" lon="6.5772">
        <ele>1022</ele>
        <time>2022-07-16T03:38:49.614Z</time>
      </trkpt>
      <trkpt lat="45.8393" lon="6.57725">
        <ele>1022</ele>
        <time>2022-07-16T03:38:50.178Z</time>
      </trkpt>
      <trkpt lat="45.83934" lon="6.57726">
        <ele>1023</ele>
        <time>2022-07-16T03:38:52.375Z</time>
      </trkpt>
      <trkpt lat="45.83945" lon="6.57748">
        <ele>1024</ele>
        <time>2022-07-16T03:38:57.095Z</time>
      </trkpt>
      <trkpt lat="45.84023" lon="6.58056">
        <ele>1034</ele>
        <time>2022-07-16T03:39:50.579Z</time>
      </trkpt>
      <trkpt lat="45.84069" lon="6.58212">
        <ele>1032</ele>
        <time>2022-07-16T03:40:04.059Z</time>
      </trkpt>
      <trkpt lat="45.84065" lon="6.58216">
        <ele>1031</ele>
        <time>2022-07-16T03:40:04.437Z</time>
      </trkpt>
      <trkpt lat="45.84063" lon="6.58223">
        <ele>1030</ele>
        <time>2022-07-16T03:40:04.847Z</time>
      </trkpt>
      <trkpt lat="45.84065" lon="6.58235">
        <ele>1029</ele>
        <time>2022-07-16T03:40:05.515Z</time>
      </trkpt>
      <trkpt lat="45.84073" lon="6.58244">
        <ele>1028</ele>
        <time>2022-07-16T03:40:06.304Z</time>
      </trkpt>
      <trkpt lat="45.84078" lon="6.58243">
        <ele>1029</ele>
        <time>2022-07-16T03:40:09.036Z</time>
      </trkpt>
      <trkpt lat="45.84125" lon="6.58384">
        <ele>1028</ele>
        <time>2022-07-16T03:40:22.771Z</time>
      </trkpt>
      <trkpt lat="45.84138" lon="6.58425">
        <ele>1028</ele>
        <time>2022-07-16T03:40:27.173Z</time>
      </trkpt>
      <trkpt lat="45.8414" lon="6.58443">
        <ele>1028</ele>
        <time>2022-07-16T03:40:28.954Z</time>
      </trkpt>
      <trkpt lat="45.84209" lon="6.58656">
        <ele>1036</ele>
        <time>2022-07-16T03:41:08.802Z</time>
      </trkpt>
      <trkpt lat="45.84226" lon="6.5869">
        <ele>1038</ele>
        <time>2022-07-16T03:41:16.945Z</time>
      </trkpt>
      <trkpt lat="45.8424" lon="6.58729">
        <ele>1039</ele>
        <time>2022-07-16T03:41:23.068Z</time>
      </trkpt>
      <trkpt lat="45.8426" lon="6.58823">
        <ele>1041</ele>
        <time>2022-07-16T03:41:36.181Z</time>
      </trkpt>
      <trkpt lat="45.8427" lon="6.58939">
        <ele>1041</ele>
        <time>2022-07-16T03:41:47.603Z</time>
      </trkpt>
      <trkpt lat="45.84281" lon="6.58974">
        <ele>1041</ele>
        <time>2022-07-16T03:41:51.355Z</time>
      </trkpt>
      <trkpt lat="45.843" lon="6.59001">
        <ele>1042</ele>
        <time>2022-07-16T03:41:57.060Z</time>
      </trkpt>
      <trkpt lat="45.84389" lon="6.59081">
        <ele>1044</ele>
        <time>2022-07-16T03:42:14.903Z</time>
      </trkpt>
      <trkpt lat="45.84405" lon="6.591">
        <ele>1044</ele>
        <time>2022-07-16T03:42:17.816Z</time>
      </trkpt>
      <trkpt lat="45.845" lon="6.59254">
        <ele>1048</ele>
        <time>2022-07-16T03:42:44.822Z</time>
      </trkpt>
      <trkpt lat="45.84519" lon="6.59277">
        <ele>1048</ele>
        <time>2022-07-16T03:42:48.308Z</time>
      </trkpt>
      <trkpt lat="45.84704" lon="6.59408">
        <ele>1055</ele>
        <time>2022-07-16T03:43:30.295Z</time>
      </trkpt>
      <trkpt lat="45.84716" lon="6.59418">
        <ele>1055</ele>
        <time>2022-07-16T03:43:32.242Z</time>
      </trkpt>
      <trkpt lat="45.84719" lon="6.59425">
        <ele>1055</ele>
        <time>2022-07-16T03:43:33.045Z</time>
      </trkpt>
      <trkpt lat="45.84729" lon="6.59435">
        <ele>1056</ele>
        <time>2022-07-16T03:43:36.829Z</time>
      </trkpt>
      <trkpt lat="45.8474" lon="6.59452">
        <ele>1056</ele>
        <time>2022-07-16T03:43:39.096Z</time>
      </trkpt>
      <trkpt lat="45.84752" lon="6.59479">
        <ele>1056</ele>
        <time>2022-07-16T03:43:42.226Z</time>
      </trkpt>
      <trkpt lat="45.8483" lon="6.59714">
        <ele>1059</ele>
        <time>2022-07-16T03:44:12.205Z</time>
      </trkpt>
      <trkpt lat="45.84839" lon="6.59733">
        <ele>1060</ele>
        <time>2022-07-16T03:44:16.480Z</time>
      </trkpt>
      <trkpt lat="45.84857" lon="6.59786">
        <ele>1059</ele>
        <time>2022-07-16T03:44:20.784Z</time>
      </trkpt>
      <trkpt lat="45.8487" lon="6.59812">
        <ele>1059</ele>
        <time>2022-07-16T03:44:23.911Z</time>
      </trkpt>
      <trkpt lat="45.84913" lon="6.59862">
        <ele>1058</ele>
        <time>2022-07-16T03:44:30.146Z</time>
      </trkpt>
      <trkpt lat="45.84928" lon="6.59884">
        <ele>1057</ele>
        <time>2022-07-16T03:44:31.945Z</time>
      </trkpt>
      <trkpt lat="45.84935" lon="6.59899">
        <ele>1056</ele>
        <time>2022-07-16T03:44:32.923Z</time>
      </trkpt>
      <trkpt lat="45.8494" lon="6.59915">
        <ele>1056</ele>
        <time>2022-07-16T03:44:34.636Z</time>
      </trkpt>
      <trkpt lat="45.84945" lon="6.59955">
        <ele>1055</ele>
        <time>2022-07-16T03:44:37.278Z</time>
      </trkpt>
      <trkpt lat="45.8495" lon="6.60028">
        <ele>1056</ele>
        <time>2022-07-16T03:44:46.011Z</time>
      </trkpt>
      <trkpt lat="45.8495" lon="6.60084">
        <ele>1057</ele>
        <time>2022-07-16T03:44:53.162Z</time>
      </trkpt>
      <trkpt lat="45.84953" lon="6.60104">
        <ele>1058</ele>
        <time>2022-07-16T03:44:57.190Z</time>
      </trkpt>
      <trkpt lat="45.84961" lon="6.60131">
        <ele>1060</ele>
        <time>2022-07-16T03:45:04.493Z</time>
      </trkpt>
      <trkpt lat="45.8498" lon="6.60162">
        <ele>1063</ele>
        <time>2022-07-16T03:45:15.444Z</time>
      </trkpt>
      <trkpt lat="45.84997" lon="6.60184">
        <ele>1064</ele>
        <time>2022-07-16T03:45:20.797Z</time>
      </trkpt>
      <trkpt lat="45.8502" lon="6.6023">
        <ele>1064</ele>
        <time>2022-07-16T03:45:26.330Z</time>
      </trkpt>
      <trkpt lat="45.85031" lon="6.60247">
        <ele>1064</ele>
        <time>2022-07-16T03:45:28.597Z</time>
      </trkpt>
      <trkpt lat="45.85051" lon="6.60269">
        <ele>1065</ele>
        <time>2022-07-16T03:45:34.150Z</time>
      </trkpt>
      <trkpt lat="45.85066" lon="6.60278">
        <ele>1065</ele>
        <time>2022-07-16T03:45:36.430Z</time>
      </trkpt>
      <trkpt lat="45.85078" lon="6.60282">
        <ele>1066</ele>
        <time>2022-07-16T03:45:40.228Z</time>
      </trkpt>
      <trkpt lat="45.85092" lon="6.60295">
        <ele>1067</ele>
        <time>2022-07-16T03:45:44.603Z</time>
      </trkpt>
      <trkpt lat="45.85099" lon="6.60306">
        <ele>1068</ele>
        <time>2022-07-16T03:45:48.259Z</time>
      </trkpt>
      <trkpt lat="45.85107" lon="6.60334">
        <ele>1069</ele>
        <time>2022-07-16T03:45:53.344Z</time>
      </trkpt>
      <trkpt lat="45.85107" lon="6.60347">
        <ele>1069</ele>
        <time>2022-07-16T03:45:54.615Z</time>
      </trkpt>
      <trkpt lat="45.85104" lon="6.60372">
        <ele>1069</ele>
        <time>2022-07-16T03:45:57.093Z</time>
      </trkpt>
      <trkpt lat="45.85096" lon="6.60398">
        <ele>1068</ele>
        <time>2022-07-16T03:45:58.699Z</time>
      </trkpt>
      <trkpt lat="45.85092" lon="6.60423">
        <ele>1068</ele>
        <time>2022-07-16T03:46:01.205Z</time>
      </trkpt>
      <trkpt lat="45.85096" lon="6.60452">
        <ele>1067</ele>
        <time>2022-07-16T03:46:02.904Z</time>
      </trkpt>
      <trkpt lat="45.85107" lon="6.60473">
        <ele>1068</ele>
        <time>2022-07-16T03:46:07.534Z</time>
      </trkpt>
      <trkpt lat="45.85122" lon="6.60485">
        <ele>1070</ele>
        <time>2022-07-16T03:46:14.995Z</time>
      </trkpt>
      <trkpt lat="45.85134" lon="6.6049">
        <ele>1071</ele>
        <time>2022-07-16T03:46:18.811Z</time>
      </trkpt>
      <trkpt lat="45.85211" lon="6.6051">
        <ele>1073</ele>
        <time>2022-07-16T03:46:33.143Z</time>
      </trkpt>
      <trkpt lat="45.85227" lon="6.60512">
        <ele>1073</ele>
        <time>2022-07-16T03:46:35.396Z</time>
      </trkpt>
      <trkpt lat="45.85249" lon="6.6051">
        <ele>1073</ele>
        <time>2022-07-16T03:46:38.488Z</time>
      </trkpt>
      <trkpt lat="45.85262" lon="6.60504">
        <ele>1073</ele>
        <time>2022-07-16T03:46:40.404Z</time>
      </trkpt>
      <trkpt lat="45.85295" lon="6.60478">
        <ele>1074</ele>
        <time>2022-07-16T03:46:47.382Z</time>
      </trkpt>
      <trkpt lat="45.85322" lon="6.60462">
        <ele>1075</ele>
        <time>2022-07-16T03:46:53.351Z</time>
      </trkpt>
      <trkpt lat="45.85332" lon="6.60461">
        <ele>1075</ele>
        <time>2022-07-16T03:46:54.758Z</time>
      </trkpt>
      <trkpt lat="45.85341" lon="6.60463">
        <ele>1075</ele>
        <time>2022-07-16T03:46:56.035Z</time>
      </trkpt>
      <trkpt lat="45.85373" lon="6.60479">
        <ele>1075</ele>
        <time>2022-07-16T03:47:00.788Z</time>
      </trkpt>
      <trkpt lat="45.85404" lon="6.605">
        <ele>1075</ele>
        <time>2022-07-16T03:47:05.597Z</time>
      </trkpt>
      <trkpt lat="45.85417" lon="6.60518">
        <ele>1074</ele>
        <time>2022-07-16T03:47:07.002Z</time>
      </trkpt>
      <trkpt lat="45.85422" lon="6.60531">
        <ele>1075</ele>
        <time>2022-07-16T03:47:10.657Z</time>
      </trkpt>
      <trkpt lat="45.85427" lon="6.60558">
        <ele>1074</ele>
        <time>2022-07-16T03:47:12.224Z</time>
      </trkpt>
      <trkpt lat="45.85427" lon="6.60612">
        <ele>1072</ele>
        <time>2022-07-16T03:47:15.205Z</time>
      </trkpt>
      <trkpt lat="45.8543" lon="6.6064">
        <ele>1072</ele>
        <time>2022-07-16T03:47:17.973Z</time>
      </trkpt>
      <trkpt lat="45.85438" lon="6.60669">
        <ele>1072</ele>
        <time>2022-07-16T03:47:21.021Z</time>
      </trkpt>
      <trkpt lat="45.85458" lon="6.60701">
        <ele>1073</ele>
        <time>2022-07-16T03:47:27.072Z</time>
      </trkpt>
      <trkpt lat="45.85466" lon="6.60709">
        <ele>1073</ele>
        <time>2022-07-16T03:47:28.440Z</time>
      </trkpt>
      <trkpt lat="45.85483" lon="6.6072">
        <ele>1074</ele>
        <time>2022-07-16T03:47:33.125Z</time>
      </trkpt>
      <trkpt lat="45.85499" lon="6.60725">
        <ele>1076</ele>
        <time>2022-07-16T03:47:40.742Z</time>
      </trkpt>
      <trkpt lat="45.85595" lon="6.60729">
        <ele>1082</ele>
        <time>2022-07-16T03:48:06.395Z</time>
      </trkpt>
      <trkpt lat="45.85624" lon="6.60733">
        <ele>1083</ele>
        <time>2022-07-16T03:48:12.356Z</time>
      </trkpt>
      <trkpt lat="45.85636" lon="6.60738">
        <ele>1083</ele>
        <time>2022-07-16T03:48:14.109Z</time>
      </trkpt>
      <trkpt lat="45.85658" lon="6.60752">
        <ele>1083</ele>
        <time>2022-07-16T03:48:17.484Z</time>
      </trkpt>
      <trkpt lat="45.85678" lon="6.60775">
        <ele>1085</ele>
        <time>2022-07-16T03:48:25.185Z</time>
      </trkpt>
      <trkpt lat="45.85711" lon="6.60821">
        <ele>1086</ele>
        <time>2022-07-16T03:48:33.241Z</time>
      </trkpt>
      <trkpt lat="45.85722" lon="6.6085">
        <ele>1085</ele>
        <time>2022-07-16T03:48:35.227Z</time>
      </trkpt>
      <trkpt lat="45.85737" lon="6.60872">
        <ele>1084</ele>
        <time>2022-07-16T03:48:37.026Z</time>
      </trkpt>
      <trkpt lat="45.85746" lon="6.60892">
        <ele>1083</ele>
        <time>2022-07-16T03:48:38.266Z</time>
      </trkpt>
      <trkpt lat="45.85756" lon="6.60928">
        <ele>1082</ele>
        <time>2022-07-16T03:48:40.744Z</time>
      </trkpt>
      <trkpt lat="45.85763" lon="6.60972">
        <ele>1085</ele>
        <time>2022-07-16T03:48:51.722Z</time>
      </trkpt>
      <trkpt lat="45.85761" lon="6.61005">
        <ele>1085</ele>
        <time>2022-07-16T03:48:54.958Z</time>
      </trkpt>
      <trkpt lat="45.85753" lon="6.61016">
        <ele>1085</ele>
        <time>2022-07-16T03:48:56.512Z</time>
      </trkpt>
      <trkpt lat="45.85754" lon="6.6103">
        <ele>1086</ele>
        <time>2022-07-16T03:49:00.160Z</time>
      </trkpt>
      <trkpt lat="45.85758" lon="6.61036">
        <ele>1086</ele>
        <time>2022-07-16T03:49:00.971Z</time>
      </trkpt>
      <trkpt lat="45.85759" lon="6.61087">
        <ele>1088</ele>
        <time>2022-07-16T03:49:10.061Z</time>
      </trkpt>
      <trkpt lat="45.85744" lon="6.61179">
        <ele>1089</ele>
        <time>2022-07-16T03:49:20.785Z</time>
      </trkpt>
      <trkpt lat="45.8574" lon="6.61226">
        <ele>1090</ele>
        <time>2022-07-16T03:49:27.189Z</time>
      </trkpt>
      <trkpt lat="45.85738" lon="6.61228">
        <ele>1091</ele>
        <time>2022-07-16T03:49:28.508Z</time>
      </trkpt>
      <trkpt lat="45.85738" lon="6.61266">
        <ele>1091</ele>
        <time>2022-07-16T03:49:32.221Z</time>
      </trkpt>
      <trkpt lat="45.85742" lon="6.61314">
        <ele>1091</ele>
        <time>2022-07-16T03:49:36.943Z</time>
      </trkpt>
      <trkpt lat="45.85781" lon="6.61461">
        <ele>1093</ele>
        <time>2022-07-16T03:49:55.397Z</time>
      </trkpt>
      <trkpt lat="45.8581" lon="6.61582">
        <ele>1096</ele>
        <time>2022-07-16T03:50:13.471Z</time>
      </trkpt>
      <trkpt lat="45.85815" lon="6.61613">
        <ele>1097</ele>
        <time>2022-07-16T03:50:18.739Z</time>
      </trkpt>
      <trkpt lat="45.8581" lon="6.61624">
        <ele>1098</ele>
        <time>2022-07-16T03:50:22.409Z</time>
      </trkpt>
      <trkpt lat="45.85809" lon="6.61633">
        <ele>1098</ele>
        <time>2022-07-16T03:50:23.299Z</time>
      </trkpt>
      <trkpt lat="45.85813" lon="6.6166">
        <ele>1099</ele>
        <time>2022-07-16T03:50:28.078Z</time>
      </trkpt>
      <trkpt lat="45.85818" lon="6.61667">
        <ele>1099</ele>
        <time>2022-07-16T03:50:29.057Z</time>
      </trkpt>
      <trkpt lat="45.85825" lon="6.61667">
        <ele>1099</ele>
        <time>2022-07-16T03:50:30.039Z</time>
      </trkpt>
      <trkpt lat="45.85837" lon="6.61686">
        <ele>1099</ele>
        <time>2022-07-16T03:50:32.545Z</time>
      </trkpt>
      <trkpt lat="45.8585" lon="6.61724">
        <ele>1100</ele>
        <time>2022-07-16T03:50:38.545Z</time>
      </trkpt>
      <trkpt lat="45.85884" lon="6.61853">
        <ele>1099</ele>
        <time>2022-07-16T03:50:50.465Z</time>
      </trkpt>
      <trkpt lat="45.85904" lon="6.61894">
        <ele>1098</ele>
        <time>2022-07-16T03:50:53.949Z</time>
      </trkpt>
      <trkpt lat="45.85928" lon="6.61929">
        <ele>1098</ele>
        <time>2022-07-16T03:50:58.747Z</time>
      </trkpt>
      <trkpt lat="45.85934" lon="6.61948">
        <ele>1097</ele>
        <time>2022-07-16T03:50:59.876Z</time>
      </trkpt>
      <trkpt lat="45.85935" lon="6.61976">
        <ele>1097</ele>
        <time>2022-07-16T03:51:02.615Z</time>
      </trkpt>
      <trkpt lat="45.85939" lon="6.61985">
        <ele>1097</ele>
        <time>2022-07-16T03:51:03.658Z</time>
      </trkpt>
      <trkpt lat="45.85957" lon="6.62005">
        <ele>1097</ele>
        <time>2022-07-16T03:51:06.851Z</time>
      </trkpt>
      <trkpt lat="45.85969" lon="6.62056">
        <ele>1099</ele>
        <time>2022-07-16T03:51:16.253Z</time>
      </trkpt>
      <trkpt lat="45.85979" lon="6.62081">
        <ele>1100</ele>
        <time>2022-07-16T03:51:21.171Z</time>
      </trkpt>
      <trkpt lat="45.86086" lon="6.62281">
        <ele>1102</ele>
        <time>2022-07-16T03:51:48.678Z</time>
      </trkpt>
      <trkpt lat="45.86101" lon="6.62306">
        <ele>1102</ele>
        <time>2022-07-16T03:51:51.901Z</time>
      </trkpt>
      <trkpt lat="45.86121" lon="6.6233">
        <ele>1103</ele>
        <time>2022-07-16T03:51:57.539Z</time>
      </trkpt>
      <trkpt lat="45.86133" lon="6.62343">
        <ele>1104</ele>
        <time>2022-07-16T03:52:01.673Z</time>
      </trkpt>
      <trkpt lat="45.86162" lon="6.62367">
        <ele>1105</ele>
        <time>2022-07-16T03:52:08.138Z</time>
      </trkpt>
      <trkpt lat="45.8627" lon="6.62435">
        <ele>1104</ele>
        <time>2022-07-16T03:52:23.154Z</time>
      </trkpt>
      <trkpt lat="45.86438" lon="6.62546">
        <ele>1107</ele>
        <time>2022-07-16T03:52:53.622Z</time>
      </trkpt>
      <trkpt lat="45.86553" lon="6.62618">
        <ele>1109</ele>
        <time>2022-07-16T03:53:14.230Z</time>
      </trkpt>
      <trkpt lat="45.86646" lon="6.62683">
        <ele>1110</ele>
        <time>2022-07-16T03:53:30.148Z</time>
      </trkpt>
      <trkpt lat="45.86803" lon="6.62784">
        <ele>1110</ele>
        <time>2022-07-16T03:53:54.280Z</time>
      </trkpt>
      <trkpt lat="45.86832" lon="6.62805">
        <ele>1110</ele>
        <time>2022-07-16T03:53:58.836Z</time>
      </trkpt>
      <trkpt lat="45.86886" lon="6.62838">
        <ele>1112</ele>
        <time>2022-07-16T03:54:10.804Z</time>
      </trkpt>
      <trkpt lat="45.87002" lon="6.62917">
        <ele>1109</ele>
        <time>2022-07-16T03:54:24.406Z</time>
      </trkpt>
      <trkpt lat="45.87105" lon="6.62981">
        <ele>1107</ele>
        <time>2022-07-16T03:54:37.089Z</time>
      </trkpt>
      <trkpt lat="45.87129" lon="6.62998">
        <ele>1105</ele>
        <time>2022-07-16T03:54:39.168Z</time>
      </trkpt>
      <trkpt lat="45.87139" lon="6.63017">
        <ele>1103</ele>
        <time>2022-07-16T03:54:40.457Z</time>
      </trkpt>
      <trkpt lat="45.87143" lon="6.6303">
        <ele>1102</ele>
        <time>2022-07-16T03:54:41.226Z</time>
      </trkpt>
      <trkpt lat="45.8715" lon="6.63031">
        <ele>1102</ele>
        <time>2022-07-16T03:54:42.212Z</time>
      </trkpt>
      <trkpt lat="45.87161" lon="6.63027">
        <ele>1103</ele>
        <time>2022-07-16T03:54:45.922Z</time>
      </trkpt>
      <trkpt lat="45.8717" lon="6.63029">
        <ele>1104</ele>
        <time>2022-07-16T03:54:49.596Z</time>
      </trkpt>
      <trkpt lat="45.87182" lon="6.63033">
        <ele>1105</ele>
        <time>2022-07-16T03:54:53.393Z</time>
      </trkpt>
      <trkpt lat="45.87201" lon="6.63044">
        <ele>1106</ele>
        <time>2022-07-16T03:54:58.379Z</time>
      </trkpt>
      <trkpt lat="45.87218" lon="6.63063">
        <ele>1103</ele>
        <time>2022-07-16T03:55:00.052Z</time>
      </trkpt>
      <trkpt lat="45.87229" lon="6.63082">
        <ele>1098</ele>
        <time>2022-07-16T03:55:01.389Z</time>
      </trkpt>
      <trkpt lat="45.87256" lon="6.63138">
        <ele>1096</ele>
        <time>2022-07-16T03:55:05.534Z</time>
      </trkpt>
      <trkpt lat="45.87271" lon="6.63175">
        <ele>1095</ele>
        <time>2022-07-16T03:55:08.367Z</time>
      </trkpt>
      <trkpt lat="45.87282" lon="6.63196">
        <ele>1094</ele>
        <time>2022-07-16T03:55:09.800Z</time>
      </trkpt>
      <trkpt lat="45.87295" lon="6.63214">
        <ele>1094</ele>
        <time>2022-07-16T03:55:12.333Z</time>
      </trkpt>
      <trkpt lat="45.87312" lon="6.6323">
        <ele>1093</ele>
        <time>2022-07-16T03:55:14.000Z</time>
      </trkpt>
      <trkpt lat="45.87418" lon="6.63286">
        <ele>1089</ele>
        <time>2022-07-16T03:55:24.534Z</time>
      </trkpt>
      <trkpt lat="45.87464" lon="6.63313">
        <ele>1088</ele>
        <time>2022-07-16T03:55:29.999Z</time>
      </trkpt>
      <trkpt lat="45.87486" lon="6.63328">
        <ele>1085</ele>
        <time>2022-07-16T03:55:31.891Z</time>
      </trkpt>
      <trkpt lat="45.87499" lon="6.63344">
        <ele>1084</ele>
        <time>2022-07-16T03:55:33.191Z</time>
      </trkpt>
      <trkpt lat="45.87505" lon="6.63359">
        <ele>1084</ele>
        <time>2022-07-16T03:55:34.881Z</time>
      </trkpt>
      <trkpt lat="45.87531" lon="6.63466">
        <ele>1081</ele>
        <time>2022-07-16T03:55:42.054Z</time>
      </trkpt>
      <trkpt lat="45.87543" lon="6.63498">
        <ele>1080</ele>
        <time>2022-07-16T03:55:44.322Z</time>
      </trkpt>
      <trkpt lat="45.87565" lon="6.63531">
        <ele>1079</ele>
        <time>2022-07-16T03:55:47.411Z</time>
      </trkpt>
      <trkpt lat="45.87582" lon="6.63547">
        <ele>1078</ele>
        <time>2022-07-16T03:55:49.078Z</time>
      </trkpt>
      <trkpt lat="45.87603" lon="6.63562">
        <ele>1076</ele>
        <time>2022-07-16T03:55:50.900Z</time>
      </trkpt>
      <trkpt lat="45.87619" lon="6.63569">
        <ele>1075</ele>
        <time>2022-07-16T03:55:52.156Z</time>
      </trkpt>
      <trkpt lat="45.87646" lon="6.63568">
        <ele>1073</ele>
        <time>2022-07-16T03:55:54.254Z</time>
      </trkpt>
      <trkpt lat="45.87681" lon="6.6356">
        <ele>1072</ele>
        <time>2022-07-16T03:55:57.814Z</time>
      </trkpt>
      <trkpt lat="45.87696" lon="6.63563">
        <ele>1071</ele>
        <time>2022-07-16T03:55:58.898Z</time>
      </trkpt>
      <trkpt lat="45.87712" lon="6.63573">
        <ele>1071</ele>
        <time>2022-07-16T03:56:01.345Z</time>
      </trkpt>
      <trkpt lat="45.87724" lon="6.63585">
        <ele>1070</ele>
        <time>2022-07-16T03:56:02.481Z</time>
      </trkpt>
      <trkpt lat="45.87805" lon="6.63709">
        <ele>1066</ele>
        <time>2022-07-16T03:56:13.703Z</time>
      </trkpt>
      <trkpt lat="45.87822" lon="6.63728">
        <ele>1065</ele>
        <time>2022-07-16T03:56:15.514Z</time>
      </trkpt>
      <trkpt lat="45.87843" lon="6.63746">
        <ele>1064</ele>
        <time>2022-07-16T03:56:17.678Z</time>
      </trkpt>
      <trkpt lat="45.87937" lon="6.63811">
        <ele>1061</ele>
        <time>2022-07-16T03:56:28.097Z</time>
      </trkpt>
      <trkpt lat="45.87979" lon="6.63851">
        <ele>1061</ele>
        <time>2022-07-16T03:56:35.166Z</time>
      </trkpt>
      <trkpt lat="45.87998" lon="6.63874">
        <ele>1060</ele>
        <time>2022-07-16T03:56:37.377Z</time>
      </trkpt>
      <trkpt lat="45.88014" lon="6.63898">
        <ele>1059</ele>
        <time>2022-07-16T03:56:39.379Z</time>
      </trkpt>
      <trkpt lat="45.88055" lon="6.6397">
        <ele>1056</ele>
        <time>2022-07-16T03:56:44.828Z</time>
      </trkpt>
      <trkpt lat="45.8807" lon="6.63992">
        <ele>1055</ele>
        <time>2022-07-16T03:56:46.627Z</time>
      </trkpt>
      <trkpt lat="45.88088" lon="6.64012">
        <ele>1054</ele>
        <time>2022-07-16T03:56:48.584Z</time>
      </trkpt>
      <trkpt lat="45.88108" lon="6.64029">
        <ele>1053</ele>
        <time>2022-07-16T03:56:50.599Z</time>
      </trkpt>
      <trkpt lat="45.88216" lon="6.64101">
        <ele>1048</ele>
        <time>2022-07-16T03:57:01.023Z</time>
      </trkpt>
      <trkpt lat="45.88231" lon="6.64119">
        <ele>1048</ele>
        <time>2022-07-16T03:57:03.764Z</time>
      </trkpt>
      <trkpt lat="45.88237" lon="6.64129">
        <ele>1047</ele>
        <time>2022-07-16T03:57:04.478Z</time>
      </trkpt>
      <trkpt lat="45.8824" lon="6.6414">
        <ele>1047</ele>
        <time>2022-07-16T03:57:05.632Z</time>
      </trkpt>
      <trkpt lat="45.8824" lon="6.64157">
        <ele>1046</ele>
        <time>2022-07-16T03:57:06.552Z</time>
      </trkpt>
      <trkpt lat="45.88234" lon="6.64174">
        <ele>1045</ele>
        <time>2022-07-16T03:57:07.582Z</time>
      </trkpt>
      <trkpt lat="45.88234" lon="6.64185">
        <ele>1045</ele>
        <time>2022-07-16T03:57:08.657Z</time>
      </trkpt>
      <trkpt lat="45.88236" lon="6.64195">
        <ele>1045</ele>
        <time>2022-07-16T03:57:09.673Z</time>
      </trkpt>
      <trkpt lat="45.88242" lon="6.64203">
        <ele>1045</ele>
        <time>2022-07-16T03:57:10.821Z</time>
      </trkpt>
      <trkpt lat="45.88244" lon="6.64214">
        <ele>1045</ele>
        <time>2022-07-16T03:57:11.931Z</time>
      </trkpt>
      <trkpt lat="45.88244" lon="6.6426">
        <ele>1044</ele>
        <time>2022-07-16T03:57:15.047Z</time>
      </trkpt>
      <trkpt lat="45.88247" lon="6.64274">
        <ele>1044</ele>
        <time>2022-07-16T03:57:16.478Z</time>
      </trkpt>
      <trkpt lat="45.88268" lon="6.64318">
        <ele>1043</ele>
        <time>2022-07-16T03:57:20.260Z</time>
      </trkpt>
      <trkpt lat="45.88276" lon="6.64343">
        <ele>1042</ele>
        <time>2022-07-16T03:57:21.791Z</time>
      </trkpt>
      <trkpt lat="45.88283" lon="6.64374">
        <ele>1042</ele>
        <time>2022-07-16T03:57:24.974Z</time>
      </trkpt>
      <trkpt lat="45.88294" lon="6.64479">
        <ele>1043</ele>
        <time>2022-07-16T03:57:36.809Z</time>
      </trkpt>
      <trkpt lat="45.883" lon="6.64494">
        <ele>1042</ele>
        <time>2022-07-16T03:57:37.745Z</time>
      </trkpt>
      <trkpt lat="45.8831" lon="6.64508">
        <ele>1042</ele>
        <time>2022-07-16T03:57:39.704Z</time>
      </trkpt>
      <trkpt lat="45.88392" lon="6.64597">
        <ele>1034</ele>
        <time>2022-07-16T03:57:47.688Z</time>
      </trkpt>
      <trkpt lat="45.88411" lon="6.64629">
        <ele>1031</ele>
        <time>2022-07-16T03:57:49.963Z</time>
      </trkpt>
      <trkpt lat="45.88427" lon="6.64677">
        <ele>1031</ele>
        <time>2022-07-16T03:57:55.160Z</time>
      </trkpt>
      <trkpt lat="45.88436" lon="6.64694">
        <ele>1032</ele>
        <time>2022-07-16T03:57:59.272Z</time>
      </trkpt>
      <trkpt lat="45.88514" lon="6.64793">
        <ele>1027</ele>
        <time>2022-07-16T03:58:07.898Z</time>
      </trkpt>
      <trkpt lat="45.88529" lon="6.64824">
        <ele>1027</ele>
        <time>2022-07-16T03:58:11.584Z</time>
      </trkpt>
      <trkpt lat="45.88545" lon="6.64879">
        <ele>1027</ele>
        <time>2022-07-16T03:58:17.405Z</time>
      </trkpt>
      <trkpt lat="45.8856" lon="6.64916">
        <ele>1027</ele>
        <time>2022-07-16T03:58:21.586Z</time>
      </trkpt>
      <trkpt lat="45.88572" lon="6.64932">
        <ele>1026</ele>
        <time>2022-07-16T03:58:22.803Z</time>
      </trkpt>
      <trkpt lat="45.88613" lon="6.64972">
        <ele>1023</ele>
        <time>2022-07-16T03:58:26.502Z</time>
      </trkpt>
      <trkpt lat="45.88677" lon="6.6503">
        <ele>1023</ele>
        <time>2022-07-16T03:58:37.117Z</time>
      </trkpt>
      <trkpt lat="45.8869" lon="6.65038">
        <ele>1024</ele>
        <time>2022-07-16T03:58:41.130Z</time>
      </trkpt>
      <trkpt lat="45.88702" lon="6.65042">
        <ele>1024</ele>
        <time>2022-07-16T03:58:42.858Z</time>
      </trkpt>
      <trkpt lat="45.88717" lon="6.65042">
        <ele>1024</ele>
        <time>2022-07-16T03:58:44.963Z</time>
      </trkpt>
      <trkpt lat="45.88733" lon="6.65038">
        <ele>1024</ele>
        <time>2022-07-16T03:58:47.241Z</time>
      </trkpt>
      <trkpt lat="45.88748" lon="6.65026">
        <ele>1023</ele>
        <time>2022-07-16T03:58:48.546Z</time>
      </trkpt>
      <trkpt lat="45.88758" lon="6.65014">
        <ele>1022</ele>
        <time>2022-07-16T03:58:49.558Z</time>
      </trkpt>
      <trkpt lat="45.88775" lon="6.64979">
        <ele>1020</ele>
        <time>2022-07-16T03:58:51.866Z</time>
      </trkpt>
      <trkpt lat="45.88793" lon="6.64931">
        <ele>1016</ele>
        <time>2022-07-16T03:58:54.815Z</time>
      </trkpt>
      <trkpt lat="45.888" lon="6.64916">
        <ele>1015</ele>
        <time>2022-07-16T03:58:55.792Z</time>
      </trkpt>
      <trkpt lat="45.8881" lon="6.64902">
        <ele>1014</ele>
        <time>2022-07-16T03:58:56.876Z</time>
      </trkpt>
      <trkpt lat="45.8882" lon="6.64896">
        <ele>1014</ele>
        <time>2022-07-16T03:58:58.397Z</time>
      </trkpt>
      <trkpt lat="45.88831" lon="6.64893">
        <ele>1014</ele>
        <time>2022-07-16T03:58:59.967Z</time>
      </trkpt>
      <trkpt lat="45.88842" lon="6.64895">
        <ele>1012</ele>
        <time>2022-07-16T03:59:00.829Z</time>
      </trkpt>
      <trkpt lat="45.88853" lon="6.64902">
        <ele>1010</ele>
        <time>2022-07-16T03:59:01.763Z</time>
      </trkpt>
      <trkpt lat="45.88861" lon="6.64913">
        <ele>1009</ele>
        <time>2022-07-16T03:59:02.624Z</time>
      </trkpt>
      <trkpt lat="45.88867" lon="6.64928">
        <ele>1008</ele>
        <time>2022-07-16T03:59:03.559Z</time>
      </trkpt>
      <trkpt lat="45.88876" lon="6.6501">
        <ele>1014</ele>
        <time>2022-07-16T03:59:25.457Z</time>
      </trkpt>
      <trkpt lat="45.8888" lon="6.65027">
        <ele>1014</ele>
        <time>2022-07-16T03:59:27.209Z</time>
      </trkpt>
      <trkpt lat="45.88889" lon="6.6505">
        <ele>1014</ele>
        <time>2022-07-16T03:59:29.785Z</time>
      </trkpt>
      <trkpt lat="45.88925" lon="6.65109">
        <ele>1013</ele>
        <time>2022-07-16T03:59:35.921Z</time>
      </trkpt>
      <trkpt lat="45.88949" lon="6.6516">
        <ele>1011</ele>
        <time>2022-07-16T03:59:39.516Z</time>
      </trkpt>
      <trkpt lat="45.89004" lon="6.65311">
        <ele>1009</ele>
        <time>2022-07-16T03:59:53.079Z</time>
      </trkpt>
      <trkpt lat="45.89012" lon="6.65322">
        <ele>1008</ele>
        <time>2022-07-16T03:59:53.939Z</time>
      </trkpt>
      <trkpt lat="45.89039" lon="6.65346">
        <ele>1005</ele>
        <time>2022-07-16T03:59:56.406Z</time>
      </trkpt>
      <trkpt lat="45.89054" lon="6.65363">
        <ele>1004</ele>
        <time>2022-07-16T03:59:57.931Z</time>
      </trkpt>
      <trkpt lat="45.89065" lon="6.6538">
        <ele>1004</ele>
        <time>2022-07-16T04:00:00.198Z</time>
      </trkpt>
      <trkpt lat="45.89085" lon="6.65426">
        <ele>1005</ele>
        <time>2022-07-16T04:00:07.190Z</time>
      </trkpt>
      <trkpt lat="45.89095" lon="6.65439">
        <ele>1005</ele>
        <time>2022-07-16T04:00:09.082Z</time>
      </trkpt>
      <trkpt lat="45.89132" lon="6.65474">
        <ele>1002</ele>
        <time>2022-07-16T04:00:12.523Z</time>
      </trkpt>
      <trkpt lat="45.89149" lon="6.65495">
        <ele>1001</ele>
        <time>2022-07-16T04:00:14.440Z</time>
      </trkpt>
      <trkpt lat="45.89163" lon="6.65516">
        <ele>1001</ele>
        <time>2022-07-16T04:00:17.279Z</time>
      </trkpt>
      <trkpt lat="45.89202" lon="6.656">
        <ele>1003</ele>
        <time>2022-07-16T04:00:30.613Z</time>
      </trkpt>
      <trkpt lat="45.89213" lon="6.65616">
        <ele>1003</ele>
        <time>2022-07-16T04:00:32.809Z</time>
      </trkpt>
      <trkpt lat="45.89262" lon="6.65671">
        <ele>999</ele>
        <time>2022-07-16T04:00:37.314Z</time>
      </trkpt>
      <trkpt lat="45.89273" lon="6.6569">
        <ele>998</ele>
        <time>2022-07-16T04:00:38.623Z</time>
      </trkpt>
      <trkpt lat="45.89284" lon="6.65718">
        <ele>998</ele>
        <time>2022-07-16T04:00:41.762Z</time>
      </trkpt>
      <trkpt lat="45.89295" lon="6.65779">
        <ele>998</ele>
        <time>2022-07-16T04:00:47.915Z</time>
      </trkpt>
      <trkpt lat="45.89297" lon="6.66021">
        <ele>991</ele>
        <time>2022-07-16T04:01:02.722Z</time>
      </trkpt>
      <trkpt lat="45.89289" lon="6.66143">
        <ele>992</ele>
        <time>2022-07-16T04:01:16.125Z</time>
      </trkpt>
      <trkpt lat="45.89277" lon="6.6627">
        <ele>993</ele>
        <time>2022-07-16T04:01:30.070Z</time>
      </trkpt>
      <trkpt lat="45.89254" lon="6.66427">
        <ele>988</ele>
        <time>2022-07-16T04:01:39.599Z</time>
      </trkpt>
      <trkpt lat="45.89243" lon="6.66542">
        <ele>985</ele>
        <time>2022-07-16T04:01:47.008Z</time>
      </trkpt>
      <trkpt lat="45.89226" lon="6.66621">
        <ele>985</ele>
        <time>2022-07-16T04:01:55.082Z</time>
      </trkpt>
      <trkpt lat="45.89163" lon="6.66835">
        <ele>984</ele>
        <time>2022-07-16T04:02:15.804Z</time>
      </trkpt>
      <trkpt lat="45.89153" lon="6.6686">
        <ele>983</ele>
        <time>2022-07-16T04:02:17.442Z</time>
      </trkpt>
      <trkpt lat="45.89125" lon="6.66905">
        <ele>984</ele>
        <time>2022-07-16T04:02:24.978Z</time>
      </trkpt>
      <trkpt lat="45.89096" lon="6.66941">
        <ele>986</ele>
        <time>2022-07-16T04:02:34.515Z</time>
      </trkpt>
      <trkpt lat="45.89087" lon="6.66963">
        <ele>986</ele>
        <time>2022-07-16T04:02:37.007Z</time>
      </trkpt>
      <trkpt lat="45.89085" lon="6.66986">
        <ele>985</ele>
        <time>2022-07-16T04:02:38.197Z</time>
      </trkpt>
      <trkpt lat="45.89091" lon="6.6702">
        <ele>982</ele>
        <time>2022-07-16T04:02:40.094Z</time>
      </trkpt>
      <trkpt lat="45.89091" lon="6.67042">
        <ele>980</ele>
        <time>2022-07-16T04:02:41.284Z</time>
      </trkpt>
      <trkpt lat="45.89086" lon="6.67063">
        <ele>980</ele>
        <time>2022-07-16T04:02:43.451Z</time>
      </trkpt>
      <trkpt lat="45.89068" lon="6.67101">
        <ele>982</ele>
        <time>2022-07-16T04:02:51.999Z</time>
      </trkpt>
      <trkpt lat="45.89065" lon="6.67113">
        <ele>982</ele>
        <time>2022-07-16T04:02:53.244Z</time>
      </trkpt>
      <trkpt lat="45.89064" lon="6.6718">
        <ele>979</ele>
        <time>2022-07-16T04:02:56.624Z</time>
      </trkpt>
      <trkpt lat="45.8905" lon="6.67242">
        <ele>980</ele>
        <time>2022-07-16T04:03:04.598Z</time>
      </trkpt>
      <trkpt lat="45.8905" lon="6.67255">
        <ele>979</ele>
        <time>2022-07-16T04:03:05.301Z</time>
      </trkpt>
      <trkpt lat="45.8906" lon="6.67301">
        <ele>974</ele>
        <time>2022-07-16T04:03:07.907Z</time>
      </trkpt>
      <trkpt lat="45.8906" lon="6.6731">
        <ele>973</ele>
        <time>2022-07-16T04:03:08.394Z</time>
      </trkpt>
      <trkpt lat="45.89052" lon="6.67358">
        <ele>973</ele>
        <time>2022-07-16T04:03:13.213Z</time>
      </trkpt>
      <trkpt lat="45.89053" lon="6.6738">
        <ele>972</ele>
        <time>2022-07-16T04:03:14.317Z</time>
      </trkpt>
      <trkpt lat="45.89059" lon="6.67402">
        <ele>970</ele>
        <time>2022-07-16T04:03:15.595Z</time>
      </trkpt>
      <trkpt lat="45.89059" lon="6.6742">
        <ele>970</ele>
        <time>2022-07-16T04:03:17.353Z</time>
      </trkpt>
      <trkpt lat="45.89052" lon="6.67465">
        <ele>970</ele>
        <time>2022-07-16T04:03:21.855Z</time>
      </trkpt>
      <trkpt lat="45.89048" lon="6.67524">
        <ele>969</ele>
        <time>2022-07-16T04:03:26.184Z</time>
      </trkpt>
      <trkpt lat="45.89062" lon="6.67666">
        <ele>955</ele>
        <time>2022-07-16T04:03:33.939Z</time>
      </trkpt>
      <trkpt lat="45.89086" lon="6.67754">
        <ele>951</ele>
        <time>2022-07-16T04:03:38.839Z</time>
      </trkpt>
      <trkpt lat="45.8909" lon="6.67797">
        <ele>950</ele>
        <time>2022-07-16T04:03:41.721Z</time>
      </trkpt>
      <trkpt lat="45.89077" lon="6.67873">
        <ele>952</ele>
        <time>2022-07-16T04:03:53.234Z</time>
      </trkpt>
      <trkpt lat="45.8906" lon="6.68026">
        <ele>947</ele>
        <time>2022-07-16T04:04:02.306Z</time>
      </trkpt>
      <trkpt lat="45.89053" lon="6.68053">
        <ele>947</ele>
        <time>2022-07-16T04:04:05.119Z</time>
      </trkpt>
      <trkpt lat="45.89024" lon="6.68121">
        <ele>954</ele>
        <time>2022-07-16T04:04:32.277Z</time>
      </trkpt>
      <trkpt lat="45.89022" lon="6.68145">
        <ele>952</ele>
        <time>2022-07-16T04:04:33.584Z</time>
      </trkpt>
      <trkpt lat="45.89024" lon="6.68161">
        <ele>949</ele>
        <time>2022-07-16T04:04:34.463Z</time>
      </trkpt>
      <trkpt lat="45.89041" lon="6.68215">
        <ele>941</ele>
        <time>2022-07-16T04:04:37.668Z</time>
      </trkpt>
      <trkpt lat="45.89043" lon="6.68236">
        <ele>939</ele>
        <time>2022-07-16T04:04:38.814Z</time>
      </trkpt>
      <trkpt lat="45.89035" lon="6.68347">
        <ele>938</ele>
        <time>2022-07-16T04:04:48.148Z</time>
      </trkpt>
      <trkpt lat="45.89036" lon="6.68372">
        <ele>940</ele>
        <time>2022-07-16T04:04:55.573Z</time>
      </trkpt>
      <trkpt lat="45.89039" lon="6.68384">
        <ele>940</ele>
        <time>2022-07-16T04:04:56.818Z</time>
      </trkpt>
      <trkpt lat="45.89049" lon="6.68402">
        <ele>938</ele>
        <time>2022-07-16T04:04:58.064Z</time>
      </trkpt>
      <trkpt lat="45.89081" lon="6.68429">
        <ele>929</ele>
        <time>2022-07-16T04:05:00.947Z</time>
      </trkpt>
      <trkpt lat="45.89089" lon="6.68437">
        <ele>927</ele>
        <time>2022-07-16T04:05:01.704Z</time>
      </trkpt>
      <trkpt lat="45.89096" lon="6.68449">
        <ele>926</ele>
        <time>2022-07-16T04:05:02.551Z</time>
      </trkpt>
      <trkpt lat="45.89104" lon="6.68476">
        <ele>925</ele>
        <time>2022-07-16T04:05:04.230Z</time>
      </trkpt>
      <trkpt lat="45.89108" lon="6.68531">
        <ele>928</ele>
        <time>2022-07-16T04:05:15.787Z</time>
      </trkpt>
      <trkpt lat="45.89118" lon="6.68557">
        <ele>928</ele>
        <time>2022-07-16T04:05:18.687Z</time>
      </trkpt>
      <trkpt lat="45.89154" lon="6.68626">
        <ele>922</ele>
        <time>2022-07-16T04:05:23.350Z</time>
      </trkpt>
      <trkpt lat="45.89169" lon="6.68685">
        <ele>923</ele>
        <time>2022-07-16T04:05:31.108Z</time>
      </trkpt>
      <trkpt lat="45.89183" lon="6.68721">
        <ele>923</ele>
        <time>2022-07-16T04:05:35.135Z</time>
      </trkpt>
      <trkpt lat="45.89203" lon="6.68757">
        <ele>921</ele>
        <time>2022-07-16T04:05:37.493Z</time>
      </trkpt>
      <trkpt lat="45.89226" lon="6.68816">
        <ele>918</ele>
        <time>2022-07-16T04:05:40.919Z</time>
      </trkpt>
      <trkpt lat="45.89262" lon="6.68872">
        <ele>912</ele>
        <time>2022-07-16T04:05:45.041Z</time>
      </trkpt>
      <trkpt lat="45.89273" lon="6.6891">
        <ele>912</ele>
        <time>2022-07-16T04:05:49.060Z</time>
      </trkpt>
      <trkpt lat="45.89286" lon="6.68944">
        <ele>910</ele>
        <time>2022-07-16T04:05:51.157Z</time>
      </trkpt>
      <trkpt lat="45.89314" lon="6.68986">
        <ele>905</ele>
        <time>2022-07-16T04:05:54.302Z</time>
      </trkpt>
      <trkpt lat="45.89324" lon="6.69011">
        <ele>905</ele>
        <time>2022-07-16T04:05:57.117Z</time>
      </trkpt>
      <trkpt lat="45.89331" lon="6.69051">
        <ele>905</ele>
        <time>2022-07-16T04:06:01.144Z</time>
      </trkpt>
      <trkpt lat="45.89334" lon="6.69124">
        <ele>905</ele>
        <time>2022-07-16T04:06:08.284Z</time>
      </trkpt>
      <trkpt lat="45.89332" lon="6.69187">
        <ele>903</ele>
        <time>2022-07-16T04:06:12.003Z</time>
      </trkpt>
      <trkpt lat="45.89325" lon="6.6924">
        <ele>904</ele>
        <time>2022-07-16T04:06:18.969Z</time>
      </trkpt>
      <trkpt lat="45.8933" lon="6.69267">
        <ele>904</ele>
        <time>2022-07-16T04:06:21.697Z</time>
      </trkpt>
      <trkpt lat="45.89335" lon="6.69277">
        <ele>903</ele>
        <time>2022-07-16T04:06:22.363Z</time>
      </trkpt>
      <trkpt lat="45.8935" lon="6.69288">
        <ele>902</ele>
        <time>2022-07-16T04:06:23.631Z</time>
      </trkpt>
      <trkpt lat="45.89388" lon="6.69282">
        <ele>897</ele>
        <time>2022-07-16T04:06:26.602Z</time>
      </trkpt>
      <trkpt lat="45.89394" lon="6.69283">
        <ele>897</ele>
        <time>2022-07-16T04:06:27.449Z</time>
      </trkpt>
      <trkpt lat="45.89399" lon="6.69286">
        <ele>897</ele>
        <time>2022-07-16T04:06:28.209Z</time>
      </trkpt>
      <trkpt lat="45.89404" lon="6.69294">
        <ele>897</ele>
        <time>2022-07-16T04:06:29.259Z</time>
      </trkpt>
      <trkpt lat="45.8941" lon="6.69309">
        <ele>897</ele>
        <time>2022-07-16T04:06:30.948Z</time>
      </trkpt>
      <trkpt lat="45.89414" lon="6.6934">
        <ele>899</ele>
        <time>2022-07-16T04:06:38.317Z</time>
      </trkpt>
      <trkpt lat="45.89406" lon="6.69399">
        <ele>897</ele>
        <time>2022-07-16T04:06:41.791Z</time>
      </trkpt>
      <trkpt lat="45.89405" lon="6.69437">
        <ele>895</ele>
        <time>2022-07-16T04:06:43.847Z</time>
      </trkpt>
      <trkpt lat="45.89407" lon="6.69485">
        <ele>890</ele>
        <time>2022-07-16T04:06:46.447Z</time>
      </trkpt>
      <trkpt lat="45.89414" lon="6.69556">
        <ele>883</ele>
        <time>2022-07-16T04:06:50.325Z</time>
      </trkpt>
      <trkpt lat="45.89423" lon="6.69598">
        <ele>879</ele>
        <time>2022-07-16T04:06:52.701Z</time>
      </trkpt>
      <trkpt lat="45.89443" lon="6.69662">
        <ele>874</ele>
        <time>2022-07-16T04:06:56.495Z</time>
      </trkpt>
      <trkpt lat="45.89446" lon="6.69711">
        <ele>874</ele>
        <time>2022-07-16T04:07:01.297Z</time>
      </trkpt>
      <trkpt lat="45.89459" lon="6.69746">
        <ele>870</ele>
        <time>2022-07-16T04:07:03.442Z</time>
      </trkpt>
      <trkpt lat="45.89465" lon="6.6977">
        <ele>869</ele>
        <time>2022-07-16T04:07:04.813Z</time>
      </trkpt>
      <trkpt lat="45.89466" lon="6.69829">
        <ele>869</ele>
        <time>2022-07-16T04:07:10.575Z</time>
      </trkpt>
      <trkpt lat="45.89456" lon="6.69895">
        <ele>867</ele>
        <time>2022-07-16T04:07:14.669Z</time>
      </trkpt>
      <trkpt lat="45.89443" lon="6.69957">
        <ele>866</ele>
        <time>2022-07-16T04:07:19.508Z</time>
      </trkpt>
      <trkpt lat="45.8944" lon="6.69992">
        <ele>863</ele>
        <time>2022-07-16T04:07:21.415Z</time>
      </trkpt>
      <trkpt lat="45.89433" lon="6.70033">
        <ele>864</ele>
        <time>2022-07-16T04:07:27.403Z</time>
      </trkpt>
      <trkpt lat="45.89433" lon="6.70067">
        <ele>862</ele>
        <time>2022-07-16T04:07:29.242Z</time>
      </trkpt>
      <trkpt lat="45.89442" lon="6.70105">
        <ele>854</ele>
        <time>2022-07-16T04:07:31.413Z</time>
      </trkpt>
      <trkpt lat="45.89434" lon="6.70144">
        <ele>852</ele>
        <time>2022-07-16T04:07:33.611Z</time>
      </trkpt>
      <trkpt lat="45.89411" lon="6.70183">
        <ele>851</ele>
        <time>2022-07-16T04:07:37.189Z</time>
      </trkpt>
      <trkpt lat="45.89355" lon="6.70222">
        <ele>856</ele>
        <time>2022-07-16T04:07:56.241Z</time>
      </trkpt>
      <trkpt lat="45.89339" lon="6.70237">
        <ele>858</ele>
        <time>2022-07-16T04:08:03.544Z</time>
      </trkpt>
      <trkpt lat="45.89335" lon="6.70252">
        <ele>856</ele>
        <time>2022-07-16T04:08:04.413Z</time>
      </trkpt>
      <trkpt lat="45.89336" lon="6.70326">
        <ele>839</ele>
        <time>2022-07-16T04:08:08.415Z</time>
      </trkpt>
      <trkpt lat="45.89324" lon="6.70358">
        <ele>838</ele>
        <time>2022-07-16T04:08:10.682Z</time>
      </trkpt>
      <trkpt lat="45.89307" lon="6.70394">
        <ele>837</ele>
        <time>2022-07-16T04:08:13.574Z</time>
      </trkpt>
      <trkpt lat="45.8928" lon="6.70435">
        <ele>835</ele>
        <time>2022-07-16T04:08:16.750Z</time>
      </trkpt>
      <trkpt lat="45.8927" lon="6.7047">
        <ele>831</ele>
        <time>2022-07-16T04:08:18.796Z</time>
      </trkpt>
      <trkpt lat="45.89258" lon="6.705">
        <ele>830</ele>
        <time>2022-07-16T04:08:20.913Z</time>
      </trkpt>
      <trkpt lat="45.89242" lon="6.70519">
        <ele>829</ele>
        <time>2022-07-16T04:08:22.632Z</time>
      </trkpt>
      <trkpt lat="45.89219" lon="6.7053">
        <ele>826</ele>
        <time>2022-07-16T04:08:24.515Z</time>
      </trkpt>
      <trkpt lat="45.892" lon="6.70531">
        <ele>826</ele>
        <time>2022-07-16T04:08:27.182Z</time>
      </trkpt>
      <trkpt lat="45.89145" lon="6.70524">
        <ele>828</ele>
        <time>2022-07-16T04:08:38.773Z</time>
      </trkpt>
      <trkpt lat="45.89132" lon="6.70524">
        <ele>829</ele>
        <time>2022-07-16T04:08:42.645Z</time>
      </trkpt>
      <trkpt lat="45.8912" lon="6.70528">
        <ele>829</ele>
        <time>2022-07-16T04:08:44.373Z</time>
      </trkpt>
      <trkpt lat="45.89082" lon="6.70566">
        <ele>822</ele>
        <time>2022-07-16T04:08:47.970Z</time>
      </trkpt>
      <trkpt lat="45.8904" lon="6.70599">
        <ele>821</ele>
        <time>2022-07-16T04:08:53.187Z</time>
      </trkpt>
      <trkpt lat="45.89013" lon="6.70619">
        <ele>820</ele>
        <time>2022-07-16T04:08:56.093Z</time>
      </trkpt>
      <trkpt lat="45.88958" lon="6.7065">
        <ele>822</ele>
        <time>2022-07-16T04:09:08.105Z</time>
      </trkpt>
      <trkpt lat="45.88942" lon="6.70666">
        <ele>822</ele>
        <time>2022-07-16T04:09:10.840Z</time>
      </trkpt>
      <trkpt lat="45.88926" lon="6.70692">
        <ele>822</ele>
        <time>2022-07-16T04:09:14.228Z</time>
      </trkpt>
      <trkpt lat="45.88921" lon="6.70706">
        <ele>822</ele>
        <time>2022-07-16T04:09:15.765Z</time>
      </trkpt>
      <trkpt lat="45.88913" lon="6.70749">
        <ele>820</ele>
        <time>2022-07-16T04:09:18.006Z</time>
      </trkpt>
      <trkpt lat="45.88899" lon="6.71117">
        <ele>819</ele>
        <time>2022-07-16T04:09:51.962Z</time>
      </trkpt>
      <trkpt lat="45.88895" lon="6.71289">
        <ele>814</ele>
        <time>2022-07-16T04:10:02.474Z</time>
      </trkpt>
      <trkpt lat="45.88905" lon="6.713">
        <ele>815</ele>
        <time>2022-07-16T04:10:06.300Z</time>
      </trkpt>
      <trkpt lat="45.88954" lon="6.7131">
        <ele>819</ele>
        <time>2022-07-16T04:10:21.512Z</time>
      </trkpt>
      <trkpt lat="45.88988" lon="6.71311">
        <ele>822</ele>
        <time>2022-07-16T04:10:32.639Z</time>
      </trkpt>
      <trkpt lat="45.89024" lon="6.71307">
        <ele>822</ele>
        <time>2022-07-16T04:10:37.704Z</time>
      </trkpt>
      <trkpt lat="45.89095" lon="6.71308">
        <ele>822</ele>
        <time>2022-07-16T04:10:47.665Z</time>
      </trkpt>
      <trkpt lat="45.89104" lon="6.71311">
        <ele>822</ele>
        <time>2022-07-16T04:10:48.961Z</time>
      </trkpt>
      <trkpt lat="45.89101" lon="6.71318">
        <ele>823</ele>
        <time>2022-07-16T04:10:52.056Z</time>
      </trkpt>
      <trkpt lat="45.89101" lon="6.71324">
        <ele>823</ele>
        <time>2022-07-16T04:10:52.642Z</time>
      </trkpt>
      <trkpt lat="45.89104" lon="6.71329">
        <ele>824</ele>
        <time>2022-07-16T04:10:55.128Z</time>
      </trkpt>
      <trkpt lat="45.89108" lon="6.71331">
        <ele>824</ele>
        <time>2022-07-16T04:10:55.722Z</time>
      </trkpt>
      <trkpt lat="45.89113" lon="6.7133">
        <ele>824</ele>
        <time>2022-07-16T04:10:56.430Z</time>
      </trkpt>
      <trkpt lat="45.89116" lon="6.71325">
        <ele>823</ele>
        <time>2022-07-16T04:10:56.787Z</time>
      </trkpt>
      <trkpt lat="45.89116" lon="6.71318">
        <ele>822</ele>
        <time>2022-07-16T04:10:57.166Z</time>
      </trkpt>
      <trkpt lat="45.89132" lon="6.71321">
        <ele>822</ele>
        <time>2022-07-16T04:10:59.429Z</time>
      </trkpt>
      <trkpt lat="45.89165" lon="6.71354">
        <ele>826</ele>
        <time>2022-07-16T04:11:14.023Z</time>
      </trkpt>
      <trkpt lat="45.89174" lon="6.71357">
        <ele>827</ele>
        <time>2022-07-16T04:11:17.688Z</time>
      </trkpt>
      <trkpt lat="45.89186" lon="6.71353">
        <ele>828</ele>
        <time>2022-07-16T04:11:21.485Z</time>
      </trkpt>
      <trkpt lat="45.89197" lon="6.7134">
        <ele>826</ele>
        <time>2022-07-16T04:11:22.591Z</time>
      </trkpt>
      <trkpt lat="45.89216" lon="6.71216">
        <ele>815</ele>
        <time>2022-07-16T04:11:29.457Z</time>
      </trkpt>
      <trkpt lat="45.89224" lon="6.71198">
        <ele>815</ele>
        <time>2022-07-16T04:11:31.543Z</time>
      </trkpt>
      <trkpt lat="45.89281" lon="6.71167">
        <ele>816</ele>
        <time>2022-07-16T04:11:41.604Z</time>
      </trkpt>
      <trkpt lat="45.89296" lon="6.71163">
        <ele>815</ele>
        <time>2022-07-16T04:11:42.699Z</time>
      </trkpt>
      <trkpt lat="45.89371" lon="6.71154">
        <ele>815</ele>
        <time>2022-07-16T04:11:53.257Z</time>
      </trkpt>
      <trkpt lat="45.89368" lon="6.711">
        <ele>808</ele>
        <time>2022-07-16T04:11:56.186Z</time>
      </trkpt>
      <trkpt lat="45.89443" lon="6.71077">
        <ele>806</ele>
        <time>2022-07-16T04:12:04.070Z</time>
      </trkpt>
      <trkpt lat="45.89445" lon="6.71084">
        <ele>807</ele>
        <time>2022-07-16T04:12:06.919Z</time>
      </trkpt>
      <trkpt lat="45.8945" lon="6.7109">
        <ele>808</ele>
        <time>2022-07-16T04:12:10.444Z</time>
      </trkpt>
      <trkpt lat="45.89455" lon="6.71092">
        <ele>809</ele>
        <time>2022-07-16T04:12:13.252Z</time>
      </trkpt>
      <trkpt lat="45.89461" lon="6.71091">
        <ele>809</ele>
        <time>2022-07-16T04:12:14.099Z</time>
      </trkpt>
      <trkpt lat="45.89467" lon="6.71085">
        <ele>808</ele>
        <time>2022-07-16T04:12:14.667Z</time>
      </trkpt>
      <trkpt lat="45.8947" lon="6.71072">
        <ele>806</ele>
        <time>2022-07-16T04:12:15.408Z</time>
      </trkpt>
      <trkpt lat="45.89479" lon="6.71072">
        <ele>806</ele>
        <time>2022-07-16T04:12:16.670Z</time>
      </trkpt>
      <trkpt lat="45.89511" lon="6.71065">
        <ele>807</ele>
        <time>2022-07-16T04:12:23.003Z</time>
      </trkpt>
      <trkpt lat="45.8961" lon="6.71035">
        <ele>805</ele>
        <time>2022-07-16T04:12:34.176Z</time>
      </trkpt>
      <trkpt lat="45.89637" lon="6.71022">
        <ele>802</ele>
        <time>2022-07-16T04:12:36.389Z</time>
      </trkpt>
      <trkpt lat="45.89643" lon="6.71027">
        <ele>802</ele>
        <time>2022-07-16T04:12:37.361Z</time>
      </trkpt>
      <trkpt lat="45.89733" lon="6.70999">
        <ele>794</ele>
        <time>2022-07-16T04:12:44.516Z</time>
      </trkpt>
      <trkpt lat="45.89742" lon="6.71017">
        <ele>795</ele>
        <time>2022-07-16T04:12:48.707Z</time>
      </trkpt>
      <trkpt lat="45.89786" lon="6.7108">
        <ele>797</ele>
        <time>2022-07-16T04:13:01.065Z</time>
      </trkpt>
      <trkpt lat="45.8979" lon="6.71083">
        <ele>797</ele>
        <time>2022-07-16T04:13:01.698Z</time>
      </trkpt>
      <trkpt lat="45.89805" lon="6.71086">
        <ele>798</ele>
        <time>2022-07-16T04:13:05.848Z</time>
      </trkpt>
      <trkpt lat="45.89812" lon="6.71093">
        <ele>798</ele>
        <time>2022-07-16T04:13:07.045Z</time>
      </trkpt>
      <trkpt lat="45.89824" lon="6.71124">
        <ele>800</ele>
        <time>2022-07-16T04:13:14.644Z</time>
      </trkpt>
      <trkpt lat="45.89841" lon="6.71155">
        <ele>802</ele>
        <time>2022-07-16T04:13:22.565Z</time>
      </trkpt>
      <trkpt lat="45.89852" lon="6.71163">
        <ele>802</ele>
        <time>2022-07-16T04:13:24.295Z</time>
      </trkpt>
      <trkpt lat="45.89864" lon="6.71167">
        <ele>801</ele>
        <time>2022-07-16T04:13:25.252Z</time>
      </trkpt>
      <trkpt lat="45.89906" lon="6.7113">
        <ele>794</ele>
        <time>2022-07-16T04:13:29.079Z</time>
      </trkpt>
      <trkpt lat="45.89924" lon="6.71101">
        <ele>790</ele>
        <time>2022-07-16T04:13:31.180Z</time>
      </trkpt>
      <trkpt lat="45.89931" lon="6.71095">
        <ele>788</ele>
        <time>2022-07-16T04:13:31.814Z</time>
      </trkpt>
      <trkpt lat="45.89937" lon="6.71095">
        <ele>788</ele>
        <time>2022-07-16T04:13:32.655Z</time>
      </trkpt>
      <trkpt lat="45.89973" lon="6.71106">
        <ele>784</ele>
        <time>2022-07-16T04:13:35.515Z</time>
      </trkpt>
      <trkpt lat="45.89985" lon="6.71101">
        <ele>782</ele>
        <time>2022-07-16T04:13:36.486Z</time>
      </trkpt>
      <trkpt lat="45.90022" lon="6.71066">
        <ele>776</ele>
        <time>2022-07-16T04:13:39.927Z</time>
      </trkpt>
      <trkpt lat="45.9002" lon="6.71048">
        <ele>774</ele>
        <time>2022-07-16T04:13:40.913Z</time>
      </trkpt>
      <trkpt lat="45.89997" lon="6.71002">
        <ele>771</ele>
        <time>2022-07-16T04:13:43.975Z</time>
      </trkpt>
      <trkpt lat="45.90008" lon="6.71007">
        <ele>770</ele>
        <time>2022-07-16T04:13:44.872Z</time>
      </trkpt>
      <trkpt lat="45.90039" lon="6.71011">
        <ele>767</ele>
        <time>2022-07-16T04:13:47.290Z</time>
      </trkpt>
      <trkpt lat="45.90086" lon="6.71002">
        <ele>761</ele>
        <time>2022-07-16T04:13:50.974Z</time>
      </trkpt>
      <trkpt lat="45.90109" lon="6.71006">
        <ele>758</ele>
        <time>2022-07-16T04:13:52.774Z</time>
      </trkpt>
      <trkpt lat="45.90132" lon="6.71016">
        <ele>757</ele>
        <time>2022-07-16T04:13:54.885Z</time>
      </trkpt>
      <trkpt lat="45.90143" lon="6.71026">
        <ele>757</ele>
        <time>2022-07-16T04:13:56.711Z</time>
      </trkpt>
      <trkpt lat="45.9015" lon="6.7104">
        <ele>759</ele>
        <time>2022-07-16T04:14:03.202Z</time>
      </trkpt>
      <trkpt lat="45.90158" lon="6.71072">
        <ele>763</ele>
        <time>2022-07-16T04:14:16.004Z</time>
      </trkpt>
      <trkpt lat="45.90169" lon="6.71085">
        <ele>764</ele>
        <time>2022-07-16T04:14:20.031Z</time>
      </trkpt>
      <trkpt lat="45.90182" lon="6.71095">
        <ele>761</ele>
        <time>2022-07-16T04:14:21.177Z</time>
      </trkpt>
      <trkpt lat="45.90237" lon="6.71117">
        <ele>746</ele>
        <time>2022-07-16T04:14:25.612Z</time>
      </trkpt>
      <trkpt lat="45.90245" lon="6.71133">
        <ele>744</ele>
        <time>2022-07-16T04:14:26.677Z</time>
      </trkpt>
      <trkpt lat="45.90245" lon="6.71155">
        <ele>745</ele>
        <time>2022-07-16T04:14:30.852Z</time>
      </trkpt>
      <trkpt lat="45.90229" lon="6.7119">
        <ele>752</ele>
        <time>2022-07-16T04:14:46.619Z</time>
      </trkpt>
      <trkpt lat="45.90216" lon="6.71253">
        <ele>757</ele>
        <time>2022-07-16T04:15:04.971Z</time>
      </trkpt>
      <trkpt lat="45.90218" lon="6.71284">
        <ele>756</ele>
        <time>2022-07-16T04:15:06.796Z</time>
      </trkpt>
      <trkpt lat="45.90222" lon="6.71292">
        <ele>755</ele>
        <time>2022-07-16T04:15:07.329Z</time>
      </trkpt>
      <trkpt lat="45.90273" lon="6.71335">
        <ele>747</ele>
        <time>2022-07-16T04:15:11.923Z</time>
      </trkpt>
      <trkpt lat="45.90307" lon="6.71358">
        <ele>747</ele>
        <time>2022-07-16T04:15:17.194Z</time>
      </trkpt>
      <trkpt lat="45.90316" lon="6.71358">
        <ele>746</ele>
        <time>2022-07-16T04:15:17.894Z</time>
      </trkpt>
      <trkpt lat="45.90338" lon="6.71341">
        <ele>737</ele>
        <time>2022-07-16T04:15:19.834Z</time>
      </trkpt>
      <trkpt lat="45.90346" lon="6.71339">
        <ele>737</ele>
        <time>2022-07-16T04:15:20.973Z</time>
      </trkpt>
      <trkpt lat="45.90381" lon="6.71344">
        <ele>739</ele>
        <time>2022-07-16T04:15:30.007Z</time>
      </trkpt>
      <trkpt lat="45.90519" lon="6.713">
        <ele>713</ele>
        <time>2022-07-16T04:15:40.989Z</time>
      </trkpt>
      <trkpt lat="45.90532" lon="6.71304">
        <ele>712</ele>
        <time>2022-07-16T04:15:42.022Z</time>
      </trkpt>
      <trkpt lat="45.90542" lon="6.71315">
        <ele>713</ele>
        <time>2022-07-16T04:15:45.848Z</time>
      </trkpt>
      <trkpt lat="45.90573" lon="6.71363">
        <ele>718</ele>
        <time>2022-07-16T04:16:04.211Z</time>
      </trkpt>
      <trkpt lat="45.90605" lon="6.71386">
        <ele>711</ele>
        <time>2022-07-16T04:16:06.991Z</time>
      </trkpt>
      <trkpt lat="45.90633" lon="6.71421">
        <ele>706</ele>
        <time>2022-07-16T04:16:09.874Z</time>
      </trkpt>
      <trkpt lat="45.90644" lon="6.71437">
        <ele>705</ele>
        <time>2022-07-16T04:16:11.012Z</time>
      </trkpt>
      <trkpt lat="45.90676" lon="6.715">
        <ele>703</ele>
        <time>2022-07-16T04:16:16.003Z</time>
      </trkpt>
      <trkpt lat="45.90686" lon="6.71515">
        <ele>703</ele>
        <time>2022-07-16T04:16:18.031Z</time>
      </trkpt>
      <trkpt lat="45.90699" lon="6.71531">
        <ele>702</ele>
        <time>2022-07-16T04:16:19.330Z</time>
      </trkpt>
      <trkpt lat="45.90738" lon="6.71568">
        <ele>696</ele>
        <time>2022-07-16T04:16:22.961Z</time>
      </trkpt>
      <trkpt lat="45.90751" lon="6.71613">
        <ele>697</ele>
        <time>2022-07-16T04:16:29.477Z</time>
      </trkpt>
      <trkpt lat="45.90775" lon="6.71655">
        <ele>698</ele>
        <time>2022-07-16T04:16:36.477Z</time>
      </trkpt>
      <trkpt lat="45.908" lon="6.71683">
        <ele>698</ele>
        <time>2022-07-16T04:16:40.924Z</time>
      </trkpt>
      <trkpt lat="45.90828" lon="6.717">
        <ele>694</ele>
        <time>2022-07-16T04:16:43.285Z</time>
      </trkpt>
      <trkpt lat="45.90835" lon="6.71707">
        <ele>694</ele>
        <time>2022-07-16T04:16:44.481Z</time>
      </trkpt>
      <trkpt lat="45.90847" lon="6.71748">
        <ele>696</ele>
        <time>2022-07-16T04:16:52.877Z</time>
      </trkpt>
      <trkpt lat="45.90853" lon="6.71757">
        <ele>696</ele>
        <time>2022-07-16T04:16:54.094Z</time>
      </trkpt>
      <trkpt lat="45.90869" lon="6.71763">
        <ele>694</ele>
        <time>2022-07-16T04:16:55.378Z</time>
      </trkpt>
      <trkpt lat="45.90923" lon="6.7175">
        <ele>684</ele>
        <time>2022-07-16T04:16:59.632Z</time>
      </trkpt>
      <trkpt lat="45.90937" lon="6.71756">
        <ele>683</ele>
        <time>2022-07-16T04:17:00.767Z</time>
      </trkpt>
      <trkpt lat="45.90974" lon="6.71819">
        <ele>684</ele>
        <time>2022-07-16T04:17:10.343Z</time>
      </trkpt>
      <trkpt lat="45.91026" lon="6.71895">
        <ele>684</ele>
        <time>2022-07-16T04:17:20.746Z</time>
      </trkpt>
      <trkpt lat="45.91037" lon="6.71903">
        <ele>685</ele>
        <time>2022-07-16T04:17:24.545Z</time>
      </trkpt>
      <trkpt lat="45.91046" lon="6.71902">
        <ele>684</ele>
        <time>2022-07-16T04:17:25.246Z</time>
      </trkpt>
      <trkpt lat="45.91052" lon="6.71895">
        <ele>682</ele>
        <time>2022-07-16T04:17:25.846Z</time>
      </trkpt>
      <trkpt lat="45.91054" lon="6.71878">
        <ele>679</ele>
        <time>2022-07-16T04:17:26.778Z</time>
      </trkpt>
      <trkpt lat="45.9105" lon="6.71868">
        <ele>678</ele>
        <time>2022-07-16T04:17:27.402Z</time>
      </trkpt>
      <trkpt lat="45.91027" lon="6.71838">
        <ele>677</ele>
        <time>2022-07-16T04:17:30.394Z</time>
      </trkpt>
      <trkpt lat="45.90995" lon="6.71779">
        <ele>676</ele>
        <time>2022-07-16T04:17:36.180Z</time>
      </trkpt>
      <trkpt lat="45.90984" lon="6.71763">
        <ele>676</ele>
        <time>2022-07-16T04:17:38.376Z</time>
      </trkpt>
      <trkpt lat="45.90982" lon="6.71757">
        <ele>676</ele>
        <time>2022-07-16T04:17:39.025Z</time>
      </trkpt>
      <trkpt lat="45.90983" lon="6.71722">
        <ele>670</ele>
        <time>2022-07-16T04:17:40.919Z</time>
      </trkpt>
      <trkpt lat="45.90979" lon="6.71705">
        <ele>668</ele>
        <time>2022-07-16T04:17:41.889Z</time>
      </trkpt>
      <trkpt lat="45.9097" lon="6.71695">
        <ele>668</ele>
        <time>2022-07-16T04:17:43.484Z</time>
      </trkpt>
      <trkpt lat="45.90963" lon="6.71691">
        <ele>668</ele>
        <time>2022-07-16T04:17:44.541Z</time>
      </trkpt>
      <trkpt lat="45.90929" lon="6.71694">
        <ele>674</ele>
        <time>2022-07-16T04:18:02.972Z</time>
      </trkpt>
      <trkpt lat="45.90919" lon="6.71686">
        <ele>675</ele>
        <time>2022-07-16T04:18:06.690Z</time>
      </trkpt>
      <trkpt lat="45.90916" lon="6.7168">
        <ele>674</ele>
        <time>2022-07-16T04:18:07.089Z</time>
      </trkpt>
      <trkpt lat="45.90913" lon="6.71672">
        <ele>674</ele>
        <time>2022-07-16T04:18:07.976Z</time>
      </trkpt>
      <trkpt lat="45.90914" lon="6.71659">
        <ele>671</ele>
        <time>2022-07-16T04:18:08.683Z</time>
      </trkpt>
      <trkpt lat="45.90928" lon="6.7162">
        <ele>663</ele>
        <time>2022-07-16T04:18:11.055Z</time>
      </trkpt>
      <trkpt lat="45.90929" lon="6.7161">
        <ele>661</ele>
        <time>2022-07-16T04:18:11.602Z</time>
      </trkpt>
      <trkpt lat="45.90924" lon="6.7159">
        <ele>658</ele>
        <time>2022-07-16T04:18:12.750Z</time>
      </trkpt>
      <trkpt lat="45.9089" lon="6.71538">
        <ele>658</ele>
        <time>2022-07-16T04:18:19.715Z</time>
      </trkpt>
      <trkpt lat="45.90875" lon="6.71509">
        <ele>657</ele>
        <time>2022-07-16T04:18:21.963Z</time>
      </trkpt>
      <trkpt lat="45.90827" lon="6.71378">
        <ele>647</ele>
        <time>2022-07-16T04:18:29.967Z</time>
      </trkpt>
      <trkpt lat="45.90802" lon="6.71334">
        <ele>646</ele>
        <time>2022-07-16T04:18:34.065Z</time>
      </trkpt>
      <trkpt lat="45.90784" lon="6.7131">
        <ele>647</ele>
        <time>2022-07-16T04:18:39.559Z</time>
      </trkpt>
      <trkpt lat="45.90767" lon="6.71282">
        <ele>647</ele>
        <time>2022-07-16T04:18:43.186Z</time>
      </trkpt>
      <trkpt lat="45.90729" lon="6.71173">
        <ele>639</ele>
        <time>2022-07-16T04:18:49.777Z</time>
      </trkpt>
      <trkpt lat="45.90703" lon="6.71096">
        <ele>634</ele>
        <time>2022-07-16T04:18:54.404Z</time>
      </trkpt>
      <trkpt lat="45.90693" lon="6.71047">
        <ele>631</ele>
        <time>2022-07-16T04:18:57.164Z</time>
      </trkpt>
      <trkpt lat="45.90678" lon="6.7095">
        <ele>625</ele>
        <time>2022-07-16T04:19:02.536Z</time>
      </trkpt>
      <trkpt lat="45.90662" lon="6.7091">
        <ele>623</ele>
        <time>2022-07-16T04:19:04.899Z</time>
      </trkpt>
      <trkpt lat="45.90626" lon="6.70846">
        <ele>619</ele>
        <time>2022-07-16T04:19:09.348Z</time>
      </trkpt>
      <trkpt lat="45.90612" lon="6.70802">
        <ele>617</ele>
        <time>2022-07-16T04:19:11.884Z</time>
      </trkpt>
      <trkpt lat="45.90602" lon="6.70734">
        <ele>615</ele>
        <time>2022-07-16T04:19:16.144Z</time>
      </trkpt>
      <trkpt lat="45.90596" lon="6.70653">
        <ele>612</ele>
        <time>2022-07-16T04:19:20.647Z</time>
      </trkpt>
      <trkpt lat="45.90599" lon="6.70641">
        <ele>611</ele>
        <time>2022-07-16T04:19:21.336Z</time>
      </trkpt>
      <trkpt lat="45.90588" lon="6.70569">
        <ele>607</ele>
        <time>2022-07-16T04:19:25.321Z</time>
      </trkpt>
      <trkpt lat="45.90582" lon="6.70554">
        <ele>607</ele>
        <time>2022-07-16T04:19:27.010Z</time>
      </trkpt>
      <trkpt lat="45.90553" lon="6.70438">
        <ele>602</ele>
        <time>2022-07-16T04:19:33.528Z</time>
      </trkpt>
      <trkpt lat="45.90523" lon="6.70383">
        <ele>599</ele>
        <time>2022-07-16T04:19:37.125Z</time>
      </trkpt>
      <trkpt lat="45.90516" lon="6.70361">
        <ele>597</ele>
        <time>2022-07-16T04:19:38.433Z</time>
      </trkpt>
      <trkpt lat="45.90517" lon="6.70349">
        <ele>596</ele>
        <time>2022-07-16T04:19:39.086Z</time>
      </trkpt>
      <trkpt lat="45.90534" lon="6.70344">
        <ele>595</ele>
        <time>2022-07-16T04:19:40.412Z</time>
      </trkpt>
      <trkpt lat="45.90547" lon="6.70345">
        <ele>595</ele>
        <time>2022-07-16T04:19:42.238Z</time>
      </trkpt>
      <trkpt lat="45.9058" lon="6.70356">
        <ele>595</ele>
        <time>2022-07-16T04:19:46.990Z</time>
      </trkpt>
      <trkpt lat="45.90585" lon="6.70354">
        <ele>595</ele>
        <time>2022-07-16T04:19:47.718Z</time>
      </trkpt>
      <trkpt lat="45.90619" lon="6.70374">
        <ele>594</ele>
        <time>2022-07-16T04:19:51.449Z</time>
      </trkpt>
      <trkpt lat="45.90688" lon="6.70422">
        <ele>594</ele>
        <time>2022-07-16T04:20:02.202Z</time>
      </trkpt>
      <trkpt lat="45.90786" lon="6.70481">
        <ele>588</ele>
        <time>2022-07-16T04:20:10.398Z</time>
      </trkpt>
      <trkpt lat="45.90987" lon="6.70614">
        <ele>583</ele>
        <time>2022-07-16T04:20:34.047Z</time>
      </trkpt>
      <trkpt lat="45.91001" lon="6.70633">
        <ele>583</ele>
        <time>2022-07-16T04:20:36.749Z</time>
      </trkpt>
      <trkpt lat="45.91007" lon="6.70637">
        <ele>583</ele>
        <time>2022-07-16T04:20:37.676Z</time>
      </trkpt>
      <trkpt lat="45.91019" lon="6.70652">
        <ele>583</ele>
        <time>2022-07-16T04:20:39.907Z</time>
      </trkpt>
      <trkpt lat="45.91045" lon="6.70662">
        <ele>582</ele>
        <time>2022-07-16T04:20:42.375Z</time>
      </trkpt>
      <trkpt lat="45.91073" lon="6.70677">
        <ele>582</ele>
        <time>2022-07-16T04:20:46.567Z</time>
      </trkpt>
      <trkpt lat="45.91076" lon="6.70676">
        <ele>582</ele>
        <time>2022-07-16T04:20:46.999Z</time>
      </trkpt>
      <trkpt lat="45.91101" lon="6.70692">
        <ele>581</ele>
        <time>2022-07-16T04:20:49.523Z</time>
      </trkpt>
      <trkpt lat="45.91216" lon="6.70773">
        <ele>580</ele>
        <time>2022-07-16T04:21:05.980Z</time>
      </trkpt>
      <trkpt lat="45.91267" lon="6.70802">
        <ele>580</ele>
        <time>2022-07-16T04:21:13.673Z</time>
      </trkpt>
      <trkpt lat="45.91332" lon="6.70844">
        <ele>580</ele>
        <time>2022-07-16T04:21:23.670Z</time>
      </trkpt>
      <trkpt lat="45.91985" lon="6.71281">
        <ele>589</ele>
        <time>2022-07-16T04:23:17.771Z</time>
      </trkpt>
      <trkpt lat="45.92092" lon="6.71347">
        <ele>590</ele>
        <time>2022-07-16T04:23:35.498Z</time>
      </trkpt>
      <trkpt lat="45.9213" lon="6.71381">
        <ele>589</ele>
        <time>2022-07-16T04:23:40.296Z</time>
      </trkpt>
      <trkpt lat="45.92139" lon="6.71384">
        <ele>590</ele>
        <time>2022-07-16T04:23:43.960Z</time>
      </trkpt>
      <trkpt lat="45.92147" lon="6.71378">
        <ele>590</ele>
        <time>2022-07-16T04:23:45.226Z</time>
      </trkpt>
      <trkpt lat="45.92147" lon="6.71373">
        <ele>590</ele>
        <time>2022-07-16T04:23:45.714Z</time>
      </trkpt>
      <trkpt lat="45.92156" lon="6.7137">
        <ele>590</ele>
        <time>2022-07-16T04:23:47.010Z</time>
      </trkpt>
      <trkpt lat="45.92167" lon="6.71359">
        <ele>590</ele>
        <time>2022-07-16T04:23:48.890Z</time>
      </trkpt>
      <trkpt lat="45.92228" lon="6.71315">
        <ele>588</ele>
        <time>2022-07-16T04:23:55.666Z</time>
      </trkpt>
      <trkpt lat="45.92284" lon="6.71279">
        <ele>589</ele>
        <time>2022-07-16T04:24:05.782Z</time>
      </trkpt>
      <trkpt lat="45.92328" lon="6.71256">
        <ele>589</ele>
        <time>2022-07-16T04:24:12.349Z</time>
      </trkpt>
      <trkpt lat="45.92418" lon="6.71219">
        <ele>591</ele>
        <time>2022-07-16T04:24:28.676Z</time>
      </trkpt>
      <trkpt lat="45.9243" lon="6.71212">
        <ele>593</ele>
        <time>2022-07-16T04:24:35.682Z</time>
      </trkpt>
      <trkpt lat="45.92444" lon="6.71194">
        <ele>596</ele>
        <time>2022-07-16T04:24:45.845Z</time>
      </trkpt>
      <trkpt lat="45.92448" lon="6.71178">
        <ele>598</ele>
        <time>2022-07-16T04:24:52.244Z</time>
      </trkpt>
      <trkpt lat="45.92447" lon="6.71161">
        <ele>599</ele>
        <time>2022-07-16T04:24:55.997Z</time>
      </trkpt>
      <trkpt lat="45.92433" lon="6.71101">
        <ele>601</ele>
        <time>2022-07-16T04:25:06.481Z</time>
      </trkpt>
      <trkpt lat="45.92425" lon="6.71084">
        <ele>600</ele>
        <time>2022-07-16T04:25:07.591Z</time>
      </trkpt>
      <trkpt lat="45.92396" lon="6.71038">
        <ele>597</ele>
        <time>2022-07-16T04:25:10.946Z</time>
      </trkpt>
      <trkpt lat="45.92389" lon="6.71006">
        <ele>597</ele>
        <time>2022-07-16T04:25:14.219Z</time>
      </trkpt>
      <trkpt lat="45.92386" lon="6.70946">
        <ele>599</ele>
        <time>2022-07-16T04:25:24.337Z</time>
      </trkpt>
      <trkpt lat="45.92377" lon="6.70895">
        <ele>600</ele>
        <time>2022-07-16T04:25:31.185Z</time>
      </trkpt>
      <trkpt lat="45.92381" lon="6.7087">
        <ele>602</ele>
        <time>2022-07-16T04:25:38.562Z</time>
      </trkpt>
      <trkpt lat="45.92387" lon="6.7086">
        <ele>604</ele>
        <time>2022-07-16T04:25:43.533Z</time>
      </trkpt>
      <trkpt lat="45.92395" lon="6.70854">
        <ele>606</ele>
        <time>2022-07-16T04:25:48.415Z</time>
      </trkpt>
      <trkpt lat="45.92404" lon="6.70853">
        <ele>608</ele>
        <time>2022-07-16T04:25:53.299Z</time>
      </trkpt>
      <trkpt lat="45.92411" lon="6.70855">
        <ele>609</ele>
        <time>2022-07-16T04:25:57.161Z</time>
      </trkpt>
      <trkpt lat="45.92418" lon="6.70859">
        <ele>610</ele>
        <time>2022-07-16T04:26:01.197Z</time>
      </trkpt>
      <trkpt lat="45.92424" lon="6.70869">
        <ele>611</ele>
        <time>2022-07-16T04:26:04.864Z</time>
      </trkpt>
      <trkpt lat="45.92435" lon="6.70909">
        <ele>611</ele>
        <time>2022-07-16T04:26:09.061Z</time>
      </trkpt>
      <trkpt lat="45.92455" lon="6.70958">
        <ele>614</ele>
        <time>2022-07-16T04:26:20.737Z</time>
      </trkpt>
      <trkpt lat="45.9246" lon="6.70978">
        <ele>615</ele>
        <time>2022-07-16T04:26:24.837Z</time>
      </trkpt>
      <trkpt lat="45.92461" lon="6.70996">
        <ele>614</ele>
        <time>2022-07-16T04:26:25.813Z</time>
      </trkpt>
      <trkpt lat="45.92455" lon="6.71052">
        <ele>610</ele>
        <time>2022-07-16T04:26:28.875Z</time>
      </trkpt>
      <trkpt lat="45.92455" lon="6.71064">
        <ele>610</ele>
        <time>2022-07-16T04:26:30.046Z</time>
      </trkpt>
      <trkpt lat="45.92458" lon="6.71074">
        <ele>610</ele>
        <time>2022-07-16T04:26:31.109Z</time>
      </trkpt>
      <trkpt lat="45.92466" lon="6.71085">
        <ele>612</ele>
        <time>2022-07-16T04:26:37.098Z</time>
      </trkpt>
      <trkpt lat="45.92475" lon="6.71092">
        <ele>614</ele>
        <time>2022-07-16T04:26:42.635Z</time>
      </trkpt>
      <trkpt lat="45.92482" lon="6.71093">
        <ele>616</ele>
        <time>2022-07-16T04:26:46.441Z</time>
      </trkpt>
      <trkpt lat="45.9249" lon="6.71089">
        <ele>619</ele>
        <time>2022-07-16T04:26:51.024Z</time>
      </trkpt>
      <trkpt lat="45.925" lon="6.71071">
        <ele>623</ele>
        <time>2022-07-16T04:26:59.694Z</time>
      </trkpt>
      <trkpt lat="45.92501" lon="6.7102">
        <ele>625</ele>
        <time>2022-07-16T04:27:08.777Z</time>
      </trkpt>
      <trkpt lat="45.92496" lon="6.7099">
        <ele>624</ele>
        <time>2022-07-16T04:27:10.578Z</time>
      </trkpt>
      <trkpt lat="45.92466" lon="6.70909">
        <ele>620</ele>
        <time>2022-07-16T04:27:15.264Z</time>
      </trkpt>
      <trkpt lat="45.92463" lon="6.70892">
        <ele>620</ele>
        <time>2022-07-16T04:27:16.975Z</time>
      </trkpt>
      <trkpt lat="45.92461" lon="6.7083">
        <ele>624</ele>
        <time>2022-07-16T04:27:31.672Z</time>
      </trkpt>
      <trkpt lat="45.92445" lon="6.7078">
        <ele>625</ele>
        <time>2022-07-16T04:27:38.731Z</time>
      </trkpt>
      <trkpt lat="45.92436" lon="6.70722">
        <ele>630</ele>
        <time>2022-07-16T04:27:57.680Z</time>
      </trkpt>
      <trkpt lat="45.92432" lon="6.70682">
        <ele>633</ele>
        <time>2022-07-16T04:28:08.653Z</time>
      </trkpt>
      <trkpt lat="45.92433" lon="6.70556">
        <ele>641</ele>
        <time>2022-07-16T04:28:38.121Z</time>
      </trkpt>
      <trkpt lat="45.92414" lon="6.70497">
        <ele>641</ele>
        <time>2022-07-16T04:28:44.465Z</time>
      </trkpt>
      <trkpt lat="45.92407" lon="6.70374">
        <ele>648</ele>
        <time>2022-07-16T04:29:11.006Z</time>
      </trkpt>
      <trkpt lat="45.92381" lon="6.70294">
        <ele>645</ele>
        <time>2022-07-16T04:29:16.061Z</time>
      </trkpt>
      <trkpt lat="45.92378" lon="6.70279">
        <ele>645</ele>
        <time>2022-07-16T04:29:17.584Z</time>
      </trkpt>
      <trkpt lat="45.92379" lon="6.70254">
        <ele>646</ele>
        <time>2022-07-16T04:29:22.074Z</time>
      </trkpt>
      <trkpt lat="45.92409" lon="6.70162">
        <ele>659</ele>
        <time>2022-07-16T04:30:00.317Z</time>
      </trkpt>
      <trkpt lat="45.92421" lon="6.70093">
        <ele>663</ele>
        <time>2022-07-16T04:30:15.526Z</time>
      </trkpt>
      <trkpt lat="45.9242" lon="6.70066">
        <ele>664</ele>
        <time>2022-07-16T04:30:20.237Z</time>
      </trkpt>
      <trkpt lat="45.92417" lon="6.70056">
        <ele>664</ele>
        <time>2022-07-16T04:30:21.300Z</time>
      </trkpt>
      <trkpt lat="45.92381" lon="6.69985">
        <ele>663</ele>
        <time>2022-07-16T04:30:28.330Z</time>
      </trkpt>
      <trkpt lat="45.92376" lon="6.6997">
        <ele>663</ele>
        <time>2022-07-16T04:30:29.953Z</time>
      </trkpt>
      <trkpt lat="45.92373" lon="6.69949">
        <ele>664</ele>
        <time>2022-07-16T04:30:34.071Z</time>
      </trkpt>
      <trkpt lat="45.92374" lon="6.69872">
        <ele>669</ele>
        <time>2022-07-16T04:30:52.422Z</time>
      </trkpt>
      <trkpt lat="45.92379" lon="6.69833">
        <ele>671</ele>
        <time>2022-07-16T04:31:00.358Z</time>
      </trkpt>
      <trkpt lat="45.92375" lon="6.69758">
        <ele>668</ele>
        <time>2022-07-16T04:31:04.366Z</time>
      </trkpt>
      <trkpt lat="45.92381" lon="6.69741">
        <ele>669</ele>
        <time>2022-07-16T04:31:08.268Z</time>
      </trkpt>
      <trkpt lat="45.92386" lon="6.69735">
        <ele>670</ele>
        <time>2022-07-16T04:31:11.792Z</time>
      </trkpt>
      <trkpt lat="45.92404" lon="6.69731">
        <ele>676</ele>
        <time>2022-07-16T04:31:21.647Z</time>
      </trkpt>
      <trkpt lat="45.92399" lon="6.69775">
        <ele>676</ele>
        <time>2022-07-16T04:31:25.997Z</time>
      </trkpt>
      <trkpt lat="45.92402" lon="6.69799">
        <ele>677</ele>
        <time>2022-07-16T04:31:30.417Z</time>
      </trkpt>
      <trkpt lat="45.92411" lon="6.69838">
        <ele>679</ele>
        <time>2022-07-16T04:31:38.483Z</time>
      </trkpt>
      <trkpt lat="45.92429" lon="6.69894">
        <ele>681</ele>
        <time>2022-07-16T04:31:48.780Z</time>
      </trkpt>
      <trkpt lat="45.92498" lon="6.69964">
        <ele>695</ele>
        <time>2022-07-16T04:32:34.473Z</time>
      </trkpt>
      <trkpt lat="45.92505" lon="6.69977">
        <ele>696</ele>
        <time>2022-07-16T04:32:38.190Z</time>
      </trkpt>
      <trkpt lat="45.9251" lon="6.70008">
        <ele>697</ele>
        <time>2022-07-16T04:32:43.453Z</time>
      </trkpt>
      <trkpt lat="45.92507" lon="6.70053">
        <ele>696</ele>
        <time>2022-07-16T04:32:46.495Z</time>
      </trkpt>
      <trkpt lat="45.92508" lon="6.70082">
        <ele>696</ele>
        <time>2022-07-16T04:32:49.328Z</time>
      </trkpt>
      <trkpt lat="45.92516" lon="6.70147">
        <ele>698</ele>
        <time>2022-07-16T04:33:00.045Z</time>
      </trkpt>
      <trkpt lat="45.92533" lon="6.70202">
        <ele>701</ele>
        <time>2022-07-16T04:33:12.012Z</time>
      </trkpt>
      <trkpt lat="45.92544" lon="6.7026">
        <ele>700</ele>
        <time>2022-07-16T04:33:16.415Z</time>
      </trkpt>
      <trkpt lat="45.92555" lon="6.703">
        <ele>700</ele>
        <time>2022-07-16T04:33:20.612Z</time>
      </trkpt>
      <trkpt lat="45.92563" lon="6.70349">
        <ele>699</ele>
        <time>2022-07-16T04:33:24.116Z</time>
      </trkpt>
      <trkpt lat="45.92568" lon="6.70364">
        <ele>699</ele>
        <time>2022-07-16T04:33:25.739Z</time>
      </trkpt>
      <trkpt lat="45.92613" lon="6.70427">
        <ele>708</ele>
        <time>2022-07-16T04:33:59.724Z</time>
      </trkpt>
      <trkpt lat="45.9263" lon="6.70503">
        <ele>705</ele>
        <time>2022-07-16T04:34:04.096Z</time>
      </trkpt>
      <trkpt lat="45.92649" lon="6.70549">
        <ele>705</ele>
        <time>2022-07-16T04:34:09.316Z</time>
      </trkpt>
      <trkpt lat="45.92678" lon="6.70576">
        <ele>710</ele>
        <time>2022-07-16T04:34:28.010Z</time>
      </trkpt>
      <trkpt lat="45.92698" lon="6.706">
        <ele>714</ele>
        <time>2022-07-16T04:34:42.105Z</time>
      </trkpt>
      <trkpt lat="45.92724" lon="6.70661">
        <ele>720</ele>
        <time>2022-07-16T04:35:04.810Z</time>
      </trkpt>
      <trkpt lat="45.92751" lon="6.70782">
        <ele>719</ele>
        <time>2022-07-16T04:35:15.648Z</time>
      </trkpt>
      <trkpt lat="45.92763" lon="6.70818">
        <ele>719</ele>
        <time>2022-07-16T04:35:19.543Z</time>
      </trkpt>
      <trkpt lat="45.92799" lon="6.70898">
        <ele>727</ele>
        <time>2022-07-16T04:35:49.832Z</time>
      </trkpt>
      <trkpt lat="45.92826" lon="6.70976">
        <ele>734</ele>
        <time>2022-07-16T04:36:15.874Z</time>
      </trkpt>
      <trkpt lat="45.92878" lon="6.71144">
        <ele>736</ele>
        <time>2022-07-16T04:36:36.815Z</time>
      </trkpt>
      <trkpt lat="45.92891" lon="6.71166">
        <ele>738</ele>
        <time>2022-07-16T04:36:44.111Z</time>
      </trkpt>
      <trkpt lat="45.92912" lon="6.71192">
        <ele>739</ele>
        <time>2022-07-16T04:36:49.918Z</time>
      </trkpt>
      <trkpt lat="45.92939" lon="6.71252">
        <ele>736</ele>
        <time>2022-07-16T04:36:53.634Z</time>
      </trkpt>
      <trkpt lat="45.92945" lon="6.7126">
        <ele>736</ele>
        <time>2022-07-16T04:36:54.782Z</time>
      </trkpt>
      <trkpt lat="45.92955" lon="6.71271">
        <ele>737</ele>
        <time>2022-07-16T04:36:58.608Z</time>
      </trkpt>
      <trkpt lat="45.92989" lon="6.71296">
        <ele>741</ele>
        <time>2022-07-16T04:37:13.213Z</time>
      </trkpt>
      <trkpt lat="45.93024" lon="6.71334">
        <ele>740</ele>
        <time>2022-07-16T04:37:17.890Z</time>
      </trkpt>
      <trkpt lat="45.93083" lon="6.71372">
        <ele>745</ele>
        <time>2022-07-16T04:37:37.208Z</time>
      </trkpt>
      <trkpt lat="45.93092" lon="6.71382">
        <ele>746</ele>
        <time>2022-07-16T04:37:40.920Z</time>
      </trkpt>
      <trkpt lat="45.93134" lon="6.71446">
        <ele>749</ele>
        <time>2022-07-16T04:37:55.835Z</time>
      </trkpt>
      <trkpt lat="45.93154" lon="6.71483">
        <ele>750</ele>
        <time>2022-07-16T04:38:02.194Z</time>
      </trkpt>
      <trkpt lat="45.93159" lon="6.7151">
        <ele>750</ele>
        <time>2022-07-16T04:38:04.920Z</time>
      </trkpt>
      <trkpt lat="45.93154" lon="6.71639">
        <ele>747</ele>
        <time>2022-07-16T04:38:13.474Z</time>
      </trkpt>
      <trkpt lat="45.93157" lon="6.71646">
        <ele>747</ele>
        <time>2022-07-16T04:38:14.276Z</time>
      </trkpt>
      <trkpt lat="45.93166" lon="6.71658">
        <ele>748</ele>
        <time>2022-07-16T04:38:18.069Z</time>
      </trkpt>
      <trkpt lat="45.93192" lon="6.71671">
        <ele>750</ele>
        <time>2022-07-16T04:38:25.998Z</time>
      </trkpt>
      <trkpt lat="45.93252" lon="6.71715">
        <ele>754</ele>
        <time>2022-07-16T04:38:43.601Z</time>
      </trkpt>
      <trkpt lat="45.9327" lon="6.71789">
        <ele>750</ele>
        <time>2022-07-16T04:38:47.837Z</time>
      </trkpt>
      <trkpt lat="45.93309" lon="6.71903">
        <ele>740</ele>
        <time>2022-07-16T04:38:54.702Z</time>
      </trkpt>
      <trkpt lat="45.93316" lon="6.71912">
        <ele>742</ele>
        <time>2022-07-16T04:38:59.783Z</time>
      </trkpt>
      <trkpt lat="45.93325" lon="6.71918">
        <ele>747</ele>
        <time>2022-07-16T04:39:05.151Z</time>
      </trkpt>
      <trkpt lat="45.93351" lon="6.71929">
        <ele>757</ele>
        <time>2022-07-16T04:39:19.815Z</time>
      </trkpt>
      <trkpt lat="45.93358" lon="6.71935">
        <ele>758</ele>
        <time>2022-07-16T04:39:23.632Z</time>
      </trkpt>
      <trkpt lat="45.93387" lon="6.72006">
        <ele>753</ele>
        <time>2022-07-16T04:39:28.082Z</time>
      </trkpt>
      <trkpt lat="45.93395" lon="6.7202">
        <ele>754</ele>
        <time>2022-07-16T04:39:31.909Z</time>
      </trkpt>
      <trkpt lat="45.93431" lon="6.72047">
        <ele>765</ele>
        <time>2022-07-16T04:39:53.878Z</time>
      </trkpt>
      <trkpt lat="45.93441" lon="6.72063">
        <ele>766</ele>
        <time>2022-07-16T04:39:58.002Z</time>
      </trkpt>
      <trkpt lat="45.93445" lon="6.72077">
        <ele>765</ele>
        <time>2022-07-16T04:39:58.820Z</time>
      </trkpt>
      <trkpt lat="45.93441" lon="6.72162">
        <ele>755</ele>
        <time>2022-07-16T04:40:03.424Z</time>
      </trkpt>
      <trkpt lat="45.93442" lon="6.72181">
        <ele>754</ele>
        <time>2022-07-16T04:40:04.453Z</time>
      </trkpt>
      <trkpt lat="45.9345" lon="6.72209">
        <ele>756</ele>
        <time>2022-07-16T04:40:11.776Z</time>
      </trkpt>
      <trkpt lat="45.93487" lon="6.72278">
        <ele>766</ele>
        <time>2022-07-16T04:40:44.562Z</time>
      </trkpt>
      <trkpt lat="45.9349" lon="6.72289">
        <ele>767</ele>
        <time>2022-07-16T04:40:48.364Z</time>
      </trkpt>
      <trkpt lat="45.93492" lon="6.72328">
        <ele>764</ele>
        <time>2022-07-16T04:40:50.477Z</time>
      </trkpt>
      <trkpt lat="45.93501" lon="6.72384">
        <ele>768</ele>
        <time>2022-07-16T04:41:05.068Z</time>
      </trkpt>
      <trkpt lat="45.935" lon="6.72401">
        <ele>768</ele>
        <time>2022-07-16T04:41:06.732Z</time>
      </trkpt>
      <trkpt lat="45.93491" lon="6.72434">
        <ele>767</ele>
        <time>2022-07-16T04:41:08.920Z</time>
      </trkpt>
      <trkpt lat="45.93481" lon="6.72543">
        <ele>768</ele>
        <time>2022-07-16T04:41:21.105Z</time>
      </trkpt>
      <trkpt lat="45.93481" lon="6.72556">
        <ele>769</ele>
        <time>2022-07-16T04:41:24.784Z</time>
      </trkpt>
      <trkpt lat="45.93491" lon="6.72615">
        <ele>776</ele>
        <time>2022-07-16T04:41:47.635Z</time>
      </trkpt>
      <trkpt lat="45.93487" lon="6.72641">
        <ele>776</ele>
        <time>2022-07-16T04:41:50.233Z</time>
      </trkpt>
      <trkpt lat="45.93482" lon="6.72655">
        <ele>776</ele>
        <time>2022-07-16T04:41:51.768Z</time>
      </trkpt>
      <trkpt lat="45.93409" lon="6.72782">
        <ele>774</ele>
        <time>2022-07-16T04:42:04.776Z</time>
      </trkpt>
      <trkpt lat="45.93405" lon="6.72794">
        <ele>774</ele>
        <time>2022-07-16T04:42:06.075Z</time>
      </trkpt>
      <trkpt lat="45.93404" lon="6.7281">
        <ele>774</ele>
        <time>2022-07-16T04:42:07.642Z</time>
      </trkpt>
      <trkpt lat="45.93406" lon="6.72825">
        <ele>776</ele>
        <time>2022-07-16T04:42:13.389Z</time>
      </trkpt>
      <trkpt lat="45.93411" lon="6.72837">
        <ele>777</ele>
        <time>2022-07-16T04:42:17.037Z</time>
      </trkpt>
      <trkpt lat="45.93429" lon="6.72855">
        <ele>778</ele>
        <time>2022-07-16T04:42:22.265Z</time>
      </trkpt>
      <trkpt lat="45.9344" lon="6.7286">
        <ele>780</ele>
        <time>2022-07-16T04:42:28.507Z</time>
      </trkpt>
      <trkpt lat="45.93458" lon="6.72864">
        <ele>783</ele>
        <time>2022-07-16T04:42:38.361Z</time>
      </trkpt>
      <trkpt lat="45.93473" lon="6.72871">
        <ele>786</ele>
        <time>2022-07-16T04:42:46.894Z</time>
      </trkpt>
      <trkpt lat="45.93483" lon="6.7288">
        <ele>787</ele>
        <time>2022-07-16T04:42:50.641Z</time>
      </trkpt>
      <trkpt lat="45.9349" lon="6.72892">
        <ele>787</ele>
        <time>2022-07-16T04:42:52.169Z</time>
      </trkpt>
      <trkpt lat="45.93493" lon="6.72908">
        <ele>785</ele>
        <time>2022-07-16T04:42:53.065Z</time>
      </trkpt>
      <trkpt lat="45.93494" lon="6.72922">
        <ele>784</ele>
        <time>2022-07-16T04:42:53.825Z</time>
      </trkpt>
      <trkpt lat="45.9349" lon="6.72961">
        <ele>781</ele>
        <time>2022-07-16T04:42:55.955Z</time>
      </trkpt>
      <trkpt lat="45.93492" lon="6.72976">
        <ele>781</ele>
        <time>2022-07-16T04:42:57.445Z</time>
      </trkpt>
      <trkpt lat="45.93497" lon="6.72986">
        <ele>782</ele>
        <time>2022-07-16T04:43:01.179Z</time>
      </trkpt>
      <trkpt lat="45.93509" lon="6.72997">
        <ele>784</ele>
        <time>2022-07-16T04:43:08.879Z</time>
      </trkpt>
      <trkpt lat="45.93551" lon="6.73026">
        <ele>790</ele>
        <time>2022-07-16T04:43:32.499Z</time>
      </trkpt>
      <trkpt lat="45.93569" lon="6.73033">
        <ele>793</ele>
        <time>2022-07-16T04:43:42.588Z</time>
      </trkpt>
      <trkpt lat="45.93588" lon="6.73037">
        <ele>796</ele>
        <time>2022-07-16T04:43:52.978Z</time>
      </trkpt>
      <trkpt lat="45.93602" lon="6.73036">
        <ele>799</ele>
        <time>2022-07-16T04:44:00.562Z</time>
      </trkpt>
      <trkpt lat="45.93653" lon="6.73024">
        <ele>812</ele>
        <time>2022-07-16T04:44:28.524Z</time>
      </trkpt>
      <trkpt lat="45.93665" lon="6.73026">
        <ele>814</ele>
        <time>2022-07-16T04:44:35.060Z</time>
      </trkpt>
      <trkpt lat="45.93674" lon="6.73032">
        <ele>815</ele>
        <time>2022-07-16T04:44:38.707Z</time>
      </trkpt>
      <trkpt lat="45.93682" lon="6.73043">
        <ele>814</ele>
        <time>2022-07-16T04:44:39.567Z</time>
      </trkpt>
      <trkpt lat="45.93688" lon="6.73059">
        <ele>811</ele>
        <time>2022-07-16T04:44:40.550Z</time>
      </trkpt>
      <trkpt lat="45.93698" lon="6.731">
        <ele>804</ele>
        <time>2022-07-16T04:44:42.897Z</time>
      </trkpt>
      <trkpt lat="45.93707" lon="6.73121">
        <ele>803</ele>
        <time>2022-07-16T04:44:44.201Z</time>
      </trkpt>
      <trkpt lat="45.93754" lon="6.73204">
        <ele>802</ele>
        <time>2022-07-16T04:44:53.083Z</time>
      </trkpt>
      <trkpt lat="45.93814" lon="6.733">
        <ele>807</ele>
        <time>2022-07-16T04:45:15.954Z</time>
      </trkpt>
      <trkpt lat="45.93827" lon="6.73326">
        <ele>810</ele>
        <time>2022-07-16T04:45:28.003Z</time>
      </trkpt>
      <trkpt lat="45.9383" lon="6.73353">
        <ele>816</ele>
        <time>2022-07-16T04:45:38.292Z</time>
      </trkpt>
      <trkpt lat="45.93828" lon="6.73365">
        <ele>818</ele>
        <time>2022-07-16T04:45:42.935Z</time>
      </trkpt>
      <trkpt lat="45.9381" lon="6.73403">
        <ele>823</ele>
        <time>2022-07-16T04:46:00.235Z</time>
      </trkpt>
      <trkpt lat="45.93807" lon="6.73423">
        <ele>826</ele>
        <time>2022-07-16T04:46:07.934Z</time>
      </trkpt>
      <trkpt lat="45.93807" lon="6.73445">
        <ele>830</ele>
        <time>2022-07-16T04:46:16.212Z</time>
      </trkpt>
      <trkpt lat="45.93802" lon="6.73476">
        <ele>834</ele>
        <time>2022-07-16T04:46:28.186Z</time>
      </trkpt>
      <trkpt lat="45.93763" lon="6.73529">
        <ele>833</ele>
        <time>2022-07-16T04:46:34.192Z</time>
      </trkpt>
      <trkpt lat="45.93754" lon="6.7355">
        <ele>834</ele>
        <time>2022-07-16T04:46:38.641Z</time>
      </trkpt>
      <trkpt lat="45.9375" lon="6.73575">
        <ele>838</ele>
        <time>2022-07-16T04:46:48.294Z</time>
      </trkpt>
      <trkpt lat="45.93749" lon="6.73603">
        <ele>839</ele>
        <time>2022-07-16T04:46:53.117Z</time>
      </trkpt>
      <trkpt lat="45.93759" lon="6.73666">
        <ele>842</ele>
        <time>2022-07-16T04:47:05.499Z</time>
      </trkpt>
      <trkpt lat="45.93815" lon="6.73883">
        <ele>843</ele>
        <time>2022-07-16T04:47:29.441Z</time>
      </trkpt>
      <trkpt lat="45.93823" lon="6.73904">
        <ele>844</ele>
        <time>2022-07-16T04:47:33.814Z</time>
      </trkpt>
      <trkpt lat="45.93835" lon="6.73925">
        <ele>847</ele>
        <time>2022-07-16T04:47:44.041Z</time>
      </trkpt>
      <trkpt lat="45.93853" lon="6.73949">
        <ele>853</ele>
        <time>2022-07-16T04:47:57.322Z</time>
      </trkpt>
      <trkpt lat="45.93882" lon="6.73996">
        <ele>859</ele>
        <time>2022-07-16T04:48:20.965Z</time>
      </trkpt>
      <trkpt lat="45.93891" lon="6.7402">
        <ele>860</ele>
        <time>2022-07-16T04:48:25.701Z</time>
      </trkpt>
      <trkpt lat="45.93912" lon="6.74103">
        <ele>864</ele>
        <time>2022-07-16T04:48:42.423Z</time>
      </trkpt>
      <trkpt lat="45.93907" lon="6.7414">
        <ele>865</ele>
        <time>2022-07-16T04:48:48.075Z</time>
      </trkpt>
      <trkpt lat="45.93902" lon="6.74155">
        <ele>865</ele>
        <time>2022-07-16T04:48:49.698Z</time>
      </trkpt>
      <trkpt lat="45.9388" lon="6.74183">
        <ele>865</ele>
        <time>2022-07-16T04:48:53.819Z</time>
      </trkpt>
      <trkpt lat="45.93827" lon="6.74238">
        <ele>866</ele>
        <time>2022-07-16T04:49:04.482Z</time>
      </trkpt>
      <trkpt lat="45.93795" lon="6.74283">
        <ele>868</ele>
        <time>2022-07-16T04:49:15.091Z</time>
      </trkpt>
      <trkpt lat="45.9378" lon="6.743">
        <ele>868</ele>
        <time>2022-07-16T04:49:17.770Z</time>
      </trkpt>
      <trkpt lat="45.93739" lon="6.74324">
        <ele>864</ele>
        <time>2022-07-16T04:49:21.209Z</time>
      </trkpt>
      <trkpt lat="45.93712" lon="6.74333">
        <ele>860</ele>
        <time>2022-07-16T04:49:23.363Z</time>
      </trkpt>
      <trkpt lat="45.93699" lon="6.74343">
        <ele>859</ele>
        <time>2022-07-16T04:49:24.508Z</time>
      </trkpt>
      <trkpt lat="45.93683" lon="6.74363">
        <ele>860</ele>
        <time>2022-07-16T04:49:29.614Z</time>
      </trkpt>
      <trkpt lat="45.93669" lon="6.74388">
        <ele>862</ele>
        <time>2022-07-16T04:49:37.007Z</time>
      </trkpt>
      <trkpt lat="45.93647" lon="6.74462">
        <ele>865</ele>
        <time>2022-07-16T04:49:51.067Z</time>
      </trkpt>
      <trkpt lat="45.93639" lon="6.74498">
        <ele>866</ele>
        <time>2022-07-16T04:49:56.726Z</time>
      </trkpt>
      <trkpt lat="45.93634" lon="6.74522">
        <ele>867</ele>
        <time>2022-07-16T04:50:01.217Z</time>
      </trkpt>
      <trkpt lat="45.93633" lon="6.74602">
        <ele>875</ele>
        <time>2022-07-16T04:50:31.325Z</time>
      </trkpt>
      <trkpt lat="45.93628" lon="6.74619">
        <ele>876</ele>
        <time>2022-07-16T04:50:35.178Z</time>
      </trkpt>
      <trkpt lat="45.93622" lon="6.74628">
        <ele>875</ele>
        <time>2022-07-16T04:50:35.852Z</time>
      </trkpt>
      <trkpt lat="45.93613" lon="6.74633">
        <ele>874</ele>
        <time>2022-07-16T04:50:36.601Z</time>
      </trkpt>
      <trkpt lat="45.93595" lon="6.74633">
        <ele>869</ele>
        <time>2022-07-16T04:50:38.000Z</time>
      </trkpt>
      <trkpt lat="45.93573" lon="6.74638">
        <ele>864</ele>
        <time>2022-07-16T04:50:39.730Z</time>
      </trkpt>
      <trkpt lat="45.93556" lon="6.74648">
        <ele>861</ele>
        <time>2022-07-16T04:50:41.157Z</time>
      </trkpt>
      <trkpt lat="45.93541" lon="6.74665">
        <ele>860</ele>
        <time>2022-07-16T04:50:42.682Z</time>
      </trkpt>
      <trkpt lat="45.93532" lon="6.74685">
        <ele>859</ele>
        <time>2022-07-16T04:50:43.921Z</time>
      </trkpt>
      <trkpt lat="45.93513" lon="6.74744">
        <ele>858</ele>
        <time>2022-07-16T04:50:48.780Z</time>
      </trkpt>
      <trkpt lat="45.93504" lon="6.7481">
        <ele>862</ele>
        <time>2022-07-16T04:51:03.732Z</time>
      </trkpt>
      <trkpt lat="45.93498" lon="6.74818">
        <ele>862</ele>
        <time>2022-07-16T04:51:04.880Z</time>
      </trkpt>
      <trkpt lat="45.93471" lon="6.74832">
        <ele>856</ele>
        <time>2022-07-16T04:51:07.110Z</time>
      </trkpt>
      <trkpt lat="45.93455" lon="6.74848">
        <ele>854</ele>
        <time>2022-07-16T04:51:08.624Z</time>
      </trkpt>
      <trkpt lat="45.93444" lon="6.74886">
        <ele>857</ele>
        <time>2022-07-16T04:51:19.579Z</time>
      </trkpt>
      <trkpt lat="45.93428" lon="6.74916">
        <ele>857</ele>
        <time>2022-07-16T04:51:23.267Z</time>
      </trkpt>
      <trkpt lat="45.934" lon="6.7493">
        <ele>853</ele>
        <time>2022-07-16T04:51:25.571Z</time>
      </trkpt>
      <trkpt lat="45.9338" lon="6.74934">
        <ele>849</ele>
        <time>2022-07-16T04:51:27.140Z</time>
      </trkpt>
      <trkpt lat="45.9336" lon="6.74944">
        <ele>847</ele>
        <time>2022-07-16T04:51:28.785Z</time>
      </trkpt>
      <trkpt lat="45.93347" lon="6.74958">
        <ele>846</ele>
        <time>2022-07-16T04:51:29.987Z</time>
      </trkpt>
      <trkpt lat="45.93324" lon="6.74993">
        <ele>846</ele>
        <time>2022-07-16T04:51:34.685Z</time>
      </trkpt>
      <trkpt lat="45.93278" lon="6.75034">
        <ele>846</ele>
        <time>2022-07-16T04:51:42.277Z</time>
      </trkpt>
      <trkpt lat="45.93248" lon="6.75075">
        <ele>845</ele>
        <time>2022-07-16T04:51:46.623Z</time>
      </trkpt>
      <trkpt lat="45.93243" lon="6.7509">
        <ele>844</ele>
        <time>2022-07-16T04:51:47.522Z</time>
      </trkpt>
      <trkpt lat="45.93236" lon="6.75131">
        <ele>843</ele>
        <time>2022-07-16T04:51:50.298Z</time>
      </trkpt>
      <trkpt lat="45.9323" lon="6.75149">
        <ele>842</ele>
        <time>2022-07-16T04:51:51.377Z</time>
      </trkpt>
      <trkpt lat="45.93205" lon="6.75192">
        <ele>835</ele>
        <time>2022-07-16T04:51:54.405Z</time>
      </trkpt>
      <trkpt lat="45.93201" lon="6.75203">
        <ele>834</ele>
        <time>2022-07-16T04:51:55.076Z</time>
      </trkpt>
      <trkpt lat="45.93198" lon="6.75217">
        <ele>833</ele>
        <time>2022-07-16T04:51:55.867Z</time>
      </trkpt>
      <trkpt lat="45.93201" lon="6.7528">
        <ele>835</ele>
        <time>2022-07-16T04:52:06.334Z</time>
      </trkpt>
      <trkpt lat="45.93181" lon="6.75401">
        <ele>832</ele>
        <time>2022-07-16T04:52:14.461Z</time>
      </trkpt>
      <trkpt lat="45.9318" lon="6.75446">
        <ele>833</ele>
        <time>2022-07-16T04:52:20.670Z</time>
      </trkpt>
      <trkpt lat="45.93182" lon="6.75471">
        <ele>835</ele>
        <time>2022-07-16T04:52:28.086Z</time>
      </trkpt>
      <trkpt lat="45.93177" lon="6.75515">
        <ele>834</ele>
        <time>2022-07-16T04:52:31.072Z</time>
      </trkpt>
      <trkpt lat="45.93121" lon="6.75675">
        <ele>822</ele>
        <time>2022-07-16T04:52:40.751Z</time>
      </trkpt>
      <trkpt lat="45.93118" lon="6.75686">
        <ele>822</ele>
        <time>2022-07-16T04:52:41.903Z</time>
      </trkpt>
      <trkpt lat="45.93115" lon="6.75725">
        <ele>820</ele>
        <time>2022-07-16T04:52:44.024Z</time>
      </trkpt>
      <trkpt lat="45.93117" lon="6.75747">
        <ele>820</ele>
        <time>2022-07-16T04:52:46.188Z</time>
      </trkpt>
      <trkpt lat="45.93126" lon="6.7578">
        <ele>820</ele>
        <time>2022-07-16T04:52:49.647Z</time>
      </trkpt>
      <trkpt lat="45.93191" lon="6.75988">
        <ele>819</ele>
        <time>2022-07-16T04:53:09.935Z</time>
      </trkpt>
      <trkpt lat="45.93196" lon="6.76026">
        <ele>818</ele>
        <time>2022-07-16T04:53:12.400Z</time>
      </trkpt>
      <trkpt lat="45.93169" lon="6.76597">
        <ele>819</ele>
        <time>2022-07-16T04:54:09.553Z</time>
      </trkpt>
      <trkpt lat="45.93164" lon="6.7666">
        <ele>820</ele>
        <time>2022-07-16T04:54:17.361Z</time>
      </trkpt>
      <trkpt lat="45.9316" lon="6.76695">
        <ele>821</ele>
        <time>2022-07-16T04:54:22.865Z</time>
      </trkpt>
      <trkpt lat="45.93152" lon="6.76732">
        <ele>822</ele>
        <time>2022-07-16T04:54:28.592Z</time>
      </trkpt>
      <trkpt lat="45.9314" lon="6.7677">
        <ele>821</ele>
        <time>2022-07-16T04:54:31.326Z</time>
      </trkpt>
      <trkpt lat="45.93064" lon="6.76961">
        <ele>823</ele>
        <time>2022-07-16T04:54:55.714Z</time>
      </trkpt>
      <trkpt lat="45.93033" lon="6.77002">
        <ele>822</ele>
        <time>2022-07-16T04:55:00.158Z</time>
      </trkpt>
      <trkpt lat="45.93007" lon="6.77016">
        <ele>821</ele>
        <time>2022-07-16T04:55:02.732Z</time>
      </trkpt>
      <trkpt lat="45.92978" lon="6.77022">
        <ele>820</ele>
        <time>2022-07-16T04:55:05.500Z</time>
      </trkpt>
      <trkpt lat="45.92645" lon="6.7707">
        <ele>816</ele>
        <time>2022-07-16T04:55:46.198Z</time>
      </trkpt>
      <trkpt lat="45.92588" lon="6.77077">
        <ele>818</ele>
        <time>2022-07-16T04:55:58.003Z</time>
      </trkpt>
      <trkpt lat="45.9255" lon="6.77072">
        <ele>818</ele>
        <time>2022-07-16T04:56:03.356Z</time>
      </trkpt>
      <trkpt lat="45.92548" lon="6.77068">
        <ele>818</ele>
        <time>2022-07-16T04:56:03.837Z</time>
      </trkpt>
      <trkpt lat="45.92542" lon="6.77067">
        <ele>818</ele>
        <time>2022-07-16T04:56:04.684Z</time>
      </trkpt>
      <trkpt lat="45.92537" lon="6.77072">
        <ele>818</ele>
        <time>2022-07-16T04:56:05.538Z</time>
      </trkpt>
      <trkpt lat="45.9252" lon="6.7708">
        <ele>819</ele>
        <time>2022-07-16T04:56:10.102Z</time>
      </trkpt>
      <trkpt lat="45.92487" lon="6.77089">
        <ele>823</ele>
        <time>2022-07-16T04:56:25.155Z</time>
      </trkpt>
      <trkpt lat="45.92434" lon="6.77096">
        <ele>830</ele>
        <time>2022-07-16T04:56:53.178Z</time>
      </trkpt>
      <trkpt lat="45.92299" lon="6.77121">
        <ele>845</ele>
        <time>2022-07-16T04:57:48.311Z</time>
      </trkpt>
      <trkpt lat="45.92185" lon="6.77138">
        <ele>848</ele>
        <time>2022-07-16T04:58:09.459Z</time>
      </trkpt>
      <trkpt lat="45.92153" lon="6.77142">
        <ele>847</ele>
        <time>2022-07-16T04:58:12.588Z</time>
      </trkpt>
      <trkpt lat="45.92062" lon="6.7713">
        <ele>835</ele>
        <time>2022-07-16T04:58:19.688Z</time>
      </trkpt>
      <trkpt lat="45.92041" lon="6.77134">
        <ele>835</ele>
        <time>2022-07-16T04:58:22.659Z</time>
      </trkpt>
      <trkpt lat="45.92012" lon="6.77142">
        <ele>836</ele>
        <time>2022-07-16T04:58:28.664Z</time>
      </trkpt>
      <trkpt lat="45.91978" lon="6.77156">
        <ele>836</ele>
        <time>2022-07-16T04:58:33.625Z</time>
      </trkpt>
      <trkpt lat="45.91918" lon="6.77189">
        <ele>844</ele>
        <time>2022-07-16T04:59:04.421Z</time>
      </trkpt>
      <trkpt lat="45.91876" lon="6.77201">
        <ele>845</ele>
        <time>2022-07-16T04:59:12.062Z</time>
      </trkpt>
      <trkpt lat="45.91791" lon="6.77232">
        <ele>846</ele>
        <time>2022-07-16T04:59:25.798Z</time>
      </trkpt>
      <trkpt lat="45.91692" lon="6.77281">
        <ele>856</ele>
        <time>2022-07-16T05:00:02.391Z</time>
      </trkpt>
      <trkpt lat="45.91667" lon="6.77286">
        <ele>856</ele>
        <time>2022-07-16T05:00:05.932Z</time>
      </trkpt>
      <trkpt lat="45.91619" lon="6.77287">
        <ele>856</ele>
        <time>2022-07-16T05:00:12.666Z</time>
      </trkpt>
      <trkpt lat="45.91598" lon="6.77284">
        <ele>855</ele>
        <time>2022-07-16T05:00:14.425Z</time>
      </trkpt>
      <trkpt lat="45.91581" lon="6.77274">
        <ele>851</ele>
        <time>2022-07-16T05:00:15.852Z</time>
      </trkpt>
      <trkpt lat="45.91573" lon="6.77264">
        <ele>847</ele>
        <time>2022-07-16T05:00:16.676Z</time>
      </trkpt>
      <trkpt lat="45.91569" lon="6.77251">
        <ele>842</ele>
        <time>2022-07-16T05:00:17.444Z</time>
      </trkpt>
      <trkpt lat="45.91568" lon="6.77234">
        <ele>842</ele>
        <time>2022-07-16T05:00:19.109Z</time>
      </trkpt>
      <trkpt lat="45.91582" lon="6.771">
        <ele>851</ele>
        <time>2022-07-16T05:00:52.044Z</time>
      </trkpt>
      <trkpt lat="45.91581" lon="6.7708">
        <ele>855</ele>
        <time>2022-07-16T05:00:59.592Z</time>
      </trkpt>
      <trkpt lat="45.91574" lon="6.77062">
        <ele>858</ele>
        <time>2022-07-16T05:01:07.354Z</time>
      </trkpt>
      <trkpt lat="45.91564" lon="6.77047">
        <ele>861</ele>
        <time>2022-07-16T05:01:15.175Z</time>
      </trkpt>
      <trkpt lat="45.9155" lon="6.77036">
        <ele>862</ele>
        <time>2022-07-16T05:01:19.443Z</time>
      </trkpt>
      <trkpt lat="45.91534" lon="6.77032">
        <ele>863</ele>
        <time>2022-07-16T05:01:23.753Z</time>
      </trkpt>
      <trkpt lat="45.91518" lon="6.77035">
        <ele>863</ele>
        <time>2022-07-16T05:01:26.016Z</time>
      </trkpt>
      <trkpt lat="45.91499" lon="6.77049">
        <ele>864</ele>
        <time>2022-07-16T05:01:31.147Z</time>
      </trkpt>
      <trkpt lat="45.9148" lon="6.77101">
        <ele>865</ele>
        <time>2022-07-16T05:01:38.535Z</time>
      </trkpt>
      <trkpt lat="45.91433" lon="6.77181">
        <ele>863</ele>
        <time>2022-07-16T05:01:45.913Z</time>
      </trkpt>
      <trkpt lat="45.91408" lon="6.77235">
        <ele>858</ele>
        <time>2022-07-16T05:01:49.419Z</time>
      </trkpt>
      <trkpt lat="45.914" lon="6.77247">
        <ele>858</ele>
        <time>2022-07-16T05:01:51.041Z</time>
      </trkpt>
      <trkpt lat="45.91396" lon="6.77249">
        <ele>858</ele>
        <time>2022-07-16T05:01:51.635Z</time>
      </trkpt>
      <trkpt lat="45.91388" lon="6.77248">
        <ele>859</ele>
        <time>2022-07-16T05:01:55.485Z</time>
      </trkpt>
      <trkpt lat="45.9138" lon="6.77242">
        <ele>860</ele>
        <time>2022-07-16T05:01:59.165Z</time>
      </trkpt>
      <trkpt lat="45.91379" lon="6.77238">
        <ele>861</ele>
        <time>2022-07-16T05:02:00.765Z</time>
      </trkpt>
      <trkpt lat="45.91352" lon="6.77244">
        <ele>863</ele>
        <time>2022-07-16T05:02:08.667Z</time>
      </trkpt>
      <trkpt lat="45.91343" lon="6.7724">
        <ele>864</ele>
        <time>2022-07-16T05:02:12.323Z</time>
      </trkpt>
      <trkpt lat="45.91337" lon="6.77233">
        <ele>865</ele>
        <time>2022-07-16T05:02:16.274Z</time>
      </trkpt>
      <trkpt lat="45.91319" lon="6.77199">
        <ele>872</ele>
        <time>2022-07-16T05:02:32.357Z</time>
      </trkpt>
      <trkpt lat="45.9131" lon="6.77175">
        <ele>874</ele>
        <time>2022-07-16T05:02:39.664Z</time>
      </trkpt>
      <trkpt lat="45.9131" lon="6.77148">
        <ele>874</ele>
        <time>2022-07-16T05:02:42.299Z</time>
      </trkpt>
      <trkpt lat="45.91288" lon="6.77126">
        <ele>875</ele>
        <time>2022-07-16T05:02:48.011Z</time>
      </trkpt>
      <trkpt lat="45.91259" lon="6.77123">
        <ele>876</ele>
        <time>2022-07-16T05:02:53.965Z</time>
      </trkpt>
      <trkpt lat="45.91254" lon="6.77118">
        <ele>875</ele>
        <time>2022-07-16T05:02:54.438Z</time>
      </trkpt>
      <trkpt lat="45.91236" lon="6.7712">
        <ele>880</ele>
        <time>2022-07-16T05:03:04.206Z</time>
      </trkpt>
      <trkpt lat="45.91229" lon="6.77118">
        <ele>882</ele>
        <time>2022-07-16T05:03:08.068Z</time>
      </trkpt>
      <trkpt lat="45.9119" lon="6.7705">
        <ele>884</ele>
        <time>2022-07-16T05:03:20.334Z</time>
      </trkpt>
      <trkpt lat="45.91172" lon="6.77033">
        <ele>887</ele>
        <time>2022-07-16T05:03:31.987Z</time>
      </trkpt>
      <trkpt lat="45.91155" lon="6.7699">
        <ele>890</ele>
        <time>2022-07-16T05:03:43.146Z</time>
      </trkpt>
      <trkpt lat="45.91139" lon="6.76973">
        <ele>893</ele>
        <time>2022-07-16T05:03:53.912Z</time>
      </trkpt>
      <trkpt lat="45.91123" lon="6.7695">
        <ele>896</ele>
        <time>2022-07-16T05:04:06.005Z</time>
      </trkpt>
      <trkpt lat="45.91097" lon="6.76932">
        <ele>898</ele>
        <time>2022-07-16T05:04:14.108Z</time>
      </trkpt>
      <trkpt lat="45.91094" lon="6.76923">
        <ele>898</ele>
        <time>2022-07-16T05:04:15.082Z</time>
      </trkpt>
      <trkpt lat="45.91097" lon="6.76891">
        <ele>899</ele>
        <time>2022-07-16T05:04:20.402Z</time>
      </trkpt>
      <trkpt lat="45.911" lon="6.76879">
        <ele>899</ele>
        <time>2022-07-16T05:04:21.646Z</time>
      </trkpt>
      <trkpt lat="45.91109" lon="6.76866">
        <ele>900</ele>
        <time>2022-07-16T05:04:25.491Z</time>
      </trkpt>
      <trkpt lat="45.91111" lon="6.76853">
        <ele>900</ele>
        <time>2022-07-16T05:04:26.790Z</time>
      </trkpt>
      <trkpt lat="45.91094" lon="6.76804">
        <ele>904</ele>
        <time>2022-07-16T05:04:41.398Z</time>
      </trkpt>
      <trkpt lat="45.91092" lon="6.76791">
        <ele>904</ele>
        <time>2022-07-16T05:04:42.698Z</time>
      </trkpt>
      <trkpt lat="45.91092" lon="6.76781">
        <ele>905</ele>
        <time>2022-07-16T05:04:46.462Z</time>
      </trkpt>
      <trkpt lat="45.91102" lon="6.76757">
        <ele>906</ele>
        <time>2022-07-16T05:04:51.280Z</time>
      </trkpt>
      <trkpt lat="45.911" lon="6.76742">
        <ele>906</ele>
        <time>2022-07-16T05:04:52.771Z</time>
      </trkpt>
      <trkpt lat="45.91092" lon="6.76726">
        <ele>908</ele>
        <time>2022-07-16T05:05:00.188Z</time>
      </trkpt>
      <trkpt lat="45.91086" lon="6.76721">
        <ele>908</ele>
        <time>2022-07-16T05:05:01.161Z</time>
      </trkpt>
      <trkpt lat="45.91068" lon="6.76721">
        <ele>912</ele>
        <time>2022-07-16T05:05:10.900Z</time>
      </trkpt>
      <trkpt lat="45.91059" lon="6.76718">
        <ele>914</ele>
        <time>2022-07-16T05:05:15.899Z</time>
      </trkpt>
      <trkpt lat="45.91044" lon="6.76688">
        <ele>917</ele>
        <time>2022-07-16T05:05:27.100Z</time>
      </trkpt>
      <trkpt lat="45.91037" lon="6.76702">
        <ele>919</ele>
        <time>2022-07-16T05:05:33.590Z</time>
      </trkpt>
      <trkpt lat="45.91031" lon="6.76707">
        <ele>920</ele>
        <time>2022-07-16T05:05:37.343Z</time>
      </trkpt>
      <trkpt lat="45.91002" lon="6.76701">
        <ele>926</ele>
        <time>2022-07-16T05:05:53.195Z</time>
      </trkpt>
      <trkpt lat="45.90975" lon="6.767">
        <ele>936</ele>
        <time>2022-07-16T05:06:07.809Z</time>
      </trkpt>
      <trkpt lat="45.90967" lon="6.76696">
        <ele>940</ele>
        <time>2022-07-16T05:06:12.392Z</time>
      </trkpt>
      <trkpt lat="45.90962" lon="6.76689">
        <ele>942</ele>
        <time>2022-07-16T05:06:16.168Z</time>
      </trkpt>
      <trkpt lat="45.90957" lon="6.76678">
        <ele>944</ele>
        <time>2022-07-16T05:06:21.115Z</time>
      </trkpt>
      <trkpt lat="45.90958" lon="6.76668">
        <ele>943</ele>
        <time>2022-07-16T05:06:21.661Z</time>
      </trkpt>
      <trkpt lat="45.90963" lon="6.76655">
        <ele>943</ele>
        <time>2022-07-16T05:06:23.111Z</time>
      </trkpt>
      <trkpt lat="45.91009" lon="6.76585">
        <ele>940</ele>
        <time>2022-07-16T05:06:28.828Z</time>
      </trkpt>
      <trkpt lat="45.91029" lon="6.7657">
        <ele>937</ele>
        <time>2022-07-16T05:06:30.580Z</time>
      </trkpt>
      <trkpt lat="45.91034" lon="6.76563">
        <ele>938</ele>
        <time>2022-07-16T05:06:34.357Z</time>
      </trkpt>
      <trkpt lat="45.91035" lon="6.76554">
        <ele>940</ele>
        <time>2022-07-16T05:06:37.788Z</time>
      </trkpt>
      <trkpt lat="45.91032" lon="6.76547">
        <ele>943</ele>
        <time>2022-07-16T05:06:40.883Z</time>
      </trkpt>
      <trkpt lat="45.91026" lon="6.76545">
        <ele>947</ele>
        <time>2022-07-16T05:06:44.216Z</time>
      </trkpt>
      <trkpt lat="45.91019" lon="6.76548">
        <ele>949</ele>
        <time>2022-07-16T05:06:48.168Z</time>
      </trkpt>
      <trkpt lat="45.90989" lon="6.76596">
        <ele>946</ele>
        <time>2022-07-16T05:06:51.656Z</time>
      </trkpt>
      <trkpt lat="45.90981" lon="6.76604">
        <ele>947</ele>
        <time>2022-07-16T05:06:55.304Z</time>
      </trkpt>
      <trkpt lat="45.90925" lon="6.76627">
        <ele>965</ele>
        <time>2022-07-16T05:07:26.816Z</time>
      </trkpt>
      <trkpt lat="45.90913" lon="6.76639">
        <ele>968</ele>
        <time>2022-07-16T05:07:34.726Z</time>
      </trkpt>
      <trkpt lat="45.90909" lon="6.76661">
        <ele>965</ele>
        <time>2022-07-16T05:07:35.955Z</time>
      </trkpt>
      <trkpt lat="45.90911" lon="6.76675">
        <ele>963</ele>
        <time>2022-07-16T05:07:36.728Z</time>
      </trkpt>
      <trkpt lat="45.90916" lon="6.76687">
        <ele>960</ele>
        <time>2022-07-16T05:07:37.484Z</time>
      </trkpt>
      <trkpt lat="45.90934" lon="6.7671">
        <ele>952</ele>
        <time>2022-07-16T05:07:39.355Z</time>
      </trkpt>
      <trkpt lat="45.90937" lon="6.76721">
        <ele>951</ele>
        <time>2022-07-16T05:07:39.994Z</time>
      </trkpt>
      <trkpt lat="45.90936" lon="6.76736">
        <ele>951</ele>
        <time>2022-07-16T05:07:41.465Z</time>
      </trkpt>
      <trkpt lat="45.9093" lon="6.76756">
        <ele>952</ele>
        <time>2022-07-16T05:07:45.617Z</time>
      </trkpt>
      <trkpt lat="45.90918" lon="6.76782">
        <ele>955</ele>
        <time>2022-07-16T05:07:57.363Z</time>
      </trkpt>
      <trkpt lat="45.90906" lon="6.76798">
        <ele>958</ele>
        <time>2022-07-16T05:08:06.219Z</time>
      </trkpt>
      <trkpt lat="45.90888" lon="6.76811">
        <ele>961</ele>
        <time>2022-07-16T05:08:17.119Z</time>
      </trkpt>
      <trkpt lat="45.90872" lon="6.76818">
        <ele>964</ele>
        <time>2022-07-16T05:08:26.168Z</time>
      </trkpt>
      <trkpt lat="45.90863" lon="6.76816">
        <ele>965</ele>
        <time>2022-07-16T05:08:29.842Z</time>
      </trkpt>
      <trkpt lat="45.9086" lon="6.76812">
        <ele>966</ele>
        <time>2022-07-16T05:08:32.056Z</time>
      </trkpt>
      <trkpt lat="45.90859" lon="6.76803">
        <ele>967</ele>
        <time>2022-07-16T05:08:35.487Z</time>
      </trkpt>
      <trkpt lat="45.90862" lon="6.76796">
        <ele>967</ele>
        <time>2022-07-16T05:08:36.289Z</time>
      </trkpt>
      <trkpt lat="45.90867" lon="6.76793">
        <ele>966</ele>
        <time>2022-07-16T05:08:36.710Z</time>
      </trkpt>
      <trkpt lat="45.90875" lon="6.76794">
        <ele>964</ele>
        <time>2022-07-16T05:08:37.334Z</time>
      </trkpt>
      <trkpt lat="45.90888" lon="6.76791">
        <ele>962</ele>
        <time>2022-07-16T05:08:38.357Z</time>
      </trkpt>
      <trkpt lat="45.90896" lon="6.76784">
        <ele>960</ele>
        <time>2022-07-16T05:08:39.085Z</time>
      </trkpt>
      <trkpt lat="45.909" lon="6.76775">
        <ele>960</ele>
        <time>2022-07-16T05:08:40.127Z</time>
      </trkpt>
      <trkpt lat="45.909" lon="6.76762">
        <ele>960</ele>
        <time>2022-07-16T05:08:41.396Z</time>
      </trkpt>
      <trkpt lat="45.90895" lon="6.76751">
        <ele>962</ele>
        <time>2022-07-16T05:08:46.343Z</time>
      </trkpt>
      <trkpt lat="45.90885" lon="6.76746">
        <ele>965</ele>
        <time>2022-07-16T05:08:52.071Z</time>
      </trkpt>
      <trkpt lat="45.90876" lon="6.76746">
        <ele>967</ele>
        <time>2022-07-16T05:08:56.941Z</time>
      </trkpt>
      <trkpt lat="45.90852" lon="6.76732">
        <ele>975</ele>
        <time>2022-07-16T05:09:10.955Z</time>
      </trkpt>
      <trkpt lat="45.90844" lon="6.76733">
        <ele>977</ele>
        <time>2022-07-16T05:09:15.300Z</time>
      </trkpt>
      <trkpt lat="45.90837" lon="6.7674">
        <ele>978</ele>
        <time>2022-07-16T05:09:19.040Z</time>
      </trkpt>
      <trkpt lat="45.90829" lon="6.76761">
        <ele>978</ele>
        <time>2022-07-16T05:09:21.377Z</time>
      </trkpt>
      <trkpt lat="45.90819" lon="6.76779">
        <ele>980</ele>
        <time>2022-07-16T05:09:29.086Z</time>
      </trkpt>
      <trkpt lat="45.90808" lon="6.76783">
        <ele>984</ele>
        <time>2022-07-16T05:09:35.225Z</time>
      </trkpt>
      <trkpt lat="45.90798" lon="6.7678">
        <ele>988</ele>
        <time>2022-07-16T05:09:40.752Z</time>
      </trkpt>
      <trkpt lat="45.90795" lon="6.76772">
        <ele>989</ele>
        <time>2022-07-16T05:09:44.174Z</time>
      </trkpt>
      <trkpt lat="45.90796" lon="6.76757">
        <ele>990</ele>
        <time>2022-07-16T05:09:47.833Z</time>
      </trkpt>
      <trkpt lat="45.90802" lon="6.76742">
        <ele>990</ele>
        <time>2022-07-16T05:09:49.522Z</time>
      </trkpt>
      <trkpt lat="45.90829" lon="6.76703">
        <ele>986</ele>
        <time>2022-07-16T05:09:52.496Z</time>
      </trkpt>
      <trkpt lat="45.90838" lon="6.76684">
        <ele>986</ele>
        <time>2022-07-16T05:09:54.740Z</time>
      </trkpt>
      <trkpt lat="45.90845" lon="6.76593">
        <ele>1002</ele>
        <time>2022-07-16T05:10:29.208Z</time>
      </trkpt>
      <trkpt lat="45.9085" lon="6.76575">
        <ele>1005</ele>
        <time>2022-07-16T05:10:36.505Z</time>
      </trkpt>
      <trkpt lat="45.90864" lon="6.76552">
        <ele>1006</ele>
        <time>2022-07-16T05:10:41.620Z</time>
      </trkpt>
      <trkpt lat="45.90881" lon="6.76533">
        <ele>1006</ele>
        <time>2022-07-16T05:10:44.641Z</time>
      </trkpt>
      <trkpt lat="45.90906" lon="6.76511">
        <ele>1005</ele>
        <time>2022-07-16T05:10:47.411Z</time>
      </trkpt>
      <trkpt lat="45.90981" lon="6.76458">
        <ele>991</ele>
        <time>2022-07-16T05:10:53.905Z</time>
      </trkpt>
      <trkpt lat="45.90997" lon="6.76449">
        <ele>989</ele>
        <time>2022-07-16T05:10:55.240Z</time>
      </trkpt>
      <trkpt lat="45.91006" lon="6.76441">
        <ele>988</ele>
        <time>2022-07-16T05:10:56.062Z</time>
      </trkpt>
      <trkpt lat="45.91013" lon="6.76428">
        <ele>989</ele>
        <time>2022-07-16T05:10:59.779Z</time>
      </trkpt>
      <trkpt lat="45.91015" lon="6.76418">
        <ele>992</ele>
        <time>2022-07-16T05:11:03.696Z</time>
      </trkpt>
      <trkpt lat="45.91012" lon="6.76409">
        <ele>993</ele>
        <time>2022-07-16T05:11:07.453Z</time>
      </trkpt>
      <trkpt lat="45.91005" lon="6.76404">
        <ele>995</ele>
        <time>2022-07-16T05:11:11.682Z</time>
      </trkpt>
      <trkpt lat="45.90966" lon="6.76393">
        <ele>1003</ele>
        <time>2022-07-16T05:11:33.186Z</time>
      </trkpt>
      <trkpt lat="45.9092" lon="6.76387">
        <ele>1010</ele>
        <time>2022-07-16T05:11:58.178Z</time>
      </trkpt>
      <trkpt lat="45.90906" lon="6.76383">
        <ele>1012</ele>
        <time>2022-07-16T05:12:05.901Z</time>
      </trkpt>
      <trkpt lat="45.90872" lon="6.76369">
        <ele>1017</ele>
        <time>2022-07-16T05:12:25.037Z</time>
      </trkpt>
      <trkpt lat="45.90867" lon="6.76361">
        <ele>1017</ele>
        <time>2022-07-16T05:12:26.087Z</time>
      </trkpt>
      <trkpt lat="45.90865" lon="6.7635">
        <ele>1016</ele>
        <time>2022-07-16T05:12:26.701Z</time>
      </trkpt>
      <trkpt lat="45.90869" lon="6.7634">
        <ele>1015</ele>
        <time>2022-07-16T05:12:27.325Z</time>
      </trkpt>
      <trkpt lat="45.9089" lon="6.76319">
        <ele>1012</ele>
        <time>2022-07-16T05:12:29.312Z</time>
      </trkpt>
      <trkpt lat="45.90903" lon="6.76302">
        <ele>1012</ele>
        <time>2022-07-16T05:12:31.778Z</time>
      </trkpt>
      <trkpt lat="45.90927" lon="6.76258">
        <ele>1014</ele>
        <time>2022-07-16T05:12:41.409Z</time>
      </trkpt>
      <trkpt lat="45.90935" lon="6.7625">
        <ele>1015</ele>
        <time>2022-07-16T05:12:45.057Z</time>
      </trkpt>
      <trkpt lat="45.90946" lon="6.76244">
        <ele>1015</ele>
        <time>2022-07-16T05:12:46.707Z</time>
      </trkpt>
      <trkpt lat="45.90951" lon="6.76237">
        <ele>1016</ele>
        <time>2022-07-16T05:12:50.484Z</time>
      </trkpt>
      <trkpt lat="45.90953" lon="6.76232">
        <ele>1017</ele>
        <time>2022-07-16T05:12:52.655Z</time>
      </trkpt>
      <trkpt lat="45.90952" lon="6.76225">
        <ele>1019</ele>
        <time>2022-07-16T05:12:55.345Z</time>
      </trkpt>
      <trkpt lat="45.90945" lon="6.76214">
        <ele>1022</ele>
        <time>2022-07-16T05:13:00.957Z</time>
      </trkpt>
      <trkpt lat="45.9094" lon="6.76215">
        <ele>1022</ele>
        <time>2022-07-16T05:13:01.665Z</time>
      </trkpt>
      <trkpt lat="45.90916" lon="6.76248">
        <ele>1017</ele>
        <time>2022-07-16T05:13:04.246Z</time>
      </trkpt>
      <trkpt lat="45.90859" lon="6.76293">
        <ele>1021</ele>
        <time>2022-07-16T05:13:21.498Z</time>
      </trkpt>
      <trkpt lat="45.90849" lon="6.76299">
        <ele>1022</ele>
        <time>2022-07-16T05:13:25.175Z</time>
      </trkpt>
      <trkpt lat="45.90837" lon="6.76302">
        <ele>1024</ele>
        <time>2022-07-16T05:13:31.765Z</time>
      </trkpt>
      <trkpt lat="45.90802" lon="6.76304">
        <ele>1030</ele>
        <time>2022-07-16T05:13:50.717Z</time>
      </trkpt>
      <trkpt lat="45.90764" lon="6.76336">
        <ele>1033</ele>
        <time>2022-07-16T05:14:02.975Z</time>
      </trkpt>
      <trkpt lat="45.90757" lon="6.76337">
        <ele>1035</ele>
        <time>2022-07-16T05:14:06.781Z</time>
      </trkpt>
      <trkpt lat="45.90751" lon="6.76333">
        <ele>1036</ele>
        <time>2022-07-16T05:14:10.360Z</time>
      </trkpt>
      <trkpt lat="45.90748" lon="6.76327">
        <ele>1037</ele>
        <time>2022-07-16T05:14:13.141Z</time>
      </trkpt>
      <trkpt lat="45.90751" lon="6.76313">
        <ele>1038</ele>
        <time>2022-07-16T05:14:16.792Z</time>
      </trkpt>
      <trkpt lat="45.90773" lon="6.763">
        <ele>1036</ele>
        <time>2022-07-16T05:14:18.640Z</time>
      </trkpt>
      <trkpt lat="45.90792" lon="6.76277">
        <ele>1036</ele>
        <time>2022-07-16T05:14:22.125Z</time>
      </trkpt>
      <trkpt lat="45.90818" lon="6.76261">
        <ele>1033</ele>
        <time>2022-07-16T05:14:24.323Z</time>
      </trkpt>
      <trkpt lat="45.90824" lon="6.76254">
        <ele>1033</ele>
        <time>2022-07-16T05:14:25.407Z</time>
      </trkpt>
      <trkpt lat="45.90836" lon="6.76204">
        <ele>1044</ele>
        <time>2022-07-16T05:14:45.319Z</time>
      </trkpt>
      <trkpt lat="45.90836" lon="6.76193">
        <ele>1047</ele>
        <time>2022-07-16T05:14:49.460Z</time>
      </trkpt>
      <trkpt lat="45.90832" lon="6.76182">
        <ele>1051</ele>
        <time>2022-07-16T05:14:54.133Z</time>
      </trkpt>
      <trkpt lat="45.9082" lon="6.76179">
        <ele>1053</ele>
        <time>2022-07-16T05:15:00.723Z</time>
      </trkpt>
      <trkpt lat="45.90812" lon="6.76184">
        <ele>1053</ele>
        <time>2022-07-16T05:15:01.947Z</time>
      </trkpt>
      <trkpt lat="45.908" lon="6.762">
        <ele>1050</ele>
        <time>2022-07-16T05:15:03.219Z</time>
      </trkpt>
      <trkpt lat="45.90788" lon="6.76206">
        <ele>1050</ele>
        <time>2022-07-16T05:15:05.001Z</time>
      </trkpt>
      <trkpt lat="45.90767" lon="6.76202">
        <ele>1054</ele>
        <time>2022-07-16T05:15:16.463Z</time>
      </trkpt>
      <trkpt lat="45.90759" lon="6.76203">
        <ele>1055</ele>
        <time>2022-07-16T05:15:20.312Z</time>
      </trkpt>
      <trkpt lat="45.9075" lon="6.76208">
        <ele>1055</ele>
        <time>2022-07-16T05:15:21.666Z</time>
      </trkpt>
      <trkpt lat="45.9074" lon="6.76218">
        <ele>1055</ele>
        <time>2022-07-16T05:15:23.375Z</time>
      </trkpt>
      <trkpt lat="45.90724" lon="6.76243">
        <ele>1052</ele>
        <time>2022-07-16T05:15:25.211Z</time>
      </trkpt>
      <trkpt lat="45.90705" lon="6.7625">
        <ele>1054</ele>
        <time>2022-07-16T05:15:32.506Z</time>
      </trkpt>
      <trkpt lat="45.90676" lon="6.76247">
        <ele>1059</ele>
        <time>2022-07-16T05:15:48.237Z</time>
      </trkpt>
      <trkpt lat="45.90662" lon="6.76248">
        <ele>1061</ele>
        <time>2022-07-16T05:15:55.821Z</time>
      </trkpt>
      <trkpt lat="45.90654" lon="6.76246">
        <ele>1063</ele>
        <time>2022-07-16T05:16:00.215Z</time>
      </trkpt>
      <trkpt lat="45.90649" lon="6.7624">
        <ele>1065</ele>
        <time>2022-07-16T05:16:03.739Z</time>
      </trkpt>
      <trkpt lat="45.90647" lon="6.76222">
        <ele>1068</ele>
        <time>2022-07-16T05:16:10.602Z</time>
      </trkpt>
      <trkpt lat="45.90651" lon="6.76213">
        <ele>1069</ele>
        <time>2022-07-16T05:16:14.623Z</time>
      </trkpt>
      <trkpt lat="45.90658" lon="6.76206">
        <ele>1068</ele>
        <time>2022-07-16T05:16:15.285Z</time>
      </trkpt>
      <trkpt lat="45.90684" lon="6.76192">
        <ele>1066</ele>
        <time>2022-07-16T05:16:17.442Z</time>
      </trkpt>
      <trkpt lat="45.90688" lon="6.76186">
        <ele>1067</ele>
        <time>2022-07-16T05:16:20.571Z</time>
      </trkpt>
      <trkpt lat="45.90687" lon="6.7618">
        <ele>1068</ele>
        <time>2022-07-16T05:16:22.894Z</time>
      </trkpt>
      <trkpt lat="45.90683" lon="6.76176">
        <ele>1069</ele>
        <time>2022-07-16T05:16:25.530Z</time>
      </trkpt>
      <trkpt lat="45.90651" lon="6.76193">
        <ele>1072</ele>
        <time>2022-07-16T05:16:36.666Z</time>
      </trkpt>
      <trkpt lat="45.90595" lon="6.76209">
        <ele>1081</ele>
        <time>2022-07-16T05:17:07.559Z</time>
      </trkpt>
      <trkpt lat="45.90579" lon="6.76217">
        <ele>1084</ele>
        <time>2022-07-16T05:17:16.725Z</time>
      </trkpt>
      <trkpt lat="45.90563" lon="6.76228">
        <ele>1086</ele>
        <time>2022-07-16T05:17:24.114Z</time>
      </trkpt>
      <trkpt lat="45.90554" lon="6.76241">
        <ele>1086</ele>
        <time>2022-07-16T05:17:25.904Z</time>
      </trkpt>
      <trkpt lat="45.90555" lon="6.76306">
        <ele>1082</ele>
        <time>2022-07-16T05:17:29.419Z</time>
      </trkpt>
      <trkpt lat="45.90538" lon="6.76362">
        <ele>1089</ele>
        <time>2022-07-16T05:17:52.422Z</time>
      </trkpt>
      <trkpt lat="45.90532" lon="6.76404">
        <ele>1094</ele>
        <time>2022-07-16T05:18:08.564Z</time>
      </trkpt>
      <trkpt lat="45.90522" lon="6.76447">
        <ele>1100</ele>
        <time>2022-07-16T05:18:25.634Z</time>
      </trkpt>
      <trkpt lat="45.90526" lon="6.76475">
        <ele>1100</ele>
        <time>2022-07-16T05:18:28.424Z</time>
      </trkpt>
      <trkpt lat="45.90533" lon="6.76481">
        <ele>1098</ele>
        <time>2022-07-16T05:18:29.057Z</time>
      </trkpt>
      <trkpt lat="45.9056" lon="6.76489">
        <ele>1091</ele>
        <time>2022-07-16T05:18:31.199Z</time>
      </trkpt>
      <trkpt lat="45.9057" lon="6.76496">
        <ele>1088</ele>
        <time>2022-07-16T05:18:32.063Z</time>
      </trkpt>
      <trkpt lat="45.90578" lon="6.76507">
        <ele>1087</ele>
        <time>2022-07-16T05:18:32.924Z</time>
      </trkpt>
      <trkpt lat="45.90582" lon="6.76522">
        <ele>1086</ele>
        <time>2022-07-16T05:18:33.792Z</time>
      </trkpt>
      <trkpt lat="45.90577" lon="6.76565">
        <ele>1089</ele>
        <time>2022-07-16T05:18:44.740Z</time>
      </trkpt>
      <trkpt lat="45.9057" lon="6.76589">
        <ele>1091</ele>
        <time>2022-07-16T05:18:52.095Z</time>
      </trkpt>
      <trkpt lat="45.90531" lon="6.7666">
        <ele>1106</ele>
        <time>2022-07-16T05:19:26.151Z</time>
      </trkpt>
      <trkpt lat="45.90528" lon="6.76664">
        <ele>1108</ele>
        <time>2022-07-16T05:19:28.365Z</time>
      </trkpt>
      <trkpt lat="45.90515" lon="6.76669">
        <ele>1114</ele>
        <time>2022-07-16T05:19:35.647Z</time>
      </trkpt>
      <trkpt lat="45.90509" lon="6.76674">
        <ele>1117</ele>
        <time>2022-07-16T05:19:39.399Z</time>
      </trkpt>
      <trkpt lat="45.90493" lon="6.76729">
        <ele>1123</ele>
        <time>2022-07-16T05:20:01.844Z</time>
      </trkpt>
      <trkpt lat="45.90478" lon="6.76753">
        <ele>1131</ele>
        <time>2022-07-16T05:20:13.989Z</time>
      </trkpt>
      <trkpt lat="45.90475" lon="6.76765">
        <ele>1132</ele>
        <time>2022-07-16T05:20:17.683Z</time>
      </trkpt>
      <trkpt lat="45.90475" lon="6.76776">
        <ele>1132</ele>
        <time>2022-07-16T05:20:18.757Z</time>
      </trkpt>
      <trkpt lat="45.90482" lon="6.76809">
        <ele>1128</ele>
        <time>2022-07-16T05:20:20.622Z</time>
      </trkpt>
      <trkpt lat="45.90472" lon="6.76881">
        <ele>1133</ele>
        <time>2022-07-16T05:20:38.880Z</time>
      </trkpt>
      <trkpt lat="45.90474" lon="6.76915">
        <ele>1133</ele>
        <time>2022-07-16T05:20:42.210Z</time>
      </trkpt>
      <trkpt lat="45.90516" lon="6.77013">
        <ele>1107</ele>
        <time>2022-07-16T05:20:48.433Z</time>
      </trkpt>
      <trkpt lat="45.90516" lon="6.77028">
        <ele>1106</ele>
        <time>2022-07-16T05:20:49.244Z</time>
      </trkpt>
      <trkpt lat="45.90507" lon="6.77042">
        <ele>1111</ele>
        <time>2022-07-16T05:20:56.420Z</time>
      </trkpt>
      <trkpt lat="45.90475" lon="6.77067">
        <ele>1120</ele>
        <time>2022-07-16T05:21:16.127Z</time>
      </trkpt>
      <trkpt lat="45.90465" lon="6.77081">
        <ele>1121</ele>
        <time>2022-07-16T05:21:20.117Z</time>
      </trkpt>
      <trkpt lat="45.90458" lon="6.77098">
        <ele>1120</ele>
        <time>2022-07-16T05:21:21.185Z</time>
      </trkpt>
      <trkpt lat="45.90454" lon="6.77122">
        <ele>1115</ele>
        <time>2022-07-16T05:21:22.519Z</time>
      </trkpt>
      <trkpt lat="45.90445" lon="6.77152">
        <ele>1111</ele>
        <time>2022-07-16T05:21:24.285Z</time>
      </trkpt>
      <trkpt lat="45.90428" lon="6.77177">
        <ele>1111</ele>
        <time>2022-07-16T05:21:27.697Z</time>
      </trkpt>
      <trkpt lat="45.90409" lon="6.77217">
        <ele>1106</ele>
        <time>2022-07-16T05:21:30.315Z</time>
      </trkpt>
      <trkpt lat="45.90396" lon="6.77235">
        <ele>1104</ele>
        <time>2022-07-16T05:21:31.718Z</time>
      </trkpt>
      <trkpt lat="45.90386" lon="6.77244">
        <ele>1103</ele>
        <time>2022-07-16T05:21:32.635Z</time>
      </trkpt>
      <trkpt lat="45.90372" lon="6.77252">
        <ele>1103</ele>
        <time>2022-07-16T05:21:34.748Z</time>
      </trkpt>
      <trkpt lat="45.90322" lon="6.77268">
        <ele>1106</ele>
        <time>2022-07-16T05:21:48.060Z</time>
      </trkpt>
      <trkpt lat="45.90293" lon="6.77282">
        <ele>1106</ele>
        <time>2022-07-16T05:21:52.351Z</time>
      </trkpt>
      <trkpt lat="45.90231" lon="6.77321">
        <ele>1106</ele>
        <time>2022-07-16T05:22:01.845Z</time>
      </trkpt>
      <trkpt lat="45.90183" lon="6.77383">
        <ele>1100</ele>
        <time>2022-07-16T05:22:06.859Z</time>
      </trkpt>
      <trkpt lat="45.90178" lon="6.77396">
        <ele>1098</ele>
        <time>2022-07-16T05:22:07.662Z</time>
      </trkpt>
      <trkpt lat="45.9017" lon="6.77408">
        <ele>1097</ele>
        <time>2022-07-16T05:22:08.561Z</time>
      </trkpt>
      <trkpt lat="45.90157" lon="6.77421">
        <ele>1093</ele>
        <time>2022-07-16T05:22:09.791Z</time>
      </trkpt>
      <trkpt lat="45.90131" lon="6.77432">
        <ele>1087</ele>
        <time>2022-07-16T05:22:11.897Z</time>
      </trkpt>
      <trkpt lat="45.90115" lon="6.77432">
        <ele>1086</ele>
        <time>2022-07-16T05:22:13.073Z</time>
      </trkpt>
      <trkpt lat="45.90066" lon="6.77419">
        <ele>1082</ele>
        <time>2022-07-16T05:22:16.944Z</time>
      </trkpt>
      <trkpt lat="45.90028" lon="6.77389">
        <ele>1080</ele>
        <time>2022-07-16T05:22:20.599Z</time>
      </trkpt>
      <trkpt lat="45.90011" lon="6.77368">
        <ele>1083</ele>
        <time>2022-07-16T05:22:32.729Z</time>
      </trkpt>
      <trkpt lat="45.89958" lon="6.77316">
        <ele>1082</ele>
        <time>2022-07-16T05:22:40.183Z</time>
      </trkpt>
      <trkpt lat="45.89904" lon="6.77276">
        <ele>1077</ele>
        <time>2022-07-16T05:22:44.903Z</time>
      </trkpt>
      <trkpt lat="45.89858" lon="6.7725">
        <ele>1073</ele>
        <time>2022-07-16T05:22:48.744Z</time>
      </trkpt>
      <trkpt lat="45.89812" lon="6.77234">
        <ele>1068</ele>
        <time>2022-07-16T05:22:52.421Z</time>
      </trkpt>
      <trkpt lat="45.89788" lon="6.7723">
        <ele>1066</ele>
        <time>2022-07-16T05:22:54.298Z</time>
      </trkpt>
      <trkpt lat="45.89767" lon="6.7723">
        <ele>1062</ele>
        <time>2022-07-16T05:22:55.929Z</time>
      </trkpt>
      <trkpt lat="45.89752" lon="6.77233">
        <ele>1059</ele>
        <time>2022-07-16T05:22:57.106Z</time>
      </trkpt>
      <trkpt lat="45.8974" lon="6.7724">
        <ele>1058</ele>
        <time>2022-07-16T05:22:58.112Z</time>
      </trkpt>
      <trkpt lat="45.8973" lon="6.77252">
        <ele>1056</ele>
        <time>2022-07-16T05:22:59.124Z</time>
      </trkpt>
      <trkpt lat="45.89716" lon="6.77304">
        <ele>1051</ele>
        <time>2022-07-16T05:23:02.139Z</time>
      </trkpt>
      <trkpt lat="45.8971" lon="6.77338">
        <ele>1047</ele>
        <time>2022-07-16T05:23:04.036Z</time>
      </trkpt>
      <trkpt lat="45.89683" lon="6.77625">
        <ele>1034</ele>
        <time>2022-07-16T05:23:18.621Z</time>
      </trkpt>
      <trkpt lat="45.89683" lon="6.77642">
        <ele>1033</ele>
        <time>2022-07-16T05:23:19.540Z</time>
      </trkpt>
      <trkpt lat="45.89669" lon="6.77775">
        <ele>1028</ele>
        <time>2022-07-16T05:23:26.948Z</time>
      </trkpt>
      <trkpt lat="45.89662" lon="6.77804">
        <ele>1027</ele>
        <time>2022-07-16T05:23:28.738Z</time>
      </trkpt>
      <trkpt lat="45.89649" lon="6.77838">
        <ele>1026</ele>
        <time>2022-07-16T05:23:31.216Z</time>
      </trkpt>
      <trkpt lat="45.89518" lon="6.78072">
        <ele>1019</ele>
        <time>2022-07-16T05:23:51.089Z</time>
      </trkpt>
      <trkpt lat="45.89504" lon="6.78108">
        <ele>1017</ele>
        <time>2022-07-16T05:23:53.319Z</time>
      </trkpt>
      <trkpt lat="45.89501" lon="6.78131">
        <ele>1016</ele>
        <time>2022-07-16T05:23:54.526Z</time>
      </trkpt>
      <trkpt lat="45.89499" lon="6.78131">
        <ele>1016</ele>
        <time>2022-07-16T05:23:54.807Z</time>
      </trkpt>
      <trkpt lat="45.89497" lon="6.78137">
        <ele>1015</ele>
        <time>2022-07-16T05:23:55.166Z</time>
      </trkpt>
      <trkpt lat="45.89498" lon="6.78149">
        <ele>1014</ele>
        <time>2022-07-16T05:23:55.820Z</time>
      </trkpt>
      <trkpt lat="45.89489" lon="6.78161">
        <ele>1015</ele>
        <time>2022-07-16T05:23:59.613Z</time>
      </trkpt>
      <trkpt lat="45.89476" lon="6.782">
        <ele>1015</ele>
        <time>2022-07-16T05:24:03.835Z</time>
      </trkpt>
      <trkpt lat="45.8945" lon="6.78298">
        <ele>1014</ele>
        <time>2022-07-16T05:24:12.515Z</time>
      </trkpt>
      <trkpt lat="45.89433" lon="6.78326">
        <ele>1013</ele>
        <time>2022-07-16T05:24:14.851Z</time>
      </trkpt>
      <trkpt lat="45.89406" lon="6.78355">
        <ele>1014</ele>
        <time>2022-07-16T05:24:21.344Z</time>
      </trkpt>
      <trkpt lat="45.89397" lon="6.78368">
        <ele>1015</ele>
        <time>2022-07-16T05:24:25.189Z</time>
      </trkpt>
      <trkpt lat="45.89364" lon="6.78435">
        <ele>1015</ele>
        <time>2022-07-16T05:24:33.202Z</time>
      </trkpt>
      <trkpt lat="45.89352" lon="6.78453">
        <ele>1015</ele>
        <time>2022-07-16T05:24:35.636Z</time>
      </trkpt>
      <trkpt lat="45.89271" lon="6.7853">
        <ele>1013</ele>
        <time>2022-07-16T05:24:46.258Z</time>
      </trkpt>
      <trkpt lat="45.89237" lon="6.78576">
        <ele>1006</ele>
        <time>2022-07-16T05:24:49.887Z</time>
      </trkpt>
      <trkpt lat="45.89226" lon="6.78587">
        <ele>1005</ele>
        <time>2022-07-16T05:24:50.928Z</time>
      </trkpt>
      <trkpt lat="45.89216" lon="6.78594">
        <ele>1004</ele>
        <time>2022-07-16T05:24:51.792Z</time>
      </trkpt>
      <trkpt lat="45.89181" lon="6.78604">
        <ele>1005</ele>
        <time>2022-07-16T05:24:58.527Z</time>
      </trkpt>
      <trkpt lat="45.89167" lon="6.78604">
        <ele>1006</ele>
        <time>2022-07-16T05:25:02.521Z</time>
      </trkpt>
      <trkpt lat="45.89127" lon="6.78598">
        <ele>1011</ele>
        <time>2022-07-16T05:25:21.750Z</time>
      </trkpt>
      <trkpt lat="45.89116" lon="6.78601">
        <ele>1011</ele>
        <time>2022-07-16T05:25:23.321Z</time>
      </trkpt>
      <trkpt lat="45.8909" lon="6.78621">
        <ele>1010</ele>
        <time>2022-07-16T05:25:26.113Z</time>
      </trkpt>
      <trkpt lat="45.89068" lon="6.78646">
        <ele>1009</ele>
        <time>2022-07-16T05:25:28.723Z</time>
      </trkpt>
      <trkpt lat="45.89046" lon="6.78693">
        <ele>1005</ele>
        <time>2022-07-16T05:25:31.786Z</time>
      </trkpt>
      <trkpt lat="45.89021" lon="6.78766">
        <ele>1000</ele>
        <time>2022-07-16T05:25:36.186Z</time>
      </trkpt>
      <trkpt lat="45.89" lon="6.78833">
        <ele>999</ele>
        <time>2022-07-16T05:25:41.848Z</time>
      </trkpt>
      <trkpt lat="45.88985" lon="6.78895">
        <ele>997</ele>
        <time>2022-07-16T05:25:45.782Z</time>
      </trkpt>
      <trkpt lat="45.88975" lon="6.78919">
        <ele>997</ele>
        <time>2022-07-16T05:25:48.513Z</time>
      </trkpt>
      <trkpt lat="45.88938" lon="6.79055">
        <ele>1004</ele>
        <time>2022-07-16T05:26:16.960Z</time>
      </trkpt>
      <trkpt lat="45.8893" lon="6.79125">
        <ele>1007</ele>
        <time>2022-07-16T05:26:29.990Z</time>
      </trkpt>
      <trkpt lat="45.88924" lon="6.79206">
        <ele>1008</ele>
        <time>2022-07-16T05:26:39.476Z</time>
      </trkpt>
      <trkpt lat="45.88926" lon="6.79261">
        <ele>1009</ele>
        <time>2022-07-16T05:26:46.542Z</time>
      </trkpt>
      <trkpt lat="45.88937" lon="6.79372">
        <ele>1014</ele>
        <time>2022-07-16T05:27:07.627Z</time>
      </trkpt>
      <trkpt lat="45.88937" lon="6.79409">
        <ele>1017</ele>
        <time>2022-07-16T05:27:18.820Z</time>
      </trkpt>
      <trkpt lat="45.88924" lon="6.79515">
        <ele>1020</ele>
        <time>2022-07-16T05:27:35.417Z</time>
      </trkpt>
      <trkpt lat="45.88924" lon="6.79538">
        <ele>1018</ele>
        <time>2022-07-16T05:27:36.661Z</time>
      </trkpt>
      <trkpt lat="45.8894" lon="6.79696">
        <ele>1011</ele>
        <time>2022-07-16T05:27:44.797Z</time>
      </trkpt>
      <trkpt lat="45.88951" lon="6.79737">
        <ele>1012</ele>
        <time>2022-07-16T05:27:50.922Z</time>
      </trkpt>
      <trkpt lat="45.8896" lon="6.79756">
        <ele>1012</ele>
        <time>2022-07-16T05:27:53.166Z</time>
      </trkpt>
      <trkpt lat="45.88995" lon="6.79807">
        <ele>1012</ele>
        <time>2022-07-16T05:28:00.159Z</time>
      </trkpt>
      <trkpt lat="45.89036" lon="6.79847">
        <ele>1011</ele>
        <time>2022-07-16T05:28:05.605Z</time>
      </trkpt>
      <trkpt lat="45.89062" lon="6.79864">
        <ele>1010</ele>
        <time>2022-07-16T05:28:08.281Z</time>
      </trkpt>
      <trkpt lat="45.89093" lon="6.79879">
        <ele>1009</ele>
        <time>2022-07-16T05:28:11.486Z</time>
      </trkpt>
      <trkpt lat="45.89173" lon="6.79905">
        <ele>1007</ele>
        <time>2022-07-16T05:28:20.077Z</time>
      </trkpt>
      <trkpt lat="45.89183" lon="6.79911">
        <ele>1006</ele>
        <time>2022-07-16T05:28:20.919Z</time>
      </trkpt>
      <trkpt lat="45.89193" lon="6.79921">
        <ele>1005</ele>
        <time>2022-07-16T05:28:21.865Z</time>
      </trkpt>
      <trkpt lat="45.89218" lon="6.79963">
        <ele>1004</ele>
        <time>2022-07-16T05:28:25.823Z</time>
      </trkpt>
      <trkpt lat="45.89232" lon="6.79982">
        <ele>1004</ele>
        <time>2022-07-16T05:28:28.525Z</time>
      </trkpt>
      <trkpt lat="45.89306" lon="6.80046">
        <ele>999</ele>
        <time>2022-07-16T05:28:35.110Z</time>
      </trkpt>
      <trkpt lat="45.89372" lon="6.80111">
        <ele>999</ele>
        <time>2022-07-16T05:28:46.335Z</time>
      </trkpt>
      <trkpt lat="45.89417" lon="6.80159">
        <ele>998</ele>
        <time>2022-07-16T05:28:52.667Z</time>
      </trkpt>
      <trkpt lat="45.89458" lon="6.80225">
        <ele>996</ele>
        <time>2022-07-16T05:28:58.582Z</time>
      </trkpt>
      <trkpt lat="45.89483" lon="6.80278">
        <ele>996</ele>
        <time>2022-07-16T05:29:04.833Z</time>
      </trkpt>
      <trkpt lat="45.89541" lon="6.80418">
        <ele>998</ele>
        <time>2022-07-16T05:29:23.804Z</time>
      </trkpt>
      <trkpt lat="45.89559" lon="6.80468">
        <ele>996</ele>
        <time>2022-07-16T05:29:26.967Z</time>
      </trkpt>
      <trkpt lat="45.8956" lon="6.80479">
        <ele>996</ele>
        <time>2022-07-16T05:29:28.050Z</time>
      </trkpt>
      <trkpt lat="45.89565" lon="6.8048">
        <ele>996</ele>
        <time>2022-07-16T05:29:28.758Z</time>
      </trkpt>
      <trkpt lat="45.89571" lon="6.80515">
        <ele>995</ele>
        <time>2022-07-16T05:29:30.999Z</time>
      </trkpt>
      <trkpt lat="45.89579" lon="6.80595">
        <ele>996</ele>
        <time>2022-07-16T05:29:40.424Z</time>
      </trkpt>
      <trkpt lat="45.89599" lon="6.80913">
        <ele>1000</ele>
        <time>2022-07-16T05:30:17.751Z</time>
      </trkpt>
      <trkpt lat="45.89609" lon="6.80961">
        <ele>1001</ele>
        <time>2022-07-16T05:30:24.385Z</time>
      </trkpt>
      <trkpt lat="45.8963" lon="6.81021">
        <ele>1002</ele>
        <time>2022-07-16T05:30:32.540Z</time>
      </trkpt>
      <trkpt lat="45.8964" lon="6.81043">
        <ele>1001</ele>
        <time>2022-07-16T05:30:33.971Z</time>
      </trkpt>
      <trkpt lat="45.89677" lon="6.81107">
        <ele>999</ele>
        <time>2022-07-16T05:30:39.419Z</time>
      </trkpt>
      <trkpt lat="45.89699" lon="6.81172">
        <ele>1000</ele>
        <time>2022-07-16T05:30:48.046Z</time>
      </trkpt>
      <trkpt lat="45.89706" lon="6.81218">
        <ele>1002</ele>
        <time>2022-07-16T05:30:56.711Z</time>
      </trkpt>
      <trkpt lat="45.89708" lon="6.81264">
        <ele>1003</ele>
        <time>2022-07-16T05:31:03.009Z</time>
      </trkpt>
      <trkpt lat="45.89701" lon="6.8138">
        <ele>1005</ele>
        <time>2022-07-16T05:31:17.696Z</time>
      </trkpt>
      <trkpt lat="45.89704" lon="6.81446">
        <ele>1005</ele>
        <time>2022-07-16T05:31:24.153Z</time>
      </trkpt>
      <trkpt lat="45.89722" lon="6.81606">
        <ele>1004</ele>
        <time>2022-07-16T05:31:38.441Z</time>
      </trkpt>
      <trkpt lat="45.89739" lon="6.81657">
        <ele>1004</ele>
        <time>2022-07-16T05:31:43.962Z</time>
      </trkpt>
      <trkpt lat="45.89756" lon="6.8172">
        <ele>1002</ele>
        <time>2022-07-16T05:31:48.058Z</time>
      </trkpt>
      <trkpt lat="45.89735" lon="6.81836">
        <ele>1005</ele>
        <time>2022-07-16T05:32:05.508Z</time>
      </trkpt>
      <trkpt lat="45.89728" lon="6.81893">
        <ele>1006</ele>
        <time>2022-07-16T05:32:12.821Z</time>
      </trkpt>
      <trkpt lat="45.89726" lon="6.81948">
        <ele>1006</ele>
        <time>2022-07-16T05:32:18.198Z</time>
      </trkpt>
      <trkpt lat="45.89714" lon="6.81984">
        <ele>1006</ele>
        <time>2022-07-16T05:32:22.095Z</time>
      </trkpt>
      <trkpt lat="45.89712" lon="6.82003">
        <ele>1006</ele>
        <time>2022-07-16T05:32:23.971Z</time>
      </trkpt>
      <trkpt lat="45.89711" lon="6.82056">
        <ele>1005</ele>
        <time>2022-07-16T05:32:27.722Z</time>
      </trkpt>
      <trkpt lat="45.89722" lon="6.82136">
        <ele>1005</ele>
        <time>2022-07-16T05:32:35.683Z</time>
      </trkpt>
      <trkpt lat="45.89718" lon="6.82137">
        <ele>1006</ele>
        <time>2022-07-16T05:32:37.880Z</time>
      </trkpt>
      <trkpt lat="45.8971" lon="6.82147">
        <ele>1006</ele>
        <time>2022-07-16T05:32:39.367Z</time>
      </trkpt>
      <trkpt lat="45.89711" lon="6.82165">
        <ele>1007</ele>
        <time>2022-07-16T05:32:43.191Z</time>
      </trkpt>
      <trkpt lat="45.89714" lon="6.82171">
        <ele>1007</ele>
        <time>2022-07-16T05:32:43.912Z</time>
      </trkpt>
      <trkpt lat="45.89722" lon="6.82175">
        <ele>1006</ele>
        <time>2022-07-16T05:32:44.570Z</time>
      </trkpt>
      <trkpt lat="45.8973" lon="6.82172">
        <ele>1006</ele>
        <time>2022-07-16T05:32:45.730Z</time>
      </trkpt>
      <trkpt lat="45.89734" lon="6.82166">
        <ele>1005</ele>
        <time>2022-07-16T05:32:46.179Z</time>
      </trkpt>
      <trkpt lat="45.89743" lon="6.82181">
        <ele>1005</ele>
        <time>2022-07-16T05:32:48.112Z</time>
      </trkpt>
      <trkpt lat="45.8977" lon="6.82267">
        <ele>1005</ele>
        <time>2022-07-16T05:32:57.323Z</time>
      </trkpt>
      <trkpt lat="45.89848" lon="6.82479">
        <ele>1006</ele>
        <time>2022-07-16T05:33:22.093Z</time>
      </trkpt>
      <trkpt lat="45.89916" lon="6.82596">
        <ele>1006</ele>
        <time>2022-07-16T05:33:36.974Z</time>
      </trkpt>
      <trkpt lat="45.89977" lon="6.82737">
        <ele>1008</ele>
        <time>2022-07-16T05:33:56.235Z</time>
      </trkpt>
      <trkpt lat="45.90013" lon="6.82805">
        <ele>1006</ele>
        <time>2022-07-16T05:34:01.881Z</time>
      </trkpt>
      <trkpt lat="45.90032" lon="6.82833">
        <ele>1005</ele>
        <time>2022-07-16T05:34:04.386Z</time>
      </trkpt>
      <trkpt lat="45.90055" lon="6.82858">
        <ele>1005</ele>
        <time>2022-07-16T05:34:08.431Z</time>
      </trkpt>
      <trkpt lat="45.9008" lon="6.82877">
        <ele>1005</ele>
        <time>2022-07-16T05:34:12.399Z</time>
      </trkpt>
      <trkpt lat="45.90155" lon="6.82922">
        <ele>1005</ele>
        <time>2022-07-16T05:34:23.800Z</time>
      </trkpt>
      <trkpt lat="45.90179" lon="6.8294">
        <ele>1006</ele>
        <time>2022-07-16T05:34:29.539Z</time>
      </trkpt>
      <trkpt lat="45.90198" lon="6.82958">
        <ele>1006</ele>
        <time>2022-07-16T05:34:32.731Z</time>
      </trkpt>
      <trkpt lat="45.90211" lon="6.82977">
        <ele>1006</ele>
        <time>2022-07-16T05:34:35.332Z</time>
      </trkpt>
      <trkpt lat="45.90248" lon="6.8306">
        <ele>1006</ele>
        <time>2022-07-16T05:34:44.954Z</time>
      </trkpt>
      <trkpt lat="45.90396" lon="6.83419">
        <ele>1007</ele>
        <time>2022-07-16T05:35:27.013Z</time>
      </trkpt>
      <trkpt lat="45.90409" lon="6.83457">
        <ele>1008</ele>
        <time>2022-07-16T05:35:33.011Z</time>
      </trkpt>
      <trkpt lat="45.90404" lon="6.83464">
        <ele>1009</ele>
        <time>2022-07-16T05:35:36.788Z</time>
      </trkpt>
      <trkpt lat="45.90405" lon="6.83473">
        <ele>1009</ele>
        <time>2022-07-16T05:35:37.677Z</time>
      </trkpt>
      <trkpt lat="45.90411" lon="6.83478">
        <ele>1009</ele>
        <time>2022-07-16T05:35:38.650Z</time>
      </trkpt>
      <trkpt lat="45.90417" lon="6.83473">
        <ele>1009</ele>
        <time>2022-07-16T05:35:39.623Z</time>
      </trkpt>
      <trkpt lat="45.90468" lon="6.83563">
        <ele>1012</ele>
        <time>2022-07-16T05:35:56.795Z</time>
      </trkpt>
      <trkpt lat="45.90484" lon="6.83608">
        <ele>1012</ele>
        <time>2022-07-16T05:36:01.728Z</time>
      </trkpt>
      <trkpt lat="45.90543" lon="6.83741">
        <ele>1014</ele>
        <time>2022-07-16T05:36:20.208Z</time>
      </trkpt>
      <trkpt lat="45.90619" lon="6.83898">
        <ele>1016</ele>
        <time>2022-07-16T05:36:41.857Z</time>
      </trkpt>
      <trkpt lat="45.90872" lon="6.84307">
        <ele>1021</ele>
        <time>2022-07-16T05:37:42.575Z</time>
      </trkpt>
      <trkpt lat="45.90898" lon="6.84343">
        <ele>1019</ele>
        <time>2022-07-16T05:37:45.385Z</time>
      </trkpt>
      <trkpt lat="45.90912" lon="6.84353">
        <ele>1018</ele>
        <time>2022-07-16T05:37:46.521Z</time>
      </trkpt>
      <trkpt lat="45.90926" lon="6.84358">
        <ele>1019</ele>
        <time>2022-07-16T05:37:50.572Z</time>
      </trkpt>
      <trkpt lat="45.90939" lon="6.84357">
        <ele>1020</ele>
        <time>2022-07-16T05:37:54.446Z</time>
      </trkpt>
      <trkpt lat="45.90971" lon="6.84346">
        <ele>1023</ele>
        <time>2022-07-16T05:38:05.498Z</time>
      </trkpt>
      <trkpt lat="45.90981" lon="6.84345">
        <ele>1024</ele>
        <time>2022-07-16T05:38:09.146Z</time>
      </trkpt>
      <trkpt lat="45.90994" lon="6.84352">
        <ele>1025</ele>
        <time>2022-07-16T05:38:13.126Z</time>
      </trkpt>
      <trkpt lat="45.91007" lon="6.84367">
        <ele>1025</ele>
        <time>2022-07-16T05:38:15.465Z</time>
      </trkpt>
      <trkpt lat="45.91032" lon="6.84405">
        <ele>1026</ele>
        <time>2022-07-16T05:38:22.286Z</time>
      </trkpt>
      <trkpt lat="45.91046" lon="6.84419">
        <ele>1027</ele>
        <time>2022-07-16T05:38:26.720Z</time>
      </trkpt>
      <trkpt lat="45.91084" lon="6.84439">
        <ele>1031</ele>
        <time>2022-07-16T05:38:41.318Z</time>
      </trkpt>
      <trkpt lat="45.91097" lon="6.84451">
        <ele>1031</ele>
        <time>2022-07-16T05:38:43.485Z</time>
      </trkpt>
      <trkpt lat="45.91133" lon="6.8451">
        <ele>1030</ele>
        <time>2022-07-16T05:38:49.620Z</time>
      </trkpt>
      <trkpt lat="45.91169" lon="6.84554">
        <ele>1025</ele>
        <time>2022-07-16T05:38:53.291Z</time>
      </trkpt>
      <trkpt lat="45.91546" lon="6.84902">
        <ele>1034</ele>
        <time>2022-07-16T05:40:10.314Z</time>
      </trkpt>
      <trkpt lat="45.9156" lon="6.8492">
        <ele>1035</ele>
        <time>2022-07-16T05:40:15.021Z</time>
      </trkpt>
      <trkpt lat="45.9157" lon="6.84939">
        <ele>1034</ele>
        <time>2022-07-16T05:40:16.260Z</time>
      </trkpt>
      <trkpt lat="45.91581" lon="6.84967">
        <ele>1031</ele>
        <time>2022-07-16T05:40:17.998Z</time>
      </trkpt>
      <trkpt lat="45.91592" lon="6.85014">
        <ele>1028</ele>
        <time>2022-07-16T05:40:20.678Z</time>
      </trkpt>
      <trkpt lat="45.91599" lon="6.85007">
        <ele>1030</ele>
        <time>2022-07-16T05:40:25.292Z</time>
      </trkpt>
      <trkpt lat="45.91602" lon="6.85008">
        <ele>1031</ele>
        <time>2022-07-16T05:40:26.959Z</time>
      </trkpt>
      <trkpt lat="45.91638" lon="6.85097">
        <ele>1027</ele>
        <time>2022-07-16T05:40:32.512Z</time>
      </trkpt>
      <trkpt lat="45.91642" lon="6.85113">
        <ele>1029</ele>
        <time>2022-07-16T05:40:38.912Z</time>
      </trkpt>
      <trkpt lat="45.91657" lon="6.85238">
        <ele>1039</ele>
        <time>2022-07-16T05:41:15.904Z</time>
      </trkpt>
      <trkpt lat="45.91673" lon="6.85343">
        <ele>1039</ele>
        <time>2022-07-16T05:41:26.394Z</time>
      </trkpt>
      <trkpt lat="45.91701" lon="6.85481">
        <ele>1043</ele>
        <time>2022-07-16T05:41:48.534Z</time>
      </trkpt>
      <trkpt lat="45.9171" lon="6.85548">
        <ele>1046</ele>
        <time>2022-07-16T05:42:01.280Z</time>
      </trkpt>
      <trkpt lat="45.91741" lon="6.85733">
        <ele>1048</ele>
        <time>2022-07-16T05:42:22.833Z</time>
      </trkpt>
      <trkpt lat="45.91777" lon="6.85922">
        <ele>1045</ele>
        <time>2022-07-16T05:42:37.501Z</time>
      </trkpt>
      <trkpt lat="45.91821" lon="6.86244">
        <ele>1042</ele>
        <time>2022-07-16T05:43:04.842Z</time>
      </trkpt>
      <trkpt lat="45.91842" lon="6.86342">
        <ele>1039</ele>
        <time>2022-07-16T05:43:11.084Z</time>
      </trkpt>
      <trkpt lat="45.91863" lon="6.86399">
        <ele>1038</ele>
        <time>2022-07-16T05:43:15.897Z</time>
      </trkpt>
      <trkpt lat="45.91906" lon="6.86486">
        <ele>1038</ele>
        <time>2022-07-16T05:43:26.311Z</time>
      </trkpt>
      <trkpt lat="45.91907" lon="6.86498">
        <ele>1037</ele>
        <time>2022-07-16T05:43:26.964Z</time>
      </trkpt>
      <trkpt lat="45.91898" lon="6.86508">
        <ele>1036</ele>
        <time>2022-07-16T05:43:27.848Z</time>
      </trkpt>
      <trkpt lat="45.91903" lon="6.86513">
        <ele>1037</ele>
        <time>2022-07-16T05:43:31.144Z</time>
      </trkpt>
      <trkpt lat="45.91905" lon="6.86525">
        <ele>1036</ele>
        <time>2022-07-16T05:43:31.811Z</time>
      </trkpt>
      <trkpt lat="45.91902" lon="6.86534">
        <ele>1036</ele>
        <time>2022-07-16T05:43:32.785Z</time>
      </trkpt>
      <trkpt lat="45.91905" lon="6.86546">
        <ele>1036</ele>
        <time>2022-07-16T05:43:34.029Z</time>
      </trkpt>
      <trkpt lat="45.91927" lon="6.86553">
        <ele>1037</ele>
        <time>2022-07-16T05:43:39.355Z</time>
      </trkpt>
      <trkpt lat="45.91948" lon="6.86552">
        <ele>1039</ele>
        <time>2022-07-16T05:43:46.676Z</time>
      </trkpt>
      <trkpt lat="45.91991" lon="6.86556">
        <ele>1043</ele>
        <time>2022-07-16T05:44:01.368Z</time>
      </trkpt>
      <trkpt lat="45.92017" lon="6.86564">
        <ele>1044</ele>
        <time>2022-07-16T05:44:07.058Z</time>
      </trkpt>
      <trkpt lat="45.92039" lon="6.8658">
        <ele>1045</ele>
        <time>2022-07-16T05:44:12.561Z</time>
      </trkpt>
      <trkpt lat="45.92066" lon="6.86607">
        <ele>1045</ele>
        <time>2022-07-16T05:44:17.175Z</time>
      </trkpt>
      <trkpt lat="45.92077" lon="6.8662">
        <ele>1045</ele>
        <time>2022-07-16T05:44:19.172Z</time>
      </trkpt>
      <trkpt lat="45.92091" lon="6.86647">
        <ele>1045</ele>
        <time>2022-07-16T05:44:22.459Z</time>
      </trkpt>
      <trkpt lat="45.92107" lon="6.86665">
        <ele>1046</ele>
        <time>2022-07-16T05:44:27.417Z</time>
      </trkpt>
      <trkpt lat="45.92131" lon="6.86681">
        <ele>1049</ele>
        <time>2022-07-16T05:44:38.516Z</time>
      </trkpt>
      <trkpt lat="45.9221" lon="6.86721">
        <ele>1049</ele>
        <time>2022-07-16T05:44:50.266Z</time>
      </trkpt>
      <trkpt lat="45.92239" lon="6.86732">
        <ele>1048</ele>
        <time>2022-07-16T05:44:53.122Z</time>
      </trkpt>
      <trkpt lat="45.92291" lon="6.86732">
        <ele>1049</ele>
        <time>2022-07-16T05:45:01.976Z</time>
      </trkpt>
      <trkpt lat="45.92299" lon="6.86735">
        <ele>1049</ele>
        <time>2022-07-16T05:45:03.136Z</time>
      </trkpt>
      <trkpt lat="45.92325" lon="6.86754">
        <ele>1048</ele>
        <time>2022-07-16T05:45:05.887Z</time>
      </trkpt>
      <trkpt lat="45.92343" lon="6.86761">
        <ele>1048</ele>
        <time>2022-07-16T05:45:08.502Z</time>
      </trkpt>
      <trkpt lat="45.92351" lon="6.86761">
        <ele>1048</ele>
        <time>2022-07-16T05:45:09.625Z</time>
      </trkpt>
      <trkpt lat="45.92356" lon="6.86768">
        <ele>1048</ele>
        <time>2022-07-16T05:45:10.604Z</time>
      </trkpt>
      <trkpt lat="45.92363" lon="6.86767">
        <ele>1048</ele>
        <time>2022-07-16T05:45:11.590Z</time>
      </trkpt>
      <trkpt lat="45.92366" lon="6.8676">
        <ele>1048</ele>
        <time>2022-07-16T05:45:12.393Z</time>
      </trkpt>
      <trkpt lat="45.92379" lon="6.8676">
        <ele>1048</ele>
        <time>2022-07-16T05:45:14.216Z</time>
      </trkpt>
      <trkpt lat="45.92417" lon="6.86772">
        <ele>1049</ele>
        <time>2022-07-16T05:45:21.354Z</time>
      </trkpt>
      <trkpt lat="45.9253" lon="6.86817">
        <ele>1049</ele>
        <time>2022-07-16T05:45:37.803Z</time>
      </trkpt>
      <trkpt lat="45.92545" lon="6.86829">
        <ele>1048</ele>
        <time>2022-07-16T05:45:39.108Z</time>
      </trkpt>
      <trkpt lat="45.92549" lon="6.86836">
        <ele>1047</ele>
        <time>2022-07-16T05:45:39.597Z</time>
      </trkpt>
      <trkpt lat="45.92552" lon="6.86851">
        <ele>1047</ele>
        <time>2022-07-16T05:45:41.120Z</time>
      </trkpt>
      <trkpt lat="45.92527" lon="6.86981">
        <ele>1044</ele>
        <time>2022-07-16T05:45:50.180Z</time>
      </trkpt>
      <trkpt lat="45.92638" lon="6.87015">
        <ele>1042</ele>
        <time>2022-07-16T05:46:03.037Z</time>
      </trkpt>
      <trkpt lat="45.92787" lon="6.87026">
        <ele>1049</ele>
        <time>2022-07-16T05:46:38.908Z</time>
      </trkpt>
      <trkpt lat="45.92812" lon="6.87033">
        <ele>1049</ele>
        <time>2022-07-16T05:46:42.481Z</time>
      </trkpt>
      <trkpt lat="45.92825" lon="6.8704">
        <ele>1049</ele>
        <time>2022-07-16T05:46:44.428Z</time>
      </trkpt>
      <trkpt lat="45.92846" lon="6.87047">
        <ele>1049</ele>
        <time>2022-07-16T05:46:47.452Z</time>
      </trkpt>
      <trkpt lat="45.9287" lon="6.87064">
        <ele>1049</ele>
        <time>2022-07-16T05:46:51.205Z</time>
      </trkpt>
      <trkpt lat="45.92913" lon="6.87082">
        <ele>1049</ele>
        <time>2022-07-16T05:46:57.487Z</time>
      </trkpt>
      <trkpt lat="45.92935" lon="6.87088">
        <ele>1051</ele>
        <time>2022-07-16T05:47:04.886Z</time>
      </trkpt>
      <trkpt lat="45.92958" lon="6.87101">
        <ele>1052</ele>
        <time>2022-07-16T05:47:10.394Z</time>
      </trkpt>
      <trkpt lat="45.92972" lon="6.87115">
        <ele>1053</ele>
        <time>2022-07-16T05:47:14.828Z</time>
      </trkpt>
      <trkpt lat="45.93068" lon="6.87257">
        <ele>1052</ele>
        <time>2022-07-16T05:47:32.661Z</time>
      </trkpt>
      <trkpt lat="45.93097" lon="6.87282">
        <ele>1053</ele>
        <time>2022-07-16T05:47:39.166Z</time>
      </trkpt>
      <trkpt lat="45.93178" lon="6.87335">
        <ele>1058</ele>
        <time>2022-07-16T05:48:01.916Z</time>
      </trkpt>
      <trkpt lat="45.93212" lon="6.8736">
        <ele>1058</ele>
        <time>2022-07-16T05:48:07.273Z</time>
      </trkpt>
      <trkpt lat="45.93285" lon="6.87433">
        <ele>1054</ele>
        <time>2022-07-16T05:48:14.847Z</time>
      </trkpt>
      <trkpt lat="45.93368" lon="6.87559">
        <ele>1054</ele>
        <time>2022-07-16T05:48:31.778Z</time>
      </trkpt>
      <trkpt lat="45.93404" lon="6.87606">
        <ele>1055</ele>
        <time>2022-07-16T05:48:40.182Z</time>
      </trkpt>
      <trkpt lat="45.93436" lon="6.8763">
        <ele>1057</ele>
        <time>2022-07-16T05:48:49.361Z</time>
      </trkpt>
      <trkpt lat="45.93634" lon="6.87733">
        <ele>1058</ele>
        <time>2022-07-16T05:49:20.241Z</time>
      </trkpt>
      <trkpt lat="45.93695" lon="6.87767">
        <ele>1059</ele>
        <time>2022-07-16T05:49:30.912Z</time>
      </trkpt>
      <trkpt lat="45.93715" lon="6.87782">
        <ele>1060</ele>
        <time>2022-07-16T05:49:36.239Z</time>
      </trkpt>
      <trkpt lat="45.93727" lon="6.87795">
        <ele>1060</ele>
        <time>2022-07-16T05:49:38.347Z</time>
      </trkpt>
      <trkpt lat="45.9378" lon="6.8786">
        <ele>1061</ele>
        <time>2022-07-16T05:49:49.598Z</time>
      </trkpt>
      <trkpt lat="45.93821" lon="6.87905">
        <ele>1062</ele>
        <time>2022-07-16T05:49:58.396Z</time>
      </trkpt>
      <trkpt lat="45.93856" lon="6.87932">
        <ele>1064</ele>
        <time>2022-07-16T05:50:08.160Z</time>
      </trkpt>
      <trkpt lat="45.93949" lon="6.8799">
        <ele>1065</ele>
        <time>2022-07-16T05:50:23.793Z</time>
      </trkpt>
      <trkpt lat="45.93968" lon="6.88011">
        <ele>1064</ele>
        <time>2022-07-16T05:50:25.896Z</time>
      </trkpt>
      <trkpt lat="45.93986" lon="6.88039">
        <ele>1063</ele>
        <time>2022-07-16T05:50:28.314Z</time>
      </trkpt>
      <trkpt lat="45.94" lon="6.8808">
        <ele>1060</ele>
        <time>2022-07-16T05:50:30.782Z</time>
      </trkpt>
      <trkpt lat="45.93998" lon="6.88102">
        <ele>1060</ele>
        <time>2022-07-16T05:50:32.946Z</time>
      </trkpt>
      <trkpt lat="45.93985" lon="6.88156">
        <ele>1060</ele>
        <time>2022-07-16T05:50:38.521Z</time>
      </trkpt>
      <trkpt lat="45.93982" lon="6.88183">
        <ele>1061</ele>
        <time>2022-07-16T05:50:43.265Z</time>
      </trkpt>
      <trkpt lat="45.9398" lon="6.88206">
        <ele>1062</ele>
        <time>2022-07-16T05:50:47.557Z</time>
      </trkpt>
      <trkpt lat="45.93981" lon="6.88252">
        <ele>1063</ele>
        <time>2022-07-16T05:50:53.847Z</time>
      </trkpt>
      <trkpt lat="45.94024" lon="6.88579">
        <ele>1063</ele>
        <time>2022-07-16T05:51:26.311Z</time>
      </trkpt>
      <trkpt lat="45.94038" lon="6.88619">
        <ele>1063</ele>
        <time>2022-07-16T05:51:30.679Z</time>
      </trkpt>
      <trkpt lat="45.94057" lon="6.88647">
        <ele>1063</ele>
        <time>2022-07-16T05:51:34.495Z</time>
      </trkpt>
      <trkpt lat="45.94113" lon="6.88716">
        <ele>1065</ele>
        <time>2022-07-16T05:51:48.259Z</time>
      </trkpt>
      <trkpt lat="45.94117" lon="6.88729">
        <ele>1065</ele>
        <time>2022-07-16T05:51:49.646Z</time>
      </trkpt>
      <trkpt lat="45.94116" lon="6.88742">
        <ele>1065</ele>
        <time>2022-07-16T05:51:50.922Z</time>
      </trkpt>
      <trkpt lat="45.94127" lon="6.88745">
        <ele>1065</ele>
        <time>2022-07-16T05:51:52.492Z</time>
      </trkpt>
      <trkpt lat="45.94142" lon="6.88754">
        <ele>1066</ele>
        <time>2022-07-16T05:51:56.805Z</time>
      </trkpt>
      <trkpt lat="45.9416" lon="6.88771">
        <ele>1066</ele>
        <time>2022-07-16T05:51:59.825Z</time>
      </trkpt>
      <trkpt lat="45.94185" lon="6.88802">
        <ele>1066</ele>
        <time>2022-07-16T05:52:04.456Z</time>
      </trkpt>
      <trkpt lat="45.94361" lon="6.89038">
        <ele>1072</ele>
        <time>2022-07-16T05:52:48.203Z</time>
      </trkpt>
      <trkpt lat="45.94927" lon="6.89779">
        <ele>1082</ele>
        <time>2022-07-16T05:54:50.166Z</time>
      </trkpt>
      <trkpt lat="45.94958" lon="6.89814">
        <ele>1084</ele>
        <time>2022-07-16T05:54:59.880Z</time>
      </trkpt>
      <trkpt lat="45.94965" lon="6.89819">
        <ele>1084</ele>
        <time>2022-07-16T05:55:00.976Z</time>
      </trkpt>
      <trkpt lat="45.94981" lon="6.89827">
        <ele>1085</ele>
        <time>2022-07-16T05:55:05.393Z</time>
      </trkpt>
      <trkpt lat="45.95017" lon="6.89839">
        <ele>1085</ele>
        <time>2022-07-16T05:55:10.576Z</time>
      </trkpt>
      <trkpt lat="45.95023" lon="6.89851">
        <ele>1086</ele>
        <time>2022-07-16T05:55:14.229Z</time>
      </trkpt>
      <trkpt lat="45.95029" lon="6.89872">
        <ele>1087</ele>
        <time>2022-07-16T05:55:18.472Z</time>
      </trkpt>
      <trkpt lat="45.95034" lon="6.89908">
        <ele>1088</ele>
        <time>2022-07-16T05:55:24.057Z</time>
      </trkpt>
      <trkpt lat="45.95048" lon="6.89942">
        <ele>1090</ele>
        <time>2022-07-16T05:55:31.979Z</time>
      </trkpt>
      <trkpt lat="45.95057" lon="6.89948">
        <ele>1090</ele>
        <time>2022-07-16T05:55:33.371Z</time>
      </trkpt>
      <trkpt lat="45.95266" lon="6.90218">
        <ele>1115</ele>
        <time>2022-07-16T05:57:05.921Z</time>
      </trkpt>
      <trkpt lat="45.95286" lon="6.90233">
        <ele>1120</ele>
        <time>2022-07-16T05:57:18.125Z</time>
      </trkpt>
      <trkpt lat="45.95312" lon="6.90244">
        <ele>1122</ele>
        <time>2022-07-16T05:57:26.000Z</time>
      </trkpt>
      <trkpt lat="45.95366" lon="6.90252">
        <ele>1123</ele>
        <time>2022-07-16T05:57:35.161Z</time>
      </trkpt>
      <trkpt lat="45.95418" lon="6.90255">
        <ele>1123</ele>
        <time>2022-07-16T05:57:42.461Z</time>
      </trkpt>
      <trkpt lat="45.95439" lon="6.9026">
        <ele>1124</ele>
        <time>2022-07-16T05:57:47.581Z</time>
      </trkpt>
      <trkpt lat="45.95492" lon="6.90289">
        <ele>1137</ele>
        <time>2022-07-16T05:58:18.262Z</time>
      </trkpt>
      <trkpt lat="45.95507" lon="6.90296">
        <ele>1139</ele>
        <time>2022-07-16T05:58:26.051Z</time>
      </trkpt>
      <trkpt lat="45.95522" lon="6.90299">
        <ele>1140</ele>
        <time>2022-07-16T05:58:30.201Z</time>
      </trkpt>
      <trkpt lat="45.95548" lon="6.90301">
        <ele>1139</ele>
        <time>2022-07-16T05:58:32.560Z</time>
      </trkpt>
      <trkpt lat="45.95581" lon="6.90297">
        <ele>1136</ele>
        <time>2022-07-16T05:58:35.133Z</time>
      </trkpt>
      <trkpt lat="45.95643" lon="6.90279">
        <ele>1137</ele>
        <time>2022-07-16T05:58:45.508Z</time>
      </trkpt>
      <trkpt lat="45.95655" lon="6.90281">
        <ele>1140</ele>
        <time>2022-07-16T05:58:52.044Z</time>
      </trkpt>
      <trkpt lat="45.9567" lon="6.9029">
        <ele>1145</ele>
        <time>2022-07-16T05:59:00.838Z</time>
      </trkpt>
      <trkpt lat="45.95693" lon="6.90298">
        <ele>1149</ele>
        <time>2022-07-16T05:59:13.641Z</time>
      </trkpt>
      <trkpt lat="45.95731" lon="6.90293">
        <ele>1150</ele>
        <time>2022-07-16T05:59:20.684Z</time>
      </trkpt>
      <trkpt lat="45.9574" lon="6.90289">
        <ele>1149</ele>
        <time>2022-07-16T05:59:21.416Z</time>
      </trkpt>
      <trkpt lat="45.95754" lon="6.90289">
        <ele>1150</ele>
        <time>2022-07-16T05:59:25.411Z</time>
      </trkpt>
      <trkpt lat="45.9576" lon="6.9029">
        <ele>1151</ele>
        <time>2022-07-16T05:59:28.679Z</time>
      </trkpt>
      <trkpt lat="45.95776" lon="6.90301">
        <ele>1154</ele>
        <time>2022-07-16T05:59:38.274Z</time>
      </trkpt>
      <trkpt lat="45.95802" lon="6.90326">
        <ele>1156</ele>
        <time>2022-07-16T05:59:46.717Z</time>
      </trkpt>
      <trkpt lat="45.95814" lon="6.90328">
        <ele>1155</ele>
        <time>2022-07-16T05:59:47.655Z</time>
      </trkpt>
      <trkpt lat="45.95839" lon="6.90324">
        <ele>1153</ele>
        <time>2022-07-16T05:59:49.610Z</time>
      </trkpt>
      <trkpt lat="45.95851" lon="6.90327">
        <ele>1154</ele>
        <time>2022-07-16T05:59:53.393Z</time>
      </trkpt>
      <trkpt lat="45.95859" lon="6.90333">
        <ele>1154</ele>
        <time>2022-07-16T05:59:54.659Z</time>
      </trkpt>
      <trkpt lat="45.95881" lon="6.90361">
        <ele>1159</ele>
        <time>2022-07-16T06:00:10.552Z</time>
      </trkpt>
      <trkpt lat="45.95895" lon="6.90392">
        <ele>1160</ele>
        <time>2022-07-16T06:00:16.154Z</time>
      </trkpt>
      <trkpt lat="45.95915" lon="6.90454">
        <ele>1158</ele>
        <time>2022-07-16T06:00:20.310Z</time>
      </trkpt>
      <trkpt lat="45.95932" lon="6.90557">
        <ele>1162</ele>
        <time>2022-07-16T06:00:38.891Z</time>
      </trkpt>
      <trkpt lat="45.95958" lon="6.90635">
        <ele>1166</ele>
        <time>2022-07-16T06:00:55.430Z</time>
      </trkpt>
      <trkpt lat="45.95985" lon="6.90697">
        <ele>1169</ele>
        <time>2022-07-16T06:01:08.686Z</time>
      </trkpt>
      <trkpt lat="45.96018" lon="6.90761">
        <ele>1175</ele>
        <time>2022-07-16T06:01:30.674Z</time>
      </trkpt>
      <trkpt lat="45.96033" lon="6.90782">
        <ele>1177</ele>
        <time>2022-07-16T06:01:37.993Z</time>
      </trkpt>
      <trkpt lat="45.96168" lon="6.90929">
        <ele>1184</ele>
        <time>2022-07-16T06:02:16.220Z</time>
      </trkpt>
      <trkpt lat="45.96177" lon="6.90938">
        <ele>1187</ele>
        <time>2022-07-16T06:02:22.150Z</time>
      </trkpt>
      <trkpt lat="45.96205" lon="6.90955">
        <ele>1191</ele>
        <time>2022-07-16T06:02:38.173Z</time>
      </trkpt>
      <trkpt lat="45.96235" lon="6.90982">
        <ele>1190</ele>
        <time>2022-07-16T06:02:41.726Z</time>
      </trkpt>
      <trkpt lat="45.96252" lon="6.91001">
        <ele>1187</ele>
        <time>2022-07-16T06:02:43.399Z</time>
      </trkpt>
      <trkpt lat="45.96288" lon="6.91061">
        <ele>1193</ele>
        <time>2022-07-16T06:03:05.406Z</time>
      </trkpt>
      <trkpt lat="45.96306" lon="6.91106">
        <ele>1195</ele>
        <time>2022-07-16T06:03:14.584Z</time>
      </trkpt>
      <trkpt lat="45.96318" lon="6.91128">
        <ele>1195</ele>
        <time>2022-07-16T06:03:17.310Z</time>
      </trkpt>
      <trkpt lat="45.96335" lon="6.91148">
        <ele>1193</ele>
        <time>2022-07-16T06:03:19.017Z</time>
      </trkpt>
      <trkpt lat="45.96367" lon="6.91176">
        <ele>1193</ele>
        <time>2022-07-16T06:03:24.271Z</time>
      </trkpt>
      <trkpt lat="45.96403" lon="6.912">
        <ele>1189</ele>
        <time>2022-07-16T06:03:27.353Z</time>
      </trkpt>
      <trkpt lat="45.96443" lon="6.91232">
        <ele>1186</ele>
        <time>2022-07-16T06:03:30.639Z</time>
      </trkpt>
      <trkpt lat="45.96467" lon="6.91247">
        <ele>1183</ele>
        <time>2022-07-16T06:03:32.672Z</time>
      </trkpt>
      <trkpt lat="45.96518" lon="6.91269">
        <ele>1182</ele>
        <time>2022-07-16T06:03:38.620Z</time>
      </trkpt>
      <trkpt lat="45.96726" lon="6.91337">
        <ele>1185</ele>
        <time>2022-07-16T06:04:12.966Z</time>
      </trkpt>
      <trkpt lat="45.96765" lon="6.91354">
        <ele>1187</ele>
        <time>2022-07-16T06:04:22.902Z</time>
      </trkpt>
      <trkpt lat="45.96782" lon="6.91366">
        <ele>1188</ele>
        <time>2022-07-16T06:04:27.634Z</time>
      </trkpt>
      <trkpt lat="45.96797" lon="6.9138">
        <ele>1189</ele>
        <time>2022-07-16T06:04:32.196Z</time>
      </trkpt>
      <trkpt lat="45.96838" lon="6.91427">
        <ele>1191</ele>
        <time>2022-07-16T06:04:43.500Z</time>
      </trkpt>
      <trkpt lat="45.96901" lon="6.91508">
        <ele>1196</ele>
        <time>2022-07-16T06:05:05.550Z</time>
      </trkpt>
      <trkpt lat="45.96973" lon="6.91596">
        <ele>1200</ele>
        <time>2022-07-16T06:05:27.198Z</time>
      </trkpt>
      <trkpt lat="45.96992" lon="6.91616">
        <ele>1200</ele>
        <time>2022-07-16T06:05:30.501Z</time>
      </trkpt>
      <trkpt lat="45.97237" lon="6.91808">
        <ele>1205</ele>
        <time>2022-07-16T06:06:17.322Z</time>
      </trkpt>
      <trkpt lat="45.97267" lon="6.91844">
        <ele>1207</ele>
        <time>2022-07-16T06:06:26.979Z</time>
      </trkpt>
      <trkpt lat="45.9733" lon="6.91943">
        <ele>1214</ele>
        <time>2022-07-16T06:06:54.351Z</time>
      </trkpt>
      <trkpt lat="45.97368" lon="6.91981">
        <ele>1214</ele>
        <time>2022-07-16T06:07:00.843Z</time>
      </trkpt>
      <trkpt lat="45.97476" lon="6.92066">
        <ele>1216</ele>
        <time>2022-07-16T06:07:21.130Z</time>
      </trkpt>
      <trkpt lat="45.97534" lon="6.92108">
        <ele>1216</ele>
        <time>2022-07-16T06:07:30.238Z</time>
      </trkpt>
      <trkpt lat="45.97553" lon="6.92112">
        <ele>1215</ele>
        <time>2022-07-16T06:07:31.775Z</time>
      </trkpt>
      <trkpt lat="45.97572" lon="6.92108">
        <ele>1215</ele>
        <time>2022-07-16T06:07:34.468Z</time>
      </trkpt>
      <trkpt lat="45.97585" lon="6.92099">
        <ele>1214</ele>
        <time>2022-07-16T06:07:35.589Z</time>
      </trkpt>
      <trkpt lat="45.97603" lon="6.9208">
        <ele>1215</ele>
        <time>2022-07-16T06:07:40.884Z</time>
      </trkpt>
      <trkpt lat="45.9762" lon="6.92072">
        <ele>1217</ele>
        <time>2022-07-16T06:07:48.258Z</time>
      </trkpt>
      <trkpt lat="45.97637" lon="6.92074">
        <ele>1218</ele>
        <time>2022-07-16T06:07:52.693Z</time>
      </trkpt>
      <trkpt lat="45.97645" lon="6.92079">
        <ele>1218</ele>
        <time>2022-07-16T06:07:53.916Z</time>
      </trkpt>
      <trkpt lat="45.97766" lon="6.92196">
        <ele>1222</ele>
        <time>2022-07-16T06:08:21.231Z</time>
      </trkpt>
      <trkpt lat="45.97845" lon="6.92255">
        <ele>1223</ele>
        <time>2022-07-16T06:08:35.148Z</time>
      </trkpt>
      <trkpt lat="45.97916" lon="6.923">
        <ele>1230</ele>
        <time>2022-07-16T06:09:00.988Z</time>
      </trkpt>
      <trkpt lat="45.97953" lon="6.9232">
        <ele>1236</ele>
        <time>2022-07-16T06:09:22.374Z</time>
      </trkpt>
      <trkpt lat="45.97973" lon="6.92335">
        <ele>1237</ele>
        <time>2022-07-16T06:09:27.701Z</time>
      </trkpt>
      <trkpt lat="45.98142" lon="6.92529">
        <ele>1244</ele>
        <time>2022-07-16T06:10:10.813Z</time>
      </trkpt>
      <trkpt lat="45.98168" lon="6.92554">
        <ele>1246</ele>
        <time>2022-07-16T06:10:19.255Z</time>
      </trkpt>
      <trkpt lat="45.98209" lon="6.92587">
        <ele>1247</ele>
        <time>2022-07-16T06:10:27.441Z</time>
      </trkpt>
      <trkpt lat="45.98239" lon="6.92604">
        <ele>1249</ele>
        <time>2022-07-16T06:10:36.026Z</time>
      </trkpt>
      <trkpt lat="45.98389" lon="6.92675">
        <ele>1260</ele>
        <time>2022-07-16T06:11:20.485Z</time>
      </trkpt>
      <trkpt lat="45.9849" lon="6.92719">
        <ele>1269</ele>
        <time>2022-07-16T06:11:54.152Z</time>
      </trkpt>
      <trkpt lat="45.98495" lon="6.92725">
        <ele>1268</ele>
        <time>2022-07-16T06:11:54.658Z</time>
      </trkpt>
      <trkpt lat="45.9852" lon="6.92736">
        <ele>1270</ele>
        <time>2022-07-16T06:12:02.418Z</time>
      </trkpt>
      <trkpt lat="45.98557" lon="6.92757">
        <ele>1270</ele>
        <time>2022-07-16T06:12:07.997Z</time>
      </trkpt>
      <trkpt lat="45.98586" lon="6.92771">
        <ele>1272</ele>
        <time>2022-07-16T06:12:16.341Z</time>
      </trkpt>
      <trkpt lat="45.98594" lon="6.92772">
        <ele>1274</ele>
        <time>2022-07-16T06:12:20.686Z</time>
      </trkpt>
      <trkpt lat="45.98648" lon="6.928">
        <ele>1278</ele>
        <time>2022-07-16T06:12:36.849Z</time>
      </trkpt>
      <trkpt lat="45.98684" lon="6.92808">
        <ele>1284</ele>
        <time>2022-07-16T06:12:56.559Z</time>
      </trkpt>
      <trkpt lat="45.98798" lon="6.9286">
        <ele>1303</ele>
        <time>2022-07-16T06:14:01.264Z</time>
      </trkpt>
      <trkpt lat="45.9883" lon="6.92867">
        <ele>1308</ele>
        <time>2022-07-16T06:14:18.777Z</time>
      </trkpt>
      <trkpt lat="45.98893" lon="6.92873">
        <ele>1313</ele>
        <time>2022-07-16T06:14:37.926Z</time>
      </trkpt>
      <trkpt lat="45.98987" lon="6.92875">
        <ele>1313</ele>
        <time>2022-07-16T06:14:51.113Z</time>
      </trkpt>
      <trkpt lat="45.98996" lon="6.92879">
        <ele>1312</ele>
        <time>2022-07-16T06:14:51.845Z</time>
      </trkpt>
      <trkpt lat="45.99025" lon="6.92902">
        <ele>1312</ele>
        <time>2022-07-16T06:14:56.490Z</time>
      </trkpt>
      <trkpt lat="45.99041" lon="6.92903">
        <ele>1314</ele>
        <time>2022-07-16T06:15:04.202Z</time>
      </trkpt>
      <trkpt lat="45.99047" lon="6.92898">
        <ele>1316</ele>
        <time>2022-07-16T06:15:07.953Z</time>
      </trkpt>
      <trkpt lat="45.99054" lon="6.9288">
        <ele>1319</ele>
        <time>2022-07-16T06:15:15.708Z</time>
      </trkpt>
      <trkpt lat="45.99051" lon="6.92862">
        <ele>1320</ele>
        <time>2022-07-16T06:15:19.563Z</time>
      </trkpt>
      <trkpt lat="45.99041" lon="6.92848">
        <ele>1321</ele>
        <time>2022-07-16T06:15:23.552Z</time>
      </trkpt>
      <trkpt lat="45.98986" lon="6.92834">
        <ele>1319</ele>
        <time>2022-07-16T06:15:28.741Z</time>
      </trkpt>
      <trkpt lat="45.98977" lon="6.92828">
        <ele>1321</ele>
        <time>2022-07-16T06:15:34.107Z</time>
      </trkpt>
      <trkpt lat="45.98967" lon="6.92811">
        <ele>1326</ele>
        <time>2022-07-16T06:15:42.481Z</time>
      </trkpt>
      <trkpt lat="45.98968" lon="6.92788">
        <ele>1332</ele>
        <time>2022-07-16T06:15:51.144Z</time>
      </trkpt>
      <trkpt lat="45.98972" lon="6.9278">
        <ele>1334</ele>
        <time>2022-07-16T06:15:54.849Z</time>
      </trkpt>
      <trkpt lat="45.98977" lon="6.92773">
        <ele>1335</ele>
        <time>2022-07-16T06:15:58.623Z</time>
      </trkpt>
      <trkpt lat="45.98983" lon="6.9277">
        <ele>1335</ele>
        <time>2022-07-16T06:15:59.514Z</time>
      </trkpt>
      <trkpt lat="45.98997" lon="6.92771">
        <ele>1333</ele>
        <time>2022-07-16T06:16:00.603Z</time>
      </trkpt>
      <trkpt lat="45.99038" lon="6.92798">
        <ele>1330</ele>
        <time>2022-07-16T06:16:03.816Z</time>
      </trkpt>
      <trkpt lat="45.99095" lon="6.92814">
        <ele>1335</ele>
        <time>2022-07-16T06:16:22.473Z</time>
      </trkpt>
      <trkpt lat="45.99104" lon="6.92812">
        <ele>1339</ele>
        <time>2022-07-16T06:16:27.400Z</time>
      </trkpt>
      <trkpt lat="45.99114" lon="6.92802">
        <ele>1343</ele>
        <time>2022-07-16T06:16:33.988Z</time>
      </trkpt>
      <trkpt lat="45.99117" lon="6.92785">
        <ele>1346</ele>
        <time>2022-07-16T06:16:40.582Z</time>
      </trkpt>
      <trkpt lat="45.99112" lon="6.92769">
        <ele>1346</ele>
        <time>2022-07-16T06:16:42.292Z</time>
      </trkpt>
      <trkpt lat="45.99107" lon="6.92764">
        <ele>1345</ele>
        <time>2022-07-16T06:16:42.765Z</time>
      </trkpt>
      <trkpt lat="45.99098" lon="6.92762">
        <ele>1343</ele>
        <time>2022-07-16T06:16:43.472Z</time>
      </trkpt>
      <trkpt lat="45.99073" lon="6.92762">
        <ele>1339</ele>
        <time>2022-07-16T06:16:45.415Z</time>
      </trkpt>
      <trkpt lat="45.99065" lon="6.92757">
        <ele>1340</ele>
        <time>2022-07-16T06:16:49.126Z</time>
      </trkpt>
      <trkpt lat="45.99039" lon="6.92724">
        <ele>1350</ele>
        <time>2022-07-16T06:17:07.882Z</time>
      </trkpt>
      <trkpt lat="45.9903" lon="6.92718">
        <ele>1351</ele>
        <time>2022-07-16T06:17:11.530Z</time>
      </trkpt>
      <trkpt lat="45.99019" lon="6.92714">
        <ele>1352</ele>
        <time>2022-07-16T06:17:15.240Z</time>
      </trkpt>
      <trkpt lat="45.9898" lon="6.92709">
        <ele>1355</ele>
        <time>2022-07-16T06:17:26.873Z</time>
      </trkpt>
      <trkpt lat="45.98968" lon="6.92711">
        <ele>1356</ele>
        <time>2022-07-16T06:17:30.646Z</time>
      </trkpt>
      <trkpt lat="45.9896" lon="6.92717">
        <ele>1354</ele>
        <time>2022-07-16T06:17:31.347Z</time>
      </trkpt>
      <trkpt lat="45.98923" lon="6.92752">
        <ele>1349</ele>
        <time>2022-07-16T06:17:34.787Z</time>
      </trkpt>
      <trkpt lat="45.98914" lon="6.92756">
        <ele>1349</ele>
        <time>2022-07-16T06:17:36.108Z</time>
      </trkpt>
      <trkpt lat="45.98896" lon="6.92756">
        <ele>1347</ele>
        <time>2022-07-16T06:17:37.507Z</time>
      </trkpt>
      <trkpt lat="45.98884" lon="6.9275">
        <ele>1349</ele>
        <time>2022-07-16T06:17:44.380Z</time>
      </trkpt>
      <trkpt lat="45.98877" lon="6.92743">
        <ele>1350</ele>
        <time>2022-07-16T06:17:48.121Z</time>
      </trkpt>
      <trkpt lat="45.98869" lon="6.92722">
        <ele>1356</ele>
        <time>2022-07-16T06:17:57.124Z</time>
      </trkpt>
      <trkpt lat="45.98868" lon="6.9271">
        <ele>1360</ele>
        <time>2022-07-16T06:18:01.668Z</time>
      </trkpt>
      <trkpt lat="45.98873" lon="6.9269">
        <ele>1366</ele>
        <time>2022-07-16T06:18:09.658Z</time>
      </trkpt>
      <trkpt lat="45.98887" lon="6.92675">
        <ele>1370</ele>
        <time>2022-07-16T06:18:19.102Z</time>
      </trkpt>
      <trkpt lat="45.98896" lon="6.9267">
        <ele>1371</ele>
        <time>2022-07-16T06:18:22.751Z</time>
      </trkpt>
      <trkpt lat="45.98967" lon="6.92656">
        <ele>1374</ele>
        <time>2022-07-16T06:18:39.056Z</time>
      </trkpt>
      <trkpt lat="45.99038" lon="6.92657">
        <ele>1375</ele>
        <time>2022-07-16T06:18:50.491Z</time>
      </trkpt>
      <trkpt lat="45.99062" lon="6.92662">
        <ele>1374</ele>
        <time>2022-07-16T06:18:52.629Z</time>
      </trkpt>
      <trkpt lat="45.99093" lon="6.92662">
        <ele>1377</ele>
        <time>2022-07-16T06:19:03.593Z</time>
      </trkpt>
      <trkpt lat="45.99132" lon="6.92686">
        <ele>1375</ele>
        <time>2022-07-16T06:19:07.136Z</time>
      </trkpt>
      <trkpt lat="45.99153" lon="6.92686">
        <ele>1378</ele>
        <time>2022-07-16T06:19:18.498Z</time>
      </trkpt>
      <trkpt lat="45.99172" lon="6.92675">
        <ele>1385</ele>
        <time>2022-07-16T06:19:29.579Z</time>
      </trkpt>
      <trkpt lat="45.9918" lon="6.92674">
        <ele>1387</ele>
        <time>2022-07-16T06:19:33.924Z</time>
      </trkpt>
      <trkpt lat="45.99188" lon="6.92676">
        <ele>1388</ele>
        <time>2022-07-16T06:19:37.749Z</time>
      </trkpt>
      <trkpt lat="45.9921" lon="6.92693">
        <ele>1386</ele>
        <time>2022-07-16T06:19:39.689Z</time>
      </trkpt>
      <trkpt lat="45.99216" lon="6.92695">
        <ele>1387</ele>
        <time>2022-07-16T06:19:43.021Z</time>
      </trkpt>
      <trkpt lat="45.99272" lon="6.92682">
        <ele>1399</ele>
        <time>2022-07-16T06:20:13.712Z</time>
      </trkpt>
      <trkpt lat="45.99349" lon="6.92687">
        <ele>1406</ele>
        <time>2022-07-16T06:20:39.520Z</time>
      </trkpt>
      <trkpt lat="45.99387" lon="6.92685">
        <ele>1409</ele>
        <time>2022-07-16T06:20:51.025Z</time>
      </trkpt>
      <trkpt lat="45.99407" lon="6.92691">
        <ele>1409</ele>
        <time>2022-07-16T06:20:53.891Z</time>
      </trkpt>
      <trkpt lat="45.99431" lon="6.92705">
        <ele>1409</ele>
        <time>2022-07-16T06:20:57.523Z</time>
      </trkpt>
      <trkpt lat="45.99443" lon="6.92709">
        <ele>1409</ele>
        <time>2022-07-16T06:20:59.251Z</time>
      </trkpt>
      <trkpt lat="45.99453" lon="6.92709">
        <ele>1410</ele>
        <time>2022-07-16T06:21:02.899Z</time>
      </trkpt>
      <trkpt lat="45.99491" lon="6.9269">
        <ele>1417</ele>
        <time>2022-07-16T06:21:24.665Z</time>
      </trkpt>
      <trkpt lat="45.99516" lon="6.92684">
        <ele>1419</ele>
        <time>2022-07-16T06:21:32.334Z</time>
      </trkpt>
      <trkpt lat="45.99549" lon="6.92682">
        <ele>1418</ele>
        <time>2022-07-16T06:21:35.580Z</time>
      </trkpt>
      <trkpt lat="45.99587" lon="6.92689">
        <ele>1416</ele>
        <time>2022-07-16T06:21:38.643Z</time>
      </trkpt>
      <trkpt lat="45.99607" lon="6.92689">
        <ele>1416</ele>
        <time>2022-07-16T06:21:41.448Z</time>
      </trkpt>
      <trkpt lat="45.99642" lon="6.92658">
        <ele>1420</ele>
        <time>2022-07-16T06:21:56.060Z</time>
      </trkpt>
      <trkpt lat="45.99653" lon="6.92653">
        <ele>1420</ele>
        <time>2022-07-16T06:21:57.678Z</time>
      </trkpt>
      <trkpt lat="45.99705" lon="6.92639">
        <ele>1425</ele>
        <time>2022-07-16T06:22:15.997Z</time>
      </trkpt>
      <trkpt lat="45.99728" lon="6.92626">
        <ele>1428</ele>
        <time>2022-07-16T06:22:27.387Z</time>
      </trkpt>
      <trkpt lat="45.99741" lon="6.92615">
        <ele>1429</ele>
        <time>2022-07-16T06:22:31.528Z</time>
      </trkpt>
      <trkpt lat="45.99761" lon="6.92591">
        <ele>1433</ele>
        <time>2022-07-16T06:22:45.617Z</time>
      </trkpt>
      <trkpt lat="45.99806" lon="6.92521">
        <ele>1443</ele>
        <time>2022-07-16T06:23:21.465Z</time>
      </trkpt>
      <trkpt lat="45.99837" lon="6.92452">
        <ele>1443</ele>
        <time>2022-07-16T06:23:29.472Z</time>
      </trkpt>
      <trkpt lat="45.99844" lon="6.92442">
        <ele>1443</ele>
        <time>2022-07-16T06:23:30.856Z</time>
      </trkpt>
      <trkpt lat="45.99928" lon="6.92356">
        <ele>1443</ele>
        <time>2022-07-16T06:23:45.315Z</time>
      </trkpt>
      <trkpt lat="45.99956" lon="6.92339">
        <ele>1443</ele>
        <time>2022-07-16T06:23:49.578Z</time>
      </trkpt>
      <trkpt lat="45.99976" lon="6.9233">
        <ele>1443</ele>
        <time>2022-07-16T06:23:52.517Z</time>
      </trkpt>
      <trkpt lat="46.0005" lon="6.92306">
        <ele>1450</ele>
        <time>2022-07-16T06:24:18.253Z</time>
      </trkpt>
      <trkpt lat="46.00138" lon="6.92299">
        <ele>1456</ele>
        <time>2022-07-16T06:24:42.775Z</time>
      </trkpt>
      <trkpt lat="46.00173" lon="6.92298">
        <ele>1458</ele>
        <time>2022-07-16T06:24:51.782Z</time>
      </trkpt>
      <trkpt lat="46.00189" lon="6.923">
        <ele>1458</ele>
        <time>2022-07-16T06:24:54.035Z</time>
      </trkpt>
      <trkpt lat="46.0036" lon="6.92349">
        <ele>1464</ele>
        <time>2022-07-16T06:25:29.751Z</time>
      </trkpt>
      <trkpt lat="46.00405" lon="6.92367">
        <ele>1467</ele>
        <time>2022-07-16T06:25:42.385Z</time>
      </trkpt>
      <trkpt lat="46.00526" lon="6.92339">
        <ele>1455</ele>
        <time>2022-07-16T06:25:51.907Z</time>
      </trkpt>
      <trkpt lat="46.00623" lon="6.92323">
        <ele>1444</ele>
        <time>2022-07-16T06:25:59.492Z</time>
      </trkpt>
      <trkpt lat="46.00773" lon="6.92289">
        <ele>1434</ele>
        <time>2022-07-16T06:26:10.367Z</time>
      </trkpt>
      <trkpt lat="46.0079" lon="6.92294">
        <ele>1434</ele>
        <time>2022-07-16T06:26:12.801Z</time>
      </trkpt>
      <trkpt lat="46.00835" lon="6.92332">
        <ele>1427</ele>
        <time>2022-07-16T06:26:16.854Z</time>
      </trkpt>
      <trkpt lat="46.00845" lon="6.92337">
        <ele>1427</ele>
        <time>2022-07-16T06:26:18.339Z</time>
      </trkpt>
      <trkpt lat="46.00885" lon="6.92342">
        <ele>1425</ele>
        <time>2022-07-16T06:26:21.615Z</time>
      </trkpt>
      <trkpt lat="46.00908" lon="6.92348">
        <ele>1424</ele>
        <time>2022-07-16T06:26:23.647Z</time>
      </trkpt>
      <trkpt lat="46.0095" lon="6.92376">
        <ele>1418</ele>
        <time>2022-07-16T06:26:27.243Z</time>
      </trkpt>
      <trkpt lat="46.00979" lon="6.92386">
        <ele>1416</ele>
        <time>2022-07-16T06:26:29.559Z</time>
      </trkpt>
      <trkpt lat="46.00999" lon="6.92389">
        <ele>1414</ele>
        <time>2022-07-16T06:26:31.122Z</time>
      </trkpt>
      <trkpt lat="46.01008" lon="6.92386">
        <ele>1414</ele>
        <time>2022-07-16T06:26:32.418Z</time>
      </trkpt>
      <trkpt lat="46.01016" lon="6.92379">
        <ele>1413</ele>
        <time>2022-07-16T06:26:33.145Z</time>
      </trkpt>
      <trkpt lat="46.01038" lon="6.92352">
        <ele>1411</ele>
        <time>2022-07-16T06:26:35.391Z</time>
      </trkpt>
      <trkpt lat="46.01048" lon="6.92342">
        <ele>1410</ele>
        <time>2022-07-16T06:26:36.337Z</time>
      </trkpt>
      <trkpt lat="46.01056" lon="6.92338">
        <ele>1409</ele>
        <time>2022-07-16T06:26:36.995Z</time>
      </trkpt>
      <trkpt lat="46.01075" lon="6.92334">
        <ele>1408</ele>
        <time>2022-07-16T06:26:38.531Z</time>
      </trkpt>
      <trkpt lat="46.01117" lon="6.92334">
        <ele>1403</ele>
        <time>2022-07-16T06:26:41.795Z</time>
      </trkpt>
      <trkpt lat="46.01126" lon="6.92331">
        <ele>1403</ele>
        <time>2022-07-16T06:26:43.090Z</time>
      </trkpt>
      <trkpt lat="46.01134" lon="6.92325">
        <ele>1402</ele>
        <time>2022-07-16T06:26:43.791Z</time>
      </trkpt>
      <trkpt lat="46.0114" lon="6.92318">
        <ele>1401</ele>
        <time>2022-07-16T06:26:44.391Z</time>
      </trkpt>
      <trkpt lat="46.01149" lon="6.92295">
        <ele>1401</ele>
        <time>2022-07-16T06:26:46.963Z</time>
      </trkpt>
      <trkpt lat="46.01158" lon="6.92257">
        <ele>1400</ele>
        <time>2022-07-16T06:26:49.552Z</time>
      </trkpt>
      <trkpt lat="46.01169" lon="6.9223">
        <ele>1402</ele>
        <time>2022-07-16T06:26:56.909Z</time>
      </trkpt>
      <trkpt lat="46.01177" lon="6.92219">
        <ele>1404</ele>
        <time>2022-07-16T06:27:02.894Z</time>
      </trkpt>
      <trkpt lat="46.01192" lon="6.92204">
        <ele>1405</ele>
        <time>2022-07-16T06:27:07.518Z</time>
      </trkpt>
      <trkpt lat="46.01243" lon="6.92182">
        <ele>1401</ele>
        <time>2022-07-16T06:27:11.654Z</time>
      </trkpt>
      <trkpt lat="46.01304" lon="6.92125">
        <ele>1397</ele>
        <time>2022-07-16T06:27:17.332Z</time>
      </trkpt>
      <trkpt lat="46.01338" lon="6.92102">
        <ele>1394</ele>
        <time>2022-07-16T06:27:20.250Z</time>
      </trkpt>
      <trkpt lat="46.01355" lon="6.92082">
        <ele>1393</ele>
        <time>2022-07-16T06:27:22.111Z</time>
      </trkpt>
      <trkpt lat="46.01396" lon="6.92042">
        <ele>1386</ele>
        <time>2022-07-16T06:27:25.958Z</time>
      </trkpt>
      <trkpt lat="46.01478" lon="6.91943">
        <ele>1378</ele>
        <time>2022-07-16T06:27:34.272Z</time>
      </trkpt>
      <trkpt lat="46.01497" lon="6.91926">
        <ele>1376</ele>
        <time>2022-07-16T06:27:36.010Z</time>
      </trkpt>
      <trkpt lat="46.01538" lon="6.9191">
        <ele>1373</ele>
        <time>2022-07-16T06:27:39.311Z</time>
      </trkpt>
      <trkpt lat="46.01592" lon="6.91895">
        <ele>1369</ele>
        <time>2022-07-16T06:27:43.583Z</time>
      </trkpt>
      <trkpt lat="46.01606" lon="6.91893">
        <ele>1369</ele>
        <time>2022-07-16T06:27:45.557Z</time>
      </trkpt>
      <trkpt lat="46.01653" lon="6.91896">
        <ele>1368</ele>
        <time>2022-07-16T06:27:50.663Z</time>
      </trkpt>
      <trkpt lat="46.01682" lon="6.919">
        <ele>1367</ele>
        <time>2022-07-16T06:27:53.410Z</time>
      </trkpt>
      <trkpt lat="46.01696" lon="6.91911">
        <ele>1368</ele>
        <time>2022-07-16T06:27:57.677Z</time>
      </trkpt>
      <trkpt lat="46.01713" lon="6.91952">
        <ele>1364</ele>
        <time>2022-07-16T06:28:00.253Z</time>
      </trkpt>
      <trkpt lat="46.01722" lon="6.91963">
        <ele>1363</ele>
        <time>2022-07-16T06:28:01.170Z</time>
      </trkpt>
      <trkpt lat="46.0173" lon="6.91967">
        <ele>1363</ele>
        <time>2022-07-16T06:28:02.358Z</time>
      </trkpt>
      <trkpt lat="46.01769" lon="6.91969">
        <ele>1361</ele>
        <time>2022-07-16T06:28:05.503Z</time>
      </trkpt>
      <trkpt lat="46.01838" lon="6.91968">
        <ele>1354</ele>
        <time>2022-07-16T06:28:10.865Z</time>
      </trkpt>
      <trkpt lat="46.01894" lon="6.91967">
        <ele>1347</ele>
        <time>2022-07-16T06:28:15.216Z</time>
      </trkpt>
      <trkpt lat="46.01925" lon="6.91964">
        <ele>1344</ele>
        <time>2022-07-16T06:28:17.630Z</time>
      </trkpt>
      <trkpt lat="46.01976" lon="6.91939">
        <ele>1340</ele>
        <time>2022-07-16T06:28:21.815Z</time>
      </trkpt>
      <trkpt lat="46.02002" lon="6.91921">
        <ele>1339</ele>
        <time>2022-07-16T06:28:24.526Z</time>
      </trkpt>
      <trkpt lat="46.0201" lon="6.91911">
        <ele>1338</ele>
        <time>2022-07-16T06:28:25.349Z</time>
      </trkpt>
      <trkpt lat="46.02016" lon="6.91898">
        <ele>1338</ele>
        <time>2022-07-16T06:28:26.870Z</time>
      </trkpt>
      <trkpt lat="46.02042" lon="6.9183">
        <ele>1338</ele>
        <time>2022-07-16T06:28:34.431Z</time>
      </trkpt>
      <trkpt lat="46.02052" lon="6.91821">
        <ele>1339</ele>
        <time>2022-07-16T06:28:38.178Z</time>
      </trkpt>
      <trkpt lat="46.02056" lon="6.91819">
        <ele>1339</ele>
        <time>2022-07-16T06:28:38.772Z</time>
      </trkpt>
      <trkpt lat="46.02088" lon="6.9182">
        <ele>1337</ele>
        <time>2022-07-16T06:28:41.125Z</time>
      </trkpt>
      <trkpt lat="46.02137" lon="6.91857">
        <ele>1334</ele>
        <time>2022-07-16T06:28:45.473Z</time>
      </trkpt>
      <trkpt lat="46.02171" lon="6.91878">
        <ele>1331</ele>
        <time>2022-07-16T06:28:48.347Z</time>
      </trkpt>
      <trkpt lat="46.02248" lon="6.91912">
        <ele>1326</ele>
        <time>2022-07-16T06:28:54.286Z</time>
      </trkpt>
      <trkpt lat="46.02323" lon="6.9196">
        <ele>1322</ele>
        <time>2022-07-16T06:29:01.046Z</time>
      </trkpt>
      <trkpt lat="46.02358" lon="6.9199">
        <ele>1319</ele>
        <time>2022-07-16T06:29:04.210Z</time>
      </trkpt>
      <trkpt lat="46.02518" lon="6.92166">
        <ele>1309</ele>
        <time>2022-07-16T06:29:20.659Z</time>
      </trkpt>
      <trkpt lat="46.02531" lon="6.92183">
        <ele>1308</ele>
        <time>2022-07-16T06:29:22.009Z</time>
      </trkpt>
      <trkpt lat="46.02551" lon="6.92223">
        <ele>1306</ele>
        <time>2022-07-16T06:29:24.607Z</time>
      </trkpt>
      <trkpt lat="46.02635" lon="6.92426">
        <ele>1303</ele>
        <time>2022-07-16T06:29:43.048Z</time>
      </trkpt>
      <trkpt lat="46.02693" lon="6.92505">
        <ele>1303</ele>
        <time>2022-07-16T06:29:54.246Z</time>
      </trkpt>
      <trkpt lat="46.027" lon="6.92519">
        <ele>1303</ele>
        <time>2022-07-16T06:29:55.927Z</time>
      </trkpt>
      <trkpt lat="46.02717" lon="6.92582">
        <ele>1300</ele>
        <time>2022-07-16T06:29:59.338Z</time>
      </trkpt>
      <trkpt lat="46.02762" lon="6.92654">
        <ele>1301</ele>
        <time>2022-07-16T06:30:10.260Z</time>
      </trkpt>
      <trkpt lat="46.02772" lon="6.92664">
        <ele>1300</ele>
        <time>2022-07-16T06:30:11.206Z</time>
      </trkpt>
      <trkpt lat="46.0278" lon="6.92668">
        <ele>1300</ele>
        <time>2022-07-16T06:30:12.394Z</time>
      </trkpt>
      <trkpt lat="46.02843" lon="6.92673">
        <ele>1298</ele>
        <time>2022-07-16T06:30:18.504Z</time>
      </trkpt>
      <trkpt lat="46.02856" lon="6.92676">
        <ele>1298</ele>
        <time>2022-07-16T06:30:20.351Z</time>
      </trkpt>
      <trkpt lat="46.02866" lon="6.92682">
        <ele>1298</ele>
        <time>2022-07-16T06:30:21.871Z</time>
      </trkpt>
      <trkpt lat="46.02876" lon="6.92692">
        <ele>1297</ele>
        <time>2022-07-16T06:30:22.817Z</time>
      </trkpt>
      <trkpt lat="46.02965" lon="6.92815">
        <ele>1284</ele>
        <time>2022-07-16T06:30:32.400Z</time>
      </trkpt>
      <trkpt lat="46.02974" lon="6.92822">
        <ele>1283</ele>
        <time>2022-07-16T06:30:33.194Z</time>
      </trkpt>
      <trkpt lat="46.02991" lon="6.92827">
        <ele>1283</ele>
        <time>2022-07-16T06:30:35.628Z</time>
      </trkpt>
      <trkpt lat="46.03039" lon="6.92825">
        <ele>1287</ele>
        <time>2022-07-16T06:30:50.694Z</time>
      </trkpt>
      <trkpt lat="46.0306" lon="6.92832">
        <ele>1288</ele>
        <time>2022-07-16T06:30:55.859Z</time>
      </trkpt>
      <trkpt lat="46.03067" lon="6.92838">
        <ele>1288</ele>
        <time>2022-07-16T06:30:57.001Z</time>
      </trkpt>
      <trkpt lat="46.03108" lon="6.92903">
        <ele>1284</ele>
        <time>2022-07-16T06:31:01.376Z</time>
      </trkpt>
      <trkpt lat="46.03122" lon="6.92921">
        <ele>1282</ele>
        <time>2022-07-16T06:31:02.834Z</time>
      </trkpt>
      <trkpt lat="46.0313" lon="6.92931">
        <ele>1282</ele>
        <time>2022-07-16T06:31:04.320Z</time>
      </trkpt>
      <trkpt lat="46.03163" lon="6.92961">
        <ele>1280</ele>
        <time>2022-07-16T06:31:07.465Z</time>
      </trkpt>
      <trkpt lat="46.03186" lon="6.92976">
        <ele>1280</ele>
        <time>2022-07-16T06:31:11.007Z</time>
      </trkpt>
      <trkpt lat="46.0321" lon="6.9298">
        <ele>1282</ele>
        <time>2022-07-16T06:31:18.554Z</time>
      </trkpt>
      <trkpt lat="46.03226" lon="6.92987">
        <ele>1283</ele>
        <time>2022-07-16T06:31:22.937Z</time>
      </trkpt>
      <trkpt lat="46.0329" lon="6.93024">
        <ele>1283</ele>
        <time>2022-07-16T06:31:32.610Z</time>
      </trkpt>
      <trkpt lat="46.03302" lon="6.93035">
        <ele>1282</ele>
        <time>2022-07-16T06:31:33.716Z</time>
      </trkpt>
      <trkpt lat="46.03314" lon="6.93053">
        <ele>1280</ele>
        <time>2022-07-16T06:31:35.062Z</time>
      </trkpt>
      <trkpt lat="46.03339" lon="6.93138">
        <ele>1269</ele>
        <time>2022-07-16T06:31:40.041Z</time>
      </trkpt>
      <trkpt lat="46.03352" lon="6.93169">
        <ele>1266</ele>
        <time>2022-07-16T06:31:41.994Z</time>
      </trkpt>
      <trkpt lat="46.03358" lon="6.93178">
        <ele>1266</ele>
        <time>2022-07-16T06:31:43.209Z</time>
      </trkpt>
      <trkpt lat="46.03384" lon="6.93204">
        <ele>1266</ele>
        <time>2022-07-16T06:31:47.649Z</time>
      </trkpt>
      <trkpt lat="46.03423" lon="6.93252">
        <ele>1264</ele>
        <time>2022-07-16T06:31:52.270Z</time>
      </trkpt>
      <trkpt lat="46.03469" lon="6.93299">
        <ele>1261</ele>
        <time>2022-07-16T06:31:56.740Z</time>
      </trkpt>
      <trkpt lat="46.0348" lon="6.93323">
        <ele>1259</ele>
        <time>2022-07-16T06:31:58.292Z</time>
      </trkpt>
      <trkpt lat="46.03523" lon="6.9346">
        <ele>1256</ele>
        <time>2022-07-16T06:32:08.718Z</time>
      </trkpt>
      <trkpt lat="46.03574" lon="6.93573">
        <ele>1257</ele>
        <time>2022-07-16T06:32:23.267Z</time>
      </trkpt>
      <trkpt lat="46.03588" lon="6.936">
        <ele>1259</ele>
        <time>2022-07-16T06:32:30.744Z</time>
      </trkpt>
      <trkpt lat="46.03598" lon="6.9361">
        <ele>1259</ele>
        <time>2022-07-16T06:32:32.452Z</time>
      </trkpt>
      <trkpt lat="46.03695" lon="6.9366">
        <ele>1254</ele>
        <time>2022-07-16T06:32:40.953Z</time>
      </trkpt>
      <trkpt lat="46.0378" lon="6.93685">
        <ele>1252</ele>
        <time>2022-07-16T06:32:50.177Z</time>
      </trkpt>
      <trkpt lat="46.03825" lon="6.93693">
        <ele>1250</ele>
        <time>2022-07-16T06:32:54.069Z</time>
      </trkpt>
      <trkpt lat="46.03863" lon="6.93716">
        <ele>1248</ele>
        <time>2022-07-16T06:32:57.471Z</time>
      </trkpt>
      <trkpt lat="46.0391" lon="6.93732">
        <ele>1244</ele>
        <time>2022-07-16T06:33:01.223Z</time>
      </trkpt>
      <trkpt lat="46.03921" lon="6.93739">
        <ele>1243</ele>
        <time>2022-07-16T06:33:02.157Z</time>
      </trkpt>
      <trkpt lat="46.03926" lon="6.93745">
        <ele>1242</ele>
        <time>2022-07-16T06:33:02.663Z</time>
      </trkpt>
      <trkpt lat="46.0394" lon="6.93777">
        <ele>1246</ele>
        <time>2022-07-16T06:33:16.870Z</time>
      </trkpt>
      <trkpt lat="46.03956" lon="6.93795">
        <ele>1247</ele>
        <time>2022-07-16T06:33:21.825Z</time>
      </trkpt>
      <trkpt lat="46.03995" lon="6.93808">
        <ele>1245</ele>
        <time>2022-07-16T06:33:25.087Z</time>
      </trkpt>
      <trkpt lat="46.04008" lon="6.9382">
        <ele>1245</ele>
        <time>2022-07-16T06:33:27.253Z</time>
      </trkpt>
      <trkpt lat="46.04022" lon="6.93828">
        <ele>1245</ele>
        <time>2022-07-16T06:33:29.366Z</time>
      </trkpt>
      <trkpt lat="46.04051" lon="6.93837">
        <ele>1246</ele>
        <time>2022-07-16T06:33:35.386Z</time>
      </trkpt>
      <trkpt lat="46.04059" lon="6.93842">
        <ele>1246</ele>
        <time>2022-07-16T06:33:36.609Z</time>
      </trkpt>
      <trkpt lat="46.04067" lon="6.93849">
        <ele>1247</ele>
        <time>2022-07-16T06:33:40.267Z</time>
      </trkpt>
      <trkpt lat="46.04091" lon="6.93881">
        <ele>1248</ele>
        <time>2022-07-16T06:33:46.640Z</time>
      </trkpt>
      <trkpt lat="46.04125" lon="6.93908">
        <ele>1245</ele>
        <time>2022-07-16T06:33:49.656Z</time>
      </trkpt>
      <trkpt lat="46.04142" lon="6.93918">
        <ele>1243</ele>
        <time>2022-07-16T06:33:51.083Z</time>
      </trkpt>
      <trkpt lat="46.04178" lon="6.93932">
        <ele>1241</ele>
        <time>2022-07-16T06:33:54.027Z</time>
      </trkpt>
      <trkpt lat="46.04205" lon="6.93938">
        <ele>1240</ele>
        <time>2022-07-16T06:33:56.546Z</time>
      </trkpt>
      <trkpt lat="46.04221" lon="6.93939">
        <ele>1238</ele>
        <time>2022-07-16T06:33:57.790Z</time>
      </trkpt>
      <trkpt lat="46.04237" lon="6.93951">
        <ele>1237</ele>
        <time>2022-07-16T06:33:59.193Z</time>
      </trkpt>
      <trkpt lat="46.04254" lon="6.93984">
        <ele>1235</ele>
        <time>2022-07-16T06:34:01.410Z</time>
      </trkpt>
      <trkpt lat="46.04263" lon="6.93989">
        <ele>1234</ele>
        <time>2022-07-16T06:34:02.159Z</time>
      </trkpt>
      <trkpt lat="46.04314" lon="6.94001">
        <ele>1228</ele>
        <time>2022-07-16T06:34:06.174Z</time>
      </trkpt>
      <trkpt lat="46.0434" lon="6.9401">
        <ele>1228</ele>
        <time>2022-07-16T06:34:09.925Z</time>
      </trkpt>
      <trkpt lat="46.04439" lon="6.94054">
        <ele>1216</ele>
        <time>2022-07-16T06:34:17.974Z</time>
      </trkpt>
      <trkpt lat="46.0445" lon="6.94061">
        <ele>1212</ele>
        <time>2022-07-16T06:34:18.909Z</time>
      </trkpt>
      <trkpt lat="46.04501" lon="6.9411">
        <ele>1197</ele>
        <time>2022-07-16T06:34:23.671Z</time>
      </trkpt>
      <trkpt lat="46.04517" lon="6.94118">
        <ele>1198</ele>
        <time>2022-07-16T06:34:28.087Z</time>
      </trkpt>
      <trkpt lat="46.0461" lon="6.94151">
        <ele>1194</ele>
        <time>2022-07-16T06:34:36.490Z</time>
      </trkpt>
      <trkpt lat="46.04641" lon="6.94167">
        <ele>1191</ele>
        <time>2022-07-16T06:34:39.049Z</time>
      </trkpt>
      <trkpt lat="46.04725" lon="6.94221">
        <ele>1185</ele>
        <time>2022-07-16T06:34:45.668Z</time>
      </trkpt>
      <trkpt lat="46.04772" lon="6.94266">
        <ele>1184</ele>
        <time>2022-07-16T06:34:52.053Z</time>
      </trkpt>
      <trkpt lat="46.04819" lon="6.94293">
        <ele>1181</ele>
        <time>2022-07-16T06:34:55.868Z</time>
      </trkpt>
      <trkpt lat="46.04838" lon="6.94312">
        <ele>1180</ele>
        <time>2022-07-16T06:34:57.869Z</time>
      </trkpt>
      <trkpt lat="46.04958" lon="6.94446">
        <ele>1163</ele>
        <time>2022-07-16T06:35:09.665Z</time>
      </trkpt>
      <trkpt lat="46.05013" lon="6.94533">
        <ele>1160</ele>
        <time>2022-07-16T06:35:17.184Z</time>
      </trkpt>
      <trkpt lat="46.05033" lon="6.94553">
        <ele>1158</ele>
        <time>2022-07-16T06:35:19.076Z</time>
      </trkpt>
      <trkpt lat="46.05074" lon="6.94587">
        <ele>1147</ele>
        <time>2022-07-16T06:35:22.751Z</time>
      </trkpt>
      <trkpt lat="46.0508" lon="6.94597">
        <ele>1145</ele>
        <time>2022-07-16T06:35:23.464Z</time>
      </trkpt>
      <trkpt lat="46.0509" lon="6.94646">
        <ele>1144</ele>
        <time>2022-07-16T06:35:27.025Z</time>
      </trkpt>
      <trkpt lat="46.05104" lon="6.94676">
        <ele>1144</ele>
        <time>2022-07-16T06:35:30.544Z</time>
      </trkpt>
      <trkpt lat="46.05113" lon="6.94703">
        <ele>1142</ele>
        <time>2022-07-16T06:35:32.159Z</time>
      </trkpt>
      <trkpt lat="46.05114" lon="6.94729">
        <ele>1140</ele>
        <time>2022-07-16T06:35:33.563Z</time>
      </trkpt>
      <trkpt lat="46.05103" lon="6.94778">
        <ele>1137</ele>
        <time>2022-07-16T06:35:36.340Z</time>
      </trkpt>
      <trkpt lat="46.05105" lon="6.94798">
        <ele>1136</ele>
        <time>2022-07-16T06:35:37.430Z</time>
      </trkpt>
      <trkpt lat="46.05112" lon="6.94815">
        <ele>1135</ele>
        <time>2022-07-16T06:35:38.496Z</time>
      </trkpt>
      <trkpt lat="46.05155" lon="6.94851">
        <ele>1127</ele>
        <time>2022-07-16T06:35:42.359Z</time>
      </trkpt>
      <trkpt lat="46.05191" lon="6.94885">
        <ele>1125</ele>
        <time>2022-07-16T06:35:45.977Z</time>
      </trkpt>
      <trkpt lat="46.05202" lon="6.94864">
        <ele>1128</ele>
        <time>2022-07-16T06:35:55.857Z</time>
      </trkpt>
      <trkpt lat="46.05208" lon="6.94846">
        <ele>1131</ele>
        <time>2022-07-16T06:36:03.355Z</time>
      </trkpt>
      <trkpt lat="46.05199" lon="6.94835">
        <ele>1131</ele>
        <time>2022-07-16T06:36:05.010Z</time>
      </trkpt>
      <trkpt lat="46.0519" lon="6.9483">
        <ele>1131</ele>
        <time>2022-07-16T06:36:06.363Z</time>
      </trkpt>
      <trkpt lat="46.05166" lon="6.94834">
        <ele>1127</ele>
        <time>2022-07-16T06:36:08.240Z</time>
      </trkpt>
      <trkpt lat="46.05161" lon="6.94833">
        <ele>1128</ele>
        <time>2022-07-16T06:36:10.972Z</time>
      </trkpt>
      <trkpt lat="46.0515" lon="6.94817">
        <ele>1131</ele>
        <time>2022-07-16T06:36:19.429Z</time>
      </trkpt>
      <trkpt lat="46.05154" lon="6.94787">
        <ele>1135</ele>
        <time>2022-07-16T06:36:30.900Z</time>
      </trkpt>
      <trkpt lat="46.05153" lon="6.94775">
        <ele>1136</ele>
        <time>2022-07-16T06:36:34.665Z</time>
      </trkpt>
      <trkpt lat="46.05164" lon="6.94739">
        <ele>1142</ele>
        <time>2022-07-16T06:36:49.435Z</time>
      </trkpt>
      <trkpt lat="46.05167" lon="6.94715">
        <ele>1146</ele>
        <time>2022-07-16T06:36:58.592Z</time>
      </trkpt>
      <trkpt lat="46.05171" lon="6.94709">
        <ele>1148</ele>
        <time>2022-07-16T06:37:01.716Z</time>
      </trkpt>
      <trkpt lat="46.05183" lon="6.94734">
        <ele>1148</ele>
        <time>2022-07-16T06:37:04.676Z</time>
      </trkpt>
      <trkpt lat="46.05206" lon="6.9476">
        <ele>1149</ele>
        <time>2022-07-16T06:37:10.648Z</time>
      </trkpt>
      <trkpt lat="46.0524" lon="6.94785">
        <ele>1151</ele>
        <time>2022-07-16T06:37:20.159Z</time>
      </trkpt>
      <trkpt lat="46.05274" lon="6.948">
        <ele>1161</ele>
        <time>2022-07-16T06:37:39.399Z</time>
      </trkpt>
      <trkpt lat="46.05309" lon="6.94812">
        <ele>1174</ele>
        <time>2022-07-16T06:37:58.865Z</time>
      </trkpt>
      <trkpt lat="46.05274" lon="6.948">
        <ele>1161</ele>
        <time>2022-07-16T06:38:01.660Z</time>
      </trkpt>
      <trkpt lat="46.0524" lon="6.94785">
        <ele>1151</ele>
        <time>2022-07-16T06:38:04.422Z</time>
      </trkpt>
      <trkpt lat="46.05215" lon="6.94767">
        <ele>1149</ele>
        <time>2022-07-16T06:38:06.594Z</time>
      </trkpt>
      <trkpt lat="46.05206" lon="6.9476">
        <ele>1149</ele>
        <time>2022-07-16T06:38:08.028Z</time>
      </trkpt>
      <trkpt lat="46.05183" lon="6.94734">
        <ele>1148</ele>
        <time>2022-07-16T06:38:10.788Z</time>
      </trkpt>
      <trkpt lat="46.05173" lon="6.94711">
        <ele>1149</ele>
        <time>2022-07-16T06:38:15.504Z</time>
      </trkpt>
      <trkpt lat="46.05169" lon="6.9471">
        <ele>1147</ele>
        <time>2022-07-16T06:38:15.819Z</time>
      </trkpt>
      <trkpt lat="46.05164" lon="6.94739">
        <ele>1142</ele>
        <time>2022-07-16T06:38:17.430Z</time>
      </trkpt>
      <trkpt lat="46.05153" lon="6.94775">
        <ele>1136</ele>
        <time>2022-07-16T06:38:19.551Z</time>
      </trkpt>
      <trkpt lat="46.05154" lon="6.94787">
        <ele>1135</ele>
        <time>2022-07-16T06:38:20.203Z</time>
      </trkpt>
      <trkpt lat="46.0515" lon="6.94817">
        <ele>1131</ele>
        <time>2022-07-16T06:38:21.850Z</time>
      </trkpt>
      <trkpt lat="46.05161" lon="6.94833">
        <ele>1128</ele>
        <time>2022-07-16T06:38:23.064Z</time>
      </trkpt>
      <trkpt lat="46.05166" lon="6.94834">
        <ele>1127</ele>
        <time>2022-07-16T06:38:23.457Z</time>
      </trkpt>
      <trkpt lat="46.0519" lon="6.9483">
        <ele>1131</ele>
        <time>2022-07-16T06:38:36.529Z</time>
      </trkpt>
      <trkpt lat="46.05199" lon="6.94835">
        <ele>1131</ele>
        <time>2022-07-16T06:38:37.882Z</time>
      </trkpt>
      <trkpt lat="46.05208" lon="6.94846">
        <ele>1131</ele>
        <time>2022-07-16T06:38:39.537Z</time>
      </trkpt>
      <trkpt lat="46.05202" lon="6.94864">
        <ele>1128</ele>
        <time>2022-07-16T06:38:40.614Z</time>
      </trkpt>
      <trkpt lat="46.05191" lon="6.94885">
        <ele>1125</ele>
        <time>2022-07-16T06:38:42.033Z</time>
      </trkpt>
      <trkpt lat="46.05266" lon="6.94982">
        <ele>1120</ele>
        <time>2022-07-16T06:38:50.271Z</time>
      </trkpt>
      <trkpt lat="46.05303" lon="6.95036">
        <ele>1123</ele>
        <time>2022-07-16T06:39:03.806Z</time>
      </trkpt>
      <trkpt lat="46.0534" lon="6.95097">
        <ele>1119</ele>
        <time>2022-07-16T06:39:08.174Z</time>
      </trkpt>
      <trkpt lat="46.05427" lon="6.95226">
        <ele>1124</ele>
        <time>2022-07-16T06:39:35.832Z</time>
      </trkpt>
      <trkpt lat="46.05546" lon="6.95409">
        <ele>1131</ele>
        <time>2022-07-16T06:40:14.487Z</time>
      </trkpt>
      <trkpt lat="46.05563" lon="6.95444">
        <ele>1133</ele>
        <time>2022-07-16T06:40:22.698Z</time>
      </trkpt>
      <trkpt lat="46.056" lon="6.95544">
        <ele>1133</ele>
        <time>2022-07-16T06:40:33.730Z</time>
      </trkpt>
      <trkpt lat="46.05621" lon="6.95585">
        <ele>1134</ele>
        <time>2022-07-16T06:40:40.424Z</time>
      </trkpt>
      <trkpt lat="46.0565" lon="6.95621">
        <ele>1131</ele>
        <time>2022-07-16T06:40:43.398Z</time>
      </trkpt>
      <trkpt lat="46.05717" lon="6.95682">
        <ele>1124</ele>
        <time>2022-07-16T06:40:49.556Z</time>
      </trkpt>
      <trkpt lat="46.05761" lon="6.95742">
        <ele>1119</ele>
        <time>2022-07-16T06:40:54.262Z</time>
      </trkpt>
      <trkpt lat="46.05821" lon="6.95838">
        <ele>1115</ele>
        <time>2022-07-16T06:41:01.924Z</time>
      </trkpt>
      <trkpt lat="46.05848" lon="6.95886">
        <ele>1114</ele>
        <time>2022-07-16T06:41:06.469Z</time>
      </trkpt>
      <trkpt lat="46.05881" lon="6.95964">
        <ele>1114</ele>
        <time>2022-07-16T06:41:15.361Z</time>
      </trkpt>
      <trkpt lat="46.05929" lon="6.96106">
        <ele>1115</ele>
        <time>2022-07-16T06:41:32.138Z</time>
      </trkpt>
      <trkpt lat="46.05943" lon="6.96141">
        <ele>1117</ele>
        <time>2022-07-16T06:41:40.132Z</time>
      </trkpt>
      <trkpt lat="46.05957" lon="6.96164">
        <ele>1114</ele>
        <time>2022-07-16T06:41:41.782Z</time>
      </trkpt>
      <trkpt lat="46.06004" lon="6.96219">
        <ele>1105</ele>
        <time>2022-07-16T06:41:46.486Z</time>
      </trkpt>
      <trkpt lat="46.06035" lon="6.96263">
        <ele>1105</ele>
        <time>2022-07-16T06:41:52.589Z</time>
      </trkpt>
      <trkpt lat="46.06122" lon="6.96408">
        <ele>1109</ele>
        <time>2022-07-16T06:42:18.341Z</time>
      </trkpt>
      <trkpt lat="46.06168" lon="6.96461">
        <ele>1115</ele>
        <time>2022-07-16T06:42:40.225Z</time>
      </trkpt>
      <trkpt lat="46.06218" lon="6.965">
        <ele>1124</ele>
        <time>2022-07-16T06:43:10.987Z</time>
      </trkpt>
      <trkpt lat="46.06271" lon="6.96529">
        <ele>1127</ele>
        <time>2022-07-16T06:43:25.163Z</time>
      </trkpt>
      <trkpt lat="46.06343" lon="6.96558">
        <ele>1130</ele>
        <time>2022-07-16T06:43:41.745Z</time>
      </trkpt>
      <trkpt lat="46.06393" lon="6.96584">
        <ele>1130</ele>
        <time>2022-07-16T06:43:49.201Z</time>
      </trkpt>
      <trkpt lat="46.06437" lon="6.96613">
        <ele>1132</ele>
        <time>2022-07-16T06:44:00.124Z</time>
      </trkpt>
      <trkpt lat="46.06486" lon="6.96655">
        <ele>1140</ele>
        <time>2022-07-16T06:44:30.971Z</time>
      </trkpt>
      <trkpt lat="46.06548" lon="6.96713">
        <ele>1151</ele>
        <time>2022-07-16T06:45:10.964Z</time>
      </trkpt>
      <trkpt lat="46.06588" lon="6.96745">
        <ele>1160</ele>
        <time>2022-07-16T06:45:35.717Z</time>
      </trkpt>
      <trkpt lat="46.06615" lon="6.9677">
        <ele>1166</ele>
        <time>2022-07-16T06:45:53.081Z</time>
      </trkpt>
      <trkpt lat="46.0672" lon="6.96846">
        <ele>1159</ele>
        <time>2022-07-16T06:46:01.918Z</time>
      </trkpt>
      <trkpt lat="46.06743" lon="6.9687">
        <ele>1161</ele>
        <time>2022-07-16T06:46:09.960Z</time>
      </trkpt>
      <trkpt lat="46.06764" lon="6.96904">
        <ele>1167</ele>
        <time>2022-07-16T06:46:27.048Z</time>
      </trkpt>
      <trkpt lat="46.06789" lon="6.96954">
        <ele>1176</ele>
        <time>2022-07-16T06:46:50.184Z</time>
      </trkpt>
      <trkpt lat="46.06878" lon="6.9716">
        <ele>1243</ele>
        <time>2022-07-16T06:48:21.282Z</time>
      </trkpt>
      <trkpt lat="46.06958" lon="6.97333">
        <ele>1239</ele>
        <time>2022-07-16T06:48:35.847Z</time>
      </trkpt>
      <trkpt lat="46.06979" lon="6.9736">
        <ele>1225</ele>
        <time>2022-07-16T06:48:38.034Z</time>
      </trkpt>
      <trkpt lat="46.07017" lon="6.9739">
        <ele>1202</ele>
        <time>2022-07-16T06:48:41.400Z</time>
      </trkpt>
      <trkpt lat="46.07062" lon="6.97417">
        <ele>1187</ele>
        <time>2022-07-16T06:48:45.187Z</time>
      </trkpt>
      <trkpt lat="46.07095" lon="6.97446">
        <ele>1184</ele>
        <time>2022-07-16T06:48:48.190Z</time>
      </trkpt>
      <trkpt lat="46.07121" lon="6.97475">
        <ele>1187</ele>
        <time>2022-07-16T06:48:59.241Z</time>
      </trkpt>
      <trkpt lat="46.07138" lon="6.97521">
        <ele>1198</ele>
        <time>2022-07-16T06:49:18.805Z</time>
      </trkpt>
      <trkpt lat="46.07145" lon="6.97553">
        <ele>1203</ele>
        <time>2022-07-16T06:49:31.400Z</time>
      </trkpt>
      <trkpt lat="46.07145" lon="6.97602">
        <ele>1204</ele>
        <time>2022-07-16T06:49:37.927Z</time>
      </trkpt>
      <trkpt lat="46.07137" lon="6.97648">
        <ele>1198</ele>
        <time>2022-07-16T06:49:40.483Z</time>
      </trkpt>
      <trkpt lat="46.07125" lon="6.97679">
        <ele>1201</ele>
        <time>2022-07-16T06:49:51.892Z</time>
      </trkpt>
      <trkpt lat="46.07107" lon="6.97713">
        <ele>1205</ele>
        <time>2022-07-16T06:50:07.946Z</time>
      </trkpt>
      <trkpt lat="46.07079" lon="6.9775">
        <ele>1218</ele>
        <time>2022-07-16T06:50:28.499Z</time>
      </trkpt>
      <trkpt lat="46.07038" lon="6.97792">
        <ele>1239</ele>
        <time>2022-07-16T06:50:55.714Z</time>
      </trkpt>
      <trkpt lat="46.07013" lon="6.97823">
        <ele>1240</ele>
        <time>2022-07-16T06:51:02.119Z</time>
      </trkpt>
      <trkpt lat="46.06999" lon="6.97849">
        <ele>1234</ele>
        <time>2022-07-16T06:51:03.894Z</time>
      </trkpt>
      <trkpt lat="46.06929" lon="6.98009">
        <ele>1221</ele>
        <time>2022-07-16T06:51:14.090Z</time>
      </trkpt>
      <trkpt lat="46.06902" lon="6.98057">
        <ele>1223</ele>
        <time>2022-07-16T06:51:24.379Z</time>
      </trkpt>
      <trkpt lat="46.06873" lon="6.98101">
        <ele>1229</ele>
        <time>2022-07-16T06:51:47.161Z</time>
      </trkpt>
      <trkpt lat="46.06825" lon="6.98194">
        <ele>1232</ele>
        <time>2022-07-16T06:52:04.298Z</time>
      </trkpt>
      <trkpt lat="46.06787" lon="6.98282">
        <ele>1239</ele>
        <time>2022-07-16T06:52:29.868Z</time>
      </trkpt>
      <trkpt lat="46.06749" lon="6.98383">
        <ele>1233</ele>
        <time>2022-07-16T06:52:36.061Z</time>
      </trkpt>
      <trkpt lat="46.06724" lon="6.98436">
        <ele>1245</ele>
        <time>2022-07-16T06:53:00.120Z</time>
      </trkpt>
      <trkpt lat="46.06653" lon="6.98539">
        <ele>1255</ele>
        <time>2022-07-16T06:53:36.608Z</time>
      </trkpt>
      <trkpt lat="46.06631" lon="6.98578">
        <ele>1263</ele>
        <time>2022-07-16T06:53:55.477Z</time>
      </trkpt>
      <trkpt lat="46.06534" lon="6.98784">
        <ele>1269</ele>
        <time>2022-07-16T06:54:31.014Z</time>
      </trkpt>
      <trkpt lat="46.06507" lon="6.98833">
        <ele>1258</ele>
        <time>2022-07-16T06:54:34.387Z</time>
      </trkpt>
      <trkpt lat="46.06481" lon="6.98866">
        <ele>1264</ele>
        <time>2022-07-16T06:54:53.133Z</time>
      </trkpt>
      <trkpt lat="46.06449" lon="6.98892">
        <ele>1269</ele>
        <time>2022-07-16T06:55:13.008Z</time>
      </trkpt>
      <trkpt lat="46.06311" lon="6.98985">
        <ele>1274</ele>
        <time>2022-07-16T06:55:43.564Z</time>
      </trkpt>
      <trkpt lat="46.0623" lon="6.99051">
        <ele>1280</ele>
        <time>2022-07-16T06:56:08.780Z</time>
      </trkpt>
      <trkpt lat="46.06157" lon="6.99132">
        <ele>1288</ele>
        <time>2022-07-16T06:56:38.567Z</time>
      </trkpt>
      <trkpt lat="46.06037" lon="6.99285">
        <ele>1281</ele>
        <time>2022-07-16T06:56:52.376Z</time>
      </trkpt>
      <trkpt lat="46.06014" lon="6.993">
        <ele>1281</ele>
        <time>2022-07-16T06:56:55.917Z</time>
      </trkpt>
      <trkpt lat="46.05933" lon="6.99333">
        <ele>1282</ele>
        <time>2022-07-16T06:57:09.166Z</time>
      </trkpt>
      <trkpt lat="46.05913" lon="6.9935">
        <ele>1282</ele>
        <time>2022-07-16T06:57:12.424Z</time>
      </trkpt>
      <trkpt lat="46.05697" lon="6.99578">
        <ele>1297</ele>
        <time>2022-07-16T06:58:20.795Z</time>
      </trkpt>
      <trkpt lat="46.05674" lon="6.99598">
        <ele>1298</ele>
        <time>2022-07-16T06:58:26.513Z</time>
      </trkpt>
      <trkpt lat="46.05649" lon="6.99608">
        <ele>1301</ele>
        <time>2022-07-16T06:58:37.678Z</time>
      </trkpt>
      <trkpt lat="46.05598" lon="6.99602">
        <ele>1307</ele>
        <time>2022-07-16T06:59:00.117Z</time>
      </trkpt>
      <trkpt lat="46.05567" lon="6.99604">
        <ele>1311</ele>
        <time>2022-07-16T06:59:15.875Z</time>
      </trkpt>
      <trkpt lat="46.05512" lon="6.99626">
        <ele>1316</ele>
        <time>2022-07-16T06:59:34.452Z</time>
      </trkpt>
      <trkpt lat="46.0549" lon="6.99631">
        <ele>1318</ele>
        <time>2022-07-16T06:59:41.842Z</time>
      </trkpt>
      <trkpt lat="46.05471" lon="6.99632">
        <ele>1320</ele>
        <time>2022-07-16T06:59:49.147Z</time>
      </trkpt>
      <trkpt lat="46.0531" lon="6.99601">
        <ele>1329</ele>
        <time>2022-07-16T07:00:30.452Z</time>
      </trkpt>
      <trkpt lat="46.05274" lon="6.99601">
        <ele>1328</ele>
        <time>2022-07-16T07:00:34.085Z</time>
      </trkpt>
      <trkpt lat="46.05245" lon="6.99612">
        <ele>1332</ele>
        <time>2022-07-16T07:00:50.299Z</time>
      </trkpt>
      <trkpt lat="46.05153" lon="6.99678">
        <ele>1352</ele>
        <time>2022-07-16T07:01:45.906Z</time>
      </trkpt>
      <trkpt lat="46.0513" lon="6.99688">
        <ele>1358</ele>
        <time>2022-07-16T07:01:58.904Z</time>
      </trkpt>
      <trkpt lat="46.05097" lon="6.9969">
        <ele>1360</ele>
        <time>2022-07-16T07:02:07.608Z</time>
      </trkpt>
      <trkpt lat="46.0506" lon="6.99685">
        <ele>1361</ele>
        <time>2022-07-16T07:02:14.526Z</time>
      </trkpt>
      <trkpt lat="46.0502" lon="6.99676">
        <ele>1363</ele>
        <time>2022-07-16T07:02:24.417Z</time>
      </trkpt>
      <trkpt lat="46.04995" lon="6.99688">
        <ele>1372</ele>
        <time>2022-07-16T07:02:38.675Z</time>
      </trkpt>
      <trkpt lat="46.04973" lon="6.99703">
        <ele>1380</ele>
        <time>2022-07-16T07:02:51.844Z</time>
      </trkpt>
      <trkpt lat="46.04952" lon="6.99712">
        <ele>1385</ele>
        <time>2022-07-16T07:03:03.698Z</time>
      </trkpt>
      <trkpt lat="46.04924" lon="6.99715">
        <ele>1387</ele>
        <time>2022-07-16T07:03:11.698Z</time>
      </trkpt>
      <trkpt lat="46.04886" lon="6.99709">
        <ele>1384</ele>
        <time>2022-07-16T07:03:14.668Z</time>
      </trkpt>
      <trkpt lat="46.04851" lon="6.99711">
        <ele>1384</ele>
        <time>2022-07-16T07:03:19.581Z</time>
      </trkpt>
      <trkpt lat="46.04784" lon="6.99726">
        <ele>1395</ele>
        <time>2022-07-16T07:03:56.268Z</time>
      </trkpt>
      <trkpt lat="46.0476" lon="6.99727">
        <ele>1397</ele>
        <time>2022-07-16T07:04:03.800Z</time>
      </trkpt>
      <trkpt lat="46.04712" lon="6.99723">
        <ele>1395</ele>
        <time>2022-07-16T07:04:08.025Z</time>
      </trkpt>
      <trkpt lat="46.04681" lon="6.99725">
        <ele>1396</ele>
        <time>2022-07-16T07:04:14.201Z</time>
      </trkpt>
      <trkpt lat="46.04547" lon="6.99753">
        <ele>1402</ele>
        <time>2022-07-16T07:04:46.171Z</time>
      </trkpt>
      <trkpt lat="46.04512" lon="6.99746">
        <ele>1399</ele>
        <time>2022-07-16T07:04:48.916Z</time>
      </trkpt>
      <trkpt lat="46.04502" lon="6.99758">
        <ele>1405</ele>
        <time>2022-07-16T07:04:55.958Z</time>
      </trkpt>
      <trkpt lat="46.04503" lon="6.99773">
        <ele>1411</ele>
        <time>2022-07-16T07:05:01.617Z</time>
      </trkpt>
      <trkpt lat="46.04507" lon="6.99778">
        <ele>1414</ele>
        <time>2022-07-16T07:05:04.483Z</time>
      </trkpt>
      <trkpt lat="46.04517" lon="6.99781">
        <ele>1415</ele>
        <time>2022-07-16T07:05:08.134Z</time>
      </trkpt>
      <trkpt lat="46.04582" lon="6.99766">
        <ele>1408</ele>
        <time>2022-07-16T07:05:13.248Z</time>
      </trkpt>
      <trkpt lat="46.04628" lon="6.99766">
        <ele>1413</ele>
        <time>2022-07-16T07:05:31.582Z</time>
      </trkpt>
      <trkpt lat="46.04692" lon="6.99776">
        <ele>1424</ele>
        <time>2022-07-16T07:06:06.413Z</time>
      </trkpt>
      <trkpt lat="46.04766" lon="6.998">
        <ele>1438</ele>
        <time>2022-07-16T07:06:47.454Z</time>
      </trkpt>
      <trkpt lat="46.04833" lon="6.99825">
        <ele>1446</ele>
        <time>2022-07-16T07:07:17.224Z</time>
      </trkpt>
      <trkpt lat="46.04898" lon="6.99854">
        <ele>1455</ele>
        <time>2022-07-16T07:07:53.429Z</time>
      </trkpt>
      <trkpt lat="46.04914" lon="6.99856">
        <ele>1454</ele>
        <time>2022-07-16T07:07:54.612Z</time>
      </trkpt>
      <trkpt lat="46.04952" lon="6.99847">
        <ele>1447</ele>
        <time>2022-07-16T07:07:57.604Z</time>
      </trkpt>
      <trkpt lat="46.04969" lon="6.99846">
        <ele>1445</ele>
        <time>2022-07-16T07:07:58.925Z</time>
      </trkpt>
      <trkpt lat="46.0499" lon="6.99865">
        <ele>1454</ele>
        <time>2022-07-16T07:08:12.342Z</time>
      </trkpt>
      <trkpt lat="46.05006" lon="6.99884">
        <ele>1462</ele>
        <time>2022-07-16T07:08:23.560Z</time>
      </trkpt>
      <trkpt lat="46.05016" lon="6.9989">
        <ele>1464</ele>
        <time>2022-07-16T07:08:29.421Z</time>
      </trkpt>
      <trkpt lat="46.05027" lon="6.99892">
        <ele>1465</ele>
        <time>2022-07-16T07:08:33.113Z</time>
      </trkpt>
      <trkpt lat="46.05064" lon="6.99884">
        <ele>1461</ele>
        <time>2022-07-16T07:08:36.020Z</time>
      </trkpt>
      <trkpt lat="46.05085" lon="6.99883">
        <ele>1460</ele>
        <time>2022-07-16T07:08:37.768Z</time>
      </trkpt>
      <trkpt lat="46.05109" lon="6.99897">
        <ele>1463</ele>
        <time>2022-07-16T07:08:48.941Z</time>
      </trkpt>
      <trkpt lat="46.05138" lon="6.99923">
        <ele>1471</ele>
        <time>2022-07-16T07:09:07.421Z</time>
      </trkpt>
      <trkpt lat="46.05162" lon="6.9994">
        <ele>1478</ele>
        <time>2022-07-16T07:09:21.891Z</time>
      </trkpt>
      <trkpt lat="46.05197" lon="6.99959">
        <ele>1485</ele>
        <time>2022-07-16T07:09:42.128Z</time>
      </trkpt>
      <trkpt lat="46.05221" lon="6.99965">
        <ele>1486</ele>
        <time>2022-07-16T07:09:47.604Z</time>
      </trkpt>
      <trkpt lat="46.05253" lon="6.99968">
        <ele>1484</ele>
        <time>2022-07-16T07:09:49.963Z</time>
      </trkpt>
      <trkpt lat="46.0529" lon="6.99967">
        <ele>1485</ele>
        <time>2022-07-16T07:09:56.862Z</time>
      </trkpt>
      <trkpt lat="46.05319" lon="6.99963">
        <ele>1483</ele>
        <time>2022-07-16T07:09:59.125Z</time>
      </trkpt>
      <trkpt lat="46.05354" lon="6.99973">
        <ele>1485</ele>
        <time>2022-07-16T07:10:08.238Z</time>
      </trkpt>
      <trkpt lat="46.05391" lon="6.99987">
        <ele>1487</ele>
        <time>2022-07-16T07:10:17.764Z</time>
      </trkpt>
      <trkpt lat="46.0543" lon="6.99992">
        <ele>1488</ele>
        <time>2022-07-16T07:10:24.934Z</time>
      </trkpt>
      <trkpt lat="46.05495" lon="6.99995">
        <ele>1493</ele>
        <time>2022-07-16T07:10:44.295Z</time>
      </trkpt>
      <trkpt lat="46.05527" lon="6.99987">
        <ele>1492</ele>
        <time>2022-07-16T07:10:47.471Z</time>
      </trkpt>
      <trkpt lat="46.05656" lon="6.99987">
        <ele>1506</ele>
        <time>2022-07-16T07:11:38.793Z</time>
      </trkpt>
      <trkpt lat="46.05772" lon="6.99983">
        <ele>1516</ele>
        <time>2022-07-16T07:12:16.097Z</time>
      </trkpt>
      <trkpt lat="46.05788" lon="6.99974">
        <ele>1516</ele>
        <time>2022-07-16T07:12:18.507Z</time>
      </trkpt>
      <trkpt lat="46.05816" lon="6.99949">
        <ele>1513</ele>
        <time>2022-07-16T07:12:21.066Z</time>
      </trkpt>
      <trkpt lat="46.05823" lon="6.99949">
        <ele>1514</ele>
        <time>2022-07-16T07:12:24.853Z</time>
      </trkpt>
      <trkpt lat="46.05825" lon="6.99951">
        <ele>1515</ele>
        <time>2022-07-16T07:12:26.170Z</time>
      </trkpt>
      <trkpt lat="46.05828" lon="6.99958">
        <ele>1518</ele>
        <time>2022-07-16T07:12:29.259Z</time>
      </trkpt>
      <trkpt lat="46.05828" lon="6.99971">
        <ele>1523</ele>
        <time>2022-07-16T07:12:34.140Z</time>
      </trkpt>
      <trkpt lat="46.05775" lon="7.00106">
        <ele>1533</ele>
        <time>2022-07-16T07:13:10.866Z</time>
      </trkpt>
      <trkpt lat="46.05772" lon="7.00126">
        <ele>1533</ele>
        <time>2022-07-16T07:13:12.857Z</time>
      </trkpt>
      <trkpt lat="46.05777" lon="7.00151">
        <ele>1535</ele>
        <time>2022-07-16T07:13:20.216Z</time>
      </trkpt>
      <trkpt lat="46.05785" lon="7.00161">
        <ele>1535</ele>
        <time>2022-07-16T07:13:21.702Z</time>
      </trkpt>
      <trkpt lat="46.05848" lon="7.0021">
        <ele>1530</ele>
        <time>2022-07-16T07:13:27.264Z</time>
      </trkpt>
      <trkpt lat="46.05882" lon="7.00246">
        <ele>1537</ele>
        <time>2022-07-16T07:13:50.092Z</time>
      </trkpt>
      <trkpt lat="46.05912" lon="7.00293">
        <ele>1532</ele>
        <time>2022-07-16T07:13:53.535Z</time>
      </trkpt>
      <trkpt lat="46.05963" lon="7.00387">
        <ele>1525</ele>
        <time>2022-07-16T07:13:59.968Z</time>
      </trkpt>
      <trkpt lat="46.06005" lon="7.0048">
        <ele>1513</ele>
        <time>2022-07-16T07:14:05.950Z</time>
      </trkpt>
      <trkpt lat="46.06032" lon="7.00559">
        <ele>1508</ele>
        <time>2022-07-16T07:14:10.698Z</time>
      </trkpt>
      <trkpt lat="46.06069" lon="7.00697">
        <ele>1499</ele>
        <time>2022-07-16T07:14:18.673Z</time>
      </trkpt>
      <trkpt lat="46.06091" lon="7.00763">
        <ele>1495</ele>
        <time>2022-07-16T07:14:22.621Z</time>
      </trkpt>
      <trkpt lat="46.06118" lon="7.0083">
        <ele>1490</ele>
        <time>2022-07-16T07:14:26.798Z</time>
      </trkpt>
      <trkpt lat="46.06145" lon="7.00888">
        <ele>1487</ele>
        <time>2022-07-16T07:14:30.376Z</time>
      </trkpt>
      <trkpt lat="46.06194" lon="7.00984">
        <ele>1481</ele>
        <time>2022-07-16T07:14:36.801Z</time>
      </trkpt>
      <trkpt lat="46.06272" lon="7.01112">
        <ele>1470</ele>
        <time>2022-07-16T07:14:45.985Z</time>
      </trkpt>
      <trkpt lat="46.06397" lon="7.01277">
        <ele>1456</ele>
        <time>2022-07-16T07:14:59.155Z</time>
      </trkpt>
      <trkpt lat="46.06423" lon="7.01319">
        <ele>1452</ele>
        <time>2022-07-16T07:15:02.189Z</time>
      </trkpt>
      <trkpt lat="46.06493" lon="7.01414">
        <ele>1444</ele>
        <time>2022-07-16T07:15:09.659Z</time>
      </trkpt>
      <trkpt lat="46.06583" lon="7.01525">
        <ele>1432</ele>
        <time>2022-07-16T07:15:18.862Z</time>
      </trkpt>
      <trkpt lat="46.0665" lon="7.016">
        <ele>1420</ele>
        <time>2022-07-16T07:15:25.453Z</time>
      </trkpt>
      <trkpt lat="46.06728" lon="7.01669">
        <ele>1412</ele>
        <time>2022-07-16T07:15:32.564Z</time>
      </trkpt>
      <trkpt lat="46.06774" lon="7.01692">
        <ele>1412</ele>
        <time>2022-07-16T07:15:39.394Z</time>
      </trkpt>
      <trkpt lat="46.06844" lon="7.01717">
        <ele>1410</ele>
        <time>2022-07-16T07:15:46.676Z</time>
      </trkpt>
      <trkpt lat="46.06883" lon="7.01743">
        <ele>1411</ele>
        <time>2022-07-16T07:15:54.336Z</time>
      </trkpt>
      <trkpt lat="46.06945" lon="7.01817">
        <ele>1394</ele>
        <time>2022-07-16T07:16:00.590Z</time>
      </trkpt>
      <trkpt lat="46.06979" lon="7.01842">
        <ele>1389</ele>
        <time>2022-07-16T07:16:03.556Z</time>
      </trkpt>
      <trkpt lat="46.07011" lon="7.01857">
        <ele>1391</ele>
        <time>2022-07-16T07:16:12.353Z</time>
      </trkpt>
      <trkpt lat="46.07052" lon="7.01885">
        <ele>1392</ele>
        <time>2022-07-16T07:16:20.328Z</time>
      </trkpt>
      <trkpt lat="46.07061" lon="7.01893">
        <ele>1391</ele>
        <time>2022-07-16T07:16:21.149Z</time>
      </trkpt>
      <trkpt lat="46.07078" lon="7.01915">
        <ele>1387</ele>
        <time>2022-07-16T07:16:22.924Z</time>
      </trkpt>
      <trkpt lat="46.07098" lon="7.01949">
        <ele>1382</ele>
        <time>2022-07-16T07:16:25.327Z</time>
      </trkpt>
      <trkpt lat="46.07122" lon="7.01981">
        <ele>1378</ele>
        <time>2022-07-16T07:16:27.867Z</time>
      </trkpt>
      <trkpt lat="46.07161" lon="7.0201">
        <ele>1378</ele>
        <time>2022-07-16T07:16:34.023Z</time>
      </trkpt>
      <trkpt lat="46.07207" lon="7.02055">
        <ele>1369</ele>
        <time>2022-07-16T07:16:38.342Z</time>
      </trkpt>
      <trkpt lat="46.07242" lon="7.02084">
        <ele>1362</ele>
        <time>2022-07-16T07:16:41.479Z</time>
      </trkpt>
      <trkpt lat="46.0731" lon="7.02107">
        <ele>1359</ele>
        <time>2022-07-16T07:16:47.539Z</time>
      </trkpt>
      <trkpt lat="46.07368" lon="7.02109">
        <ele>1360</ele>
        <time>2022-07-16T07:16:57.204Z</time>
      </trkpt>
      <trkpt lat="46.07386" lon="7.02113">
        <ele>1357</ele>
        <time>2022-07-16T07:16:58.619Z</time>
      </trkpt>
      <trkpt lat="46.07407" lon="7.02124">
        <ele>1349</ele>
        <time>2022-07-16T07:17:00.355Z</time>
      </trkpt>
      <trkpt lat="46.07427" lon="7.02129">
        <ele>1344</ele>
        <time>2022-07-16T07:17:01.932Z</time>
      </trkpt>
      <trkpt lat="46.07445" lon="7.02126">
        <ele>1342</ele>
        <time>2022-07-16T07:17:03.339Z</time>
      </trkpt>
      <trkpt lat="46.07495" lon="7.02096">
        <ele>1347</ele>
        <time>2022-07-16T07:17:21.720Z</time>
      </trkpt>
      <trkpt lat="46.07528" lon="7.02058">
        <ele>1354</ele>
        <time>2022-07-16T07:17:44.573Z</time>
      </trkpt>
      <trkpt lat="46.07535" lon="7.02047">
        <ele>1356</ele>
        <time>2022-07-16T07:17:50.176Z</time>
      </trkpt>
      <trkpt lat="46.07547" lon="7.02038">
        <ele>1356</ele>
        <time>2022-07-16T07:17:52.073Z</time>
      </trkpt>
      <trkpt lat="46.07549" lon="7.02037">
        <ele>1355</ele>
        <time>2022-07-16T07:17:52.238Z</time>
      </trkpt>
      <trkpt lat="46.07557" lon="7.02044">
        <ele>1349</ele>
        <time>2022-07-16T07:17:52.965Z</time>
      </trkpt>
      <trkpt lat="46.0756" lon="7.02053">
        <ele>1344</ele>
        <time>2022-07-16T07:17:53.503Z</time>
      </trkpt>
      <trkpt lat="46.07557" lon="7.02067">
        <ele>1339</ele>
        <time>2022-07-16T07:17:54.293Z</time>
      </trkpt>
      <trkpt lat="46.07536" lon="7.02086">
        <ele>1338</ele>
        <time>2022-07-16T07:17:56.498Z</time>
      </trkpt>
      <trkpt lat="46.07517" lon="7.02099">
        <ele>1338</ele>
        <time>2022-07-16T07:17:59.448Z</time>
      </trkpt>
      <trkpt lat="46.07461" lon="7.02152">
        <ele>1323</ele>
        <time>2022-07-16T07:18:04.653Z</time>
      </trkpt>
      <trkpt lat="46.0737" lon="7.02164">
        <ele>1322</ele>
        <time>2022-07-16T07:18:15.912Z</time>
      </trkpt>
      <trkpt lat="46.07326" lon="7.02177">
        <ele>1315</ele>
        <time>2022-07-16T07:18:19.402Z</time>
      </trkpt>
      <trkpt lat="46.07298" lon="7.02178">
        <ele>1312</ele>
        <time>2022-07-16T07:18:21.578Z</time>
      </trkpt>
      <trkpt lat="46.07269" lon="7.02171">
        <ele>1315</ele>
        <time>2022-07-16T07:18:32.520Z</time>
      </trkpt>
      <trkpt lat="46.07206" lon="7.02173">
        <ele>1303</ele>
        <time>2022-07-16T07:18:37.416Z</time>
      </trkpt>
      <trkpt lat="46.0718" lon="7.02166">
        <ele>1300</ele>
        <time>2022-07-16T07:18:39.471Z</time>
      </trkpt>
      <trkpt lat="46.071" lon="7.02131">
        <ele>1299</ele>
        <time>2022-07-16T07:18:49.637Z</time>
      </trkpt>
      <trkpt lat="46.06966" lon="7.02065">
        <ele>1289</ele>
        <time>2022-07-16T07:19:00.639Z</time>
      </trkpt>
      <trkpt lat="46.06864" lon="7.02021">
        <ele>1283</ele>
        <time>2022-07-16T07:19:08.860Z</time>
      </trkpt>
      <trkpt lat="46.06833" lon="7.02016">
        <ele>1277</ele>
        <time>2022-07-16T07:19:11.283Z</time>
      </trkpt>
      <trkpt lat="46.06792" lon="7.02016">
        <ele>1271</ele>
        <time>2022-07-16T07:19:14.469Z</time>
      </trkpt>
      <trkpt lat="46.06726" lon="7.02029">
        <ele>1256</ele>
        <time>2022-07-16T07:19:19.644Z</time>
      </trkpt>
      <trkpt lat="46.06674" lon="7.02029">
        <ele>1247</ele>
        <time>2022-07-16T07:19:23.684Z</time>
      </trkpt>
      <trkpt lat="46.06661" lon="7.02023">
        <ele>1248</ele>
        <time>2022-07-16T07:19:27.634Z</time>
      </trkpt>
      <trkpt lat="46.06618" lon="7.01995">
        <ele>1252</ele>
        <time>2022-07-16T07:19:42.623Z</time>
      </trkpt>
      <trkpt lat="46.06565" lon="7.01957">
        <ele>1259</ele>
        <time>2022-07-16T07:20:08.888Z</time>
      </trkpt>
      <trkpt lat="46.06561" lon="7.01955">
        <ele>1259</ele>
        <time>2022-07-16T07:20:09.482Z</time>
      </trkpt>
      <trkpt lat="46.06551" lon="7.01957">
        <ele>1259</ele>
        <time>2022-07-16T07:20:10.898Z</time>
      </trkpt>
      <trkpt lat="46.06546" lon="7.01971">
        <ele>1257</ele>
        <time>2022-07-16T07:20:11.747Z</time>
      </trkpt>
      <trkpt lat="46.06547" lon="7.0198">
        <ele>1255</ele>
        <time>2022-07-16T07:20:12.238Z</time>
      </trkpt>
      <trkpt lat="46.06556" lon="7.01993">
        <ele>1251</ele>
        <time>2022-07-16T07:20:13.228Z</time>
      </trkpt>
      <trkpt lat="46.06614" lon="7.02015">
        <ele>1246</ele>
        <time>2022-07-16T07:20:17.888Z</time>
      </trkpt>
      <trkpt lat="46.06626" lon="7.02026">
        <ele>1244</ele>
        <time>2022-07-16T07:20:18.993Z</time>
      </trkpt>
      <trkpt lat="46.06654" lon="7.02061">
        <ele>1233</ele>
        <time>2022-07-16T07:20:21.872Z</time>
      </trkpt>
      <trkpt lat="46.0667" lon="7.02075">
        <ele>1228</ele>
        <time>2022-07-16T07:20:23.327Z</time>
      </trkpt>
      <trkpt lat="46.0675" lon="7.02113">
        <ele>1229</ele>
        <time>2022-07-16T07:20:36.584Z</time>
      </trkpt>
      <trkpt lat="46.06846" lon="7.02151">
        <ele>1226</ele>
        <time>2022-07-16T07:20:46.383Z</time>
      </trkpt>
      <trkpt lat="46.06866" lon="7.02166">
        <ele>1225</ele>
        <time>2022-07-16T07:20:48.315Z</time>
      </trkpt>
      <trkpt lat="46.06934" lon="7.02232">
        <ele>1214</ele>
        <time>2022-07-16T07:20:54.684Z</time>
      </trkpt>
      <trkpt lat="46.06991" lon="7.0227">
        <ele>1205</ele>
        <time>2022-07-16T07:20:59.563Z</time>
      </trkpt>
      <trkpt lat="46.07075" lon="7.02316">
        <ele>1202</ele>
        <time>2022-07-16T07:21:08.117Z</time>
      </trkpt>
      <trkpt lat="46.07123" lon="7.02353">
        <ele>1194</ele>
        <time>2022-07-16T07:21:12.346Z</time>
      </trkpt>
      <trkpt lat="46.07135" lon="7.02363">
        <ele>1192</ele>
        <time>2022-07-16T07:21:13.423Z</time>
      </trkpt>
      <trkpt lat="46.07135" lon="7.02366">
        <ele>1190</ele>
        <time>2022-07-16T07:21:13.584Z</time>
      </trkpt>
      <trkpt lat="46.07146" lon="7.02374">
        <ele>1189</ele>
        <time>2022-07-16T07:21:14.542Z</time>
      </trkpt>
      <trkpt lat="46.0717" lon="7.02385">
        <ele>1187</ele>
        <time>2022-07-16T07:21:16.498Z</time>
      </trkpt>
      <trkpt lat="46.0728" lon="7.02405">
        <ele>1185</ele>
        <time>2022-07-16T07:21:28.996Z</time>
      </trkpt>
      <trkpt lat="46.07301" lon="7.02412">
        <ele>1185</ele>
        <time>2022-07-16T07:21:32.019Z</time>
      </trkpt>
      <trkpt lat="46.07312" lon="7.0242">
        <ele>1184</ele>
        <time>2022-07-16T07:21:32.977Z</time>
      </trkpt>
      <trkpt lat="46.07327" lon="7.02438">
        <ele>1179</ele>
        <time>2022-07-16T07:21:34.493Z</time>
      </trkpt>
      <trkpt lat="46.07364" lon="7.02502">
        <ele>1159</ele>
        <time>2022-07-16T07:21:38.983Z</time>
      </trkpt>
      <trkpt lat="46.07383" lon="7.02517">
        <ele>1159</ele>
        <time>2022-07-16T07:21:42.022Z</time>
      </trkpt>
      <trkpt lat="46.07391" lon="7.02521">
        <ele>1160</ele>
        <time>2022-07-16T07:21:45.772Z</time>
      </trkpt>
      <trkpt lat="46.07412" lon="7.02523">
        <ele>1165</ele>
        <time>2022-07-16T07:21:57.160Z</time>
      </trkpt>
      <trkpt lat="46.07454" lon="7.02516">
        <ele>1156</ele>
        <time>2022-07-16T07:22:00.444Z</time>
      </trkpt>
      <trkpt lat="46.07462" lon="7.02523">
        <ele>1151</ele>
        <time>2022-07-16T07:22:01.172Z</time>
      </trkpt>
      <trkpt lat="46.07464" lon="7.02531">
        <ele>1148</ele>
        <time>2022-07-16T07:22:01.630Z</time>
      </trkpt>
      <trkpt lat="46.07463" lon="7.02547">
        <ele>1142</ele>
        <time>2022-07-16T07:22:02.496Z</time>
      </trkpt>
      <trkpt lat="46.07459" lon="7.02552">
        <ele>1142</ele>
        <time>2022-07-16T07:22:03.238Z</time>
      </trkpt>
      <trkpt lat="46.07451" lon="7.02556">
        <ele>1143</ele>
        <time>2022-07-16T07:22:06.989Z</time>
      </trkpt>
      <trkpt lat="46.07377" lon="7.02564">
        <ele>1142</ele>
        <time>2022-07-16T07:22:15.838Z</time>
      </trkpt>
      <trkpt lat="46.07359" lon="7.02559">
        <ele>1139</ele>
        <time>2022-07-16T07:22:17.263Z</time>
      </trkpt>
      <trkpt lat="46.07352" lon="7.02554">
        <ele>1139</ele>
        <time>2022-07-16T07:22:18.358Z</time>
      </trkpt>
      <trkpt lat="46.07311" lon="7.0249">
        <ele>1151</ele>
        <time>2022-07-16T07:22:51.057Z</time>
      </trkpt>
      <trkpt lat="46.07299" lon="7.0248">
        <ele>1152</ele>
        <time>2022-07-16T07:22:55.034Z</time>
      </trkpt>
      <trkpt lat="46.07287" lon="7.02475">
        <ele>1152</ele>
        <time>2022-07-16T07:22:56.786Z</time>
      </trkpt>
      <trkpt lat="46.07278" lon="7.02473">
        <ele>1150</ele>
        <time>2022-07-16T07:22:57.494Z</time>
      </trkpt>
      <trkpt lat="46.07257" lon="7.02475">
        <ele>1144</ele>
        <time>2022-07-16T07:22:59.129Z</time>
      </trkpt>
      <trkpt lat="46.07218" lon="7.02487">
        <ele>1137</ele>
        <time>2022-07-16T07:23:02.227Z</time>
      </trkpt>
      <trkpt lat="46.07203" lon="7.02486">
        <ele>1137</ele>
        <time>2022-07-16T07:23:04.334Z</time>
      </trkpt>
      <trkpt lat="46.07165" lon="7.02475">
        <ele>1142</ele>
        <time>2022-07-16T07:23:24.043Z</time>
      </trkpt>
      <trkpt lat="46.07149" lon="7.02478">
        <ele>1139</ele>
        <time>2022-07-16T07:23:25.296Z</time>
      </trkpt>
      <trkpt lat="46.07114" lon="7.02491">
        <ele>1128</ele>
        <time>2022-07-16T07:23:28.104Z</time>
      </trkpt>
      <trkpt lat="46.07095" lon="7.02495">
        <ele>1123</ele>
        <time>2022-07-16T07:23:29.596Z</time>
      </trkpt>
      <trkpt lat="46.07083" lon="7.02494">
        <ele>1122</ele>
        <time>2022-07-16T07:23:30.530Z</time>
      </trkpt>
      <trkpt lat="46.0703" lon="7.02474">
        <ele>1123</ele>
        <time>2022-07-16T07:23:39.758Z</time>
      </trkpt>
      <trkpt lat="46.07006" lon="7.02473">
        <ele>1119</ele>
        <time>2022-07-16T07:23:41.623Z</time>
      </trkpt>
      <trkpt lat="46.06882" lon="7.02508">
        <ele>1110</ele>
        <time>2022-07-16T07:23:51.440Z</time>
      </trkpt>
      <trkpt lat="46.06874" lon="7.02524">
        <ele>1112</ele>
        <time>2022-07-16T07:23:58.844Z</time>
      </trkpt>
      <trkpt lat="46.06876" lon="7.02541">
        <ele>1111</ele>
        <time>2022-07-16T07:23:59.773Z</time>
      </trkpt>
      <trkpt lat="46.06882" lon="7.02547">
        <ele>1108</ele>
        <time>2022-07-16T07:24:00.341Z</time>
      </trkpt>
      <trkpt lat="46.06889" lon="7.02548">
        <ele>1106</ele>
        <time>2022-07-16T07:24:00.887Z</time>
      </trkpt>
      <trkpt lat="46.06897" lon="7.02546">
        <ele>1103</ele>
        <time>2022-07-16T07:24:01.518Z</time>
      </trkpt>
      <trkpt lat="46.0692" lon="7.02531">
        <ele>1099</ele>
        <time>2022-07-16T07:24:03.479Z</time>
      </trkpt>
      <trkpt lat="46.06929" lon="7.02528">
        <ele>1099</ele>
        <time>2022-07-16T07:24:04.775Z</time>
      </trkpt>
      <trkpt lat="46.06954" lon="7.02524">
        <ele>1099</ele>
        <time>2022-07-16T07:24:08.304Z</time>
      </trkpt>
      <trkpt lat="46.06987" lon="7.02525">
        <ele>1097</ele>
        <time>2022-07-16T07:24:10.766Z</time>
      </trkpt>
      <trkpt lat="46.07019" lon="7.02541">
        <ele>1093</ele>
        <time>2022-07-16T07:24:13.398Z</time>
      </trkpt>
      <trkpt lat="46.07065" lon="7.02582">
        <ele>1081</ele>
        <time>2022-07-16T07:24:17.600Z</time>
      </trkpt>
      <trkpt lat="46.07081" lon="7.02591">
        <ele>1079</ele>
        <time>2022-07-16T07:24:18.934Z</time>
      </trkpt>
      <trkpt lat="46.07094" lon="7.02595">
        <ele>1078</ele>
        <time>2022-07-16T07:24:19.967Z</time>
      </trkpt>
      <trkpt lat="46.07162" lon="7.02594">
        <ele>1081</ele>
        <time>2022-07-16T07:24:35.975Z</time>
      </trkpt>
      <trkpt lat="46.07201" lon="7.02599">
        <ele>1083</ele>
        <time>2022-07-16T07:24:45.647Z</time>
      </trkpt>
      <trkpt lat="46.0722" lon="7.02608">
        <ele>1082</ele>
        <time>2022-07-16T07:24:47.276Z</time>
      </trkpt>
      <trkpt lat="46.07238" lon="7.02622">
        <ele>1078</ele>
        <time>2022-07-16T07:24:48.865Z</time>
      </trkpt>
      <trkpt lat="46.07257" lon="7.02645">
        <ele>1073</ele>
        <time>2022-07-16T07:24:50.793Z</time>
      </trkpt>
      <trkpt lat="46.07317" lon="7.02742">
        <ele>1060</ele>
        <time>2022-07-16T07:24:57.798Z</time>
      </trkpt>
      <trkpt lat="46.07337" lon="7.02769">
        <ele>1055</ele>
        <time>2022-07-16T07:24:59.927Z</time>
      </trkpt>
      <trkpt lat="46.07367" lon="7.02802">
        <ele>1048</ele>
        <time>2022-07-16T07:25:02.859Z</time>
      </trkpt>
      <trkpt lat="46.07434" lon="7.02857">
        <ele>1042</ele>
        <time>2022-07-16T07:25:08.849Z</time>
      </trkpt>
      <trkpt lat="46.07462" lon="7.02869">
        <ele>1039</ele>
        <time>2022-07-16T07:25:11.119Z</time>
      </trkpt>
      <trkpt lat="46.07492" lon="7.02871">
        <ele>1040</ele>
        <time>2022-07-16T07:25:17.180Z</time>
      </trkpt>
      <trkpt lat="46.07504" lon="7.02869">
        <ele>1040</ele>
        <time>2022-07-16T07:25:18.875Z</time>
      </trkpt>
      <trkpt lat="46.07553" lon="7.02852">
        <ele>1033</ele>
        <time>2022-07-16T07:25:22.790Z</time>
      </trkpt>
      <trkpt lat="46.07576" lon="7.02851">
        <ele>1029</ele>
        <time>2022-07-16T07:25:24.578Z</time>
      </trkpt>
      <trkpt lat="46.07593" lon="7.02856">
        <ele>1027</ele>
        <time>2022-07-16T07:25:25.926Z</time>
      </trkpt>
      <trkpt lat="46.0765" lon="7.02887">
        <ele>1026</ele>
        <time>2022-07-16T07:25:32.930Z</time>
      </trkpt>
      <trkpt lat="46.07665" lon="7.02901">
        <ele>1024</ele>
        <time>2022-07-16T07:25:34.318Z</time>
      </trkpt>
      <trkpt lat="46.07677" lon="7.02914">
        <ele>1025</ele>
        <time>2022-07-16T07:25:38.450Z</time>
      </trkpt>
      <trkpt lat="46.07696" lon="7.02941">
        <ele>1026</ele>
        <time>2022-07-16T07:25:44.149Z</time>
      </trkpt>
      <trkpt lat="46.07721" lon="7.02985">
        <ele>1025</ele>
        <time>2022-07-16T07:25:48.238Z</time>
      </trkpt>
      <trkpt lat="46.07748" lon="7.03043">
        <ele>1021</ele>
        <time>2022-07-16T07:25:52.003Z</time>
      </trkpt>
      <trkpt lat="46.07776" lon="7.03129">
        <ele>1008</ele>
        <time>2022-07-16T07:25:57.123Z</time>
      </trkpt>
      <trkpt lat="46.07786" lon="7.0319">
        <ele>990</ele>
        <time>2022-07-16T07:26:00.501Z</time>
      </trkpt>
      <trkpt lat="46.07793" lon="7.0321">
        <ele>986</ele>
        <time>2022-07-16T07:26:01.708Z</time>
      </trkpt>
      <trkpt lat="46.07805" lon="7.03225">
        <ele>985</ele>
        <time>2022-07-16T07:26:02.871Z</time>
      </trkpt>
      <trkpt lat="46.07864" lon="7.03279">
        <ele>977</ele>
        <time>2022-07-16T07:26:08.301Z</time>
      </trkpt>
      <trkpt lat="46.0788" lon="7.03288">
        <ele>976</ele>
        <time>2022-07-16T07:26:09.607Z</time>
      </trkpt>
      <trkpt lat="46.07887" lon="7.03289">
        <ele>976</ele>
        <time>2022-07-16T07:26:10.594Z</time>
      </trkpt>
      <trkpt lat="46.07904" lon="7.03286">
        <ele>979</ele>
        <time>2022-07-16T07:26:19.861Z</time>
      </trkpt>
      <trkpt lat="46.07952" lon="7.03238">
        <ele>988</ele>
        <time>2022-07-16T07:26:51.468Z</time>
      </trkpt>
      <trkpt lat="46.07974" lon="7.03223">
        <ele>988</ele>
        <time>2022-07-16T07:26:54.882Z</time>
      </trkpt>
      <trkpt lat="46.07983" lon="7.03221">
        <ele>987</ele>
        <time>2022-07-16T07:26:55.590Z</time>
      </trkpt>
      <trkpt lat="46.07997" lon="7.03222">
        <ele>983</ele>
        <time>2022-07-16T07:26:56.679Z</time>
      </trkpt>
      <trkpt lat="46.08004" lon="7.03225">
        <ele>982</ele>
        <time>2022-07-16T07:26:57.246Z</time>
      </trkpt>
      <trkpt lat="46.08018" lon="7.03237">
        <ele>982</ele>
        <time>2022-07-16T07:26:59.531Z</time>
      </trkpt>
      <trkpt lat="46.08046" lon="7.03288">
        <ele>975</ele>
        <time>2022-07-16T07:27:03.036Z</time>
      </trkpt>
      <trkpt lat="46.08078" lon="7.03358">
        <ele>965</ele>
        <time>2022-07-16T07:27:07.554Z</time>
      </trkpt>
      <trkpt lat="46.08101" lon="7.03419">
        <ele>962</ele>
        <time>2022-07-16T07:27:11.099Z</time>
      </trkpt>
      <trkpt lat="46.08111" lon="7.03453">
        <ele>963</ele>
        <time>2022-07-16T07:27:16.693Z</time>
      </trkpt>
      <trkpt lat="46.08113" lon="7.03479">
        <ele>960</ele>
        <time>2022-07-16T07:27:18.103Z</time>
      </trkpt>
      <trkpt lat="46.0811" lon="7.03498">
        <ele>956</ele>
        <time>2022-07-16T07:27:19.153Z</time>
      </trkpt>
      <trkpt lat="46.08086" lon="7.03556">
        <ele>938</ele>
        <time>2022-07-16T07:27:22.792Z</time>
      </trkpt>
      <trkpt lat="46.08083" lon="7.03586">
        <ele>934</ele>
        <time>2022-07-16T07:27:24.426Z</time>
      </trkpt>
      <trkpt lat="46.08085" lon="7.03599">
        <ele>932</ele>
        <time>2022-07-16T07:27:25.143Z</time>
      </trkpt>
      <trkpt lat="46.08091" lon="7.03614">
        <ele>932</ele>
        <time>2022-07-16T07:27:26.828Z</time>
      </trkpt>
      <trkpt lat="46.08137" lon="7.03685">
        <ele>934</ele>
        <time>2022-07-16T07:27:39.811Z</time>
      </trkpt>
      <trkpt lat="46.0818" lon="7.03719">
        <ele>937</ele>
        <time>2022-07-16T07:27:52.790Z</time>
      </trkpt>
      <trkpt lat="46.08233" lon="7.03807">
        <ele>922</ele>
        <time>2022-07-16T07:27:59.070Z</time>
      </trkpt>
      <trkpt lat="46.08326" lon="7.03925">
        <ele>910</ele>
        <time>2022-07-16T07:28:08.696Z</time>
      </trkpt>
      <trkpt lat="46.08371" lon="7.03972">
        <ele>901</ele>
        <time>2022-07-16T07:28:13.013Z</time>
      </trkpt>
      <trkpt lat="46.08399" lon="7.03994">
        <ele>897</ele>
        <time>2022-07-16T07:28:15.490Z</time>
      </trkpt>
      <trkpt lat="46.08428" lon="7.04002">
        <ele>900</ele>
        <time>2022-07-16T07:28:26.432Z</time>
      </trkpt>
      <trkpt lat="46.08457" lon="7.04002">
        <ele>907</ele>
        <time>2022-07-16T07:28:42.123Z</time>
      </trkpt>
      <trkpt lat="46.08467" lon="7.04005">
        <ele>909</ele>
        <time>2022-07-16T07:28:47.650Z</time>
      </trkpt>
      <trkpt lat="46.08485" lon="7.04016">
        <ele>909</ele>
        <time>2022-07-16T07:28:50.392Z</time>
      </trkpt>
      <trkpt lat="46.08524" lon="7.04091">
        <ele>896</ele>
        <time>2022-07-16T07:28:55.443Z</time>
      </trkpt>
      <trkpt lat="46.0858" lon="7.04186">
        <ele>886</ele>
        <time>2022-07-16T07:29:02.162Z</time>
      </trkpt>
      <trkpt lat="46.08674" lon="7.04306">
        <ele>874</ele>
        <time>2022-07-16T07:29:11.916Z</time>
      </trkpt>
      <trkpt lat="46.08731" lon="7.04374">
        <ele>867</ele>
        <time>2022-07-16T07:29:17.664Z</time>
      </trkpt>
      <trkpt lat="46.08883" lon="7.04518">
        <ele>848</ele>
        <time>2022-07-16T07:29:31.795Z</time>
      </trkpt>
      <trkpt lat="46.08905" lon="7.04535">
        <ele>846</ele>
        <time>2022-07-16T07:29:33.734Z</time>
      </trkpt>
      <trkpt lat="46.08927" lon="7.04542">
        <ele>848</ele>
        <time>2022-07-16T07:29:41.142Z</time>
      </trkpt>
      <trkpt lat="46.08958" lon="7.04557">
        <ele>847</ele>
        <time>2022-07-16T07:29:44.346Z</time>
      </trkpt>
      <trkpt lat="46.09009" lon="7.04598">
        <ele>838</ele>
        <time>2022-07-16T07:29:48.882Z</time>
      </trkpt>
      <trkpt lat="46.09056" lon="7.04645">
        <ele>833</ele>
        <time>2022-07-16T07:29:53.326Z</time>
      </trkpt>
      <trkpt lat="46.0909" lon="7.04688">
        <ele>826</ele>
        <time>2022-07-16T07:29:56.840Z</time>
      </trkpt>
      <trkpt lat="46.09121" lon="7.04735">
        <ele>824</ele>
        <time>2022-07-16T07:30:00.689Z</time>
      </trkpt>
      <trkpt lat="46.09143" lon="7.04782">
        <ele>820</ele>
        <time>2022-07-16T07:30:03.745Z</time>
      </trkpt>
      <trkpt lat="46.09177" lon="7.04888">
        <ele>804</ele>
        <time>2022-07-16T07:30:10.037Z</time>
      </trkpt>
      <trkpt lat="46.09191" lon="7.04913">
        <ele>803</ele>
        <time>2022-07-16T07:30:11.937Z</time>
      </trkpt>
      <trkpt lat="46.09233" lon="7.04964">
        <ele>807</ele>
        <time>2022-07-16T07:30:27.777Z</time>
      </trkpt>
      <trkpt lat="46.09332" lon="7.05121">
        <ele>787</ele>
        <time>2022-07-16T07:30:39.210Z</time>
      </trkpt>
      <trkpt lat="46.09359" lon="7.05157">
        <ele>782</ele>
        <time>2022-07-16T07:30:42.067Z</time>
      </trkpt>
      <trkpt lat="46.09391" lon="7.05193">
        <ele>778</ele>
        <time>2022-07-16T07:30:45.220Z</time>
      </trkpt>
      <trkpt lat="46.09424" lon="7.05225">
        <ele>773</ele>
        <time>2022-07-16T07:30:48.310Z</time>
      </trkpt>
      <trkpt lat="46.09475" lon="7.05257">
        <ele>776</ele>
        <time>2022-07-16T07:31:02.313Z</time>
      </trkpt>
      <trkpt lat="46.0952" lon="7.05292">
        <ele>775</ele>
        <time>2022-07-16T07:31:07.973Z</time>
      </trkpt>
      <trkpt lat="46.09665" lon="7.05424">
        <ele>744</ele>
        <time>2022-07-16T07:31:21.296Z</time>
      </trkpt>
      <trkpt lat="46.09724" lon="7.05458">
        <ele>744</ele>
        <time>2022-07-16T07:31:30.209Z</time>
      </trkpt>
      <trkpt lat="46.09758" lon="7.05496">
        <ele>739</ele>
        <time>2022-07-16T07:31:33.551Z</time>
      </trkpt>
      <trkpt lat="46.09922" lon="7.05709">
        <ele>718</ele>
        <time>2022-07-16T07:31:50.698Z</time>
      </trkpt>
      <trkpt lat="46.09942" lon="7.05742">
        <ele>714</ele>
        <time>2022-07-16T07:31:53.059Z</time>
      </trkpt>
      <trkpt lat="46.0997" lon="7.05798">
        <ele>712</ele>
        <time>2022-07-16T07:31:57.259Z</time>
      </trkpt>
      <trkpt lat="46.10009" lon="7.05944">
        <ele>699</ele>
        <time>2022-07-16T07:32:05.688Z</time>
      </trkpt>
      <trkpt lat="46.10041" lon="7.06026">
        <ele>695</ele>
        <time>2022-07-16T07:32:10.528Z</time>
      </trkpt>
      <trkpt lat="46.10062" lon="7.06065">
        <ele>690</ele>
        <time>2022-07-16T07:32:13.189Z</time>
      </trkpt>
      <trkpt lat="46.1011" lon="7.06118">
        <ele>687</ele>
        <time>2022-07-16T07:32:18.130Z</time>
      </trkpt>
      <trkpt lat="46.10186" lon="7.06211">
        <ele>677</ele>
        <time>2022-07-16T07:32:25.873Z</time>
      </trkpt>
      <trkpt lat="46.10333" lon="7.06404">
        <ele>665</ele>
        <time>2022-07-16T07:32:40.732Z</time>
      </trkpt>
      <trkpt lat="46.10363" lon="7.0642">
        <ele>670</ele>
        <time>2022-07-16T07:32:58.038Z</time>
      </trkpt>
      <trkpt lat="46.10367" lon="7.06427">
        <ele>669</ele>
        <time>2022-07-16T07:32:58.527Z</time>
      </trkpt>
      <trkpt lat="46.10367" lon="7.06438">
        <ele>663</ele>
        <time>2022-07-16T07:32:59.119Z</time>
      </trkpt>
      <trkpt lat="46.10363" lon="7.06445">
        <ele>658</ele>
        <time>2022-07-16T07:32:59.608Z</time>
      </trkpt>
      <trkpt lat="46.10357" lon="7.06448">
        <ele>654</ele>
        <time>2022-07-16T07:33:00.101Z</time>
      </trkpt>
      <trkpt lat="46.10348" lon="7.06444">
        <ele>652</ele>
        <time>2022-07-16T07:33:00.833Z</time>
      </trkpt>
      <trkpt lat="46.10306" lon="7.06395">
        <ele>655</ele>
        <time>2022-07-16T07:33:14.582Z</time>
      </trkpt>
      <trkpt lat="46.10154" lon="7.06269">
        <ele>637</ele>
        <time>2022-07-16T07:33:28.203Z</time>
      </trkpt>
      <trkpt lat="46.10124" lon="7.06247">
        <ele>633</ele>
        <time>2022-07-16T07:33:30.818Z</time>
      </trkpt>
      <trkpt lat="46.10083" lon="7.06219">
        <ele>627</ele>
        <time>2022-07-16T07:33:34.342Z</time>
      </trkpt>
      <trkpt lat="46.10023" lon="7.06199">
        <ele>612</ele>
        <time>2022-07-16T07:33:39.127Z</time>
      </trkpt>
      <trkpt lat="46.09998" lon="7.06185">
        <ele>611</ele>
        <time>2022-07-16T07:33:41.583Z</time>
      </trkpt>
      <trkpt lat="46.09962" lon="7.06124">
        <ele>621</ele>
        <time>2022-07-16T07:34:11.635Z</time>
      </trkpt>
      <trkpt lat="46.09949" lon="7.06107">
        <ele>622</ele>
        <time>2022-07-16T07:34:16.146Z</time>
      </trkpt>
      <trkpt lat="46.09783" lon="7.05944">
        <ele>602</ele>
        <time>2022-07-16T07:34:31.749Z</time>
      </trkpt>
      <trkpt lat="46.09775" lon="7.05939">
        <ele>602</ele>
        <time>2022-07-16T07:34:32.972Z</time>
      </trkpt>
      <trkpt lat="46.09758" lon="7.05937">
        <ele>599</ele>
        <time>2022-07-16T07:34:34.297Z</time>
      </trkpt>
      <trkpt lat="46.09719" lon="7.05952">
        <ele>585</ele>
        <time>2022-07-16T07:34:37.433Z</time>
      </trkpt>
      <trkpt lat="46.09689" lon="7.05945">
        <ele>582</ele>
        <time>2022-07-16T07:34:39.794Z</time>
      </trkpt>
      <trkpt lat="46.0967" lon="7.05935">
        <ele>584</ele>
        <time>2022-07-16T07:34:47.093Z</time>
      </trkpt>
      <trkpt lat="46.09582" lon="7.05875">
        <ele>570</ele>
        <time>2022-07-16T07:34:54.656Z</time>
      </trkpt>
      <trkpt lat="46.0954" lon="7.05824">
        <ele>571</ele>
        <time>2022-07-16T07:35:03.900Z</time>
      </trkpt>
      <trkpt lat="46.095" lon="7.05791">
        <ele>568</ele>
        <time>2022-07-16T07:35:07.220Z</time>
      </trkpt>
      <trkpt lat="46.09391" lon="7.05723">
        <ele>550</ele>
        <time>2022-07-16T07:35:16.447Z</time>
      </trkpt>
      <trkpt lat="46.09333" lon="7.05662">
        <ele>548</ele>
        <time>2022-07-16T07:35:23.685Z</time>
      </trkpt>
      <trkpt lat="46.0929" lon="7.05611">
        <ele>546</ele>
        <time>2022-07-16T07:35:28.852Z</time>
      </trkpt>
      <trkpt lat="46.09268" lon="7.05591">
        <ele>542</ele>
        <time>2022-07-16T07:35:30.873Z</time>
      </trkpt>
      <trkpt lat="46.09241" lon="7.05576">
        <ele>537</ele>
        <time>2022-07-16T07:35:33.121Z</time>
      </trkpt>
      <trkpt lat="46.09219" lon="7.05559">
        <ele>535</ele>
        <time>2022-07-16T07:35:35.060Z</time>
      </trkpt>
      <trkpt lat="46.09165" lon="7.05504">
        <ele>532</ele>
        <time>2022-07-16T07:35:40.671Z</time>
      </trkpt>
      <trkpt lat="46.09138" lon="7.05486">
        <ele>529</ele>
        <time>2022-07-16T07:35:42.982Z</time>
      </trkpt>
      <trkpt lat="46.09048" lon="7.05449">
        <ele>521</ele>
        <time>2022-07-16T07:35:50.253Z</time>
      </trkpt>
      <trkpt lat="46.09007" lon="7.05435">
        <ele>522</ele>
        <time>2022-07-16T07:35:57.806Z</time>
      </trkpt>
      <trkpt lat="46.0899" lon="7.05434">
        <ele>521</ele>
        <time>2022-07-16T07:35:59.094Z</time>
      </trkpt>
      <trkpt lat="46.08975" lon="7.0544">
        <ele>518</ele>
        <time>2022-07-16T07:36:00.303Z</time>
      </trkpt>
      <trkpt lat="46.08924" lon="7.05481">
        <ele>502</ele>
        <time>2022-07-16T07:36:04.840Z</time>
      </trkpt>
      <trkpt lat="46.08911" lon="7.05487">
        <ele>501</ele>
        <time>2022-07-16T07:36:05.900Z</time>
      </trkpt>
      <trkpt lat="46.0884" lon="7.05494">
        <ele>505</ele>
        <time>2022-07-16T07:36:24.096Z</time>
      </trkpt>
      <trkpt lat="46.0882" lon="7.05506">
        <ele>504</ele>
        <time>2022-07-16T07:36:25.921Z</time>
      </trkpt>
      <trkpt lat="46.08805" lon="7.05522">
        <ele>504</ele>
        <time>2022-07-16T07:36:28.539Z</time>
      </trkpt>
      <trkpt lat="46.08799" lon="7.05522">
        <ele>504</ele>
        <time>2022-07-16T07:36:29.380Z</time>
      </trkpt>
      <trkpt lat="46.08795" lon="7.05525">
        <ele>504</ele>
        <time>2022-07-16T07:36:30.013Z</time>
      </trkpt>
      <trkpt lat="46.08678" lon="7.05458">
        <ele>510</ele>
        <time>2022-07-16T07:37:00.425Z</time>
      </trkpt>
      <trkpt lat="46.0867" lon="7.05459">
        <ele>510</ele>
        <time>2022-07-16T07:37:01.551Z</time>
      </trkpt>
      <trkpt lat="46.08653" lon="7.05452">
        <ele>511</ele>
        <time>2022-07-16T07:37:06.083Z</time>
      </trkpt>
      <trkpt lat="46.08617" lon="7.05443">
        <ele>513</ele>
        <time>2022-07-16T07:37:15.332Z</time>
      </trkpt>
      <trkpt lat="46.08579" lon="7.05438">
        <ele>515</ele>
        <time>2022-07-16T07:37:24.842Z</time>
      </trkpt>
      <trkpt lat="46.08512" lon="7.05437">
        <ele>516</ele>
        <time>2022-07-16T07:37:35.729Z</time>
      </trkpt>
      <trkpt lat="46.08453" lon="7.05431">
        <ele>516</ele>
        <time>2022-07-16T07:37:44.026Z</time>
      </trkpt>
      <trkpt lat="46.08433" lon="7.05419">
        <ele>517</ele>
        <time>2022-07-16T07:37:49.209Z</time>
      </trkpt>
      <trkpt lat="46.08416" lon="7.05405">
        <ele>519</ele>
        <time>2022-07-16T07:37:56.504Z</time>
      </trkpt>
      <trkpt lat="46.08391" lon="7.05369">
        <ele>522</ele>
        <time>2022-07-16T07:38:07.741Z</time>
      </trkpt>
      <trkpt lat="46.08343" lon="7.05317">
        <ele>526</ele>
        <time>2022-07-16T07:38:24.267Z</time>
      </trkpt>
      <trkpt lat="46.08329" lon="7.05307">
        <ele>529</ele>
        <time>2022-07-16T07:38:32.721Z</time>
      </trkpt>
      <trkpt lat="46.08305" lon="7.05296">
        <ele>533</ele>
        <time>2022-07-16T07:38:46.347Z</time>
      </trkpt>
      <trkpt lat="46.08274" lon="7.05289">
        <ele>536</ele>
        <time>2022-07-16T07:38:57.323Z</time>
      </trkpt>
      <trkpt lat="46.0824" lon="7.05298">
        <ele>535</ele>
        <time>2022-07-16T07:39:00.770Z</time>
      </trkpt>
      <trkpt lat="46.08153" lon="7.05347">
        <ele>535</ele>
        <time>2022-07-16T07:39:13.872Z</time>
      </trkpt>
      <trkpt lat="46.08126" lon="7.05358">
        <ele>534</ele>
        <time>2022-07-16T07:39:16.483Z</time>
      </trkpt>
      <trkpt lat="46.07976" lon="7.05366">
        <ele>539</ele>
        <time>2022-07-16T07:39:46.784Z</time>
      </trkpt>
      <trkpt lat="46.07931" lon="7.05362">
        <ele>540</ele>
        <time>2022-07-16T07:39:54.721Z</time>
      </trkpt>
      <trkpt lat="46.0792" lon="7.05359">
        <ele>540</ele>
        <time>2022-07-16T07:39:56.291Z</time>
      </trkpt>
      <trkpt lat="46.07893" lon="7.05341">
        <ele>541</ele>
        <time>2022-07-16T07:40:02.321Z</time>
      </trkpt>
      <trkpt lat="46.07775" lon="7.05248">
        <ele>548</ele>
        <time>2022-07-16T07:40:35.756Z</time>
      </trkpt>
      <trkpt lat="46.07712" lon="7.05203">
        <ele>550</ele>
        <time>2022-07-16T07:40:49.094Z</time>
      </trkpt>
      <trkpt lat="46.07685" lon="7.05187">
        <ele>552</ele>
        <time>2022-07-16T07:40:57.243Z</time>
      </trkpt>
      <trkpt lat="46.07661" lon="7.05176">
        <ele>555</ele>
        <time>2022-07-16T07:41:08.534Z</time>
      </trkpt>
      <trkpt lat="46.07641" lon="7.0517">
        <ele>559</ele>
        <time>2022-07-16T07:41:19.587Z</time>
      </trkpt>
      <trkpt lat="46.07614" lon="7.05166">
        <ele>564</ele>
        <time>2022-07-16T07:41:34.273Z</time>
      </trkpt>
      <trkpt lat="46.07587" lon="7.05164">
        <ele>568</ele>
        <time>2022-07-16T07:41:48.901Z</time>
      </trkpt>
      <trkpt lat="46.07552" lon="7.05169">
        <ele>575</ele>
        <time>2022-07-16T07:42:07.931Z</time>
      </trkpt>
      <trkpt lat="46.07479" lon="7.05206">
        <ele>584</ele>
        <time>2022-07-16T07:42:41.492Z</time>
      </trkpt>
      <trkpt lat="46.07448" lon="7.05231">
        <ele>589</ele>
        <time>2022-07-16T07:43:00.711Z</time>
      </trkpt>
      <trkpt lat="46.07423" lon="7.05256">
        <ele>590</ele>
        <time>2022-07-16T07:43:06.817Z</time>
      </trkpt>
      <trkpt lat="46.07407" lon="7.05278">
        <ele>590</ele>
        <time>2022-07-16T07:43:09.919Z</time>
      </trkpt>
      <trkpt lat="46.07384" lon="7.05319">
        <ele>592</ele>
        <time>2022-07-16T07:43:19.175Z</time>
      </trkpt>
      <trkpt lat="46.07357" lon="7.05398">
        <ele>591</ele>
        <time>2022-07-16T07:43:26.203Z</time>
      </trkpt>
      <trkpt lat="46.07346" lon="7.0545">
        <ele>587</ele>
        <time>2022-07-16T07:43:29.133Z</time>
      </trkpt>
      <trkpt lat="46.07324" lon="7.05669">
        <ele>590</ele>
        <time>2022-07-16T07:43:55.362Z</time>
      </trkpt>
      <trkpt lat="46.07276" lon="7.05816">
        <ele>604</ele>
        <time>2022-07-16T07:44:49.173Z</time>
      </trkpt>
      <trkpt lat="46.07266" lon="7.05857">
        <ele>608</ele>
        <time>2022-07-16T07:45:05.308Z</time>
      </trkpt>
      <trkpt lat="46.07262" lon="7.05889">
        <ele>610</ele>
        <time>2022-07-16T07:45:12.718Z</time>
      </trkpt>
      <trkpt lat="46.07261" lon="7.05948">
        <ele>610</ele>
        <time>2022-07-16T07:45:18.461Z</time>
      </trkpt>
      <trkpt lat="46.07268" lon="7.06012">
        <ele>606</ele>
        <time>2022-07-16T07:45:21.954Z</time>
      </trkpt>
      <trkpt lat="46.07298" lon="7.06221">
        <ele>596</ele>
        <time>2022-07-16T07:45:33.457Z</time>
      </trkpt>
      <trkpt lat="46.0731" lon="7.06439">
        <ele>606</ele>
        <time>2022-07-16T07:46:15.001Z</time>
      </trkpt>
      <trkpt lat="46.07322" lon="7.06492">
        <ele>604</ele>
        <time>2022-07-16T07:46:18.106Z</time>
      </trkpt>
      <trkpt lat="46.07339" lon="7.06535">
        <ele>604</ele>
        <time>2022-07-16T07:46:22.922Z</time>
      </trkpt>
      <trkpt lat="46.07358" lon="7.06571">
        <ele>605</ele>
        <time>2022-07-16T07:46:29.139Z</time>
      </trkpt>
      <trkpt lat="46.07436" lon="7.06688">
        <ele>608</ele>
        <time>2022-07-16T07:46:50.029Z</time>
      </trkpt>
      <trkpt lat="46.07466" lon="7.06745">
        <ele>608</ele>
        <time>2022-07-16T07:46:56.992Z</time>
      </trkpt>
      <trkpt lat="46.07484" lon="7.06795">
        <ele>610</ele>
        <time>2022-07-16T07:47:06.651Z</time>
      </trkpt>
      <trkpt lat="46.07497" lon="7.06854">
        <ele>613</ele>
        <time>2022-07-16T07:47:18.760Z</time>
      </trkpt>
      <trkpt lat="46.07506" lon="7.06928">
        <ele>615</ele>
        <time>2022-07-16T07:47:30.034Z</time>
      </trkpt>
      <trkpt lat="46.07518" lon="7.07077">
        <ele>616</ele>
        <time>2022-07-16T07:47:46.040Z</time>
      </trkpt>
      <trkpt lat="46.07513" lon="7.07088">
        <ele>617</ele>
        <time>2022-07-16T07:47:49.712Z</time>
      </trkpt>
      <trkpt lat="46.07511" lon="7.07103">
        <ele>619</ele>
        <time>2022-07-16T07:47:55.445Z</time>
      </trkpt>
      <trkpt lat="46.07512" lon="7.07122">
        <ele>621</ele>
        <time>2022-07-16T07:48:02.597Z</time>
      </trkpt>
      <trkpt lat="46.07525" lon="7.07167">
        <ele>621</ele>
        <time>2022-07-16T07:48:07.340Z</time>
      </trkpt>
      <trkpt lat="46.07552" lon="7.07234">
        <ele>617</ele>
        <time>2022-07-16T07:48:11.517Z</time>
      </trkpt>
      <trkpt lat="46.07573" lon="7.07275">
        <ele>616</ele>
        <time>2022-07-16T07:48:15.065Z</time>
      </trkpt>
      <trkpt lat="46.07636" lon="7.07363">
        <ele>617</ele>
        <time>2022-07-16T07:48:28.806Z</time>
      </trkpt>
      <trkpt lat="46.07655" lon="7.07397">
        <ele>618</ele>
        <time>2022-07-16T07:48:34.896Z</time>
      </trkpt>
      <trkpt lat="46.07665" lon="7.07418">
        <ele>620</ele>
        <time>2022-07-16T07:48:42.292Z</time>
      </trkpt>
      <trkpt lat="46.07689" lon="7.07484">
        <ele>625</ele>
        <time>2022-07-16T07:49:00.566Z</time>
      </trkpt>
      <trkpt lat="46.0773" lon="7.07576">
        <ele>625</ele>
        <time>2022-07-16T07:49:11.207Z</time>
        <extensions>
          <visugpx:TrkExtension xmlns:visugpx="https://www.visugpx.com/editgpx/">
            <visugpx:node>1</visugpx:node>
            </visugpx:TrkExtension>
        </extensions>
      </trkpt>
      <trkpt lat="46.0775" lon="7.07624">
        <ele>627.9</ele>
      </trkpt>
      <trkpt lat="46.07754" lon="7.07645">
        <ele>628.3</ele>
      </trkpt>
      <trkpt lat="46.07762" lon="7.07785">
        <ele>629.9</ele>
      </trkpt>
      <trkpt lat="46.07765" lon="7.07814">
        <ele>629.5</ele>
      </trkpt>
      <trkpt lat="46.07772" lon="7.07852">
        <ele>628.8</ele>
      </trkpt>
      <trkpt lat="46.07804" lon="7.07961">
        <ele>628.4</ele>
      </trkpt>
      <trkpt lat="46.07808" lon="7.07991">
        <ele>628.7</ele>
      </trkpt>
      <trkpt lat="46.07808" lon="7.08011">
        <ele>627.9</ele>
      </trkpt>
      <trkpt lat="46.07801" lon="7.08071">
        <ele>628</ele>
      </trkpt>
      <trkpt lat="46.07808" lon="7.08116">
        <ele>627.6</ele>
      </trkpt>
      <trkpt lat="46.07824" lon="7.08163">
        <ele>628.4</ele>
      </trkpt>
      <trkpt lat="46.07827" lon="7.0818">
        <ele>627.4</ele>
      </trkpt>
      <trkpt lat="46.07828" lon="7.08213">
        <ele>626</ele>
      </trkpt>
      <trkpt lat="46.07827" lon="7.08273">
        <ele>623.9</ele>
      </trkpt>
      <trkpt lat="46.07813" lon="7.08334">
        <ele>625</ele>
      </trkpt>
      <trkpt lat="46.07812" lon="7.08358">
        <ele>624</ele>
      </trkpt>
      <trkpt lat="46.07813" lon="7.08371">
        <ele>623.6</ele>
      </trkpt>
      <trkpt lat="46.07817" lon="7.08385">
        <ele>622</ele>
      </trkpt>
      <trkpt lat="46.07867" lon="7.085">
        <ele>619.2</ele>
      </trkpt>
      <trkpt lat="46.07889" lon="7.08546">
        <ele>616</ele>
      </trkpt>
      <trkpt lat="46.07902" lon="7.08565">
        <ele>617.1</ele>
      </trkpt>
      <trkpt lat="46.07924" lon="7.08586">
        <ele>616.4</ele>
      </trkpt>
      <trkpt lat="46.08025" lon="7.08678">
        <ele>616.5</ele>
      </trkpt>
      <trkpt lat="46.08034" lon="7.0869">
        <ele>616.6</ele>
      </trkpt>
      <trkpt lat="46.08041" lon="7.08707">
        <ele>616.8</ele>
      </trkpt>
      <trkpt lat="46.08047" lon="7.08733">
        <ele>617</ele>
      </trkpt>
      <trkpt lat="46.08053" lon="7.08779">
        <ele>617</ele>
      </trkpt>
      <trkpt lat="46.08056" lon="7.08817">
        <ele>616</ele>
      </trkpt>
      <trkpt lat="46.08059" lon="7.08842">
        <ele>615.9</ele>
      </trkpt>
      <trkpt lat="46.08071" lon="7.08888">
        <ele>616.2</ele>
      </trkpt>
      <trkpt lat="46.08073" lon="7.08892">
        <ele>616</ele>
      </trkpt>
      <trkpt lat="46.08084" lon="7.08895">
        <ele>613.7</ele>
      </trkpt>
      <trkpt lat="46.08078" lon="7.08994">
        <ele>616.2</ele>
      </trkpt>
      <trkpt lat="46.08077" lon="7.09056">
        <ele>616.9</ele>
      </trkpt>
      <trkpt lat="46.08086" lon="7.09124">
        <ele>614.4</ele>
      </trkpt>
      <trkpt lat="46.08101" lon="7.09184">
        <ele>617</ele>
      </trkpt>
      <trkpt lat="46.08111" lon="7.09216">
        <ele>616.5</ele>
      </trkpt>
      <trkpt lat="46.0816" lon="7.09332">
        <ele>615.5</ele>
      </trkpt>
      <trkpt lat="46.08172" lon="7.09357">
        <ele>616.1</ele>
      </trkpt>
      <trkpt lat="46.08203" lon="7.09436">
        <ele>615.2</ele>
      </trkpt>
      <trkpt lat="46.08214" lon="7.09481">
        <ele>617.4</ele>
      </trkpt>
      <trkpt lat="46.08224" lon="7.09546">
        <ele>617.6</ele>
      </trkpt>
      <trkpt lat="46.08228" lon="7.09586">
        <ele>619.3</ele>
      </trkpt>
      <trkpt lat="46.08229" lon="7.09621">
        <ele>618.8</ele>
      </trkpt>
      <trkpt lat="46.08228" lon="7.0967">
        <ele>620</ele>
      </trkpt>
      <trkpt lat="46.08224" lon="7.09717">
        <ele>621.9</ele>
      </trkpt>
      <trkpt lat="46.08226" lon="7.09737">
        <ele>623.2</ele>
      </trkpt>
      <trkpt lat="46.0822" lon="7.09816">
        <ele>625.5</ele>
      </trkpt>
      <trkpt lat="46.08214" lon="7.09908">
        <ele>626.8</ele>
      </trkpt>
      <trkpt lat="46.08197" lon="7.10247">
        <ele>631</ele>
      </trkpt>
      <trkpt lat="46.08189" lon="7.10456">
        <ele>633.6</ele>
      </trkpt>
      <trkpt lat="46.08178" lon="7.10561">
        <ele>633.7</ele>
      </trkpt>
      <trkpt lat="46.08171" lon="7.10598">
        <ele>636</ele>
      </trkpt>
      <trkpt lat="46.08141" lon="7.10733">
        <ele>639</ele>
      </trkpt>
      <trkpt lat="46.08131" lon="7.10795">
        <ele>639.8</ele>
      </trkpt>
      <trkpt lat="46.08128" lon="7.10908">
        <ele>641</ele>
      </trkpt>
      <trkpt lat="46.08125" lon="7.10986">
        <ele>644.1</ele>
      </trkpt>
      <trkpt lat="46.08111" lon="7.11106">
        <ele>645.8</ele>
      </trkpt>
      <trkpt lat="46.08096" lon="7.1117">
        <ele>646.7</ele>
      </trkpt>
      <trkpt lat="46.08076" lon="7.11242">
        <ele>647.7</ele>
      </trkpt>
      <trkpt lat="46.0806" lon="7.11317">
        <ele>650.2</ele>
      </trkpt>
      <trkpt lat="46.08051" lon="7.11391">
        <ele>651.4</ele>
      </trkpt>
      <trkpt lat="46.08042" lon="7.11529">
        <ele>654.5</ele>
      </trkpt>
      <trkpt lat="46.08036" lon="7.1157">
        <ele>656.4</ele>
      </trkpt>
      <trkpt lat="46.08029" lon="7.11607">
        <ele>657.1</ele>
      </trkpt>
      <trkpt lat="46.08006" lon="7.11678">
        <ele>660.4</ele>
      </trkpt>
      <trkpt lat="46.07993" lon="7.11727">
        <ele>659.6</ele>
      </trkpt>
      <trkpt lat="46.07981" lon="7.11784">
        <ele>660.3</ele>
      </trkpt>
      <trkpt lat="46.0797" lon="7.11866">
        <ele>663.5</ele>
      </trkpt>
      <trkpt lat="46.07963" lon="7.11927">
        <ele>666.3</ele>
      </trkpt>
      <trkpt lat="46.0795" lon="7.11956">
        <ele>665.6</ele>
      </trkpt>
      <trkpt lat="46.0792" lon="7.1207">
        <ele>666.3</ele>
      </trkpt>
      <trkpt lat="46.07894" lon="7.12154">
        <ele>674.6</ele>
      </trkpt>
      <trkpt lat="46.07877" lon="7.12216">
        <ele>672</ele>
      </trkpt>
      <trkpt lat="46.0783" lon="7.12377">
        <ele>674.9</ele>
      </trkpt>
      <trkpt lat="46.07822" lon="7.12415">
        <ele>675.7</ele>
      </trkpt>
      <trkpt lat="46.07817" lon="7.12452">
        <ele>676.4</ele>
      </trkpt>
      <trkpt lat="46.07815" lon="7.125">
        <ele>677.7</ele>
      </trkpt>
      <trkpt lat="46.07817" lon="7.12531">
        <ele>678.2</ele>
      </trkpt>
      <trkpt lat="46.07825" lon="7.12587">
        <ele>681.1</ele>
      </trkpt>
      <trkpt lat="46.07836" lon="7.12624">
        <ele>679.8</ele>
      </trkpt>
      <trkpt lat="46.07855" lon="7.12669">
        <ele>681.9</ele>
      </trkpt>
      <trkpt lat="46.07901" lon="7.1275">
        <ele>682.6</ele>
      </trkpt>
      <trkpt lat="46.07928" lon="7.12806">
        <ele>686.4</ele>
      </trkpt>
      <trkpt lat="46.07934" lon="7.12836">
        <ele>688.6</ele>
      </trkpt>
      <trkpt lat="46.0794" lon="7.12896">
        <ele>689.7</ele>
      </trkpt>
      <trkpt lat="46.07941" lon="7.12937">
        <ele>690.6</ele>
      </trkpt>
      <trkpt lat="46.07936" lon="7.12995">
        <ele>693.7</ele>
      </trkpt>
      <trkpt lat="46.0792" lon="7.13071">
        <ele>692.9</ele>
      </trkpt>
      <trkpt lat="46.07907" lon="7.13122">
        <ele>692.3</ele>
      </trkpt>
      <trkpt lat="46.0789" lon="7.13178">
        <ele>687.1</ele>
      </trkpt>
      <trkpt lat="46.07839" lon="7.13324">
        <ele>691.8</ele>
      </trkpt>
      <trkpt lat="46.07823" lon="7.13387">
        <ele>693.1</ele>
      </trkpt>
      <trkpt lat="46.07806" lon="7.13564">
        <ele>694</ele>
      </trkpt>
      <trkpt lat="46.07799" lon="7.13717">
        <ele>696.3</ele>
      </trkpt>
      <trkpt lat="46.07793" lon="7.13718">
        <ele>696.5</ele>
      </trkpt>
      <trkpt lat="46.07789" lon="7.13723">
        <ele>696.6</ele>
      </trkpt>
      <trkpt lat="46.07787" lon="7.13733">
        <ele>696.9</ele>
      </trkpt>
      <trkpt lat="46.07792" lon="7.13747">
        <ele>697</ele>
      </trkpt>
      <trkpt lat="46.07799" lon="7.13749">
        <ele>696.5</ele>
      </trkpt>
      <trkpt lat="46.07797" lon="7.13809">
        <ele>696.7</ele>
      </trkpt>
      <trkpt lat="46.07797" lon="7.13895">
        <ele>698.1</ele>
      </trkpt>
      <trkpt lat="46.07799" lon="7.13964">
        <ele>698.8</ele>
      </trkpt>
      <trkpt lat="46.07807" lon="7.141">
        <ele>699.9</ele>
      </trkpt>
      <trkpt lat="46.07815" lon="7.14192">
        <ele>700.2</ele>
      </trkpt>
      <trkpt lat="46.07823" lon="7.14242">
        <ele>700.9</ele>
      </trkpt>
      <trkpt lat="46.07836" lon="7.14315">
        <ele>701.8</ele>
      </trkpt>
      <trkpt lat="46.0785" lon="7.14355">
        <ele>702.1</ele>
      </trkpt>
      <trkpt lat="46.07881" lon="7.14413">
        <ele>702.1</ele>
      </trkpt>
      <trkpt lat="46.07889" lon="7.14432">
        <ele>702.5</ele>
      </trkpt>
      <trkpt lat="46.07902" lon="7.14486">
        <ele>701.3</ele>
      </trkpt>
      <trkpt lat="46.07904" lon="7.14531">
        <ele>703.1</ele>
      </trkpt>
      <trkpt lat="46.079" lon="7.14534">
        <ele>703.2</ele>
      </trkpt>
      <trkpt lat="46.07896" lon="7.14541">
        <ele>703.5</ele>
      </trkpt>
      <trkpt lat="46.07895" lon="7.14548">
        <ele>703.7</ele>
      </trkpt>
      <trkpt lat="46.07896" lon="7.14554">
        <ele>704</ele>
      </trkpt>
      <trkpt lat="46.07899" lon="7.14559">
        <ele>703.8</ele>
      </trkpt>
      <trkpt lat="46.07903" lon="7.14562">
        <ele>703.7</ele>
      </trkpt>
      <trkpt lat="46.07909" lon="7.14563">
        <ele>703.5</ele>
      </trkpt>
      <trkpt lat="46.07911" lon="7.14629">
        <ele>702.6</ele>
      </trkpt>
      <trkpt lat="46.07924" lon="7.14826">
        <ele>704.4</ele>
      </trkpt>
      <trkpt lat="46.07924" lon="7.1485">
        <ele>704.3</ele>
      </trkpt>
      <trkpt lat="46.07933" lon="7.14956">
        <ele>703.5</ele>
      </trkpt>
      <trkpt lat="46.07931" lon="7.15037">
        <ele>705.3</ele>
      </trkpt>
      <trkpt lat="46.07916" lon="7.15225">
        <ele>710.7</ele>
      </trkpt>
      <trkpt lat="46.07904" lon="7.15275">
        <ele>710.2</ele>
      </trkpt>
      <trkpt lat="46.07897" lon="7.15292">
        <ele>711.6</ele>
      </trkpt>
      <trkpt lat="46.07878" lon="7.15323">
        <ele>714.1</ele>
      </trkpt>
      <trkpt lat="46.07867" lon="7.15336">
        <ele>715.6</ele>
      </trkpt>
      <trkpt lat="46.07821" lon="7.15375">
        <ele>719</ele>
      </trkpt>
      <trkpt lat="46.07817" lon="7.1538">
        <ele>719.2</ele>
      </trkpt>
      <trkpt lat="46.07682" lon="7.15493">
        <ele>728.4</ele>
      </trkpt>
      <trkpt lat="46.07666" lon="7.15501">
        <ele>729</ele>
      </trkpt>
      <trkpt lat="46.07639" lon="7.15505">
        <ele>730.8</ele>
      </trkpt>
      <trkpt lat="46.07626" lon="7.15505">
        <ele>731.7</ele>
      </trkpt>
      <trkpt lat="46.07608" lon="7.15502">
        <ele>733</ele>
      </trkpt>
      <trkpt lat="46.07581" lon="7.15493">
        <ele>735.7</ele>
      </trkpt>
      <trkpt lat="46.07565" lon="7.15478">
        <ele>736.4</ele>
      </trkpt>
      <trkpt lat="46.07511" lon="7.15412">
        <ele>740.6</ele>
      </trkpt>
      <trkpt lat="46.075" lon="7.15404">
        <ele>738.3</ele>
      </trkpt>
      <trkpt lat="46.0748" lon="7.15397">
        <ele>737.8</ele>
      </trkpt>
      <trkpt lat="46.07467" lon="7.15396">
        <ele>736.6</ele>
      </trkpt>
      <trkpt lat="46.07343" lon="7.15399">
        <ele>740.2</ele>
      </trkpt>
      <trkpt lat="46.07323" lon="7.15408">
        <ele>737.2</ele>
      </trkpt>
      <trkpt lat="46.07314" lon="7.15415">
        <ele>734.5</ele>
      </trkpt>
      <trkpt lat="46.0725" lon="7.15472">
        <ele>741.8</ele>
      </trkpt>
      <trkpt lat="46.07233" lon="7.15484">
        <ele>746</ele>
      </trkpt>
      <trkpt lat="46.07218" lon="7.15488">
        <ele>742.4</ele>
      </trkpt>
      <trkpt lat="46.072" lon="7.15486">
        <ele>740.7</ele>
      </trkpt>
      <trkpt lat="46.07186" lon="7.1548">
        <ele>740.3</ele>
      </trkpt>
      <trkpt lat="46.07112" lon="7.15434">
        <ele>744.5</ele>
      </trkpt>
      <trkpt lat="46.07075" lon="7.15414">
        <ele>745.7</ele>
      </trkpt>
      <trkpt lat="46.07033" lon="7.15399">
        <ele>749.7</ele>
      </trkpt>
      <trkpt lat="46.06996" lon="7.15389">
        <ele>749.2</ele>
      </trkpt>
      <trkpt lat="46.06969" lon="7.15387">
        <ele>749.9</ele>
      </trkpt>
      <trkpt lat="46.0695" lon="7.15389">
        <ele>750.8</ele>
      </trkpt>
      <trkpt lat="46.06925" lon="7.15397">
        <ele>752.2</ele>
      </trkpt>
      <trkpt lat="46.06883" lon="7.15416">
        <ele>753.7</ele>
      </trkpt>
      <trkpt lat="46.06871" lon="7.15418">
        <ele>754.4</ele>
      </trkpt>
      <trkpt lat="46.06855" lon="7.15418">
        <ele>754.9</ele>
      </trkpt>
      <trkpt lat="46.06842" lon="7.15414">
        <ele>754.4</ele>
      </trkpt>
      <trkpt lat="46.06828" lon="7.15406">
        <ele>754.1</ele>
      </trkpt>
      <trkpt lat="46.06782" lon="7.15351">
        <ele>756.2</ele>
      </trkpt>
      <trkpt lat="46.06754" lon="7.15326">
        <ele>755.9</ele>
      </trkpt>
      <trkpt lat="46.06731" lon="7.15311">
        <ele>756.8</ele>
      </trkpt>
      <trkpt lat="46.06694" lon="7.15297">
        <ele>758.5</ele>
      </trkpt>
      <trkpt lat="46.06645" lon="7.15285">
        <ele>758.3</ele>
        <extensions>
          <visugpx:TrkExtension xmlns:visugpx="https://www.visugpx.com/editgpx/">
            <visugpx:node>2</visugpx:node>
            </visugpx:TrkExtension>
        </extensions>
      </trkpt>
      <trkpt lat="46.06591" lon="7.15275">
        <ele>758.6</ele>
      </trkpt>
      <trkpt lat="46.06571" lon="7.15268">
        <ele>759.8</ele>
      </trkpt>
      <trkpt lat="46.06542" lon="7.15252">
        <ele>759.4</ele>
      </trkpt>
      <trkpt lat="46.06503" lon="7.15214">
        <ele>756.4</ele>
      </trkpt>
      <trkpt lat="46.06487" lon="7.15196">
        <ele>760.2</ele>
      </trkpt>
      <trkpt lat="46.06467" lon="7.15168">
        <ele>761.2</ele>
      </trkpt>
      <trkpt lat="46.06439" lon="7.15125">
        <ele>762.9</ele>
      </trkpt>
      <trkpt lat="46.06361" lon="7.14994">
        <ele>766.5</ele>
      </trkpt>
      <trkpt lat="46.06325" lon="7.14947">
        <ele>766.8</ele>
      </trkpt>
      <trkpt lat="46.06306" lon="7.14926">
        <ele>769.3</ele>
      </trkpt>
      <trkpt lat="46.06282" lon="7.14904">
        <ele>769.4</ele>
      </trkpt>
      <trkpt lat="46.06256" lon="7.14883">
        <ele>770.8</ele>
      </trkpt>
      <trkpt lat="46.06226" lon="7.14865">
        <ele>766.7</ele>
      </trkpt>
      <trkpt lat="46.06202" lon="7.14852">
        <ele>769</ele>
      </trkpt>
      <trkpt lat="46.06175" lon="7.14843">
        <ele>773.3</ele>
      </trkpt>
      <trkpt lat="46.06107" lon="7.14827">
        <ele>778.2</ele>
      </trkpt>
      <trkpt lat="46.06073" lon="7.14826">
        <ele>780.1</ele>
      </trkpt>
      <trkpt lat="46.06036" lon="7.14827">
        <ele>784.2</ele>
      </trkpt>
      <trkpt lat="46.05969" lon="7.14836">
        <ele>788.1</ele>
      </trkpt>
      <trkpt lat="46.0593" lon="7.14847">
        <ele>786.5</ele>
      </trkpt>
      <trkpt lat="46.0588" lon="7.14866">
        <ele>785.5</ele>
      </trkpt>
      <trkpt lat="46.0572" lon="7.1495">
        <ele>790.5</ele>
      </trkpt>
      <trkpt lat="46.05702" lon="7.14958">
        <ele>791</ele>
      </trkpt>
      <trkpt lat="46.05661" lon="7.14971">
        <ele>787</ele>
      </trkpt>
      <trkpt lat="46.05618" lon="7.1498">
        <ele>785.6</ele>
      </trkpt>
      <trkpt lat="46.05602" lon="7.14983">
        <ele>786.2</ele>
      </trkpt>
      <trkpt lat="46.05546" lon="7.14985">
        <ele>792.3</ele>
      </trkpt>
      <trkpt lat="46.0552" lon="7.14983">
        <ele>793.4</ele>
      </trkpt>
      <trkpt lat="46.05402" lon="7.14965">
        <ele>793.2</ele>
      </trkpt>
      <trkpt lat="46.05358" lon="7.14962">
        <ele>796.6</ele>
      </trkpt>
      <trkpt lat="46.053" lon="7.14964">
        <ele>799.2</ele>
      </trkpt>
      <trkpt lat="46.05272" lon="7.14968">
        <ele>800.2</ele>
      </trkpt>
      <trkpt lat="46.05215" lon="7.14966">
        <ele>801.3</ele>
      </trkpt>
      <trkpt lat="46.0518" lon="7.14961">
        <ele>801.9</ele>
      </trkpt>
      <trkpt lat="46.05147" lon="7.14953">
        <ele>802.7</ele>
      </trkpt>
      <trkpt lat="46.05098" lon="7.14928">
        <ele>805.9</ele>
      </trkpt>
      <trkpt lat="46.05071" lon="7.14912">
        <ele>807.4</ele>
      </trkpt>
      <trkpt lat="46.04982" lon="7.14847">
        <ele>810.5</ele>
      </trkpt>
      <trkpt lat="46.04957" lon="7.14831">
        <ele>811.6</ele>
      </trkpt>
      <trkpt lat="46.04926" lon="7.14815">
        <ele>811.7</ele>
      </trkpt>
      <trkpt lat="46.04895" lon="7.14802">
        <ele>814</ele>
      </trkpt>
      <trkpt lat="46.04868" lon="7.14793">
        <ele>813.6</ele>
      </trkpt>
      <trkpt lat="46.0484" lon="7.14788">
        <ele>814.2</ele>
      </trkpt>
      <trkpt lat="46.048" lon="7.14785">
        <ele>816.1</ele>
      </trkpt>
      <trkpt lat="46.04774" lon="7.14785">
        <ele>816.6</ele>
      </trkpt>
      <trkpt lat="46.04718" lon="7.14796">
        <ele>818.1</ele>
      </trkpt>
      <trkpt lat="46.04678" lon="7.1481">
        <ele>821.6</ele>
      </trkpt>
      <trkpt lat="46.04571" lon="7.14858">
        <ele>824.7</ele>
      </trkpt>
      <trkpt lat="46.04527" lon="7.14873">
        <ele>822.2</ele>
      </trkpt>
      <trkpt lat="46.04496" lon="7.14878">
        <ele>824.9</ele>
      </trkpt>
      <trkpt lat="46.04462" lon="7.14882">
        <ele>828.6</ele>
      </trkpt>
      <trkpt lat="46.0442" lon="7.14882">
        <ele>829.7</ele>
      </trkpt>
      <trkpt lat="46.04382" lon="7.14877">
        <ele>828.5</ele>
      </trkpt>
      <trkpt lat="46.04338" lon="7.14865">
        <ele>830.5</ele>
      </trkpt>
      <trkpt lat="46.04292" lon="7.14847">
        <ele>831.5</ele>
      </trkpt>
      <trkpt lat="46.04233" lon="7.14813">
        <ele>834.6</ele>
      </trkpt>
      <trkpt lat="46.04178" lon="7.14777">
        <ele>837.1</ele>
      </trkpt>
      <trkpt lat="46.04097" lon="7.14733">
        <ele>839.2</ele>
      </trkpt>
      <trkpt lat="46.04043" lon="7.14713">
        <ele>843.4</ele>
      </trkpt>
      <trkpt lat="46.04014" lon="7.14705">
        <ele>845</ele>
      </trkpt>
      <trkpt lat="46.03997" lon="7.14703">
        <ele>844.4</ele>
      </trkpt>
      <trkpt lat="46.03928" lon="7.14704">
        <ele>846.8</ele>
      </trkpt>
      <trkpt lat="46.03927" lon="7.14696">
        <ele>847.2</ele>
      </trkpt>
      <trkpt lat="46.03923" lon="7.14691">
        <ele>848.8</ele>
      </trkpt>
      <trkpt lat="46.03918" lon="7.14689">
        <ele>849.8</ele>
      </trkpt>
      <trkpt lat="46.03913" lon="7.14691">
        <ele>849.3</ele>
      </trkpt>
      <trkpt lat="46.03909" lon="7.14696">
        <ele>848.2</ele>
      </trkpt>
      <trkpt lat="46.03908" lon="7.14704">
        <ele>847.8</ele>
      </trkpt>
      <trkpt lat="46.03849" lon="7.14693">
        <ele>851</ele>
      </trkpt>
      <trkpt lat="46.03825" lon="7.14693">
        <ele>852.2</ele>
      </trkpt>
      <trkpt lat="46.03787" lon="7.14699">
        <ele>852.3</ele>
      </trkpt>
      <trkpt lat="46.0372" lon="7.14716">
        <ele>855.9</ele>
      </trkpt>
      <trkpt lat="46.03675" lon="7.14721">
        <ele>851.4</ele>
      </trkpt>
      <trkpt lat="46.03644" lon="7.1472">
        <ele>855.3</ele>
      </trkpt>
      <trkpt lat="46.03563" lon="7.14703">
        <ele>866.4</ele>
      </trkpt>
      <trkpt lat="46.03524" lon="7.14696">
        <ele>868.6</ele>
      </trkpt>
      <trkpt lat="46.03484" lon="7.14695">
        <ele>871.3</ele>
      </trkpt>
      <trkpt lat="46.03461" lon="7.14697">
        <ele>873.3</ele>
      </trkpt>
      <trkpt lat="46.03432" lon="7.14703">
        <ele>875.9</ele>
      </trkpt>
      <trkpt lat="46.03376" lon="7.1472">
        <ele>879.4</ele>
      </trkpt>
      <trkpt lat="46.03326" lon="7.14737">
        <ele>882.9</ele>
      </trkpt>
      <trkpt lat="46.03296" lon="7.14743">
        <ele>884.2</ele>
      </trkpt>
      <trkpt lat="46.03254" lon="7.14748">
        <ele>888.9</ele>
      </trkpt>
      <trkpt lat="46.03221" lon="7.14747">
        <ele>891.2</ele>
      </trkpt>
      <trkpt lat="46.03126" lon="7.14735">
        <ele>894.9</ele>
      </trkpt>
      <trkpt lat="46.03086" lon="7.14733">
        <ele>898.3</ele>
      </trkpt>
      <trkpt lat="46.03011" lon="7.14734">
        <ele>902.4</ele>
      </trkpt>
      <trkpt lat="46.0292" lon="7.14749">
        <ele>912.6</ele>
      </trkpt>
      <trkpt lat="46.02886" lon="7.1475">
        <ele>914.1</ele>
      </trkpt>
      <trkpt lat="46.02842" lon="7.14751">
        <ele>917</ele>
      </trkpt>
      <trkpt lat="46.02776" lon="7.14745">
        <ele>920.1</ele>
      </trkpt>
      <trkpt lat="46.02707" lon="7.14737">
        <ele>923.5</ele>
      </trkpt>
      <trkpt lat="46.02658" lon="7.14739">
        <ele>926</ele>
      </trkpt>
      <trkpt lat="46.02591" lon="7.14748">
        <ele>930.2</ele>
      </trkpt>
      <trkpt lat="46.0257" lon="7.14748">
        <ele>931.5</ele>
      </trkpt>
      <trkpt lat="46.02552" lon="7.14747">
        <ele>932.4</ele>
      </trkpt>
      <trkpt lat="46.0253" lon="7.14741">
        <ele>932.3</ele>
      </trkpt>
      <trkpt lat="46.02506" lon="7.14733">
        <ele>931.8</ele>
      </trkpt>
      <trkpt lat="46.02477" lon="7.14713">
        <ele>934.6</ele>
      </trkpt>
      <trkpt lat="46.02423" lon="7.14668">
        <ele>939.3</ele>
      </trkpt>
      <trkpt lat="46.02401" lon="7.14655">
        <ele>938.9</ele>
      </trkpt>
      <trkpt lat="46.0239" lon="7.14651">
        <ele>939.4</ele>
      </trkpt>
      <trkpt lat="46.02368" lon="7.14648">
        <ele>941.1</ele>
      </trkpt>
      <trkpt lat="46.02347" lon="7.14653">
        <ele>941.8</ele>
      </trkpt>
      <trkpt lat="46.02328" lon="7.14666">
        <ele>944.3</ele>
      </trkpt>
      <trkpt lat="46.02309" lon="7.1469">
        <ele>945.6</ele>
      </trkpt>
      <trkpt lat="46.02302" lon="7.14705">
        <ele>946.8</ele>
      </trkpt>
      <trkpt lat="46.02295" lon="7.1473">
        <ele>947.2</ele>
      </trkpt>
      <trkpt lat="46.02293" lon="7.14749">
        <ele>947.9</ele>
      </trkpt>
      <trkpt lat="46.02294" lon="7.14781">
        <ele>949.1</ele>
      </trkpt>
      <trkpt lat="46.02303" lon="7.14816">
        <ele>951.8</ele>
      </trkpt>
      <trkpt lat="46.02319" lon="7.14845">
        <ele>950.8</ele>
      </trkpt>
      <trkpt lat="46.02349" lon="7.1487">
        <ele>952.2</ele>
      </trkpt>
      <trkpt lat="46.02363" lon="7.14876">
        <ele>953.3</ele>
      </trkpt>
      <trkpt lat="46.024" lon="7.14889">
        <ele>956.5</ele>
      </trkpt>
      <trkpt lat="46.02427" lon="7.14894">
        <ele>958.2</ele>
      </trkpt>
      <trkpt lat="46.02483" lon="7.14898">
        <ele>964.1</ele>
      </trkpt>
      <trkpt lat="46.02492" lon="7.14897">
        <ele>964.6</ele>
        <extensions>
          <visugpx:TrkExtension xmlns:visugpx="https://www.visugpx.com/editgpx/">
            <visugpx:node>3</visugpx:node>
            </visugpx:TrkExtension>
        </extensions>
      </trkpt>
      <trkpt lat="46.02513" lon="7.14889">
        <ele>974</ele>
        <time>2022-07-16T09:11:29.984Z</time>
      </trkpt>
      <trkpt lat="46.02608" lon="7.14865">
        <ele>969</ele>
        <time>2022-07-16T09:11:37.718Z</time>
      </trkpt>
      <trkpt lat="46.02647" lon="7.14858">
        <ele>968</ele>
        <time>2022-07-16T09:11:41.786Z</time>
      </trkpt>
      <trkpt lat="46.02689" lon="7.14854">
        <ele>970</ele>
        <time>2022-07-16T09:11:51.945Z</time>
      </trkpt>
      <trkpt lat="46.02729" lon="7.14859">
        <ele>974</ele>
        <time>2022-07-16T09:12:06.538Z</time>
      </trkpt>
      <trkpt lat="46.02744" lon="7.14867">
        <ele>977</ele>
        <time>2022-07-16T09:12:15.193Z</time>
      </trkpt>
      <trkpt lat="46.0276" lon="7.14887">
        <ele>980</ele>
        <time>2022-07-16T09:12:26.655Z</time>
      </trkpt>
      <trkpt lat="46.02769" lon="7.14904">
        <ele>982</ele>
        <time>2022-07-16T09:12:34.687Z</time>
      </trkpt>
      <trkpt lat="46.02777" lon="7.14933">
        <ele>983</ele>
        <time>2022-07-16T09:12:39.870Z</time>
      </trkpt>
      <trkpt lat="46.02778" lon="7.14951">
        <ele>984</ele>
        <time>2022-07-16T09:12:43.690Z</time>
      </trkpt>
      <trkpt lat="46.02772" lon="7.14985">
        <ele>987</ele>
        <time>2022-07-16T09:12:55.166Z</time>
      </trkpt>
      <trkpt lat="46.02761" lon="7.15007">
        <ele>989</ele>
        <time>2022-07-16T09:13:02.478Z</time>
      </trkpt>
      <trkpt lat="46.02752" lon="7.15018">
        <ele>991</ele>
        <time>2022-07-16T09:13:08.865Z</time>
      </trkpt>
      <trkpt lat="46.02742" lon="7.15027">
        <ele>993</ele>
        <time>2022-07-16T09:13:15.245Z</time>
      </trkpt>
      <trkpt lat="46.02731" lon="7.15032">
        <ele>994</ele>
        <time>2022-07-16T09:13:18.970Z</time>
      </trkpt>
      <trkpt lat="46.02717" lon="7.15035">
        <ele>996</ele>
        <time>2022-07-16T09:13:26.628Z</time>
      </trkpt>
      <trkpt lat="46.02648" lon="7.15026">
        <ele>998</ele>
        <time>2022-07-16T09:13:39.840Z</time>
      </trkpt>
      <trkpt lat="46.02625" lon="7.15028">
        <ele>999</ele>
        <time>2022-07-16T09:13:45.205Z</time>
      </trkpt>
      <trkpt lat="46.02599" lon="7.15034">
        <ele>1002</ele>
        <time>2022-07-16T09:13:56.319Z</time>
      </trkpt>
      <trkpt lat="46.02543" lon="7.15054">
        <ele>1006</ele>
        <time>2022-07-16T09:14:12.523Z</time>
      </trkpt>
      <trkpt lat="46.02519" lon="7.1506">
        <ele>1007</ele>
        <time>2022-07-16T09:14:18.000Z</time>
      </trkpt>
      <trkpt lat="46.02485" lon="7.15066">
        <ele>1008</ele>
        <time>2022-07-16T09:14:24.559Z</time>
      </trkpt>
      <trkpt lat="46.02417" lon="7.15068">
        <ele>1011</ele>
        <time>2022-07-16T09:14:40.567Z</time>
      </trkpt>
      <trkpt lat="46.02386" lon="7.15072">
        <ele>1012</ele>
        <time>2022-07-16T09:14:46.754Z</time>
      </trkpt>
      <trkpt lat="46.0235" lon="7.15084">
        <ele>1016</ele>
        <time>2022-07-16T09:15:01.412Z</time>
      </trkpt>
      <trkpt lat="46.02301" lon="7.15116">
        <ele>1019</ele>
        <time>2022-07-16T09:15:15.126Z</time>
      </trkpt>
      <trkpt lat="46.0225" lon="7.15167">
        <ele>1031</ele>
        <time>2022-07-16T09:15:48.720Z</time>
      </trkpt>
      <trkpt lat="46.02218" lon="7.15192">
        <ele>1035</ele>
        <time>2022-07-16T09:16:03.414Z</time>
      </trkpt>
      <trkpt lat="46.02172" lon="7.15216">
        <ele>1038</ele>
        <time>2022-07-16T09:16:16.376Z</time>
      </trkpt>
      <trkpt lat="46.02146" lon="7.15233">
        <ele>1038</ele>
        <time>2022-07-16T09:16:20.382Z</time>
      </trkpt>
      <trkpt lat="46.02097" lon="7.15285">
        <ele>1043</ele>
        <time>2022-07-16T09:16:39.295Z</time>
      </trkpt>
      <trkpt lat="46.0208" lon="7.15306">
        <ele>1045</ele>
        <time>2022-07-16T09:16:46.693Z</time>
      </trkpt>
      <trkpt lat="46.02066" lon="7.15331">
        <ele>1045</ele>
        <time>2022-07-16T09:16:49.822Z</time>
      </trkpt>
      <trkpt lat="46.02043" lon="7.15384">
        <ele>1050</ele>
        <time>2022-07-16T09:17:08.408Z</time>
      </trkpt>
      <trkpt lat="46.02004" lon="7.15445">
        <ele>1053</ele>
        <time>2022-07-16T09:17:22.728Z</time>
      </trkpt>
      <trkpt lat="46.0197" lon="7.15536">
        <ele>1067</ele>
        <time>2022-07-16T09:18:01.553Z</time>
      </trkpt>
      <trkpt lat="46.01949" lon="7.15575">
        <ele>1072</ele>
        <time>2022-07-16T09:18:20.096Z</time>
      </trkpt>
      <trkpt lat="46.01898" lon="7.15639">
        <ele>1074</ele>
        <time>2022-07-16T09:18:33.109Z</time>
      </trkpt>
      <trkpt lat="46.0188" lon="7.15667">
        <ele>1076</ele>
        <time>2022-07-16T09:18:40.911Z</time>
      </trkpt>
      <trkpt lat="46.01853" lon="7.15747">
        <ele>1076</ele>
        <time>2022-07-16T09:18:49.575Z</time>
      </trkpt>
      <trkpt lat="46.0181" lon="7.15926">
        <ele>1103</ele>
        <time>2022-07-16T09:20:00.742Z</time>
      </trkpt>
      <trkpt lat="46.01776" lon="7.15973">
        <ele>1100</ele>
        <time>2022-07-16T09:20:04.175Z</time>
      </trkpt>
      <trkpt lat="46.01765" lon="7.16003">
        <ele>1102</ele>
        <time>2022-07-16T09:20:11.666Z</time>
      </trkpt>
      <trkpt lat="46.01754" lon="7.16047">
        <ele>1108</ele>
        <time>2022-07-16T09:20:29.237Z</time>
      </trkpt>
      <trkpt lat="46.01739" lon="7.16076">
        <ele>1113</ele>
        <time>2022-07-16T09:20:42.824Z</time>
      </trkpt>
      <trkpt lat="46.01731" lon="7.16098">
        <ele>1115</ele>
        <time>2022-07-16T09:20:50.274Z</time>
      </trkpt>
      <trkpt lat="46.01729" lon="7.16107">
        <ele>1116</ele>
        <time>2022-07-16T09:20:53.825Z</time>
      </trkpt>
      <trkpt lat="46.0173" lon="7.16156">
        <ele>1121</ele>
        <time>2022-07-16T09:21:12.244Z</time>
      </trkpt>
      <trkpt lat="46.01727" lon="7.16167">
        <ele>1122</ele>
        <time>2022-07-16T09:21:16.048Z</time>
      </trkpt>
      <trkpt lat="46.01717" lon="7.16175">
        <ele>1123</ele>
        <time>2022-07-16T09:21:19.765Z</time>
      </trkpt>
      <trkpt lat="46.01705" lon="7.16172">
        <ele>1122</ele>
        <time>2022-07-16T09:21:20.711Z</time>
      </trkpt>
      <trkpt lat="46.01694" lon="7.16159">
        <ele>1119</ele>
        <time>2022-07-16T09:21:21.817Z</time>
      </trkpt>
      <trkpt lat="46.01666" lon="7.16113">
        <ele>1112</ele>
        <time>2022-07-16T09:21:25.117Z</time>
      </trkpt>
      <trkpt lat="46.01657" lon="7.16104">
        <ele>1110</ele>
        <time>2022-07-16T09:21:25.968Z</time>
      </trkpt>
      <trkpt lat="46.01639" lon="7.16102">
        <ele>1108</ele>
        <time>2022-07-16T09:21:27.371Z</time>
      </trkpt>
      <trkpt lat="46.0163" lon="7.16108">
        <ele>1107</ele>
        <time>2022-07-16T09:21:28.142Z</time>
      </trkpt>
      <trkpt lat="46.01622" lon="7.16123">
        <ele>1108</ele>
        <time>2022-07-16T09:21:32.029Z</time>
      </trkpt>
      <trkpt lat="46.01619" lon="7.16137">
        <ele>1109</ele>
        <time>2022-07-16T09:21:35.679Z</time>
      </trkpt>
      <trkpt lat="46.01604" lon="7.16254">
        <ele>1120</ele>
        <time>2022-07-16T09:22:20.191Z</time>
      </trkpt>
      <trkpt lat="46.01579" lon="7.16318">
        <ele>1126</ele>
        <time>2022-07-16T09:22:42.660Z</time>
      </trkpt>
      <trkpt lat="46.01565" lon="7.16343">
        <ele>1126</ele>
        <time>2022-07-16T09:22:45.788Z</time>
      </trkpt>
      <trkpt lat="46.01511" lon="7.1642">
        <ele>1123</ele>
        <time>2022-07-16T09:22:52.601Z</time>
      </trkpt>
      <trkpt lat="46.01491" lon="7.16454">
        <ele>1129</ele>
        <time>2022-07-16T09:23:09.344Z</time>
      </trkpt>
      <trkpt lat="46.0147" lon="7.16477">
        <ele>1131</ele>
        <time>2022-07-16T09:23:17.132Z</time>
      </trkpt>
      <trkpt lat="46.01447" lon="7.16498">
        <ele>1132</ele>
        <time>2022-07-16T09:23:22.889Z</time>
      </trkpt>
      <trkpt lat="46.01415" lon="7.16522">
        <ele>1131</ele>
        <time>2022-07-16T09:23:26.533Z</time>
      </trkpt>
      <trkpt lat="46.01376" lon="7.16545">
        <ele>1134</ele>
        <time>2022-07-16T09:23:38.536Z</time>
      </trkpt>
      <trkpt lat="46.01334" lon="7.16564">
        <ele>1135</ele>
        <time>2022-07-16T09:23:46.334Z</time>
      </trkpt>
      <trkpt lat="46.0131" lon="7.16578">
        <ele>1133</ele>
        <time>2022-07-16T09:23:48.346Z</time>
      </trkpt>
      <trkpt lat="46.01291" lon="7.16596">
        <ele>1133</ele>
        <time>2022-07-16T09:23:51.536Z</time>
      </trkpt>
      <trkpt lat="46.0128" lon="7.16614">
        <ele>1135</ele>
        <time>2022-07-16T09:23:59.091Z</time>
      </trkpt>
      <trkpt lat="46.01273" lon="7.16632">
        <ele>1138</ele>
        <time>2022-07-16T09:24:06.843Z</time>
      </trkpt>
      <trkpt lat="46.01246" lon="7.16714">
        <ele>1150</ele>
        <time>2022-07-16T09:24:40.944Z</time>
      </trkpt>
      <trkpt lat="46.01211" lon="7.16767">
        <ele>1155</ele>
        <time>2022-07-16T09:24:59.195Z</time>
      </trkpt>
      <trkpt lat="46.01195" lon="7.16785">
        <ele>1157</ele>
        <time>2022-07-16T09:25:06.495Z</time>
      </trkpt>
      <trkpt lat="46.01164" lon="7.16808">
        <ele>1157</ele>
        <time>2022-07-16T09:25:11.387Z</time>
      </trkpt>
      <trkpt lat="46.01109" lon="7.16835">
        <ele>1159</ele>
        <time>2022-07-16T09:25:23.291Z</time>
      </trkpt>
      <trkpt lat="46.01049" lon="7.1686">
        <ele>1161</ele>
        <time>2022-07-16T09:25:35.689Z</time>
      </trkpt>
      <trkpt lat="46.00989" lon="7.16881">
        <ele>1164</ele>
        <time>2022-07-16T09:25:50.695Z</time>
      </trkpt>
      <trkpt lat="46.00958" lon="7.16899">
        <ele>1166</ele>
        <time>2022-07-16T09:25:59.459Z</time>
      </trkpt>
      <trkpt lat="46.00902" lon="7.1694">
        <ele>1170</ele>
        <time>2022-07-16T09:26:16.384Z</time>
      </trkpt>
      <trkpt lat="46.00881" lon="7.16946">
        <ele>1171</ele>
        <time>2022-07-16T09:26:21.525Z</time>
      </trkpt>
      <trkpt lat="46.00865" lon="7.16946">
        <ele>1171</ele>
        <time>2022-07-16T09:26:23.769Z</time>
      </trkpt>
      <trkpt lat="46.00811" lon="7.16938">
        <ele>1178</ele>
        <time>2022-07-16T09:26:51.353Z</time>
      </trkpt>
      <trkpt lat="46.008" lon="7.16941">
        <ele>1182</ele>
        <time>2022-07-16T09:26:57.410Z</time>
      </trkpt>
      <trkpt lat="46.00792" lon="7.16949">
        <ele>1186</ele>
        <time>2022-07-16T09:27:02.681Z</time>
      </trkpt>
      <trkpt lat="46.00791" lon="7.16971">
        <ele>1190</ele>
        <time>2022-07-16T09:27:10.966Z</time>
      </trkpt>
      <trkpt lat="46.00795" lon="7.16979">
        <ele>1189</ele>
        <time>2022-07-16T09:27:11.498Z</time>
      </trkpt>
      <trkpt lat="46.00807" lon="7.16989">
        <ele>1187</ele>
        <time>2022-07-16T09:27:12.575Z</time>
      </trkpt>
      <trkpt lat="46.00851" lon="7.16996">
        <ele>1178</ele>
        <time>2022-07-16T09:27:16.014Z</time>
      </trkpt>
      <trkpt lat="46.00861" lon="7.16999">
        <ele>1179</ele>
        <time>2022-07-16T09:27:19.666Z</time>
      </trkpt>
      <trkpt lat="46.00899" lon="7.17019">
        <ele>1183</ele>
        <time>2022-07-16T09:27:34.263Z</time>
      </trkpt>
      <trkpt lat="46.00918" lon="7.17026">
        <ele>1185</ele>
        <time>2022-07-16T09:27:41.558Z</time>
      </trkpt>
      <trkpt lat="46.00937" lon="7.17028">
        <ele>1188</ele>
        <time>2022-07-16T09:27:51.866Z</time>
      </trkpt>
      <trkpt lat="46.0096" lon="7.17022">
        <ele>1190</ele>
        <time>2022-07-16T09:27:59.341Z</time>
      </trkpt>
      <trkpt lat="46.00979" lon="7.1701">
        <ele>1191</ele>
        <time>2022-07-16T09:28:04.371Z</time>
      </trkpt>
      <trkpt lat="46.00994" lon="7.16993">
        <ele>1189</ele>
        <time>2022-07-16T09:28:05.854Z</time>
      </trkpt>
      <trkpt lat="46.01025" lon="7.16944">
        <ele>1181</ele>
        <time>2022-07-16T09:28:09.430Z</time>
      </trkpt>
      <trkpt lat="46.01032" lon="7.1694">
        <ele>1181</ele>
        <time>2022-07-16T09:28:10.487Z</time>
      </trkpt>
      <trkpt lat="46.01038" lon="7.1694">
        <ele>1181</ele>
        <time>2022-07-16T09:28:11.329Z</time>
      </trkpt>
      <trkpt lat="46.01048" lon="7.16947">
        <ele>1184</ele>
        <time>2022-07-16T09:28:17.345Z</time>
      </trkpt>
      <trkpt lat="46.01052" lon="7.16962">
        <ele>1189</ele>
        <time>2022-07-16T09:28:23.383Z</time>
      </trkpt>
      <trkpt lat="46.01051" lon="7.16972">
        <ele>1192</ele>
        <time>2022-07-16T09:28:27.179Z</time>
      </trkpt>
      <trkpt lat="46.01045" lon="7.16984">
        <ele>1195</ele>
        <time>2022-07-16T09:28:32.736Z</time>
      </trkpt>
      <trkpt lat="46.01004" lon="7.17025">
        <ele>1197</ele>
        <time>2022-07-16T09:28:43.798Z</time>
      </trkpt>
      <trkpt lat="46.00945" lon="7.1707">
        <ele>1200</ele>
        <time>2022-07-16T09:28:59.648Z</time>
      </trkpt>
      <trkpt lat="46.00891" lon="7.17128">
        <ele>1209</ele>
        <time>2022-07-16T09:29:36.100Z</time>
      </trkpt>
      <trkpt lat="46.00872" lon="7.17141">
        <ele>1211</ele>
        <time>2022-07-16T09:29:43.422Z</time>
      </trkpt>
      <trkpt lat="46.00851" lon="7.17148">
        <ele>1212</ele>
        <time>2022-07-16T09:29:48.587Z</time>
      </trkpt>
      <trkpt lat="46.0083" lon="7.17149">
        <ele>1212</ele>
        <time>2022-07-16T09:29:51.535Z</time>
      </trkpt>
      <trkpt lat="46.00807" lon="7.17141">
        <ele>1213</ele>
        <time>2022-07-16T09:29:56.950Z</time>
      </trkpt>
      <trkpt lat="46.00789" lon="7.17127">
        <ele>1213</ele>
        <time>2022-07-16T09:29:59.820Z</time>
      </trkpt>
      <trkpt lat="46.00774" lon="7.17107">
        <ele>1214</ele>
        <time>2022-07-16T09:30:04.799Z</time>
      </trkpt>
      <trkpt lat="46.00743" lon="7.17034">
        <ele>1214</ele>
        <time>2022-07-16T09:30:13.136Z</time>
      </trkpt>
      <trkpt lat="46.00722" lon="7.17001">
        <ele>1214</ele>
        <time>2022-07-16T09:30:17.496Z</time>
      </trkpt>
      <trkpt lat="46.00712" lon="7.1699">
        <ele>1213</ele>
        <time>2022-07-16T09:30:18.474Z</time>
      </trkpt>
      <trkpt lat="46.00687" lon="7.16979">
        <ele>1216</ele>
        <time>2022-07-16T09:30:29.612Z</time>
      </trkpt>
      <trkpt lat="46.00668" lon="7.16975">
        <ele>1218</ele>
        <time>2022-07-16T09:30:36.912Z</time>
      </trkpt>
      <trkpt lat="46.00657" lon="7.16975">
        <ele>1218</ele>
        <time>2022-07-16T09:30:38.456Z</time>
      </trkpt>
      <trkpt lat="46.00629" lon="7.16982">
        <ele>1217</ele>
        <time>2022-07-16T09:30:41.112Z</time>
      </trkpt>
      <trkpt lat="46.00583" lon="7.17012">
        <ele>1223</ele>
        <time>2022-07-16T09:31:03.669Z</time>
      </trkpt>
      <trkpt lat="46.00559" lon="7.17045">
        <ele>1223</ele>
        <time>2022-07-16T09:31:08.324Z</time>
      </trkpt>
      <trkpt lat="46.00521" lon="7.1711">
        <ele>1232</ele>
        <time>2022-07-16T09:31:40.253Z</time>
      </trkpt>
      <trkpt lat="46.00498" lon="7.17135">
        <ele>1235</ele>
        <time>2022-07-16T09:31:51.204Z</time>
      </trkpt>
      <trkpt lat="46.00461" lon="7.17163">
        <ele>1236</ele>
        <time>2022-07-16T09:31:58.713Z</time>
      </trkpt>
      <trkpt lat="46.0043" lon="7.17191">
        <ele>1236</ele>
        <time>2022-07-16T09:32:03.846Z</time>
      </trkpt>
      <trkpt lat="46.00403" lon="7.17228">
        <ele>1238</ele>
        <time>2022-07-16T09:32:13.214Z</time>
      </trkpt>
      <trkpt lat="46.00345" lon="7.17334">
        <ele>1250</ele>
        <time>2022-07-16T09:33:00.252Z</time>
      </trkpt>
      <trkpt lat="46.00322" lon="7.17363">
        <ele>1252</ele>
        <time>2022-07-16T09:33:08.594Z</time>
      </trkpt>
      <trkpt lat="46.00305" lon="7.17378">
        <ele>1252</ele>
        <time>2022-07-16T09:33:11.391Z</time>
      </trkpt>
      <trkpt lat="46.00212" lon="7.17445">
        <ele>1258</ele>
        <time>2022-07-16T09:33:38.253Z</time>
      </trkpt>
      <trkpt lat="46.00167" lon="7.17485">
        <ele>1264</ele>
        <time>2022-07-16T09:34:00.455Z</time>
      </trkpt>
      <trkpt lat="46.00141" lon="7.17505">
        <ele>1266</ele>
        <time>2022-07-16T09:34:08.643Z</time>
      </trkpt>
      <trkpt lat="46.00099" lon="7.17533">
        <ele>1269</ele>
        <time>2022-07-16T09:34:21.217Z</time>
      </trkpt>
      <trkpt lat="45.99993" lon="7.17592">
        <ele>1275</ele>
        <time>2022-07-16T09:34:49.612Z</time>
      </trkpt>
      <trkpt lat="45.99923" lon="7.17645">
        <ele>1283</ele>
        <time>2022-07-16T09:35:18.791Z</time>
      </trkpt>
      <trkpt lat="45.99836" lon="7.17687">
        <ele>1283</ele>
        <time>2022-07-16T09:35:31.663Z</time>
      </trkpt>
      <trkpt lat="45.99818" lon="7.17709">
        <ele>1286</ele>
        <time>2022-07-16T09:35:43.359Z</time>
      </trkpt>
      <trkpt lat="45.99788" lon="7.17783">
        <ele>1297</ele>
        <time>2022-07-16T09:36:15.564Z</time>
      </trkpt>
      <trkpt lat="45.9977" lon="7.17814">
        <ele>1300</ele>
        <time>2022-07-16T09:36:26.539Z</time>
      </trkpt>
      <trkpt lat="45.99755" lon="7.17831">
        <ele>1302</ele>
        <time>2022-07-16T09:36:33.842Z</time>
      </trkpt>
      <trkpt lat="45.99729" lon="7.17844">
        <ele>1303</ele>
        <time>2022-07-16T09:36:39.628Z</time>
      </trkpt>
      <trkpt lat="45.99704" lon="7.17846">
        <ele>1303</ele>
        <time>2022-07-16T09:36:43.141Z</time>
      </trkpt>
      <trkpt lat="45.99692" lon="7.17843">
        <ele>1303</ele>
        <time>2022-07-16T09:36:44.849Z</time>
      </trkpt>
      <trkpt lat="45.99681" lon="7.17837">
        <ele>1302</ele>
        <time>2022-07-16T09:36:45.763Z</time>
      </trkpt>
      <trkpt lat="45.9966" lon="7.17818">
        <ele>1299</ele>
        <time>2022-07-16T09:36:47.690Z</time>
      </trkpt>
      <trkpt lat="45.99625" lon="7.17775">
        <ele>1292</ele>
        <time>2022-07-16T09:36:51.265Z</time>
      </trkpt>
      <trkpt lat="45.99612" lon="7.17769">
        <ele>1291</ele>
        <time>2022-07-16T09:36:52.326Z</time>
      </trkpt>
      <trkpt lat="45.99601" lon="7.17775">
        <ele>1292</ele>
        <time>2022-07-16T09:36:56.070Z</time>
      </trkpt>
      <trkpt lat="45.99591" lon="7.17794">
        <ele>1294</ele>
        <time>2022-07-16T09:37:03.644Z</time>
      </trkpt>
      <trkpt lat="45.99519" lon="7.17995">
        <ele>1307</ele>
        <time>2022-07-16T09:37:52.706Z</time>
      </trkpt>
      <trkpt lat="45.99397" lon="7.18262">
        <ele>1314</ele>
        <time>2022-07-16T09:38:36.496Z</time>
      </trkpt>
      <trkpt lat="45.99347" lon="7.18365">
        <ele>1321</ele>
        <time>2022-07-16T09:39:03.188Z</time>
      </trkpt>
      <trkpt lat="45.9933" lon="7.18381">
        <ele>1321</ele>
        <time>2022-07-16T09:39:06.037Z</time>
      </trkpt>
      <trkpt lat="45.99244" lon="7.18429">
        <ele>1325</ele>
        <time>2022-07-16T09:39:27.502Z</time>
      </trkpt>
      <trkpt lat="45.99233" lon="7.18431">
        <ele>1325</ele>
        <time>2022-07-16T09:39:29.058Z</time>
      </trkpt>
      <trkpt lat="45.99214" lon="7.18432">
        <ele>1327</ele>
        <time>2022-07-16T09:39:36.363Z</time>
      </trkpt>
      <trkpt lat="45.9914" lon="7.18402">
        <ele>1326</ele>
        <time>2022-07-16T09:39:45.586Z</time>
      </trkpt>
      <trkpt lat="45.99135" lon="7.18397">
        <ele>1325</ele>
        <time>2022-07-16T09:39:46.059Z</time>
      </trkpt>
      <trkpt lat="45.99121" lon="7.18394">
        <ele>1323</ele>
        <time>2022-07-16T09:39:47.159Z</time>
      </trkpt>
      <trkpt lat="45.99113" lon="7.18393">
        <ele>1323</ele>
        <time>2022-07-16T09:39:48.285Z</time>
      </trkpt>
      <trkpt lat="45.991" lon="7.18396">
        <ele>1323</ele>
        <time>2022-07-16T09:39:50.132Z</time>
      </trkpt>
      <trkpt lat="45.99083" lon="7.18411">
        <ele>1327</ele>
        <time>2022-07-16T09:40:00.921Z</time>
      </trkpt>
      <trkpt lat="45.99058" lon="7.18469">
        <ele>1332</ele>
        <time>2022-07-16T09:40:19.187Z</time>
      </trkpt>
      <trkpt lat="45.99058" lon="7.18476">
        <ele>1334</ele>
        <time>2022-07-16T09:40:21.819Z</time>
      </trkpt>
      <trkpt lat="45.99026" lon="7.18569">
        <ele>1341</ele>
        <time>2022-07-16T09:40:47.394Z</time>
      </trkpt>
      <trkpt lat="45.99011" lon="7.18599">
        <ele>1344</ele>
        <time>2022-07-16T09:40:58.599Z</time>
      </trkpt>
      <trkpt lat="45.99003" lon="7.18608">
        <ele>1345</ele>
        <time>2022-07-16T09:41:02.249Z</time>
      </trkpt>
      <trkpt lat="45.98945" lon="7.18654">
        <ele>1350</ele>
        <time>2022-07-16T09:41:21.751Z</time>
      </trkpt>
      <trkpt lat="45.98871" lon="7.1871">
        <ele>1355</ele>
        <time>2022-07-16T09:41:43.666Z</time>
      </trkpt>
      <trkpt lat="45.98863" lon="7.18719">
        <ele>1356</ele>
        <time>2022-07-16T09:41:47.316Z</time>
      </trkpt>
      <trkpt lat="45.98833" lon="7.18769">
        <ele>1363</ele>
        <time>2022-07-16T09:42:12.151Z</time>
      </trkpt>
      <trkpt lat="45.98819" lon="7.18788">
        <ele>1365</ele>
        <time>2022-07-16T09:42:19.450Z</time>
      </trkpt>
      <trkpt lat="45.98734" lon="7.18861">
        <ele>1368</ele>
        <time>2022-07-16T09:42:38.671Z</time>
      </trkpt>
      <trkpt lat="45.98712" lon="7.18887">
        <ele>1369</ele>
        <time>2022-07-16T09:42:44.559Z</time>
      </trkpt>
      <trkpt lat="45.98674" lon="7.18947">
        <ele>1375</ele>
        <time>2022-07-16T09:43:06.497Z</time>
      </trkpt>
      <trkpt lat="45.98634" lon="7.18994">
        <ele>1380</ele>
        <time>2022-07-16T09:43:24.769Z</time>
      </trkpt>
      <trkpt lat="45.98614" lon="7.1901">
        <ele>1384</ele>
        <time>2022-07-16T09:43:37.150Z</time>
      </trkpt>
      <trkpt lat="45.98538" lon="7.19057">
        <ele>1387</ele>
        <time>2022-07-16T09:43:54.526Z</time>
      </trkpt>
      <trkpt lat="45.98499" lon="7.19084">
        <ele>1389</ele>
        <time>2022-07-16T09:44:04.884Z</time>
      </trkpt>
      <trkpt lat="45.98477" lon="7.19101">
        <ele>1391</ele>
        <time>2022-07-16T09:44:12.513Z</time>
      </trkpt>
      <trkpt lat="45.98457" lon="7.19122">
        <ele>1393</ele>
        <time>2022-07-16T09:44:20.120Z</time>
      </trkpt>
      <trkpt lat="45.98438" lon="7.19153">
        <ele>1398</ele>
        <time>2022-07-16T09:44:35.661Z</time>
      </trkpt>
      <trkpt lat="45.98382" lon="7.19265">
        <ele>1406</ele>
        <time>2022-07-16T09:45:05.776Z</time>
      </trkpt>
      <trkpt lat="45.98339" lon="7.19369">
        <ele>1419</ele>
        <time>2022-07-16T09:45:51.275Z</time>
      </trkpt>
      <trkpt lat="45.98317" lon="7.19414">
        <ele>1425</ele>
        <time>2022-07-16T09:46:11.962Z</time>
      </trkpt>
      <trkpt lat="45.98299" lon="7.19445">
        <ele>1426</ele>
        <time>2022-07-16T09:46:17.807Z</time>
      </trkpt>
      <trkpt lat="45.98257" lon="7.195">
        <ele>1422</ele>
        <time>2022-07-16T09:46:22.219Z</time>
      </trkpt>
      <trkpt lat="45.9823" lon="7.19542">
        <ele>1423</ele>
        <time>2022-07-16T09:46:29.465Z</time>
      </trkpt>
      <trkpt lat="45.98177" lon="7.1965">
        <ele>1431</ele>
        <time>2022-07-16T09:46:59.231Z</time>
      </trkpt>
      <trkpt lat="45.98162" lon="7.1967">
        <ele>1431</ele>
        <time>2022-07-16T09:47:02.100Z</time>
      </trkpt>
      <trkpt lat="45.98149" lon="7.19684">
        <ele>1434</ele>
        <time>2022-07-16T09:47:10.885Z</time>
      </trkpt>
      <trkpt lat="45.98118" lon="7.19703">
        <ele>1436</ele>
        <time>2022-07-16T09:47:19.689Z</time>
      </trkpt>
      <trkpt lat="45.98021" lon="7.19722">
        <ele>1433</ele>
        <time>2022-07-16T09:47:29.274Z</time>
      </trkpt>
      <trkpt lat="45.97992" lon="7.19739">
        <ele>1435</ele>
        <time>2022-07-16T09:47:37.722Z</time>
      </trkpt>
      <trkpt lat="45.97968" lon="7.19762">
        <ele>1434</ele>
        <time>2022-07-16T09:47:40.431Z</time>
      </trkpt>
      <trkpt lat="45.97944" lon="7.19798">
        <ele>1436</ele>
        <time>2022-07-16T09:47:49.386Z</time>
      </trkpt>
      <trkpt lat="45.97899" lon="7.19896">
        <ele>1450</ele>
        <time>2022-07-16T09:48:33.551Z</time>
      </trkpt>
      <trkpt lat="45.97873" lon="7.1994">
        <ele>1457</ele>
        <time>2022-07-16T09:48:55.268Z</time>
      </trkpt>
      <trkpt lat="45.97821" lon="7.20016">
        <ele>1468</ele>
        <time>2022-07-16T09:49:35.370Z</time>
      </trkpt>
      <trkpt lat="45.97778" lon="7.20061">
        <ele>1473</ele>
        <time>2022-07-16T09:49:53.701Z</time>
      </trkpt>
      <trkpt lat="45.97735" lon="7.20096">
        <ele>1469</ele>
        <time>2022-07-16T09:49:57.539Z</time>
      </trkpt>
      <trkpt lat="45.97647" lon="7.2019">
        <ele>1473</ele>
        <time>2022-07-16T09:50:20.634Z</time>
      </trkpt>
      <trkpt lat="45.97582" lon="7.20255">
        <ele>1472</ele>
        <time>2022-07-16T09:50:30.175Z</time>
      </trkpt>
      <trkpt lat="45.97517" lon="7.20344">
        <ele>1479</ele>
        <time>2022-07-16T09:50:57.131Z</time>
      </trkpt>
      <trkpt lat="45.975" lon="7.20363">
        <ele>1480</ele>
        <time>2022-07-16T09:51:02.291Z</time>
      </trkpt>
      <trkpt lat="45.97469" lon="7.2039">
        <ele>1483</ele>
        <time>2022-07-16T09:51:13.612Z</time>
      </trkpt>
      <trkpt lat="45.97436" lon="7.20424">
        <ele>1484</ele>
        <time>2022-07-16T09:51:20.964Z</time>
      </trkpt>
      <trkpt lat="45.97415" lon="7.20462">
        <ele>1486</ele>
        <time>2022-07-16T09:51:29.776Z</time>
      </trkpt>
      <trkpt lat="45.97406" lon="7.20485">
        <ele>1489</ele>
        <time>2022-07-16T09:51:39.701Z</time>
      </trkpt>
      <trkpt lat="45.97362" lon="7.20648">
        <ele>1506</ele>
        <time>2022-07-16T09:52:45.456Z</time>
      </trkpt>
      <trkpt lat="45.97353" lon="7.20669">
        <ele>1507</ele>
        <time>2022-07-16T09:52:49.904Z</time>
      </trkpt>
      <trkpt lat="45.97322" lon="7.20717">
        <ele>1507</ele>
        <time>2022-07-16T09:52:56.292Z</time>
      </trkpt>
      <trkpt lat="45.97287" lon="7.20753">
        <ele>1508</ele>
        <time>2022-07-16T09:53:03.960Z</time>
      </trkpt>
      <trkpt lat="45.97272" lon="7.20763">
        <ele>1510</ele>
        <time>2022-07-16T09:53:11.540Z</time>
      </trkpt>
      <trkpt lat="45.97247" lon="7.20777">
        <ele>1512</ele>
        <time>2022-07-16T09:53:19.381Z</time>
      </trkpt>
      <trkpt lat="45.97194" lon="7.208">
        <ele>1513</ele>
        <time>2022-07-16T09:53:28.687Z</time>
      </trkpt>
      <trkpt lat="45.97102" lon="7.20862">
        <ele>1523</ele>
        <time>2022-07-16T09:54:05.189Z</time>
      </trkpt>
      <trkpt lat="45.9707" lon="7.20874">
        <ele>1525</ele>
        <time>2022-07-16T09:54:13.898Z</time>
      </trkpt>
      <trkpt lat="45.97024" lon="7.20887">
        <ele>1531</ele>
        <time>2022-07-16T09:54:37.412Z</time>
      </trkpt>
      <trkpt lat="45.96979" lon="7.2089">
        <ele>1533</ele>
        <time>2022-07-16T09:54:48.062Z</time>
      </trkpt>
      <trkpt lat="45.96936" lon="7.2089">
        <ele>1538</ele>
        <time>2022-07-16T09:55:06.706Z</time>
      </trkpt>
      <trkpt lat="45.96837" lon="7.20883">
        <ele>1544</ele>
        <time>2022-07-16T09:55:32.820Z</time>
      </trkpt>
      <trkpt lat="45.96803" lon="7.20885">
        <ele>1545</ele>
        <time>2022-07-16T09:55:39.351Z</time>
      </trkpt>
      <trkpt lat="45.96756" lon="7.20895">
        <ele>1548</ele>
        <time>2022-07-16T09:55:52.103Z</time>
      </trkpt>
      <trkpt lat="45.96635" lon="7.2095">
        <ele>1558</ele>
        <time>2022-07-16T09:56:30.469Z</time>
      </trkpt>
      <trkpt lat="45.96617" lon="7.20955">
        <ele>1559</ele>
        <time>2022-07-16T09:56:35.104Z</time>
      </trkpt>
      <trkpt lat="45.96562" lon="7.20962">
        <ele>1560</ele>
        <time>2022-07-16T09:56:44.390Z</time>
      </trkpt>
      <trkpt lat="45.96528" lon="7.20962">
        <ele>1563</ele>
        <time>2022-07-16T09:56:55.517Z</time>
      </trkpt>
      <trkpt lat="45.96471" lon="7.20953">
        <ele>1565</ele>
        <time>2022-07-16T09:57:07.337Z</time>
      </trkpt>
      <trkpt lat="45.964" lon="7.20947">
        <ele>1570</ele>
        <time>2022-07-16T09:57:27.458Z</time>
      </trkpt>
      <trkpt lat="45.96339" lon="7.20952">
        <ele>1578</ele>
        <time>2022-07-16T09:57:59.364Z</time>
      </trkpt>
      <trkpt lat="45.96277" lon="7.20962">
        <ele>1584</ele>
        <time>2022-07-16T09:58:21.305Z</time>
      </trkpt>
      <trkpt lat="45.96252" lon="7.20962">
        <ele>1585</ele>
        <time>2022-07-16T09:58:26.839Z</time>
      </trkpt>
      <trkpt lat="45.96219" lon="7.20958">
        <ele>1588</ele>
        <time>2022-07-16T09:58:37.905Z</time>
      </trkpt>
      <trkpt lat="45.96188" lon="7.20949">
        <ele>1590</ele>
        <time>2022-07-16T09:58:46.399Z</time>
      </trkpt>
      <trkpt lat="45.96079" lon="7.20903">
        <ele>1590</ele>
        <time>2022-07-16T09:59:02.334Z</time>
      </trkpt>
      <trkpt lat="45.95997" lon="7.20877">
        <ele>1595</ele>
        <time>2022-07-16T09:59:24.304Z</time>
      </trkpt>
      <trkpt lat="45.95957" lon="7.20871">
        <ele>1595</ele>
        <time>2022-07-16T09:59:29.945Z</time>
      </trkpt>
      <trkpt lat="45.9589" lon="7.20868">
        <ele>1595</ele>
        <time>2022-07-16T09:59:39.348Z</time>
      </trkpt>
      <trkpt lat="45.95831" lon="7.2087">
        <ele>1597</ele>
        <time>2022-07-16T09:59:51.353Z</time>
      </trkpt>
      <trkpt lat="45.95776" lon="7.20883">
        <ele>1601</ele>
        <time>2022-07-16T10:00:07.298Z</time>
      </trkpt>
      <trkpt lat="45.95691" lon="7.20917">
        <ele>1609</ele>
        <time>2022-07-16T10:00:36.802Z</time>
      </trkpt>
      <trkpt lat="45.95586" lon="7.20964">
        <ele>1615</ele>
        <time>2022-07-16T10:01:04.605Z</time>
      </trkpt>
      <trkpt lat="45.95525" lon="7.2098">
        <ele>1617</ele>
        <time>2022-07-16T10:01:16.951Z</time>
      </trkpt>
      <trkpt lat="45.95457" lon="7.20979">
        <ele>1623</ele>
        <time>2022-07-16T10:01:39.205Z</time>
      </trkpt>
      <trkpt lat="45.95432" lon="7.20976">
        <ele>1626</ele>
        <time>2022-07-16T10:01:50.515Z</time>
      </trkpt>
      <trkpt lat="45.95403" lon="7.20971">
        <ele>1629</ele>
        <time>2022-07-16T10:02:01.459Z</time>
      </trkpt>
      <trkpt lat="45.95269" lon="7.20933">
        <ele>1638</ele>
        <time>2022-07-16T10:02:38.854Z</time>
      </trkpt>
      <trkpt lat="45.95228" lon="7.20926">
        <ele>1638</ele>
        <time>2022-07-16T10:02:44.646Z</time>
      </trkpt>
      <trkpt lat="45.95196" lon="7.20925">
        <ele>1639</ele>
        <time>2022-07-16T10:02:50.936Z</time>
      </trkpt>
      <trkpt lat="45.95139" lon="7.20925">
        <ele>1643</ele>
        <time>2022-07-16T10:03:07.046Z</time>
      </trkpt>
      <trkpt lat="45.95077" lon="7.20933">
        <ele>1650</ele>
        <time>2022-07-16T10:03:32.890Z</time>
      </trkpt>
      <trkpt lat="45.94949" lon="7.20967">
        <ele>1655</ele>
        <time>2022-07-16T10:04:01.061Z</time>
      </trkpt>
      <trkpt lat="45.94899" lon="7.20973">
        <ele>1658</ele>
        <time>2022-07-16T10:04:14.211Z</time>
      </trkpt>
      <trkpt lat="45.94861" lon="7.20971">
        <ele>1664</ele>
        <time>2022-07-16T10:04:34.785Z</time>
      </trkpt>
      <trkpt lat="45.94778" lon="7.20958">
        <ele>1670</ele>
        <time>2022-07-16T10:04:58.688Z</time>
      </trkpt>
      <trkpt lat="45.94672" lon="7.20962">
        <ele>1675</ele>
        <time>2022-07-16T10:05:24.221Z</time>
      </trkpt>
      <trkpt lat="45.94641" lon="7.20957">
        <ele>1681</ele>
        <time>2022-07-16T10:05:41.099Z</time>
      </trkpt>
      <trkpt lat="45.94503" lon="7.209">
        <ele>1711</ele>
        <time>2022-07-16T10:06:58.785Z</time>
      </trkpt>
      <trkpt lat="45.94453" lon="7.20887">
        <ele>1710</ele>
        <time>2022-07-16T10:07:04.401Z</time>
      </trkpt>
      <trkpt lat="45.94428" lon="7.20883">
        <ele>1710</ele>
        <time>2022-07-16T10:07:07.930Z</time>
      </trkpt>
      <trkpt lat="45.94386" lon="7.20882">
        <ele>1711</ele>
        <time>2022-07-16T10:07:15.466Z</time>
      </trkpt>
      <trkpt lat="45.94331" lon="7.20886">
        <ele>1714</ele>
        <time>2022-07-16T10:07:29.381Z</time>
      </trkpt>
      <trkpt lat="45.94196" lon="7.20921">
        <ele>1734</ele>
        <time>2022-07-16T10:08:43.603Z</time>
      </trkpt>
      <trkpt lat="45.94154" lon="7.2092">
        <ele>1734</ele>
        <time>2022-07-16T10:08:49.495Z</time>
      </trkpt>
      <trkpt lat="45.9413" lon="7.20913">
        <ele>1734</ele>
        <time>2022-07-16T10:08:52.930Z</time>
      </trkpt>
      <trkpt lat="45.94033" lon="7.20859">
        <ele>1734</ele>
        <time>2022-07-16T10:09:07.521Z</time>
      </trkpt>
      <trkpt lat="45.93988" lon="7.20847">
        <ele>1737</ele>
        <time>2022-07-16T10:09:20.020Z</time>
      </trkpt>
      <trkpt lat="45.93952" lon="7.20844">
        <ele>1738</ele>
        <time>2022-07-16T10:09:26.801Z</time>
      </trkpt>
      <trkpt lat="45.93804" lon="7.20862">
        <ele>1769</ele>
        <time>2022-07-16T10:10:47.165Z</time>
      </trkpt>
      <trkpt lat="45.93761" lon="7.20862">
        <ele>1776</ele>
        <time>2022-07-16T10:11:10.431Z</time>
      </trkpt>
      <trkpt lat="45.93722" lon="7.20858">
        <ele>1774</ele>
        <time>2022-07-16T10:11:13.584Z</time>
      </trkpt>
      <trkpt lat="45.93688" lon="7.20851">
        <ele>1769</ele>
        <time>2022-07-16T10:11:16.253Z</time>
      </trkpt>
      <trkpt lat="45.93651" lon="7.2084">
        <ele>1767</ele>
        <time>2022-07-16T10:11:19.255Z</time>
      </trkpt>
      <trkpt lat="45.93549" lon="7.20792">
        <ele>1769</ele>
        <time>2022-07-16T10:11:37.408Z</time>
      </trkpt>
      <trkpt lat="45.93525" lon="7.20785">
        <ele>1769</ele>
        <time>2022-07-16T10:11:40.843Z</time>
      </trkpt>
      <trkpt lat="45.93435" lon="7.2077">
        <ele>1783</ele>
        <time>2022-07-16T10:12:29.865Z</time>
      </trkpt>
      <trkpt lat="45.93412" lon="7.20763">
        <ele>1786</ele>
        <time>2022-07-16T10:12:41.598Z</time>
      </trkpt>
      <trkpt lat="45.9337" lon="7.20743">
        <ele>1784</ele>
        <time>2022-07-16T10:12:45.358Z</time>
      </trkpt>
      <trkpt lat="45.93317" lon="7.2071">
        <ele>1781</ele>
        <time>2022-07-16T10:12:49.986Z</time>
      </trkpt>
      <trkpt lat="45.93229" lon="7.20673">
        <ele>1792</ele>
        <time>2022-07-16T10:13:31.515Z</time>
      </trkpt>
      <trkpt lat="45.93193" lon="7.20652">
        <ele>1797</ele>
        <time>2022-07-16T10:13:51.189Z</time>
      </trkpt>
      <trkpt lat="45.9314" lon="7.20614">
        <ele>1797</ele>
        <time>2022-07-16T10:13:59.497Z</time>
      </trkpt>
      <trkpt lat="45.93109" lon="7.20595">
        <ele>1797</ele>
        <time>2022-07-16T10:14:04.224Z</time>
      </trkpt>
      <trkpt lat="45.93097" lon="7.20589">
        <ele>1798</ele>
        <time>2022-07-16T10:14:08.063Z</time>
      </trkpt>
      <trkpt lat="45.93017" lon="7.20563">
        <ele>1806</ele>
        <time>2022-07-16T10:14:37.281Z</time>
      </trkpt>
      <trkpt lat="45.9299" lon="7.20551">
        <ele>1809</ele>
        <time>2022-07-16T10:14:48.248Z</time>
      </trkpt>
      <trkpt lat="45.92972" lon="7.20539">
        <ele>1811</ele>
        <time>2022-07-16T10:14:55.543Z</time>
      </trkpt>
      <trkpt lat="45.92953" lon="7.2052">
        <ele>1810</ele>
        <time>2022-07-16T10:14:57.546Z</time>
      </trkpt>
      <trkpt lat="45.929" lon="7.20461">
        <ele>1806</ele>
        <time>2022-07-16T10:15:02.584Z</time>
      </trkpt>
      <trkpt lat="45.92876" lon="7.20442">
        <ele>1807</ele>
        <time>2022-07-16T10:15:08.358Z</time>
      </trkpt>
      <trkpt lat="45.92851" lon="7.20427">
        <ele>1810</ele>
        <time>2022-07-16T10:15:19.395Z</time>
      </trkpt>
      <trkpt lat="45.92808" lon="7.20412">
        <ele>1817</ele>
        <time>2022-07-16T10:15:43.336Z</time>
      </trkpt>
      <trkpt lat="45.92686" lon="7.20383">
        <ele>1834</ele>
        <time>2022-07-16T10:16:50.242Z</time>
      </trkpt>
      <trkpt lat="45.92648" lon="7.2037">
        <ele>1839</ele>
        <time>2022-07-16T10:17:09.839Z</time>
      </trkpt>
      <trkpt lat="45.92606" lon="7.2035">
        <ele>1847</ele>
        <time>2022-07-16T10:17:33.778Z</time>
      </trkpt>
      <trkpt lat="45.92584" lon="7.20336">
        <ele>1852</ele>
        <time>2022-07-16T10:17:46.796Z</time>
      </trkpt>
      <trkpt lat="45.92539" lon="7.20299">
        <ele>1857</ele>
        <time>2022-07-16T10:18:05.074Z</time>
      </trkpt>
      <trkpt lat="45.92505" lon="7.20267">
        <ele>1868</ele>
        <time>2022-07-16T10:18:27.062Z</time>
      </trkpt>
      <trkpt lat="45.9248" lon="7.20232">
        <ele>1868</ele>
        <time>2022-07-16T10:18:31.957Z</time>
      </trkpt>
      <trkpt lat="45.92444" lon="7.20159">
        <ele>1859</ele>
        <time>2022-07-16T10:18:36.793Z</time>
      </trkpt>
      <trkpt lat="45.92428" lon="7.20143">
        <ele>1856</ele>
        <time>2022-07-16T10:18:38.307Z</time>
      </trkpt>
      <trkpt lat="45.92409" lon="7.20132">
        <ele>1854</ele>
        <time>2022-07-16T10:18:39.899Z</time>
      </trkpt>
      <trkpt lat="45.92392" lon="7.20128">
        <ele>1853</ele>
        <time>2022-07-16T10:18:41.211Z</time>
      </trkpt>
      <trkpt lat="45.92305" lon="7.20128">
        <ele>1858</ele>
        <time>2022-07-16T10:19:03.648Z</time>
      </trkpt>
      <trkpt lat="45.92208" lon="7.20116">
        <ele>1851</ele>
        <time>2022-07-16T10:19:11.212Z</time>
      </trkpt>
      <trkpt lat="45.92157" lon="7.20116">
        <ele>1852</ele>
        <time>2022-07-16T10:19:19.933Z</time>
      </trkpt>
      <trkpt lat="45.92131" lon="7.2012">
        <ele>1855</ele>
        <time>2022-07-16T10:19:31.070Z</time>
      </trkpt>
      <trkpt lat="45.92087" lon="7.20133">
        <ele>1863</ele>
        <time>2022-07-16T10:19:55.374Z</time>
      </trkpt>
      <trkpt lat="45.92024" lon="7.20147">
        <ele>1867</ele>
        <time>2022-07-16T10:20:12.436Z</time>
      </trkpt>
      <trkpt lat="45.91985" lon="7.20148">
        <ele>1864</ele>
        <time>2022-07-16T10:20:15.466Z</time>
      </trkpt>
      <trkpt lat="45.91944" lon="7.20145">
        <ele>1861</ele>
        <time>2022-07-16T10:20:18.656Z</time>
      </trkpt>
      <trkpt lat="45.91893" lon="7.20147">
        <ele>1858</ele>
        <time>2022-07-16T10:20:22.517Z</time>
      </trkpt>
      <trkpt lat="45.91864" lon="7.20154">
        <ele>1858</ele>
        <time>2022-07-16T10:20:26.642Z</time>
      </trkpt>
      <trkpt lat="45.91777" lon="7.20186">
        <ele>1869</ele>
        <time>2022-07-16T10:21:08.596Z</time>
      </trkpt>
      <trkpt lat="45.91738" lon="7.20192">
        <ele>1871</ele>
        <time>2022-07-16T10:21:18.279Z</time>
      </trkpt>
      <trkpt lat="45.91703" lon="7.20188">
        <ele>1873</ele>
        <time>2022-07-16T10:21:27.303Z</time>
      </trkpt>
      <trkpt lat="45.9161" lon="7.20157">
        <ele>1863</ele>
        <time>2022-07-16T10:21:34.720Z</time>
      </trkpt>
      <trkpt lat="45.91576" lon="7.20152">
        <ele>1860</ele>
        <time>2022-07-16T10:21:37.375Z</time>
      </trkpt>
      <trkpt lat="45.91476" lon="7.20165">
        <ele>1872</ele>
        <time>2022-07-16T10:22:22.602Z</time>
      </trkpt>
      <trkpt lat="45.91451" lon="7.20165">
        <ele>1874</ele>
        <time>2022-07-16T10:22:30.235Z</time>
      </trkpt>
      <trkpt lat="45.91378" lon="7.20156">
        <ele>1876</ele>
        <time>2022-07-16T10:22:43.939Z</time>
      </trkpt>
      <trkpt lat="45.91355" lon="7.20157">
        <ele>1878</ele>
        <time>2022-07-16T10:22:51.384Z</time>
      </trkpt>
      <trkpt lat="45.91264" lon="7.20171">
        <ele>1886</ele>
        <time>2022-07-16T10:23:21.122Z</time>
      </trkpt>
      <trkpt lat="45.9124" lon="7.20172">
        <ele>1888</ele>
        <time>2022-07-16T10:23:28.654Z</time>
      </trkpt>
      <trkpt lat="45.91212" lon="7.20168">
        <ele>1892</ele>
        <time>2022-07-16T10:23:43.879Z</time>
      </trkpt>
      <trkpt lat="45.91131" lon="7.20141">
        <ele>1893</ele>
        <time>2022-07-16T10:23:56.987Z</time>
      </trkpt>
      <trkpt lat="45.91074" lon="7.20119">
        <ele>1891</ele>
        <time>2022-07-16T10:24:02.576Z</time>
      </trkpt>
      <trkpt lat="45.91023" lon="7.20108">
        <ele>1893</ele>
        <time>2022-07-16T10:24:13.796Z</time>
      </trkpt>
      <trkpt lat="45.90975" lon="7.20104">
        <ele>1894</ele>
        <time>2022-07-16T10:24:22.128Z</time>
      </trkpt>
      <trkpt lat="45.90928" lon="7.20104">
        <ele>1895</ele>
        <time>2022-07-16T10:24:30.317Z</time>
      </trkpt>
      <trkpt lat="45.90816" lon="7.20087">
        <ele>1893</ele>
        <time>2022-07-16T10:24:43.055Z</time>
      </trkpt>
      <trkpt lat="45.90712" lon="7.201">
        <ele>1904</ele>
        <time>2022-07-16T10:25:23.239Z</time>
      </trkpt>
      <trkpt lat="45.90666" lon="7.20103">
        <ele>1907</ele>
        <time>2022-07-16T10:25:35.778Z</time>
      </trkpt>
      <trkpt lat="45.90624" lon="7.20101">
        <ele>1913</ele>
        <time>2022-07-16T10:25:58.516Z</time>
      </trkpt>
      <trkpt lat="45.90494" lon="7.20079">
        <ele>1921</ele>
        <time>2022-07-16T10:26:33.145Z</time>
      </trkpt>
      <trkpt lat="45.90425" lon="7.20052">
        <ele>1923</ele>
        <time>2022-07-16T10:26:46.631Z</time>
      </trkpt>
      <trkpt lat="45.90392" lon="7.20027">
        <ele>1921</ele>
        <time>2022-07-16T10:26:49.578Z</time>
      </trkpt>
      <trkpt lat="45.90372" lon="7.20001">
        <ele>1916</ele>
        <time>2022-07-16T10:26:51.673Z</time>
      </trkpt>
      <trkpt lat="45.90353" lon="7.1997">
        <ele>1915</ele>
        <time>2022-07-16T10:26:54.371Z</time>
      </trkpt>
      <trkpt lat="45.90315" lon="7.1988">
        <ele>1915</ele>
        <time>2022-07-16T10:27:04.647Z</time>
      </trkpt>
      <trkpt lat="45.90297" lon="7.19818">
        <ele>1916</ele>
        <time>2022-07-16T10:27:12.803Z</time>
      </trkpt>
      <trkpt lat="45.90279" lon="7.19778">
        <ele>1918</ele>
        <time>2022-07-16T10:27:21.524Z</time>
      </trkpt>
      <trkpt lat="45.90279" lon="7.19744">
        <ele>1916</ele>
        <time>2022-07-16T10:27:23.362Z</time>
      </trkpt>
      <trkpt lat="45.90274" lon="7.19702">
        <ele>1915</ele>
        <time>2022-07-16T10:27:26.175Z</time>
      </trkpt>
      <trkpt lat="45.9027" lon="7.19687">
        <ele>1915</ele>
        <time>2022-07-16T10:27:27.743Z</time>
      </trkpt>
      <trkpt lat="45.90246" lon="7.19637">
        <ele>1915</ele>
        <time>2022-07-16T10:27:33.672Z</time>
      </trkpt>
      <trkpt lat="45.90219" lon="7.19601">
        <ele>1915</ele>
        <time>2022-07-16T10:27:38.839Z</time>
      </trkpt>
      <trkpt lat="45.90206" lon="7.19591">
        <ele>1916</ele>
        <time>2022-07-16T10:27:42.933Z</time>
      </trkpt>
      <trkpt lat="45.90177" lon="7.19577">
        <ele>1918</ele>
        <time>2022-07-16T10:27:51.278Z</time>
      </trkpt>
      <trkpt lat="45.90137" lon="7.19571">
        <ele>1921</ele>
        <time>2022-07-16T10:28:03.037Z</time>
      </trkpt>
      <trkpt lat="45.89924" lon="7.19572">
        <ele>1932</ele>
        <time>2022-07-16T10:28:55.851Z</time>
      </trkpt>
      <trkpt lat="45.89896" lon="7.19561">
        <ele>1937</ele>
        <time>2022-07-16T10:29:11.557Z</time>
      </trkpt>
      <trkpt lat="45.89871" lon="7.1954">
        <ele>1940</ele>
        <time>2022-07-16T10:29:22.504Z</time>
      </trkpt>
      <trkpt lat="45.89855" lon="7.19519">
        <ele>1940</ele>
        <time>2022-07-16T10:29:25.544Z</time>
      </trkpt>
      <trkpt lat="45.89838" lon="7.19487">
        <ele>1938</ele>
        <time>2022-07-16T10:29:27.721Z</time>
      </trkpt>
      <trkpt lat="45.89817" lon="7.19436">
        <ele>1943</ele>
        <time>2022-07-16T10:29:46.691Z</time>
      </trkpt>
      <trkpt lat="45.89803" lon="7.19382">
        <ele>1949</ele>
        <time>2022-07-16T10:30:08.390Z</time>
      </trkpt>
      <trkpt lat="45.898" lon="7.1936">
        <ele>1951</ele>
        <time>2022-07-16T10:30:16.237Z</time>
      </trkpt>
      <trkpt lat="45.89801" lon="7.19345">
        <ele>1951</ele>
        <time>2022-07-16T10:30:17.708Z</time>
      </trkpt>
      <trkpt lat="45.89816" lon="7.19281">
        <ele>1949</ele>
        <time>2022-07-16T10:30:21.801Z</time>
      </trkpt>
      <trkpt lat="45.89822" lon="7.19242">
        <ele>1950</ele>
        <time>2022-07-16T10:30:27.617Z</time>
      </trkpt>
      <trkpt lat="45.89842" lon="7.19201">
        <ele>1949</ele>
        <time>2022-07-16T10:30:31.099Z</time>
      </trkpt>
      <trkpt lat="45.89853" lon="7.19152">
        <ele>1954</ele>
        <time>2022-07-16T10:30:50.486Z</time>
      </trkpt>
      <trkpt lat="45.89873" lon="7.19128">
        <ele>1952</ele>
        <time>2022-07-16T10:30:52.510Z</time>
      </trkpt>
      <trkpt lat="45.89883" lon="7.19111">
        <ele>1952</ele>
        <time>2022-07-16T10:30:54.683Z</time>
      </trkpt>
      <trkpt lat="45.89899" lon="7.1902">
        <ele>1960</ele>
        <time>2022-07-16T10:31:25.193Z</time>
      </trkpt>
      <trkpt lat="45.899" lon="7.19001">
        <ele>1962</ele>
        <time>2022-07-16T10:31:32.368Z</time>
      </trkpt>
      <trkpt lat="45.89892" lon="7.18958">
        <ele>1969</ele>
        <time>2022-07-16T10:31:49.127Z</time>
      </trkpt>
      <trkpt lat="45.89863" lon="7.18861">
        <ele>1987</ele>
        <time>2022-07-16T10:32:28.880Z</time>
      </trkpt>
      <trkpt lat="45.89826" lon="7.18776">
        <ele>1990</ele>
        <time>2022-07-16T10:32:45.027Z</time>
      </trkpt>
      <trkpt lat="45.89815" lon="7.1876">
        <ele>1989</ele>
        <time>2022-07-16T10:32:46.165Z</time>
      </trkpt>
      <trkpt lat="45.89784" lon="7.18748">
        <ele>1991</ele>
        <time>2022-07-16T10:32:54.729Z</time>
      </trkpt>
      <trkpt lat="45.8975" lon="7.18729">
        <ele>1995</ele>
        <time>2022-07-16T10:33:09.418Z</time>
      </trkpt>
      <trkpt lat="45.89734" lon="7.18724">
        <ele>1997</ele>
        <time>2022-07-16T10:33:17.034Z</time>
      </trkpt>
      <trkpt lat="45.89706" lon="7.18721">
        <ele>2001</ele>
        <time>2022-07-16T10:33:32.226Z</time>
      </trkpt>
      <trkpt lat="45.89633" lon="7.18693">
        <ele>2004</ele>
        <time>2022-07-16T10:33:48.883Z</time>
      </trkpt>
      <trkpt lat="45.89545" lon="7.18677">
        <ele>2009</ele>
        <time>2022-07-16T10:34:11.587Z</time>
      </trkpt>
      <trkpt lat="45.89513" lon="7.18667">
        <ele>2010</ele>
        <time>2022-07-16T10:34:17.965Z</time>
      </trkpt>
      <trkpt lat="45.89467" lon="7.18648">
        <ele>2013</ele>
        <time>2022-07-16T10:34:30.768Z</time>
      </trkpt>
      <trkpt lat="45.89457" lon="7.18646">
        <ele>2015</ele>
        <time>2022-07-16T10:34:36.231Z</time>
      </trkpt>
      <trkpt lat="45.8938" lon="7.18649">
        <ele>2025</ele>
        <time>2022-07-16T10:35:15.841Z</time>
      </trkpt>
      <trkpt lat="45.89301" lon="7.18647">
        <ele>2031</ele>
        <time>2022-07-16T10:35:39.189Z</time>
      </trkpt>
      <trkpt lat="45.89244" lon="7.18663">
        <ele>2039</ele>
        <time>2022-07-16T10:36:10.613Z</time>
      </trkpt>
      <trkpt lat="45.89162" lon="7.18692">
        <ele>2050</ele>
        <time>2022-07-16T10:36:54.299Z</time>
      </trkpt>
      <trkpt lat="45.89098" lon="7.18753">
        <ele>2061</ele>
        <time>2022-07-16T10:37:35.855Z</time>
      </trkpt>
      <trkpt lat="45.89022" lon="7.18799">
        <ele>2066</ele>
        <time>2022-07-16T10:37:57.597Z</time>
      </trkpt>
      <trkpt lat="45.88963" lon="7.18864">
        <ele>2082</ele>
        <time>2022-07-16T10:38:37.825Z</time>
      </trkpt>
      <trkpt lat="45.88954" lon="7.18868">
        <ele>2083</ele>
        <time>2022-07-16T10:38:41.480Z</time>
      </trkpt>
      <trkpt lat="45.88918" lon="7.18872">
        <ele>2084</ele>
        <time>2022-07-16T10:38:48.267Z</time>
      </trkpt>
      <trkpt lat="45.88874" lon="7.18873">
        <ele>2088</ele>
        <time>2022-07-16T10:39:03.012Z</time>
      </trkpt>
      <trkpt lat="45.88821" lon="7.18881">
        <ele>2095</ele>
        <time>2022-07-16T10:39:31.004Z</time>
      </trkpt>
      <trkpt lat="45.88752" lon="7.18876">
        <ele>2104</ele>
        <time>2022-07-16T10:40:06.750Z</time>
      </trkpt>
      <trkpt lat="45.88741" lon="7.18869">
        <ele>2104</ele>
        <time>2022-07-16T10:40:08.438Z</time>
      </trkpt>
      <trkpt lat="45.88694" lon="7.18806">
        <ele>2104</ele>
        <time>2022-07-16T10:40:17.455Z</time>
      </trkpt>
      <trkpt lat="45.8866" lon="7.18776">
        <ele>2109</ele>
        <time>2022-07-16T10:40:36.775Z</time>
      </trkpt>
      <trkpt lat="45.88633" lon="7.18715">
        <ele>2113</ele>
        <time>2022-07-16T10:40:52.074Z</time>
      </trkpt>
      <trkpt lat="45.88627" lon="7.1871">
        <ele>2115</ele>
        <time>2022-07-16T10:40:55.827Z</time>
      </trkpt>
      <trkpt lat="45.88621" lon="7.18711">
        <ele>2116</ele>
        <time>2022-07-16T10:40:59.095Z</time>
      </trkpt>
      <trkpt lat="45.8862" lon="7.18724">
        <ele>2115</ele>
        <time>2022-07-16T10:40:59.803Z</time>
      </trkpt>
      <trkpt lat="45.88624" lon="7.18745">
        <ele>2113</ele>
        <time>2022-07-16T10:41:00.980Z</time>
      </trkpt>
      <trkpt lat="45.88626" lon="7.18779">
        <ele>2117</ele>
        <time>2022-07-16T10:41:13.831Z</time>
      </trkpt>
      <trkpt lat="45.88633" lon="7.1881">
        <ele>2120</ele>
        <time>2022-07-16T10:41:25.898Z</time>
      </trkpt>
      <trkpt lat="45.88632" lon="7.18814">
        <ele>2121</ele>
        <time>2022-07-16T10:41:27.498Z</time>
      </trkpt>
      <trkpt lat="45.88624" lon="7.18817">
        <ele>2123</ele>
        <time>2022-07-16T10:41:31.972Z</time>
      </trkpt>
      <trkpt lat="45.88594" lon="7.18749">
        <ele>2119</ele>
        <time>2022-07-16T10:41:36.326Z</time>
      </trkpt>
      <trkpt lat="45.88505" lon="7.18566">
        <ele>2147</ele>
        <time>2022-07-16T10:43:00.405Z</time>
      </trkpt>
      <trkpt lat="45.8849" lon="7.18549">
        <ele>2150</ele>
        <time>2022-07-16T10:43:10.743Z</time>
      </trkpt>
      <trkpt lat="45.88473" lon="7.18536">
        <ele>2152</ele>
        <time>2022-07-16T10:43:18.042Z</time>
      </trkpt>
      <trkpt lat="45.88458" lon="7.18532">
        <ele>2154</ele>
        <time>2022-07-16T10:43:26.027Z</time>
      </trkpt>
      <trkpt lat="45.88417" lon="7.18529">
        <ele>2157</ele>
        <time>2022-07-16T10:43:37.890Z</time>
      </trkpt>
      <trkpt lat="45.88302" lon="7.18545">
        <ele>2179</ele>
        <time>2022-07-16T10:44:40.404Z</time>
      </trkpt>
      <trkpt lat="45.88282" lon="7.18545">
        <ele>2181</ele>
        <time>2022-07-16T10:44:47.699Z</time>
      </trkpt>
      <trkpt lat="45.88265" lon="7.18537">
        <ele>2181</ele>
        <time>2022-07-16T10:44:50.209Z</time>
      </trkpt>
      <trkpt lat="45.88256" lon="7.1853">
        <ele>2181</ele>
        <time>2022-07-16T10:44:51.644Z</time>
      </trkpt>
      <trkpt lat="45.8818" lon="7.18447">
        <ele>2185</ele>
        <time>2022-07-16T10:45:13.377Z</time>
      </trkpt>
      <trkpt lat="45.88161" lon="7.18434">
        <ele>2185</ele>
        <time>2022-07-16T10:45:16.329Z</time>
      </trkpt>
      <trkpt lat="45.88127" lon="7.18418">
        <ele>2189</ele>
        <time>2022-07-16T10:45:31.076Z</time>
      </trkpt>
      <trkpt lat="45.88082" lon="7.18405">
        <ele>2196</ele>
        <time>2022-07-16T10:45:55.912Z</time>
      </trkpt>
      <trkpt lat="45.88074" lon="7.184">
        <ele>2197</ele>
        <time>2022-07-16T10:45:59.623Z</time>
      </trkpt>
      <trkpt lat="45.8807" lon="7.18394">
        <ele>2197</ele>
        <time>2022-07-16T10:46:00.434Z</time>
      </trkpt>
      <trkpt lat="45.88058" lon="7.18275">
        <ele>2200</ele>
        <time>2022-07-16T10:46:17.915Z</time>
      </trkpt>
      <trkpt lat="45.88051" lon="7.18262">
        <ele>2202</ele>
        <time>2022-07-16T10:46:24.105Z</time>
      </trkpt>
      <trkpt lat="45.88042" lon="7.18263">
        <ele>2203</ele>
        <time>2022-07-16T10:46:27.785Z</time>
      </trkpt>
      <trkpt lat="45.88013" lon="7.18314">
        <ele>2201</ele>
        <time>2022-07-16T10:46:31.738Z</time>
      </trkpt>
      <trkpt lat="45.88006" lon="7.18318">
        <ele>2201</ele>
        <time>2022-07-16T10:46:32.795Z</time>
      </trkpt>
      <trkpt lat="45.88" lon="7.18316">
        <ele>2202</ele>
        <time>2022-07-16T10:46:36.127Z</time>
      </trkpt>
      <trkpt lat="45.87995" lon="7.18309">
        <ele>2203</ele>
        <time>2022-07-16T10:46:39.905Z</time>
      </trkpt>
      <trkpt lat="45.87977" lon="7.18257">
        <ele>2210</ele>
        <time>2022-07-16T10:47:01.780Z</time>
      </trkpt>
      <trkpt lat="45.87965" lon="7.18247">
        <ele>2212</ele>
        <time>2022-07-16T10:47:09.286Z</time>
      </trkpt>
      <trkpt lat="45.87958" lon="7.18246">
        <ele>2213</ele>
        <time>2022-07-16T10:47:13.092Z</time>
      </trkpt>
      <trkpt lat="45.87949" lon="7.18248">
        <ele>2214</ele>
        <time>2022-07-16T10:47:16.765Z</time>
      </trkpt>
      <trkpt lat="45.8789" lon="7.18278">
        <ele>2221</ele>
        <time>2022-07-16T10:47:42.575Z</time>
      </trkpt>
      <trkpt lat="45.87856" lon="7.18292">
        <ele>2225</ele>
        <time>2022-07-16T10:47:57.364Z</time>
      </trkpt>
      <trkpt lat="45.87775" lon="7.18309">
        <ele>2234</ele>
        <time>2022-07-16T10:48:30.430Z</time>
      </trkpt>
      <trkpt lat="45.87765" lon="7.18307">
        <ele>2236</ele>
        <time>2022-07-16T10:48:35.893Z</time>
      </trkpt>
      <trkpt lat="45.8775" lon="7.18297">
        <ele>2239</ele>
        <time>2022-07-16T10:48:44.840Z</time>
      </trkpt>
      <trkpt lat="45.87714" lon="7.18263">
        <ele>2244</ele>
        <time>2022-07-16T10:49:03.471Z</time>
      </trkpt>
      <trkpt lat="45.8763" lon="7.18197">
        <ele>2252</ele>
        <time>2022-07-16T10:49:33.574Z</time>
      </trkpt>
      <trkpt lat="45.87607" lon="7.18171">
        <ele>2254</ele>
        <time>2022-07-16T10:49:41.733Z</time>
      </trkpt>
      <trkpt lat="45.87594" lon="7.18161">
        <ele>2255</ele>
        <time>2022-07-16T10:49:45.828Z</time>
      </trkpt>
      <trkpt lat="45.87533" lon="7.18131">
        <ele>2263</ele>
        <time>2022-07-16T10:50:16.557Z</time>
      </trkpt>
      <trkpt lat="45.87489" lon="7.18123">
        <ele>2266</ele>
        <time>2022-07-16T10:50:28.858Z</time>
      </trkpt>
      <trkpt lat="45.87445" lon="7.18095">
        <ele>2274</ele>
        <time>2022-07-16T10:50:54.897Z</time>
      </trkpt>
      <trkpt lat="45.87404" lon="7.18092">
        <ele>2280</ele>
        <time>2022-07-16T10:51:17.109Z</time>
      </trkpt>
      <trkpt lat="45.87397" lon="7.18086">
        <ele>2281</ele>
        <time>2022-07-16T10:51:20.926Z</time>
      </trkpt>
      <trkpt lat="45.87396" lon="7.18073">
        <ele>2285</ele>
        <time>2022-07-16T10:51:25.853Z</time>
      </trkpt>
      <trkpt lat="45.87403" lon="7.18061">
        <ele>2287</ele>
        <time>2022-07-16T10:51:31.751Z</time>
      </trkpt>
      <trkpt lat="45.87433" lon="7.18031">
        <ele>2292</ele>
        <time>2022-07-16T10:51:51.529Z</time>
      </trkpt>
      <trkpt lat="45.87453" lon="7.18015">
        <ele>2294</ele>
        <time>2022-07-16T10:51:58.965Z</time>
      </trkpt>
      <trkpt lat="45.87471" lon="7.1801">
        <ele>2293</ele>
        <time>2022-07-16T10:52:00.402Z</time>
      </trkpt>
      <trkpt lat="45.87491" lon="7.1801">
        <ele>2290</ele>
        <time>2022-07-16T10:52:01.956Z</time>
      </trkpt>
      <trkpt lat="45.87515" lon="7.18014">
        <ele>2290</ele>
        <time>2022-07-16T10:52:05.345Z</time>
      </trkpt>
      <trkpt lat="45.87525" lon="7.18012">
        <ele>2291</ele>
        <time>2022-07-16T10:52:08.994Z</time>
      </trkpt>
      <trkpt lat="45.87558" lon="7.17995">
        <ele>2301</ele>
        <time>2022-07-16T10:52:27.963Z</time>
      </trkpt>
      <trkpt lat="45.87571" lon="7.17993">
        <ele>2303</ele>
        <time>2022-07-16T10:52:35.037Z</time>
      </trkpt>
      <trkpt lat="45.87611" lon="7.18018">
        <ele>2298</ele>
        <time>2022-07-16T10:52:38.426Z</time>
      </trkpt>
      <trkpt lat="45.87645" lon="7.18029">
        <ele>2297</ele>
        <time>2022-07-16T10:52:41.909Z</time>
      </trkpt>
      <trkpt lat="45.87671" lon="7.18029">
        <ele>2300</ele>
        <time>2022-07-16T10:52:53.066Z</time>
      </trkpt>
      <trkpt lat="45.87677" lon="7.18028">
        <ele>2300</ele>
        <time>2022-07-16T10:52:53.914Z</time>
      </trkpt>
      <trkpt lat="45.87681" lon="7.18024">
        <ele>2302</ele>
        <time>2022-07-16T10:52:56.551Z</time>
      </trkpt>
      <trkpt lat="45.87682" lon="7.18013">
        <ele>2307</ele>
        <time>2022-07-16T10:53:00.729Z</time>
      </trkpt>
      <trkpt lat="45.87676" lon="7.18003">
        <ele>2311</ele>
        <time>2022-07-16T10:53:05.702Z</time>
      </trkpt>
      <trkpt lat="45.87667" lon="7.18002">
        <ele>2312</ele>
        <time>2022-07-16T10:53:09.382Z</time>
      </trkpt>
      <trkpt lat="45.87653" lon="7.18005">
        <ele>2309</ele>
        <time>2022-07-16T10:53:10.481Z</time>
      </trkpt>
      <trkpt lat="45.87634" lon="7.18002">
        <ele>2307</ele>
        <time>2022-07-16T10:53:11.966Z</time>
      </trkpt>
      <trkpt lat="45.87621" lon="7.17995">
        <ele>2309</ele>
        <time>2022-07-16T10:53:19.478Z</time>
      </trkpt>
      <trkpt lat="45.87564" lon="7.17931">
        <ele>2333</ele>
        <time>2022-07-16T10:53:58.624Z</time>
      </trkpt>
      <trkpt lat="45.87537" lon="7.17924">
        <ele>2332</ele>
        <time>2022-07-16T10:54:01.157Z</time>
      </trkpt>
      <trkpt lat="45.87512" lon="7.17932">
        <ele>2324</ele>
        <time>2022-07-16T10:54:03.147Z</time>
      </trkpt>
      <trkpt lat="45.87501" lon="7.17928">
        <ele>2324</ele>
        <time>2022-07-16T10:54:04.739Z</time>
      </trkpt>
      <trkpt lat="45.87471" lon="7.17909">
        <ele>2337</ele>
        <time>2022-07-16T10:54:22.478Z</time>
      </trkpt>
      <trkpt lat="45.87465" lon="7.1791">
        <ele>2338</ele>
        <time>2022-07-16T10:54:25.747Z</time>
      </trkpt>
      <trkpt lat="45.87439" lon="7.17928">
        <ele>2332</ele>
        <time>2022-07-16T10:54:27.989Z</time>
      </trkpt>
      <trkpt lat="45.87403" lon="7.17923">
        <ele>2339</ele>
        <time>2022-07-16T10:54:47.558Z</time>
      </trkpt>
      <trkpt lat="45.87379" lon="7.17912">
        <ele>2348</ele>
        <time>2022-07-16T10:55:01.189Z</time>
      </trkpt>
      <trkpt lat="45.87358" lon="7.17913">
        <ele>2350</ele>
        <time>2022-07-16T10:55:08.510Z</time>
      </trkpt>
      <trkpt lat="45.87341" lon="7.17919">
        <ele>2350</ele>
        <time>2022-07-16T10:55:10.966Z</time>
      </trkpt>
      <trkpt lat="45.87322" lon="7.1792">
        <ele>2352</ele>
        <time>2022-07-16T10:55:18.271Z</time>
      </trkpt>
      <trkpt lat="45.87305" lon="7.17917">
        <ele>2355</ele>
        <time>2022-07-16T10:55:27.539Z</time>
      </trkpt>
      <trkpt lat="45.87295" lon="7.17911">
        <ele>2358</ele>
        <time>2022-07-16T10:55:33.402Z</time>
      </trkpt>
      <trkpt lat="45.87276" lon="7.17906">
        <ele>2361</ele>
        <time>2022-07-16T10:55:43.854Z</time>
      </trkpt>
      <trkpt lat="45.87263" lon="7.1791">
        <ele>2361</ele>
        <time>2022-07-16T10:55:45.719Z</time>
      </trkpt>
      <trkpt lat="45.87212" lon="7.17954">
        <ele>2348</ele>
        <time>2022-07-16T10:55:50.341Z</time>
      </trkpt>
      <trkpt lat="45.872" lon="7.17952">
        <ele>2350</ele>
        <time>2022-07-16T10:55:56.877Z</time>
      </trkpt>
      <trkpt lat="45.87191" lon="7.17943">
        <ele>2353</ele>
        <time>2022-07-16T10:56:02.811Z</time>
      </trkpt>
      <trkpt lat="45.87149" lon="7.1789">
        <ele>2369</ele>
        <time>2022-07-16T10:56:33.061Z</time>
      </trkpt>
      <trkpt lat="45.87114" lon="7.17839">
        <ele>2378</ele>
        <time>2022-07-16T10:57:00.038Z</time>
      </trkpt>
      <trkpt lat="45.8704" lon="7.17722">
        <ele>2391</ele>
        <time>2022-07-16T10:57:48.795Z</time>
      </trkpt>
      <trkpt lat="45.8704" lon="7.17708">
        <ele>2395</ele>
        <time>2022-07-16T10:57:54.069Z</time>
      </trkpt>
      <trkpt lat="45.87043" lon="7.17704">
        <ele>2397</ele>
        <time>2022-07-16T10:57:56.284Z</time>
      </trkpt>
      <trkpt lat="45.87049" lon="7.17703">
        <ele>2400</ele>
        <time>2022-07-16T10:57:59.552Z</time>
      </trkpt>
      <trkpt lat="45.87065" lon="7.17737">
        <ele>2395</ele>
        <time>2022-07-16T10:58:01.772Z</time>
      </trkpt>
      <trkpt lat="45.8708" lon="7.17758">
        <ele>2394</ele>
        <time>2022-07-16T10:58:03.513Z</time>
      </trkpt>
      <trkpt lat="45.87122" lon="7.17795">
        <ele>2392</ele>
        <time>2022-07-16T10:58:07.884Z</time>
      </trkpt>
      <trkpt lat="45.87162" lon="7.1784">
        <ele>2389</ele>
        <time>2022-07-16T10:58:11.722Z</time>
      </trkpt>
      <trkpt lat="45.87172" lon="7.17844">
        <ele>2388</ele>
        <time>2022-07-16T10:58:12.529Z</time>
      </trkpt>
      <trkpt lat="45.8718" lon="7.17838">
        <ele>2389</ele>
        <time>2022-07-16T10:58:16.208Z</time>
      </trkpt>
      <trkpt lat="45.87182" lon="7.17825">
        <ele>2392</ele>
        <time>2022-07-16T10:58:21.224Z</time>
      </trkpt>
      <trkpt lat="45.87178" lon="7.17811">
        <ele>2396</ele>
        <time>2022-07-16T10:58:26.925Z</time>
      </trkpt>
      <trkpt lat="45.87114" lon="7.17754">
        <ele>2401</ele>
        <time>2022-07-16T10:58:47.619Z</time>
      </trkpt>
      <trkpt lat="45.871" lon="7.17738">
        <ele>2404</ele>
        <time>2022-07-16T10:58:57.300Z</time>
      </trkpt>
      <trkpt lat="45.87085" lon="7.17714">
        <ele>2409</ele>
        <time>2022-07-16T10:59:09.449Z</time>
      </trkpt>
      <trkpt lat="45.87078" lon="7.17695">
        <ele>2413</ele>
        <time>2022-07-16T10:59:17.548Z</time>
      </trkpt>
      <trkpt lat="45.87073" lon="7.17661">
        <ele>2422</ele>
        <time>2022-07-16T10:59:30.639Z</time>
      </trkpt>
      <trkpt lat="45.87067" lon="7.17642">
        <ele>2425</ele>
        <time>2022-07-16T10:59:38.499Z</time>
      </trkpt>
      <trkpt lat="45.87025" lon="7.17578">
        <ele>2424</ele>
        <time>2022-07-16T10:59:45.546Z</time>
      </trkpt>
      <trkpt lat="45.87015" lon="7.17558">
        <ele>2424</ele>
        <time>2022-07-16T10:59:47.951Z</time>
      </trkpt>
      <trkpt lat="45.87013" lon="7.17511">
        <ele>2434</ele>
        <time>2022-07-16T11:00:05.691Z</time>
      </trkpt>
      <trkpt lat="45.86997" lon="7.17456">
        <ele>2443</ele>
        <time>2022-07-16T11:00:28.147Z</time>
      </trkpt>
      <trkpt lat="45.86988" lon="7.17408">
        <ele>2453</ele>
        <time>2022-07-16T11:00:46.874Z</time>
      </trkpt>
      <trkpt lat="45.8694" lon="7.17313">
        <ele>2456</ele>
        <time>2022-07-16T11:01:04.146Z</time>
      </trkpt>
      <trkpt lat="45.86939" lon="7.17296">
        <ele>2460</ele>
        <time>2022-07-16T11:01:10.574Z</time>
      </trkpt>
      <trkpt lat="45.86943" lon="7.17244">
        <ele>2475</ele>
        <time>2022-07-16T11:01:30.283Z</time>
      </trkpt>
      <trkpt lat="45.86938" lon="7.17212">
        <ele>2477</ele>
        <time>2022-07-16T11:01:37.714Z</time>
      </trkpt>
      <trkpt lat="45.86916" lon="7.17173">
        <ele>2472</ele>
        <time>2022-07-16T11:01:40.430Z</time>
      </trkpt>
      <trkpt lat="45.86908" lon="7.17154">
        <ele>2475</ele>
        <time>2022-07-16T11:01:48.795Z</time>
      </trkpt>
      <trkpt lat="45.86894" lon="7.17091">
        <ele>2478</ele>
        <time>2022-07-16T11:02:01.334Z</time>
      </trkpt>
      <trkpt lat="45.86911" lon="7.17043">
        <ele>2475</ele>
        <time>2022-07-16T11:02:04.247Z</time>
      </trkpt>
      <trkpt lat="45.86932" lon="7.17006">
        <ele>2478</ele>
        <time>2022-07-16T11:02:15.321Z</time>
      </trkpt>
      <trkpt lat="45.8694" lon="7.1698">
        <ele>2478</ele>
        <time>2022-07-16T11:02:18.097Z</time>
      </trkpt>
      <trkpt lat="45.86957" lon="7.16889">
        <ele>2476</ele>
        <time>2022-07-16T11:02:24.531Z</time>
      </trkpt>
      <trkpt lat="45.86962" lon="7.16847">
        <ele>2476</ele>
        <time>2022-07-16T11:02:28.693Z</time>
      </trkpt>
      <trkpt lat="45.86932" lon="7.16727">
        <ele>2465</ele>
        <time>2022-07-16T11:02:35.590Z</time>
      </trkpt>
      <trkpt lat="45.86927" lon="7.16631">
        <ele>2463</ele>
        <time>2022-07-16T11:02:42.209Z</time>
      </trkpt>
      <trkpt lat="45.86923" lon="7.16609">
        <ele>2461</ele>
        <time>2022-07-16T11:02:43.439Z</time>
      </trkpt>
      <trkpt lat="45.86909" lon="7.16573">
        <ele>2459</ele>
        <time>2022-07-16T11:02:45.670Z</time>
      </trkpt>
      <trkpt lat="45.86896" lon="7.16558">
        <ele>2459</ele>
        <time>2022-07-16T11:02:48.009Z</time>
      </trkpt>
      <trkpt lat="45.8688" lon="7.16546">
        <ele>2458</ele>
        <time>2022-07-16T11:02:49.414Z</time>
      </trkpt>
      <trkpt lat="45.86867" lon="7.16538">
        <ele>2457</ele>
        <time>2022-07-16T11:02:50.512Z</time>
      </trkpt>
      <trkpt lat="45.86845" lon="7.16531">
        <ele>2455</ele>
        <time>2022-07-16T11:02:52.263Z</time>
      </trkpt>
      <trkpt lat="45.86818" lon="7.16528">
        <ele>2454</ele>
        <time>2022-07-16T11:02:54.752Z</time>
      </trkpt>
      <trkpt lat="45.86787" lon="7.1652">
        <ele>2454</ele>
        <time>2022-07-16T11:02:59.170Z</time>
      </trkpt>
      <trkpt lat="45.86757" lon="7.16504">
        <ele>2453</ele>
        <time>2022-07-16T11:03:02.283Z</time>
      </trkpt>
      <trkpt lat="45.86733" lon="7.16486">
        <ele>2451</ele>
        <time>2022-07-16T11:03:04.387Z</time>
      </trkpt>
      <trkpt lat="45.86724" lon="7.16475">
        <ele>2449</ele>
        <time>2022-07-16T11:03:05.305Z</time>
      </trkpt>
      <trkpt lat="45.86714" lon="7.16453">
        <ele>2445</ele>
        <time>2022-07-16T11:03:06.727Z</time>
      </trkpt>
      <trkpt lat="45.86706" lon="7.16408">
        <ele>2438</ele>
        <time>2022-07-16T11:03:09.239Z</time>
      </trkpt>
      <trkpt lat="45.86705" lon="7.16394">
        <ele>2435</ele>
        <time>2022-07-16T11:03:10.001Z</time>
      </trkpt>
      <trkpt lat="45.86708" lon="7.16385">
        <ele>2434</ele>
        <time>2022-07-16T11:03:10.540Z</time>
      </trkpt>
      <trkpt lat="45.86735" lon="7.16328">
        <ele>2434</ele>
        <time>2022-07-16T11:03:17.274Z</time>
      </trkpt>
      <trkpt lat="45.86738" lon="7.16317">
        <ele>2433</ele>
        <time>2022-07-16T11:03:17.913Z</time>
      </trkpt>
      <trkpt lat="45.86742" lon="7.16276">
        <ele>2426</ele>
        <time>2022-07-16T11:03:20.153Z</time>
      </trkpt>
      <trkpt lat="45.8675" lon="7.16248">
        <ele>2424</ele>
        <time>2022-07-16T11:03:21.790Z</time>
      </trkpt>
      <trkpt lat="45.86781" lon="7.16181">
        <ele>2405</ele>
        <time>2022-07-16T11:03:26.142Z</time>
      </trkpt>
      <trkpt lat="45.86795" lon="7.1616">
        <ele>2400</ele>
        <time>2022-07-16T11:03:27.715Z</time>
      </trkpt>
      <trkpt lat="45.86802" lon="7.16156">
        <ele>2400</ele>
        <time>2022-07-16T11:03:28.772Z</time>
      </trkpt>
      <trkpt lat="45.8686" lon="7.16151">
        <ele>2421</ele>
        <time>2022-07-16T11:04:00.210Z</time>
      </trkpt>
      <trkpt lat="45.86878" lon="7.16147">
        <ele>2426</ele>
        <time>2022-07-16T11:04:10.065Z</time>
      </trkpt>
      <trkpt lat="45.86885" lon="7.16142">
        <ele>2427</ele>
        <time>2022-07-16T11:04:13.983Z</time>
      </trkpt>
      <trkpt lat="45.87042" lon="7.15852">
        <ele>2402</ele>
        <time>2022-07-16T11:04:33.855Z</time>
      </trkpt>
      <trkpt lat="45.87055" lon="7.15817">
        <ele>2398</ele>
        <time>2022-07-16T11:04:36.001Z</time>
      </trkpt>
      <trkpt lat="45.87058" lon="7.15803">
        <ele>2397</ele>
        <time>2022-07-16T11:04:36.793Z</time>
      </trkpt>
      <trkpt lat="45.87058" lon="7.1578">
        <ele>2394</ele>
        <time>2022-07-16T11:04:38.038Z</time>
      </trkpt>
      <trkpt lat="45.87054" lon="7.15758">
        <ele>2390</ele>
        <time>2022-07-16T11:04:39.268Z</time>
      </trkpt>
      <trkpt lat="45.87045" lon="7.15726">
        <ele>2390</ele>
        <time>2022-07-16T11:04:42.638Z</time>
      </trkpt>
      <trkpt lat="45.87032" lon="7.15694">
        <ele>2392</ele>
        <time>2022-07-16T11:04:50.358Z</time>
      </trkpt>
      <trkpt lat="45.87026" lon="7.15687">
        <ele>2393</ele>
        <time>2022-07-16T11:04:54.308Z</time>
      </trkpt>
      <trkpt lat="45.87017" lon="7.15685">
        <ele>2392</ele>
        <time>2022-07-16T11:04:55.016Z</time>
      </trkpt>
      <trkpt lat="45.86959" lon="7.15697">
        <ele>2376</ele>
        <time>2022-07-16T11:04:59.569Z</time>
      </trkpt>
      <trkpt lat="45.86934" lon="7.15698">
        <ele>2369</ele>
        <time>2022-07-16T11:05:01.512Z</time>
      </trkpt>
      <trkpt lat="45.8692" lon="7.15688">
        <ele>2367</ele>
        <time>2022-07-16T11:05:02.727Z</time>
      </trkpt>
      <trkpt lat="45.86913" lon="7.15677">
        <ele>2366</ele>
        <time>2022-07-16T11:05:03.533Z</time>
      </trkpt>
      <trkpt lat="45.86907" lon="7.1566">
        <ele>2366</ele>
        <time>2022-07-16T11:05:05.394Z</time>
      </trkpt>
      <trkpt lat="45.86906" lon="7.15632">
        <ele>2366</ele>
        <time>2022-07-16T11:05:08.133Z</time>
      </trkpt>
      <trkpt lat="45.86909" lon="7.15613">
        <ele>2368</ele>
        <time>2022-07-16T11:05:15.473Z</time>
      </trkpt>
      <trkpt lat="45.86918" lon="7.15587">
        <ele>2371</ele>
        <time>2022-07-16T11:05:26.412Z</time>
      </trkpt>
      <trkpt lat="45.86923" lon="7.15563">
        <ele>2372</ele>
        <time>2022-07-16T11:05:30.906Z</time>
      </trkpt>
      <trkpt lat="45.86917" lon="7.15505">
        <ele>2366</ele>
        <time>2022-07-16T11:05:34.078Z</time>
      </trkpt>
      <trkpt lat="45.86927" lon="7.15411">
        <ele>2362</ele>
        <time>2022-07-16T11:05:39.025Z</time>
      </trkpt>
      <trkpt lat="45.86928" lon="7.15388">
        <ele>2365</ele>
        <time>2022-07-16T11:05:47.707Z</time>
      </trkpt>
      <trkpt lat="45.86926" lon="7.15383">
        <ele>2365</ele>
        <time>2022-07-16T11:05:48.271Z</time>
      </trkpt>
      <trkpt lat="45.86917" lon="7.15374">
        <ele>2363</ele>
        <time>2022-07-16T11:05:49.123Z</time>
      </trkpt>
      <trkpt lat="45.8691" lon="7.15375">
        <ele>2362</ele>
        <time>2022-07-16T11:05:49.669Z</time>
      </trkpt>
      <trkpt lat="45.8685" lon="7.15404">
        <ele>2350</ele>
        <time>2022-07-16T11:05:54.588Z</time>
      </trkpt>
      <trkpt lat="45.86828" lon="7.15411">
        <ele>2345</ele>
        <time>2022-07-16T11:05:56.338Z</time>
      </trkpt>
      <trkpt lat="45.86818" lon="7.15412">
        <ele>2343</ele>
        <time>2022-07-16T11:05:57.117Z</time>
      </trkpt>
      <trkpt lat="45.86803" lon="7.15404">
        <ele>2340</ele>
        <time>2022-07-16T11:05:58.360Z</time>
      </trkpt>
      <trkpt lat="45.86791" lon="7.15389">
        <ele>2339</ele>
        <time>2022-07-16T11:05:59.526Z</time>
      </trkpt>
      <trkpt lat="45.86783" lon="7.1537">
        <ele>2338</ele>
        <time>2022-07-16T11:06:00.644Z</time>
      </trkpt>
      <trkpt lat="45.86771" lon="7.153">
        <ele>2335</ele>
        <time>2022-07-16T11:06:04.414Z</time>
      </trkpt>
      <trkpt lat="45.86774" lon="7.1527">
        <ele>2335</ele>
        <time>2022-07-16T11:06:07.374Z</time>
      </trkpt>
      <trkpt lat="45.86786" lon="7.15224">
        <ele>2340</ele>
        <time>2022-07-16T11:06:25.881Z</time>
      </trkpt>
      <trkpt lat="45.86785" lon="7.15205">
        <ele>2341</ele>
        <time>2022-07-16T11:06:29.784Z</time>
      </trkpt>
      <trkpt lat="45.86778" lon="7.15193">
        <ele>2340</ele>
        <time>2022-07-16T11:06:30.631Z</time>
      </trkpt>
      <trkpt lat="45.86767" lon="7.15181">
        <ele>2337</ele>
        <time>2022-07-16T11:06:31.704Z</time>
      </trkpt>
      <trkpt lat="45.86737" lon="7.15155">
        <ele>2335</ele>
        <time>2022-07-16T11:06:34.394Z</time>
      </trkpt>
      <trkpt lat="45.86727" lon="7.15151">
        <ele>2334</ele>
        <time>2022-07-16T11:06:35.200Z</time>
      </trkpt>
      <trkpt lat="45.86722" lon="7.15152">
        <ele>2333</ele>
        <time>2022-07-16T11:06:35.592Z</time>
      </trkpt>
      <trkpt lat="45.86693" lon="7.15168">
        <ele>2324</ele>
        <time>2022-07-16T11:06:38.006Z</time>
      </trkpt>
      <trkpt lat="45.86688" lon="7.15168">
        <ele>2323</ele>
        <time>2022-07-16T11:06:38.395Z</time>
      </trkpt>
      <trkpt lat="45.8667" lon="7.15146">
        <ele>2324</ele>
        <time>2022-07-16T11:06:43.808Z</time>
      </trkpt>
      <trkpt lat="45.8666" lon="7.15143">
        <ele>2324</ele>
        <time>2022-07-16T11:06:45.241Z</time>
      </trkpt>
      <trkpt lat="45.86655" lon="7.15147">
        <ele>2324</ele>
        <time>2022-07-16T11:06:46.044Z</time>
      </trkpt>
      <trkpt lat="45.86608" lon="7.15244">
        <ele>2315</ele>
        <time>2022-07-16T11:06:52.437Z</time>
      </trkpt>
      <trkpt lat="45.86553" lon="7.15344">
        <ele>2308</ele>
        <time>2022-07-16T11:06:59.331Z</time>
      </trkpt>
      <trkpt lat="45.86535" lon="7.15372">
        <ele>2307</ele>
        <time>2022-07-16T11:07:01.752Z</time>
      </trkpt>
      <trkpt lat="45.86497" lon="7.15404">
        <ele>2303</ele>
        <time>2022-07-16T11:07:05.174Z</time>
      </trkpt>
      <trkpt lat="45.86472" lon="7.1542">
        <ele>2300</ele>
        <time>2022-07-16T11:07:07.301Z</time>
      </trkpt>
      <trkpt lat="45.86444" lon="7.15427">
        <ele>2300</ele>
        <time>2022-07-16T11:07:11.288Z</time>
      </trkpt>
      <trkpt lat="45.86431" lon="7.15434">
        <ele>2299</ele>
        <time>2022-07-16T11:07:12.366Z</time>
      </trkpt>
      <trkpt lat="45.86427" lon="7.15448">
        <ele>2297</ele>
        <time>2022-07-16T11:07:13.185Z</time>
      </trkpt>
      <trkpt lat="45.86443" lon="7.15518">
        <ele>2287</ele>
        <time>2022-07-16T11:07:17.171Z</time>
      </trkpt>
      <trkpt lat="45.8644" lon="7.15542">
        <ele>2284</ele>
        <time>2022-07-16T11:07:18.490Z</time>
      </trkpt>
      <trkpt lat="45.86428" lon="7.15573">
        <ele>2280</ele>
        <time>2022-07-16T11:07:20.409Z</time>
      </trkpt>
      <trkpt lat="45.86424" lon="7.15577">
        <ele>2279</ele>
        <time>2022-07-16T11:07:20.788Z</time>
      </trkpt>
      <trkpt lat="45.86415" lon="7.15577">
        <ele>2279</ele>
        <time>2022-07-16T11:07:22.050Z</time>
      </trkpt>
      <trkpt lat="45.86397" lon="7.15561">
        <ele>2278</ele>
        <time>2022-07-16T11:07:23.817Z</time>
      </trkpt>
      <trkpt lat="45.86361" lon="7.15548">
        <ele>2273</ele>
        <time>2022-07-16T11:07:26.701Z</time>
      </trkpt>
      <trkpt lat="45.86348" lon="7.15546">
        <ele>2271</ele>
        <time>2022-07-16T11:07:27.717Z</time>
      </trkpt>
      <trkpt lat="45.86338" lon="7.15551">
        <ele>2268</ele>
        <time>2022-07-16T11:07:28.540Z</time>
      </trkpt>
      <trkpt lat="45.86337" lon="7.15566">
        <ele>2267</ele>
        <time>2022-07-16T11:07:29.355Z</time>
      </trkpt>
      <trkpt lat="45.86343" lon="7.15579">
        <ele>2266</ele>
        <time>2022-07-16T11:07:30.199Z</time>
      </trkpt>
      <trkpt lat="45.86375" lon="7.15591">
        <ele>2270</ele>
        <time>2022-07-16T11:07:45.357Z</time>
      </trkpt>
      <trkpt lat="45.86389" lon="7.15606">
        <ele>2271</ele>
        <time>2022-07-16T11:07:49.855Z</time>
      </trkpt>
      <trkpt lat="45.86397" lon="7.15619">
        <ele>2271</ele>
        <time>2022-07-16T11:07:51.550Z</time>
      </trkpt>
      <trkpt lat="45.86411" lon="7.1565">
        <ele>2271</ele>
        <time>2022-07-16T11:07:55.159Z</time>
      </trkpt>
      <trkpt lat="45.86431" lon="7.15724">
        <ele>2265</ele>
        <time>2022-07-16T11:07:59.454Z</time>
      </trkpt>
      <trkpt lat="45.86443" lon="7.15741">
        <ele>2265</ele>
        <time>2022-07-16T11:08:01.818Z</time>
      </trkpt>
      <trkpt lat="45.86503" lon="7.15788">
        <ele>2264</ele>
        <time>2022-07-16T11:08:09.851Z</time>
      </trkpt>
      <trkpt lat="45.86538" lon="7.1581">
        <ele>2264</ele>
        <time>2022-07-16T11:08:15.210Z</time>
      </trkpt>
      <trkpt lat="45.86549" lon="7.15821">
        <ele>2264</ele>
        <time>2022-07-16T11:08:17.091Z</time>
      </trkpt>
      <trkpt lat="45.86554" lon="7.15834">
        <ele>2262</ele>
        <time>2022-07-16T11:08:17.894Z</time>
      </trkpt>
      <trkpt lat="45.86554" lon="7.15841">
        <ele>2262</ele>
        <time>2022-07-16T11:08:18.578Z</time>
      </trkpt>
      <trkpt lat="45.86542" lon="7.159">
        <ele>2255</ele>
        <time>2022-07-16T11:08:21.903Z</time>
      </trkpt>
      <trkpt lat="45.86536" lon="7.15914">
        <ele>2253</ele>
        <time>2022-07-16T11:08:22.793Z</time>
      </trkpt>
      <trkpt lat="45.86532" lon="7.15918">
        <ele>2252</ele>
        <time>2022-07-16T11:08:23.171Z</time>
      </trkpt>
      <trkpt lat="45.86483" lon="7.15921">
        <ele>2247</ele>
        <time>2022-07-16T11:08:26.982Z</time>
      </trkpt>
      <trkpt lat="45.86457" lon="7.1592">
        <ele>2245</ele>
        <time>2022-07-16T11:08:29.003Z</time>
      </trkpt>
      <trkpt lat="45.86425" lon="7.15914">
        <ele>2243</ele>
        <time>2022-07-16T11:08:31.384Z</time>
      </trkpt>
      <trkpt lat="45.8639" lon="7.15937">
        <ele>2238</ele>
        <time>2022-07-16T11:08:34.375Z</time>
      </trkpt>
      <trkpt lat="45.86326" lon="7.15946">
        <ele>2230</ele>
        <time>2022-07-16T11:08:39.371Z</time>
      </trkpt>
      <trkpt lat="45.86312" lon="7.15951">
        <ele>2228</ele>
        <time>2022-07-16T11:08:40.492Z</time>
      </trkpt>
      <trkpt lat="45.86308" lon="7.15959">
        <ele>2227</ele>
        <time>2022-07-16T11:08:41.025Z</time>
      </trkpt>
      <trkpt lat="45.86306" lon="7.1602">
        <ele>2229</ele>
        <time>2022-07-16T11:08:51.256Z</time>
      </trkpt>
      <trkpt lat="45.86302" lon="7.16029">
        <ele>2229</ele>
        <time>2022-07-16T11:08:52.299Z</time>
      </trkpt>
      <trkpt lat="45.86276" lon="7.16054">
        <ele>2228</ele>
        <time>2022-07-16T11:08:55.321Z</time>
      </trkpt>
      <trkpt lat="45.86265" lon="7.16068">
        <ele>2228</ele>
        <time>2022-07-16T11:08:57.383Z</time>
      </trkpt>
      <trkpt lat="45.86242" lon="7.16086">
        <ele>2226</ele>
        <time>2022-07-16T11:08:59.418Z</time>
      </trkpt>
      <trkpt lat="45.86221" lon="7.16088">
        <ele>2224</ele>
        <time>2022-07-16T11:09:01.054Z</time>
      </trkpt>
      <trkpt lat="45.86198" lon="7.16087">
        <ele>2221</ele>
        <time>2022-07-16T11:09:02.841Z</time>
      </trkpt>
      <trkpt lat="45.86183" lon="7.16078">
        <ele>2218</ele>
        <time>2022-07-16T11:09:04.104Z</time>
      </trkpt>
      <trkpt lat="45.86157" lon="7.16057">
        <ele>2213</ele>
        <time>2022-07-16T11:09:06.422Z</time>
      </trkpt>
      <trkpt lat="45.86127" lon="7.16044">
        <ele>2206</ele>
        <time>2022-07-16T11:09:08.857Z</time>
      </trkpt>
      <trkpt lat="45.8612" lon="7.16039">
        <ele>2204</ele>
        <time>2022-07-16T11:09:09.464Z</time>
      </trkpt>
      <trkpt lat="45.86115" lon="7.1603">
        <ele>2202</ele>
        <time>2022-07-16T11:09:10.087Z</time>
      </trkpt>
      <trkpt lat="45.86115" lon="7.16015">
        <ele>2201</ele>
        <time>2022-07-16T11:09:10.899Z</time>
      </trkpt>
      <trkpt lat="45.86118" lon="7.16002">
        <ele>2201</ele>
        <time>2022-07-16T11:09:12.237Z</time>
      </trkpt>
      <trkpt lat="45.86168" lon="7.15934">
        <ele>2207</ele>
        <time>2022-07-16T11:09:34.558Z</time>
      </trkpt>
      <trkpt lat="45.86172" lon="7.15923">
        <ele>2206</ele>
        <time>2022-07-16T11:09:35.229Z</time>
      </trkpt>
      <trkpt lat="45.86169" lon="7.15907">
        <ele>2206</ele>
        <time>2022-07-16T11:09:36.848Z</time>
      </trkpt>
      <trkpt lat="45.86161" lon="7.15892">
        <ele>2205</ele>
        <time>2022-07-16T11:09:37.870Z</time>
      </trkpt>
      <trkpt lat="45.86125" lon="7.15883">
        <ele>2200</ele>
        <time>2022-07-16T11:09:40.709Z</time>
      </trkpt>
      <trkpt lat="45.86114" lon="7.15875">
        <ele>2199</ele>
        <time>2022-07-16T11:09:41.667Z</time>
      </trkpt>
      <trkpt lat="45.86091" lon="7.15875">
        <ele>2195</ele>
        <time>2022-07-16T11:09:43.454Z</time>
      </trkpt>
      <trkpt lat="45.86082" lon="7.15873">
        <ele>2194</ele>
        <time>2022-07-16T11:09:44.162Z</time>
      </trkpt>
      <trkpt lat="45.86074" lon="7.15868">
        <ele>2192</ele>
        <time>2022-07-16T11:09:44.839Z</time>
      </trkpt>
      <trkpt lat="45.86059" lon="7.1585">
        <ele>2189</ele>
        <time>2022-07-16T11:09:46.358Z</time>
      </trkpt>
      <trkpt lat="45.86047" lon="7.15829">
        <ele>2185</ele>
        <time>2022-07-16T11:09:47.828Z</time>
      </trkpt>
      <trkpt lat="45.86042" lon="7.15808">
        <ele>2178</ele>
        <time>2022-07-16T11:09:49.029Z</time>
      </trkpt>
      <trkpt lat="45.86045" lon="7.15796">
        <ele>2176</ele>
        <time>2022-07-16T11:09:49.719Z</time>
      </trkpt>
      <trkpt lat="45.86049" lon="7.1579">
        <ele>2176</ele>
        <time>2022-07-16T11:09:50.530Z</time>
      </trkpt>
      <trkpt lat="45.86073" lon="7.15765">
        <ele>2178</ele>
        <time>2022-07-16T11:09:58.742Z</time>
      </trkpt>
      <trkpt lat="45.86113" lon="7.15729">
        <ele>2183</ele>
        <time>2022-07-16T11:10:17.016Z</time>
      </trkpt>
      <trkpt lat="45.86123" lon="7.15709">
        <ele>2182</ele>
        <time>2022-07-16T11:10:18.319Z</time>
      </trkpt>
      <trkpt lat="45.86137" lon="7.15651">
        <ele>2179</ele>
        <time>2022-07-16T11:10:21.640Z</time>
      </trkpt>
      <trkpt lat="45.86141" lon="7.15625">
        <ele>2181</ele>
        <time>2022-07-16T11:10:28.965Z</time>
      </trkpt>
      <trkpt lat="45.86139" lon="7.15604">
        <ele>2181</ele>
        <time>2022-07-16T11:10:31.036Z</time>
      </trkpt>
      <trkpt lat="45.86128" lon="7.1558">
        <ele>2178</ele>
        <time>2022-07-16T11:10:32.590Z</time>
      </trkpt>
      <trkpt lat="45.861" lon="7.15552">
        <ele>2174</ele>
        <time>2022-07-16T11:10:35.241Z</time>
      </trkpt>
      <trkpt lat="45.86046" lon="7.15514">
        <ele>2165</ele>
        <time>2022-07-16T11:10:39.913Z</time>
      </trkpt>
      <trkpt lat="45.86015" lon="7.15503">
        <ele>2157</ele>
        <time>2022-07-16T11:10:42.394Z</time>
      </trkpt>
      <trkpt lat="45.85991" lon="7.15489">
        <ele>2153</ele>
        <time>2022-07-16T11:10:44.407Z</time>
      </trkpt>
      <trkpt lat="45.85967" lon="7.15457">
        <ele>2154</ele>
        <time>2022-07-16T11:10:50.785Z</time>
      </trkpt>
      <trkpt lat="45.85938" lon="7.15441">
        <ele>2144</ele>
        <time>2022-07-16T11:10:53.199Z</time>
      </trkpt>
      <trkpt lat="45.85918" lon="7.15426">
        <ele>2137</ele>
        <time>2022-07-16T11:10:54.952Z</time>
      </trkpt>
      <trkpt lat="45.85904" lon="7.15409">
        <ele>2136</ele>
        <time>2022-07-16T11:10:56.389Z</time>
      </trkpt>
      <trkpt lat="45.85877" lon="7.15347">
        <ele>2144</ele>
        <time>2022-07-16T11:11:23.943Z</time>
      </trkpt>
      <trkpt lat="45.85859" lon="7.15328">
        <ele>2134</ele>
        <time>2022-07-16T11:11:25.678Z</time>
      </trkpt>
      <trkpt lat="45.85851" lon="7.15314">
        <ele>2129</ele>
        <time>2022-07-16T11:11:26.658Z</time>
      </trkpt>
      <trkpt lat="45.85845" lon="7.15288">
        <ele>2129</ele>
        <time>2022-07-16T11:11:29.334Z</time>
      </trkpt>
      <trkpt lat="45.85851" lon="7.15204">
        <ele>2147</ele>
        <time>2022-07-16T11:12:01.153Z</time>
      </trkpt>
      <trkpt lat="45.85832" lon="7.15135">
        <ele>2129</ele>
        <time>2022-07-16T11:12:05.167Z</time>
      </trkpt>
      <trkpt lat="45.85807" lon="7.14875">
        <ele>2114</ele>
        <time>2022-07-16T11:12:19.369Z</time>
      </trkpt>
      <trkpt lat="45.8578" lon="7.1472">
        <ele>2108</ele>
        <time>2022-07-16T11:12:28.136Z</time>
      </trkpt>
      <trkpt lat="45.85766" lon="7.14658">
        <ele>2105</ele>
        <time>2022-07-16T11:12:31.381Z</time>
      </trkpt>
      <trkpt lat="45.85715" lon="7.1458">
        <ele>2093</ele>
        <time>2022-07-16T11:12:37.170Z</time>
      </trkpt>
      <trkpt lat="45.85693" lon="7.14524">
        <ele>2100</ele>
        <time>2022-07-16T11:13:01.398Z</time>
      </trkpt>
      <trkpt lat="45.85615" lon="7.14492">
        <ele>2084</ele>
        <time>2022-07-16T11:13:07.701Z</time>
      </trkpt>
      <trkpt lat="45.85592" lon="7.14475">
        <ele>2082</ele>
        <time>2022-07-16T11:13:09.710Z</time>
      </trkpt>
      <trkpt lat="45.85561" lon="7.14459">
        <ele>2081</ele>
        <time>2022-07-16T11:13:12.945Z</time>
      </trkpt>
      <trkpt lat="45.85543" lon="7.14441">
        <ele>2084</ele>
        <time>2022-07-16T11:13:24.814Z</time>
      </trkpt>
      <trkpt lat="45.85532" lon="7.14442">
        <ele>2081</ele>
        <time>2022-07-16T11:13:25.670Z</time>
      </trkpt>
      <trkpt lat="45.85529" lon="7.14449">
        <ele>2079</ele>
        <time>2022-07-16T11:13:26.115Z</time>
      </trkpt>
      <trkpt lat="45.8553" lon="7.1446">
        <ele>2076</ele>
        <time>2022-07-16T11:13:26.715Z</time>
      </trkpt>
      <trkpt lat="45.85537" lon="7.14468">
        <ele>2075</ele>
        <time>2022-07-16T11:13:27.410Z</time>
      </trkpt>
      <trkpt lat="45.85566" lon="7.14482">
        <ele>2075</ele>
        <time>2022-07-16T11:13:31.702Z</time>
      </trkpt>
      <trkpt lat="45.85608" lon="7.14526">
        <ele>2071</ele>
        <time>2022-07-16T11:13:35.742Z</time>
      </trkpt>
      <trkpt lat="45.85633" lon="7.14542">
        <ele>2074</ele>
        <time>2022-07-16T11:13:46.757Z</time>
      </trkpt>
      <trkpt lat="45.85652" lon="7.14566">
        <ele>2073</ele>
        <time>2022-07-16T11:13:49.025Z</time>
      </trkpt>
      <trkpt lat="45.85664" lon="7.14595">
        <ele>2069</ele>
        <time>2022-07-16T11:13:50.850Z</time>
      </trkpt>
      <trkpt lat="45.85672" lon="7.1466">
        <ele>2059</ele>
        <time>2022-07-16T11:13:54.422Z</time>
      </trkpt>
      <trkpt lat="45.85686" lon="7.14716">
        <ele>2057</ele>
        <time>2022-07-16T11:13:57.849Z</time>
      </trkpt>
      <trkpt lat="45.85698" lon="7.14778">
        <ele>2054</ele>
        <time>2022-07-16T11:14:01.331Z</time>
      </trkpt>
      <trkpt lat="45.85699" lon="7.14809">
        <ele>2049</ele>
        <time>2022-07-16T11:14:03.011Z</time>
      </trkpt>
      <trkpt lat="45.85695" lon="7.14874">
        <ele>2039</ele>
        <time>2022-07-16T11:14:06.542Z</time>
      </trkpt>
      <trkpt lat="45.85711" lon="7.15003">
        <ele>2036</ele>
        <time>2022-07-16T11:14:15.273Z</time>
      </trkpt>
      <trkpt lat="45.85706" lon="7.15072">
        <ele>2029</ele>
        <time>2022-07-16T11:14:19.027Z</time>
      </trkpt>
      <trkpt lat="45.85709" lon="7.15141">
        <ele>2029</ele>
        <time>2022-07-16T11:14:25.781Z</time>
      </trkpt>
      <trkpt lat="45.85688" lon="7.15271">
        <ele>2014</ele>
        <time>2022-07-16T11:14:33.002Z</time>
      </trkpt>
      <trkpt lat="45.85687" lon="7.15294">
        <ele>2010</ele>
        <time>2022-07-16T11:14:34.249Z</time>
      </trkpt>
      <trkpt lat="45.85698" lon="7.15324">
        <ele>2013</ele>
        <time>2022-07-16T11:14:45.946Z</time>
      </trkpt>
      <trkpt lat="45.85714" lon="7.15356">
        <ele>2018</ele>
        <time>2022-07-16T11:15:00.790Z</time>
      </trkpt>
      <trkpt lat="45.85721" lon="7.15384">
        <ele>2019</ele>
        <time>2022-07-16T11:15:05.815Z</time>
      </trkpt>
      <trkpt lat="45.85722" lon="7.15436">
        <ele>2012</ele>
        <time>2022-07-16T11:15:08.630Z</time>
      </trkpt>
      <trkpt lat="45.8572" lon="7.15466">
        <ele>2005</ele>
        <time>2022-07-16T11:15:10.260Z</time>
      </trkpt>
      <trkpt lat="45.85716" lon="7.1548">
        <ele>2000</ele>
        <time>2022-07-16T11:15:11.079Z</time>
      </trkpt>
      <trkpt lat="45.85713" lon="7.15482">
        <ele>1998</ele>
        <time>2022-07-16T11:15:11.336Z</time>
      </trkpt>
      <trkpt lat="45.85707" lon="7.15481">
        <ele>1994</ele>
        <time>2022-07-16T11:15:11.805Z</time>
      </trkpt>
      <trkpt lat="45.85702" lon="7.15474">
        <ele>1992</ele>
        <time>2022-07-16T11:15:12.348Z</time>
      </trkpt>
      <trkpt lat="45.85705" lon="7.15427">
        <ele>2003</ele>
        <time>2022-07-16T11:15:30.133Z</time>
      </trkpt>
      <trkpt lat="45.85701" lon="7.15404">
        <ele>2004</ele>
        <time>2022-07-16T11:15:34.484Z</time>
      </trkpt>
      <trkpt lat="45.85684" lon="7.1536">
        <ele>2000</ele>
        <time>2022-07-16T11:15:37.207Z</time>
      </trkpt>
      <trkpt lat="45.85654" lon="7.15309">
        <ele>1989</ele>
        <time>2022-07-16T11:15:40.819Z</time>
      </trkpt>
      <trkpt lat="45.85651" lon="7.15293">
        <ele>1990</ele>
        <time>2022-07-16T11:15:44.544Z</time>
      </trkpt>
      <trkpt lat="45.85652" lon="7.15139">
        <ele>1993</ele>
        <time>2022-07-16T11:16:04.772Z</time>
      </trkpt>
      <trkpt lat="45.85639" lon="7.15085">
        <ele>1992</ele>
        <time>2022-07-16T11:16:08.906Z</time>
      </trkpt>
      <trkpt lat="45.8563" lon="7.15058">
        <ele>1991</ele>
        <time>2022-07-16T11:16:10.635Z</time>
      </trkpt>
      <trkpt lat="45.85626" lon="7.15051">
        <ele>1991</ele>
        <time>2022-07-16T11:16:11.519Z</time>
      </trkpt>
      <trkpt lat="45.85622" lon="7.15049">
        <ele>1990</ele>
        <time>2022-07-16T11:16:11.849Z</time>
      </trkpt>
      <trkpt lat="45.85617" lon="7.15049">
        <ele>1988</ele>
        <time>2022-07-16T11:16:12.237Z</time>
      </trkpt>
      <trkpt lat="45.85607" lon="7.15063">
        <ele>1983</ele>
        <time>2022-07-16T11:16:13.322Z</time>
      </trkpt>
      <trkpt lat="45.85583" lon="7.15124">
        <ele>1968</ele>
        <time>2022-07-16T11:16:17.113Z</time>
      </trkpt>
      <trkpt lat="45.85574" lon="7.15132">
        <ele>1966</ele>
        <time>2022-07-16T11:16:17.936Z</time>
      </trkpt>
      <trkpt lat="45.8557" lon="7.15132">
        <ele>1965</ele>
        <time>2022-07-16T11:16:18.246Z</time>
      </trkpt>
      <trkpt lat="45.85564" lon="7.15131">
        <ele>1964</ele>
        <time>2022-07-16T11:16:18.716Z</time>
      </trkpt>
      <trkpt lat="45.85511" lon="7.15079">
        <ele>1962</ele>
        <time>2022-07-16T11:16:24.967Z</time>
      </trkpt>
      <trkpt lat="45.855" lon="7.15071">
        <ele>1962</ele>
        <time>2022-07-16T11:16:26.697Z</time>
      </trkpt>
      <trkpt lat="45.85475" lon="7.15056">
        <ele>1967</ele>
        <time>2022-07-16T11:16:41.357Z</time>
      </trkpt>
      <trkpt lat="45.85466" lon="7.15048">
        <ele>1970</ele>
        <time>2022-07-16T11:16:47.084Z</time>
      </trkpt>
      <trkpt lat="45.85456" lon="7.15044">
        <ele>1971</ele>
        <time>2022-07-16T11:16:50.740Z</time>
      </trkpt>
      <trkpt lat="45.85447" lon="7.15044">
        <ele>1972</ele>
        <time>2022-07-16T11:16:54.422Z</time>
      </trkpt>
      <trkpt lat="45.85435" lon="7.15061">
        <ele>1969</ele>
        <time>2022-07-16T11:16:55.732Z</time>
      </trkpt>
      <trkpt lat="45.8543" lon="7.1508">
        <ele>1965</ele>
        <time>2022-07-16T11:16:56.831Z</time>
      </trkpt>
      <trkpt lat="45.85413" lon="7.15107">
        <ele>1960</ele>
        <time>2022-07-16T11:16:58.801Z</time>
      </trkpt>
      <trkpt lat="45.85396" lon="7.1515">
        <ele>1954</ele>
        <time>2022-07-16T11:17:01.476Z</time>
      </trkpt>
      <trkpt lat="45.85387" lon="7.15166">
        <ele>1952</ele>
        <time>2022-07-16T11:17:02.589Z</time>
      </trkpt>
      <trkpt lat="45.85372" lon="7.1519">
        <ele>1949</ele>
        <time>2022-07-16T11:17:04.334Z</time>
      </trkpt>
      <trkpt lat="45.85341" lon="7.1523">
        <ele>1943</ele>
        <time>2022-07-16T11:17:07.572Z</time>
      </trkpt>
      <trkpt lat="45.85325" lon="7.15238">
        <ele>1943</ele>
        <time>2022-07-16T11:17:09.949Z</time>
      </trkpt>
      <trkpt lat="45.85309" lon="7.1524">
        <ele>1945</ele>
        <time>2022-07-16T11:17:17.648Z</time>
      </trkpt>
      <trkpt lat="45.85266" lon="7.15236">
        <ele>1953</ele>
        <time>2022-07-16T11:17:40.962Z</time>
      </trkpt>
      <trkpt lat="45.8525" lon="7.15252">
        <ele>1951</ele>
        <time>2022-07-16T11:17:42.477Z</time>
      </trkpt>
      <trkpt lat="45.85244" lon="7.15271">
        <ele>1950</ele>
        <time>2022-07-16T11:17:43.606Z</time>
      </trkpt>
      <trkpt lat="45.85246" lon="7.1529">
        <ele>1944</ele>
        <time>2022-07-16T11:17:44.646Z</time>
      </trkpt>
      <trkpt lat="45.85252" lon="7.15313">
        <ele>1937</ele>
        <time>2022-07-16T11:17:45.975Z</time>
      </trkpt>
      <trkpt lat="45.85251" lon="7.15342">
        <ele>1931</ele>
        <time>2022-07-16T11:17:47.546Z</time>
      </trkpt>
      <trkpt lat="45.85239" lon="7.15359">
        <ele>1933</ele>
        <time>2022-07-16T11:17:55.061Z</time>
      </trkpt>
      <trkpt lat="45.85216" lon="7.15375">
        <ele>1940</ele>
        <time>2022-07-16T11:18:08.889Z</time>
      </trkpt>
      <trkpt lat="45.85211" lon="7.15382">
        <ele>1941</ele>
        <time>2022-07-16T11:18:12.668Z</time>
      </trkpt>
      <trkpt lat="45.85202" lon="7.15407">
        <ele>1939</ele>
        <time>2022-07-16T11:18:14.190Z</time>
      </trkpt>
      <trkpt lat="45.85196" lon="7.15435">
        <ele>1935</ele>
        <time>2022-07-16T11:18:15.776Z</time>
      </trkpt>
      <trkpt lat="45.85159" lon="7.15527">
        <ele>1929</ele>
        <time>2022-07-16T11:18:21.525Z</time>
      </trkpt>
      <trkpt lat="45.85104" lon="7.15626">
        <ele>1925</ele>
        <time>2022-07-16T11:18:29.012Z</time>
      </trkpt>
      <trkpt lat="45.85072" lon="7.15675">
        <ele>1927</ele>
        <time>2022-07-16T11:18:39.799Z</time>
      </trkpt>
      <trkpt lat="45.85061" lon="7.15702">
        <ele>1927</ele>
        <time>2022-07-16T11:18:42.855Z</time>
      </trkpt>
      <trkpt lat="45.85047" lon="7.15753">
        <ele>1921</ele>
        <time>2022-07-16T11:18:45.822Z</time>
      </trkpt>
      <trkpt lat="45.8504" lon="7.15807">
        <ele>1913</ele>
        <time>2022-07-16T11:18:48.794Z</time>
      </trkpt>
      <trkpt lat="45.85033" lon="7.15837">
        <ele>1911</ele>
        <time>2022-07-16T11:18:50.506Z</time>
      </trkpt>
      <trkpt lat="45.85026" lon="7.15896">
        <ele>1906</ele>
        <time>2022-07-16T11:18:53.745Z</time>
      </trkpt>
      <trkpt lat="45.84999" lon="7.1596">
        <ele>1908</ele>
        <time>2022-07-16T11:19:05.019Z</time>
      </trkpt>
      <trkpt lat="45.84982" lon="7.16037">
        <ele>1897</ele>
        <time>2022-07-16T11:19:09.390Z</time>
      </trkpt>
      <trkpt lat="45.84963" lon="7.16073">
        <ele>1894</ele>
        <time>2022-07-16T11:19:11.834Z</time>
      </trkpt>
      <trkpt lat="45.84931" lon="7.16102">
        <ele>1898</ele>
        <time>2022-07-16T11:19:26.451Z</time>
      </trkpt>
      <trkpt lat="45.84897" lon="7.16147">
        <ele>1902</ele>
        <time>2022-07-16T11:19:41.359Z</time>
      </trkpt>
      <trkpt lat="45.84889" lon="7.16186">
        <ele>1898</ele>
        <time>2022-07-16T11:19:43.559Z</time>
      </trkpt>
      <trkpt lat="45.84861" lon="7.16267">
        <ele>1892</ele>
        <time>2022-07-16T11:19:48.452Z</time>
      </trkpt>
      <trkpt lat="45.84854" lon="7.16284">
        <ele>1890</ele>
        <time>2022-07-16T11:19:49.521Z</time>
      </trkpt>
      <trkpt lat="45.84834" lon="7.16316">
        <ele>1891</ele>
        <time>2022-07-16T11:19:55.573Z</time>
      </trkpt>
      <trkpt lat="45.84812" lon="7.16386">
        <ele>1887</ele>
        <time>2022-07-16T11:19:59.729Z</time>
      </trkpt>
      <trkpt lat="45.84779" lon="7.16468">
        <ele>1880</ele>
        <time>2022-07-16T11:20:04.854Z</time>
      </trkpt>
      <trkpt lat="45.84738" lon="7.16537">
        <ele>1882</ele>
        <time>2022-07-16T11:20:17.336Z</time>
      </trkpt>
      <trkpt lat="45.84735" lon="7.16562">
        <ele>1878</ele>
        <time>2022-07-16T11:20:18.709Z</time>
      </trkpt>
      <trkpt lat="45.84735" lon="7.16627">
        <ele>1867</ele>
        <time>2022-07-16T11:20:22.226Z</time>
      </trkpt>
      <trkpt lat="45.84728" lon="7.1672">
        <ele>1859</ele>
        <time>2022-07-16T11:20:27.289Z</time>
      </trkpt>
      <trkpt lat="45.84717" lon="7.16751">
        <ele>1859</ele>
        <time>2022-07-16T11:20:30.688Z</time>
      </trkpt>
      <trkpt lat="45.84685" lon="7.16799">
        <ele>1861</ele>
        <time>2022-07-16T11:20:41.434Z</time>
      </trkpt>
      <trkpt lat="45.8467" lon="7.16841">
        <ele>1858</ele>
        <time>2022-07-16T11:20:43.988Z</time>
      </trkpt>
      <trkpt lat="45.84659" lon="7.16856">
        <ele>1860</ele>
        <time>2022-07-16T11:20:52.010Z</time>
      </trkpt>
      <trkpt lat="45.84648" lon="7.16883">
        <ele>1859</ele>
        <time>2022-07-16T11:20:53.851Z</time>
      </trkpt>
      <trkpt lat="45.84618" lon="7.16977">
        <ele>1853</ele>
        <time>2022-07-16T11:20:59.447Z</time>
      </trkpt>
      <trkpt lat="45.84615" lon="7.17018">
        <ele>1845</ele>
        <time>2022-07-16T11:21:01.678Z</time>
      </trkpt>
      <trkpt lat="45.84612" lon="7.17033">
        <ele>1843</ele>
        <time>2022-07-16T11:21:02.523Z</time>
      </trkpt>
      <trkpt lat="45.84605" lon="7.17049">
        <ele>1842</ele>
        <time>2022-07-16T11:21:03.545Z</time>
      </trkpt>
      <trkpt lat="45.84589" lon="7.17069">
        <ele>1846</ele>
        <time>2022-07-16T11:21:15.024Z</time>
      </trkpt>
      <trkpt lat="45.84553" lon="7.1716">
        <ele>1833</ele>
        <time>2022-07-16T11:21:20.688Z</time>
      </trkpt>
      <trkpt lat="45.84531" lon="7.17197">
        <ele>1832</ele>
        <time>2022-07-16T11:21:24.045Z</time>
      </trkpt>
      <trkpt lat="45.84518" lon="7.17212">
        <ele>1834</ele>
        <time>2022-07-16T11:21:31.594Z</time>
      </trkpt>
      <trkpt lat="45.84505" lon="7.17234">
        <ele>1834</ele>
        <time>2022-07-16T11:21:34.413Z</time>
      </trkpt>
      <trkpt lat="45.84463" lon="7.1732">
        <ele>1829</ele>
        <time>2022-07-16T11:21:40.098Z</time>
      </trkpt>
      <trkpt lat="45.84425" lon="7.17419">
        <ele>1819</ele>
        <time>2022-07-16T11:21:46.215Z</time>
      </trkpt>
      <trkpt lat="45.84383" lon="7.17475">
        <ele>1817</ele>
        <time>2022-07-16T11:21:51.590Z</time>
      </trkpt>
      <trkpt lat="45.84367" lon="7.1751">
        <ele>1813</ele>
        <time>2022-07-16T11:21:53.856Z</time>
      </trkpt>
      <trkpt lat="45.84357" lon="7.17527">
        <ele>1811</ele>
        <time>2022-07-16T11:21:55.060Z</time>
      </trkpt>
      <trkpt lat="45.84338" lon="7.17551">
        <ele>1811</ele>
        <time>2022-07-16T11:21:58.610Z</time>
      </trkpt>
      <trkpt lat="45.84323" lon="7.17581">
        <ele>1808</ele>
        <time>2022-07-16T11:22:00.609Z</time>
      </trkpt>
      <trkpt lat="45.84304" lon="7.17607">
        <ele>1805</ele>
        <time>2022-07-16T11:22:02.648Z</time>
      </trkpt>
      <trkpt lat="45.84281" lon="7.17632">
        <ele>1802</ele>
        <time>2022-07-16T11:22:04.890Z</time>
      </trkpt>
      <trkpt lat="45.84187" lon="7.1772">
        <ele>1794</ele>
        <time>2022-07-16T11:22:13.609Z</time>
      </trkpt>
      <trkpt lat="45.84139" lon="7.17769">
        <ele>1786</ele>
        <time>2022-07-16T11:22:18.185Z</time>
      </trkpt>
      <trkpt lat="45.84113" lon="7.1778">
        <ele>1787</ele>
        <time>2022-07-16T11:22:23.928Z</time>
      </trkpt>
      <trkpt lat="45.8409" lon="7.17782">
        <ele>1790</ele>
        <time>2022-07-16T11:22:35.838Z</time>
      </trkpt>
      <trkpt lat="45.84086" lon="7.17785">
        <ele>1789</ele>
        <time>2022-07-16T11:22:36.188Z</time>
      </trkpt>
      <trkpt lat="45.84082" lon="7.1779">
        <ele>1788</ele>
        <time>2022-07-16T11:22:36.601Z</time>
      </trkpt>
      <trkpt lat="45.84084" lon="7.17805">
        <ele>1783</ele>
        <time>2022-07-16T11:22:37.427Z</time>
      </trkpt>
      <trkpt lat="45.84097" lon="7.17807">
        <ele>1780</ele>
        <time>2022-07-16T11:22:38.443Z</time>
      </trkpt>
      <trkpt lat="45.84137" lon="7.17794">
        <ele>1778</ele>
        <time>2022-07-16T11:22:41.820Z</time>
      </trkpt>
      <trkpt lat="45.84188" lon="7.17764">
        <ele>1778</ele>
        <time>2022-07-16T11:22:49.552Z</time>
      </trkpt>
      <trkpt lat="45.84229" lon="7.1775">
        <ele>1774</ele>
        <time>2022-07-16T11:22:52.826Z</time>
      </trkpt>
      <trkpt lat="45.84297" lon="7.17707">
        <ele>1770</ele>
        <time>2022-07-16T11:22:58.685Z</time>
      </trkpt>
      <trkpt lat="45.84371" lon="7.17684">
        <ele>1757</ele>
        <time>2022-07-16T11:23:04.567Z</time>
      </trkpt>
      <trkpt lat="45.8439" lon="7.17667">
        <ele>1756</ele>
        <time>2022-07-16T11:23:06.480Z</time>
      </trkpt>
      <trkpt lat="45.84427" lon="7.17627">
        <ele>1757</ele>
        <time>2022-07-16T11:23:14.579Z</time>
      </trkpt>
      <trkpt lat="45.84447" lon="7.17594">
        <ele>1758</ele>
        <time>2022-07-16T11:23:20.690Z</time>
      </trkpt>
      <trkpt lat="45.84462" lon="7.17575">
        <ele>1757</ele>
        <time>2022-07-16T11:23:22.320Z</time>
      </trkpt>
      <trkpt lat="45.84505" lon="7.17537">
        <ele>1751</ele>
        <time>2022-07-16T11:23:26.243Z</time>
      </trkpt>
      <trkpt lat="45.84525" lon="7.17523">
        <ele>1749</ele>
        <time>2022-07-16T11:23:27.972Z</time>
      </trkpt>
      <trkpt lat="45.84531" lon="7.17525">
        <ele>1748</ele>
        <time>2022-07-16T11:23:28.451Z</time>
      </trkpt>
      <trkpt lat="45.84539" lon="7.17533">
        <ele>1745</ele>
        <time>2022-07-16T11:23:29.208Z</time>
      </trkpt>
      <trkpt lat="45.84563" lon="7.17569">
        <ele>1741</ele>
        <time>2022-07-16T11:23:31.905Z</time>
      </trkpt>
      <trkpt lat="45.84563" lon="7.17582">
        <ele>1741</ele>
        <time>2022-07-16T11:23:33.175Z</time>
      </trkpt>
      <trkpt lat="45.84556" lon="7.17598">
        <ele>1744</ele>
        <time>2022-07-16T11:23:40.296Z</time>
      </trkpt>
      <trkpt lat="45.84507" lon="7.17633">
        <ele>1742</ele>
        <time>2022-07-16T11:23:45.344Z</time>
      </trkpt>
      <trkpt lat="45.84441" lon="7.17692">
        <ele>1744</ele>
        <time>2022-07-16T11:23:59.613Z</time>
      </trkpt>
      <trkpt lat="45.84399" lon="7.17735">
        <ele>1737</ele>
        <time>2022-07-16T11:24:03.621Z</time>
      </trkpt>
      <trkpt lat="45.84368" lon="7.17772">
        <ele>1738</ele>
        <time>2022-07-16T11:24:10.939Z</time>
      </trkpt>
      <trkpt lat="45.8435" lon="7.17814">
        <ele>1734</ele>
        <time>2022-07-16T11:24:13.608Z</time>
      </trkpt>
      <trkpt lat="45.84307" lon="7.17875">
        <ele>1730</ele>
        <time>2022-07-16T11:24:17.927Z</time>
      </trkpt>
      <trkpt lat="45.84291" lon="7.17942">
        <ele>1727</ele>
        <time>2022-07-16T11:24:21.602Z</time>
      </trkpt>
      <trkpt lat="45.84277" lon="7.17973">
        <ele>1725</ele>
        <time>2022-07-16T11:24:23.602Z</time>
      </trkpt>
      <trkpt lat="45.84268" lon="7.17983">
        <ele>1722</ele>
        <time>2022-07-16T11:24:24.486Z</time>
      </trkpt>
      <trkpt lat="45.84244" lon="7.17996">
        <ele>1714</ele>
        <time>2022-07-16T11:24:26.479Z</time>
      </trkpt>
      <trkpt lat="45.84135" lon="7.18022">
        <ele>1712</ele>
        <time>2022-07-16T11:24:38.925Z</time>
      </trkpt>
      <trkpt lat="45.84081" lon="7.18045">
        <ele>1711</ele>
        <time>2022-07-16T11:24:45.296Z</time>
      </trkpt>
      <trkpt lat="45.84039" lon="7.18084">
        <ele>1706</ele>
        <time>2022-07-16T11:24:49.183Z</time>
      </trkpt>
      <trkpt lat="45.84003" lon="7.1811">
        <ele>1705</ele>
        <time>2022-07-16T11:24:53.384Z</time>
      </trkpt>
      <trkpt lat="45.83962" lon="7.18152">
        <ele>1703</ele>
        <time>2022-07-16T11:24:57.890Z</time>
      </trkpt>
      <trkpt lat="45.83929" lon="7.18181">
        <ele>1696</ele>
        <time>2022-07-16T11:25:00.896Z</time>
      </trkpt>
      <trkpt lat="45.83881" lon="7.18243">
        <ele>1695</ele>
        <time>2022-07-16T11:25:08.405Z</time>
      </trkpt>
      <trkpt lat="45.83848" lon="7.1826">
        <ele>1687</ele>
        <time>2022-07-16T11:25:11.129Z</time>
      </trkpt>
      <trkpt lat="45.83797" lon="7.18298">
        <ele>1685</ele>
        <time>2022-07-16T11:25:16.521Z</time>
      </trkpt>
      <trkpt lat="45.83778" lon="7.18315">
        <ele>1682</ele>
        <time>2022-07-16T11:25:18.260Z</time>
      </trkpt>
      <trkpt lat="45.83742" lon="7.18355">
        <ele>1678</ele>
        <time>2022-07-16T11:25:21.797Z</time>
      </trkpt>
      <trkpt lat="45.83692" lon="7.18397">
        <ele>1673</ele>
        <time>2022-07-16T11:25:26.298Z</time>
      </trkpt>
      <trkpt lat="45.83676" lon="7.18409">
        <ele>1670</ele>
        <time>2022-07-16T11:25:27.701Z</time>
      </trkpt>
      <trkpt lat="45.83628" lon="7.1843">
        <ele>1659</ele>
        <time>2022-07-16T11:25:31.600Z</time>
      </trkpt>
      <trkpt lat="45.8361" lon="7.18442">
        <ele>1658</ele>
        <time>2022-07-16T11:25:33.211Z</time>
      </trkpt>
      <trkpt lat="45.83502" lon="7.18531">
        <ele>1650</ele>
        <time>2022-07-16T11:25:42.241Z</time>
      </trkpt>
      <trkpt lat="45.83467" lon="7.18546">
        <ele>1643</ele>
        <time>2022-07-16T11:25:45.079Z</time>
      </trkpt>
      <trkpt lat="45.83434" lon="7.18567">
        <ele>1638</ele>
        <time>2022-07-16T11:25:47.884Z</time>
      </trkpt>
      <trkpt lat="45.83387" lon="7.18602">
        <ele>1629</ele>
        <time>2022-07-16T11:25:51.998Z</time>
      </trkpt>
      <trkpt lat="45.83366" lon="7.1862">
        <ele>1624</ele>
        <time>2022-07-16T11:25:53.898Z</time>
      </trkpt>
      <trkpt lat="45.83353" lon="7.18642">
        <ele>1624</ele>
        <time>2022-07-16T11:25:56.717Z</time>
      </trkpt>
      <trkpt lat="45.83333" lon="7.1869">
        <ele>1626</ele>
        <time>2022-07-16T11:26:06.359Z</time>
      </trkpt>
      <trkpt lat="45.83325" lon="7.18735">
        <ele>1633</ele>
        <time>2022-07-16T11:26:23.867Z</time>
      </trkpt>
      <trkpt lat="45.83317" lon="7.18748">
        <ele>1632</ele>
        <time>2022-07-16T11:26:24.806Z</time>
      </trkpt>
      <trkpt lat="45.83313" lon="7.18749">
        <ele>1631</ele>
        <time>2022-07-16T11:26:25.121Z</time>
      </trkpt>
      <trkpt lat="45.83308" lon="7.18745">
        <ele>1628</ele>
        <time>2022-07-16T11:26:25.566Z</time>
      </trkpt>
      <trkpt lat="45.83307" lon="7.18733">
        <ele>1625</ele>
        <time>2022-07-16T11:26:26.220Z</time>
      </trkpt>
      <trkpt lat="45.8332" lon="7.18708">
        <ele>1625</ele>
        <time>2022-07-16T11:26:29.269Z</time>
      </trkpt>
      <trkpt lat="45.83322" lon="7.18691">
        <ele>1622</ele>
        <time>2022-07-16T11:26:30.202Z</time>
      </trkpt>
      <trkpt lat="45.83336" lon="7.18633">
        <ele>1612</ele>
        <time>2022-07-16T11:26:33.525Z</time>
      </trkpt>
      <trkpt lat="45.83352" lon="7.18593">
        <ele>1608</ele>
        <time>2022-07-16T11:26:36.022Z</time>
      </trkpt>
      <trkpt lat="45.83383" lon="7.18558">
        <ele>1613</ele>
        <time>2022-07-16T11:26:55.487Z</time>
      </trkpt>
      <trkpt lat="45.83456" lon="7.18498">
        <ele>1615</ele>
        <time>2022-07-16T11:27:10.573Z</time>
      </trkpt>
      <trkpt lat="45.83451" lon="7.18479">
        <ele>1614</ele>
        <time>2022-07-16T11:27:11.672Z</time>
      </trkpt>
      <trkpt lat="45.83441" lon="7.18482">
        <ele>1611</ele>
        <time>2022-07-16T11:27:12.466Z</time>
      </trkpt>
      <trkpt lat="45.83347" lon="7.18572">
        <ele>1601</ele>
        <time>2022-07-16T11:27:21.245Z</time>
      </trkpt>
      <trkpt lat="45.83335" lon="7.18587">
        <ele>1598</ele>
        <time>2022-07-16T11:27:22.482Z</time>
      </trkpt>
      <trkpt lat="45.83293" lon="7.18661">
        <ele>1604</ele>
        <time>2022-07-16T11:27:44.630Z</time>
      </trkpt>
      <trkpt lat="45.83238" lon="7.18714">
        <ele>1595</ele>
        <time>2022-07-16T11:27:49.777Z</time>
      </trkpt>
      <trkpt lat="45.83211" lon="7.18761">
        <ele>1601</ele>
        <time>2022-07-16T11:28:12.742Z</time>
      </trkpt>
      <trkpt lat="45.83198" lon="7.18774">
        <ele>1603</ele>
        <time>2022-07-16T11:28:20.506Z</time>
      </trkpt>
      <trkpt lat="45.83185" lon="7.18779">
        <ele>1602</ele>
        <time>2022-07-16T11:28:21.552Z</time>
      </trkpt>
      <trkpt lat="45.83152" lon="7.18785">
        <ele>1599</ele>
        <time>2022-07-16T11:28:24.136Z</time>
      </trkpt>
      <trkpt lat="45.82957" lon="7.18793">
        <ele>1577</ele>
        <time>2022-07-16T11:28:39.293Z</time>
      </trkpt>
      <trkpt lat="45.82899" lon="7.18805">
        <ele>1575</ele>
        <time>2022-07-16T11:28:44.829Z</time>
      </trkpt>
      <trkpt lat="45.82818" lon="7.18816">
        <ele>1566</ele>
        <time>2022-07-16T11:28:51.150Z</time>
      </trkpt>
      <trkpt lat="45.8278" lon="7.1883">
        <ele>1568</ele>
        <time>2022-07-16T11:29:00.835Z</time>
      </trkpt>
      <trkpt lat="45.82616" lon="7.18817">
        <ele>1551</ele>
        <time>2022-07-16T11:29:13.596Z</time>
      </trkpt>
      <trkpt lat="45.82534" lon="7.18817">
        <ele>1546</ele>
        <time>2022-07-16T11:29:19.696Z</time>
      </trkpt>
      <trkpt lat="45.82523" lon="7.18815">
        <ele>1544</ele>
        <time>2022-07-16T11:29:20.557Z</time>
      </trkpt>
      <trkpt lat="45.82507" lon="7.18808">
        <ele>1538</ele>
        <time>2022-07-16T11:29:21.857Z</time>
      </trkpt>
      <trkpt lat="45.82497" lon="7.18807">
        <ele>1536</ele>
        <time>2022-07-16T11:29:22.636Z</time>
      </trkpt>
      <trkpt lat="45.82484" lon="7.18811">
        <ele>1533</ele>
        <time>2022-07-16T11:29:23.669Z</time>
      </trkpt>
      <trkpt lat="45.82462" lon="7.18835">
        <ele>1535</ele>
        <time>2022-07-16T11:29:31.611Z</time>
      </trkpt>
      <trkpt lat="45.82455" lon="7.18837">
        <ele>1533</ele>
        <time>2022-07-16T11:29:32.166Z</time>
      </trkpt>
      <trkpt lat="45.82451" lon="7.18834">
        <ele>1530</ele>
        <time>2022-07-16T11:29:32.517Z</time>
      </trkpt>
      <trkpt lat="45.82451" lon="7.18823">
        <ele>1526</ele>
        <time>2022-07-16T11:29:33.112Z</time>
      </trkpt>
      <trkpt lat="45.82456" lon="7.18813">
        <ele>1524</ele>
        <time>2022-07-16T11:29:33.778Z</time>
      </trkpt>
      <trkpt lat="45.82482" lon="7.188">
        <ele>1528</ele>
        <time>2022-07-16T11:29:48.676Z</time>
      </trkpt>
      <trkpt lat="45.82497" lon="7.18796">
        <ele>1531</ele>
        <time>2022-07-16T11:29:56.931Z</time>
      </trkpt>
      <trkpt lat="45.82528" lon="7.18798">
        <ele>1536</ele>
        <time>2022-07-16T11:30:13.720Z</time>
      </trkpt>
      <trkpt lat="45.82542" lon="7.18796">
        <ele>1536</ele>
        <time>2022-07-16T11:30:15.694Z</time>
      </trkpt>
      <trkpt lat="45.82557" lon="7.18791">
        <ele>1535</ele>
        <time>2022-07-16T11:30:16.805Z</time>
      </trkpt>
      <trkpt lat="45.82582" lon="7.18778">
        <ele>1531</ele>
        <time>2022-07-16T11:30:18.871Z</time>
      </trkpt>
      <trkpt lat="45.82616" lon="7.18768">
        <ele>1527</ele>
        <time>2022-07-16T11:30:21.567Z</time>
      </trkpt>
      <trkpt lat="45.82643" lon="7.18763">
        <ele>1526</ele>
        <time>2022-07-16T11:30:24.073Z</time>
      </trkpt>
      <trkpt lat="45.82699" lon="7.18773">
        <ele>1535</ele>
        <time>2022-07-16T11:30:54.607Z</time>
      </trkpt>
      <trkpt lat="45.82704" lon="7.1877">
        <ele>1534</ele>
        <time>2022-07-16T11:30:55.028Z</time>
      </trkpt>
      <trkpt lat="45.82706" lon="7.18762">
        <ele>1531</ele>
        <time>2022-07-16T11:30:55.488Z</time>
      </trkpt>
      <trkpt lat="45.82704" lon="7.18755">
        <ele>1528</ele>
        <time>2022-07-16T11:30:55.898Z</time>
      </trkpt>
      <trkpt lat="45.82701" lon="7.18753">
        <ele>1527</ele>
        <time>2022-07-16T11:30:56.155Z</time>
      </trkpt>
      <trkpt lat="45.82597" lon="7.18755">
        <ele>1520</ele>
        <time>2022-07-16T11:31:04.235Z</time>
      </trkpt>
      <trkpt lat="45.82555" lon="7.18764">
        <ele>1521</ele>
        <time>2022-07-16T11:31:11.831Z</time>
      </trkpt>
      <trkpt lat="45.82534" lon="7.18761">
        <ele>1517</ele>
        <time>2022-07-16T11:31:13.470Z</time>
      </trkpt>
      <trkpt lat="45.82514" lon="7.18752">
        <ele>1511</ele>
        <time>2022-07-16T11:31:15.099Z</time>
      </trkpt>
      <trkpt lat="45.82504" lon="7.18751">
        <ele>1510</ele>
        <time>2022-07-16T11:31:15.878Z</time>
      </trkpt>
      <trkpt lat="45.82462" lon="7.18756">
        <ele>1504</ele>
        <time>2022-07-16T11:31:19.152Z</time>
      </trkpt>
      <trkpt lat="45.82416" lon="7.18788">
        <ele>1503</ele>
        <time>2022-07-16T11:31:24.811Z</time>
      </trkpt>
      <trkpt lat="45.82409" lon="7.18791">
        <ele>1501</ele>
        <time>2022-07-16T11:31:25.378Z</time>
      </trkpt>
      <trkpt lat="45.82397" lon="7.18788">
        <ele>1494</ele>
        <time>2022-07-16T11:31:26.325Z</time>
      </trkpt>
      <trkpt lat="45.82307" lon="7.18968">
        <ele>1491</ele>
        <time>2022-07-16T11:31:43.441Z</time>
      </trkpt>
      <trkpt lat="45.82286" lon="7.19015">
        <ele>1486</ele>
        <time>2022-07-16T11:31:46.464Z</time>
      </trkpt>
      <trkpt lat="45.82271" lon="7.19069">
        <ele>1482</ele>
        <time>2022-07-16T11:31:49.611Z</time>
      </trkpt>
      <trkpt lat="45.82238" lon="7.19312">
        <ele>1471</ele>
        <time>2022-07-16T11:32:02.168Z</time>
      </trkpt>
      <trkpt lat="45.82223" lon="7.19369">
        <ele>1463</ele>
        <time>2022-07-16T11:32:05.467Z</time>
      </trkpt>
      <trkpt lat="45.82223" lon="7.19453">
        <ele>1465</ele>
        <time>2022-07-16T11:32:17.419Z</time>
      </trkpt>
      <trkpt lat="45.82212" lon="7.19665">
        <ele>1457</ele>
        <time>2022-07-16T11:32:29.083Z</time>
      </trkpt>
      <trkpt lat="45.82214" lon="7.19803">
        <ele>1448</ele>
        <time>2022-07-16T11:32:36.557Z</time>
      </trkpt>
      <trkpt lat="45.82231" lon="7.19893">
        <ele>1442</ele>
        <time>2022-07-16T11:32:41.605Z</time>
      </trkpt>
      <trkpt lat="45.82237" lon="7.19914">
        <ele>1441</ele>
        <time>2022-07-16T11:32:42.761Z</time>
      </trkpt>
      <trkpt lat="45.82255" lon="7.19958">
        <ele>1442</ele>
        <time>2022-07-16T11:32:49.480Z</time>
      </trkpt>
      <trkpt lat="45.82266" lon="7.19998">
        <ele>1440</ele>
        <time>2022-07-16T11:32:51.808Z</time>
      </trkpt>
      <trkpt lat="45.82284" lon="7.20124">
        <ele>1433</ele>
        <time>2022-07-16T11:32:58.772Z</time>
      </trkpt>
      <trkpt lat="45.82285" lon="7.20145">
        <ele>1431</ele>
        <time>2022-07-16T11:32:59.912Z</time>
      </trkpt>
      <trkpt lat="45.82282" lon="7.20187">
        <ele>1423</ele>
        <time>2022-07-16T11:33:02.198Z</time>
      </trkpt>
      <trkpt lat="45.82284" lon="7.20219">
        <ele>1420</ele>
        <time>2022-07-16T11:33:03.937Z</time>
      </trkpt>
      <trkpt lat="45.823" lon="7.20299">
        <ele>1416</ele>
        <time>2022-07-16T11:33:08.443Z</time>
      </trkpt>
      <trkpt lat="45.82333" lon="7.20378">
        <ele>1421</ele>
        <time>2022-07-16T11:33:27.709Z</time>
      </trkpt>
      <trkpt lat="45.82332" lon="7.20408">
        <ele>1416</ele>
        <time>2022-07-16T11:33:29.335Z</time>
      </trkpt>
      <trkpt lat="45.82329" lon="7.20421">
        <ele>1414</ele>
        <time>2022-07-16T11:33:30.076Z</time>
      </trkpt>
      <trkpt lat="45.82313" lon="7.20461">
        <ele>1404</ele>
        <time>2022-07-16T11:33:32.573Z</time>
      </trkpt>
      <trkpt lat="45.8231" lon="7.20484">
        <ele>1401</ele>
        <time>2022-07-16T11:33:33.840Z</time>
      </trkpt>
      <trkpt lat="45.82312" lon="7.20497">
        <ele>1402</ele>
        <time>2022-07-16T11:33:37.502Z</time>
      </trkpt>
      <trkpt lat="45.82329" lon="7.20534">
        <ele>1405</ele>
        <time>2022-07-16T11:33:48.463Z</time>
      </trkpt>
      <trkpt lat="45.82344" lon="7.20584">
        <ele>1406</ele>
        <time>2022-07-16T11:33:55.478Z</time>
      </trkpt>
      <trkpt lat="45.82354" lon="7.20641">
        <ele>1403</ele>
        <time>2022-07-16T11:33:58.661Z</time>
      </trkpt>
      <trkpt lat="45.82396" lon="7.20815">
        <ele>1396</ele>
        <time>2022-07-16T11:34:08.718Z</time>
      </trkpt>
      <trkpt lat="45.82397" lon="7.20843">
        <ele>1393</ele>
        <time>2022-07-16T11:34:10.236Z</time>
      </trkpt>
      <trkpt lat="45.82386" lon="7.20903">
        <ele>1385</ele>
        <time>2022-07-16T11:34:13.595Z</time>
      </trkpt>
      <trkpt lat="45.82423" lon="7.21104">
        <ele>1379</ele>
        <time>2022-07-16T11:34:26.347Z</time>
      </trkpt>
      <trkpt lat="45.82449" lon="7.21318">
        <ele>1374</ele>
        <time>2022-07-16T11:34:40.808Z</time>
      </trkpt>
      <trkpt lat="45.82493" lon="7.21447">
        <ele>1369</ele>
        <time>2022-07-16T11:34:48.965Z</time>
      </trkpt>
      <trkpt lat="45.825" lon="7.21486">
        <ele>1368</ele>
        <time>2022-07-16T11:34:51.577Z</time>
      </trkpt>
      <trkpt lat="45.82499" lon="7.21502">
        <ele>1367</ele>
        <time>2022-07-16T11:34:52.446Z</time>
      </trkpt>
      <trkpt lat="45.82469" lon="7.21593">
        <ele>1359</ele>
        <time>2022-07-16T11:34:57.897Z</time>
      </trkpt>
      <trkpt lat="45.82466" lon="7.21615">
        <ele>1357</ele>
        <time>2022-07-16T11:34:59.110Z</time>
      </trkpt>
      <trkpt lat="45.82464" lon="7.2165">
        <ele>1355</ele>
        <time>2022-07-16T11:35:01.012Z</time>
      </trkpt>
      <trkpt lat="45.82466" lon="7.21674">
        <ele>1355</ele>
        <time>2022-07-16T11:35:03.375Z</time>
      </trkpt>
      <trkpt lat="45.82484" lon="7.21826">
        <ele>1354</ele>
        <time>2022-07-16T11:35:16.903Z</time>
      </trkpt>
      <trkpt lat="45.82484" lon="7.21853">
        <ele>1353</ele>
        <time>2022-07-16T11:35:18.396Z</time>
      </trkpt>
      <trkpt lat="45.8248" lon="7.21879">
        <ele>1352</ele>
        <time>2022-07-16T11:35:19.858Z</time>
      </trkpt>
      <trkpt lat="45.8247" lon="7.21918">
        <ele>1348</ele>
        <time>2022-07-16T11:35:22.108Z</time>
      </trkpt>
      <trkpt lat="45.82365" lon="7.22099">
        <ele>1332</ele>
        <time>2022-07-16T11:35:34.858Z</time>
      </trkpt>
      <trkpt lat="45.82254" lon="7.22284">
        <ele>1322</ele>
        <time>2022-07-16T11:35:47.737Z</time>
      </trkpt>
      <trkpt lat="45.82239" lon="7.22324">
        <ele>1321</ele>
        <time>2022-07-16T11:35:50.806Z</time>
      </trkpt>
      <trkpt lat="45.82233" lon="7.22351">
        <ele>1320</ele>
        <time>2022-07-16T11:35:52.406Z</time>
      </trkpt>
      <trkpt lat="45.82142" lon="7.22963">
        <ele>1282</ele>
        <time>2022-07-16T11:36:26.288Z</time>
      </trkpt>
      <trkpt lat="45.82121" lon="7.23032">
        <ele>1280</ele>
        <time>2022-07-16T11:36:31.054Z</time>
      </trkpt>
      <trkpt lat="45.82114" lon="7.23045">
        <ele>1279</ele>
        <time>2022-07-16T11:36:31.944Z</time>
      </trkpt>
      <trkpt lat="45.8211" lon="7.23047">
        <ele>1278</ele>
        <time>2022-07-16T11:36:32.273Z</time>
      </trkpt>
      <trkpt lat="45.821" lon="7.23046">
        <ele>1275</ele>
        <time>2022-07-16T11:36:33.051Z</time>
      </trkpt>
      <trkpt lat="45.82095" lon="7.23033">
        <ele>1273</ele>
        <time>2022-07-16T11:36:33.855Z</time>
      </trkpt>
      <trkpt lat="45.82097" lon="7.23014">
        <ele>1273</ele>
        <time>2022-07-16T11:36:35.734Z</time>
      </trkpt>
      <trkpt lat="45.82123" lon="7.22957">
        <ele>1277</ele>
        <time>2022-07-16T11:36:50.749Z</time>
      </trkpt>
      <trkpt lat="45.82128" lon="7.22939">
        <ele>1278</ele>
        <time>2022-07-16T11:36:54.681Z</time>
      </trkpt>
      <trkpt lat="45.82127" lon="7.22921">
        <ele>1277</ele>
        <time>2022-07-16T11:36:55.658Z</time>
      </trkpt>
      <trkpt lat="45.8212" lon="7.22913">
        <ele>1276</ele>
        <time>2022-07-16T11:36:56.353Z</time>
      </trkpt>
      <trkpt lat="45.82113" lon="7.22915">
        <ele>1274</ele>
        <time>2022-07-16T11:36:56.908Z</time>
      </trkpt>
      <trkpt lat="45.82104" lon="7.22923">
        <ele>1272</ele>
        <time>2022-07-16T11:36:57.731Z</time>
      </trkpt>
      <trkpt lat="45.82076" lon="7.22966">
        <ele>1268</ele>
        <time>2022-07-16T11:37:00.917Z</time>
      </trkpt>
      <trkpt lat="45.82065" lon="7.2298">
        <ele>1267</ele>
        <time>2022-07-16T11:37:02.059Z</time>
      </trkpt>
      <trkpt lat="45.82057" lon="7.22986">
        <ele>1267</ele>
        <time>2022-07-16T11:37:03.326Z</time>
      </trkpt>
      <trkpt lat="45.82028" lon="7.22996">
        <ele>1264</ele>
        <time>2022-07-16T11:37:05.643Z</time>
      </trkpt>
      <trkpt lat="45.81948" lon="7.22997">
        <ele>1265</ele>
        <time>2022-07-16T11:37:18.316Z</time>
      </trkpt>
      <trkpt lat="45.81943" lon="7.22994">
        <ele>1265</ele>
        <time>2022-07-16T11:37:19.077Z</time>
      </trkpt>
      <trkpt lat="45.81932" lon="7.22994">
        <ele>1266</ele>
        <time>2022-07-16T11:37:22.763Z</time>
      </trkpt>
      <trkpt lat="45.81927" lon="7.23">
        <ele>1266</ele>
        <time>2022-07-16T11:37:23.677Z</time>
      </trkpt>
      <trkpt lat="45.81923" lon="7.23018">
        <ele>1267</ele>
        <time>2022-07-16T11:37:27.568Z</time>
      </trkpt>
      <trkpt lat="45.81919" lon="7.23109">
        <ele>1268</ele>
        <time>2022-07-16T11:37:37.984Z</time>
      </trkpt>
      <trkpt lat="45.81906" lon="7.23178">
        <ele>1271</ele>
        <time>2022-07-16T11:37:51.079Z</time>
      </trkpt>
      <trkpt lat="45.81849" lon="7.23317">
        <ele>1273</ele>
        <time>2022-07-16T11:38:09.916Z</time>
      </trkpt>
      <trkpt lat="45.81683" lon="7.23693">
        <ele>1264</ele>
        <time>2022-07-16T11:38:40.813Z</time>
      </trkpt>
      <trkpt lat="45.81656" lon="7.23741">
        <ele>1262</ele>
        <time>2022-07-16T11:38:44.424Z</time>
      </trkpt>
      <trkpt lat="45.81635" lon="7.23762">
        <ele>1258</ele>
        <time>2022-07-16T11:38:46.413Z</time>
      </trkpt>
      <trkpt lat="45.81621" lon="7.23772">
        <ele>1256</ele>
        <time>2022-07-16T11:38:47.628Z</time>
      </trkpt>
      <trkpt lat="45.81585" lon="7.23784">
        <ele>1254</ele>
        <time>2022-07-16T11:38:50.535Z</time>
      </trkpt>
      <trkpt lat="45.8153" lon="7.23785">
        <ele>1256</ele>
        <time>2022-07-16T11:39:02.104Z</time>
      </trkpt>
      <trkpt lat="45.81466" lon="7.23779">
        <ele>1257</ele>
        <time>2022-07-16T11:39:12.600Z</time>
      </trkpt>
      <trkpt lat="45.81358" lon="7.23774">
        <ele>1255</ele>
        <time>2022-07-16T11:39:24.712Z</time>
      </trkpt>
      <trkpt lat="45.81319" lon="7.23776">
        <ele>1254</ele>
        <time>2022-07-16T11:39:28.744Z</time>
      </trkpt>
      <trkpt lat="45.81287" lon="7.23786">
        <ele>1253</ele>
        <time>2022-07-16T11:39:31.954Z</time>
      </trkpt>
      <trkpt lat="45.8118" lon="7.23843">
        <ele>1247</ele>
        <time>2022-07-16T11:39:41.050Z</time>
      </trkpt>
      <trkpt lat="45.81096" lon="7.23896">
        <ele>1243</ele>
        <time>2022-07-16T11:39:48.966Z</time>
      </trkpt>
      <trkpt lat="45.81069" lon="7.23924">
        <ele>1241</ele>
        <time>2022-07-16T11:39:51.463Z</time>
      </trkpt>
      <trkpt lat="45.81042" lon="7.23963">
        <ele>1240</ele>
        <time>2022-07-16T11:39:55.400Z</time>
      </trkpt>
      <trkpt lat="45.81008" lon="7.24029">
        <ele>1236</ele>
        <time>2022-07-16T11:39:59.845Z</time>
      </trkpt>
      <trkpt lat="45.80858" lon="7.24403">
        <ele>1227</ele>
        <time>2022-07-16T11:40:29.515Z</time>
      </trkpt>
      <trkpt lat="45.80839" lon="7.24446">
        <ele>1224</ele>
        <time>2022-07-16T11:40:32.273Z</time>
      </trkpt>
      <trkpt lat="45.80833" lon="7.2445">
        <ele>1225</ele>
        <time>2022-07-16T11:40:35.852Z</time>
      </trkpt>
      <trkpt lat="45.80821" lon="7.24477">
        <ele>1224</ele>
        <time>2022-07-16T11:40:37.757Z</time>
      </trkpt>
      <trkpt lat="45.80802" lon="7.24524">
        <ele>1223</ele>
        <time>2022-07-16T11:40:41.636Z</time>
      </trkpt>
      <trkpt lat="45.80788" lon="7.24569">
        <ele>1223</ele>
        <time>2022-07-16T11:40:46.455Z</time>
      </trkpt>
      <trkpt lat="45.80777" lon="7.24631">
        <ele>1225</ele>
        <time>2022-07-16T11:40:57.036Z</time>
      </trkpt>
      <trkpt lat="45.80775" lon="7.24663">
        <ele>1225</ele>
        <time>2022-07-16T11:41:00.178Z</time>
      </trkpt>
      <trkpt lat="45.80776" lon="7.24693">
        <ele>1224</ele>
        <time>2022-07-16T11:41:01.917Z</time>
      </trkpt>
      <trkpt lat="45.80778" lon="7.24713">
        <ele>1223</ele>
        <time>2022-07-16T11:41:03.011Z</time>
      </trkpt>
      <trkpt lat="45.80781" lon="7.2472">
        <ele>1222</ele>
        <time>2022-07-16T11:41:03.456Z</time>
      </trkpt>
      <trkpt lat="45.80788" lon="7.24811">
        <ele>1219</ele>
        <time>2022-07-16T11:41:08.794Z</time>
      </trkpt>
      <trkpt lat="45.80787" lon="7.2488">
        <ele>1217</ele>
        <time>2022-07-16T11:41:13.022Z</time>
      </trkpt>
      <trkpt lat="45.80774" lon="7.24951">
        <ele>1217</ele>
        <time>2022-07-16T11:41:20.200Z</time>
      </trkpt>
      <trkpt lat="45.80754" lon="7.25016">
        <ele>1217</ele>
        <time>2022-07-16T11:41:27.148Z</time>
      </trkpt>
      <trkpt lat="45.80689" lon="7.25177">
        <ele>1212</ele>
        <time>2022-07-16T11:41:38.878Z</time>
      </trkpt>
      <trkpt lat="45.80581" lon="7.25392">
        <ele>1215</ele>
        <time>2022-07-16T11:42:09.320Z</time>
      </trkpt>
      <trkpt lat="45.80501" lon="7.25537">
        <ele>1216</ele>
        <time>2022-07-16T11:42:28.786Z</time>
      </trkpt>
      <trkpt lat="45.80465" lon="7.25615">
        <ele>1218</ele>
        <time>2022-07-16T11:42:41.507Z</time>
      </trkpt>
      <trkpt lat="45.80414" lon="7.25766">
        <ele>1217</ele>
        <time>2022-07-16T11:42:56.387Z</time>
      </trkpt>
      <trkpt lat="45.80354" lon="7.2599">
        <ele>1224</ele>
        <time>2022-07-16T11:43:34.438Z</time>
      </trkpt>
      <trkpt lat="45.80334" lon="7.26106">
        <ele>1214</ele>
        <time>2022-07-16T11:43:40.910Z</time>
      </trkpt>
      <trkpt lat="45.80318" lon="7.26223">
        <ele>1208</ele>
        <time>2022-07-16T11:43:47.367Z</time>
      </trkpt>
      <trkpt lat="45.803" lon="7.2632">
        <ele>1204</ele>
        <time>2022-07-16T11:43:52.735Z</time>
      </trkpt>
      <trkpt lat="45.80262" lon="7.26495">
        <ele>1197</ele>
        <time>2022-07-16T11:44:02.730Z</time>
      </trkpt>
      <trkpt lat="45.80187" lon="7.2689">
        <ele>1183</ele>
        <time>2022-07-16T11:44:26.173Z</time>
      </trkpt>
      <trkpt lat="45.80173" lon="7.26937">
        <ele>1187</ele>
        <time>2022-07-16T11:44:40.934Z</time>
      </trkpt>
      <trkpt lat="45.80148" lon="7.26996">
        <ele>1190</ele>
        <time>2022-07-16T11:44:53.778Z</time>
      </trkpt>
      <trkpt lat="45.80097" lon="7.27144">
        <ele>1186</ele>
        <time>2022-07-16T11:45:04.583Z</time>
      </trkpt>
      <trkpt lat="45.80078" lon="7.27232">
        <ele>1176</ele>
        <time>2022-07-16T11:45:09.573Z</time>
      </trkpt>
      <trkpt lat="45.80068" lon="7.27257">
        <ele>1175</ele>
        <time>2022-07-16T11:45:11.213Z</time>
      </trkpt>
      <trkpt lat="45.80051" lon="7.27296">
        <ele>1175</ele>
        <time>2022-07-16T11:45:15.712Z</time>
      </trkpt>
      <trkpt lat="45.80011" lon="7.27369">
        <ele>1176</ele>
        <time>2022-07-16T11:45:26.288Z</time>
      </trkpt>
      <trkpt lat="45.7997" lon="7.27426">
        <ele>1181</ele>
        <time>2022-07-16T11:45:44.867Z</time>
      </trkpt>
      <trkpt lat="45.79951" lon="7.27448">
        <ele>1183</ele>
        <time>2022-07-16T11:45:52.439Z</time>
      </trkpt>
      <trkpt lat="45.79915" lon="7.27501">
        <ele>1183</ele>
        <time>2022-07-16T11:45:59.676Z</time>
      </trkpt>
      <trkpt lat="45.79901" lon="7.27536">
        <ele>1182</ele>
        <time>2022-07-16T11:46:02.296Z</time>
      </trkpt>
      <trkpt lat="45.79826" lon="7.27778">
        <ele>1175</ele>
        <time>2022-07-16T11:46:19.100Z</time>
      </trkpt>
      <trkpt lat="45.79796" lon="7.2786">
        <ele>1170</ele>
        <time>2022-07-16T11:46:24.116Z</time>
      </trkpt>
      <trkpt lat="45.79784" lon="7.27885">
        <ele>1168</ele>
        <time>2022-07-16T11:46:25.760Z</time>
      </trkpt>
      <trkpt lat="45.79739" lon="7.2796">
        <ele>1163</ele>
        <time>2022-07-16T11:46:31.120Z</time>
      </trkpt>
      <trkpt lat="45.79711" lon="7.28002">
        <ele>1163</ele>
        <time>2022-07-16T11:46:36.803Z</time>
      </trkpt>
      <trkpt lat="45.79693" lon="7.28034">
        <ele>1163</ele>
        <time>2022-07-16T11:46:40.824Z</time>
      </trkpt>
      <trkpt lat="45.7967" lon="7.28083">
        <ele>1157</ele>
        <time>2022-07-16T11:46:44.024Z</time>
      </trkpt>
      <trkpt lat="45.79649" lon="7.28147">
        <ele>1148</ele>
        <time>2022-07-16T11:46:47.856Z</time>
      </trkpt>
      <trkpt lat="45.79615" lon="7.28276">
        <ele>1131</ele>
        <time>2022-07-16T11:46:55.326Z</time>
      </trkpt>
      <trkpt lat="45.79594" lon="7.28329">
        <ele>1129</ele>
        <time>2022-07-16T11:46:58.879Z</time>
      </trkpt>
      <trkpt lat="45.79426" lon="7.28589">
        <ele>1110</ele>
        <time>2022-07-16T11:47:18.082Z</time>
      </trkpt>
      <trkpt lat="45.79344" lon="7.2873">
        <ele>1098</ele>
        <time>2022-07-16T11:47:28.028Z</time>
      </trkpt>
      <trkpt lat="45.79331" lon="7.28745">
        <ele>1096</ele>
        <time>2022-07-16T11:47:29.325Z</time>
      </trkpt>
      <trkpt lat="45.79319" lon="7.28754">
        <ele>1093</ele>
        <time>2022-07-16T11:47:30.377Z</time>
      </trkpt>
      <trkpt lat="45.79302" lon="7.28755">
        <ele>1090</ele>
        <time>2022-07-16T11:47:31.699Z</time>
      </trkpt>
      <trkpt lat="45.79285" lon="7.28748">
        <ele>1089</ele>
        <time>2022-07-16T11:47:33.062Z</time>
      </trkpt>
      <trkpt lat="45.79274" lon="7.28734">
        <ele>1089</ele>
        <time>2022-07-16T11:47:35.125Z</time>
      </trkpt>
      <trkpt lat="45.79264" lon="7.28709">
        <ele>1090</ele>
        <time>2022-07-16T11:47:40.047Z</time>
      </trkpt>
      <trkpt lat="45.79249" lon="7.28639">
        <ele>1096</ele>
        <time>2022-07-16T11:48:02.504Z</time>
      </trkpt>
      <trkpt lat="45.79233" lon="7.28583">
        <ele>1098</ele>
        <time>2022-07-16T11:48:12.681Z</time>
      </trkpt>
      <trkpt lat="45.79192" lon="7.28513">
        <ele>1099</ele>
        <time>2022-07-16T11:48:23.123Z</time>
      </trkpt>
      <trkpt lat="45.79167" lon="7.28478">
        <ele>1101</ele>
        <time>2022-07-16T11:48:32.120Z</time>
      </trkpt>
      <trkpt lat="45.79154" lon="7.28466">
        <ele>1106</ele>
        <time>2022-07-16T11:48:40.484Z</time>
      </trkpt>
      <trkpt lat="45.79144" lon="7.28463">
        <ele>1108</ele>
        <time>2022-07-16T11:48:46.012Z</time>
      </trkpt>
      <trkpt lat="45.79129" lon="7.2847">
        <ele>1107</ele>
        <time>2022-07-16T11:48:47.163Z</time>
      </trkpt>
      <trkpt lat="45.7912" lon="7.28483">
        <ele>1105</ele>
        <time>2022-07-16T11:48:48.156Z</time>
      </trkpt>
      <trkpt lat="45.79114" lon="7.28505">
        <ele>1102</ele>
        <time>2022-07-16T11:48:49.436Z</time>
      </trkpt>
      <trkpt lat="45.79133" lon="7.28568">
        <ele>1090</ele>
        <time>2022-07-16T11:48:53.154Z</time>
      </trkpt>
      <trkpt lat="45.79136" lon="7.28591">
        <ele>1087</ele>
        <time>2022-07-16T11:48:54.422Z</time>
      </trkpt>
      <trkpt lat="45.79135" lon="7.28627">
        <ele>1082</ele>
        <time>2022-07-16T11:48:56.374Z</time>
      </trkpt>
      <trkpt lat="45.79128" lon="7.28654">
        <ele>1080</ele>
        <time>2022-07-16T11:48:57.934Z</time>
      </trkpt>
      <trkpt lat="45.79092" lon="7.2876">
        <ele>1076</ele>
        <time>2022-07-16T11:49:04.711Z</time>
      </trkpt>
      <trkpt lat="45.7908" lon="7.28807">
        <ele>1077</ele>
        <time>2022-07-16T11:49:11.349Z</time>
      </trkpt>
      <trkpt lat="45.79076" lon="7.28857">
        <ele>1076</ele>
        <time>2022-07-16T11:49:14.863Z</time>
      </trkpt>
      <trkpt lat="45.79076" lon="7.28886">
        <ele>1074</ele>
        <time>2022-07-16T11:49:16.434Z</time>
      </trkpt>
      <trkpt lat="45.79084" lon="7.28948">
        <ele>1070</ele>
        <time>2022-07-16T11:49:19.850Z</time>
      </trkpt>
      <trkpt lat="45.79102" lon="7.29032">
        <ele>1064</ele>
        <time>2022-07-16T11:49:24.611Z</time>
      </trkpt>
      <trkpt lat="45.79126" lon="7.29175">
        <ele>1053</ele>
        <time>2022-07-16T11:49:32.579Z</time>
      </trkpt>
      <trkpt lat="45.79127" lon="7.29203">
        <ele>1050</ele>
        <time>2022-07-16T11:49:34.098Z</time>
      </trkpt>
      <trkpt lat="45.79124" lon="7.29229">
        <ele>1048</ele>
        <time>2022-07-16T11:49:35.525Z</time>
      </trkpt>
      <trkpt lat="45.79114" lon="7.29261">
        <ele>1045</ele>
        <time>2022-07-16T11:49:37.425Z</time>
      </trkpt>
      <trkpt lat="45.79105" lon="7.29277">
        <ele>1044</ele>
        <time>2022-07-16T11:49:38.539Z</time>
      </trkpt>
      <trkpt lat="45.79085" lon="7.293">
        <ele>1044</ele>
        <time>2022-07-16T11:49:42.135Z</time>
      </trkpt>
      <trkpt lat="45.7902" lon="7.29344">
        <ele>1041</ele>
        <time>2022-07-16T11:49:48.442Z</time>
      </trkpt>
      <trkpt lat="45.78898" lon="7.29432">
        <ele>1032</ele>
        <time>2022-07-16T11:49:58.219Z</time>
      </trkpt>
      <trkpt lat="45.7882" lon="7.29479">
        <ele>1023</ele>
        <time>2022-07-16T11:50:04.792Z</time>
      </trkpt>
      <trkpt lat="45.78792" lon="7.29491">
        <ele>1021</ele>
        <time>2022-07-16T11:50:07.063Z</time>
      </trkpt>
      <trkpt lat="45.78513" lon="7.29574">
        <ele>999</ele>
        <time>2022-07-16T11:50:29.201Z</time>
      </trkpt>
      <trkpt lat="45.78407" lon="7.29609">
        <ele>995</ele>
        <time>2022-07-16T11:50:39.211Z</time>
      </trkpt>
      <trkpt lat="45.78386" lon="7.29621">
        <ele>993</ele>
        <time>2022-07-16T11:50:40.967Z</time>
      </trkpt>
      <trkpt lat="45.7837" lon="7.29635">
        <ele>992</ele>
        <time>2022-07-16T11:50:42.451Z</time>
      </trkpt>
      <trkpt lat="45.78333" lon="7.29682">
        <ele>988</ele>
        <time>2022-07-16T11:50:46.291Z</time>
      </trkpt>
      <trkpt lat="45.78317" lon="7.29708">
        <ele>983</ele>
        <time>2022-07-16T11:50:48.170Z</time>
      </trkpt>
      <trkpt lat="45.78291" lon="7.29741">
        <ele>978</ele>
        <time>2022-07-16T11:50:50.868Z</time>
      </trkpt>
      <trkpt lat="45.78279" lon="7.29752">
        <ele>977</ele>
        <time>2022-07-16T11:50:51.974Z</time>
      </trkpt>
      <trkpt lat="45.78237" lon="7.29774">
        <ele>974</ele>
        <time>2022-07-16T11:50:55.448Z</time>
      </trkpt>
      <trkpt lat="45.78167" lon="7.29799">
        <ele>967</ele>
        <time>2022-07-16T11:51:01.053Z</time>
      </trkpt>
      <trkpt lat="45.78153" lon="7.298">
        <ele>965</ele>
        <time>2022-07-16T11:51:02.142Z</time>
      </trkpt>
      <trkpt lat="45.78145" lon="7.29798">
        <ele>964</ele>
        <time>2022-07-16T11:51:02.773Z</time>
      </trkpt>
      <trkpt lat="45.78128" lon="7.29786">
        <ele>964</ele>
        <time>2022-07-16T11:51:05.431Z</time>
      </trkpt>
      <trkpt lat="45.78118" lon="7.29769">
        <ele>965</ele>
        <time>2022-07-16T11:51:09.634Z</time>
      </trkpt>
      <trkpt lat="45.7811" lon="7.29747">
        <ele>967</ele>
        <time>2022-07-16T11:51:17.076Z</time>
      </trkpt>
      <trkpt lat="45.78108" lon="7.2971">
        <ele>965</ele>
        <time>2022-07-16T11:51:19.087Z</time>
      </trkpt>
      <trkpt lat="45.78125" lon="7.29642">
        <ele>967</ele>
        <time>2022-07-16T11:51:30.192Z</time>
      </trkpt>
      <trkpt lat="45.78128" lon="7.29619">
        <ele>967</ele>
        <time>2022-07-16T11:51:32.481Z</time>
      </trkpt>
      <trkpt lat="45.78122" lon="7.29579">
        <ele>964</ele>
        <time>2022-07-16T11:51:34.698Z</time>
      </trkpt>
      <trkpt lat="45.78114" lon="7.29564">
        <ele>964</ele>
        <time>2022-07-16T11:51:36.546Z</time>
      </trkpt>
      <trkpt lat="45.781" lon="7.29551">
        <ele>963</ele>
        <time>2022-07-16T11:51:37.796Z</time>
      </trkpt>
      <trkpt lat="45.78051" lon="7.29521">
        <ele>960</ele>
        <time>2022-07-16T11:51:41.912Z</time>
      </trkpt>
      <trkpt lat="45.78011" lon="7.29502">
        <ele>958</ele>
        <time>2022-07-16T11:51:45.422Z</time>
      </trkpt>
      <trkpt lat="45.78001" lon="7.295">
        <ele>957</ele>
        <time>2022-07-16T11:51:46.206Z</time>
      </trkpt>
      <trkpt lat="45.77971" lon="7.29508">
        <ele>955</ele>
        <time>2022-07-16T11:51:48.397Z</time>
      </trkpt>
      <trkpt lat="45.77919" lon="7.29535">
        <ele>949</ele>
        <time>2022-07-16T11:51:52.694Z</time>
      </trkpt>
      <trkpt lat="45.77897" lon="7.2954">
        <ele>948</ele>
        <time>2022-07-16T11:51:54.592Z</time>
      </trkpt>
      <trkpt lat="45.77837" lon="7.29544">
        <ele>946</ele>
        <time>2022-07-16T11:52:00.315Z</time>
      </trkpt>
      <trkpt lat="45.77813" lon="7.29548">
        <ele>946</ele>
        <time>2022-07-16T11:52:03.704Z</time>
      </trkpt>
      <trkpt lat="45.77786" lon="7.29558">
        <ele>947</ele>
        <time>2022-07-16T11:52:09.529Z</time>
      </trkpt>
      <trkpt lat="45.77776" lon="7.29566">
        <ele>946</ele>
        <time>2022-07-16T11:52:10.419Z</time>
      </trkpt>
      <trkpt lat="45.77715" lon="7.29637">
        <ele>948</ele>
        <time>2022-07-16T11:52:24.792Z</time>
      </trkpt>
      <trkpt lat="45.77538" lon="7.29801">
        <ele>935</ele>
        <time>2022-07-16T11:52:40.380Z</time>
      </trkpt>
      <trkpt lat="45.77513" lon="7.29829">
        <ele>928</ele>
        <time>2022-07-16T11:52:42.844Z</time>
      </trkpt>
      <trkpt lat="45.77492" lon="7.29856">
        <ele>926</ele>
        <time>2022-07-16T11:52:45.036Z</time>
      </trkpt>
      <trkpt lat="45.7741" lon="7.29997">
        <ele>922</ele>
        <time>2022-07-16T11:52:57.495Z</time>
      </trkpt>
      <trkpt lat="45.77336" lon="7.30074">
        <ele>916</ele>
        <time>2022-07-16T11:53:04.055Z</time>
      </trkpt>
      <trkpt lat="45.77117" lon="7.30267">
        <ele>907</ele>
        <time>2022-07-16T11:53:28.128Z</time>
      </trkpt>
      <trkpt lat="45.76963" lon="7.3042">
        <ele>902</ele>
        <time>2022-07-16T11:53:47.263Z</time>
      </trkpt>
      <trkpt lat="45.76932" lon="7.30446">
        <ele>901</ele>
        <time>2022-07-16T11:53:50.885Z</time>
      </trkpt>
      <trkpt lat="45.7689" lon="7.30474">
        <ele>897</ele>
        <time>2022-07-16T11:53:54.483Z</time>
      </trkpt>
      <trkpt lat="45.76864" lon="7.30488">
        <ele>895</ele>
        <time>2022-07-16T11:53:56.641Z</time>
      </trkpt>
      <trkpt lat="45.7675" lon="7.30528">
        <ele>899</ele>
        <time>2022-07-16T11:54:20.577Z</time>
      </trkpt>
      <trkpt lat="45.76741" lon="7.30533">
        <ele>900</ele>
        <time>2022-07-16T11:54:24.226Z</time>
      </trkpt>
      <trkpt lat="45.76727" lon="7.30549">
        <ele>900</ele>
        <time>2022-07-16T11:54:26.738Z</time>
      </trkpt>
      <trkpt lat="45.76723" lon="7.30557">
        <ele>899</ele>
        <time>2022-07-16T11:54:27.271Z</time>
      </trkpt>
      <trkpt lat="45.76717" lon="7.30593">
        <ele>893</ele>
        <time>2022-07-16T11:54:29.277Z</time>
      </trkpt>
      <trkpt lat="45.76719" lon="7.30609">
        <ele>889</ele>
        <time>2022-07-16T11:54:30.158Z</time>
      </trkpt>
      <trkpt lat="45.76726" lon="7.30632">
        <ele>883</ele>
        <time>2022-07-16T11:54:31.518Z</time>
      </trkpt>
      <trkpt lat="45.76738" lon="7.3065">
        <ele>878</ele>
        <time>2022-07-16T11:54:32.868Z</time>
      </trkpt>
      <trkpt lat="45.7675" lon="7.30657">
        <ele>875</ele>
        <time>2022-07-16T11:54:33.874Z</time>
      </trkpt>
      <trkpt lat="45.76765" lon="7.30659">
        <ele>873</ele>
        <time>2022-07-16T11:54:35.045Z</time>
      </trkpt>
      <trkpt lat="45.76779" lon="7.30657">
        <ele>872</ele>
        <time>2022-07-16T11:54:36.138Z</time>
      </trkpt>
      <trkpt lat="45.77036" lon="7.30494">
        <ele>883</ele>
        <time>2022-07-16T11:55:37.593Z</time>
      </trkpt>
      <trkpt lat="45.77041" lon="7.30494">
        <ele>883</ele>
        <time>2022-07-16T11:55:38.294Z</time>
      </trkpt>
      <trkpt lat="45.77051" lon="7.30489">
        <ele>882</ele>
        <time>2022-07-16T11:55:39.117Z</time>
      </trkpt>
      <trkpt lat="45.77134" lon="7.30442">
        <ele>878</ele>
        <time>2022-07-16T11:55:46.729Z</time>
      </trkpt>
      <trkpt lat="45.7715" lon="7.30439">
        <ele>877</ele>
        <time>2022-07-16T11:55:47.920Z</time>
      </trkpt>
      <trkpt lat="45.77158" lon="7.3044">
        <ele>876</ele>
        <time>2022-07-16T11:55:48.544Z</time>
      </trkpt>
      <trkpt lat="45.77164" lon="7.30442">
        <ele>875</ele>
        <time>2022-07-16T11:55:49.022Z</time>
      </trkpt>
      <trkpt lat="45.77179" lon="7.30454">
        <ele>874</ele>
        <time>2022-07-16T11:55:50.329Z</time>
      </trkpt>
      <trkpt lat="45.7719" lon="7.30476">
        <ele>873</ele>
        <time>2022-07-16T11:55:51.828Z</time>
      </trkpt>
      <trkpt lat="45.77192" lon="7.30489">
        <ele>872</ele>
        <time>2022-07-16T11:55:52.550Z</time>
      </trkpt>
      <trkpt lat="45.77192" lon="7.30573">
        <ele>870</ele>
        <time>2022-07-16T11:55:58.085Z</time>
      </trkpt>
      <trkpt lat="45.77182" lon="7.30648">
        <ele>862</ele>
        <time>2022-07-16T11:56:02.223Z</time>
      </trkpt>
      <trkpt lat="45.77175" lon="7.30661">
        <ele>861</ele>
        <time>2022-07-16T11:56:03.113Z</time>
      </trkpt>
      <trkpt lat="45.77158" lon="7.30681">
        <ele>859</ele>
        <time>2022-07-16T11:56:04.822Z</time>
      </trkpt>
      <trkpt lat="45.77145" lon="7.30693">
        <ele>858</ele>
        <time>2022-07-16T11:56:05.939Z</time>
      </trkpt>
      <trkpt lat="45.77128" lon="7.30699">
        <ele>858</ele>
        <time>2022-07-16T11:56:08.395Z</time>
      </trkpt>
      <trkpt lat="45.77114" lon="7.30701">
        <ele>859</ele>
        <time>2022-07-16T11:56:12.399Z</time>
      </trkpt>
      <trkpt lat="45.77098" lon="7.30699">
        <ele>860</ele>
        <time>2022-07-16T11:56:16.682Z</time>
      </trkpt>
      <trkpt lat="45.7706" lon="7.30688">
        <ele>863</ele>
        <time>2022-07-16T11:56:28.270Z</time>
      </trkpt>
      <trkpt lat="45.77044" lon="7.30688">
        <ele>863</ele>
        <time>2022-07-16T11:56:30.515Z</time>
      </trkpt>
      <trkpt lat="45.7703" lon="7.30694">
        <ele>862</ele>
        <time>2022-07-16T11:56:31.650Z</time>
      </trkpt>
      <trkpt lat="45.7702" lon="7.3071">
        <ele>859</ele>
        <time>2022-07-16T11:56:32.814Z</time>
      </trkpt>
      <trkpt lat="45.77017" lon="7.30721">
        <ele>858</ele>
        <time>2022-07-16T11:56:33.454Z</time>
      </trkpt>
      <trkpt lat="45.77017" lon="7.30733">
        <ele>856</ele>
        <time>2022-07-16T11:56:34.105Z</time>
      </trkpt>
      <trkpt lat="45.77029" lon="7.30759">
        <ele>851</ele>
        <time>2022-07-16T11:56:35.794Z</time>
      </trkpt>
      <trkpt lat="45.77039" lon="7.30765">
        <ele>849</ele>
        <time>2022-07-16T11:56:36.636Z</time>
      </trkpt>
      <trkpt lat="45.77057" lon="7.30765">
        <ele>848</ele>
        <time>2022-07-16T11:56:38.035Z</time>
      </trkpt>
      <trkpt lat="45.77115" lon="7.30754">
        <ele>847</ele>
        <time>2022-07-16T11:56:44.706Z</time>
      </trkpt>
      <trkpt lat="45.77148" lon="7.30744">
        <ele>846</ele>
        <time>2022-07-16T11:56:48.043Z</time>
      </trkpt>
      <trkpt lat="45.77194" lon="7.3073">
        <ele>843</ele>
        <time>2022-07-16T11:56:51.465Z</time>
      </trkpt>
      <trkpt lat="45.773" lon="7.30677">
        <ele>843</ele>
        <time>2022-07-16T11:57:07.212Z</time>
      </trkpt>
      <trkpt lat="45.77312" lon="7.30673">
        <ele>843</ele>
        <time>2022-07-16T11:57:08.940Z</time>
      </trkpt>
      <trkpt lat="45.77334" lon="7.30675">
        <ele>840</ele>
        <time>2022-07-16T11:57:10.653Z</time>
      </trkpt>
      <trkpt lat="45.77343" lon="7.30679">
        <ele>838</ele>
        <time>2022-07-16T11:57:11.385Z</time>
      </trkpt>
      <trkpt lat="45.77355" lon="7.3069">
        <ele>834</ele>
        <time>2022-07-16T11:57:12.492Z</time>
      </trkpt>
      <trkpt lat="45.7736" lon="7.30712">
        <ele>830</ele>
        <time>2022-07-16T11:57:13.746Z</time>
      </trkpt>
      <trkpt lat="45.77359" lon="7.30728">
        <ele>827</ele>
        <time>2022-07-16T11:57:14.616Z</time>
      </trkpt>
      <trkpt lat="45.77357" lon="7.30736">
        <ele>826</ele>
        <time>2022-07-16T11:57:15.077Z</time>
      </trkpt>
      <trkpt lat="45.77342" lon="7.30759">
        <ele>825</ele>
        <time>2022-07-16T11:57:16.938Z</time>
      </trkpt>
      <trkpt lat="45.77316" lon="7.3077">
        <ele>825</ele>
        <time>2022-07-16T11:57:20.741Z</time>
      </trkpt>
      <trkpt lat="45.77233" lon="7.30791">
        <ele>823</ele>
        <time>2022-07-16T11:57:29.634Z</time>
      </trkpt>
      <trkpt lat="45.77116" lon="7.3084">
        <ele>821</ele>
        <time>2022-07-16T11:57:43.648Z</time>
      </trkpt>
      <trkpt lat="45.7708" lon="7.30858">
        <ele>818</ele>
        <time>2022-07-16T11:57:46.610Z</time>
      </trkpt>
      <trkpt lat="45.76901" lon="7.30975">
        <ele>802</ele>
        <time>2022-07-16T11:58:01.895Z</time>
      </trkpt>
      <trkpt lat="45.76848" lon="7.31015">
        <ele>799</ele>
        <time>2022-07-16T11:58:06.770Z</time>
      </trkpt>
      <trkpt lat="45.76648" lon="7.31142">
        <ele>789</ele>
        <time>2022-07-16T11:58:25.279Z</time>
      </trkpt>
      <trkpt lat="45.7662" lon="7.31157">
        <ele>788</ele>
        <time>2022-07-16T11:58:28.122Z</time>
      </trkpt>
      <trkpt lat="45.76574" lon="7.31177">
        <ele>786</ele>
        <time>2022-07-16T11:58:32.345Z</time>
      </trkpt>
      <trkpt lat="45.76559" lon="7.31181">
        <ele>786</ele>
        <time>2022-07-16T11:58:34.486Z</time>
      </trkpt>
      <trkpt lat="45.76481" lon="7.31196">
        <ele>786</ele>
        <time>2022-07-16T11:58:45.525Z</time>
      </trkpt>
      <trkpt lat="45.76477" lon="7.31194">
        <ele>786</ele>
        <time>2022-07-16T11:58:46.119Z</time>
      </trkpt>
      <trkpt lat="45.76458" lon="7.31196">
        <ele>788</ele>
        <time>2022-07-16T11:58:53.424Z</time>
      </trkpt>
      <trkpt lat="45.76435" lon="7.31213">
        <ele>785</ele>
        <time>2022-07-16T11:58:55.434Z</time>
      </trkpt>
      <trkpt lat="45.76341" lon="7.31303">
        <ele>779</ele>
        <time>2022-07-16T11:59:04.404Z</time>
      </trkpt>
      <trkpt lat="45.76313" lon="7.31321">
        <ele>780</ele>
        <time>2022-07-16T11:59:10.540Z</time>
      </trkpt>
      <trkpt lat="45.76287" lon="7.31343">
        <ele>779</ele>
        <time>2022-07-16T11:59:13.421Z</time>
      </trkpt>
      <trkpt lat="45.76269" lon="7.31362">
        <ele>778</ele>
        <time>2022-07-16T11:59:15.330Z</time>
      </trkpt>
      <trkpt lat="45.76246" lon="7.31404">
        <ele>771</ele>
        <time>2022-07-16T11:59:18.224Z</time>
      </trkpt>
      <trkpt lat="45.76218" lon="7.31433">
        <ele>766</ele>
        <time>2022-07-16T11:59:20.908Z</time>
      </trkpt>
      <trkpt lat="45.76189" lon="7.31452">
        <ele>764</ele>
        <time>2022-07-16T11:59:23.247Z</time>
      </trkpt>
      <trkpt lat="45.7614" lon="7.31473">
        <ele>760</ele>
        <time>2022-07-16T11:59:27.221Z</time>
      </trkpt>
      <trkpt lat="45.76093" lon="7.31487">
        <ele>757</ele>
        <time>2022-07-16T11:59:30.749Z</time>
      </trkpt>
      <trkpt lat="45.76016" lon="7.31505">
        <ele>750</ele>
        <time>2022-07-16T11:59:36.810Z</time>
      </trkpt>
      <trkpt lat="45.75989" lon="7.31515">
        <ele>748</ele>
        <time>2022-07-16T11:59:38.977Z</time>
      </trkpt>
      <trkpt lat="45.75984" lon="7.31518">
        <ele>747</ele>
        <time>2022-07-16T11:59:39.398Z</time>
      </trkpt>
      <trkpt lat="45.75982" lon="7.31523">
        <ele>747</ele>
        <time>2022-07-16T11:59:39.962Z</time>
      </trkpt>
      <trkpt lat="45.75916" lon="7.31543">
        <ele>744</ele>
        <time>2022-07-16T11:59:45.735Z</time>
      </trkpt>
      <trkpt lat="45.75862" lon="7.31563">
        <ele>741</ele>
        <time>2022-07-16T11:59:50.134Z</time>
      </trkpt>
      <trkpt lat="45.75827" lon="7.31582">
        <ele>737</ele>
        <time>2022-07-16T11:59:53.041Z</time>
      </trkpt>
      <trkpt lat="45.75678" lon="7.31678">
        <ele>728</ele>
        <time>2022-07-16T12:00:05.787Z</time>
      </trkpt>
      <trkpt lat="45.75651" lon="7.31692">
        <ele>726</ele>
        <time>2022-07-16T12:00:08.018Z</time>
      </trkpt>
      <trkpt lat="45.75548" lon="7.31717">
        <ele>719</ele>
        <time>2022-07-16T12:00:16.134Z</time>
      </trkpt>
      <trkpt lat="45.75448" lon="7.31729">
        <ele>718</ele>
        <time>2022-07-16T12:00:28.660Z</time>
      </trkpt>
      <trkpt lat="45.75427" lon="7.3174">
        <ele>717</ele>
        <time>2022-07-16T12:00:30.569Z</time>
      </trkpt>
      <trkpt lat="45.75405" lon="7.31762">
        <ele>714</ele>
        <time>2022-07-16T12:00:32.653Z</time>
      </trkpt>
      <trkpt lat="45.75396" lon="7.31769">
        <ele>713</ele>
        <time>2022-07-16T12:00:33.448Z</time>
      </trkpt>
      <trkpt lat="45.75388" lon="7.31771">
        <ele>712</ele>
        <time>2022-07-16T12:00:34.079Z</time>
      </trkpt>
      <trkpt lat="45.75375" lon="7.3177">
        <ele>713</ele>
        <time>2022-07-16T12:00:37.953Z</time>
      </trkpt>
      <trkpt lat="45.75358" lon="7.31759">
        <ele>715</ele>
        <time>2022-07-16T12:00:45.273Z</time>
      </trkpt>
      <trkpt lat="45.75342" lon="7.31753">
        <ele>717</ele>
        <time>2022-07-16T12:00:52.851Z</time>
      </trkpt>
      <trkpt lat="45.75336" lon="7.31754">
        <ele>717</ele>
        <time>2022-07-16T12:00:53.699Z</time>
      </trkpt>
      <trkpt lat="45.75288" lon="7.31777">
        <ele>711</ele>
        <time>2022-07-16T12:00:57.631Z</time>
      </trkpt>
      <trkpt lat="45.75275" lon="7.31779">
        <ele>711</ele>
        <time>2022-07-16T12:00:59.465Z</time>
      </trkpt>
      <trkpt lat="45.752" lon="7.31773">
        <ele>711</ele>
        <time>2022-07-16T12:01:10.002Z</time>
      </trkpt>
      <trkpt lat="45.75178" lon="7.31781">
        <ele>709</ele>
        <time>2022-07-16T12:01:11.765Z</time>
      </trkpt>
      <trkpt lat="45.75139" lon="7.3182">
        <ele>701</ele>
        <time>2022-07-16T12:01:15.460Z</time>
      </trkpt>
      <trkpt lat="45.75126" lon="7.3183">
        <ele>699</ele>
        <time>2022-07-16T12:01:16.607Z</time>
      </trkpt>
      <trkpt lat="45.75109" lon="7.31834">
        <ele>697</ele>
        <time>2022-07-16T12:01:17.945Z</time>
      </trkpt>
      <trkpt lat="45.75032" lon="7.31843">
        <ele>696</ele>
        <time>2022-07-16T12:01:27.221Z</time>
      </trkpt>
      <trkpt lat="45.75015" lon="7.3186">
        <ele>695</ele>
        <time>2022-07-16T12:01:28.936Z</time>
      </trkpt>
      <trkpt lat="45.74987" lon="7.31898">
        <ele>692</ele>
        <time>2022-07-16T12:01:31.932Z</time>
      </trkpt>
      <trkpt lat="45.74899" lon="7.31933">
        <ele>688</ele>
        <time>2022-07-16T12:01:39.795Z</time>
      </trkpt>
      <trkpt lat="45.74888" lon="7.31935">
        <ele>686</ele>
        <time>2022-07-16T12:01:40.656Z</time>
      </trkpt>
      <trkpt lat="45.74873" lon="7.31931">
        <ele>684</ele>
        <time>2022-07-16T12:01:41.842Z</time>
      </trkpt>
      <trkpt lat="45.74845" lon="7.319">
        <ele>682</ele>
        <time>2022-07-16T12:01:44.570Z</time>
      </trkpt>
      <trkpt lat="45.74786" lon="7.31796">
        <ele>679</ele>
        <time>2022-07-16T12:01:53.592Z</time>
      </trkpt>
      <trkpt lat="45.74758" lon="7.31741">
        <ele>677</ele>
        <time>2022-07-16T12:01:57.748Z</time>
      </trkpt>
      <trkpt lat="45.74727" lon="7.3169">
        <ele>673</ele>
        <time>2022-07-16T12:02:01.415Z</time>
      </trkpt>
      <trkpt lat="45.74716" lon="7.31683">
        <ele>671</ele>
        <time>2022-07-16T12:02:02.350Z</time>
      </trkpt>
      <trkpt lat="45.74704" lon="7.31686">
        <ele>669</ele>
        <time>2022-07-16T12:02:03.296Z</time>
      </trkpt>
      <trkpt lat="45.747" lon="7.31691">
        <ele>668</ele>
        <time>2022-07-16T12:02:03.709Z</time>
      </trkpt>
      <trkpt lat="45.74698" lon="7.31709">
        <ele>668</ele>
        <time>2022-07-16T12:02:05.493Z</time>
      </trkpt>
      <trkpt lat="45.74717" lon="7.31788">
        <ele>668</ele>
        <time>2022-07-16T12:02:13.672Z</time>
      </trkpt>
      <trkpt lat="45.74715" lon="7.31817">
        <ele>667</ele>
        <time>2022-07-16T12:02:15.341Z</time>
      </trkpt>
      <trkpt lat="45.74707" lon="7.31844">
        <ele>665</ele>
        <time>2022-07-16T12:02:16.931Z</time>
      </trkpt>
      <trkpt lat="45.74698" lon="7.31864">
        <ele>662</ele>
        <time>2022-07-16T12:02:18.222Z</time>
      </trkpt>
      <trkpt lat="45.74694" lon="7.31888">
        <ele>661</ele>
        <time>2022-07-16T12:02:19.532Z</time>
      </trkpt>
      <trkpt lat="45.74697" lon="7.3191">
        <ele>660</ele>
        <time>2022-07-16T12:02:20.669Z</time>
      </trkpt>
      <trkpt lat="45.74716" lon="7.31976">
        <ele>658</ele>
        <time>2022-07-16T12:02:25.108Z</time>
      </trkpt>
      <trkpt lat="45.74718" lon="7.31993">
        <ele>657</ele>
        <time>2022-07-16T12:02:26.042Z</time>
      </trkpt>
      <trkpt lat="45.74712" lon="7.32091">
        <ele>655</ele>
        <time>2022-07-16T12:02:32.871Z</time>
      </trkpt>
      <trkpt lat="45.74707" lon="7.32121">
        <ele>650</ele>
        <time>2022-07-16T12:02:34.544Z</time>
      </trkpt>
      <trkpt lat="45.74695" lon="7.32137">
        <ele>646</ele>
        <time>2022-07-16T12:02:35.817Z</time>
      </trkpt>
      <trkpt lat="45.74682" lon="7.32144">
        <ele>644</ele>
        <time>2022-07-16T12:02:36.896Z</time>
      </trkpt>
      <trkpt lat="45.74642" lon="7.32156">
        <ele>642</ele>
        <time>2022-07-16T12:02:40.256Z</time>
      </trkpt>
      <trkpt lat="45.74631" lon="7.32163">
        <ele>641</ele>
        <time>2022-07-16T12:02:41.191Z</time>
      </trkpt>
      <trkpt lat="45.74608" lon="7.32187">
        <ele>636</ele>
        <time>2022-07-16T12:02:43.402Z</time>
      </trkpt>
      <trkpt lat="45.74567" lon="7.3222">
        <ele>628</ele>
        <time>2022-07-16T12:02:47.055Z</time>
      </trkpt>
      <trkpt lat="45.74528" lon="7.32236">
        <ele>624</ele>
        <time>2022-07-16T12:02:50.207Z</time>
      </trkpt>
      <trkpt lat="45.74513" lon="7.32237">
        <ele>623</ele>
        <time>2022-07-16T12:02:51.277Z</time>
      </trkpt>
      <trkpt lat="45.74483" lon="7.32229">
        <ele>620</ele>
        <time>2022-07-16T12:02:53.647Z</time>
      </trkpt>
      <trkpt lat="45.74478" lon="7.32225">
        <ele>620</ele>
        <time>2022-07-16T12:02:54.451Z</time>
      </trkpt>
      <trkpt lat="45.74472" lon="7.32212">
        <ele>620</ele>
        <time>2022-07-16T12:02:55.976Z</time>
      </trkpt>
      <trkpt lat="45.7447" lon="7.32176">
        <ele>624</ele>
        <time>2022-07-16T12:03:09.613Z</time>
      </trkpt>
      <trkpt lat="45.74473" lon="7.31961">
        <ele>627</ele>
        <time>2022-07-16T12:03:35.382Z</time>
      </trkpt>
      <trkpt lat="45.74469" lon="7.31926">
        <ele>625</ele>
        <time>2022-07-16T12:03:37.305Z</time>
      </trkpt>
      <trkpt lat="45.74451" lon="7.31849">
        <ele>621</ele>
        <time>2022-07-16T12:03:41.708Z</time>
      </trkpt>
      <trkpt lat="45.7444" lon="7.31786">
        <ele>621</ele>
        <time>2022-07-16T12:03:48.066Z</time>
      </trkpt>
      <trkpt lat="45.74427" lon="7.31751">
        <ele>620</ele>
        <time>2022-07-16T12:03:50.628Z</time>
      </trkpt>
      <trkpt lat="45.74387" lon="7.31691">
        <ele>613</ele>
        <time>2022-07-16T12:03:55.127Z</time>
      </trkpt>
      <trkpt lat="45.74349" lon="7.31621">
        <ele>610</ele>
        <time>2022-07-16T12:04:00.237Z</time>
      </trkpt>
      <trkpt lat="45.74338" lon="7.31611">
        <ele>609</ele>
        <time>2022-07-16T12:04:01.249Z</time>
      </trkpt>
      <trkpt lat="45.74297" lon="7.31601">
        <ele>606</ele>
        <time>2022-07-16T12:04:04.480Z</time>
      </trkpt>
      <trkpt lat="45.74281" lon="7.31592">
        <ele>605</ele>
        <time>2022-07-16T12:04:05.787Z</time>
      </trkpt>
      <trkpt lat="45.74275" lon="7.31584">
        <ele>604</ele>
        <time>2022-07-16T12:04:06.424Z</time>
      </trkpt>
      <trkpt lat="45.74246" lon="7.31504">
        <ele>602</ele>
        <time>2022-07-16T12:04:12.511Z</time>
      </trkpt>
      <trkpt lat="45.74237" lon="7.3149">
        <ele>602</ele>
        <time>2022-07-16T12:04:14.375Z</time>
      </trkpt>
      <trkpt lat="45.74191" lon="7.31441">
        <ele>598</ele>
        <time>2022-07-16T12:04:18.828Z</time>
      </trkpt>
      <trkpt lat="45.74187" lon="7.31433">
        <ele>597</ele>
        <time>2022-07-16T12:04:19.362Z</time>
      </trkpt>
      <trkpt lat="45.74172" lon="7.31424">
        <ele>596</ele>
        <time>2022-07-16T12:04:20.566Z</time>
      </trkpt>
      <trkpt lat="45.74165" lon="7.31424">
        <ele>595</ele>
        <time>2022-07-16T12:04:21.110Z</time>
      </trkpt>
      <trkpt lat="45.74161" lon="7.31411">
        <ele>595</ele>
        <time>2022-07-16T12:04:22.501Z</time>
      </trkpt>
      <trkpt lat="45.74155" lon="7.31407">
        <ele>595</ele>
        <time>2022-07-16T12:04:23.429Z</time>
      </trkpt>
      <trkpt lat="45.74151" lon="7.31408">
        <ele>594</ele>
        <time>2022-07-16T12:04:23.745Z</time>
      </trkpt>
      <trkpt lat="45.74155" lon="7.31361">
        <ele>596</ele>
        <time>2022-07-16T12:04:32.450Z</time>
      </trkpt>
      <trkpt lat="45.74153" lon="7.31355">
        <ele>596</ele>
        <time>2022-07-16T12:04:33.101Z</time>
      </trkpt>
      <trkpt lat="45.74154" lon="7.31298">
        <ele>597</ele>
        <time>2022-07-16T12:04:40.352Z</time>
      </trkpt>
      <trkpt lat="45.74142" lon="7.31261">
        <ele>596</ele>
        <time>2022-07-16T12:04:43.016Z</time>
      </trkpt>
      <trkpt lat="45.74128" lon="7.31232">
        <ele>595</ele>
        <time>2022-07-16T12:04:45.198Z</time>
      </trkpt>
      <trkpt lat="45.74076" lon="7.31148">
        <ele>592</ele>
        <time>2022-07-16T12:04:52.304Z</time>
      </trkpt>
      <trkpt lat="45.74037" lon="7.31091">
        <ele>590</ele>
        <time>2022-07-16T12:04:57.475Z</time>
      </trkpt>
      <trkpt lat="45.74034" lon="7.31082">
        <ele>591</ele>
        <time>2022-07-16T12:05:01.241Z</time>
      </trkpt>
      <trkpt lat="45.74006" lon="7.31043">
        <ele>591</ele>
        <time>2022-07-16T12:05:06.719Z</time>
      </trkpt>
      <trkpt lat="45.74007" lon="7.31036">
        <ele>591</ele>
        <time>2022-07-16T12:05:07.419Z</time>
      </trkpt>
      <trkpt lat="45.74005" lon="7.31031">
        <ele>591</ele>
        <time>2022-07-16T12:05:07.983Z</time>
      </trkpt>
      <trkpt lat="45.74002" lon="7.31028">
        <ele>591</ele>
        <time>2022-07-16T12:05:08.496Z</time>
      </trkpt>
      <trkpt lat="45.73996" lon="7.31029">
        <ele>590</ele>
        <time>2022-07-16T12:05:08.965Z</time>
      </trkpt>
      <trkpt lat="45.73975" lon="7.30996">
        <ele>591</ele>
        <time>2022-07-16T12:05:15.157Z</time>
      </trkpt>
      <trkpt lat="45.73971" lon="7.30994">
        <ele>591</ele>
        <time>2022-07-16T12:05:15.751Z</time>
      </trkpt>
      <trkpt lat="45.73934" lon="7.30935">
        <ele>589</ele>
        <time>2022-07-16T12:05:20.878Z</time>
      </trkpt>
      <trkpt lat="45.73926" lon="7.30913">
        <ele>588</ele>
        <time>2022-07-16T12:05:22.200Z</time>
      </trkpt>
      <trkpt lat="45.73921" lon="7.30893">
        <ele>588</ele>
        <time>2022-07-16T12:05:24.280Z</time>
      </trkpt>
      <trkpt lat="45.73919" lon="7.30866">
        <ele>587</ele>
        <time>2022-07-16T12:05:25.787Z</time>
      </trkpt>
      <trkpt lat="45.73922" lon="7.30756">
        <ele>587</ele>
        <time>2022-07-16T12:05:36.565Z</time>
      </trkpt>
      <trkpt lat="45.73918" lon="7.30675">
        <ele>588</ele>
        <time>2022-07-16T12:05:46.047Z</time>
      </trkpt>
      <trkpt lat="45.739" lon="7.30622">
        <ele>590</ele>
        <time>2022-07-16T12:05:56.047Z</time>
      </trkpt>
      <trkpt lat="45.73881" lon="7.30583">
        <ele>590</ele>
        <time>2022-07-16T12:06:00.703Z</time>
      </trkpt>
      <trkpt lat="45.73812" lon="7.30474">
        <ele>588</ele>
        <time>2022-07-16T12:06:12.084Z</time>
      </trkpt>
      <trkpt lat="45.73771" lon="7.30371">
        <ele>586</ele>
        <time>2022-07-16T12:06:20.774Z</time>
      </trkpt>
      <trkpt lat="45.73699" lon="7.30205">
        <ele>587</ele>
        <time>2022-07-16T12:06:41.286Z</time>
      </trkpt>
      <trkpt lat="45.73697" lon="7.30193">
        <ele>587</ele>
        <time>2022-07-16T12:06:42.494Z</time>
      </trkpt>
      <trkpt lat="45.7368" lon="7.3015">
        <ele>587</ele>
        <time>2022-07-16T12:06:47.333Z</time>
      </trkpt>
      <trkpt lat="45.73687" lon="7.30141">
        <ele>587</ele>
        <time>2022-07-16T12:06:48.652Z</time>
      </trkpt>
      <trkpt lat="45.73683" lon="7.30119">
        <ele>588</ele>
        <time>2022-07-16T12:06:52.907Z</time>
      </trkpt>
      <trkpt lat="45.73676" lon="7.30105">
        <ele>587</ele>
        <time>2022-07-16T12:06:53.841Z</time>
      </trkpt>
      <trkpt lat="45.73669" lon="7.30098">
        <ele>587</ele>
        <time>2022-07-16T12:06:55.038Z</time>
      </trkpt>
      <trkpt lat="45.73662" lon="7.30097">
        <ele>587</ele>
        <time>2022-07-16T12:06:56.025Z</time>
      </trkpt>
      <trkpt lat="45.73649" lon="7.3007">
        <ele>586</ele>
        <time>2022-07-16T12:06:57.998Z</time>
      </trkpt>
      <trkpt lat="45.73644" lon="7.30066">
        <ele>586</ele>
        <time>2022-07-16T12:06:58.802Z</time>
      </trkpt>
      <trkpt lat="45.73638" lon="7.3005">
        <ele>586</ele>
        <time>2022-07-16T12:07:00.580Z</time>
      </trkpt>
      <trkpt lat="45.73627" lon="7.30004">
        <ele>586</ele>
        <time>2022-07-16T12:07:05.341Z</time>
      </trkpt>
      <trkpt lat="45.73555" lon="7.29536">
        <ele>589</ele>
        <time>2022-07-16T12:07:56.461Z</time>
      </trkpt>
      <trkpt lat="45.73544" lon="7.29495">
        <ele>590</ele>
        <time>2022-07-16T12:08:02.594Z</time>
      </trkpt>
      <trkpt lat="45.73528" lon="7.29457">
        <ele>592</ele>
        <time>2022-07-16T12:08:10.994Z</time>
      </trkpt>
      <trkpt lat="45.73464" lon="7.29355">
        <ele>592</ele>
        <time>2022-07-16T12:08:24.423Z</time>
      </trkpt>
      <trkpt lat="45.73332" lon="7.29168">
        <ele>592</ele>
        <time>2022-07-16T12:08:50.463Z</time>
      </trkpt>
      <trkpt lat="45.73174" lon="7.29027">
        <ele>594</ele>
        <time>2022-07-16T12:09:19.425Z</time>
      </trkpt>
      <trkpt lat="45.73044" lon="7.28907">
        <ele>593</ele>
        <time>2022-07-16T12:09:39.163Z</time>
      </trkpt>
      <trkpt lat="45.73026" lon="7.28893">
        <ele>592</ele>
        <time>2022-07-16T12:09:40.849Z</time>
      </trkpt>
      <trkpt lat="45.73006" lon="7.28871">
        <ele>592</ele>
        <time>2022-07-16T12:09:44.386Z</time>
      </trkpt>
      <trkpt lat="45.72999" lon="7.2886">
        <ele>592</ele>
        <time>2022-07-16T12:09:45.843Z</time>
      </trkpt>
      <trkpt lat="45.72984" lon="7.28825">
        <ele>591</ele>
        <time>2022-07-16T12:09:48.532Z</time>
      </trkpt>
      <trkpt lat="45.7297" lon="7.28765">
        <ele>590</ele>
        <time>2022-07-16T12:09:53.249Z</time>
      </trkpt>
      <trkpt lat="45.7297" lon="7.28695">
        <ele>589</ele>
        <time>2022-07-16T12:09:58.601Z</time>
      </trkpt>
      <trkpt lat="45.72979" lon="7.28515">
        <ele>589</ele>
        <time>2022-07-16T12:10:16.271Z</time>
      </trkpt>
      <trkpt lat="45.72964" lon="7.28415">
        <ele>589</ele>
        <time>2022-07-16T12:10:26.287Z</time>
      </trkpt>
      <trkpt lat="45.72945" lon="7.28349">
        <ele>589</ele>
        <time>2022-07-16T12:10:33.277Z</time>
      </trkpt>
      <trkpt lat="45.72927" lon="7.28304">
        <ele>588</ele>
        <time>2022-07-16T12:10:36.937Z</time>
      </trkpt>
      <trkpt lat="45.72851" lon="7.28175">
        <ele>587</ele>
        <time>2022-07-16T12:10:51.940Z</time>
      </trkpt>
      <trkpt lat="45.72629" lon="7.27818">
        <ele>596</ele>
        <time>2022-07-16T12:11:54.115Z</time>
      </trkpt>
      <trkpt lat="45.72466" lon="7.27548">
        <ele>599</ele>
        <time>2022-07-16T12:12:33.403Z</time>
      </trkpt>
      <trkpt lat="45.72446" lon="7.27508">
        <ele>600</ele>
        <time>2022-07-16T12:12:39.973Z</time>
      </trkpt>
      <trkpt lat="45.72434" lon="7.2748">
        <ele>600</ele>
        <time>2022-07-16T12:12:43.191Z</time>
      </trkpt>
      <trkpt lat="45.72422" lon="7.27441">
        <ele>601</ele>
        <time>2022-07-16T12:12:49.221Z</time>
      </trkpt>
      <trkpt lat="45.72415" lon="7.27401">
        <ele>602</ele>
        <time>2022-07-16T12:12:55.144Z</time>
      </trkpt>
      <trkpt lat="45.72401" lon="7.2721">
        <ele>602</ele>
        <time>2022-07-16T12:13:13.951Z</time>
      </trkpt>
      <trkpt lat="45.7239" lon="7.27129">
        <ele>600</ele>
        <time>2022-07-16T12:13:19.362Z</time>
      </trkpt>
      <trkpt lat="45.72377" lon="7.27085">
        <ele>598</ele>
        <time>2022-07-16T12:13:21.863Z</time>
      </trkpt>
      <trkpt lat="45.7236" lon="7.27039">
        <ele>598</ele>
        <time>2022-07-16T12:13:26.960Z</time>
      </trkpt>
      <trkpt lat="45.72336" lon="7.26994">
        <ele>598</ele>
        <time>2022-07-16T12:13:32.505Z</time>
      </trkpt>
      <trkpt lat="45.722" lon="7.26789">
        <ele>600</ele>
        <time>2022-07-16T12:14:03.033Z</time>
      </trkpt>
      <trkpt lat="45.72192" lon="7.26774">
        <ele>600</ele>
        <time>2022-07-16T12:14:04.881Z</time>
      </trkpt>
      <trkpt lat="45.72171" lon="7.26727">
        <ele>600</ele>
        <time>2022-07-16T12:14:10.346Z</time>
      </trkpt>
      <trkpt lat="45.72129" lon="7.26596">
        <ele>602</ele>
        <time>2022-07-16T12:14:27.605Z</time>
      </trkpt>
      <trkpt lat="45.72109" lon="7.26558">
        <ele>602</ele>
        <time>2022-07-16T12:14:32.266Z</time>
      </trkpt>
      <trkpt lat="45.72012" lon="7.26441">
        <ele>602</ele>
        <time>2022-07-16T12:14:50.054Z</time>
      </trkpt>
      <trkpt lat="45.71845" lon="7.26251">
        <ele>604</ele>
        <time>2022-07-16T12:15:22.783Z</time>
      </trkpt>
      <trkpt lat="45.71752" lon="7.26141">
        <ele>611</ele>
        <time>2022-07-16T12:15:54.011Z</time>
      </trkpt>
      <trkpt lat="45.71435" lon="7.25737">
        <ele>612</ele>
        <time>2022-07-16T12:16:54.848Z</time>
      </trkpt>
      <trkpt lat="45.7143" lon="7.25722">
        <ele>613</ele>
        <time>2022-07-16T12:16:58.579Z</time>
      </trkpt>
      <trkpt lat="45.71318" lon="7.2558">
        <ele>618</ele>
        <time>2022-07-16T12:17:28.821Z</time>
      </trkpt>
      <trkpt lat="45.71244" lon="7.25494">
        <ele>621</ele>
        <time>2022-07-16T12:17:47.606Z</time>
      </trkpt>
      <trkpt lat="45.71231" lon="7.25486">
        <ele>619</ele>
        <time>2022-07-16T12:17:48.706Z</time>
      </trkpt>
      <trkpt lat="45.71217" lon="7.25466">
        <ele>618</ele>
        <time>2022-07-16T12:17:50.309Z</time>
      </trkpt>
      <trkpt lat="45.71202" lon="7.25438">
        <ele>618</ele>
        <time>2022-07-16T12:17:53.765Z</time>
      </trkpt>
      <trkpt lat="45.71192" lon="7.25399">
        <ele>617</ele>
        <time>2022-07-16T12:17:56.497Z</time>
      </trkpt>
      <trkpt lat="45.71187" lon="7.25364">
        <ele>616</ele>
        <time>2022-07-16T12:17:58.720Z</time>
      </trkpt>
      <trkpt lat="45.71188" lon="7.25324">
        <ele>616</ele>
        <time>2022-07-16T12:18:02.641Z</time>
      </trkpt>
      <trkpt lat="45.71194" lon="7.25266">
        <ele>618</ele>
        <time>2022-07-16T12:18:12.608Z</time>
      </trkpt>
      <trkpt lat="45.71199" lon="7.2524">
        <ele>620</ele>
        <time>2022-07-16T12:18:19.919Z</time>
      </trkpt>
      <trkpt lat="45.71214" lon="7.25196">
        <ele>624</ele>
        <time>2022-07-16T12:18:34.867Z</time>
      </trkpt>
      <trkpt lat="45.71262" lon="7.25093">
        <ele>631</ele>
        <time>2022-07-16T12:19:01.472Z</time>
      </trkpt>
      <trkpt lat="45.71271" lon="7.25051">
        <ele>633</ele>
        <time>2022-07-16T12:19:09.828Z</time>
      </trkpt>
      <trkpt lat="45.71274" lon="7.24991">
        <ele>635</ele>
        <time>2022-07-16T12:19:19.972Z</time>
      </trkpt>
      <trkpt lat="45.71252" lon="7.24766">
        <ele>638</ele>
        <time>2022-07-16T12:19:46.888Z</time>
      </trkpt>
      <trkpt lat="45.71207" lon="7.24564">
        <ele>655</ele>
        <time>2022-07-16T12:20:50.014Z</time>
      </trkpt>
      <trkpt lat="45.71192" lon="7.24456">
        <ele>672</ele>
        <time>2022-07-16T12:21:31.617Z</time>
      </trkpt>
      <trkpt lat="45.71182" lon="7.24413">
        <ele>677</ele>
        <time>2022-07-16T12:21:48.740Z</time>
      </trkpt>
      <trkpt lat="45.71169" lon="7.24375">
        <ele>678</ele>
        <time>2022-07-16T12:21:54.747Z</time>
      </trkpt>
      <trkpt lat="45.7115" lon="7.24335">
        <ele>676</ele>
        <time>2022-07-16T12:21:57.295Z</time>
      </trkpt>
      <trkpt lat="45.71135" lon="7.24314">
        <ele>673</ele>
        <time>2022-07-16T12:21:58.925Z</time>
      </trkpt>
      <trkpt lat="45.71051" lon="7.24233">
        <ele>657</ele>
        <time>2022-07-16T12:22:06.793Z</time>
      </trkpt>
      <trkpt lat="45.71021" lon="7.24215">
        <ele>653</ele>
        <time>2022-07-16T12:22:09.320Z</time>
      </trkpt>
      <trkpt lat="45.70982" lon="7.24213">
        <ele>650</ele>
        <time>2022-07-16T12:22:12.352Z</time>
      </trkpt>
      <trkpt lat="45.70932" lon="7.24217">
        <ele>652</ele>
        <time>2022-07-16T12:22:23.429Z</time>
      </trkpt>
      <trkpt lat="45.70914" lon="7.24216">
        <ele>654</ele>
        <time>2022-07-16T12:22:30.791Z</time>
      </trkpt>
      <trkpt lat="45.70898" lon="7.24212">
        <ele>654</ele>
        <time>2022-07-16T12:22:33.070Z</time>
      </trkpt>
      <trkpt lat="45.70877" lon="7.24202">
        <ele>656</ele>
        <time>2022-07-16T12:22:40.450Z</time>
      </trkpt>
      <trkpt lat="45.70859" lon="7.2419">
        <ele>657</ele>
        <time>2022-07-16T12:22:45.332Z</time>
      </trkpt>
      <trkpt lat="45.70837" lon="7.24165">
        <ele>659</ele>
        <time>2022-07-16T12:22:53.333Z</time>
      </trkpt>
      <trkpt lat="45.70815" lon="7.2413">
        <ele>656</ele>
        <time>2022-07-16T12:22:55.888Z</time>
      </trkpt>
      <trkpt lat="45.70803" lon="7.24096">
        <ele>656</ele>
        <time>2022-07-16T12:22:59.619Z</time>
      </trkpt>
      <trkpt lat="45.70795" lon="7.24045">
        <ele>657</ele>
        <time>2022-07-16T12:23:06.455Z</time>
      </trkpt>
      <trkpt lat="45.70796" lon="7.23971">
        <ele>661</ele>
        <time>2022-07-16T12:23:21.905Z</time>
      </trkpt>
      <trkpt lat="45.70802" lon="7.23839">
        <ele>665</ele>
        <time>2022-07-16T12:23:43.381Z</time>
      </trkpt>
      <trkpt lat="45.70809" lon="7.23749">
        <ele>669</ele>
        <time>2022-07-16T12:24:00.367Z</time>
      </trkpt>
      <trkpt lat="45.70816" lon="7.2371">
        <ele>669</ele>
        <time>2022-07-16T12:24:04.312Z</time>
      </trkpt>
      <trkpt lat="45.7084" lon="7.23642">
        <ele>669</ele>
        <time>2022-07-16T12:24:11.775Z</time>
      </trkpt>
      <trkpt lat="45.70901" lon="7.23501">
        <ele>668</ele>
        <time>2022-07-16T12:24:26.493Z</time>
      </trkpt>
      <trkpt lat="45.70997" lon="7.23255">
        <ele>674</ele>
        <time>2022-07-16T12:25:04.794Z</time>
      </trkpt>
      <trkpt lat="45.71009" lon="7.23191">
        <ele>676</ele>
        <time>2022-07-16T12:25:15.539Z</time>
      </trkpt>
      <trkpt lat="45.71013" lon="7.23136">
        <ele>678</ele>
        <time>2022-07-16T12:25:25.123Z</time>
      </trkpt>
      <trkpt lat="45.7101" lon="7.23102">
        <ele>679</ele>
        <time>2022-07-16T12:25:30.562Z</time>
      </trkpt>
      <trkpt lat="45.7097" lon="7.2284">
        <ele>682</ele>
        <time>2022-07-16T12:26:01.349Z</time>
      </trkpt>
      <trkpt lat="45.70963" lon="7.22779">
        <ele>685</ele>
        <time>2022-07-16T12:26:13.488Z</time>
      </trkpt>
      <trkpt lat="45.70937" lon="7.22705">
        <ele>682</ele>
        <time>2022-07-16T12:26:18.126Z</time>
      </trkpt>
      <trkpt lat="45.70917" lon="7.22666">
        <ele>677</ele>
        <time>2022-07-16T12:26:20.751Z</time>
      </trkpt>
      <trkpt lat="45.70894" lon="7.22633">
        <ele>678</ele>
        <time>2022-07-16T12:26:27.106Z</time>
      </trkpt>
      <trkpt lat="45.7082" lon="7.22561">
        <ele>678</ele>
        <time>2022-07-16T12:26:39.656Z</time>
      </trkpt>
      <trkpt lat="45.70701" lon="7.22456">
        <ele>679</ele>
        <time>2022-07-16T12:27:00.638Z</time>
      </trkpt>
      <trkpt lat="45.70647" lon="7.22404">
        <ele>676</ele>
        <time>2022-07-16T12:27:06.125Z</time>
      </trkpt>
      <trkpt lat="45.70623" lon="7.22363">
        <ele>675</ele>
        <time>2022-07-16T12:27:09.937Z</time>
      </trkpt>
      <trkpt lat="45.70608" lon="7.22321">
        <ele>675</ele>
        <time>2022-07-16T12:27:14.558Z</time>
      </trkpt>
      <trkpt lat="45.70596" lon="7.22264">
        <ele>676</ele>
        <time>2022-07-16T12:27:22.038Z</time>
      </trkpt>
      <trkpt lat="45.70594" lon="7.22242">
        <ele>676</ele>
        <time>2022-07-16T12:27:24.211Z</time>
      </trkpt>
      <trkpt lat="45.70599" lon="7.21895">
        <ele>670</ele>
        <time>2022-07-16T12:27:49.494Z</time>
      </trkpt>
      <trkpt lat="45.70597" lon="7.21628">
        <ele>664</ele>
        <time>2022-07-16T12:28:07.464Z</time>
      </trkpt>
      <trkpt lat="45.70603" lon="7.21558">
        <ele>660</ele>
        <time>2022-07-16T12:28:11.290Z</time>
      </trkpt>
      <trkpt lat="45.70624" lon="7.2145">
        <ele>656</ele>
        <time>2022-07-16T12:28:17.608Z</time>
      </trkpt>
      <trkpt lat="45.70624" lon="7.21417">
        <ele>655</ele>
        <time>2022-07-16T12:28:19.600Z</time>
      </trkpt>
      <trkpt lat="45.70606" lon="7.2128">
        <ele>658</ele>
        <time>2022-07-16T12:28:38.626Z</time>
      </trkpt>
      <trkpt lat="45.70595" lon="7.21244">
        <ele>658</ele>
        <time>2022-07-16T12:28:42.476Z</time>
      </trkpt>
      <trkpt lat="45.70575" lon="7.21202">
        <ele>658</ele>
        <time>2022-07-16T12:28:47.456Z</time>
      </trkpt>
      <trkpt lat="45.70437" lon="7.20991">
        <ele>659</ele>
        <time>2022-07-16T12:29:17.121Z</time>
      </trkpt>
      <trkpt lat="45.70423" lon="7.20953">
        <ele>659</ele>
        <time>2022-07-16T12:29:21.330Z</time>
      </trkpt>
      <trkpt lat="45.70415" lon="7.20915">
        <ele>660</ele>
        <time>2022-07-16T12:29:27.137Z</time>
      </trkpt>
      <trkpt lat="45.70398" lon="7.20653">
        <ele>681</ele>
        <time>2022-07-16T12:30:45.006Z</time>
      </trkpt>
      <trkpt lat="45.70396" lon="7.20577">
        <ele>684</ele>
        <time>2022-07-16T12:30:58.611Z</time>
      </trkpt>
      <trkpt lat="45.70392" lon="7.20553">
        <ele>685</ele>
        <time>2022-07-16T12:31:03.073Z</time>
      </trkpt>
      <trkpt lat="45.70384" lon="7.20526">
        <ele>685</ele>
        <time>2022-07-16T12:31:05.946Z</time>
      </trkpt>
      <trkpt lat="45.7037" lon="7.205">
        <ele>682</ele>
        <time>2022-07-16T12:31:07.727Z</time>
      </trkpt>
      <trkpt lat="45.70306" lon="7.20441">
        <ele>668</ele>
        <time>2022-07-16T12:31:13.641Z</time>
      </trkpt>
      <trkpt lat="45.70287" lon="7.20416">
        <ele>669</ele>
        <time>2022-07-16T12:31:19.253Z</time>
      </trkpt>
      <trkpt lat="45.70275" lon="7.20396">
        <ele>669</ele>
        <time>2022-07-16T12:31:21.836Z</time>
      </trkpt>
      <trkpt lat="45.7026" lon="7.20354">
        <ele>669</ele>
        <time>2022-07-16T12:31:26.457Z</time>
      </trkpt>
      <trkpt lat="45.7001" lon="7.19393">
        <ele>676</ele>
        <time>2022-07-16T12:33:16.803Z</time>
      </trkpt>
      <trkpt lat="45.69972" lon="7.19256">
        <ele>676</ele>
        <time>2022-07-16T12:33:31.245Z</time>
      </trkpt>
      <trkpt lat="45.69964" lon="7.19195">
        <ele>676</ele>
        <time>2022-07-16T12:33:37.326Z</time>
      </trkpt>
      <trkpt lat="45.69965" lon="7.19167">
        <ele>675</ele>
        <time>2022-07-16T12:33:38.906Z</time>
      </trkpt>
      <trkpt lat="45.69968" lon="7.1913">
        <ele>675</ele>
        <time>2022-07-16T12:33:42.556Z</time>
      </trkpt>
      <trkpt lat="45.69989" lon="7.1906">
        <ele>676</ele>
        <time>2022-07-16T12:33:51.572Z</time>
      </trkpt>
      <trkpt lat="45.69999" lon="7.19037">
        <ele>676</ele>
        <time>2022-07-16T12:33:54.226Z</time>
      </trkpt>
      <trkpt lat="45.70185" lon="7.18707">
        <ele>697</ele>
        <time>2022-07-16T12:35:18.400Z</time>
      </trkpt>
      <trkpt lat="45.70244" lon="7.18598">
        <ele>710</ele>
        <time>2022-07-16T12:36:10.511Z</time>
      </trkpt>
      <trkpt lat="45.70288" lon="7.18523">
        <ele>715</ele>
        <time>2022-07-16T12:36:30.281Z</time>
      </trkpt>
      <trkpt lat="45.70298" lon="7.18502">
        <ele>715</ele>
        <time>2022-07-16T12:36:32.771Z</time>
      </trkpt>
      <trkpt lat="45.70309" lon="7.18465">
        <ele>715</ele>
        <time>2022-07-16T12:36:36.710Z</time>
      </trkpt>
      <trkpt lat="45.70316" lon="7.18414">
        <ele>717</ele>
        <time>2022-07-16T12:36:45.921Z</time>
      </trkpt>
      <trkpt lat="45.70309" lon="7.18267">
        <ele>731</ele>
        <time>2022-07-16T12:37:41.597Z</time>
      </trkpt>
      <trkpt lat="45.70312" lon="7.18215">
        <ele>734</ele>
        <time>2022-07-16T12:37:52.937Z</time>
      </trkpt>
      <trkpt lat="45.70317" lon="7.1819">
        <ele>734</ele>
        <time>2022-07-16T12:37:55.484Z</time>
      </trkpt>
      <trkpt lat="45.70329" lon="7.18156">
        <ele>732</ele>
        <time>2022-07-16T12:37:57.551Z</time>
      </trkpt>
      <trkpt lat="45.70355" lon="7.18116">
        <ele>733</ele>
        <time>2022-07-16T12:38:04.595Z</time>
      </trkpt>
      <trkpt lat="45.7039" lon="7.18089">
        <ele>730</ele>
        <time>2022-07-16T12:38:07.684Z</time>
      </trkpt>
      <trkpt lat="45.70442" lon="7.18043">
        <ele>729</ele>
        <time>2022-07-16T12:38:14.716Z</time>
      </trkpt>
      <trkpt lat="45.70484" lon="7.17995">
        <ele>729</ele>
        <time>2022-07-16T12:38:22.254Z</time>
      </trkpt>
      <trkpt lat="45.70567" lon="7.17868">
        <ele>731</ele>
        <time>2022-07-16T12:38:42.319Z</time>
      </trkpt>
      <trkpt lat="45.70579" lon="7.17833">
        <ele>735</ele>
        <time>2022-07-16T12:38:57.052Z</time>
      </trkpt>
      <trkpt lat="45.70587" lon="7.17792">
        <ele>741</ele>
        <time>2022-07-16T12:39:13.137Z</time>
      </trkpt>
      <trkpt lat="45.70588" lon="7.17757">
        <ele>747</ele>
        <time>2022-07-16T12:39:26.373Z</time>
      </trkpt>
      <trkpt lat="45.70585" lon="7.17724">
        <ele>751</ele>
        <time>2022-07-16T12:39:38.947Z</time>
      </trkpt>
      <trkpt lat="45.70571" lon="7.17624">
        <ele>757</ele>
        <time>2022-07-16T12:40:01.470Z</time>
      </trkpt>
      <trkpt lat="45.70557" lon="7.17549">
        <ele>753</ele>
        <time>2022-07-16T12:40:05.682Z</time>
      </trkpt>
      <trkpt lat="45.70536" lon="7.17449">
        <ele>745</ele>
        <time>2022-07-16T12:40:11.348Z</time>
      </trkpt>
      <trkpt lat="45.70469" lon="7.17215">
        <ele>754</ele>
        <time>2022-07-16T12:40:54.942Z</time>
      </trkpt>
      <trkpt lat="45.70449" lon="7.17164">
        <ele>759</ele>
        <time>2022-07-16T12:41:14.005Z</time>
      </trkpt>
      <trkpt lat="45.70438" lon="7.17143">
        <ele>759</ele>
        <time>2022-07-16T12:41:16.577Z</time>
      </trkpt>
      <trkpt lat="45.7042" lon="7.17118">
        <ele>761</ele>
        <time>2022-07-16T12:41:24.217Z</time>
      </trkpt>
      <trkpt lat="45.70391" lon="7.17085">
        <ele>767</ele>
        <time>2022-07-16T12:41:44.259Z</time>
      </trkpt>
      <trkpt lat="45.70357" lon="7.1703">
        <ele>769</ele>
        <time>2022-07-16T12:41:55.452Z</time>
      </trkpt>
      <trkpt lat="45.70345" lon="7.16991">
        <ele>761</ele>
        <time>2022-07-16T12:41:57.765Z</time>
      </trkpt>
      <trkpt lat="45.70334" lon="7.16942">
        <ele>758</ele>
        <time>2022-07-16T12:42:00.557Z</time>
      </trkpt>
      <trkpt lat="45.7033" lon="7.16873">
        <ele>755</ele>
        <time>2022-07-16T12:42:04.124Z</time>
      </trkpt>
      <trkpt lat="45.70332" lon="7.16848">
        <ele>754</ele>
        <time>2022-07-16T12:42:05.475Z</time>
      </trkpt>
      <trkpt lat="45.70387" lon="7.16544">
        <ele>752</ele>
        <time>2022-07-16T12:42:33.160Z</time>
      </trkpt>
      <trkpt lat="45.70389" lon="7.16488">
        <ele>752</ele>
        <time>2022-07-16T12:42:38.654Z</time>
      </trkpt>
      <trkpt lat="45.70386" lon="7.1647">
        <ele>752</ele>
        <time>2022-07-16T12:42:40.466Z</time>
      </trkpt>
      <trkpt lat="45.70375" lon="7.1643">
        <ele>752</ele>
        <time>2022-07-16T12:42:44.678Z</time>
      </trkpt>
      <trkpt lat="45.7036" lon="7.164">
        <ele>750</ele>
        <time>2022-07-16T12:42:46.680Z</time>
      </trkpt>
      <trkpt lat="45.70329" lon="7.16358">
        <ele>747</ele>
        <time>2022-07-16T12:42:49.996Z</time>
      </trkpt>
      <trkpt lat="45.70249" lon="7.16269">
        <ele>747</ele>
        <time>2022-07-16T12:43:04.207Z</time>
      </trkpt>
      <trkpt lat="45.70252" lon="7.16254">
        <ele>745</ele>
        <time>2022-07-16T12:43:05.053Z</time>
      </trkpt>
      <trkpt lat="45.70246" lon="7.16241">
        <ele>744</ele>
        <time>2022-07-16T12:43:05.899Z</time>
      </trkpt>
      <trkpt lat="45.7024" lon="7.16238">
        <ele>744</ele>
        <time>2022-07-16T12:43:06.790Z</time>
      </trkpt>
      <trkpt lat="45.70231" lon="7.16241">
        <ele>746</ele>
        <time>2022-07-16T12:43:11.790Z</time>
      </trkpt>
      <trkpt lat="45.70209" lon="7.16185">
        <ele>742</ele>
        <time>2022-07-16T12:43:15.276Z</time>
      </trkpt>
      <trkpt lat="45.70199" lon="7.16149">
        <ele>740</ele>
        <time>2022-07-16T12:43:17.379Z</time>
      </trkpt>
      <trkpt lat="45.70191" lon="7.16096">
        <ele>737</ele>
        <time>2022-07-16T12:43:20.321Z</time>
      </trkpt>
      <trkpt lat="45.70191" lon="7.16062">
        <ele>732</ele>
        <time>2022-07-16T12:43:22.166Z</time>
      </trkpt>
      <trkpt lat="45.7023" lon="7.15717">
        <ele>736</ele>
        <time>2022-07-16T12:44:02.452Z</time>
      </trkpt>
      <trkpt lat="45.70244" lon="7.15624">
        <ele>740</ele>
        <time>2022-07-16T12:44:19.916Z</time>
      </trkpt>
      <trkpt lat="45.70253" lon="7.15593">
        <ele>741</ele>
        <time>2022-07-16T12:44:25.314Z</time>
      </trkpt>
      <trkpt lat="45.70317" lon="7.15436">
        <ele>742</ele>
        <time>2022-07-16T12:44:44.508Z</time>
      </trkpt>
      <trkpt lat="45.70346" lon="7.15353">
        <ele>755</ele>
        <time>2022-07-16T12:45:19.577Z</time>
      </trkpt>
      <trkpt lat="45.70414" lon="7.14943">
        <ele>782</ele>
        <time>2022-07-16T12:46:58.939Z</time>
      </trkpt>
      <trkpt lat="45.70435" lon="7.14847">
        <ele>772</ele>
        <time>2022-07-16T12:47:04.397Z</time>
      </trkpt>
      <trkpt lat="45.70515" lon="7.14576">
        <ele>762</ele>
        <time>2022-07-16T12:47:21.332Z</time>
      </trkpt>
      <trkpt lat="45.70538" lon="7.14481">
        <ele>765</ele>
        <time>2022-07-16T12:47:37.514Z</time>
      </trkpt>
      <trkpt lat="45.70615" lon="7.14065">
        <ele>768</ele>
        <time>2022-07-16T12:48:23.916Z</time>
      </trkpt>
      <trkpt lat="45.70636" lon="7.1397">
        <ele>771</ele>
        <time>2022-07-16T12:48:40.048Z</time>
      </trkpt>
      <trkpt lat="45.7066" lon="7.13878">
        <ele>775</ele>
        <time>2022-07-16T12:48:57.840Z</time>
      </trkpt>
      <trkpt lat="45.70663" lon="7.13857">
        <ele>778</ele>
        <time>2022-07-16T12:49:05.939Z</time>
      </trkpt>
      <trkpt lat="45.70665" lon="7.138">
        <ele>788</ele>
        <time>2022-07-16T12:49:27.503Z</time>
      </trkpt>
      <trkpt lat="45.70661" lon="7.13702">
        <ele>794</ele>
        <time>2022-07-16T12:49:49.800Z</time>
      </trkpt>
      <trkpt lat="45.70639" lon="7.13595">
        <ele>792</ele>
        <time>2022-07-16T12:49:57.843Z</time>
      </trkpt>
      <trkpt lat="45.70642" lon="7.13595">
        <ele>791</ele>
        <time>2022-07-16T12:49:58.076Z</time>
      </trkpt>
      <trkpt lat="45.70648" lon="7.13589">
        <ele>788</ele>
        <time>2022-07-16T12:49:58.644Z</time>
      </trkpt>
      <trkpt lat="45.70651" lon="7.13581">
        <ele>786</ele>
        <time>2022-07-16T12:49:59.137Z</time>
      </trkpt>
      <trkpt lat="45.70651" lon="7.13572">
        <ele>786</ele>
        <time>2022-07-16T12:50:00.019Z</time>
      </trkpt>
      <trkpt lat="45.70648" lon="7.13564">
        <ele>788</ele>
        <time>2022-07-16T12:50:03.450Z</time>
      </trkpt>
      <trkpt lat="45.70642" lon="7.13558">
        <ele>790</ele>
        <time>2022-07-16T12:50:07.409Z</time>
      </trkpt>
      <trkpt lat="45.70633" lon="7.13558">
        <ele>793</ele>
        <time>2022-07-16T12:50:12.279Z</time>
      </trkpt>
      <trkpt lat="45.70626" lon="7.13567">
        <ele>796</ele>
        <time>2022-07-16T12:50:17.369Z</time>
      </trkpt>
      <trkpt lat="45.70609" lon="7.13552">
        <ele>801</ele>
        <time>2022-07-16T12:50:28.173Z</time>
      </trkpt>
      <trkpt lat="45.70596" lon="7.13531">
        <ele>801</ele>
        <time>2022-07-16T12:50:30.922Z</time>
      </trkpt>
      <trkpt lat="45.70571" lon="7.13444">
        <ele>800</ele>
        <time>2022-07-16T12:50:38.587Z</time>
      </trkpt>
      <trkpt lat="45.70549" lon="7.13163">
        <ele>814</ele>
        <time>2022-07-16T12:51:34.706Z</time>
      </trkpt>
      <trkpt lat="45.70547" lon="7.13088">
        <ele>809</ele>
        <time>2022-07-16T12:51:38.778Z</time>
      </trkpt>
      <trkpt lat="45.7055" lon="7.13041">
        <ele>808</ele>
        <time>2022-07-16T12:51:42.015Z</time>
      </trkpt>
      <trkpt lat="45.70564" lon="7.12971">
        <ele>804</ele>
        <time>2022-07-16T12:51:45.966Z</time>
      </trkpt>
      <trkpt lat="45.70678" lon="7.12561">
        <ele>798</ele>
        <time>2022-07-16T12:52:20.118Z</time>
      </trkpt>
      <trkpt lat="45.70726" lon="7.12444">
        <ele>799</ele>
        <time>2022-07-16T12:52:34.833Z</time>
      </trkpt>
      <trkpt lat="45.70748" lon="7.12408">
        <ele>802</ele>
        <time>2022-07-16T12:52:45.918Z</time>
      </trkpt>
      <trkpt lat="45.70781" lon="7.12361">
        <ele>813</ele>
        <time>2022-07-16T12:53:11.101Z</time>
      </trkpt>
      <trkpt lat="45.70887" lon="7.12244">
        <ele>852</ele>
        <time>2022-07-16T12:54:23.513Z</time>
      </trkpt>
      <trkpt lat="45.71049" lon="7.11995">
        <ele>818</ele>
        <time>2022-07-16T12:54:41.977Z</time>
      </trkpt>
      <trkpt lat="45.71066" lon="7.11956">
        <ele>813</ele>
        <time>2022-07-16T12:54:44.471Z</time>
      </trkpt>
      <trkpt lat="45.7114" lon="7.11747">
        <ele>812</ele>
        <time>2022-07-16T12:55:05.459Z</time>
      </trkpt>
      <trkpt lat="45.71172" lon="7.1168">
        <ele>805</ele>
        <time>2022-07-16T12:55:09.863Z</time>
      </trkpt>
      <trkpt lat="45.71207" lon="7.11624">
        <ele>804</ele>
        <time>2022-07-16T12:55:15.707Z</time>
      </trkpt>
      <trkpt lat="45.71233" lon="7.11577">
        <ele>801</ele>
        <time>2022-07-16T12:55:18.960Z</time>
      </trkpt>
      <trkpt lat="45.71259" lon="7.1152">
        <ele>798</ele>
        <time>2022-07-16T12:55:22.438Z</time>
      </trkpt>
      <trkpt lat="45.71301" lon="7.11416">
        <ele>801</ele>
        <time>2022-07-16T12:55:39.938Z</time>
      </trkpt>
      <trkpt lat="45.71315" lon="7.11388">
        <ele>802</ele>
        <time>2022-07-16T12:55:45.387Z</time>
      </trkpt>
      <trkpt lat="45.71357" lon="7.11324">
        <ele>802</ele>
        <time>2022-07-16T12:55:53.989Z</time>
      </trkpt>
      <trkpt lat="45.71494" lon="7.1114">
        <ele>802</ele>
        <time>2022-07-16T12:56:20.336Z</time>
      </trkpt>
      <trkpt lat="45.71509" lon="7.11124">
        <ele>801</ele>
        <time>2022-07-16T12:56:21.815Z</time>
      </trkpt>
      <trkpt lat="45.71547" lon="7.11106">
        <ele>796</ele>
        <time>2022-07-16T12:56:24.924Z</time>
      </trkpt>
      <trkpt lat="45.71567" lon="7.11105">
        <ele>791</ele>
        <time>2022-07-16T12:56:26.479Z</time>
      </trkpt>
      <trkpt lat="45.71589" lon="7.11108">
        <ele>787</ele>
        <time>2022-07-16T12:56:28.196Z</time>
      </trkpt>
      <trkpt lat="45.71611" lon="7.11105">
        <ele>789</ele>
        <time>2022-07-16T12:56:35.575Z</time>
      </trkpt>
      <trkpt lat="45.71618" lon="7.11102">
        <ele>790</ele>
        <time>2022-07-16T12:56:39.528Z</time>
      </trkpt>
      <trkpt lat="45.71651" lon="7.11076">
        <ele>790</ele>
        <time>2022-07-16T12:56:44.812Z</time>
      </trkpt>
      <trkpt lat="45.71699" lon="7.11013">
        <ele>793</ele>
        <time>2022-07-16T12:57:00.381Z</time>
      </trkpt>
      <trkpt lat="45.71721" lon="7.10977">
        <ele>793</ele>
        <time>2022-07-16T12:57:05.067Z</time>
      </trkpt>
      <trkpt lat="45.71741" lon="7.10935">
        <ele>791</ele>
        <time>2022-07-16T12:57:07.807Z</time>
      </trkpt>
      <trkpt lat="45.71748" lon="7.10915">
        <ele>788</ele>
        <time>2022-07-16T12:57:09.021Z</time>
      </trkpt>
      <trkpt lat="45.71777" lon="7.10801">
        <ele>800</ele>
        <time>2022-07-16T12:57:54.856Z</time>
      </trkpt>
      <trkpt lat="45.71786" lon="7.10774">
        <ele>798</ele>
        <time>2022-07-16T12:57:56.479Z</time>
      </trkpt>
      <trkpt lat="45.71808" lon="7.10723">
        <ele>796</ele>
        <time>2022-07-16T12:57:59.956Z</time>
      </trkpt>
      <trkpt lat="45.72015" lon="7.10341">
        <ele>796</ele>
        <time>2022-07-16T12:58:47.314Z</time>
      </trkpt>
      <trkpt lat="45.72047" lon="7.10287">
        <ele>799</ele>
        <time>2022-07-16T12:59:00.355Z</time>
      </trkpt>
      <trkpt lat="45.72122" lon="7.1019">
        <ele>801</ele>
        <time>2022-07-16T12:59:17.669Z</time>
      </trkpt>
      <trkpt lat="45.72173" lon="7.10107">
        <ele>800</ele>
        <time>2022-07-16T12:59:26.936Z</time>
      </trkpt>
      <trkpt lat="45.72388" lon="7.09742">
        <ele>799</ele>
        <time>2022-07-16T13:00:11.649Z</time>
      </trkpt>
      <trkpt lat="45.72612" lon="7.09368">
        <ele>819</ele>
        <time>2022-07-16T13:01:40.781Z</time>
      </trkpt>
      <trkpt lat="45.72687" lon="7.09225">
        <ele>818</ele>
        <time>2022-07-16T13:01:56.782Z</time>
      </trkpt>
      <trkpt lat="45.72789" lon="7.0904">
        <ele>823</ele>
        <time>2022-07-16T13:02:28.769Z</time>
      </trkpt>
      <trkpt lat="45.728" lon="7.09023">
        <ele>823</ele>
        <time>2022-07-16T13:02:31.039Z</time>
      </trkpt>
      <trkpt lat="45.72812" lon="7.0901">
        <ele>823</ele>
        <time>2022-07-16T13:02:33.149Z</time>
      </trkpt>
      <trkpt lat="45.72853" lon="7.08972">
        <ele>825</ele>
        <time>2022-07-16T13:02:44.112Z</time>
      </trkpt>
      <trkpt lat="45.72882" lon="7.08928">
        <ele>822</ele>
        <time>2022-07-16T13:02:47.394Z</time>
      </trkpt>
      <trkpt lat="45.72892" lon="7.08903">
        <ele>821</ele>
        <time>2022-07-16T13:02:49.036Z</time>
      </trkpt>
      <trkpt lat="45.72899" lon="7.08877">
        <ele>821</ele>
        <time>2022-07-16T13:02:51.765Z</time>
      </trkpt>
      <trkpt lat="45.72923" lon="7.08749">
        <ele>819</ele>
        <time>2022-07-16T13:03:01.764Z</time>
      </trkpt>
      <trkpt lat="45.72935" lon="7.08706">
        <ele>820</ele>
        <time>2022-07-16T13:03:08.092Z</time>
      </trkpt>
      <trkpt lat="45.72942" lon="7.08688">
        <ele>821</ele>
        <time>2022-07-16T13:03:12.137Z</time>
      </trkpt>
      <trkpt lat="45.72984" lon="7.08606">
        <ele>824</ele>
        <time>2022-07-16T13:03:28.385Z</time>
      </trkpt>
      <trkpt lat="45.72988" lon="7.08604">
        <ele>825</ele>
        <time>2022-07-16T13:03:30.677Z</time>
      </trkpt>
      <trkpt lat="45.73004" lon="7.08573">
        <ele>825</ele>
        <time>2022-07-16T13:03:34.453Z</time>
      </trkpt>
      <trkpt lat="45.73036" lon="7.08504">
        <ele>827</ele>
        <time>2022-07-16T13:03:46.326Z</time>
      </trkpt>
      <trkpt lat="45.73059" lon="7.08436">
        <ele>831</ele>
        <time>2022-07-16T13:04:01.899Z</time>
      </trkpt>
      <trkpt lat="45.73087" lon="7.08203">
        <ele>837</ele>
        <time>2022-07-16T13:04:36.608Z</time>
      </trkpt>
      <trkpt lat="45.73091" lon="7.08143">
        <ele>836</ele>
        <time>2022-07-16T13:04:41.046Z</time>
      </trkpt>
      <trkpt lat="45.73101" lon="7.08094">
        <ele>838</ele>
        <time>2022-07-16T13:04:50.152Z</time>
      </trkpt>
      <trkpt lat="45.73123" lon="7.08009">
        <ele>845</ele>
        <time>2022-07-16T13:05:15.900Z</time>
      </trkpt>
      <trkpt lat="45.73137" lon="7.07926">
        <ele>848</ele>
        <time>2022-07-16T13:05:30.551Z</time>
      </trkpt>
      <trkpt lat="45.7314" lon="7.07868">
        <ele>847</ele>
        <time>2022-07-16T13:05:34.792Z</time>
      </trkpt>
      <trkpt lat="45.7314" lon="7.07758">
        <ele>847</ele>
        <time>2022-07-16T13:05:45.563Z</time>
      </trkpt>
      <trkpt lat="45.73143" lon="7.07728">
        <ele>847</ele>
        <time>2022-07-16T13:05:48.530Z</time>
      </trkpt>
      <trkpt lat="45.73151" lon="7.07695">
        <ele>846</ele>
        <time>2022-07-16T13:05:50.685Z</time>
      </trkpt>
      <trkpt lat="45.7316" lon="7.07672">
        <ele>844</ele>
        <time>2022-07-16T13:05:52.115Z</time>
      </trkpt>
      <trkpt lat="45.73172" lon="7.0765">
        <ele>845</ele>
        <time>2022-07-16T13:05:56.936Z</time>
      </trkpt>
      <trkpt lat="45.73304" lon="7.07483">
        <ele>854</ele>
        <time>2022-07-16T13:06:40.446Z</time>
      </trkpt>
      <trkpt lat="45.73333" lon="7.0745">
        <ele>849</ele>
        <time>2022-07-16T13:06:43.324Z</time>
      </trkpt>
      <trkpt lat="45.73449" lon="7.07288">
        <ele>855</ele>
        <time>2022-07-16T13:07:17.715Z</time>
      </trkpt>
      <trkpt lat="45.73481" lon="7.07253">
        <ele>856</ele>
        <time>2022-07-16T13:07:25.026Z</time>
      </trkpt>
      <trkpt lat="45.73661" lon="7.07102">
        <ele>860</ele>
        <time>2022-07-16T13:08:00.520Z</time>
      </trkpt>
      <trkpt lat="45.73745" lon="7.07017">
        <ele>864</ele>
        <time>2022-07-16T13:08:22.930Z</time>
      </trkpt>
      <trkpt lat="45.73805" lon="7.06952">
        <ele>873</ele>
        <time>2022-07-16T13:08:56.867Z</time>
      </trkpt>
      <trkpt lat="45.7386" lon="7.06899">
        <ele>872</ele>
        <time>2022-07-16T13:09:04.613Z</time>
      </trkpt>
      <trkpt lat="45.73895" lon="7.06879">
        <ele>874</ele>
        <time>2022-07-16T13:09:14.046Z</time>
      </trkpt>
      <trkpt lat="45.73999" lon="7.06848">
        <ele>875</ele>
        <time>2022-07-16T13:09:30.353Z</time>
      </trkpt>
      <trkpt lat="45.74016" lon="7.06841">
        <ele>876</ele>
        <time>2022-07-16T13:09:34.886Z</time>
      </trkpt>
      <trkpt lat="45.74033" lon="7.0683">
        <ele>877</ele>
        <time>2022-07-16T13:09:39.572Z</time>
      </trkpt>
      <trkpt lat="45.74051" lon="7.06812">
        <ele>880</ele>
        <time>2022-07-16T13:09:51.448Z</time>
      </trkpt>
      <trkpt lat="45.74076" lon="7.06774">
        <ele>880</ele>
        <time>2022-07-16T13:09:56.561Z</time>
      </trkpt>
      <trkpt lat="45.74088" lon="7.06744">
        <ele>879</ele>
        <time>2022-07-16T13:09:58.685Z</time>
      </trkpt>
      <trkpt lat="45.74094" lon="7.06722">
        <ele>881</ele>
        <time>2022-07-16T13:10:06.276Z</time>
      </trkpt>
      <trkpt lat="45.74107" lon="7.06633">
        <ele>883</ele>
        <time>2022-07-16T13:10:18.790Z</time>
      </trkpt>
      <trkpt lat="45.74124" lon="7.06572">
        <ele>885</ele>
        <time>2022-07-16T13:10:29.501Z</time>
      </trkpt>
      <trkpt lat="45.7419" lon="7.06449">
        <ele>887</ele>
        <time>2022-07-16T13:10:47.783Z</time>
      </trkpt>
      <trkpt lat="45.74204" lon="7.06404">
        <ele>886</ele>
        <time>2022-07-16T13:10:51.205Z</time>
      </trkpt>
      <trkpt lat="45.7422" lon="7.06319">
        <ele>890</ele>
        <time>2022-07-16T13:11:07.931Z</time>
      </trkpt>
      <trkpt lat="45.74227" lon="7.06299">
        <ele>890</ele>
        <time>2022-07-16T13:11:10.121Z</time>
      </trkpt>
      <trkpt lat="45.74243" lon="7.0626">
        <ele>891</ele>
        <time>2022-07-16T13:11:16.360Z</time>
      </trkpt>
      <trkpt lat="45.74259" lon="7.06234">
        <ele>891</ele>
        <time>2022-07-16T13:11:19.753Z</time>
      </trkpt>
      <trkpt lat="45.74272" lon="7.06219">
        <ele>892</ele>
        <time>2022-07-16T13:11:24.132Z</time>
      </trkpt>
      <trkpt lat="45.74302" lon="7.06195">
        <ele>892</ele>
        <time>2022-07-16T13:11:28.951Z</time>
      </trkpt>
      <trkpt lat="45.74322" lon="7.06186">
        <ele>892</ele>
        <time>2022-07-16T13:11:31.892Z</time>
      </trkpt>
      <trkpt lat="45.7438" lon="7.06168">
        <ele>893</ele>
        <time>2022-07-16T13:11:41.736Z</time>
      </trkpt>
      <trkpt lat="45.74384" lon="7.06171">
        <ele>893</ele>
        <time>2022-07-16T13:11:42.369Z</time>
      </trkpt>
      <trkpt lat="45.74449" lon="7.0615">
        <ele>893</ele>
        <time>2022-07-16T13:11:51.716Z</time>
      </trkpt>
      <trkpt lat="45.74452" lon="7.06156">
        <ele>893</ele>
        <time>2022-07-16T13:11:52.439Z</time>
      </trkpt>
      <trkpt lat="45.74459" lon="7.06157">
        <ele>893</ele>
        <time>2022-07-16T13:11:53.426Z</time>
      </trkpt>
      <trkpt lat="45.74465" lon="7.06148">
        <ele>893</ele>
        <time>2022-07-16T13:11:54.644Z</time>
      </trkpt>
      <trkpt lat="45.74482" lon="7.06145">
        <ele>893</ele>
        <time>2022-07-16T13:11:57.047Z</time>
      </trkpt>
      <trkpt lat="45.74525" lon="7.06127">
        <ele>894</ele>
        <time>2022-07-16T13:12:04.946Z</time>
      </trkpt>
      <trkpt lat="45.74559" lon="7.06102">
        <ele>895</ele>
        <time>2022-07-16T13:12:11.996Z</time>
      </trkpt>
      <trkpt lat="45.74578" lon="7.06081">
        <ele>895</ele>
        <time>2022-07-16T13:12:15.362Z</time>
      </trkpt>
      <trkpt lat="45.74606" lon="7.06039">
        <ele>896</ele>
        <time>2022-07-16T13:12:22.708Z</time>
      </trkpt>
      <trkpt lat="45.74619" lon="7.06017">
        <ele>896</ele>
        <time>2022-07-16T13:12:25.530Z</time>
      </trkpt>
      <trkpt lat="45.7462" lon="7.06011">
        <ele>896</ele>
        <time>2022-07-16T13:12:26.134Z</time>
      </trkpt>
      <trkpt lat="45.74705" lon="7.05884">
        <ele>895</ele>
        <time>2022-07-16T13:12:41.842Z</time>
      </trkpt>
      <trkpt lat="45.7472" lon="7.05858">
        <ele>895</ele>
        <time>2022-07-16T13:12:45.144Z</time>
      </trkpt>
      <trkpt lat="45.74751" lon="7.05791">
        <ele>894</ele>
        <time>2022-07-16T13:12:51.484Z</time>
      </trkpt>
      <trkpt lat="45.74964" lon="7.05308">
        <ele>898</ele>
        <time>2022-07-16T13:13:53.073Z</time>
      </trkpt>
      <trkpt lat="45.7497" lon="7.05303">
        <ele>898</ele>
        <time>2022-07-16T13:13:54.046Z</time>
      </trkpt>
      <trkpt lat="45.75054" lon="7.0512">
        <ele>902</ele>
        <time>2022-07-16T13:14:22.247Z</time>
      </trkpt>
      <trkpt lat="45.75166" lon="7.04855">
        <ele>909</ele>
        <time>2022-07-16T13:15:05.359Z</time>
      </trkpt>
      <trkpt lat="45.75169" lon="7.04842">
        <ele>909</ele>
        <time>2022-07-16T13:15:06.700Z</time>
      </trkpt>
      <trkpt lat="45.75315" lon="7.04508">
        <ele>915</ele>
        <time>2022-07-16T13:15:54.911Z</time>
      </trkpt>
      <trkpt lat="45.75357" lon="7.04417">
        <ele>916</ele>
        <time>2022-07-16T13:16:07.051Z</time>
      </trkpt>
      <trkpt lat="45.75367" lon="7.04418">
        <ele>917</ele>
        <time>2022-07-16T13:16:10.699Z</time>
      </trkpt>
      <trkpt lat="45.75374" lon="7.04413">
        <ele>917</ele>
        <time>2022-07-16T13:16:11.796Z</time>
      </trkpt>
      <trkpt lat="45.75379" lon="7.04404">
        <ele>917</ele>
        <time>2022-07-16T13:16:12.922Z</time>
      </trkpt>
      <trkpt lat="45.75381" lon="7.04394">
        <ele>917</ele>
        <time>2022-07-16T13:16:13.941Z</time>
      </trkpt>
      <trkpt lat="45.7538" lon="7.04382">
        <ele>917</ele>
        <time>2022-07-16T13:16:15.124Z</time>
      </trkpt>
      <trkpt lat="45.75375" lon="7.04372">
        <ele>916</ele>
        <time>2022-07-16T13:16:15.790Z</time>
      </trkpt>
      <trkpt lat="45.75383" lon="7.04358">
        <ele>917</ele>
        <time>2022-07-16T13:16:19.620Z</time>
      </trkpt>
      <trkpt lat="45.75612" lon="7.03836">
        <ele>923</ele>
        <time>2022-07-16T13:17:28.809Z</time>
      </trkpt>
      <trkpt lat="45.75787" lon="7.03632">
        <ele>925</ele>
        <time>2022-07-16T13:18:03.248Z</time>
      </trkpt>
      <trkpt lat="45.75817" lon="7.03586">
        <ele>924</ele>
        <time>2022-07-16T13:18:07.935Z</time>
      </trkpt>
      <trkpt lat="45.75845" lon="7.03525">
        <ele>926</ele>
        <time>2022-07-16T13:18:19.094Z</time>
      </trkpt>
      <trkpt lat="45.75864" lon="7.03461">
        <ele>928</ele>
        <time>2022-07-16T13:18:30.029Z</time>
      </trkpt>
      <trkpt lat="45.75953" lon="7.03082">
        <ele>930</ele>
        <time>2022-07-16T13:19:11.916Z</time>
      </trkpt>
      <trkpt lat="45.75961" lon="7.03083">
        <ele>931</ele>
        <time>2022-07-16T13:19:15.765Z</time>
      </trkpt>
      <trkpt lat="45.75965" lon="7.03081">
        <ele>931</ele>
        <time>2022-07-16T13:19:16.360Z</time>
      </trkpt>
      <trkpt lat="45.75971" lon="7.03072">
        <ele>931</ele>
        <time>2022-07-16T13:19:17.578Z</time>
      </trkpt>
      <trkpt lat="45.75973" lon="7.03059">
        <ele>931</ele>
        <time>2022-07-16T13:19:18.881Z</time>
      </trkpt>
      <trkpt lat="45.7597" lon="7.03048">
        <ele>931</ele>
        <time>2022-07-16T13:19:20.037Z</time>
      </trkpt>
      <trkpt lat="45.75967" lon="7.03045">
        <ele>931</ele>
        <time>2022-07-16T13:19:20.550Z</time>
      </trkpt>
      <trkpt lat="45.75987" lon="7.03004">
        <ele>932</ele>
        <time>2022-07-16T13:19:27.188Z</time>
      </trkpt>
      <trkpt lat="45.76018" lon="7.02928">
        <ele>933</ele>
        <time>2022-07-16T13:19:37.314Z</time>
      </trkpt>
      <trkpt lat="45.7603" lon="7.02886">
        <ele>935</ele>
        <time>2022-07-16T13:19:45.813Z</time>
      </trkpt>
      <trkpt lat="45.76033" lon="7.02867">
        <ele>936</ele>
        <time>2022-07-16T13:19:49.756Z</time>
      </trkpt>
      <trkpt lat="45.76038" lon="7.02809">
        <ele>937</ele>
        <time>2022-07-16T13:19:57.132Z</time>
      </trkpt>
      <trkpt lat="45.76036" lon="7.02769">
        <ele>938</ele>
        <time>2022-07-16T13:20:02.967Z</time>
      </trkpt>
      <trkpt lat="45.7602" lon="7.02617">
        <ele>939</ele>
        <time>2022-07-16T13:20:19.416Z</time>
      </trkpt>
      <trkpt lat="45.76032" lon="7.02267">
        <ele>947</ele>
        <time>2022-07-16T13:21:08.389Z</time>
      </trkpt>
      <trkpt lat="45.76039" lon="7.02218">
        <ele>948</ele>
        <time>2022-07-16T13:21:15.027Z</time>
      </trkpt>
      <trkpt lat="45.76066" lon="7.02085">
        <ele>951</ele>
        <time>2022-07-16T13:21:33.969Z</time>
      </trkpt>
      <trkpt lat="45.76067" lon="7.02061">
        <ele>952</ele>
        <time>2022-07-16T13:21:38.360Z</time>
      </trkpt>
      <trkpt lat="45.76066" lon="7.01988">
        <ele>956</ele>
        <time>2022-07-16T13:21:53.726Z</time>
      </trkpt>
      <trkpt lat="45.76058" lon="7.0192">
        <ele>960</ele>
        <time>2022-07-16T13:22:08.800Z</time>
      </trkpt>
      <trkpt lat="45.76046" lon="7.01861">
        <ele>960</ele>
        <time>2022-07-16T13:22:14.814Z</time>
      </trkpt>
      <trkpt lat="45.76034" lon="7.0177">
        <ele>961</ele>
        <time>2022-07-16T13:22:25.375Z</time>
      </trkpt>
      <trkpt lat="45.76034" lon="7.01738">
        <ele>962</ele>
        <time>2022-07-16T13:22:30.670Z</time>
      </trkpt>
      <trkpt lat="45.76052" lon="7.01611">
        <ele>965</ele>
        <time>2022-07-16T13:22:48.891Z</time>
      </trkpt>
      <trkpt lat="45.76092" lon="7.01391">
        <ele>973</ele>
        <time>2022-07-16T13:23:27.907Z</time>
      </trkpt>
      <trkpt lat="45.7612" lon="7.01291">
        <ele>976</ele>
        <time>2022-07-16T13:23:44.528Z</time>
      </trkpt>
      <trkpt lat="45.76138" lon="7.01199">
        <ele>976</ele>
        <time>2022-07-16T13:23:53.878Z</time>
      </trkpt>
      <trkpt lat="45.76148" lon="7.01106">
        <ele>976</ele>
        <time>2022-07-16T13:24:03.087Z</time>
      </trkpt>
      <trkpt lat="45.76155" lon="7.00979">
        <ele>969</ele>
        <time>2022-07-16T13:24:09.992Z</time>
      </trkpt>
      <trkpt lat="45.76153" lon="7.00941">
        <ele>966</ele>
        <time>2022-07-16T13:24:12.058Z</time>
      </trkpt>
      <trkpt lat="45.76141" lon="7.00864">
        <ele>966</ele>
        <time>2022-07-16T13:24:19.779Z</time>
      </trkpt>
      <trkpt lat="45.76143" lon="7.00775">
        <ele>973</ele>
        <time>2022-07-16T13:24:45.636Z</time>
      </trkpt>
      <trkpt lat="45.7616" lon="7.00684">
        <ele>974</ele>
        <time>2022-07-16T13:24:56.348Z</time>
      </trkpt>
      <trkpt lat="45.76185" lon="7.00603">
        <ele>976</ele>
        <time>2022-07-16T13:25:08.669Z</time>
      </trkpt>
      <trkpt lat="45.76197" lon="7.00578">
        <ele>977</ele>
        <time>2022-07-16T13:25:13.769Z</time>
      </trkpt>
      <trkpt lat="45.76218" lon="7.00518">
        <ele>979</ele>
        <time>2022-07-16T13:25:24.559Z</time>
      </trkpt>
      <trkpt lat="45.76226" lon="7.00491">
        <ele>980</ele>
        <time>2022-07-16T13:25:29.542Z</time>
      </trkpt>
      <trkpt lat="45.76243" lon="7.0041">
        <ele>983</ele>
        <time>2022-07-16T13:25:44.096Z</time>
      </trkpt>
      <trkpt lat="45.76253" lon="7.0031">
        <ele>989</ele>
        <time>2022-07-16T13:26:06.552Z</time>
      </trkpt>
      <trkpt lat="45.76243" lon="7.00193">
        <ele>999</ele>
        <time>2022-07-16T13:26:44.549Z</time>
      </trkpt>
      <trkpt lat="45.76246" lon="7.00166">
        <ele>999</ele>
        <time>2022-07-16T13:26:47.225Z</time>
      </trkpt>
      <trkpt lat="45.76253" lon="7.00133">
        <ele>1004</ele>
        <time>2022-07-16T13:27:00.244Z</time>
      </trkpt>
      <trkpt lat="45.76319" lon="6.99969">
        <ele>1015</ele>
        <time>2022-07-16T13:27:41.676Z</time>
      </trkpt>
      <trkpt lat="45.76343" lon="6.99901">
        <ele>1018</ele>
        <time>2022-07-16T13:27:55.290Z</time>
      </trkpt>
      <trkpt lat="45.76359" lon="6.99842">
        <ele>1016</ele>
        <time>2022-07-16T13:27:59.041Z</time>
      </trkpt>
      <trkpt lat="45.76362" lon="6.99822">
        <ele>1015</ele>
        <time>2022-07-16T13:28:00.150Z</time>
      </trkpt>
      <trkpt lat="45.7636" lon="6.99762">
        <ele>1015</ele>
        <time>2022-07-16T13:28:06.028Z</time>
      </trkpt>
      <trkpt lat="45.76348" lon="6.99701">
        <ele>1011</ele>
        <time>2022-07-16T13:28:09.463Z</time>
      </trkpt>
      <trkpt lat="45.7634" lon="6.99673">
        <ele>1008</ele>
        <time>2022-07-16T13:28:11.103Z</time>
      </trkpt>
      <trkpt lat="45.7633" lon="6.99642">
        <ele>1005</ele>
        <time>2022-07-16T13:28:12.954Z</time>
      </trkpt>
      <trkpt lat="45.76283" lon="6.99546">
        <ele>1014</ele>
        <time>2022-07-16T13:28:46.023Z</time>
      </trkpt>
      <trkpt lat="45.76269" lon="6.99499">
        <ele>1014</ele>
        <time>2022-07-16T13:28:51.024Z</time>
      </trkpt>
      <trkpt lat="45.76265" lon="6.99438">
        <ele>1018</ele>
        <time>2022-07-16T13:29:05.699Z</time>
      </trkpt>
      <trkpt lat="45.76274" lon="6.99291">
        <ele>1020</ele>
        <time>2022-07-16T13:29:23.265Z</time>
      </trkpt>
      <trkpt lat="45.76272" lon="6.9925">
        <ele>1021</ele>
        <time>2022-07-16T13:29:29.176Z</time>
      </trkpt>
      <trkpt lat="45.76266" lon="6.99213">
        <ele>1020</ele>
        <time>2022-07-16T13:29:31.592Z</time>
      </trkpt>
      <trkpt lat="45.76234" lon="6.99111">
        <ele>1023</ele>
        <time>2022-07-16T13:29:48.487Z</time>
      </trkpt>
      <trkpt lat="45.76231" lon="6.99082">
        <ele>1021</ele>
        <time>2022-07-16T13:29:50.076Z</time>
      </trkpt>
      <trkpt lat="45.76232" lon="6.99054">
        <ele>1019</ele>
        <time>2022-07-16T13:29:51.595Z</time>
      </trkpt>
      <trkpt lat="45.76249" lon="6.99009">
        <ele>1009</ele>
        <time>2022-07-16T13:29:54.369Z</time>
      </trkpt>
      <trkpt lat="45.76261" lon="6.98991">
        <ele>1008</ele>
        <time>2022-07-16T13:29:55.697Z</time>
      </trkpt>
      <trkpt lat="45.76304" lon="6.98943">
        <ele>1007</ele>
        <time>2022-07-16T13:30:01.818Z</time>
      </trkpt>
      <trkpt lat="45.76332" lon="6.98918">
        <ele>1007</ele>
        <time>2022-07-16T13:30:06.445Z</time>
      </trkpt>
      <trkpt lat="45.76346" lon="6.98898">
        <ele>1008</ele>
        <time>2022-07-16T13:30:11.312Z</time>
      </trkpt>
      <trkpt lat="45.76346" lon="6.9886">
        <ele>1010</ele>
        <time>2022-07-16T13:30:19.115Z</time>
      </trkpt>
      <trkpt lat="45.76388" lon="6.98664">
        <ele>1017</ele>
        <time>2022-07-16T13:30:53.957Z</time>
      </trkpt>
      <trkpt lat="45.76397" lon="6.98638">
        <ele>1019</ele>
        <time>2022-07-16T13:31:01.257Z</time>
      </trkpt>
      <trkpt lat="45.76428" lon="6.98587">
        <ele>1020</ele>
        <time>2022-07-16T13:31:09.470Z</time>
      </trkpt>
      <trkpt lat="45.76469" lon="6.98488">
        <ele>1026</ele>
        <time>2022-07-16T13:31:32.975Z</time>
      </trkpt>
      <trkpt lat="45.76487" lon="6.98459">
        <ele>1028</ele>
        <time>2022-07-16T13:31:40.848Z</time>
      </trkpt>
      <trkpt lat="45.76623" lon="6.9832">
        <ele>1039</ele>
        <time>2022-07-16T13:32:26.567Z</time>
      </trkpt>
      <trkpt lat="45.7663" lon="6.98311">
        <ele>1041</ele>
        <time>2022-07-16T13:32:31.654Z</time>
      </trkpt>
      <trkpt lat="45.7663" lon="6.983">
        <ele>1044</ele>
        <time>2022-07-16T13:32:35.806Z</time>
      </trkpt>
      <trkpt lat="45.76623" lon="6.98296">
        <ele>1047</ele>
        <time>2022-07-16T13:32:39.883Z</time>
      </trkpt>
      <trkpt lat="45.76604" lon="6.98305">
        <ele>1047</ele>
        <time>2022-07-16T13:32:42.690Z</time>
      </trkpt>
      <trkpt lat="45.7658" lon="6.98321">
        <ele>1044</ele>
        <time>2022-07-16T13:32:44.747Z</time>
      </trkpt>
      <trkpt lat="45.7656" lon="6.98324">
        <ele>1046</ele>
        <time>2022-07-16T13:32:52.044Z</time>
      </trkpt>
      <trkpt lat="45.76439" lon="6.98331">
        <ele>1054</ele>
        <time>2022-07-16T13:33:25.241Z</time>
      </trkpt>
      <trkpt lat="45.76383" lon="6.98332">
        <ele>1056</ele>
        <time>2022-07-16T13:33:36.916Z</time>
      </trkpt>
      <trkpt lat="45.76355" lon="6.98326">
        <ele>1059</ele>
        <time>2022-07-16T13:33:47.881Z</time>
      </trkpt>
      <trkpt lat="45.76316" lon="6.98312">
        <ele>1066</ele>
        <time>2022-07-16T13:34:09.634Z</time>
      </trkpt>
      <trkpt lat="45.76302" lon="6.9831">
        <ele>1069</ele>
        <time>2022-07-16T13:34:17.246Z</time>
      </trkpt>
      <trkpt lat="45.76282" lon="6.98311">
        <ele>1071</ele>
        <time>2022-07-16T13:34:24.542Z</time>
      </trkpt>
      <trkpt lat="45.76213" lon="6.98338">
        <ele>1078</ele>
        <time>2022-07-16T13:34:50.103Z</time>
      </trkpt>
      <trkpt lat="45.76129" lon="6.98396">
        <ele>1089</ele>
        <time>2022-07-16T13:35:31.339Z</time>
      </trkpt>
      <trkpt lat="45.76112" lon="6.98419">
        <ele>1088</ele>
        <time>2022-07-16T13:35:33.370Z</time>
      </trkpt>
      <trkpt lat="45.7608" lon="6.98446">
        <ele>1088</ele>
        <time>2022-07-16T13:35:38.579Z</time>
      </trkpt>
      <trkpt lat="45.7607" lon="6.98448">
        <ele>1092</ele>
        <time>2022-07-16T13:35:44.042Z</time>
      </trkpt>
      <trkpt lat="45.76065" lon="6.98441">
        <ele>1097</ele>
        <time>2022-07-16T13:35:47.824Z</time>
      </trkpt>
      <trkpt lat="45.76065" lon="6.98433">
        <ele>1099</ele>
        <time>2022-07-16T13:35:50.844Z</time>
      </trkpt>
      <trkpt lat="45.76074" lon="6.98426">
        <ele>1098</ele>
        <time>2022-07-16T13:35:51.639Z</time>
      </trkpt>
      <trkpt lat="45.76092" lon="6.98421">
        <ele>1094</ele>
        <time>2022-07-16T13:35:53.064Z</time>
      </trkpt>
      <trkpt lat="45.76104" lon="6.98411">
        <ele>1093</ele>
        <time>2022-07-16T13:35:54.142Z</time>
      </trkpt>
      <trkpt lat="45.76108" lon="6.98404">
        <ele>1094</ele>
        <time>2022-07-16T13:35:57.558Z</time>
      </trkpt>
      <trkpt lat="45.76119" lon="6.98366">
        <ele>1101</ele>
        <time>2022-07-16T13:36:13.087Z</time>
      </trkpt>
      <trkpt lat="45.7613" lon="6.98345">
        <ele>1103</ele>
        <time>2022-07-16T13:36:20.426Z</time>
      </trkpt>
      <trkpt lat="45.76152" lon="6.98333">
        <ele>1099</ele>
        <time>2022-07-16T13:36:22.255Z</time>
      </trkpt>
      <trkpt lat="45.76186" lon="6.983">
        <ele>1096</ele>
        <time>2022-07-16T13:36:25.445Z</time>
      </trkpt>
      <trkpt lat="45.76196" lon="6.98285">
        <ele>1097</ele>
        <time>2022-07-16T13:36:29.503Z</time>
      </trkpt>
      <trkpt lat="45.76193" lon="6.98277">
        <ele>1100</ele>
        <time>2022-07-16T13:36:32.931Z</time>
      </trkpt>
      <trkpt lat="45.76179" lon="6.98276">
        <ele>1104</ele>
        <time>2022-07-16T13:36:40.516Z</time>
      </trkpt>
      <trkpt lat="45.76156" lon="6.98306">
        <ele>1104</ele>
        <time>2022-07-16T13:36:44.878Z</time>
      </trkpt>
      <trkpt lat="45.76146" lon="6.98315">
        <ele>1105</ele>
        <time>2022-07-16T13:36:48.626Z</time>
      </trkpt>
      <trkpt lat="45.7612" lon="6.98329">
        <ele>1110</ele>
        <time>2022-07-16T13:37:03.654Z</time>
      </trkpt>
      <trkpt lat="45.76109" lon="6.98346">
        <ele>1109</ele>
        <time>2022-07-16T13:37:04.849Z</time>
      </trkpt>
      <trkpt lat="45.76104" lon="6.9836">
        <ele>1107</ele>
        <time>2022-07-16T13:37:05.701Z</time>
      </trkpt>
      <trkpt lat="45.76089" lon="6.98386">
        <ele>1105</ele>
        <time>2022-07-16T13:37:07.530Z</time>
      </trkpt>
      <trkpt lat="45.76073" lon="6.98395">
        <ele>1108</ele>
        <time>2022-07-16T13:37:16.830Z</time>
      </trkpt>
      <trkpt lat="45.7606" lon="6.98397">
        <ele>1112</ele>
        <time>2022-07-16T13:37:23.904Z</time>
      </trkpt>
      <trkpt lat="45.76054" lon="6.98395">
        <ele>1114</ele>
        <time>2022-07-16T13:37:27.237Z</time>
      </trkpt>
      <trkpt lat="45.76052" lon="6.98388">
        <ele>1117</ele>
        <time>2022-07-16T13:37:30.092Z</time>
      </trkpt>
      <trkpt lat="45.76053" lon="6.9838">
        <ele>1118</ele>
        <time>2022-07-16T13:37:33.160Z</time>
      </trkpt>
      <trkpt lat="45.76057" lon="6.98375">
        <ele>1118</ele>
        <time>2022-07-16T13:37:33.905Z</time>
      </trkpt>
      <trkpt lat="45.76081" lon="6.98368">
        <ele>1112</ele>
        <time>2022-07-16T13:37:35.808Z</time>
      </trkpt>
      <trkpt lat="45.76092" lon="6.9836">
        <ele>1111</ele>
        <time>2022-07-16T13:37:36.766Z</time>
      </trkpt>
      <trkpt lat="45.76104" lon="6.98321">
        <ele>1117</ele>
        <time>2022-07-16T13:37:52.856Z</time>
      </trkpt>
      <trkpt lat="45.76112" lon="6.98304">
        <ele>1119</ele>
        <time>2022-07-16T13:38:00.596Z</time>
      </trkpt>
      <trkpt lat="45.76128" lon="6.98287">
        <ele>1117</ele>
        <time>2022-07-16T13:38:02.144Z</time>
      </trkpt>
      <trkpt lat="45.76152" lon="6.98267">
        <ele>1114</ele>
        <time>2022-07-16T13:38:04.301Z</time>
      </trkpt>
      <trkpt lat="45.76175" lon="6.98236">
        <ele>1117</ele>
        <time>2022-07-16T13:38:15.285Z</time>
      </trkpt>
      <trkpt lat="45.76178" lon="6.98227">
        <ele>1120</ele>
        <time>2022-07-16T13:38:19.050Z</time>
      </trkpt>
      <trkpt lat="45.76177" lon="6.98221">
        <ele>1123</ele>
        <time>2022-07-16T13:38:21.378Z</time>
      </trkpt>
      <trkpt lat="45.76171" lon="6.98216">
        <ele>1127</ele>
        <time>2022-07-16T13:38:25.133Z</time>
      </trkpt>
      <trkpt lat="45.76166" lon="6.98215">
        <ele>1128</ele>
        <time>2022-07-16T13:38:27.865Z</time>
      </trkpt>
      <trkpt lat="45.76161" lon="6.9822">
        <ele>1128</ele>
        <time>2022-07-16T13:38:28.720Z</time>
      </trkpt>
      <trkpt lat="45.76137" lon="6.98262">
        <ele>1120</ele>
        <time>2022-07-16T13:38:31.663Z</time>
      </trkpt>
      <trkpt lat="45.76122" lon="6.98276">
        <ele>1122</ele>
        <time>2022-07-16T13:38:39.035Z</time>
      </trkpt>
      <trkpt lat="45.76108" lon="6.98281">
        <ele>1125</ele>
        <time>2022-07-16T13:38:46.842Z</time>
      </trkpt>
      <trkpt lat="45.76098" lon="6.98288">
        <ele>1127</ele>
        <time>2022-07-16T13:38:52.863Z</time>
      </trkpt>
      <trkpt lat="45.76077" lon="6.98327">
        <ele>1124</ele>
        <time>2022-07-16T13:38:55.534Z</time>
      </trkpt>
      <trkpt lat="45.76072" lon="6.98329">
        <ele>1125</ele>
        <time>2022-07-16T13:38:58.342Z</time>
      </trkpt>
      <trkpt lat="45.76043" lon="6.9833">
        <ele>1132</ele>
        <time>2022-07-16T13:39:14.038Z</time>
      </trkpt>
      <trkpt lat="45.75998" lon="6.98364">
        <ele>1139</ele>
        <time>2022-07-16T13:39:41.561Z</time>
      </trkpt>
      <trkpt lat="45.7599" lon="6.98379">
        <ele>1142</ele>
        <time>2022-07-16T13:39:48.689Z</time>
      </trkpt>
      <trkpt lat="45.75988" lon="6.98389">
        <ele>1141</ele>
        <time>2022-07-16T13:39:49.252Z</time>
      </trkpt>
      <trkpt lat="45.75983" lon="6.98441">
        <ele>1138</ele>
        <time>2022-07-16T13:39:52.098Z</time>
      </trkpt>
      <trkpt lat="45.75979" lon="6.98448">
        <ele>1140</ele>
        <time>2022-07-16T13:39:55.513Z</time>
      </trkpt>
      <trkpt lat="45.75976" lon="6.98448">
        <ele>1142</ele>
        <time>2022-07-16T13:39:57.136Z</time>
      </trkpt>
      <trkpt lat="45.75973" lon="6.98446">
        <ele>1144</ele>
        <time>2022-07-16T13:39:58.927Z</time>
      </trkpt>
      <trkpt lat="45.75971" lon="6.98433">
        <ele>1147</ele>
        <time>2022-07-16T13:40:03.952Z</time>
      </trkpt>
      <trkpt lat="45.75972" lon="6.98409">
        <ele>1149</ele>
        <time>2022-07-16T13:40:11.482Z</time>
      </trkpt>
      <trkpt lat="45.75983" lon="6.98365">
        <ele>1147</ele>
        <time>2022-07-16T13:40:13.901Z</time>
      </trkpt>
      <trkpt lat="45.76007" lon="6.98303">
        <ele>1148</ele>
        <time>2022-07-16T13:40:22.417Z</time>
      </trkpt>
      <trkpt lat="45.76016" lon="6.98294">
        <ele>1147</ele>
        <time>2022-07-16T13:40:23.269Z</time>
      </trkpt>
      <trkpt lat="45.76072" lon="6.98264">
        <ele>1140</ele>
        <time>2022-07-16T13:40:27.914Z</time>
      </trkpt>
      <trkpt lat="45.76117" lon="6.98199">
        <ele>1152</ele>
        <time>2022-07-16T13:41:02.481Z</time>
      </trkpt>
      <trkpt lat="45.76148" lon="6.98182">
        <ele>1149</ele>
        <time>2022-07-16T13:41:05.059Z</time>
      </trkpt>
      <trkpt lat="45.76145" lon="6.98167">
        <ele>1157</ele>
        <time>2022-07-16T13:41:10.949Z</time>
      </trkpt>
      <trkpt lat="45.76135" lon="6.98164">
        <ele>1162</ele>
        <time>2022-07-16T13:41:16.477Z</time>
      </trkpt>
      <trkpt lat="45.76103" lon="6.98199">
        <ele>1157</ele>
        <time>2022-07-16T13:41:19.605Z</time>
      </trkpt>
      <trkpt lat="45.76078" lon="6.9822">
        <ele>1156</ele>
        <time>2022-07-16T13:41:22.332Z</time>
      </trkpt>
      <trkpt lat="45.76065" lon="6.98227">
        <ele>1155</ele>
        <time>2022-07-16T13:41:23.411Z</time>
      </trkpt>
      <trkpt lat="45.75999" lon="6.98245">
        <ele>1163</ele>
        <time>2022-07-16T13:41:53.514Z</time>
      </trkpt>
      <trkpt lat="45.75981" lon="6.98254">
        <ele>1167</ele>
        <time>2022-07-16T13:42:03.829Z</time>
      </trkpt>
      <trkpt lat="45.75975" lon="6.98261">
        <ele>1168</ele>
        <time>2022-07-16T13:42:07.777Z</time>
      </trkpt>
      <trkpt lat="45.75966" lon="6.98273">
        <ele>1170</ele>
        <time>2022-07-16T13:42:14.428Z</time>
      </trkpt>
      <trkpt lat="45.75951" lon="6.98304">
        <ele>1171</ele>
        <time>2022-07-16T13:42:20.090Z</time>
      </trkpt>
      <trkpt lat="45.7594" lon="6.98428">
        <ele>1167</ele>
        <time>2022-07-16T13:42:27.459Z</time>
      </trkpt>
      <trkpt lat="45.75938" lon="6.98437">
        <ele>1168</ele>
        <time>2022-07-16T13:42:31.025Z</time>
      </trkpt>
      <trkpt lat="45.75931" lon="6.98441">
        <ele>1172</ele>
        <time>2022-07-16T13:42:35.102Z</time>
      </trkpt>
      <trkpt lat="45.75927" lon="6.9844">
        <ele>1175</ele>
        <time>2022-07-16T13:42:37.299Z</time>
      </trkpt>
      <trkpt lat="45.75925" lon="6.98435">
        <ele>1176</ele>
        <time>2022-07-16T13:42:39.475Z</time>
      </trkpt>
      <trkpt lat="45.75926" lon="6.98405">
        <ele>1177</ele>
        <time>2022-07-16T13:42:44.539Z</time>
      </trkpt>
      <trkpt lat="45.75935" lon="6.98332">
        <ele>1174</ele>
        <time>2022-07-16T13:42:48.479Z</time>
      </trkpt>
      <trkpt lat="45.75934" lon="6.98269">
        <ele>1183</ele>
        <time>2022-07-16T13:43:12.266Z</time>
      </trkpt>
      <trkpt lat="45.75942" lon="6.98255">
        <ele>1182</ele>
        <time>2022-07-16T13:43:13.247Z</time>
      </trkpt>
      <trkpt lat="45.75977" lon="6.98215">
        <ele>1181</ele>
        <time>2022-07-16T13:43:18.046Z</time>
      </trkpt>
      <trkpt lat="45.76006" lon="6.98201">
        <ele>1178</ele>
        <time>2022-07-16T13:43:20.423Z</time>
      </trkpt>
      <trkpt lat="45.76038" lon="6.98192">
        <ele>1176</ele>
        <time>2022-07-16T13:43:22.842Z</time>
      </trkpt>
      <trkpt lat="45.76041" lon="6.98187">
        <ele>1177</ele>
        <time>2022-07-16T13:43:25.331Z</time>
      </trkpt>
      <trkpt lat="45.7604" lon="6.98175">
        <ele>1182</ele>
        <time>2022-07-16T13:43:29.893Z</time>
      </trkpt>
      <trkpt lat="45.76032" lon="6.98172">
        <ele>1185</ele>
        <time>2022-07-16T13:43:34.367Z</time>
      </trkpt>
      <trkpt lat="45.7601" lon="6.98187">
        <ele>1183</ele>
        <time>2022-07-16T13:43:36.260Z</time>
      </trkpt>
      <trkpt lat="45.75973" lon="6.98196">
        <ele>1189</ele>
        <time>2022-07-16T13:43:56.566Z</time>
      </trkpt>
      <trkpt lat="45.75965" lon="6.982">
        <ele>1190</ele>
        <time>2022-07-16T13:44:00.315Z</time>
      </trkpt>
      <trkpt lat="45.7593" lon="6.98226">
        <ele>1193</ele>
        <time>2022-07-16T13:44:11.979Z</time>
      </trkpt>
      <trkpt lat="45.75921" lon="6.98238">
        <ele>1193</ele>
        <time>2022-07-16T13:44:13.703Z</time>
      </trkpt>
      <trkpt lat="45.75917" lon="6.9825">
        <ele>1192</ele>
        <time>2022-07-16T13:44:14.424Z</time>
      </trkpt>
      <trkpt lat="45.7591" lon="6.98292">
        <ele>1190</ele>
        <time>2022-07-16T13:44:16.573Z</time>
      </trkpt>
      <trkpt lat="45.75905" lon="6.98308">
        <ele>1191</ele>
        <time>2022-07-16T13:44:20.362Z</time>
      </trkpt>
      <trkpt lat="45.75888" lon="6.98332">
        <ele>1196</ele>
        <time>2022-07-16T13:44:33.272Z</time>
      </trkpt>
      <trkpt lat="45.7588" lon="6.98337">
        <ele>1199</ele>
        <time>2022-07-16T13:44:37.994Z</time>
      </trkpt>
      <trkpt lat="45.75801" lon="6.98361">
        <ele>1209</ele>
        <time>2022-07-16T13:45:16.363Z</time>
      </trkpt>
      <trkpt lat="45.75752" lon="6.98383">
        <ele>1184</ele>
        <time>2022-07-16T13:45:20.352Z</time>
      </trkpt>
      <trkpt lat="45.75734" lon="6.98384">
        <ele>1181</ele>
        <time>2022-07-16T13:45:21.752Z</time>
      </trkpt>
      <trkpt lat="45.75723" lon="6.98379">
        <ele>1183</ele>
        <time>2022-07-16T13:45:27.996Z</time>
      </trkpt>
      <trkpt lat="45.75711" lon="6.98369">
        <ele>1188</ele>
        <time>2022-07-16T13:45:35.506Z</time>
      </trkpt>
      <trkpt lat="45.75701" lon="6.98356">
        <ele>1193</ele>
        <time>2022-07-16T13:45:42.811Z</time>
      </trkpt>
      <trkpt lat="45.75659" lon="6.98289">
        <ele>1207</ele>
        <time>2022-07-16T13:46:16.813Z</time>
      </trkpt>
      <trkpt lat="45.75648" lon="6.98277">
        <ele>1208</ele>
        <time>2022-07-16T13:46:20.785Z</time>
      </trkpt>
      <trkpt lat="45.75603" lon="6.98262">
        <ele>1199</ele>
        <time>2022-07-16T13:46:24.375Z</time>
      </trkpt>
      <trkpt lat="45.75598" lon="6.98257">
        <ele>1198</ele>
        <time>2022-07-16T13:46:24.848Z</time>
      </trkpt>
      <trkpt lat="45.75571" lon="6.98206">
        <ele>1204</ele>
        <time>2022-07-16T13:46:49.016Z</time>
      </trkpt>
      <trkpt lat="45.75552" lon="6.98156">
        <ele>1211</ele>
        <time>2022-07-16T13:47:10.510Z</time>
      </trkpt>
      <trkpt lat="45.7553" lon="6.98108">
        <ele>1207</ele>
        <time>2022-07-16T13:47:13.623Z</time>
      </trkpt>
      <trkpt lat="45.75516" lon="6.98069">
        <ele>1205</ele>
        <time>2022-07-16T13:47:15.823Z</time>
      </trkpt>
      <trkpt lat="45.75489" lon="6.98009">
        <ele>1213</ele>
        <time>2022-07-16T13:47:42.776Z</time>
      </trkpt>
      <trkpt lat="45.75474" lon="6.97984">
        <ele>1218</ele>
        <time>2022-07-16T13:47:55.224Z</time>
      </trkpt>
      <trkpt lat="45.75416" lon="6.9794">
        <ele>1211</ele>
        <time>2022-07-16T13:48:00.323Z</time>
      </trkpt>
      <trkpt lat="45.75391" lon="6.97894">
        <ele>1219</ele>
        <time>2022-07-16T13:48:22.335Z</time>
      </trkpt>
      <trkpt lat="45.75227" lon="6.97689">
        <ele>1225</ele>
        <time>2022-07-16T13:49:03.176Z</time>
      </trkpt>
      <trkpt lat="45.7516" lon="6.97573">
        <ele>1225</ele>
        <time>2022-07-16T13:49:17.915Z</time>
      </trkpt>
      <trkpt lat="45.7511" lon="6.975">
        <ele>1230</ele>
        <time>2022-07-16T13:49:38.070Z</time>
      </trkpt>
      <trkpt lat="45.75081" lon="6.97434">
        <ele>1233</ele>
        <time>2022-07-16T13:49:51.883Z</time>
      </trkpt>
      <trkpt lat="45.75059" lon="6.97401">
        <ele>1233</ele>
        <time>2022-07-16T13:49:56.350Z</time>
      </trkpt>
      <trkpt lat="45.75039" lon="6.97363">
        <ele>1233</ele>
        <time>2022-07-16T13:50:01.009Z</time>
      </trkpt>
      <trkpt lat="45.7502" lon="6.97303">
        <ele>1237</ele>
        <time>2022-07-16T13:50:15.895Z</time>
      </trkpt>
      <trkpt lat="45.74999" lon="6.97262">
        <ele>1238</ele>
        <time>2022-07-16T13:50:22.605Z</time>
      </trkpt>
      <trkpt lat="45.74984" lon="6.97244">
        <ele>1240</ele>
        <time>2022-07-16T13:50:29.901Z</time>
      </trkpt>
      <trkpt lat="45.74969" lon="6.97232">
        <ele>1242</ele>
        <time>2022-07-16T13:50:37.361Z</time>
      </trkpt>
      <trkpt lat="45.74956" lon="6.97225">
        <ele>1241</ele>
        <time>2022-07-16T13:50:38.440Z</time>
      </trkpt>
      <trkpt lat="45.74896" lon="6.97207">
        <ele>1242</ele>
        <time>2022-07-16T13:50:48.550Z</time>
      </trkpt>
      <trkpt lat="45.74879" lon="6.97197">
        <ele>1246</ele>
        <time>2022-07-16T13:50:58.493Z</time>
      </trkpt>
      <trkpt lat="45.74862" lon="6.97179">
        <ele>1249</ele>
        <time>2022-07-16T13:51:09.929Z</time>
      </trkpt>
      <trkpt lat="45.74783" lon="6.97085">
        <ele>1260</ele>
        <time>2022-07-16T13:51:50.182Z</time>
      </trkpt>
      <trkpt lat="45.7474" lon="6.97022">
        <ele>1262</ele>
        <time>2022-07-16T13:52:02.468Z</time>
      </trkpt>
      <trkpt lat="45.74674" lon="6.96913">
        <ele>1267</ele>
        <time>2022-07-16T13:52:27.113Z</time>
      </trkpt>
      <trkpt lat="45.74658" lon="6.96892">
        <ele>1270</ele>
        <time>2022-07-16T13:52:38.852Z</time>
      </trkpt>
      <trkpt lat="45.74619" lon="6.9686">
        <ele>1273</ele>
        <time>2022-07-16T13:52:51.235Z</time>
      </trkpt>
      <trkpt lat="45.74509" lon="6.96781">
        <ele>1276</ele>
        <time>2022-07-16T13:53:13.457Z</time>
      </trkpt>
      <trkpt lat="45.744" lon="6.96753">
        <ele>1272</ele>
        <time>2022-07-16T13:53:23.714Z</time>
      </trkpt>
      <trkpt lat="45.74383" lon="6.96737">
        <ele>1273</ele>
        <time>2022-07-16T13:53:28.675Z</time>
      </trkpt>
      <trkpt lat="45.74368" lon="6.96718">
        <ele>1274</ele>
        <time>2022-07-16T13:53:33.584Z</time>
      </trkpt>
      <trkpt lat="45.74335" lon="6.96667">
        <ele>1272</ele>
        <time>2022-07-16T13:53:37.865Z</time>
      </trkpt>
      <trkpt lat="45.74316" lon="6.96606">
        <ele>1280</ele>
        <time>2022-07-16T13:54:03.088Z</time>
      </trkpt>
      <trkpt lat="45.74304" lon="6.96581">
        <ele>1281</ele>
        <time>2022-07-16T13:54:08.190Z</time>
      </trkpt>
      <trkpt lat="45.74279" lon="6.96538">
        <ele>1287</ele>
        <time>2022-07-16T13:54:29.323Z</time>
      </trkpt>
      <trkpt lat="45.74252" lon="6.96504">
        <ele>1290</ele>
        <time>2022-07-16T13:54:40.615Z</time>
      </trkpt>
      <trkpt lat="45.74196" lon="6.9645">
        <ele>1297</ele>
        <time>2022-07-16T13:55:06.160Z</time>
      </trkpt>
      <trkpt lat="45.74159" lon="6.96409">
        <ele>1298</ele>
        <time>2022-07-16T13:55:14.319Z</time>
      </trkpt>
      <trkpt lat="45.7411" lon="6.9637">
        <ele>1301</ele>
        <time>2022-07-16T13:55:28.392Z</time>
      </trkpt>
      <trkpt lat="45.74084" lon="6.96354">
        <ele>1299</ele>
        <time>2022-07-16T13:55:30.591Z</time>
      </trkpt>
      <trkpt lat="45.7401" lon="6.96329">
        <ele>1297</ele>
        <time>2022-07-16T13:55:38.387Z</time>
      </trkpt>
      <trkpt lat="45.7398" lon="6.96323">
        <ele>1300</ele>
        <time>2022-07-16T13:55:49.334Z</time>
      </trkpt>
      <trkpt lat="45.73955" lon="6.96305">
        <ele>1306</ele>
        <time>2022-07-16T13:56:04.473Z</time>
      </trkpt>
      <trkpt lat="45.73938" lon="6.96278">
        <ele>1307</ele>
        <time>2022-07-16T13:56:10.043Z</time>
      </trkpt>
      <trkpt lat="45.73898" lon="6.96176">
        <ele>1311</ele>
        <time>2022-07-16T13:56:29.940Z</time>
      </trkpt>
      <trkpt lat="45.73829" lon="6.96099">
        <ele>1313</ele>
        <time>2022-07-16T13:56:45.459Z</time>
      </trkpt>
      <trkpt lat="45.73766" lon="6.96017">
        <ele>1327</ele>
        <time>2022-07-16T13:57:31.511Z</time>
      </trkpt>
      <trkpt lat="45.73742" lon="6.95995">
        <ele>1327</ele>
        <time>2022-07-16T13:57:35.508Z</time>
      </trkpt>
      <trkpt lat="45.73727" lon="6.9599">
        <ele>1327</ele>
        <time>2022-07-16T13:57:37.668Z</time>
      </trkpt>
      <trkpt lat="45.73714" lon="6.95991">
        <ele>1325</ele>
        <time>2022-07-16T13:57:38.680Z</time>
      </trkpt>
      <trkpt lat="45.73699" lon="6.95999">
        <ele>1320</ele>
        <time>2022-07-16T13:57:39.923Z</time>
      </trkpt>
      <trkpt lat="45.7368" lon="6.96016">
        <ele>1316</ele>
        <time>2022-07-16T13:57:41.664Z</time>
      </trkpt>
      <trkpt lat="45.73671" lon="6.96021">
        <ele>1315</ele>
        <time>2022-07-16T13:57:42.414Z</time>
      </trkpt>
      <trkpt lat="45.7366" lon="6.96023">
        <ele>1314</ele>
        <time>2022-07-16T13:57:43.275Z</time>
      </trkpt>
      <trkpt lat="45.73629" lon="6.9601">
        <ele>1315</ele>
        <time>2022-07-16T13:57:49.600Z</time>
      </trkpt>
      <trkpt lat="45.73598" lon="6.95986">
        <ele>1317</ele>
        <time>2022-07-16T13:57:58.643Z</time>
      </trkpt>
      <trkpt lat="45.73584" lon="6.95979">
        <ele>1318</ele>
        <time>2022-07-16T13:58:02.749Z</time>
      </trkpt>
      <trkpt lat="45.73531" lon="6.95964">
        <ele>1316</ele>
        <time>2022-07-16T13:58:07.709Z</time>
      </trkpt>
      <trkpt lat="45.7352" lon="6.95965">
        <ele>1316</ele>
        <time>2022-07-16T13:58:09.255Z</time>
      </trkpt>
      <trkpt lat="45.73511" lon="6.95983">
        <ele>1313</ele>
        <time>2022-07-16T13:58:10.456Z</time>
      </trkpt>
      <trkpt lat="45.73506" lon="6.96008">
        <ele>1311</ele>
        <time>2022-07-16T13:58:11.866Z</time>
      </trkpt>
      <trkpt lat="45.73503" lon="6.96024">
        <ele>1313</ele>
        <time>2022-07-16T13:58:18.123Z</time>
      </trkpt>
      <trkpt lat="45.73502" lon="6.96059">
        <ele>1316</ele>
        <time>2022-07-16T13:58:29.575Z</time>
      </trkpt>
      <trkpt lat="45.73509" lon="6.96073">
        <ele>1317</ele>
        <time>2022-07-16T13:58:33.343Z</time>
      </trkpt>
      <trkpt lat="45.73517" lon="6.96081">
        <ele>1317</ele>
        <time>2022-07-16T13:58:34.711Z</time>
      </trkpt>
      <trkpt lat="45.73578" lon="6.96109">
        <ele>1320</ele>
        <time>2022-07-16T13:58:50.103Z</time>
      </trkpt>
      <trkpt lat="45.73582" lon="6.96125">
        <ele>1325</ele>
        <time>2022-07-16T13:58:56.522Z</time>
      </trkpt>
      <trkpt lat="45.73577" lon="6.96135">
        <ele>1329</ele>
        <time>2022-07-16T13:59:01.167Z</time>
      </trkpt>
      <trkpt lat="45.7357" lon="6.96139">
        <ele>1331</ele>
        <time>2022-07-16T13:59:05.245Z</time>
      </trkpt>
      <trkpt lat="45.73565" lon="6.96139">
        <ele>1332</ele>
        <time>2022-07-16T13:59:07.950Z</time>
      </trkpt>
      <trkpt lat="45.73531" lon="6.96113">
        <ele>1328</ele>
        <time>2022-07-16T13:59:10.944Z</time>
      </trkpt>
      <trkpt lat="45.73476" lon="6.96093">
        <ele>1330</ele>
        <time>2022-07-16T13:59:22.699Z</time>
      </trkpt>
      <trkpt lat="45.73455" lon="6.96083">
        <ele>1332</ele>
        <time>2022-07-16T13:59:30.080Z</time>
      </trkpt>
      <trkpt lat="45.73424" lon="6.96061">
        <ele>1334</ele>
        <time>2022-07-16T13:59:39.023Z</time>
      </trkpt>
      <trkpt lat="45.73329" lon="6.96016">
        <ele>1335</ele>
        <time>2022-07-16T13:59:54.473Z</time>
      </trkpt>
      <trkpt lat="45.73297" lon="6.96006">
        <ele>1337</ele>
        <time>2022-07-16T14:00:03.135Z</time>
      </trkpt>
      <trkpt lat="45.73268" lon="6.96005">
        <ele>1341</ele>
        <time>2022-07-16T14:00:18.830Z</time>
      </trkpt>
      <trkpt lat="45.73257" lon="6.96002">
        <ele>1342</ele>
        <time>2022-07-16T14:00:22.529Z</time>
      </trkpt>
      <trkpt lat="45.73203" lon="6.9596">
        <ele>1345</ele>
        <time>2022-07-16T14:00:37.485Z</time>
      </trkpt>
      <trkpt lat="45.73165" lon="6.95951">
        <ele>1350</ele>
        <time>2022-07-16T14:00:57.289Z</time>
      </trkpt>
      <trkpt lat="45.73129" lon="6.95936">
        <ele>1354</ele>
        <time>2022-07-16T14:01:11.920Z</time>
      </trkpt>
      <trkpt lat="45.73045" lon="6.95868">
        <ele>1363</ele>
        <time>2022-07-16T14:01:44.953Z</time>
      </trkpt>
      <trkpt lat="45.72972" lon="6.95794">
        <ele>1370</ele>
        <time>2022-07-16T14:02:11.875Z</time>
      </trkpt>
      <trkpt lat="45.72925" lon="6.95722">
        <ele>1371</ele>
        <time>2022-07-16T14:02:23.010Z</time>
      </trkpt>
      <trkpt lat="45.72919" lon="6.957">
        <ele>1370</ele>
        <time>2022-07-16T14:02:24.240Z</time>
      </trkpt>
      <trkpt lat="45.72911" lon="6.95639">
        <ele>1364</ele>
        <time>2022-07-16T14:02:27.606Z</time>
      </trkpt>
      <trkpt lat="45.72893" lon="6.95594">
        <ele>1365</ele>
        <time>2022-07-16T14:02:34.405Z</time>
      </trkpt>
      <trkpt lat="45.7289" lon="6.95589">
        <ele>1365</ele>
        <time>2022-07-16T14:02:35.050Z</time>
      </trkpt>
      <trkpt lat="45.72885" lon="6.95588">
        <ele>1368</ele>
        <time>2022-07-16T14:02:37.782Z</time>
      </trkpt>
      <trkpt lat="45.72882" lon="6.95593">
        <ele>1371</ele>
        <time>2022-07-16T14:02:40.272Z</time>
      </trkpt>
      <trkpt lat="45.72889" lon="6.95722">
        <ele>1390</ele>
        <time>2022-07-16T14:03:29.141Z</time>
      </trkpt>
      <trkpt lat="45.72893" lon="6.95743">
        <ele>1391</ele>
        <time>2022-07-16T14:03:33.299Z</time>
      </trkpt>
      <trkpt lat="45.72901" lon="6.95763">
        <ele>1390</ele>
        <time>2022-07-16T14:03:34.485Z</time>
      </trkpt>
      <trkpt lat="45.72922" lon="6.95798">
        <ele>1390</ele>
        <time>2022-07-16T14:03:39.004Z</time>
      </trkpt>
      <trkpt lat="45.7292" lon="6.95811">
        <ele>1394</ele>
        <time>2022-07-16T14:03:44.032Z</time>
      </trkpt>
      <trkpt lat="45.72917" lon="6.95814">
        <ele>1396</ele>
        <time>2022-07-16T14:03:46.012Z</time>
      </trkpt>
      <trkpt lat="45.7291" lon="6.95812">
        <ele>1399</ele>
        <time>2022-07-16T14:03:49.874Z</time>
      </trkpt>
      <trkpt lat="45.72891" lon="6.95786">
        <ele>1402</ele>
        <time>2022-07-16T14:04:00.995Z</time>
      </trkpt>
      <trkpt lat="45.72876" lon="6.95756">
        <ele>1403</ele>
        <time>2022-07-16T14:04:06.602Z</time>
      </trkpt>
      <trkpt lat="45.72825" lon="6.95542">
        <ele>1389</ele>
        <time>2022-07-16T14:04:18.866Z</time>
      </trkpt>
      <trkpt lat="45.72808" lon="6.95509">
        <ele>1392</ele>
        <time>2022-07-16T14:04:29.821Z</time>
      </trkpt>
      <trkpt lat="45.72776" lon="6.95468">
        <ele>1404</ele>
        <time>2022-07-16T14:04:53.050Z</time>
      </trkpt>
      <trkpt lat="45.72698" lon="6.9538">
        <ele>1416</ele>
        <time>2022-07-16T14:05:38.510Z</time>
      </trkpt>
      <trkpt lat="45.72639" lon="6.95287">
        <ele>1416</ele>
        <time>2022-07-16T14:05:50.816Z</time>
      </trkpt>
      <trkpt lat="45.72492" lon="6.95091">
        <ele>1432</ele>
        <time>2022-07-16T14:06:51.962Z</time>
      </trkpt>
      <trkpt lat="45.72364" lon="6.94911">
        <ele>1501</ele>
        <time>2022-07-16T14:08:29.014Z</time>
      </trkpt>
      <trkpt lat="45.72243" lon="6.94766">
        <ele>1489</ele>
        <time>2022-07-16T14:08:41.271Z</time>
      </trkpt>
      <trkpt lat="45.72215" lon="6.94746">
        <ele>1468</ele>
        <time>2022-07-16T14:08:43.702Z</time>
      </trkpt>
      <trkpt lat="45.72188" lon="6.9474">
        <ele>1466</ele>
        <time>2022-07-16T14:08:45.825Z</time>
      </trkpt>
      <trkpt lat="45.7217" lon="6.94739">
        <ele>1466</ele>
        <time>2022-07-16T14:08:48.352Z</time>
      </trkpt>
      <trkpt lat="45.72071" lon="6.94753">
        <ele>1444</ele>
        <time>2022-07-16T14:08:56.081Z</time>
      </trkpt>
      <trkpt lat="45.72033" lon="6.94761">
        <ele>1449</ele>
        <time>2022-07-16T14:09:15.929Z</time>
      </trkpt>
      <trkpt lat="45.72017" lon="6.94761">
        <ele>1448</ele>
        <time>2022-07-16T14:09:17.105Z</time>
      </trkpt>
      <trkpt lat="45.71901" lon="6.94724">
        <ele>1439</ele>
        <time>2022-07-16T14:09:26.338Z</time>
      </trkpt>
      <trkpt lat="45.71872" lon="6.94719">
        <ele>1440</ele>
        <time>2022-07-16T14:09:32.307Z</time>
      </trkpt>
      <trkpt lat="45.71859" lon="6.9472">
        <ele>1440</ele>
        <time>2022-07-16T14:09:34.134Z</time>
      </trkpt>
      <trkpt lat="45.71816" lon="6.9474">
        <ele>1442</ele>
        <time>2022-07-16T14:09:44.796Z</time>
      </trkpt>
      <trkpt lat="45.71782" lon="6.94766">
        <ele>1444</ele>
        <time>2022-07-16T14:09:54.368Z</time>
      </trkpt>
      <trkpt lat="45.71734" lon="6.94813">
        <ele>1448</ele>
        <time>2022-07-16T14:10:10.633Z</time>
      </trkpt>
      <trkpt lat="45.71676" lon="6.94876">
        <ele>1452</ele>
        <time>2022-07-16T14:10:29.086Z</time>
      </trkpt>
      <trkpt lat="45.71671" lon="6.94879">
        <ele>1452</ele>
        <time>2022-07-16T14:10:29.847Z</time>
      </trkpt>
      <trkpt lat="45.71664" lon="6.94877">
        <ele>1452</ele>
        <time>2022-07-16T14:10:30.848Z</time>
      </trkpt>
      <trkpt lat="45.71646" lon="6.94784">
        <ele>1452</ele>
        <time>2022-07-16T14:10:40.300Z</time>
      </trkpt>
      <trkpt lat="45.71656" lon="6.94736">
        <ele>1454</ele>
        <time>2022-07-16T14:10:49.302Z</time>
      </trkpt>
      <trkpt lat="45.71675" lon="6.94668">
        <ele>1454</ele>
        <time>2022-07-16T14:10:56.476Z</time>
      </trkpt>
      <trkpt lat="45.71674" lon="6.9465">
        <ele>1454</ele>
        <time>2022-07-16T14:10:58.244Z</time>
      </trkpt>
      <trkpt lat="45.71669" lon="6.94638">
        <ele>1454</ele>
        <time>2022-07-16T14:10:59.613Z</time>
      </trkpt>
      <trkpt lat="45.7166" lon="6.94626">
        <ele>1455</ele>
        <time>2022-07-16T14:11:03.408Z</time>
      </trkpt>
      <trkpt lat="45.71537" lon="6.94523">
        <ele>1466</ele>
        <time>2022-07-16T14:11:45.936Z</time>
      </trkpt>
      <trkpt lat="45.71408" lon="6.94448">
        <ele>1475</ele>
        <time>2022-07-16T14:12:23.709Z</time>
      </trkpt>
      <trkpt lat="45.71326" lon="6.94355">
        <ele>1483</ele>
        <time>2022-07-16T14:12:54.752Z</time>
      </trkpt>
      <trkpt lat="45.7131" lon="6.9433">
        <ele>1485</ele>
        <time>2022-07-16T14:13:02.254Z</time>
      </trkpt>
      <trkpt lat="45.7131" lon="6.94319">
        <ele>1486</ele>
        <time>2022-07-16T14:13:06.224Z</time>
      </trkpt>
      <trkpt lat="45.71335" lon="6.94278">
        <ele>1488</ele>
        <time>2022-07-16T14:13:15.709Z</time>
      </trkpt>
      <trkpt lat="45.71345" lon="6.9427">
        <ele>1488</ele>
        <time>2022-07-16T14:13:17.316Z</time>
      </trkpt>
      <trkpt lat="45.71398" lon="6.9424">
        <ele>1493</ele>
        <time>2022-07-16T14:13:35.886Z</time>
      </trkpt>
      <trkpt lat="45.7142" lon="6.94237">
        <ele>1494</ele>
        <time>2022-07-16T14:13:41.143Z</time>
      </trkpt>
      <trkpt lat="45.71451" lon="6.9425">
        <ele>1493</ele>
        <time>2022-07-16T14:13:44.295Z</time>
      </trkpt>
      <trkpt lat="45.71458" lon="6.9425">
        <ele>1493</ele>
        <time>2022-07-16T14:13:45.277Z</time>
      </trkpt>
      <trkpt lat="45.71483" lon="6.94233">
        <ele>1497</ele>
        <time>2022-07-16T14:14:00.251Z</time>
      </trkpt>
      <trkpt lat="45.71496" lon="6.9423">
        <ele>1498</ele>
        <time>2022-07-16T14:14:04.142Z</time>
      </trkpt>
      <trkpt lat="45.71566" lon="6.94254">
        <ele>1495</ele>
        <time>2022-07-16T14:14:10.462Z</time>
      </trkpt>
      <trkpt lat="45.71571" lon="6.94254">
        <ele>1496</ele>
        <time>2022-07-16T14:14:13.168Z</time>
      </trkpt>
      <trkpt lat="45.71575" lon="6.94251">
        <ele>1496</ele>
        <time>2022-07-16T14:14:13.801Z</time>
      </trkpt>
      <trkpt lat="45.71576" lon="6.94244">
        <ele>1499</ele>
        <time>2022-07-16T14:14:16.500Z</time>
      </trkpt>
      <trkpt lat="45.7157" lon="6.94236">
        <ele>1501</ele>
        <time>2022-07-16T14:14:20.936Z</time>
      </trkpt>
      <trkpt lat="45.71525" lon="6.94215">
        <ele>1504</ele>
        <time>2022-07-16T14:14:33.661Z</time>
      </trkpt>
      <trkpt lat="45.7146" lon="6.94172">
        <ele>1508</ele>
        <time>2022-07-16T14:14:51.924Z</time>
      </trkpt>
      <trkpt lat="45.71407" lon="6.94156">
        <ele>1507</ele>
        <time>2022-07-16T14:14:57.999Z</time>
      </trkpt>
      <trkpt lat="45.71397" lon="6.9415">
        <ele>1508</ele>
        <time>2022-07-16T14:15:01.676Z</time>
      </trkpt>
      <trkpt lat="45.7139" lon="6.94138">
        <ele>1509</ele>
        <time>2022-07-16T14:15:05.357Z</time>
      </trkpt>
      <trkpt lat="45.71367" lon="6.94058">
        <ele>1518</ele>
        <time>2022-07-16T14:15:38.042Z</time>
      </trkpt>
      <trkpt lat="45.71359" lon="6.94038">
        <ele>1519</ele>
        <time>2022-07-16T14:15:42.331Z</time>
      </trkpt>
      <trkpt lat="45.71348" lon="6.9402">
        <ele>1519</ele>
        <time>2022-07-16T14:15:44.674Z</time>
      </trkpt>
      <trkpt lat="45.71309" lon="6.93975">
        <ele>1518</ele>
        <time>2022-07-16T14:15:50.192Z</time>
      </trkpt>
      <trkpt lat="45.71308" lon="6.93964">
        <ele>1520</ele>
        <time>2022-07-16T14:15:54.383Z</time>
      </trkpt>
      <trkpt lat="45.71312" lon="6.93958">
        <ele>1522</ele>
        <time>2022-07-16T14:15:57.517Z</time>
      </trkpt>
      <trkpt lat="45.71324" lon="6.93962">
        <ele>1524</ele>
        <time>2022-07-16T14:16:04.183Z</time>
      </trkpt>
      <trkpt lat="45.71372" lon="6.93994">
        <ele>1528</ele>
        <time>2022-07-16T14:16:19.781Z</time>
      </trkpt>
      <trkpt lat="45.71409" lon="6.94035">
        <ele>1528</ele>
        <time>2022-07-16T14:16:26.343Z</time>
      </trkpt>
      <trkpt lat="45.71437" lon="6.94056">
        <ele>1529</ele>
        <time>2022-07-16T14:16:32.586Z</time>
      </trkpt>
      <trkpt lat="45.71452" lon="6.94063">
        <ele>1530</ele>
        <time>2022-07-16T14:16:36.828Z</time>
      </trkpt>
      <trkpt lat="45.7148" lon="6.94071">
        <ele>1532</ele>
        <time>2022-07-16T14:16:44.890Z</time>
      </trkpt>
      <trkpt lat="45.71486" lon="6.94075">
        <ele>1532</ele>
        <time>2022-07-16T14:16:45.818Z</time>
      </trkpt>
      <trkpt lat="45.71509" lon="6.94094">
        <ele>1532</ele>
        <time>2022-07-16T14:16:49.543Z</time>
      </trkpt>
      <trkpt lat="45.71539" lon="6.94136">
        <ele>1527</ele>
        <time>2022-07-16T14:16:52.802Z</time>
      </trkpt>
      <trkpt lat="45.71547" lon="6.94135">
        <ele>1529</ele>
        <time>2022-07-16T14:16:57.147Z</time>
      </trkpt>
      <trkpt lat="45.71551" lon="6.94131">
        <ele>1531</ele>
        <time>2022-07-16T14:16:59.787Z</time>
      </trkpt>
      <trkpt lat="45.71553" lon="6.94123">
        <ele>1534</ele>
        <time>2022-07-16T14:17:02.997Z</time>
      </trkpt>
      <trkpt lat="45.71551" lon="6.94112">
        <ele>1537</ele>
        <time>2022-07-16T14:17:07.291Z</time>
      </trkpt>
      <trkpt lat="45.71522" lon="6.94062">
        <ele>1544</ele>
        <time>2022-07-16T14:17:31.847Z</time>
      </trkpt>
      <trkpt lat="45.71494" lon="6.94027">
        <ele>1546</ele>
        <time>2022-07-16T14:17:41.197Z</time>
      </trkpt>
      <trkpt lat="45.71483" lon="6.94022">
        <ele>1545</ele>
        <time>2022-07-16T14:17:42.093Z</time>
      </trkpt>
      <trkpt lat="45.71454" lon="6.94023">
        <ele>1539</ele>
        <time>2022-07-16T14:17:44.347Z</time>
      </trkpt>
      <trkpt lat="45.71412" lon="6.93972">
        <ele>1544</ele>
        <time>2022-07-16T14:18:02.782Z</time>
      </trkpt>
      <trkpt lat="45.71385" lon="6.93935">
        <ele>1547</ele>
        <time>2022-07-16T14:18:14.216Z</time>
      </trkpt>
      <trkpt lat="45.71339" lon="6.93834">
        <ele>1562</ele>
        <time>2022-07-16T14:18:59.773Z</time>
      </trkpt>
      <trkpt lat="45.713" lon="6.93762">
        <ele>1566</ele>
        <time>2022-07-16T14:19:16.817Z</time>
      </trkpt>
      <trkpt lat="45.71287" lon="6.93743">
        <ele>1567</ele>
        <time>2022-07-16T14:19:21.490Z</time>
      </trkpt>
      <trkpt lat="45.71224" lon="6.93683">
        <ele>1560</ele>
        <time>2022-07-16T14:19:27.369Z</time>
      </trkpt>
      <trkpt lat="45.712" lon="6.93655">
        <ele>1559</ele>
        <time>2022-07-16T14:19:30.348Z</time>
      </trkpt>
      <trkpt lat="45.71199" lon="6.9364">
        <ele>1561</ele>
        <time>2022-07-16T14:19:36.041Z</time>
      </trkpt>
      <trkpt lat="45.71206" lon="6.93622">
        <ele>1566</ele>
        <time>2022-07-16T14:19:43.825Z</time>
      </trkpt>
      <trkpt lat="45.71215" lon="6.93618">
        <ele>1569</ele>
        <time>2022-07-16T14:19:48.923Z</time>
      </trkpt>
      <trkpt lat="45.71223" lon="6.93621">
        <ele>1570</ele>
        <time>2022-07-16T14:19:52.713Z</time>
      </trkpt>
      <trkpt lat="45.71256" lon="6.93648">
        <ele>1575</ele>
        <time>2022-07-16T14:20:12.734Z</time>
      </trkpt>
      <trkpt lat="45.71308" lon="6.93679">
        <ele>1583</ele>
        <time>2022-07-16T14:20:43.209Z</time>
      </trkpt>
      <trkpt lat="45.71318" lon="6.93692">
        <ele>1583</ele>
        <time>2022-07-16T14:20:45.104Z</time>
      </trkpt>
      <trkpt lat="45.7134" lon="6.93751">
        <ele>1579</ele>
        <time>2022-07-16T14:20:48.732Z</time>
      </trkpt>
      <trkpt lat="45.71344" lon="6.93755">
        <ele>1579</ele>
        <time>2022-07-16T14:20:49.417Z</time>
      </trkpt>
      <trkpt lat="45.7135" lon="6.93753">
        <ele>1582</ele>
        <time>2022-07-16T14:20:52.750Z</time>
      </trkpt>
      <trkpt lat="45.71351" lon="6.93742">
        <ele>1584</ele>
        <time>2022-07-16T14:20:56.941Z</time>
      </trkpt>
      <trkpt lat="45.71333" lon="6.93687">
        <ele>1588</ele>
        <time>2022-07-16T14:21:11.600Z</time>
      </trkpt>
      <trkpt lat="45.71295" lon="6.93587">
        <ele>1591</ele>
        <time>2022-07-16T14:21:28.642Z</time>
      </trkpt>
      <trkpt lat="45.71273" lon="6.93537">
        <ele>1593</ele>
        <time>2022-07-16T14:21:38.663Z</time>
      </trkpt>
      <trkpt lat="45.71262" lon="6.93518">
        <ele>1593</ele>
        <time>2022-07-16T14:21:41.081Z</time>
      </trkpt>
      <trkpt lat="45.71215" lon="6.93452">
        <ele>1588</ele>
        <time>2022-07-16T14:21:46.195Z</time>
      </trkpt>
      <trkpt lat="45.71203" lon="6.9343">
        <ele>1587</ele>
        <time>2022-07-16T14:21:47.765Z</time>
      </trkpt>
      <trkpt lat="45.71188" lon="6.93388">
        <ele>1587</ele>
        <time>2022-07-16T14:21:52.386Z</time>
      </trkpt>
      <trkpt lat="45.71134" lon="6.93199">
        <ele>1602</ele>
        <time>2022-07-16T14:22:47.176Z</time>
      </trkpt>
      <trkpt lat="45.71125" lon="6.93184">
        <ele>1604</ele>
        <time>2022-07-16T14:22:54.648Z</time>
      </trkpt>
      <trkpt lat="45.711" lon="6.93155">
        <ele>1608</ele>
        <time>2022-07-16T14:23:10.031Z</time>
      </trkpt>
      <trkpt lat="45.71084" lon="6.93106">
        <ele>1615</ele>
        <time>2022-07-16T14:23:30.468Z</time>
      </trkpt>
      <trkpt lat="45.71079" lon="6.93099">
        <ele>1617</ele>
        <time>2022-07-16T14:23:34.251Z</time>
      </trkpt>
      <trkpt lat="45.71072" lon="6.93093">
        <ele>1620</ele>
        <time>2022-07-16T14:23:38.665Z</time>
      </trkpt>
      <trkpt lat="45.71062" lon="6.93091">
        <ele>1624</ele>
        <time>2022-07-16T14:23:44.128Z</time>
      </trkpt>
      <trkpt lat="45.71052" lon="6.93101">
        <ele>1626</ele>
        <time>2022-07-16T14:23:50.728Z</time>
      </trkpt>
      <trkpt lat="45.71049" lon="6.93114">
        <ele>1625</ele>
        <time>2022-07-16T14:23:51.470Z</time>
      </trkpt>
      <trkpt lat="45.71044" lon="6.93189">
        <ele>1620</ele>
        <time>2022-07-16T14:23:55.558Z</time>
      </trkpt>
      <trkpt lat="45.71038" lon="6.93222">
        <ele>1621</ele>
        <time>2022-07-16T14:24:00.986Z</time>
      </trkpt>
      <trkpt lat="45.71028" lon="6.93237">
        <ele>1624</ele>
        <time>2022-07-16T14:24:08.822Z</time>
      </trkpt>
      <trkpt lat="45.71007" lon="6.93251">
        <ele>1633</ele>
        <time>2022-07-16T14:24:21.355Z</time>
      </trkpt>
      <trkpt lat="45.70999" lon="6.93266">
        <ele>1635</ele>
        <time>2022-07-16T14:24:28.486Z</time>
      </trkpt>
      <trkpt lat="45.70994" lon="6.93278">
        <ele>1636</ele>
        <time>2022-07-16T14:24:32.134Z</time>
      </trkpt>
      <trkpt lat="45.70985" lon="6.93333">
        <ele>1634</ele>
        <time>2022-07-16T14:24:35.328Z</time>
      </trkpt>
      <trkpt lat="45.70975" lon="6.93367">
        <ele>1633</ele>
        <time>2022-07-16T14:24:37.652Z</time>
      </trkpt>
      <trkpt lat="45.70948" lon="6.9342">
        <ele>1636</ele>
        <time>2022-07-16T14:24:50.158Z</time>
      </trkpt>
      <trkpt lat="45.70944" lon="6.93421">
        <ele>1638</ele>
        <time>2022-07-16T14:24:52.355Z</time>
      </trkpt>
      <trkpt lat="45.70942" lon="6.93418">
        <ele>1639</ele>
        <time>2022-07-16T14:24:53.922Z</time>
      </trkpt>
      <trkpt lat="45.70944" lon="6.93398">
        <ele>1641</ele>
        <time>2022-07-16T14:25:01.555Z</time>
      </trkpt>
      <trkpt lat="45.70967" lon="6.9332">
        <ele>1642</ele>
        <time>2022-07-16T14:25:11.370Z</time>
      </trkpt>
      <trkpt lat="45.70969" lon="6.93306">
        <ele>1643</ele>
        <time>2022-07-16T14:25:15.017Z</time>
      </trkpt>
      <trkpt lat="45.70971" lon="6.9327">
        <ele>1646</ele>
        <time>2022-07-16T14:25:26.302Z</time>
      </trkpt>
      <trkpt lat="45.7097" lon="6.93227">
        <ele>1650</ele>
        <time>2022-07-16T14:25:42.489Z</time>
      </trkpt>
      <trkpt lat="45.70961" lon="6.93149">
        <ele>1658</ele>
        <time>2022-07-16T14:26:12.358Z</time>
      </trkpt>
      <trkpt lat="45.70962" lon="6.93138">
        <ele>1658</ele>
        <time>2022-07-16T14:26:13.445Z</time>
      </trkpt>
      <trkpt lat="45.70977" lon="6.93092">
        <ele>1654</ele>
        <time>2022-07-16T14:26:16.199Z</time>
      </trkpt>
      <trkpt lat="45.70985" lon="6.93047">
        <ele>1652</ele>
        <time>2022-07-16T14:26:18.598Z</time>
      </trkpt>
      <trkpt lat="45.70984" lon="6.93038">
        <ele>1653</ele>
        <time>2022-07-16T14:26:22.041Z</time>
      </trkpt>
      <trkpt lat="45.70979" lon="6.93033">
        <ele>1656</ele>
        <time>2022-07-16T14:26:25.341Z</time>
      </trkpt>
      <trkpt lat="45.70975" lon="6.93034">
        <ele>1657</ele>
        <time>2022-07-16T14:26:27.538Z</time>
      </trkpt>
      <trkpt lat="45.70971" lon="6.93044">
        <ele>1659</ele>
        <time>2022-07-16T14:26:31.892Z</time>
      </trkpt>
      <trkpt lat="45.70968" lon="6.93083">
        <ele>1659</ele>
        <time>2022-07-16T14:26:35.735Z</time>
      </trkpt>
      <trkpt lat="45.70947" lon="6.93143">
        <ele>1665</ele>
        <time>2022-07-16T14:26:59.254Z</time>
      </trkpt>
      <trkpt lat="45.70942" lon="6.93192">
        <ele>1664</ele>
        <time>2022-07-16T14:27:02.702Z</time>
      </trkpt>
      <trkpt lat="45.70935" lon="6.93218">
        <ele>1665</ele>
        <time>2022-07-16T14:27:07.518Z</time>
      </trkpt>
      <trkpt lat="45.70902" lon="6.93284">
        <ele>1670</ele>
        <time>2022-07-16T14:27:26.065Z</time>
      </trkpt>
      <trkpt lat="45.70893" lon="6.93295">
        <ele>1672</ele>
        <time>2022-07-16T14:27:32.467Z</time>
      </trkpt>
      <trkpt lat="45.70868" lon="6.93317">
        <ele>1678</ele>
        <time>2022-07-16T14:27:48.343Z</time>
      </trkpt>
      <trkpt lat="45.70855" lon="6.93343">
        <ele>1682</ele>
        <time>2022-07-16T14:28:00.426Z</time>
      </trkpt>
      <trkpt lat="45.70849" lon="6.93345">
        <ele>1684</ele>
        <time>2022-07-16T14:28:03.759Z</time>
      </trkpt>
      <trkpt lat="45.70843" lon="6.93339">
        <ele>1686</ele>
        <time>2022-07-16T14:28:07.718Z</time>
      </trkpt>
      <trkpt lat="45.70843" lon="6.93325">
        <ele>1687</ele>
        <time>2022-07-16T14:28:11.366Z</time>
      </trkpt>
      <trkpt lat="45.70873" lon="6.9327">
        <ele>1680</ele>
        <time>2022-07-16T14:28:15.152Z</time>
      </trkpt>
      <trkpt lat="45.70889" lon="6.93191">
        <ele>1682</ele>
        <time>2022-07-16T14:28:26.983Z</time>
      </trkpt>
      <trkpt lat="45.7089" lon="6.93125">
        <ele>1688</ele>
        <time>2022-07-16T14:28:50.797Z</time>
      </trkpt>
      <trkpt lat="45.70897" lon="6.93078">
        <ele>1690</ele>
        <time>2022-07-16T14:28:59.580Z</time>
      </trkpt>
      <trkpt lat="45.70898" lon="6.93053">
        <ele>1690</ele>
        <time>2022-07-16T14:29:02.033Z</time>
      </trkpt>
      <trkpt lat="45.70892" lon="6.92945">
        <ele>1695</ele>
        <time>2022-07-16T14:29:22.777Z</time>
      </trkpt>
      <trkpt lat="45.70889" lon="6.9293">
        <ele>1697</ele>
        <time>2022-07-16T14:29:28.672Z</time>
      </trkpt>
      <trkpt lat="45.70885" lon="6.92927">
        <ele>1698</ele>
        <time>2022-07-16T14:29:31.115Z</time>
      </trkpt>
      <trkpt lat="45.70878" lon="6.92926">
        <ele>1700</ele>
        <time>2022-07-16T14:29:34.922Z</time>
      </trkpt>
      <trkpt lat="45.70876" lon="6.92931">
        <ele>1701</ele>
        <time>2022-07-16T14:29:37.099Z</time>
      </trkpt>
      <trkpt lat="45.70877" lon="6.92986">
        <ele>1700</ele>
        <time>2022-07-16T14:29:41.050Z</time>
      </trkpt>
      <trkpt lat="45.70874" lon="6.93009">
        <ele>1700</ele>
        <time>2022-07-16T14:29:43.342Z</time>
      </trkpt>
      <trkpt lat="45.70855" lon="6.93042">
        <ele>1704</ele>
        <time>2022-07-16T14:29:59.502Z</time>
      </trkpt>
      <trkpt lat="45.70784" lon="6.93146">
        <ele>1725</ele>
        <time>2022-07-16T14:30:54.455Z</time>
      </trkpt>
      <trkpt lat="45.70777" lon="6.93216">
        <ele>1722</ele>
        <time>2022-07-16T14:30:58.135Z</time>
      </trkpt>
      <trkpt lat="45.70768" lon="6.93383">
        <ele>1724</ele>
        <time>2022-07-16T14:31:17.590Z</time>
      </trkpt>
      <trkpt lat="45.70766" lon="6.93388">
        <ele>1725</ele>
        <time>2022-07-16T14:31:19.767Z</time>
      </trkpt>
      <trkpt lat="45.7076" lon="6.93389">
        <ele>1728</ele>
        <time>2022-07-16T14:31:23.035Z</time>
      </trkpt>
      <trkpt lat="45.70759" lon="6.93385">
        <ele>1728</ele>
        <time>2022-07-16T14:31:23.451Z</time>
      </trkpt>
      <trkpt lat="45.70744" lon="6.93119">
        <ele>1746</ele>
        <time>2022-07-16T14:32:29.245Z</time>
      </trkpt>
      <trkpt lat="45.70749" lon="6.93045">
        <ele>1750</ele>
        <time>2022-07-16T14:32:44.722Z</time>
      </trkpt>
      <trkpt lat="45.70756" lon="6.92999">
        <ele>1750</ele>
        <time>2022-07-16T14:32:49.334Z</time>
      </trkpt>
      <trkpt lat="45.70761" lon="6.92943">
        <ele>1752</ele>
        <time>2022-07-16T14:32:59.050Z</time>
      </trkpt>
      <trkpt lat="45.70763" lon="6.92868">
        <ele>1755</ele>
        <time>2022-07-16T14:33:12.546Z</time>
      </trkpt>
      <trkpt lat="45.70759" lon="6.9276">
        <ele>1767</ele>
        <time>2022-07-16T14:33:53.410Z</time>
      </trkpt>
      <trkpt lat="45.7076" lon="6.9269">
        <ele>1771</ele>
        <time>2022-07-16T14:34:08.560Z</time>
      </trkpt>
      <trkpt lat="45.70756" lon="6.92644">
        <ele>1774</ele>
        <time>2022-07-16T14:34:19.582Z</time>
      </trkpt>
      <trkpt lat="45.70728" lon="6.92592">
        <ele>1783</ele>
        <time>2022-07-16T14:34:44.392Z</time>
      </trkpt>
      <trkpt lat="45.70727" lon="6.92585">
        <ele>1784</ele>
        <time>2022-07-16T14:34:47.092Z</time>
      </trkpt>
      <trkpt lat="45.70733" lon="6.92573">
        <ele>1781</ele>
        <time>2022-07-16T14:34:47.893Z</time>
      </trkpt>
      <trkpt lat="45.70758" lon="6.92561">
        <ele>1771</ele>
        <time>2022-07-16T14:34:49.941Z</time>
      </trkpt>
      <trkpt lat="45.70763" lon="6.92552">
        <ele>1769</ele>
        <time>2022-07-16T14:34:50.565Z</time>
      </trkpt>
      <trkpt lat="45.70763" lon="6.92539">
        <ele>1769</ele>
        <time>2022-07-16T14:34:51.838Z</time>
      </trkpt>
      <trkpt lat="45.70743" lon="6.92441">
        <ele>1775</ele>
        <time>2022-07-16T14:35:14.368Z</time>
      </trkpt>
      <trkpt lat="45.70723" lon="6.92364">
        <ele>1790</ele>
        <time>2022-07-16T14:35:45.409Z</time>
      </trkpt>
      <trkpt lat="45.70722" lon="6.92349">
        <ele>1792</ele>
        <time>2022-07-16T14:35:51.103Z</time>
      </trkpt>
      <trkpt lat="45.70724" lon="6.92314">
        <ele>1798</ele>
        <time>2022-07-16T14:36:04.371Z</time>
      </trkpt>
      <trkpt lat="45.70737" lon="6.92291">
        <ele>1799</ele>
        <time>2022-07-16T14:36:09.387Z</time>
      </trkpt>
      <trkpt lat="45.70741" lon="6.92287">
        <ele>1798</ele>
        <time>2022-07-16T14:36:09.766Z</time>
      </trkpt>
      <trkpt lat="45.70748" lon="6.92289">
        <ele>1795</ele>
        <time>2022-07-16T14:36:10.320Z</time>
      </trkpt>
      <trkpt lat="45.70766" lon="6.92309">
        <ele>1784</ele>
        <time>2022-07-16T14:36:12.090Z</time>
      </trkpt>
      <trkpt lat="45.70771" lon="6.92308">
        <ele>1782</ele>
        <time>2022-07-16T14:36:12.483Z</time>
      </trkpt>
      <trkpt lat="45.70776" lon="6.92303">
        <ele>1781</ele>
        <time>2022-07-16T14:36:12.956Z</time>
      </trkpt>
      <trkpt lat="45.70777" lon="6.92292">
        <ele>1783</ele>
        <time>2022-07-16T14:36:17.148Z</time>
      </trkpt>
      <trkpt lat="45.70758" lon="6.92197">
        <ele>1802</ele>
        <time>2022-07-16T14:36:54.485Z</time>
      </trkpt>
      <trkpt lat="45.70743" lon="6.92105">
        <ele>1804</ele>
        <time>2022-07-16T14:37:07.297Z</time>
      </trkpt>
      <trkpt lat="45.70736" lon="6.92096">
        <ele>1805</ele>
        <time>2022-07-16T14:37:10.954Z</time>
      </trkpt>
      <trkpt lat="45.70723" lon="6.9209">
        <ele>1808</ele>
        <time>2022-07-16T14:37:18.344Z</time>
      </trkpt>
      <trkpt lat="45.70684" lon="6.92089">
        <ele>1817</ele>
        <time>2022-07-16T14:37:39.449Z</time>
      </trkpt>
      <trkpt lat="45.70677" lon="6.92082">
        <ele>1819</ele>
        <time>2022-07-16T14:37:44.068Z</time>
      </trkpt>
      <trkpt lat="45.70673" lon="6.92073">
        <ele>1821</ele>
        <time>2022-07-16T14:37:48.099Z</time>
      </trkpt>
      <trkpt lat="45.70673" lon="6.92064">
        <ele>1823</ele>
        <time>2022-07-16T14:37:51.500Z</time>
      </trkpt>
      <trkpt lat="45.70674" lon="6.92059">
        <ele>1823</ele>
        <time>2022-07-16T14:37:52.009Z</time>
      </trkpt>
      <trkpt lat="45.70681" lon="6.9205">
        <ele>1823</ele>
        <time>2022-07-16T14:37:53.329Z</time>
      </trkpt>
      <trkpt lat="45.70694" lon="6.92046">
        <ele>1820</ele>
        <time>2022-07-16T14:37:54.362Z</time>
      </trkpt>
      <trkpt lat="45.70708" lon="6.92046">
        <ele>1817</ele>
        <time>2022-07-16T14:37:55.450Z</time>
      </trkpt>
      <trkpt lat="45.70723" lon="6.92041">
        <ele>1813</ele>
        <time>2022-07-16T14:37:56.646Z</time>
      </trkpt>
      <trkpt lat="45.70735" lon="6.92021">
        <ele>1813</ele>
        <time>2022-07-16T14:37:59.229Z</time>
      </trkpt>
      <trkpt lat="45.70736" lon="6.91955">
        <ele>1822</ele>
        <time>2022-07-16T14:38:24.172Z</time>
      </trkpt>
      <trkpt lat="45.7074" lon="6.91894">
        <ele>1827</ele>
        <time>2022-07-16T14:38:42.849Z</time>
      </trkpt>
      <trkpt lat="45.70739" lon="6.9183">
        <ele>1833</ele>
        <time>2022-07-16T14:39:07.037Z</time>
      </trkpt>
      <trkpt lat="45.70741" lon="6.91823">
        <ele>1833</ele>
        <time>2022-07-16T14:39:07.777Z</time>
      </trkpt>
      <trkpt lat="45.70743" lon="6.91821">
        <ele>1833</ele>
        <time>2022-07-16T14:39:08.120Z</time>
      </trkpt>
      <trkpt lat="45.70756" lon="6.9182">
        <ele>1830</ele>
        <time>2022-07-16T14:39:09.131Z</time>
      </trkpt>
      <trkpt lat="45.70779" lon="6.91826">
        <ele>1828</ele>
        <time>2022-07-16T14:39:10.948Z</time>
      </trkpt>
      <trkpt lat="45.70784" lon="6.91825">
        <ele>1828</ele>
        <time>2022-07-16T14:39:11.656Z</time>
      </trkpt>
      <trkpt lat="45.70791" lon="6.91822">
        <ele>1828</ele>
        <time>2022-07-16T14:39:12.681Z</time>
      </trkpt>
      <trkpt lat="45.70808" lon="6.91803">
        <ele>1829</ele>
        <time>2022-07-16T14:39:17.847Z</time>
      </trkpt>
      <trkpt lat="45.70818" lon="6.91796">
        <ele>1829</ele>
        <time>2022-07-16T14:39:19.409Z</time>
      </trkpt>
      <trkpt lat="45.7083" lon="6.91795">
        <ele>1828</ele>
        <time>2022-07-16T14:39:20.343Z</time>
      </trkpt>
      <trkpt lat="45.70854" lon="6.91799">
        <ele>1827</ele>
        <time>2022-07-16T14:39:22.470Z</time>
      </trkpt>
      <trkpt lat="45.7086" lon="6.91798">
        <ele>1827</ele>
        <time>2022-07-16T14:39:23.317Z</time>
      </trkpt>
      <trkpt lat="45.70874" lon="6.91789">
        <ele>1828</ele>
        <time>2022-07-16T14:39:27.497Z</time>
      </trkpt>
      <trkpt lat="45.70903" lon="6.91756">
        <ele>1831</ele>
        <time>2022-07-16T14:39:38.897Z</time>
      </trkpt>
      <trkpt lat="45.70913" lon="6.91739">
        <ele>1832</ele>
        <time>2022-07-16T14:39:43.102Z</time>
      </trkpt>
      <trkpt lat="45.70921" lon="6.91688">
        <ele>1833</ele>
        <time>2022-07-16T14:39:49.937Z</time>
      </trkpt>
      <trkpt lat="45.7091" lon="6.91568">
        <ele>1842</ele>
        <time>2022-07-16T14:40:22.849Z</time>
      </trkpt>
      <trkpt lat="45.7091" lon="6.91546">
        <ele>1843</ele>
        <time>2022-07-16T14:40:27.030Z</time>
      </trkpt>
      <trkpt lat="45.70923" lon="6.91422">
        <ele>1848</ele>
        <time>2022-07-16T14:40:49.555Z</time>
      </trkpt>
      <trkpt lat="45.70926" lon="6.91407">
        <ele>1848</ele>
        <time>2022-07-16T14:40:51.084Z</time>
      </trkpt>
      <trkpt lat="45.70932" lon="6.91399">
        <ele>1848</ele>
        <time>2022-07-16T14:40:52.234Z</time>
      </trkpt>
      <trkpt lat="45.70963" lon="6.91392">
        <ele>1844</ele>
        <time>2022-07-16T14:40:54.672Z</time>
      </trkpt>
      <trkpt lat="45.70974" lon="6.91377">
        <ele>1843</ele>
        <time>2022-07-16T14:40:55.760Z</time>
      </trkpt>
      <trkpt lat="45.7099" lon="6.91311">
        <ele>1847</ele>
        <time>2022-07-16T14:41:10.900Z</time>
      </trkpt>
      <trkpt lat="45.71005" lon="6.91277">
        <ele>1848</ele>
        <time>2022-07-16T14:41:16.746Z</time>
      </trkpt>
      <trkpt lat="45.71008" lon="6.91262">
        <ele>1848</ele>
        <time>2022-07-16T14:41:18.274Z</time>
      </trkpt>
      <trkpt lat="45.71003" lon="6.91242">
        <ele>1851</ele>
        <time>2022-07-16T14:41:26.300Z</time>
      </trkpt>
      <trkpt lat="45.70962" lon="6.91148">
        <ele>1863</ele>
        <time>2022-07-16T14:42:08.175Z</time>
      </trkpt>
      <trkpt lat="45.70959" lon="6.9113">
        <ele>1864</ele>
        <time>2022-07-16T14:42:12.037Z</time>
      </trkpt>
      <trkpt lat="45.70969" lon="6.90956">
        <ele>1860</ele>
        <time>2022-07-16T14:42:23.710Z</time>
      </trkpt>
      <trkpt lat="45.70968" lon="6.90941">
        <ele>1860</ele>
        <time>2022-07-16T14:42:25.186Z</time>
      </trkpt>
      <trkpt lat="45.70963" lon="6.90927">
        <ele>1861</ele>
        <time>2022-07-16T14:42:28.871Z</time>
      </trkpt>
      <trkpt lat="45.70956" lon="6.9092">
        <ele>1862</ele>
        <time>2022-07-16T14:42:32.609Z</time>
      </trkpt>
      <trkpt lat="45.70946" lon="6.90921">
        <ele>1863</ele>
        <time>2022-07-16T14:42:36.257Z</time>
      </trkpt>
      <trkpt lat="45.7094" lon="6.90927">
        <ele>1865</ele>
        <time>2022-07-16T14:42:40.217Z</time>
      </trkpt>
      <trkpt lat="45.70939" lon="6.90943">
        <ele>1866</ele>
        <time>2022-07-16T14:42:43.918Z</time>
      </trkpt>
      <trkpt lat="45.70942" lon="6.90978">
        <ele>1867</ele>
        <time>2022-07-16T14:42:49.418Z</time>
      </trkpt>
      <trkpt lat="45.7093" lon="6.91134">
        <ele>1873</ele>
        <time>2022-07-16T14:43:17.162Z</time>
      </trkpt>
      <trkpt lat="45.70924" lon="6.91155">
        <ele>1874</ele>
        <time>2022-07-16T14:43:21.414Z</time>
      </trkpt>
      <trkpt lat="45.70854" lon="6.91238">
        <ele>1885</ele>
        <time>2022-07-16T14:44:03.115Z</time>
      </trkpt>
      <trkpt lat="45.7083" lon="6.91303">
        <ele>1880</ele>
        <time>2022-07-16T14:44:07.104Z</time>
      </trkpt>
      <trkpt lat="45.70821" lon="6.91316">
        <ele>1881</ele>
        <time>2022-07-16T14:44:10.951Z</time>
      </trkpt>
      <trkpt lat="45.708" lon="6.91339">
        <ele>1885</ele>
        <time>2022-07-16T14:44:25.255Z</time>
      </trkpt>
      <trkpt lat="45.70768" lon="6.91354">
        <ele>1893</ele>
        <time>2022-07-16T14:44:43.473Z</time>
      </trkpt>
      <trkpt lat="45.70758" lon="6.91363">
        <ele>1895</ele>
        <time>2022-07-16T14:44:49.864Z</time>
      </trkpt>
      <trkpt lat="45.70739" lon="6.9139">
        <ele>1896</ele>
        <time>2022-07-16T14:44:55.572Z</time>
      </trkpt>
      <trkpt lat="45.70726" lon="6.91415">
        <ele>1896</ele>
        <time>2022-07-16T14:44:58.626Z</time>
      </trkpt>
      <trkpt lat="45.70716" lon="6.91481">
        <ele>1892</ele>
        <time>2022-07-16T14:45:02.290Z</time>
      </trkpt>
      <trkpt lat="45.70708" lon="6.91494">
        <ele>1892</ele>
        <time>2022-07-16T14:45:03.987Z</time>
      </trkpt>
      <trkpt lat="45.70699" lon="6.91497">
        <ele>1894</ele>
        <time>2022-07-16T14:45:08.987Z</time>
      </trkpt>
      <trkpt lat="45.70694" lon="6.91496">
        <ele>1895</ele>
        <time>2022-07-16T14:45:11.718Z</time>
      </trkpt>
      <trkpt lat="45.70687" lon="6.91489">
        <ele>1897</ele>
        <time>2022-07-16T14:45:16.338Z</time>
      </trkpt>
      <trkpt lat="45.70685" lon="6.91471">
        <ele>1900</ele>
        <time>2022-07-16T14:45:23.225Z</time>
      </trkpt>
      <trkpt lat="45.70689" lon="6.91457">
        <ele>1901</ele>
        <time>2022-07-16T14:45:26.888Z</time>
      </trkpt>
      <trkpt lat="45.70702" lon="6.91446">
        <ele>1899</ele>
        <time>2022-07-16T14:45:28.061Z</time>
      </trkpt>
      <trkpt lat="45.70709" lon="6.91432">
        <ele>1899</ele>
        <time>2022-07-16T14:45:29.748Z</time>
      </trkpt>
      <trkpt lat="45.70708" lon="6.91366">
        <ele>1908</ele>
        <time>2022-07-16T14:45:54.691Z</time>
      </trkpt>
      <trkpt lat="45.70713" lon="6.91339">
        <ele>1911</ele>
        <time>2022-07-16T14:46:05.245Z</time>
      </trkpt>
      <trkpt lat="45.70739" lon="6.91294">
        <ele>1916</ele>
        <time>2022-07-16T14:46:24.323Z</time>
      </trkpt>
      <trkpt lat="45.7076" lon="6.91271">
        <ele>1916</ele>
        <time>2022-07-16T14:46:28.032Z</time>
      </trkpt>
      <trkpt lat="45.70765" lon="6.91261">
        <ele>1916</ele>
        <time>2022-07-16T14:46:29.237Z</time>
      </trkpt>
      <trkpt lat="45.70806" lon="6.9116">
        <ele>1924</ele>
        <time>2022-07-16T14:46:58.445Z</time>
      </trkpt>
      <trkpt lat="45.70834" lon="6.91068">
        <ele>1927</ele>
        <time>2022-07-16T14:47:14.617Z</time>
      </trkpt>
      <trkpt lat="45.70833" lon="6.9105">
        <ele>1931</ele>
        <time>2022-07-16T14:47:21.439Z</time>
      </trkpt>
      <trkpt lat="45.70831" lon="6.91049">
        <ele>1932</ele>
        <time>2022-07-16T14:47:22.585Z</time>
      </trkpt>
      <trkpt lat="45.70826" lon="6.91052">
        <ele>1935</ele>
        <time>2022-07-16T14:47:25.519Z</time>
      </trkpt>
      <trkpt lat="45.70797" lon="6.91135">
        <ele>1935</ele>
        <time>2022-07-16T14:47:34.610Z</time>
      </trkpt>
      <trkpt lat="45.70757" lon="6.91207">
        <ele>1935</ele>
        <time>2022-07-16T14:47:43.622Z</time>
      </trkpt>
      <trkpt lat="45.70749" lon="6.91214">
        <ele>1937</ele>
        <time>2022-07-16T14:47:48.695Z</time>
      </trkpt>
      <trkpt lat="45.70709" lon="6.91227">
        <ele>1945</ele>
        <time>2022-07-16T14:48:10.888Z</time>
      </trkpt>
      <trkpt lat="45.70699" lon="6.91234">
        <ele>1945</ele>
        <time>2022-07-16T14:48:12.450Z</time>
      </trkpt>
      <trkpt lat="45.70677" lon="6.91266">
        <ele>1941</ele>
        <time>2022-07-16T14:48:14.886Z</time>
      </trkpt>
      <trkpt lat="45.70667" lon="6.91269">
        <ele>1942</ele>
        <time>2022-07-16T14:48:18.537Z</time>
      </trkpt>
      <trkpt lat="45.70654" lon="6.91269">
        <ele>1943</ele>
        <time>2022-07-16T14:48:22.409Z</time>
      </trkpt>
      <trkpt lat="45.70649" lon="6.91271">
        <ele>1943</ele>
        <time>2022-07-16T14:48:23.137Z</time>
      </trkpt>
      <trkpt lat="45.70631" lon="6.91287">
        <ele>1939</ele>
        <time>2022-07-16T14:48:24.783Z</time>
      </trkpt>
      <trkpt lat="45.70619" lon="6.91288">
        <ele>1939</ele>
        <time>2022-07-16T14:48:26.469Z</time>
      </trkpt>
      <trkpt lat="45.70605" lon="6.91277">
        <ele>1943</ele>
        <time>2022-07-16T14:48:35.110Z</time>
      </trkpt>
      <trkpt lat="45.7057" lon="6.9124">
        <ele>1955</ele>
        <time>2022-07-16T14:48:58.648Z</time>
      </trkpt>
      <trkpt lat="45.7054" lon="6.91178">
        <ele>1965</ele>
        <time>2022-07-16T14:49:27.149Z</time>
      </trkpt>
      <trkpt lat="45.70523" lon="6.91159">
        <ele>1966</ele>
        <time>2022-07-16T14:49:32.316Z</time>
      </trkpt>
      <trkpt lat="45.70511" lon="6.91153">
        <ele>1966</ele>
        <time>2022-07-16T14:49:34.099Z</time>
      </trkpt>
      <trkpt lat="45.705" lon="6.91152">
        <ele>1964</ele>
        <time>2022-07-16T14:49:34.955Z</time>
      </trkpt>
      <trkpt lat="45.70494" lon="6.91155">
        <ele>1962</ele>
        <time>2022-07-16T14:49:35.449Z</time>
      </trkpt>
      <trkpt lat="45.70478" lon="6.91176">
        <ele>1956</ele>
        <time>2022-07-16T14:49:37.135Z</time>
      </trkpt>
      <trkpt lat="45.70469" lon="6.91176">
        <ele>1955</ele>
        <time>2022-07-16T14:49:37.834Z</time>
      </trkpt>
      <trkpt lat="45.70461" lon="6.91169">
        <ele>1956</ele>
        <time>2022-07-16T14:49:41.492Z</time>
      </trkpt>
      <trkpt lat="45.7043" lon="6.91111">
        <ele>1966</ele>
        <time>2022-07-16T14:50:09.090Z</time>
      </trkpt>
      <trkpt lat="45.70393" lon="6.91012">
        <ele>1981</ele>
        <time>2022-07-16T14:50:51.518Z</time>
      </trkpt>
      <trkpt lat="45.7034" lon="6.90903">
        <ele>1992</ele>
        <time>2022-07-16T14:51:32.840Z</time>
      </trkpt>
      <trkpt lat="45.70281" lon="6.90769">
        <ele>2000</ele>
        <time>2022-07-16T14:52:04.622Z</time>
      </trkpt>
      <trkpt lat="45.70206" lon="6.90665">
        <ele>2004</ele>
        <time>2022-07-16T14:52:27.186Z</time>
      </trkpt>
      <trkpt lat="45.70193" lon="6.90634">
        <ele>2004</ele>
        <time>2022-07-16T14:52:30.728Z</time>
      </trkpt>
      <trkpt lat="45.7019" lon="6.90631">
        <ele>2004</ele>
        <time>2022-07-16T14:52:31.241Z</time>
      </trkpt>
      <trkpt lat="45.7018" lon="6.90631">
        <ele>2002</ele>
        <time>2022-07-16T14:52:32.018Z</time>
      </trkpt>
      <trkpt lat="45.7016" lon="6.9065">
        <ele>2000</ele>
        <time>2022-07-16T14:52:33.883Z</time>
      </trkpt>
      <trkpt lat="45.70154" lon="6.90653">
        <ele>2000</ele>
        <time>2022-07-16T14:52:34.775Z</time>
      </trkpt>
      <trkpt lat="45.7011" lon="6.90641">
        <ele>2008</ele>
        <time>2022-07-16T14:52:59.009Z</time>
      </trkpt>
      <trkpt lat="45.70103" lon="6.90642">
        <ele>2009</ele>
        <time>2022-07-16T14:53:02.816Z</time>
      </trkpt>
      <trkpt lat="45.70095" lon="6.90652">
        <ele>2009</ele>
        <time>2022-07-16T14:53:04.305Z</time>
      </trkpt>
      <trkpt lat="45.70079" lon="6.90696">
        <ele>2002</ele>
        <time>2022-07-16T14:53:06.997Z</time>
      </trkpt>
      <trkpt lat="45.70073" lon="6.90706">
        <ele>2001</ele>
        <time>2022-07-16T14:53:07.712Z</time>
      </trkpt>
      <trkpt lat="45.70062" lon="6.90705">
        <ele>2001</ele>
        <time>2022-07-16T14:53:09.259Z</time>
      </trkpt>
      <trkpt lat="45.70053" lon="6.90696">
        <ele>2003</ele>
        <time>2022-07-16T14:53:15.198Z</time>
      </trkpt>
      <trkpt lat="45.70011" lon="6.90639">
        <ele>2014</ele>
        <time>2022-07-16T14:53:46.509Z</time>
      </trkpt>
      <trkpt lat="45.69981" lon="6.90584">
        <ele>2022</ele>
        <time>2022-07-16T14:54:12.880Z</time>
      </trkpt>
      <trkpt lat="45.69973" lon="6.90567">
        <ele>2023</ele>
        <time>2022-07-16T14:54:16.917Z</time>
      </trkpt>
      <trkpt lat="45.69932" lon="6.90443">
        <ele>2027</ele>
        <time>2022-07-16T14:54:38.680Z</time>
      </trkpt>
      <trkpt lat="45.6991" lon="6.90413">
        <ele>2026</ele>
        <time>2022-07-16T14:54:41.585Z</time>
      </trkpt>
      <trkpt lat="45.69878" lon="6.90346">
        <ele>2034</ele>
        <time>2022-07-16T14:55:12.258Z</time>
      </trkpt>
      <trkpt lat="45.69852" lon="6.90319">
        <ele>2034</ele>
        <time>2022-07-16T14:55:16.764Z</time>
      </trkpt>
      <trkpt lat="45.69842" lon="6.90302">
        <ele>2035</ele>
        <time>2022-07-16T14:55:20.969Z</time>
      </trkpt>
      <trkpt lat="45.69829" lon="6.90265">
        <ele>2041</ele>
        <time>2022-07-16T14:55:36.620Z</time>
      </trkpt>
      <trkpt lat="45.69822" lon="6.90231">
        <ele>2043</ele>
        <time>2022-07-16T14:55:44.227Z</time>
      </trkpt>
      <trkpt lat="45.69817" lon="6.90223">
        <ele>2043</ele>
        <time>2022-07-16T14:55:45.279Z</time>
      </trkpt>
      <trkpt lat="45.69748" lon="6.9015">
        <ele>2048</ele>
        <time>2022-07-16T14:56:07.530Z</time>
      </trkpt>
      <trkpt lat="45.69635" lon="6.8996">
        <ele>2045</ele>
        <time>2022-07-16T14:56:27.374Z</time>
      </trkpt>
      <trkpt lat="45.69622" lon="6.89943">
        <ele>2048</ele>
        <time>2022-07-16T14:56:36.900Z</time>
      </trkpt>
      <trkpt lat="45.69592" lon="6.89912">
        <ele>2057</ele>
        <time>2022-07-16T14:56:56.918Z</time>
      </trkpt>
      <trkpt lat="45.69546" lon="6.89882">
        <ele>2058</ele>
        <time>2022-07-16T14:57:05.578Z</time>
      </trkpt>
      <trkpt lat="45.69529" lon="6.89868">
        <ele>2059</ele>
        <time>2022-07-16T14:57:10.420Z</time>
      </trkpt>
      <trkpt lat="45.69518" lon="6.89853">
        <ele>2059</ele>
        <time>2022-07-16T14:57:12.551Z</time>
      </trkpt>
      <trkpt lat="45.69498" lon="6.89801">
        <ele>2058</ele>
        <time>2022-07-16T14:57:16.907Z</time>
      </trkpt>
      <trkpt lat="45.69469" lon="6.89689">
        <ele>2060</ele>
        <time>2022-07-16T14:57:31.903Z</time>
      </trkpt>
      <trkpt lat="45.69437" lon="6.89629">
        <ele>2065</ele>
        <time>2022-07-16T14:57:50.215Z</time>
      </trkpt>
      <trkpt lat="45.69394" lon="6.89512">
        <ele>2070</ele>
        <time>2022-07-16T14:58:13.498Z</time>
      </trkpt>
      <trkpt lat="45.6939" lon="6.89419">
        <ele>2069</ele>
        <time>2022-07-16T14:58:21.077Z</time>
      </trkpt>
      <trkpt lat="45.69348" lon="6.89315">
        <ele>2072</ele>
        <time>2022-07-16T14:58:38.580Z</time>
      </trkpt>
      <trkpt lat="45.69345" lon="6.8929">
        <ele>2073</ele>
        <time>2022-07-16T14:58:43.117Z</time>
      </trkpt>
      <trkpt lat="45.69347" lon="6.8924">
        <ele>2074</ele>
        <time>2022-07-16T14:58:49.765Z</time>
      </trkpt>
      <trkpt lat="45.69345" lon="6.89185">
        <ele>2077</ele>
        <time>2022-07-16T14:59:01.319Z</time>
      </trkpt>
      <trkpt lat="45.69341" lon="6.89179">
        <ele>2078</ele>
        <time>2022-07-16T14:59:04.454Z</time>
      </trkpt>
      <trkpt lat="45.69321" lon="6.89162">
        <ele>2081</ele>
        <time>2022-07-16T14:59:16.278Z</time>
      </trkpt>
      <trkpt lat="45.69307" lon="6.89124">
        <ele>2088</ele>
        <time>2022-07-16T14:59:32.514Z</time>
      </trkpt>
      <trkpt lat="45.69291" lon="6.89092">
        <ele>2093</ele>
        <time>2022-07-16T14:59:47.387Z</time>
      </trkpt>
      <trkpt lat="45.69277" lon="6.89072">
        <ele>2095</ele>
        <time>2022-07-16T14:59:54.682Z</time>
      </trkpt>
      <trkpt lat="45.69255" lon="6.89048">
        <ele>2097</ele>
        <time>2022-07-16T15:00:02.628Z</time>
      </trkpt>
      <trkpt lat="45.69239" lon="6.89035">
        <ele>2099</ele>
        <time>2022-07-16T15:00:09.961Z</time>
      </trkpt>
      <trkpt lat="45.692" lon="6.89012">
        <ele>2101</ele>
        <time>2022-07-16T15:00:20.135Z</time>
      </trkpt>
      <trkpt lat="45.69181" lon="6.89005">
        <ele>2101</ele>
        <time>2022-07-16T15:00:22.887Z</time>
      </trkpt>
      <trkpt lat="45.69165" lon="6.89007">
        <ele>2101</ele>
        <time>2022-07-16T15:00:25.140Z</time>
      </trkpt>
      <trkpt lat="45.6916" lon="6.89012">
        <ele>2102</ele>
        <time>2022-07-16T15:00:28.440Z</time>
      </trkpt>
      <trkpt lat="45.69159" lon="6.89017">
        <ele>2103</ele>
        <time>2022-07-16T15:00:30.406Z</time>
      </trkpt>
      <trkpt lat="45.69163" lon="6.89066">
        <ele>2103</ele>
        <time>2022-07-16T15:00:35.240Z</time>
      </trkpt>
      <trkpt lat="45.69158" lon="6.89067">
        <ele>2104</ele>
        <time>2022-07-16T15:00:37.971Z</time>
      </trkpt>
      <trkpt lat="45.69132" lon="6.89014">
        <ele>2107</ele>
        <time>2022-07-16T15:00:50.396Z</time>
      </trkpt>
      <trkpt lat="45.69108" lon="6.88935">
        <ele>2107</ele>
        <time>2022-07-16T15:00:58.837Z</time>
      </trkpt>
      <trkpt lat="45.69093" lon="6.88915">
        <ele>2107</ele>
        <time>2022-07-16T15:01:01.712Z</time>
      </trkpt>
      <trkpt lat="45.69095" lon="6.88918">
        <ele>2107</ele>
        <time>2022-07-16T15:01:02.119Z</time>
      </trkpt>
      <trkpt lat="45.6909" lon="6.88914">
        <ele>2107</ele>
        <time>2022-07-16T15:01:02.922Z</time>
      </trkpt>
      <trkpt lat="45.69082" lon="6.88913">
        <ele>2108</ele>
        <time>2022-07-16T15:01:06.772Z</time>
      </trkpt>
      <trkpt lat="45.69078" lon="6.8892">
        <ele>2110</ele>
        <time>2022-07-16T15:01:10.190Z</time>
      </trkpt>
      <trkpt lat="45.69079" lon="6.88965">
        <ele>2112</ele>
        <time>2022-07-16T15:01:18.658Z</time>
      </trkpt>
      <trkpt lat="45.6909" lon="6.89034">
        <ele>2115</ele>
        <time>2022-07-16T15:01:31.697Z</time>
      </trkpt>
      <trkpt lat="45.69114" lon="6.89118">
        <ele>2115</ele>
        <time>2022-07-16T15:01:40.589Z</time>
      </trkpt>
      <trkpt lat="45.69115" lon="6.89133">
        <ele>2115</ele>
        <time>2022-07-16T15:01:42.066Z</time>
      </trkpt>
      <trkpt lat="45.6911" lon="6.89145">
        <ele>2117</ele>
        <time>2022-07-16T15:01:47.347Z</time>
      </trkpt>
      <trkpt lat="45.69104" lon="6.89151">
        <ele>2119</ele>
        <time>2022-07-16T15:01:51.307Z</time>
      </trkpt>
      <trkpt lat="45.69094" lon="6.89153">
        <ele>2121</ele>
        <time>2022-07-16T15:01:56.770Z</time>
      </trkpt>
      <trkpt lat="45.69083" lon="6.89151">
        <ele>2124</ele>
        <time>2022-07-16T15:02:02.770Z</time>
      </trkpt>
      <trkpt lat="45.69041" lon="6.89118">
        <ele>2132</ele>
        <time>2022-07-16T15:02:28.692Z</time>
      </trkpt>
      <trkpt lat="45.69034" lon="6.89106">
        <ele>2133</ele>
        <time>2022-07-16T15:02:32.373Z</time>
      </trkpt>
      <trkpt lat="45.69031" lon="6.8909">
        <ele>2133</ele>
        <time>2022-07-16T15:02:33.997Z</time>
      </trkpt>
      <trkpt lat="45.69028" lon="6.89011">
        <ele>2131</ele>
        <time>2022-07-16T15:02:39.112Z</time>
      </trkpt>
      <trkpt lat="45.69024" lon="6.88992">
        <ele>2131</ele>
        <time>2022-07-16T15:02:41.056Z</time>
      </trkpt>
      <trkpt lat="45.69015" lon="6.88973">
        <ele>2132</ele>
        <time>2022-07-16T15:02:45.336Z</time>
      </trkpt>
      <trkpt lat="45.69006" lon="6.88963">
        <ele>2134</ele>
        <time>2022-07-16T15:02:51.501Z</time>
      </trkpt>
      <trkpt lat="45.68858" lon="6.88876">
        <ele>2143</ele>
        <time>2022-07-16T15:03:32.420Z</time>
      </trkpt>
      <trkpt lat="45.6884" lon="6.8887">
        <ele>2144</ele>
        <time>2022-07-16T15:03:37.079Z</time>
      </trkpt>
      <trkpt lat="45.68814" lon="6.88864">
        <ele>2146</ele>
        <time>2022-07-16T15:03:44.861Z</time>
      </trkpt>
      <trkpt lat="45.68791" lon="6.88864">
        <ele>2148</ele>
        <time>2022-07-16T15:03:52.305Z</time>
      </trkpt>
      <trkpt lat="45.68757" lon="6.88875">
        <ele>2154</ele>
        <time>2022-07-16T15:04:11.165Z</time>
      </trkpt>
      <trkpt lat="45.68744" lon="6.88874">
        <ele>2156</ele>
        <time>2022-07-16T15:04:18.209Z</time>
      </trkpt>
      <trkpt lat="45.68715" lon="6.88863">
        <ele>2157</ele>
        <time>2022-07-16T15:04:24.267Z</time>
      </trkpt>
      <trkpt lat="45.6867" lon="6.88859">
        <ele>2163</ele>
        <time>2022-07-16T15:04:48.537Z</time>
      </trkpt>
      <trkpt lat="45.68623" lon="6.88827">
        <ele>2165</ele>
        <time>2022-07-16T15:04:59.803Z</time>
      </trkpt>
      <trkpt lat="45.68597" lon="6.88816">
        <ele>2168</ele>
        <time>2022-07-16T15:05:10.839Z</time>
      </trkpt>
      <trkpt lat="45.68573" lon="6.888">
        <ele>2169</ele>
        <time>2022-07-16T15:05:16.517Z</time>
      </trkpt>
      <trkpt lat="45.68555" lon="6.88783">
        <ele>2168</ele>
        <time>2022-07-16T15:05:18.331Z</time>
      </trkpt>
      <trkpt lat="45.68491" lon="6.88757">
        <ele>2174</ele>
        <time>2022-07-16T15:05:40.482Z</time>
      </trkpt>
      <trkpt lat="45.68001" lon="6.88361">
        <ele>2192</ele>
        <time>2022-07-16T15:07:32.130Z</time>
      </trkpt>
      <trkpt lat="45.67966" lon="6.88331">
        <ele>2191</ele>
        <time>2022-07-16T15:07:36.397Z</time>
      </trkpt>
      <trkpt lat="45.67953" lon="6.88309">
        <ele>2190</ele>
        <time>2022-07-16T15:07:38.041Z</time>
      </trkpt>
      <trkpt lat="45.67929" lon="6.88297">
        <ele>2189</ele>
        <time>2022-07-16T15:07:40.324Z</time>
      </trkpt>
      <trkpt lat="45.67894" lon="6.8827">
        <ele>2188</ele>
        <time>2022-07-16T15:07:44.453Z</time>
      </trkpt>
      <trkpt lat="45.67673" lon="6.88159">
        <ele>2174</ele>
        <time>2022-07-16T15:08:02.042Z</time>
      </trkpt>
      <trkpt lat="45.67657" lon="6.88144">
        <ele>2174</ele>
        <time>2022-07-16T15:08:04.725Z</time>
      </trkpt>
      <trkpt lat="45.67173" lon="6.87603">
        <ele>2151</ele>
        <time>2022-07-16T15:09:00.868Z</time>
      </trkpt>
      <trkpt lat="45.66957" lon="6.87358">
        <ele>2128</ele>
        <time>2022-07-16T15:09:22.282Z</time>
      </trkpt>
      <trkpt lat="45.66946" lon="6.87343">
        <ele>2127</ele>
        <time>2022-07-16T15:09:23.370Z</time>
      </trkpt>
      <trkpt lat="45.66943" lon="6.87325">
        <ele>2126</ele>
        <time>2022-07-16T15:09:24.375Z</time>
      </trkpt>
      <trkpt lat="45.66949" lon="6.87318">
        <ele>2126</ele>
        <time>2022-07-16T15:09:25.461Z</time>
      </trkpt>
      <trkpt lat="45.66959" lon="6.87317">
        <ele>2126</ele>
        <time>2022-07-16T15:09:26.867Z</time>
      </trkpt>
      <trkpt lat="45.66984" lon="6.87327">
        <ele>2127</ele>
        <time>2022-07-16T15:09:32.494Z</time>
      </trkpt>
      <trkpt lat="45.67018" lon="6.8736">
        <ele>2131</ele>
        <time>2022-07-16T15:09:47.105Z</time>
      </trkpt>
      <trkpt lat="45.6704" lon="6.87373">
        <ele>2133</ele>
        <time>2022-07-16T15:09:54.619Z</time>
      </trkpt>
      <trkpt lat="45.67051" lon="6.87376">
        <ele>2133</ele>
        <time>2022-07-16T15:09:56.189Z</time>
      </trkpt>
      <trkpt lat="45.67057" lon="6.87375">
        <ele>2134</ele>
        <time>2022-07-16T15:09:59.458Z</time>
      </trkpt>
      <trkpt lat="45.67067" lon="6.87368">
        <ele>2133</ele>
        <time>2022-07-16T15:10:00.323Z</time>
      </trkpt>
      <trkpt lat="45.67069" lon="6.87362">
        <ele>2132</ele>
        <time>2022-07-16T15:10:00.683Z</time>
      </trkpt>
      <trkpt lat="45.67067" lon="6.87345">
        <ele>2130</ele>
        <time>2022-07-16T15:10:01.619Z</time>
      </trkpt>
      <trkpt lat="45.67026" lon="6.87304">
        <ele>2128</ele>
        <time>2022-07-16T15:10:06.082Z</time>
      </trkpt>
      <trkpt lat="45.67009" lon="6.87291">
        <ele>2127</ele>
        <time>2022-07-16T15:10:07.627Z</time>
      </trkpt>
      <trkpt lat="45.66974" lon="6.87277">
        <ele>2124</ele>
        <time>2022-07-16T15:10:10.451Z</time>
      </trkpt>
      <trkpt lat="45.66954" lon="6.87263">
        <ele>2122</ele>
        <time>2022-07-16T15:10:12.180Z</time>
      </trkpt>
      <trkpt lat="45.66939" lon="6.87249">
        <ele>2120</ele>
        <time>2022-07-16T15:10:13.572Z</time>
      </trkpt>
      <trkpt lat="45.66925" lon="6.87249">
        <ele>2119</ele>
        <time>2022-07-16T15:10:14.659Z</time>
      </trkpt>
      <trkpt lat="45.66889" lon="6.87273">
        <ele>2118</ele>
        <time>2022-07-16T15:10:18.783Z</time>
      </trkpt>
      <trkpt lat="45.66879" lon="6.87275">
        <ele>2117</ele>
        <time>2022-07-16T15:10:19.567Z</time>
      </trkpt>
      <trkpt lat="45.66871" lon="6.87272">
        <ele>2116</ele>
        <time>2022-07-16T15:10:20.210Z</time>
      </trkpt>
      <trkpt lat="45.66862" lon="6.87262">
        <ele>2114</ele>
        <time>2022-07-16T15:10:21.095Z</time>
      </trkpt>
      <trkpt lat="45.66849" lon="6.87239">
        <ele>2110</ele>
        <time>2022-07-16T15:10:22.701Z</time>
      </trkpt>
      <trkpt lat="45.66834" lon="6.8723">
        <ele>2107</ele>
        <time>2022-07-16T15:10:23.965Z</time>
      </trkpt>
      <trkpt lat="45.66824" lon="6.87228">
        <ele>2106</ele>
        <time>2022-07-16T15:10:24.749Z</time>
      </trkpt>
      <trkpt lat="45.66795" lon="6.87236">
        <ele>2106</ele>
        <time>2022-07-16T15:10:28.892Z</time>
      </trkpt>
      <trkpt lat="45.66774" lon="6.87237">
        <ele>2105</ele>
        <time>2022-07-16T15:10:30.640Z</time>
      </trkpt>
      <trkpt lat="45.66753" lon="6.87231">
        <ele>2103</ele>
        <time>2022-07-16T15:10:32.304Z</time>
      </trkpt>
      <trkpt lat="45.6672" lon="6.8721">
        <ele>2100</ele>
        <time>2022-07-16T15:10:35.110Z</time>
      </trkpt>
      <trkpt lat="45.66706" lon="6.87204">
        <ele>2100</ele>
        <time>2022-07-16T15:10:37.160Z</time>
      </trkpt>
      <trkpt lat="45.66642" lon="6.87189">
        <ele>2100</ele>
        <time>2022-07-16T15:10:46.258Z</time>
      </trkpt>
      <trkpt lat="45.66624" lon="6.87178">
        <ele>2098</ele>
        <time>2022-07-16T15:10:47.778Z</time>
      </trkpt>
      <trkpt lat="45.66601" lon="6.87159">
        <ele>2093</ele>
        <time>2022-07-16T15:10:49.842Z</time>
      </trkpt>
      <trkpt lat="45.66582" lon="6.87149">
        <ele>2092</ele>
        <time>2022-07-16T15:10:51.500Z</time>
      </trkpt>
      <trkpt lat="45.6657" lon="6.87144">
        <ele>2092</ele>
        <time>2022-07-16T15:10:53.253Z</time>
      </trkpt>
      <trkpt lat="45.66531" lon="6.87139">
        <ele>2094</ele>
        <time>2022-07-16T15:11:02.925Z</time>
      </trkpt>
      <trkpt lat="45.66505" lon="6.87131">
        <ele>2093</ele>
        <time>2022-07-16T15:11:05.353Z</time>
      </trkpt>
      <trkpt lat="45.6649" lon="6.87119">
        <ele>2091</ele>
        <time>2022-07-16T15:11:06.688Z</time>
      </trkpt>
      <trkpt lat="45.6646" lon="6.87088">
        <ele>2083</ele>
        <time>2022-07-16T15:11:09.563Z</time>
      </trkpt>
      <trkpt lat="45.66426" lon="6.87068">
        <ele>2080</ele>
        <time>2022-07-16T15:11:12.419Z</time>
      </trkpt>
      <trkpt lat="45.66393" lon="6.87053">
        <ele>2077</ele>
        <time>2022-07-16T15:11:15.109Z</time>
      </trkpt>
      <trkpt lat="45.66356" lon="6.87048">
        <ele>2076</ele>
        <time>2022-07-16T15:11:18.896Z</time>
      </trkpt>
      <trkpt lat="45.66337" lon="6.8704">
        <ele>2074</ele>
        <time>2022-07-16T15:11:20.434Z</time>
      </trkpt>
      <trkpt lat="45.66328" lon="6.8704">
        <ele>2074</ele>
        <time>2022-07-16T15:11:21.697Z</time>
      </trkpt>
      <trkpt lat="45.663" lon="6.87049">
        <ele>2075</ele>
        <time>2022-07-16T15:11:27.610Z</time>
      </trkpt>
      <trkpt lat="45.66248" lon="6.87075">
        <ele>2077</ele>
        <time>2022-07-16T15:11:39.187Z</time>
      </trkpt>
      <trkpt lat="45.66239" lon="6.87076">
        <ele>2078</ele>
        <time>2022-07-16T15:11:42.866Z</time>
      </trkpt>
      <trkpt lat="45.66234" lon="6.87072">
        <ele>2078</ele>
        <time>2022-07-16T15:11:43.670Z</time>
      </trkpt>
      <trkpt lat="45.66229" lon="6.87057">
        <ele>2077</ele>
        <time>2022-07-16T15:11:44.572Z</time>
      </trkpt>
      <trkpt lat="45.6623" lon="6.87047">
        <ele>2075</ele>
        <time>2022-07-16T15:11:45.121Z</time>
      </trkpt>
      <trkpt lat="45.66245" lon="6.86988">
        <ele>2064</ele>
        <time>2022-07-16T15:11:48.530Z</time>
      </trkpt>
      <trkpt lat="45.66245" lon="6.86956">
        <ele>2060</ele>
        <time>2022-07-16T15:11:50.268Z</time>
      </trkpt>
      <trkpt lat="45.66236" lon="6.86928">
        <ele>2058</ele>
        <time>2022-07-16T15:11:51.941Z</time>
      </trkpt>
      <trkpt lat="45.66221" lon="6.86913">
        <ele>2059</ele>
        <time>2022-07-16T15:11:56.571Z</time>
      </trkpt>
      <trkpt lat="45.66187" lon="6.86892">
        <ele>2062</ele>
        <time>2022-07-16T15:12:07.970Z</time>
      </trkpt>
      <trkpt lat="45.66179" lon="6.86879">
        <ele>2062</ele>
        <time>2022-07-16T15:12:09.668Z</time>
      </trkpt>
      <trkpt lat="45.66162" lon="6.86832">
        <ele>2060</ele>
        <time>2022-07-16T15:12:12.579Z</time>
      </trkpt>
      <trkpt lat="45.66138" lon="6.86791">
        <ele>2056</ele>
        <time>2022-07-16T15:12:15.483Z</time>
      </trkpt>
      <trkpt lat="45.66118" lon="6.86764">
        <ele>2053</ele>
        <time>2022-07-16T15:12:17.619Z</time>
      </trkpt>
      <trkpt lat="45.66057" lon="6.86698">
        <ele>2049</ele>
        <time>2022-07-16T15:12:23.727Z</time>
      </trkpt>
      <trkpt lat="45.66002" lon="6.86614">
        <ele>2046</ele>
        <time>2022-07-16T15:12:31.093Z</time>
      </trkpt>
      <trkpt lat="45.65977" lon="6.8659">
        <ele>2049</ele>
        <time>2022-07-16T15:12:42.038Z</time>
      </trkpt>
      <trkpt lat="45.65966" lon="6.8657">
        <ele>2048</ele>
        <time>2022-07-16T15:12:43.413Z</time>
      </trkpt>
      <trkpt lat="45.65926" lon="6.86474">
        <ele>2034</ele>
        <time>2022-07-16T15:12:49.482Z</time>
      </trkpt>
      <trkpt lat="45.65909" lon="6.86439">
        <ele>2029</ele>
        <time>2022-07-16T15:12:51.796Z</time>
      </trkpt>
      <trkpt lat="45.65904" lon="6.86433">
        <ele>2028</ele>
        <time>2022-07-16T15:12:52.303Z</time>
      </trkpt>
      <trkpt lat="45.65879" lon="6.86417">
        <ele>2030</ele>
        <time>2022-07-16T15:13:00.214Z</time>
      </trkpt>
      <trkpt lat="45.65853" lon="6.86407">
        <ele>2034</ele>
        <time>2022-07-16T15:13:14.781Z</time>
      </trkpt>
      <trkpt lat="45.65838" lon="6.86398">
        <ele>2036</ele>
        <time>2022-07-16T15:13:22.425Z</time>
      </trkpt>
      <trkpt lat="45.65801" lon="6.8636">
        <ele>2034</ele>
        <time>2022-07-16T15:13:26.342Z</time>
      </trkpt>
      <trkpt lat="45.65777" lon="6.86343">
        <ele>2032</ele>
        <time>2022-07-16T15:13:28.423Z</time>
      </trkpt>
      <trkpt lat="45.65765" lon="6.8634">
        <ele>2033</ele>
        <time>2022-07-16T15:13:32.206Z</time>
      </trkpt>
      <trkpt lat="45.65752" lon="6.86333">
        <ele>2032</ele>
        <time>2022-07-16T15:13:33.286Z</time>
      </trkpt>
      <trkpt lat="45.65729" lon="6.86312">
        <ele>2033</ele>
        <time>2022-07-16T15:13:39.047Z</time>
      </trkpt>
      <trkpt lat="45.65703" lon="6.86283">
        <ele>2032</ele>
        <time>2022-07-16T15:13:42.286Z</time>
      </trkpt>
      <trkpt lat="45.65688" lon="6.86262">
        <ele>2029</ele>
        <time>2022-07-16T15:13:43.916Z</time>
      </trkpt>
      <trkpt lat="45.65676" lon="6.86231">
        <ele>2022</ele>
        <time>2022-07-16T15:13:45.840Z</time>
      </trkpt>
      <trkpt lat="45.65671" lon="6.86206">
        <ele>2017</ele>
        <time>2022-07-16T15:13:47.253Z</time>
      </trkpt>
      <trkpt lat="45.65666" lon="6.86194">
        <ele>2015</ele>
        <time>2022-07-16T15:13:48.011Z</time>
      </trkpt>
      <trkpt lat="45.65628" lon="6.86143">
        <ele>2012</ele>
        <time>2022-07-16T15:13:51.994Z</time>
      </trkpt>
      <trkpt lat="45.65622" lon="6.86137">
        <ele>2011</ele>
        <time>2022-07-16T15:13:52.563Z</time>
      </trkpt>
      <trkpt lat="45.65609" lon="6.8613">
        <ele>2012</ele>
        <time>2022-07-16T15:13:56.543Z</time>
      </trkpt>
      <trkpt lat="45.65581" lon="6.86125">
        <ele>2018</ele>
        <time>2022-07-16T15:14:11.811Z</time>
      </trkpt>
      <trkpt lat="45.65562" lon="6.86115">
        <ele>2019</ele>
        <time>2022-07-16T15:14:16.757Z</time>
      </trkpt>
      <trkpt lat="45.65545" lon="6.86099">
        <ele>2017</ele>
        <time>2022-07-16T15:14:18.338Z</time>
      </trkpt>
      <trkpt lat="45.65536" lon="6.86085">
        <ele>2014</ele>
        <time>2022-07-16T15:14:19.371Z</time>
      </trkpt>
      <trkpt lat="45.65504" lon="6.86014">
        <ele>1999</ele>
        <time>2022-07-16T15:14:23.959Z</time>
      </trkpt>
      <trkpt lat="45.6549" lon="6.8599">
        <ele>1996</ele>
        <time>2022-07-16T15:14:25.656Z</time>
      </trkpt>
      <trkpt lat="45.65475" lon="6.85973">
        <ele>1994</ele>
        <time>2022-07-16T15:14:27.143Z</time>
      </trkpt>
      <trkpt lat="45.65463" lon="6.85968">
        <ele>1996</ele>
        <time>2022-07-16T15:14:33.905Z</time>
      </trkpt>
      <trkpt lat="45.65434" lon="6.85962">
        <ele>2003</ele>
        <time>2022-07-16T15:14:49.760Z</time>
      </trkpt>
      <trkpt lat="45.65405" lon="6.85941">
        <ele>2004</ele>
        <time>2022-07-16T15:14:56.108Z</time>
      </trkpt>
      <trkpt lat="45.65356" lon="6.85865">
        <ele>1990</ele>
        <time>2022-07-16T15:15:01.723Z</time>
      </trkpt>
      <trkpt lat="45.65331" lon="6.85837">
        <ele>1987</ele>
        <time>2022-07-16T15:15:04.190Z</time>
      </trkpt>
      <trkpt lat="45.65293" lon="6.85813">
        <ele>1991</ele>
        <time>2022-07-16T15:15:18.815Z</time>
      </trkpt>
      <trkpt lat="45.6527" lon="6.85806">
        <ele>1996</ele>
        <time>2022-07-16T15:15:31.538Z</time>
      </trkpt>
      <trkpt lat="45.65247" lon="6.85795">
        <ele>1999</ele>
        <time>2022-07-16T15:15:43.042Z</time>
      </trkpt>
      <trkpt lat="45.65227" lon="6.85776">
        <ele>1995</ele>
        <time>2022-07-16T15:15:44.907Z</time>
      </trkpt>
      <trkpt lat="45.65207" lon="6.85749">
        <ele>1989</ele>
        <time>2022-07-16T15:15:47.043Z</time>
      </trkpt>
      <trkpt lat="45.6518" lon="6.85719">
        <ele>1985</ele>
        <time>2022-07-16T15:15:49.700Z</time>
      </trkpt>
      <trkpt lat="45.651" lon="6.85666">
        <ele>1983</ele>
        <time>2022-07-16T15:15:59.112Z</time>
      </trkpt>
      <trkpt lat="45.65073" lon="6.85652">
        <ele>1988</ele>
        <time>2022-07-16T15:16:14.651Z</time>
      </trkpt>
      <trkpt lat="45.65056" lon="6.85636">
        <ele>1990</ele>
        <time>2022-07-16T15:16:21.952Z</time>
      </trkpt>
      <trkpt lat="45.6505" lon="6.85628">
        <ele>1990</ele>
        <time>2022-07-16T15:16:23.103Z</time>
      </trkpt>
      <trkpt lat="45.65033" lon="6.85582">
        <ele>1979</ele>
        <time>2022-07-16T15:16:25.929Z</time>
      </trkpt>
      <trkpt lat="45.65022" lon="6.85559">
        <ele>1979</ele>
        <time>2022-07-16T15:16:28.661Z</time>
      </trkpt>
      <trkpt lat="45.64994" lon="6.85517">
        <ele>1982</ele>
        <time>2022-07-16T15:16:40.464Z</time>
      </trkpt>
      <trkpt lat="45.64976" lon="6.85483">
        <ele>1981</ele>
        <time>2022-07-16T15:16:43.298Z</time>
      </trkpt>
      <trkpt lat="45.64972" lon="6.85472">
        <ele>1980</ele>
        <time>2022-07-16T15:16:43.971Z</time>
      </trkpt>
      <trkpt lat="45.64964" lon="6.85421">
        <ele>1973</ele>
        <time>2022-07-16T15:16:46.810Z</time>
      </trkpt>
      <trkpt lat="45.64959" lon="6.85405">
        <ele>1972</ele>
        <time>2022-07-16T15:16:47.762Z</time>
      </trkpt>
      <trkpt lat="45.64944" lon="6.85377">
        <ele>1972</ele>
        <time>2022-07-16T15:16:51.221Z</time>
      </trkpt>
      <trkpt lat="45.64913" lon="6.85302">
        <ele>1968</ele>
        <time>2022-07-16T15:16:55.589Z</time>
      </trkpt>
      <trkpt lat="45.64903" lon="6.85286">
        <ele>1966</ele>
        <time>2022-07-16T15:16:56.755Z</time>
      </trkpt>
      <trkpt lat="45.64896" lon="6.85279">
        <ele>1966</ele>
        <time>2022-07-16T15:16:57.953Z</time>
      </trkpt>
      <trkpt lat="45.64859" lon="6.85268">
        <ele>1968</ele>
        <time>2022-07-16T15:17:07.403Z</time>
      </trkpt>
      <trkpt lat="45.64838" lon="6.85258">
        <ele>1968</ele>
        <time>2022-07-16T15:17:10.508Z</time>
      </trkpt>
      <trkpt lat="45.6477" lon="6.85214">
        <ele>1966</ele>
        <time>2022-07-16T15:17:18.120Z</time>
      </trkpt>
      <trkpt lat="45.6475" lon="6.85209">
        <ele>1967</ele>
        <time>2022-07-16T15:17:23.076Z</time>
      </trkpt>
      <trkpt lat="45.64731" lon="6.85208">
        <ele>1972</ele>
        <time>2022-07-16T15:17:33.363Z</time>
      </trkpt>
      <trkpt lat="45.64714" lon="6.852">
        <ele>1974</ele>
        <time>2022-07-16T15:17:40.736Z</time>
      </trkpt>
      <trkpt lat="45.64616" lon="6.85066">
        <ele>1955</ele>
        <time>2022-07-16T15:17:51.269Z</time>
      </trkpt>
      <trkpt lat="45.64583" lon="6.85028">
        <ele>1955</ele>
        <time>2022-07-16T15:17:57.212Z</time>
      </trkpt>
      <trkpt lat="45.64555" lon="6.84981">
        <ele>1952</ele>
        <time>2022-07-16T15:18:00.566Z</time>
      </trkpt>
      <trkpt lat="45.64544" lon="6.84947">
        <ele>1948</ele>
        <time>2022-07-16T15:18:02.601Z</time>
      </trkpt>
      <trkpt lat="45.64539" lon="6.84941">
        <ele>1948</ele>
        <time>2022-07-16T15:18:03.516Z</time>
      </trkpt>
      <trkpt lat="45.64524" lon="6.84932">
        <ele>1953</ele>
        <time>2022-07-16T15:18:12.317Z</time>
      </trkpt>
      <trkpt lat="45.64508" lon="6.84915">
        <ele>1955</ele>
        <time>2022-07-16T15:18:19.613Z</time>
      </trkpt>
      <trkpt lat="45.64494" lon="6.84892">
        <ele>1952</ele>
        <time>2022-07-16T15:18:21.269Z</time>
      </trkpt>
      <trkpt lat="45.64468" lon="6.84837">
        <ele>1943</ele>
        <time>2022-07-16T15:18:24.875Z</time>
      </trkpt>
      <trkpt lat="45.64452" lon="6.84812">
        <ele>1942</ele>
        <time>2022-07-16T15:18:26.946Z</time>
      </trkpt>
      <trkpt lat="45.64423" lon="6.84781">
        <ele>1944</ele>
        <time>2022-07-16T15:18:36.142Z</time>
      </trkpt>
      <trkpt lat="45.64413" lon="6.84774">
        <ele>1945</ele>
        <time>2022-07-16T15:18:39.836Z</time>
      </trkpt>
      <trkpt lat="45.64386" lon="6.84769">
        <ele>1948</ele>
        <time>2022-07-16T15:18:50.863Z</time>
      </trkpt>
      <trkpt lat="45.64377" lon="6.84764">
        <ele>1949</ele>
        <time>2022-07-16T15:18:54.512Z</time>
      </trkpt>
      <trkpt lat="45.64327" lon="6.84712">
        <ele>1944</ele>
        <time>2022-07-16T15:18:59.315Z</time>
      </trkpt>
      <trkpt lat="45.64288" lon="6.84647">
        <ele>1936</ele>
        <time>2022-07-16T15:19:03.968Z</time>
      </trkpt>
      <trkpt lat="45.64218" lon="6.84547">
        <ele>1934</ele>
        <time>2022-07-16T15:19:14.836Z</time>
      </trkpt>
      <trkpt lat="45.64187" lon="6.84448">
        <ele>1919</ele>
        <time>2022-07-16T15:19:20.728Z</time>
      </trkpt>
      <trkpt lat="45.64181" lon="6.84433">
        <ele>1917</ele>
        <time>2022-07-16T15:19:21.667Z</time>
      </trkpt>
      <trkpt lat="45.64176" lon="6.84428">
        <ele>1917</ele>
        <time>2022-07-16T15:19:22.523Z</time>
      </trkpt>
      <trkpt lat="45.64158" lon="6.84432">
        <ele>1920</ele>
        <time>2022-07-16T15:19:32.379Z</time>
      </trkpt>
      <trkpt lat="45.6413" lon="6.8445">
        <ele>1920</ele>
        <time>2022-07-16T15:19:36.685Z</time>
      </trkpt>
      <trkpt lat="45.6406" lon="6.8452">
        <ele>1925</ele>
        <time>2022-07-16T15:19:58.876Z</time>
      </trkpt>
      <trkpt lat="45.64032" lon="6.84532">
        <ele>1920</ele>
        <time>2022-07-16T15:20:01.147Z</time>
      </trkpt>
      <trkpt lat="45.64002" lon="6.84556">
        <ele>1918</ele>
        <time>2022-07-16T15:20:03.762Z</time>
      </trkpt>
      <trkpt lat="45.6396" lon="6.84599">
        <ele>1920</ele>
        <time>2022-07-16T15:20:14.990Z</time>
      </trkpt>
      <trkpt lat="45.63947" lon="6.84619">
        <ele>1922</ele>
        <time>2022-07-16T15:20:22.293Z</time>
      </trkpt>
      <trkpt lat="45.63944" lon="6.84628">
        <ele>1924</ele>
        <time>2022-07-16T15:20:26.064Z</time>
      </trkpt>
      <trkpt lat="45.63933" lon="6.8464">
        <ele>1925</ele>
        <time>2022-07-16T15:20:30.038Z</time>
      </trkpt>
      <trkpt lat="45.63854" lon="6.84669">
        <ele>1911</ele>
        <time>2022-07-16T15:20:36.375Z</time>
      </trkpt>
      <trkpt lat="45.63825" lon="6.84669">
        <ele>1904</ele>
        <time>2022-07-16T15:20:38.628Z</time>
      </trkpt>
      <trkpt lat="45.63805" lon="6.84674">
        <ele>1903</ele>
        <time>2022-07-16T15:20:40.293Z</time>
      </trkpt>
      <trkpt lat="45.63789" lon="6.84685">
        <ele>1902</ele>
        <time>2022-07-16T15:20:41.664Z</time>
      </trkpt>
      <trkpt lat="45.63777" lon="6.84702">
        <ele>1902</ele>
        <time>2022-07-16T15:20:44.033Z</time>
      </trkpt>
      <trkpt lat="45.63772" lon="6.84724">
        <ele>1904</ele>
        <time>2022-07-16T15:20:51.700Z</time>
      </trkpt>
      <trkpt lat="45.63772" lon="6.84734">
        <ele>1905</ele>
        <time>2022-07-16T15:20:55.483Z</time>
      </trkpt>
      <trkpt lat="45.63782" lon="6.84757">
        <ele>1911</ele>
        <time>2022-07-16T15:21:05.730Z</time>
      </trkpt>
      <trkpt lat="45.63799" lon="6.84781">
        <ele>1917</ele>
        <time>2022-07-16T15:21:18.654Z</time>
      </trkpt>
      <trkpt lat="45.63802" lon="6.8479">
        <ele>1919</ele>
        <time>2022-07-16T15:21:22.426Z</time>
      </trkpt>
      <trkpt lat="45.63802" lon="6.84807">
        <ele>1920</ele>
        <time>2022-07-16T15:21:26.181Z</time>
      </trkpt>
      <trkpt lat="45.63799" lon="6.84816">
        <ele>1920</ele>
        <time>2022-07-16T15:21:27.159Z</time>
      </trkpt>
      <trkpt lat="45.63787" lon="6.84834">
        <ele>1916</ele>
        <time>2022-07-16T15:21:28.510Z</time>
      </trkpt>
      <trkpt lat="45.6376" lon="6.84852">
        <ele>1908</ele>
        <time>2022-07-16T15:21:30.824Z</time>
      </trkpt>
      <trkpt lat="45.63732" lon="6.84882">
        <ele>1904</ele>
        <time>2022-07-16T15:21:33.543Z</time>
      </trkpt>
      <trkpt lat="45.63707" lon="6.84936">
        <ele>1906</ele>
        <time>2022-07-16T15:21:44.211Z</time>
      </trkpt>
      <trkpt lat="45.63665" lon="6.84974">
        <ele>1897</ele>
        <time>2022-07-16T15:21:48.072Z</time>
      </trkpt>
      <trkpt lat="45.63606" lon="6.85043">
        <ele>1903</ele>
        <time>2022-07-16T15:22:11.100Z</time>
      </trkpt>
      <trkpt lat="45.6359" lon="6.85053">
        <ele>1902</ele>
        <time>2022-07-16T15:22:12.438Z</time>
      </trkpt>
      <trkpt lat="45.63531" lon="6.85024">
        <ele>1893</ele>
        <time>2022-07-16T15:22:17.285Z</time>
      </trkpt>
      <trkpt lat="45.63519" lon="6.85021">
        <ele>1893</ele>
        <time>2022-07-16T15:22:18.994Z</time>
      </trkpt>
      <trkpt lat="45.63491" lon="6.85005">
        <ele>1890</ele>
        <time>2022-07-16T15:22:21.337Z</time>
      </trkpt>
      <trkpt lat="45.63477" lon="6.84981">
        <ele>1886</ele>
        <time>2022-07-16T15:22:23.035Z</time>
      </trkpt>
      <trkpt lat="45.63467" lon="6.84953">
        <ele>1879</ele>
        <time>2022-07-16T15:22:24.743Z</time>
      </trkpt>
      <trkpt lat="45.63459" lon="6.84939">
        <ele>1876</ele>
        <time>2022-07-16T15:22:25.725Z</time>
      </trkpt>
      <trkpt lat="45.63451" lon="6.8493">
        <ele>1875</ele>
        <time>2022-07-16T15:22:26.516Z</time>
      </trkpt>
      <trkpt lat="45.6343" lon="6.84917">
        <ele>1875</ele>
        <time>2022-07-16T15:22:29.726Z</time>
      </trkpt>
      <trkpt lat="45.63419" lon="6.84913">
        <ele>1876</ele>
        <time>2022-07-16T15:22:33.436Z</time>
      </trkpt>
      <trkpt lat="45.63339" lon="6.84904">
        <ele>1874</ele>
        <time>2022-07-16T15:22:41.791Z</time>
      </trkpt>
      <trkpt lat="45.63304" lon="6.8491">
        <ele>1881</ele>
        <time>2022-07-16T15:23:00.864Z</time>
      </trkpt>
      <trkpt lat="45.63281" lon="6.84905">
        <ele>1882</ele>
        <time>2022-07-16T15:23:06.247Z</time>
      </trkpt>
      <trkpt lat="45.63253" lon="6.84892">
        <ele>1880</ele>
        <time>2022-07-16T15:23:08.534Z</time>
      </trkpt>
      <trkpt lat="45.63225" lon="6.84863">
        <ele>1874</ele>
        <time>2022-07-16T15:23:11.220Z</time>
      </trkpt>
      <trkpt lat="45.63209" lon="6.84836">
        <ele>1867</ele>
        <time>2022-07-16T15:23:13.143Z</time>
      </trkpt>
      <trkpt lat="45.63182" lon="6.84802">
        <ele>1862</ele>
        <time>2022-07-16T15:23:15.938Z</time>
      </trkpt>
      <trkpt lat="45.6314" lon="6.84772">
        <ele>1860</ele>
        <time>2022-07-16T15:23:20.025Z</time>
      </trkpt>
      <trkpt lat="45.63118" lon="6.84741">
        <ele>1855</ele>
        <time>2022-07-16T15:23:22.424Z</time>
      </trkpt>
      <trkpt lat="45.6311" lon="6.84734">
        <ele>1855</ele>
        <time>2022-07-16T15:23:23.740Z</time>
      </trkpt>
      <trkpt lat="45.63078" lon="6.84718">
        <ele>1857</ele>
        <time>2022-07-16T15:23:32.576Z</time>
      </trkpt>
      <trkpt lat="45.63052" lon="6.84697">
        <ele>1854</ele>
        <time>2022-07-16T15:23:34.896Z</time>
      </trkpt>
      <trkpt lat="45.63031" lon="6.84669">
        <ele>1852</ele>
        <time>2022-07-16T15:23:37.127Z</time>
      </trkpt>
      <trkpt lat="45.63024" lon="6.84663">
        <ele>1852</ele>
        <time>2022-07-16T15:23:38.271Z</time>
      </trkpt>
      <trkpt lat="45.63012" lon="6.84663">
        <ele>1854</ele>
        <time>2022-07-16T15:23:44.764Z</time>
      </trkpt>
      <trkpt lat="45.63006" lon="6.84667">
        <ele>1856</ele>
        <time>2022-07-16T15:23:48.346Z</time>
      </trkpt>
      <trkpt lat="45.62996" lon="6.84678">
        <ele>1857</ele>
        <time>2022-07-16T15:23:52.175Z</time>
      </trkpt>
      <trkpt lat="45.6296" lon="6.8473">
        <ele>1858</ele>
        <time>2022-07-16T15:24:00.917Z</time>
      </trkpt>
      <trkpt lat="45.62888" lon="6.84809">
        <ele>1856</ele>
        <time>2022-07-16T15:24:10.679Z</time>
      </trkpt>
      <trkpt lat="45.62866" lon="6.84823">
        <ele>1854</ele>
        <time>2022-07-16T15:24:12.550Z</time>
      </trkpt>
      <trkpt lat="45.62826" lon="6.84841">
        <ele>1851</ele>
        <time>2022-07-16T15:24:15.808Z</time>
      </trkpt>
      <trkpt lat="45.62794" lon="6.84859">
        <ele>1848</ele>
        <time>2022-07-16T15:24:18.479Z</time>
      </trkpt>
      <trkpt lat="45.62782" lon="6.8487">
        <ele>1847</ele>
        <time>2022-07-16T15:24:19.587Z</time>
      </trkpt>
      <trkpt lat="45.62771" lon="6.84883">
        <ele>1847</ele>
        <time>2022-07-16T15:24:21.588Z</time>
      </trkpt>
      <trkpt lat="45.62741" lon="6.8494">
        <ele>1847</ele>
        <time>2022-07-16T15:24:28.587Z</time>
      </trkpt>
      <trkpt lat="45.62733" lon="6.84951">
        <ele>1846</ele>
        <time>2022-07-16T15:24:29.449Z</time>
      </trkpt>
      <trkpt lat="45.6271" lon="6.84971">
        <ele>1843</ele>
        <time>2022-07-16T15:24:31.540Z</time>
      </trkpt>
      <trkpt lat="45.62692" lon="6.84993">
        <ele>1842</ele>
        <time>2022-07-16T15:24:33.609Z</time>
      </trkpt>
      <trkpt lat="45.6268" lon="6.85017">
        <ele>1841</ele>
        <time>2022-07-16T15:24:35.312Z</time>
      </trkpt>
      <trkpt lat="45.62675" lon="6.85035">
        <ele>1842</ele>
        <time>2022-07-16T15:24:39.249Z</time>
      </trkpt>
      <trkpt lat="45.62663" lon="6.85062">
        <ele>1841</ele>
        <time>2022-07-16T15:24:41.160Z</time>
      </trkpt>
      <trkpt lat="45.62627" lon="6.85102">
        <ele>1838</ele>
        <time>2022-07-16T15:24:44.426Z</time>
      </trkpt>
      <trkpt lat="45.62619" lon="6.85113">
        <ele>1837</ele>
        <time>2022-07-16T15:24:45.288Z</time>
      </trkpt>
      <trkpt lat="45.62613" lon="6.85128">
        <ele>1838</ele>
        <time>2022-07-16T15:24:49.062Z</time>
      </trkpt>
      <trkpt lat="45.62584" lon="6.85236">
        <ele>1837</ele>
        <time>2022-07-16T15:24:58.849Z</time>
      </trkpt>
      <trkpt lat="45.62578" lon="6.85297">
        <ele>1835</ele>
        <time>2022-07-16T15:25:02.471Z</time>
      </trkpt>
      <trkpt lat="45.62577" lon="6.85357">
        <ele>1835</ele>
        <time>2022-07-16T15:25:08.359Z</time>
      </trkpt>
      <trkpt lat="45.62568" lon="6.85426">
        <ele>1830</ele>
        <time>2022-07-16T15:25:12.173Z</time>
      </trkpt>
      <trkpt lat="45.62568" lon="6.85482">
        <ele>1829</ele>
        <time>2022-07-16T15:25:16.223Z</time>
      </trkpt>
      <trkpt lat="45.62565" lon="6.85512">
        <ele>1829</ele>
        <time>2022-07-16T15:25:19.196Z</time>
      </trkpt>
      <trkpt lat="45.62561" lon="6.85524">
        <ele>1828</ele>
        <time>2022-07-16T15:25:19.918Z</time>
      </trkpt>
      <trkpt lat="45.62538" lon="6.85561">
        <ele>1823</ele>
        <time>2022-07-16T15:25:22.608Z</time>
      </trkpt>
      <trkpt lat="45.625" lon="6.85659">
        <ele>1818</ele>
        <time>2022-07-16T15:25:28.309Z</time>
      </trkpt>
      <trkpt lat="45.62485" lon="6.85687">
        <ele>1818</ele>
        <time>2022-07-16T15:25:31.769Z</time>
      </trkpt>
      <trkpt lat="45.62457" lon="6.85716">
        <ele>1815</ele>
        <time>2022-07-16T15:25:34.456Z</time>
      </trkpt>
      <trkpt lat="45.62435" lon="6.85745">
        <ele>1813</ele>
        <time>2022-07-16T15:25:36.780Z</time>
      </trkpt>
      <trkpt lat="45.62423" lon="6.85765">
        <ele>1811</ele>
        <time>2022-07-16T15:25:38.212Z</time>
      </trkpt>
      <trkpt lat="45.62417" lon="6.85784">
        <ele>1811</ele>
        <time>2022-07-16T15:25:40.257Z</time>
      </trkpt>
      <trkpt lat="45.62413" lon="6.8581">
        <ele>1811</ele>
        <time>2022-07-16T15:25:42.869Z</time>
      </trkpt>
      <trkpt lat="45.62407" lon="6.85811">
        <ele>1809</ele>
        <time>2022-07-16T15:25:43.338Z</time>
      </trkpt>
      <trkpt lat="45.62404" lon="6.85818">
        <ele>1808</ele>
        <time>2022-07-16T15:25:43.785Z</time>
      </trkpt>
      <trkpt lat="45.62404" lon="6.85824">
        <ele>1808</ele>
        <time>2022-07-16T15:25:44.373Z</time>
      </trkpt>
      <trkpt lat="45.62407" lon="6.85828">
        <ele>1810</ele>
        <time>2022-07-16T15:25:46.593Z</time>
      </trkpt>
      <trkpt lat="45.62402" lon="6.8588">
        <ele>1808</ele>
        <time>2022-07-16T15:25:49.471Z</time>
      </trkpt>
      <trkpt lat="45.62404" lon="6.85935">
        <ele>1808</ele>
        <time>2022-07-16T15:25:54.874Z</time>
      </trkpt>
      <trkpt lat="45.62399" lon="6.86026">
        <ele>1801</ele>
        <time>2022-07-16T15:25:59.834Z</time>
      </trkpt>
      <trkpt lat="45.62415" lon="6.86253">
        <ele>1793</ele>
        <time>2022-07-16T15:26:12.817Z</time>
      </trkpt>
      <trkpt lat="45.62414" lon="6.86282">
        <ele>1791</ele>
        <time>2022-07-16T15:26:14.395Z</time>
      </trkpt>
      <trkpt lat="45.62405" lon="6.86354">
        <ele>1783</ele>
        <time>2022-07-16T15:26:18.369Z</time>
      </trkpt>
      <trkpt lat="45.62401" lon="6.86439">
        <ele>1778</ele>
        <time>2022-07-16T15:26:22.998Z</time>
      </trkpt>
      <trkpt lat="45.62405" lon="6.86465">
        <ele>1778</ele>
        <time>2022-07-16T15:26:25.610Z</time>
      </trkpt>
      <trkpt lat="45.62424" lon="6.8651">
        <ele>1782</ele>
        <time>2022-07-16T15:26:40.279Z</time>
      </trkpt>
      <trkpt lat="45.62422" lon="6.86523">
        <ele>1780</ele>
        <time>2022-07-16T15:26:41.003Z</time>
      </trkpt>
      <trkpt lat="45.62415" lon="6.86528">
        <ele>1777</ele>
        <time>2022-07-16T15:26:41.610Z</time>
      </trkpt>
      <trkpt lat="45.62402" lon="6.8652">
        <ele>1772</ele>
        <time>2022-07-16T15:26:42.710Z</time>
      </trkpt>
      <trkpt lat="45.62397" lon="6.86508">
        <ele>1771</ele>
        <time>2022-07-16T15:26:43.469Z</time>
      </trkpt>
      <trkpt lat="45.6239" lon="6.86474">
        <ele>1771</ele>
        <time>2022-07-16T15:26:46.946Z</time>
      </trkpt>
      <trkpt lat="45.62366" lon="6.86311">
        <ele>1768</ele>
        <time>2022-07-16T15:26:58.965Z</time>
      </trkpt>
      <trkpt lat="45.62347" lon="6.86228">
        <ele>1767</ele>
        <time>2022-07-16T15:27:05.990Z</time>
      </trkpt>
      <trkpt lat="45.62331" lon="6.86132">
        <ele>1768</ele>
        <time>2022-07-16T15:27:17.154Z</time>
      </trkpt>
      <trkpt lat="45.62316" lon="6.86084">
        <ele>1766</ele>
        <time>2022-07-16T15:27:20.039Z</time>
      </trkpt>
      <trkpt lat="45.6228" lon="6.86009">
        <ele>1758</ele>
        <time>2022-07-16T15:27:24.982Z</time>
      </trkpt>
      <trkpt lat="45.62273" lon="6.85988">
        <ele>1757</ele>
        <time>2022-07-16T15:27:26.187Z</time>
      </trkpt>
      <trkpt lat="45.62262" lon="6.85829">
        <ele>1750</ele>
        <time>2022-07-16T15:27:34.391Z</time>
      </trkpt>
      <trkpt lat="45.62261" lon="6.85806">
        <ele>1748</ele>
        <time>2022-07-16T15:27:35.643Z</time>
      </trkpt>
      <trkpt lat="45.62264" lon="6.85782">
        <ele>1748</ele>
        <time>2022-07-16T15:27:38.035Z</time>
      </trkpt>
      <trkpt lat="45.62289" lon="6.8574">
        <ele>1756</ele>
        <time>2022-07-16T15:27:58.905Z</time>
      </trkpt>
      <trkpt lat="45.62295" lon="6.85718">
        <ele>1757</ele>
        <time>2022-07-16T15:28:03.257Z</time>
      </trkpt>
      <trkpt lat="45.62298" lon="6.85686">
        <ele>1754</ele>
        <time>2022-07-16T15:28:05.011Z</time>
      </trkpt>
      <trkpt lat="45.62309" lon="6.85545">
        <ele>1745</ele>
        <time>2022-07-16T15:28:12.720Z</time>
      </trkpt>
      <trkpt lat="45.62303" lon="6.85471">
        <ele>1738</ele>
        <time>2022-07-16T15:28:16.768Z</time>
      </trkpt>
      <trkpt lat="45.62286" lon="6.85359">
        <ele>1733</ele>
        <time>2022-07-16T15:28:22.665Z</time>
      </trkpt>
      <trkpt lat="45.62286" lon="6.85334">
        <ele>1734</ele>
        <time>2022-07-16T15:28:27.166Z</time>
      </trkpt>
      <trkpt lat="45.623" lon="6.85236">
        <ele>1733</ele>
        <time>2022-07-16T15:28:35.422Z</time>
      </trkpt>
      <trkpt lat="45.6232" lon="6.85176">
        <ele>1732</ele>
        <time>2022-07-16T15:28:40.452Z</time>
      </trkpt>
      <trkpt lat="45.62336" lon="6.85106">
        <ele>1730</ele>
        <time>2022-07-16T15:28:45.098Z</time>
      </trkpt>
      <trkpt lat="45.62339" lon="6.85086">
        <ele>1729</ele>
        <time>2022-07-16T15:28:46.210Z</time>
      </trkpt>
      <trkpt lat="45.62334" lon="6.85074">
        <ele>1727</ele>
        <time>2022-07-16T15:28:46.969Z</time>
      </trkpt>
      <trkpt lat="45.6233" lon="6.85072">
        <ele>1725</ele>
        <time>2022-07-16T15:28:47.298Z</time>
      </trkpt>
      <trkpt lat="45.62324" lon="6.85075">
        <ele>1723</ele>
        <time>2022-07-16T15:28:47.792Z</time>
      </trkpt>
      <trkpt lat="45.62318" lon="6.85086">
        <ele>1722</ele>
        <time>2022-07-16T15:28:48.550Z</time>
      </trkpt>
      <trkpt lat="45.6231" lon="6.85159">
        <ele>1726</ele>
        <time>2022-07-16T15:29:03.999Z</time>
      </trkpt>
      <trkpt lat="45.62269" lon="6.85272">
        <ele>1725</ele>
        <time>2022-07-16T15:29:14.928Z</time>
      </trkpt>
      <trkpt lat="45.62263" lon="6.85299">
        <ele>1724</ele>
        <time>2022-07-16T15:29:16.536Z</time>
      </trkpt>
      <trkpt lat="45.62255" lon="6.85341">
        <ele>1721</ele>
        <time>2022-07-16T15:29:18.901Z</time>
      </trkpt>
      <trkpt lat="45.62254" lon="6.85399">
        <ele>1718</ele>
        <time>2022-07-16T15:29:22.053Z</time>
      </trkpt>
      <trkpt lat="45.62257" lon="6.85446">
        <ele>1719</ele>
        <time>2022-07-16T15:29:28.462Z</time>
      </trkpt>
      <trkpt lat="45.6225" lon="6.85469">
        <ele>1716</ele>
        <time>2022-07-16T15:29:29.825Z</time>
      </trkpt>
      <trkpt lat="45.62241" lon="6.85533">
        <ele>1714</ele>
        <time>2022-07-16T15:29:33.756Z</time>
      </trkpt>
      <trkpt lat="45.62232" lon="6.85553">
        <ele>1712</ele>
        <time>2022-07-16T15:29:35.048Z</time>
      </trkpt>
      <trkpt lat="45.62204" lon="6.85596">
        <ele>1704</ele>
        <time>2022-07-16T15:29:38.240Z</time>
      </trkpt>
      <trkpt lat="45.62197" lon="6.85617">
        <ele>1703</ele>
        <time>2022-07-16T15:29:39.446Z</time>
      </trkpt>
      <trkpt lat="45.62196" lon="6.85641">
        <ele>1705</ele>
        <time>2022-07-16T15:29:46.968Z</time>
      </trkpt>
      <trkpt lat="45.62201" lon="6.8568">
        <ele>1710</ele>
        <time>2022-07-16T15:30:01.972Z</time>
      </trkpt>
      <trkpt lat="45.62199" lon="6.85695">
        <ele>1711</ele>
        <time>2022-07-16T15:30:05.641Z</time>
      </trkpt>
      <trkpt lat="45.62193" lon="6.85713">
        <ele>1710</ele>
        <time>2022-07-16T15:30:06.724Z</time>
      </trkpt>
      <trkpt lat="45.62164" lon="6.85739">
        <ele>1700</ele>
        <time>2022-07-16T15:30:09.384Z</time>
      </trkpt>
      <trkpt lat="45.62151" lon="6.85758">
        <ele>1695</ele>
        <time>2022-07-16T15:30:10.828Z</time>
      </trkpt>
      <trkpt lat="45.62146" lon="6.85773">
        <ele>1694</ele>
        <time>2022-07-16T15:30:11.731Z</time>
      </trkpt>
      <trkpt lat="45.62125" lon="6.8591">
        <ele>1696</ele>
        <time>2022-07-16T15:30:28.651Z</time>
      </trkpt>
      <trkpt lat="45.62119" lon="6.85969">
        <ele>1695</ele>
        <time>2022-07-16T15:30:33.038Z</time>
      </trkpt>
      <trkpt lat="45.62111" lon="6.85978">
        <ele>1692</ele>
        <time>2022-07-16T15:30:33.829Z</time>
      </trkpt>
      <trkpt lat="45.62107" lon="6.85978">
        <ele>1691</ele>
        <time>2022-07-16T15:30:34.140Z</time>
      </trkpt>
      <trkpt lat="45.62102" lon="6.85974">
        <ele>1689</ele>
        <time>2022-07-16T15:30:34.585Z</time>
      </trkpt>
      <trkpt lat="45.62115" lon="6.85869">
        <ele>1688</ele>
        <time>2022-07-16T15:30:43.486Z</time>
      </trkpt>
      <trkpt lat="45.62122" lon="6.85779">
        <ele>1683</ele>
        <time>2022-07-16T15:30:48.407Z</time>
      </trkpt>
      <trkpt lat="45.62129" lon="6.85755">
        <ele>1684</ele>
        <time>2022-07-16T15:30:53.019Z</time>
      </trkpt>
      <trkpt lat="45.6214" lon="6.85736">
        <ele>1687</ele>
        <time>2022-07-16T15:31:02.352Z</time>
      </trkpt>
      <trkpt lat="45.62149" lon="6.85713">
        <ele>1690</ele>
        <time>2022-07-16T15:31:12.326Z</time>
      </trkpt>
      <trkpt lat="45.6215" lon="6.85704">
        <ele>1690</ele>
        <time>2022-07-16T15:31:13.220Z</time>
      </trkpt>
      <trkpt lat="45.62144" lon="6.8567">
        <ele>1683</ele>
        <time>2022-07-16T15:31:15.125Z</time>
      </trkpt>
      <trkpt lat="45.62142" lon="6.85639">
        <ele>1680</ele>
        <time>2022-07-16T15:31:16.817Z</time>
      </trkpt>
      <trkpt lat="45.62173" lon="6.85499">
        <ele>1681</ele>
        <time>2022-07-16T15:31:32.635Z</time>
      </trkpt>
      <trkpt lat="45.6217" lon="6.85471">
        <ele>1680</ele>
        <time>2022-07-16T15:31:34.242Z</time>
      </trkpt>
      <trkpt lat="45.62155" lon="6.85432">
        <ele>1674</ele>
        <time>2022-07-16T15:31:36.660Z</time>
      </trkpt>
      <trkpt lat="45.62152" lon="6.85418">
        <ele>1672</ele>
        <time>2022-07-16T15:31:37.456Z</time>
      </trkpt>
      <trkpt lat="45.62144" lon="6.85258">
        <ele>1671</ele>
        <time>2022-07-16T15:31:51.658Z</time>
      </trkpt>
      <trkpt lat="45.62144" lon="6.8523">
        <ele>1669</ele>
        <time>2022-07-16T15:31:53.179Z</time>
      </trkpt>
      <trkpt lat="45.62156" lon="6.85132">
        <ele>1664</ele>
        <time>2022-07-16T15:31:58.586Z</time>
      </trkpt>
      <trkpt lat="45.62177" lon="6.8507">
        <ele>1666</ele>
        <time>2022-07-16T15:32:09.490Z</time>
      </trkpt>
      <trkpt lat="45.62183" lon="6.85043">
        <ele>1665</ele>
        <time>2022-07-16T15:32:11.098Z</time>
      </trkpt>
      <trkpt lat="45.62174" lon="6.84916">
        <ele>1653</ele>
        <time>2022-07-16T15:32:18.034Z</time>
      </trkpt>
      <trkpt lat="45.6218" lon="6.84804">
        <ele>1652</ele>
        <time>2022-07-16T15:32:27.493Z</time>
      </trkpt>
      <trkpt lat="45.62178" lon="6.8474">
        <ele>1650</ele>
        <time>2022-07-16T15:32:31.321Z</time>
      </trkpt>
      <trkpt lat="45.62171" lon="6.84656">
        <ele>1644</ele>
        <time>2022-07-16T15:32:35.918Z</time>
      </trkpt>
      <trkpt lat="45.6218" lon="6.84624">
        <ele>1643</ele>
        <time>2022-07-16T15:32:38.040Z</time>
      </trkpt>
      <trkpt lat="45.62195" lon="6.84598">
        <ele>1644</ele>
        <time>2022-07-16T15:32:43.449Z</time>
      </trkpt>
      <trkpt lat="45.6221" lon="6.84554">
        <ele>1641</ele>
        <time>2022-07-16T15:32:46.108Z</time>
      </trkpt>
      <trkpt lat="45.62245" lon="6.84511">
        <ele>1645</ele>
        <time>2022-07-16T15:33:01.008Z</time>
      </trkpt>
      <trkpt lat="45.62258" lon="6.84491">
        <ele>1646</ele>
        <time>2022-07-16T15:33:05.766Z</time>
      </trkpt>
      <trkpt lat="45.62291" lon="6.84401">
        <ele>1642</ele>
        <time>2022-07-16T15:33:11.256Z</time>
      </trkpt>
      <trkpt lat="45.62312" lon="6.84363">
        <ele>1642</ele>
        <time>2022-07-16T15:33:16.008Z</time>
      </trkpt>
      <trkpt lat="45.62316" lon="6.84341">
        <ele>1640</ele>
        <time>2022-07-16T15:33:17.243Z</time>
      </trkpt>
      <trkpt lat="45.62315" lon="6.84302">
        <ele>1635</ele>
        <time>2022-07-16T15:33:19.363Z</time>
      </trkpt>
      <trkpt lat="45.62321" lon="6.84269">
        <ele>1634</ele>
        <time>2022-07-16T15:33:21.452Z</time>
      </trkpt>
      <trkpt lat="45.6235" lon="6.84203">
        <ele>1630</ele>
        <time>2022-07-16T15:33:25.688Z</time>
      </trkpt>
      <trkpt lat="45.62372" lon="6.84176">
        <ele>1630</ele>
        <time>2022-07-16T15:33:29.755Z</time>
      </trkpt>
      <trkpt lat="45.62425" lon="6.84138">
        <ele>1633</ele>
        <time>2022-07-16T15:33:44.355Z</time>
      </trkpt>
      <trkpt lat="45.62439" lon="6.84125">
        <ele>1633</ele>
        <time>2022-07-16T15:33:46.696Z</time>
      </trkpt>
      <trkpt lat="45.62455" lon="6.84079">
        <ele>1626</ele>
        <time>2022-07-16T15:33:49.488Z</time>
      </trkpt>
      <trkpt lat="45.62468" lon="6.84058">
        <ele>1624</ele>
        <time>2022-07-16T15:33:51.012Z</time>
      </trkpt>
      <trkpt lat="45.62505" lon="6.84011">
        <ele>1621</ele>
        <time>2022-07-16T15:33:54.703Z</time>
      </trkpt>
      <trkpt lat="45.62524" lon="6.83999">
        <ele>1623</ele>
        <time>2022-07-16T15:34:02.016Z</time>
      </trkpt>
      <trkpt lat="45.62549" lon="6.83992">
        <ele>1629</ele>
        <time>2022-07-16T15:34:15.799Z</time>
      </trkpt>
      <trkpt lat="45.62559" lon="6.83979">
        <ele>1628</ele>
        <time>2022-07-16T15:34:16.849Z</time>
      </trkpt>
      <trkpt lat="45.62585" lon="6.83917">
        <ele>1617</ele>
        <time>2022-07-16T15:34:20.777Z</time>
      </trkpt>
      <trkpt lat="45.62601" lon="6.83886">
        <ele>1615</ele>
        <time>2022-07-16T15:34:22.871Z</time>
      </trkpt>
      <trkpt lat="45.62614" lon="6.8385">
        <ele>1610</ele>
        <time>2022-07-16T15:34:25.072Z</time>
      </trkpt>
      <trkpt lat="45.62655" lon="6.83806">
        <ele>1615</ele>
        <time>2022-07-16T15:34:43.334Z</time>
      </trkpt>
      <trkpt lat="45.62678" lon="6.83774">
        <ele>1615</ele>
        <time>2022-07-16T15:34:47.836Z</time>
      </trkpt>
      <trkpt lat="45.62709" lon="6.83703">
        <ele>1610</ele>
        <time>2022-07-16T15:34:52.383Z</time>
      </trkpt>
      <trkpt lat="45.62726" lon="6.83655">
        <ele>1602</ele>
        <time>2022-07-16T15:34:55.307Z</time>
      </trkpt>
      <trkpt lat="45.62744" lon="6.83635">
        <ele>1602</ele>
        <time>2022-07-16T15:34:58.504Z</time>
      </trkpt>
      <trkpt lat="45.62765" lon="6.8362">
        <ele>1605</ele>
        <time>2022-07-16T15:35:10.249Z</time>
      </trkpt>
      <trkpt lat="45.62772" lon="6.83612">
        <ele>1605</ele>
        <time>2022-07-16T15:35:11.506Z</time>
      </trkpt>
      <trkpt lat="45.62783" lon="6.83591">
        <ele>1602</ele>
        <time>2022-07-16T15:35:12.932Z</time>
      </trkpt>
      <trkpt lat="45.62805" lon="6.83537">
        <ele>1597</ele>
        <time>2022-07-16T15:35:16.327Z</time>
      </trkpt>
      <trkpt lat="45.6282" lon="6.83519">
        <ele>1597</ele>
        <time>2022-07-16T15:35:19.074Z</time>
      </trkpt>
      <trkpt lat="45.62825" lon="6.83509">
        <ele>1596</ele>
        <time>2022-07-16T15:35:19.742Z</time>
      </trkpt>
      <trkpt lat="45.62826" lon="6.83502">
        <ele>1594</ele>
        <time>2022-07-16T15:35:20.130Z</time>
      </trkpt>
      <trkpt lat="45.62821" lon="6.83493">
        <ele>1590</ele>
        <time>2022-07-16T15:35:20.755Z</time>
      </trkpt>
      <trkpt lat="45.62814" lon="6.83492">
        <ele>1587</ele>
        <time>2022-07-16T15:35:21.301Z</time>
      </trkpt>
      <trkpt lat="45.62805" lon="6.83501">
        <ele>1587</ele>
        <time>2022-07-16T15:35:22.842Z</time>
      </trkpt>
      <trkpt lat="45.62781" lon="6.83556">
        <ele>1592</ele>
        <time>2022-07-16T15:35:41.222Z</time>
      </trkpt>
      <trkpt lat="45.62765" lon="6.83584">
        <ele>1592</ele>
        <time>2022-07-16T15:35:44.769Z</time>
      </trkpt>
      <trkpt lat="45.62751" lon="6.83603">
        <ele>1593</ele>
        <time>2022-07-16T15:35:49.561Z</time>
      </trkpt>
      <trkpt lat="45.6271" lon="6.83639">
        <ele>1591</ele>
        <time>2022-07-16T15:35:53.789Z</time>
      </trkpt>
      <trkpt lat="45.6267" lon="6.83665">
        <ele>1586</ele>
        <time>2022-07-16T15:35:57.203Z</time>
      </trkpt>
      <trkpt lat="45.62645" lon="6.83697">
        <ele>1585</ele>
        <time>2022-07-16T15:36:00.517Z</time>
      </trkpt>
      <trkpt lat="45.62622" lon="6.83753">
        <ele>1586</ele>
        <time>2022-07-16T15:36:08.498Z</time>
      </trkpt>
      <trkpt lat="45.62609" lon="6.83778">
        <ele>1588</ele>
        <time>2022-07-16T15:36:15.857Z</time>
      </trkpt>
      <trkpt lat="45.62585" lon="6.83802">
        <ele>1584</ele>
        <time>2022-07-16T15:36:18.133Z</time>
      </trkpt>
      <trkpt lat="45.62565" lon="6.83836">
        <ele>1585</ele>
        <time>2022-07-16T15:36:24.313Z</time>
      </trkpt>
      <trkpt lat="45.62548" lon="6.83857">
        <ele>1586</ele>
        <time>2022-07-16T15:36:29.632Z</time>
      </trkpt>
      <trkpt lat="45.62534" lon="6.83868">
        <ele>1585</ele>
        <time>2022-07-16T15:36:30.805Z</time>
      </trkpt>
      <trkpt lat="45.62516" lon="6.83878">
        <ele>1584</ele>
        <time>2022-07-16T15:36:32.355Z</time>
      </trkpt>
      <trkpt lat="45.62473" lon="6.83874">
        <ele>1570</ele>
        <time>2022-07-16T15:36:35.702Z</time>
      </trkpt>
      <trkpt lat="45.62458" lon="6.83875">
        <ele>1567</ele>
        <time>2022-07-16T15:36:36.869Z</time>
      </trkpt>
      <trkpt lat="45.62449" lon="6.83878">
        <ele>1566</ele>
        <time>2022-07-16T15:36:37.587Z</time>
      </trkpt>
      <trkpt lat="45.62411" lon="6.83902">
        <ele>1565</ele>
        <time>2022-07-16T15:36:41.954Z</time>
      </trkpt>
      <trkpt lat="45.62382" lon="6.83935">
        <ele>1562</ele>
        <time>2022-07-16T15:36:44.833Z</time>
      </trkpt>
      <trkpt lat="45.6235" lon="6.83991">
        <ele>1562</ele>
        <time>2022-07-16T15:36:51.928Z</time>
      </trkpt>
      <trkpt lat="45.62315" lon="6.84034">
        <ele>1563</ele>
        <time>2022-07-16T15:37:00.004Z</time>
      </trkpt>
      <trkpt lat="45.62299" lon="6.84046">
        <ele>1562</ele>
        <time>2022-07-16T15:37:01.410Z</time>
      </trkpt>
      <trkpt lat="45.62244" lon="6.84062">
        <ele>1552</ele>
        <time>2022-07-16T15:37:05.771Z</time>
      </trkpt>
      <trkpt lat="45.622" lon="6.84088">
        <ele>1547</ele>
        <time>2022-07-16T15:37:09.470Z</time>
      </trkpt>
      <trkpt lat="45.62169" lon="6.84147">
        <ele>1555</ele>
        <time>2022-07-16T15:37:37.395Z</time>
      </trkpt>
      <trkpt lat="45.62122" lon="6.84197">
        <ele>1548</ele>
        <time>2022-07-16T15:37:41.947Z</time>
      </trkpt>
      <trkpt lat="45.62094" lon="6.84246">
        <ele>1548</ele>
        <time>2022-07-16T15:37:48.155Z</time>
      </trkpt>
      <trkpt lat="45.62054" lon="6.84334">
        <ele>1545</ele>
        <time>2022-07-16T15:37:54.649Z</time>
      </trkpt>
      <trkpt lat="45.62035" lon="6.84392">
        <ele>1546</ele>
        <time>2022-07-16T15:38:02.548Z</time>
      </trkpt>
      <trkpt lat="45.61991" lon="6.84472">
        <ele>1540</ele>
        <time>2022-07-16T15:38:08.078Z</time>
      </trkpt>
      <trkpt lat="45.61982" lon="6.84508">
        <ele>1542</ele>
        <time>2022-07-16T15:38:15.909Z</time>
      </trkpt>
      <trkpt lat="45.61976" lon="6.84514">
        <ele>1541</ele>
        <time>2022-07-16T15:38:16.478Z</time>
      </trkpt>
      <trkpt lat="45.6197" lon="6.84514">
        <ele>1538</ele>
        <time>2022-07-16T15:38:16.944Z</time>
      </trkpt>
      <trkpt lat="45.61967" lon="6.84512">
        <ele>1536</ele>
        <time>2022-07-16T15:38:17.201Z</time>
      </trkpt>
      <trkpt lat="45.61965" lon="6.84502">
        <ele>1534</ele>
        <time>2022-07-16T15:38:17.766Z</time>
      </trkpt>
      <trkpt lat="45.61966" lon="6.84494">
        <ele>1533</ele>
        <time>2022-07-16T15:38:18.208Z</time>
      </trkpt>
      <trkpt lat="45.61983" lon="6.84452">
        <ele>1533</ele>
        <time>2022-07-16T15:38:22.969Z</time>
      </trkpt>
      <trkpt lat="45.62018" lon="6.84388">
        <ele>1537</ele>
        <time>2022-07-16T15:38:39.056Z</time>
      </trkpt>
      <trkpt lat="45.62062" lon="6.84235">
        <ele>1532</ele>
        <time>2022-07-16T15:38:49.071Z</time>
      </trkpt>
      <trkpt lat="45.62094" lon="6.84146">
        <ele>1524</ele>
        <time>2022-07-16T15:38:54.509Z</time>
      </trkpt>
      <trkpt lat="45.62137" lon="6.84094">
        <ele>1524</ele>
        <time>2022-07-16T15:39:02.409Z</time>
      </trkpt>
      <trkpt lat="45.62247" lon="6.83942">
        <ele>1514</ele>
        <time>2022-07-16T15:39:13.405Z</time>
      </trkpt>
      <trkpt lat="45.62269" lon="6.83897">
        <ele>1511</ele>
        <time>2022-07-16T15:39:16.389Z</time>
      </trkpt>
      <trkpt lat="45.62285" lon="6.83846">
        <ele>1507</ele>
        <time>2022-07-16T15:39:19.426Z</time>
      </trkpt>
      <trkpt lat="45.62294" lon="6.83822">
        <ele>1504</ele>
        <time>2022-07-16T15:39:20.906Z</time>
      </trkpt>
      <trkpt lat="45.62302" lon="6.83808">
        <ele>1503</ele>
        <time>2022-07-16T15:39:21.888Z</time>
      </trkpt>
      <trkpt lat="45.62316" lon="6.83795">
        <ele>1503</ele>
        <time>2022-07-16T15:39:24.230Z</time>
      </trkpt>
      <trkpt lat="45.62362" lon="6.83767">
        <ele>1509</ele>
        <time>2022-07-16T15:39:46.885Z</time>
      </trkpt>
      <trkpt lat="45.62364" lon="6.83768">
        <ele>1509</ele>
        <time>2022-07-16T15:39:47.183Z</time>
      </trkpt>
      <trkpt lat="45.6237" lon="6.83756">
        <ele>1507</ele>
        <time>2022-07-16T15:39:47.984Z</time>
      </trkpt>
      <trkpt lat="45.62374" lon="6.83737">
        <ele>1504</ele>
        <time>2022-07-16T15:39:49.062Z</time>
      </trkpt>
      <trkpt lat="45.62381" lon="6.83719">
        <ele>1503</ele>
        <time>2022-07-16T15:39:50.181Z</time>
      </trkpt>
      <trkpt lat="45.62385" lon="6.83713">
        <ele>1503</ele>
        <time>2022-07-16T15:39:50.995Z</time>
      </trkpt>
      <trkpt lat="45.62406" lon="6.83697">
        <ele>1505</ele>
        <time>2022-07-16T15:39:58.507Z</time>
      </trkpt>
      <trkpt lat="45.62412" lon="6.83687">
        <ele>1505</ele>
        <time>2022-07-16T15:39:59.800Z</time>
      </trkpt>
      <trkpt lat="45.62426" lon="6.83641">
        <ele>1501</ele>
        <time>2022-07-16T15:40:02.526Z</time>
      </trkpt>
      <trkpt lat="45.62427" lon="6.83605">
        <ele>1494</ele>
        <time>2022-07-16T15:40:04.483Z</time>
      </trkpt>
      <trkpt lat="45.62429" lon="6.83598">
        <ele>1493</ele>
        <time>2022-07-16T15:40:04.894Z</time>
      </trkpt>
      <trkpt lat="45.6244" lon="6.83585">
        <ele>1495</ele>
        <time>2022-07-16T15:40:12.616Z</time>
      </trkpt>
      <trkpt lat="45.6246" lon="6.8357">
        <ele>1497</ele>
        <time>2022-07-16T15:40:20.028Z</time>
      </trkpt>
      <trkpt lat="45.62547" lon="6.83493">
        <ele>1497</ele>
        <time>2022-07-16T15:40:34.380Z</time>
      </trkpt>
      <trkpt lat="45.62564" lon="6.83472">
        <ele>1497</ele>
        <time>2022-07-16T15:40:37.532Z</time>
      </trkpt>
      <trkpt lat="45.62568" lon="6.83463">
        <ele>1496</ele>
        <time>2022-07-16T15:40:38.111Z</time>
      </trkpt>
      <trkpt lat="45.62574" lon="6.83428">
        <ele>1489</ele>
        <time>2022-07-16T15:40:40.069Z</time>
      </trkpt>
      <trkpt lat="45.62577" lon="6.8339">
        <ele>1482</ele>
        <time>2022-07-16T15:40:42.147Z</time>
      </trkpt>
      <trkpt lat="45.62583" lon="6.83367">
        <ele>1480</ele>
        <time>2022-07-16T15:40:43.481Z</time>
      </trkpt>
      <trkpt lat="45.62628" lon="6.83323">
        <ele>1487</ele>
        <time>2022-07-16T15:41:10.978Z</time>
      </trkpt>
      <trkpt lat="45.62635" lon="6.8331">
        <ele>1487</ele>
        <time>2022-07-16T15:41:12.588Z</time>
      </trkpt>
      <trkpt lat="45.62685" lon="6.83163">
        <ele>1476</ele>
        <time>2022-07-16T15:41:21.470Z</time>
      </trkpt>
      <trkpt lat="45.6269" lon="6.83106">
        <ele>1473</ele>
        <time>2022-07-16T15:41:24.591Z</time>
      </trkpt>
      <trkpt lat="45.62706" lon="6.83048">
        <ele>1476</ele>
        <time>2022-07-16T15:41:36.789Z</time>
      </trkpt>
      <trkpt lat="45.62707" lon="6.83036">
        <ele>1476</ele>
        <time>2022-07-16T15:41:37.974Z</time>
      </trkpt>
      <trkpt lat="45.62704" lon="6.83019">
        <ele>1474</ele>
        <time>2022-07-16T15:41:38.927Z</time>
      </trkpt>
      <trkpt lat="45.62686" lon="6.82964">
        <ele>1468</ele>
        <time>2022-07-16T15:41:42.226Z</time>
      </trkpt>
      <trkpt lat="45.62654" lon="6.82883">
        <ele>1461</ele>
        <time>2022-07-16T15:41:47.281Z</time>
      </trkpt>
      <trkpt lat="45.62639" lon="6.82835">
        <ele>1457</ele>
        <time>2022-07-16T15:41:50.137Z</time>
      </trkpt>
      <trkpt lat="45.62636" lon="6.82819">
        <ele>1455</ele>
        <time>2022-07-16T15:41:51.037Z</time>
      </trkpt>
      <trkpt lat="45.62636" lon="6.82805">
        <ele>1453</ele>
        <time>2022-07-16T15:41:51.798Z</time>
      </trkpt>
      <trkpt lat="45.62639" lon="6.82793">
        <ele>1453</ele>
        <time>2022-07-16T15:41:53.048Z</time>
      </trkpt>
      <trkpt lat="45.62646" lon="6.82785">
        <ele>1454</ele>
        <time>2022-07-16T15:41:56.733Z</time>
      </trkpt>
      <trkpt lat="45.62679" lon="6.82763">
        <ele>1458</ele>
        <time>2022-07-16T15:42:11.427Z</time>
      </trkpt>
      <trkpt lat="45.62709" lon="6.82751">
        <ele>1461</ele>
        <time>2022-07-16T15:42:22.396Z</time>
      </trkpt>
      <trkpt lat="45.62718" lon="6.82741">
        <ele>1461</ele>
        <time>2022-07-16T15:42:23.995Z</time>
      </trkpt>
      <trkpt lat="45.62736" lon="6.82706">
        <ele>1456</ele>
        <time>2022-07-16T15:42:26.355Z</time>
      </trkpt>
      <trkpt lat="45.62744" lon="6.82698">
        <ele>1455</ele>
        <time>2022-07-16T15:42:27.114Z</time>
      </trkpt>
      <trkpt lat="45.62753" lon="6.82694">
        <ele>1455</ele>
        <time>2022-07-16T15:42:28.436Z</time>
      </trkpt>
      <trkpt lat="45.62764" lon="6.82695">
        <ele>1456</ele>
        <time>2022-07-16T15:42:32.123Z</time>
      </trkpt>
      <trkpt lat="45.62801" lon="6.82707">
        <ele>1461</ele>
        <time>2022-07-16T15:42:52.174Z</time>
      </trkpt>
      <trkpt lat="45.62811" lon="6.82708">
        <ele>1461</ele>
        <time>2022-07-16T15:42:53.580Z</time>
      </trkpt>
      <trkpt lat="45.62817" lon="6.82705">
        <ele>1461</ele>
        <time>2022-07-16T15:42:54.472Z</time>
      </trkpt>
      <trkpt lat="45.62821" lon="6.8269">
        <ele>1460</ele>
        <time>2022-07-16T15:42:55.344Z</time>
      </trkpt>
      <trkpt lat="45.62819" lon="6.82684">
        <ele>1459</ele>
        <time>2022-07-16T15:42:55.705Z</time>
      </trkpt>
      <trkpt lat="45.62812" lon="6.82678">
        <ele>1458</ele>
        <time>2022-07-16T15:42:56.339Z</time>
      </trkpt>
      <trkpt lat="45.62762" lon="6.82667">
        <ele>1451</ele>
        <time>2022-07-16T15:43:00.270Z</time>
      </trkpt>
      <trkpt lat="45.6274" lon="6.82665">
        <ele>1448</ele>
        <time>2022-07-16T15:43:01.982Z</time>
      </trkpt>
      <trkpt lat="45.6273" lon="6.82669">
        <ele>1448</ele>
        <time>2022-07-16T15:43:03.439Z</time>
      </trkpt>
      <trkpt lat="45.62704" lon="6.82687">
        <ele>1449</ele>
        <time>2022-07-16T15:43:09.373Z</time>
      </trkpt>
      <trkpt lat="45.62692" lon="6.82691">
        <ele>1448</ele>
        <time>2022-07-16T15:43:10.330Z</time>
      </trkpt>
      <trkpt lat="45.62649" lon="6.82695">
        <ele>1443</ele>
        <time>2022-07-16T15:43:13.678Z</time>
      </trkpt>
      <trkpt lat="45.62628" lon="6.82702">
        <ele>1440</ele>
        <time>2022-07-16T15:43:15.353Z</time>
      </trkpt>
      <trkpt lat="45.62598" lon="6.82722">
        <ele>1437</ele>
        <time>2022-07-16T15:43:17.925Z</time>
      </trkpt>
      <trkpt lat="45.62579" lon="6.82748">
        <ele>1436</ele>
        <time>2022-07-16T15:43:20.316Z</time>
      </trkpt>
      <trkpt lat="45.62572" lon="6.82761">
        <ele>1434</ele>
        <time>2022-07-16T15:43:21.207Z</time>
      </trkpt>
      <trkpt lat="45.62566" lon="6.82791">
        <ele>1432</ele>
        <time>2022-07-16T15:43:22.903Z</time>
      </trkpt>
      <trkpt lat="45.62566" lon="6.82826">
        <ele>1432</ele>
        <time>2022-07-16T15:43:26.336Z</time>
      </trkpt>
      <trkpt lat="45.62577" lon="6.82874">
        <ele>1434</ele>
        <time>2022-07-16T15:43:35.393Z</time>
      </trkpt>
      <trkpt lat="45.62578" lon="6.82888">
        <ele>1434</ele>
        <time>2022-07-16T15:43:36.774Z</time>
      </trkpt>
      <trkpt lat="45.62577" lon="6.82905">
        <ele>1432</ele>
        <time>2022-07-16T15:43:37.701Z</time>
      </trkpt>
      <trkpt lat="45.62563" lon="6.82964">
        <ele>1425</ele>
        <time>2022-07-16T15:43:41.086Z</time>
      </trkpt>
      <trkpt lat="45.62564" lon="6.83014">
        <ele>1424</ele>
        <time>2022-07-16T15:43:44.586Z</time>
      </trkpt>
      <trkpt lat="45.62577" lon="6.83102">
        <ele>1423</ele>
        <time>2022-07-16T15:43:51.863Z</time>
      </trkpt>
      <trkpt lat="45.62575" lon="6.83135">
        <ele>1424</ele>
        <time>2022-07-16T15:43:57.238Z</time>
      </trkpt>
      <trkpt lat="45.6257" lon="6.8315">
        <ele>1424</ele>
        <time>2022-07-16T15:43:58.868Z</time>
      </trkpt>
      <trkpt lat="45.62563" lon="6.83161">
        <ele>1422</ele>
        <time>2022-07-16T15:43:59.676Z</time>
      </trkpt>
      <trkpt lat="45.62516" lon="6.83199">
        <ele>1415</ele>
        <time>2022-07-16T15:44:03.871Z</time>
      </trkpt>
      <trkpt lat="45.62508" lon="6.83198">
        <ele>1412</ele>
        <time>2022-07-16T15:44:04.495Z</time>
      </trkpt>
      <trkpt lat="45.62504" lon="6.83192">
        <ele>1410</ele>
        <time>2022-07-16T15:44:04.946Z</time>
      </trkpt>
      <trkpt lat="45.62506" lon="6.83174">
        <ele>1407</ele>
        <time>2022-07-16T15:44:05.936Z</time>
      </trkpt>
      <trkpt lat="45.62537" lon="6.83153">
        <ele>1414</ele>
        <time>2022-07-16T15:44:24.496Z</time>
      </trkpt>
      <trkpt lat="45.62545" lon="6.83144">
        <ele>1415</ele>
        <time>2022-07-16T15:44:28.147Z</time>
      </trkpt>
      <trkpt lat="45.62553" lon="6.83122">
        <ele>1416</ele>
        <time>2022-07-16T15:44:32.625Z</time>
      </trkpt>
      <trkpt lat="45.62553" lon="6.83092">
        <ele>1413</ele>
        <time>2022-07-16T15:44:34.255Z</time>
      </trkpt>
      <trkpt lat="45.62545" lon="6.83062">
        <ele>1412</ele>
        <time>2022-07-16T15:44:36.175Z</time>
      </trkpt>
      <trkpt lat="45.62539" lon="6.83048">
        <ele>1410</ele>
        <time>2022-07-16T15:44:37.067Z</time>
      </trkpt>
      <trkpt lat="45.62515" lon="6.83015">
        <ele>1403</ele>
        <time>2022-07-16T15:44:39.654Z</time>
      </trkpt>
      <trkpt lat="45.6251" lon="6.83003">
        <ele>1402</ele>
        <time>2022-07-16T15:44:40.413Z</time>
      </trkpt>
      <trkpt lat="45.62511" lon="6.82901">
        <ele>1405</ele>
        <time>2022-07-16T15:44:56.690Z</time>
      </trkpt>
      <trkpt lat="45.62516" lon="6.82881">
        <ele>1408</ele>
        <time>2022-07-16T15:45:04.727Z</time>
      </trkpt>
      <trkpt lat="45.62519" lon="6.82834">
        <ele>1411</ele>
        <time>2022-07-16T15:45:15.786Z</time>
      </trkpt>
      <trkpt lat="45.62517" lon="6.82794">
        <ele>1411</ele>
        <time>2022-07-16T15:45:19.720Z</time>
      </trkpt>
      <trkpt lat="45.62508" lon="6.82763">
        <ele>1409</ele>
        <time>2022-07-16T15:45:21.544Z</time>
      </trkpt>
      <trkpt lat="45.62485" lon="6.8272">
        <ele>1397</ele>
        <time>2022-07-16T15:45:24.485Z</time>
      </trkpt>
      <trkpt lat="45.62482" lon="6.82705">
        <ele>1394</ele>
        <time>2022-07-16T15:45:25.333Z</time>
      </trkpt>
      <trkpt lat="45.62482" lon="6.82692">
        <ele>1393</ele>
        <time>2022-07-16T15:45:26.039Z</time>
      </trkpt>
      <trkpt lat="45.62491" lon="6.82666">
        <ele>1396</ele>
        <time>2022-07-16T15:45:37.017Z</time>
      </trkpt>
      <trkpt lat="45.62505" lon="6.8264">
        <ele>1398</ele>
        <time>2022-07-16T15:45:44.457Z</time>
      </trkpt>
      <trkpt lat="45.62527" lon="6.82584">
        <ele>1395</ele>
        <time>2022-07-16T15:45:47.947Z</time>
      </trkpt>
      <trkpt lat="45.62544" lon="6.82556">
        <ele>1392</ele>
        <time>2022-07-16T15:45:49.961Z</time>
      </trkpt>
      <trkpt lat="45.62562" lon="6.82535">
        <ele>1389</ele>
        <time>2022-07-16T15:45:51.766Z</time>
      </trkpt>
      <trkpt lat="45.62583" lon="6.82517">
        <ele>1388</ele>
        <time>2022-07-16T15:45:53.933Z</time>
      </trkpt>
      <trkpt lat="45.62679" lon="6.82447">
        <ele>1383</ele>
        <time>2022-07-16T15:46:02.995Z</time>
      </trkpt>
      <trkpt lat="45.62705" lon="6.82437">
        <ele>1383</ele>
        <time>2022-07-16T15:46:06.772Z</time>
      </trkpt>
      <trkpt lat="45.62739" lon="6.82436">
        <ele>1386</ele>
        <time>2022-07-16T15:46:17.900Z</time>
      </trkpt>
      <trkpt lat="45.62749" lon="6.82432">
        <ele>1386</ele>
        <time>2022-07-16T15:46:19.356Z</time>
      </trkpt>
      <trkpt lat="45.62787" lon="6.82408">
        <ele>1380</ele>
        <time>2022-07-16T15:46:22.584Z</time>
      </trkpt>
      <trkpt lat="45.62821" lon="6.82394">
        <ele>1378</ele>
        <time>2022-07-16T15:46:25.312Z</time>
      </trkpt>
      <trkpt lat="45.62869" lon="6.82383">
        <ele>1380</ele>
        <time>2022-07-16T15:46:36.255Z</time>
      </trkpt>
      <trkpt lat="45.62893" lon="6.8236">
        <ele>1375</ele>
        <time>2022-07-16T15:46:38.499Z</time>
      </trkpt>
      <trkpt lat="45.62909" lon="6.82318">
        <ele>1366</ele>
        <time>2022-07-16T15:46:41.098Z</time>
      </trkpt>
      <trkpt lat="45.62921" lon="6.82295">
        <ele>1362</ele>
        <time>2022-07-16T15:46:42.657Z</time>
      </trkpt>
      <trkpt lat="45.62931" lon="6.82287">
        <ele>1360</ele>
        <time>2022-07-16T15:46:43.547Z</time>
      </trkpt>
      <trkpt lat="45.62971" lon="6.82275">
        <ele>1358</ele>
        <time>2022-07-16T15:46:46.908Z</time>
      </trkpt>
      <trkpt lat="45.62975" lon="6.82268">
        <ele>1357</ele>
        <time>2022-07-16T15:46:47.399Z</time>
      </trkpt>
      <trkpt lat="45.62975" lon="6.82258">
        <ele>1355</ele>
        <time>2022-07-16T15:46:47.942Z</time>
      </trkpt>
      <trkpt lat="45.62965" lon="6.82248">
        <ele>1353</ele>
        <time>2022-07-16T15:46:48.890Z</time>
      </trkpt>
      <trkpt lat="45.62938" lon="6.82256">
        <ele>1354</ele>
        <time>2022-07-16T15:46:54.682Z</time>
      </trkpt>
      <trkpt lat="45.62929" lon="6.82263">
        <ele>1355</ele>
        <time>2022-07-16T15:46:58.335Z</time>
      </trkpt>
      <trkpt lat="45.62907" lon="6.82293">
        <ele>1359</ele>
        <time>2022-07-16T15:47:14.354Z</time>
      </trkpt>
      <trkpt lat="45.62882" lon="6.82336">
        <ele>1365</ele>
        <time>2022-07-16T15:47:35.512Z</time>
      </trkpt>
      <trkpt lat="45.62865" lon="6.82344">
        <ele>1365</ele>
        <time>2022-07-16T15:47:38.023Z</time>
      </trkpt>
      <trkpt lat="45.62821" lon="6.82352">
        <ele>1361</ele>
        <time>2022-07-16T15:47:41.469Z</time>
      </trkpt>
      <trkpt lat="45.62774" lon="6.82357">
        <ele>1358</ele>
        <time>2022-07-16T15:47:44.902Z</time>
      </trkpt>
      <trkpt lat="45.62719" lon="6.82354">
        <ele>1352</ele>
        <time>2022-07-16T15:47:49.178Z</time>
      </trkpt>
      <trkpt lat="45.62675" lon="6.82362">
        <ele>1352</ele>
        <time>2022-07-16T15:47:55.400Z</time>
      </trkpt>
      <trkpt lat="45.62664" lon="6.82362">
        <ele>1351</ele>
        <time>2022-07-16T15:47:56.254Z</time>
      </trkpt>
      <trkpt lat="45.62654" lon="6.82358">
        <ele>1348</ele>
        <time>2022-07-16T15:47:57.061Z</time>
      </trkpt>
      <trkpt lat="45.62645" lon="6.8235">
        <ele>1343</ele>
        <time>2022-07-16T15:47:57.884Z</time>
      </trkpt>
      <trkpt lat="45.62625" lon="6.82344">
        <ele>1339</ele>
        <time>2022-07-16T15:47:59.472Z</time>
      </trkpt>
      <trkpt lat="45.62615" lon="6.82345">
        <ele>1338</ele>
        <time>2022-07-16T15:48:00.251Z</time>
      </trkpt>
      <trkpt lat="45.62607" lon="6.82349">
        <ele>1338</ele>
        <time>2022-07-16T15:48:01.440Z</time>
      </trkpt>
      <trkpt lat="45.62589" lon="6.82365">
        <ele>1340</ele>
        <time>2022-07-16T15:48:08.769Z</time>
      </trkpt>
      <trkpt lat="45.6258" lon="6.82369">
        <ele>1340</ele>
        <time>2022-07-16T15:48:10.091Z</time>
      </trkpt>
      <trkpt lat="45.62559" lon="6.82372">
        <ele>1338</ele>
        <time>2022-07-16T15:48:11.731Z</time>
      </trkpt>
      <trkpt lat="45.62495" lon="6.82393">
        <ele>1331</ele>
        <time>2022-07-16T15:48:16.832Z</time>
      </trkpt>
      <trkpt lat="45.62476" lon="6.82393">
        <ele>1328</ele>
        <time>2022-07-16T15:48:18.308Z</time>
      </trkpt>
      <trkpt lat="45.62448" lon="6.82381">
        <ele>1320</ele>
        <time>2022-07-16T15:48:20.579Z</time>
      </trkpt>
      <trkpt lat="45.6244" lon="6.82382">
        <ele>1319</ele>
        <time>2022-07-16T15:48:21.203Z</time>
      </trkpt>
      <trkpt lat="45.62433" lon="6.82387">
        <ele>1319</ele>
        <time>2022-07-16T15:48:22.301Z</time>
      </trkpt>
      <trkpt lat="45.62413" lon="6.82425">
        <ele>1323</ele>
        <time>2022-07-16T15:48:37.419Z</time>
      </trkpt>
      <trkpt lat="45.62406" lon="6.82434">
        <ele>1323</ele>
        <time>2022-07-16T15:48:38.740Z</time>
      </trkpt>
      <trkpt lat="45.62363" lon="6.82474">
        <ele>1314</ele>
        <time>2022-07-16T15:48:42.725Z</time>
      </trkpt>
      <trkpt lat="45.62356" lon="6.82484">
        <ele>1313</ele>
        <time>2022-07-16T15:48:43.494Z</time>
      </trkpt>
      <trkpt lat="45.62328" lon="6.82537">
        <ele>1309</ele>
        <time>2022-07-16T15:48:47.103Z</time>
      </trkpt>
      <trkpt lat="45.62315" lon="6.8257">
        <ele>1307</ele>
        <time>2022-07-16T15:48:49.161Z</time>
      </trkpt>
      <trkpt lat="45.62312" lon="6.82588">
        <ele>1307</ele>
        <time>2022-07-16T15:48:50.977Z</time>
      </trkpt>
      <trkpt lat="45.62312" lon="6.82625">
        <ele>1307</ele>
        <time>2022-07-16T15:48:54.606Z</time>
      </trkpt>
      <trkpt lat="45.62319" lon="6.8269">
        <ele>1311</ele>
        <time>2022-07-16T15:49:09.494Z</time>
      </trkpt>
      <trkpt lat="45.62318" lon="6.82725">
        <ele>1311</ele>
        <time>2022-07-16T15:49:12.931Z</time>
      </trkpt>
      <trkpt lat="45.62311" lon="6.82765">
        <ele>1309</ele>
        <time>2022-07-16T15:49:15.171Z</time>
      </trkpt>
      <trkpt lat="45.62294" lon="6.82834">
        <ele>1305</ele>
        <time>2022-07-16T15:49:19.146Z</time>
      </trkpt>
      <trkpt lat="45.62289" lon="6.82839">
        <ele>1303</ele>
        <time>2022-07-16T15:49:19.620Z</time>
      </trkpt>
      <trkpt lat="45.62284" lon="6.82839">
        <ele>1300</ele>
        <time>2022-07-16T15:49:20.009Z</time>
      </trkpt>
      <trkpt lat="45.62278" lon="6.82834">
        <ele>1297</ele>
        <time>2022-07-16T15:49:20.548Z</time>
      </trkpt>
      <trkpt lat="45.62276" lon="6.82825">
        <ele>1296</ele>
        <time>2022-07-16T15:49:21.061Z</time>
      </trkpt>
      <trkpt lat="45.62284" lon="6.82796">
        <ele>1298</ele>
        <time>2022-07-16T15:49:28.422Z</time>
      </trkpt>
      <trkpt lat="45.62301" lon="6.82753">
        <ele>1303</ele>
        <time>2022-07-16T15:49:47.113Z</time>
      </trkpt>
      <trkpt lat="45.62303" lon="6.82707">
        <ele>1304</ele>
        <time>2022-07-16T15:49:53.430Z</time>
      </trkpt>
      <trkpt lat="45.62287" lon="6.82644">
        <ele>1296</ele>
        <time>2022-07-16T15:49:57.072Z</time>
      </trkpt>
      <trkpt lat="45.62277" lon="6.82615">
        <ele>1291</ele>
        <time>2022-07-16T15:49:58.829Z</time>
      </trkpt>
      <trkpt lat="45.62277" lon="6.82587">
        <ele>1291</ele>
        <time>2022-07-16T15:50:01.576Z</time>
      </trkpt>
      <trkpt lat="45.62292" lon="6.82521">
        <ele>1291</ele>
        <time>2022-07-16T15:50:08.384Z</time>
      </trkpt>
      <trkpt lat="45.62308" lon="6.82473">
        <ele>1292</ele>
        <time>2022-07-16T15:50:15.305Z</time>
      </trkpt>
      <trkpt lat="45.62362" lon="6.82347">
        <ele>1288</ele>
        <time>2022-07-16T15:50:24.640Z</time>
      </trkpt>
      <trkpt lat="45.62384" lon="6.82302">
        <ele>1283</ele>
        <time>2022-07-16T15:50:27.623Z</time>
      </trkpt>
      <trkpt lat="45.62408" lon="6.82269">
        <ele>1281</ele>
        <time>2022-07-16T15:50:30.118Z</time>
      </trkpt>
      <trkpt lat="45.62435" lon="6.82238">
        <ele>1279</ele>
        <time>2022-07-16T15:50:32.761Z</time>
      </trkpt>
      <trkpt lat="45.62449" lon="6.82226">
        <ele>1278</ele>
        <time>2022-07-16T15:50:33.972Z</time>
      </trkpt>
      <trkpt lat="45.62474" lon="6.82218">
        <ele>1280</ele>
        <time>2022-07-16T15:50:41.672Z</time>
      </trkpt>
      <trkpt lat="45.62496" lon="6.82216">
        <ele>1285</ele>
        <time>2022-07-16T15:50:53.599Z</time>
      </trkpt>
      <trkpt lat="45.62529" lon="6.822">
        <ele>1281</ele>
        <time>2022-07-16T15:50:56.307Z</time>
      </trkpt>
      <trkpt lat="45.62547" lon="6.82188">
        <ele>1277</ele>
        <time>2022-07-16T15:50:57.850Z</time>
      </trkpt>
      <trkpt lat="45.62566" lon="6.8218">
        <ele>1275</ele>
        <time>2022-07-16T15:50:59.389Z</time>
      </trkpt>
      <trkpt lat="45.62577" lon="6.8218">
        <ele>1276</ele>
        <time>2022-07-16T15:51:03.075Z</time>
      </trkpt>
      <trkpt lat="45.62609" lon="6.82186">
        <ele>1280</ele>
        <time>2022-07-16T15:51:18.430Z</time>
      </trkpt>
      <trkpt lat="45.62638" lon="6.82175">
        <ele>1278</ele>
        <time>2022-07-16T15:51:20.565Z</time>
      </trkpt>
      <trkpt lat="45.62681" lon="6.82147">
        <ele>1274</ele>
        <time>2022-07-16T15:51:24.236Z</time>
      </trkpt>
      <trkpt lat="45.62697" lon="6.82127">
        <ele>1271</ele>
        <time>2022-07-16T15:51:25.887Z</time>
      </trkpt>
      <trkpt lat="45.62708" lon="6.82099">
        <ele>1264</ele>
        <time>2022-07-16T15:51:27.632Z</time>
      </trkpt>
      <trkpt lat="45.62724" lon="6.82084">
        <ele>1263</ele>
        <time>2022-07-16T15:51:29.161Z</time>
      </trkpt>
      <trkpt lat="45.62809" lon="6.82045">
        <ele>1258</ele>
        <time>2022-07-16T15:51:36.073Z</time>
      </trkpt>
      <trkpt lat="45.62837" lon="6.82039">
        <ele>1258</ele>
        <time>2022-07-16T15:51:40.044Z</time>
      </trkpt>
      <trkpt lat="45.62868" lon="6.82023">
        <ele>1260</ele>
        <time>2022-07-16T15:51:48.737Z</time>
      </trkpt>
      <trkpt lat="45.62875" lon="6.82016">
        <ele>1259</ele>
        <time>2022-07-16T15:51:49.400Z</time>
      </trkpt>
      <trkpt lat="45.62877" lon="6.82003">
        <ele>1255</ele>
        <time>2022-07-16T15:51:50.124Z</time>
      </trkpt>
      <trkpt lat="45.62868" lon="6.81996">
        <ele>1251</ele>
        <time>2022-07-16T15:51:50.920Z</time>
      </trkpt>
      <trkpt lat="45.62831" lon="6.82015">
        <ele>1249</ele>
        <time>2022-07-16T15:51:54.098Z</time>
      </trkpt>
      <trkpt lat="45.62801" lon="6.82027">
        <ele>1251</ele>
        <time>2022-07-16T15:52:02.523Z</time>
      </trkpt>
      <trkpt lat="45.62767" lon="6.82033">
        <ele>1251</ele>
        <time>2022-07-16T15:52:07.329Z</time>
      </trkpt>
      <trkpt lat="45.62742" lon="6.8203">
        <ele>1248</ele>
        <time>2022-07-16T15:52:09.278Z</time>
      </trkpt>
      <trkpt lat="45.62711" lon="6.8202">
        <ele>1241</ele>
        <time>2022-07-16T15:52:11.747Z</time>
      </trkpt>
      <trkpt lat="45.627" lon="6.82022">
        <ele>1240</ele>
        <time>2022-07-16T15:52:12.608Z</time>
      </trkpt>
      <trkpt lat="45.62693" lon="6.82026">
        <ele>1240</ele>
        <time>2022-07-16T15:52:13.666Z</time>
      </trkpt>
      <trkpt lat="45.62659" lon="6.82063">
        <ele>1245</ele>
        <time>2022-07-16T15:52:32.352Z</time>
      </trkpt>
      <trkpt lat="45.62629" lon="6.82083">
        <ele>1245</ele>
        <time>2022-07-16T15:52:36.995Z</time>
      </trkpt>
      <trkpt lat="45.62617" lon="6.82088">
        <ele>1245</ele>
        <time>2022-07-16T15:52:38.748Z</time>
      </trkpt>
      <trkpt lat="45.62581" lon="6.82092">
        <ele>1241</ele>
        <time>2022-07-16T15:52:41.554Z</time>
      </trkpt>
      <trkpt lat="45.62544" lon="6.82093">
        <ele>1237</ele>
        <time>2022-07-16T15:52:44.429Z</time>
      </trkpt>
      <trkpt lat="45.62495" lon="6.82103">
        <ele>1235</ele>
        <time>2022-07-16T15:52:48.827Z</time>
      </trkpt>
      <trkpt lat="45.62457" lon="6.82104">
        <ele>1230</ele>
        <time>2022-07-16T15:52:51.780Z</time>
      </trkpt>
      <trkpt lat="45.62422" lon="6.82116">
        <ele>1230</ele>
        <time>2022-07-16T15:52:56.829Z</time>
      </trkpt>
      <trkpt lat="45.62366" lon="6.82149">
        <ele>1226</ele>
        <time>2022-07-16T15:53:01.160Z</time>
      </trkpt>
      <trkpt lat="45.6229" lon="6.82221">
        <ele>1225</ele>
        <time>2022-07-16T15:53:12.390Z</time>
      </trkpt>
      <trkpt lat="45.62224" lon="6.8227">
        <ele>1213</ele>
        <time>2022-07-16T15:53:18.168Z</time>
      </trkpt>
      <trkpt lat="45.62198" lon="6.82295">
        <ele>1210</ele>
        <time>2022-07-16T15:53:20.602Z</time>
      </trkpt>
      <trkpt lat="45.62166" lon="6.82338">
        <ele>1209</ele>
        <time>2022-07-16T15:53:25.286Z</time>
      </trkpt>
      <trkpt lat="45.62124" lon="6.82384">
        <ele>1201</ele>
        <time>2022-07-16T15:53:29.397Z</time>
      </trkpt>
      <trkpt lat="45.6211" lon="6.82404">
        <ele>1200</ele>
        <time>2022-07-16T15:53:31.002Z</time>
      </trkpt>
      <trkpt lat="45.6208" lon="6.82481">
        <ele>1199</ele>
        <time>2022-07-16T15:53:38.106Z</time>
      </trkpt>
      <trkpt lat="45.62051" lon="6.82543">
        <ele>1194</ele>
        <time>2022-07-16T15:53:42.159Z</time>
      </trkpt>
      <trkpt lat="45.62045" lon="6.82551">
        <ele>1192</ele>
        <time>2022-07-16T15:53:42.796Z</time>
      </trkpt>
      <trkpt lat="45.62038" lon="6.82553">
        <ele>1190</ele>
        <time>2022-07-16T15:53:43.351Z</time>
      </trkpt>
      <trkpt lat="45.62032" lon="6.8255">
        <ele>1187</ele>
        <time>2022-07-16T15:53:43.844Z</time>
      </trkpt>
      <trkpt lat="45.62031" lon="6.8254">
        <ele>1186</ele>
        <time>2022-07-16T15:53:44.393Z</time>
      </trkpt>
      <trkpt lat="45.62034" lon="6.8253">
        <ele>1186</ele>
        <time>2022-07-16T15:53:45.461Z</time>
      </trkpt>
      <trkpt lat="45.62053" lon="6.82499">
        <ele>1191</ele>
        <time>2022-07-16T15:54:01.059Z</time>
      </trkpt>
      <trkpt lat="45.62065" lon="6.82474">
        <ele>1192</ele>
        <time>2022-07-16T15:54:06.166Z</time>
      </trkpt>
      <trkpt lat="45.62119" lon="6.82317">
        <ele>1186</ele>
        <time>2022-07-16T15:54:16.219Z</time>
      </trkpt>
      <trkpt lat="45.62131" lon="6.82301">
        <ele>1186</ele>
        <time>2022-07-16T15:54:18.520Z</time>
      </trkpt>
      <trkpt lat="45.62168" lon="6.82272">
        <ele>1193</ele>
        <time>2022-07-16T15:54:41.350Z</time>
      </trkpt>
      <trkpt lat="45.62183" lon="6.82247">
        <ele>1192</ele>
        <time>2022-07-16T15:54:43.341Z</time>
      </trkpt>
      <trkpt lat="45.62194" lon="6.82216">
        <ele>1190</ele>
        <time>2022-07-16T15:54:45.230Z</time>
      </trkpt>
      <trkpt lat="45.62203" lon="6.82171">
        <ele>1183</ele>
        <time>2022-07-16T15:54:47.773Z</time>
      </trkpt>
      <trkpt lat="45.62208" lon="6.82157">
        <ele>1181</ele>
        <time>2022-07-16T15:54:48.627Z</time>
      </trkpt>
      <trkpt lat="45.62219" lon="6.82134">
        <ele>1177</ele>
        <time>2022-07-16T15:54:50.141Z</time>
      </trkpt>
      <trkpt lat="45.62228" lon="6.82121">
        <ele>1176</ele>
        <time>2022-07-16T15:54:51.135Z</time>
      </trkpt>
      <trkpt lat="45.62248" lon="6.82104">
        <ele>1178</ele>
        <time>2022-07-16T15:54:58.601Z</time>
      </trkpt>
      <trkpt lat="45.62278" lon="6.82086">
        <ele>1181</ele>
        <time>2022-07-16T15:55:09.632Z</time>
      </trkpt>
      <trkpt lat="45.62297" lon="6.82078">
        <ele>1183</ele>
        <time>2022-07-16T15:55:16.927Z</time>
      </trkpt>
      <trkpt lat="45.62304" lon="6.82071">
        <ele>1183</ele>
        <time>2022-07-16T15:55:18.125Z</time>
      </trkpt>
      <trkpt lat="45.6232" lon="6.8203">
        <ele>1173</ele>
        <time>2022-07-16T15:55:20.676Z</time>
      </trkpt>
      <trkpt lat="45.62343" lon="6.81992">
        <ele>1166</ele>
        <time>2022-07-16T15:55:23.407Z</time>
      </trkpt>
      <trkpt lat="45.62374" lon="6.81955">
        <ele>1164</ele>
        <time>2022-07-16T15:55:26.710Z</time>
      </trkpt>
      <trkpt lat="45.62402" lon="6.81927">
        <ele>1163</ele>
        <time>2022-07-16T15:55:30.104Z</time>
      </trkpt>
      <trkpt lat="45.62453" lon="6.81893">
        <ele>1163</ele>
        <time>2022-07-16T15:55:37.997Z</time>
      </trkpt>
      <trkpt lat="45.62527" lon="6.81827">
        <ele>1156</ele>
        <time>2022-07-16T15:55:44.774Z</time>
      </trkpt>
      <trkpt lat="45.6254" lon="6.8182">
        <ele>1155</ele>
        <time>2022-07-16T15:55:45.853Z</time>
      </trkpt>
      <trkpt lat="45.62572" lon="6.81816">
        <ele>1157</ele>
        <time>2022-07-16T15:55:54.420Z</time>
      </trkpt>
      <trkpt lat="45.62585" lon="6.8181">
        <ele>1157</ele>
        <time>2022-07-16T15:55:56.336Z</time>
      </trkpt>
      <trkpt lat="45.62597" lon="6.81799">
        <ele>1155</ele>
        <time>2022-07-16T15:55:57.444Z</time>
      </trkpt>
      <trkpt lat="45.62618" lon="6.81762">
        <ele>1149</ele>
        <time>2022-07-16T15:56:00.033Z</time>
      </trkpt>
      <trkpt lat="45.62649" lon="6.81723">
        <ele>1146</ele>
        <time>2022-07-16T15:56:03.241Z</time>
      </trkpt>
      <trkpt lat="45.62666" lon="6.81692">
        <ele>1145</ele>
        <time>2022-07-16T15:56:05.788Z</time>
      </trkpt>
      <trkpt lat="45.62689" lon="6.81636">
        <ele>1145</ele>
        <time>2022-07-16T15:56:12.159Z</time>
      </trkpt>
      <trkpt lat="45.62706" lon="6.81602">
        <ele>1147</ele>
        <time>2022-07-16T15:56:20.313Z</time>
      </trkpt>
      <trkpt lat="45.62707" lon="6.81594">
        <ele>1147</ele>
        <time>2022-07-16T15:56:21.110Z</time>
      </trkpt>
      <trkpt lat="45.62704" lon="6.81587">
        <ele>1145</ele>
        <time>2022-07-16T15:56:21.556Z</time>
      </trkpt>
      <trkpt lat="45.62699" lon="6.81586">
        <ele>1144</ele>
        <time>2022-07-16T15:56:21.948Z</time>
      </trkpt>
      <trkpt lat="45.62693" lon="6.81589">
        <ele>1142</ele>
        <time>2022-07-16T15:56:22.442Z</time>
      </trkpt>
      <trkpt lat="45.62682" lon="6.81602">
        <ele>1140</ele>
        <time>2022-07-16T15:56:23.551Z</time>
      </trkpt>
      <trkpt lat="45.62638" lon="6.81668">
        <ele>1136</ele>
        <time>2022-07-16T15:56:28.229Z</time>
      </trkpt>
      <trkpt lat="45.62578" lon="6.81722">
        <ele>1134</ele>
        <time>2022-07-16T15:56:35.351Z</time>
      </trkpt>
      <trkpt lat="45.6256" lon="6.81732">
        <ele>1134</ele>
        <time>2022-07-16T15:56:38.060Z</time>
      </trkpt>
      <trkpt lat="45.6255" lon="6.81736">
        <ele>1134</ele>
        <time>2022-07-16T15:56:39.517Z</time>
      </trkpt>
      <trkpt lat="45.62519" lon="6.81739">
        <ele>1131</ele>
        <time>2022-07-16T15:56:41.931Z</time>
      </trkpt>
      <trkpt lat="45.62467" lon="6.81738">
        <ele>1125</ele>
        <time>2022-07-16T15:56:45.971Z</time>
      </trkpt>
      <trkpt lat="45.62417" lon="6.81751">
        <ele>1123</ele>
        <time>2022-07-16T15:56:50.532Z</time>
      </trkpt>
      <trkpt lat="45.62364" lon="6.8177">
        <ele>1118</ele>
        <time>2022-07-16T15:56:54.778Z</time>
      </trkpt>
      <trkpt lat="45.62345" lon="6.81778">
        <ele>1116</ele>
        <time>2022-07-16T15:56:56.316Z</time>
      </trkpt>
      <trkpt lat="45.62336" lon="6.81786">
        <ele>1116</ele>
        <time>2022-07-16T15:56:57.803Z</time>
      </trkpt>
      <trkpt lat="45.62329" lon="6.81793">
        <ele>1116</ele>
        <time>2022-07-16T15:56:59.001Z</time>
      </trkpt>
      <trkpt lat="45.62307" lon="6.81833">
        <ele>1119</ele>
        <time>2022-07-16T15:57:10.261Z</time>
      </trkpt>
      <trkpt lat="45.62279" lon="6.81875">
        <ele>1119</ele>
        <time>2022-07-16T15:57:15.953Z</time>
      </trkpt>
      <trkpt lat="45.62262" lon="6.81887">
        <ele>1117</ele>
        <time>2022-07-16T15:57:17.426Z</time>
      </trkpt>
      <trkpt lat="45.62216" lon="6.81901">
        <ele>1109</ele>
        <time>2022-07-16T15:57:21.080Z</time>
      </trkpt>
      <trkpt lat="45.62204" lon="6.81907">
        <ele>1107</ele>
        <time>2022-07-16T15:57:22.068Z</time>
      </trkpt>
      <trkpt lat="45.62195" lon="6.81916">
        <ele>1106</ele>
        <time>2022-07-16T15:57:22.921Z</time>
      </trkpt>
      <trkpt lat="45.6208" lon="6.8207">
        <ele>1103</ele>
        <time>2022-07-16T15:57:40.471Z</time>
      </trkpt>
      <trkpt lat="45.62059" lon="6.82093">
        <ele>1102</ele>
        <time>2022-07-16T15:57:42.881Z</time>
      </trkpt>
      <trkpt lat="45.62044" lon="6.82104">
        <ele>1099</ele>
        <time>2022-07-16T15:57:44.191Z</time>
      </trkpt>
      <trkpt lat="45.62028" lon="6.82124">
        <ele>1098</ele>
        <time>2022-07-16T15:57:45.968Z</time>
      </trkpt>
      <trkpt lat="45.6202" lon="6.82136">
        <ele>1098</ele>
        <time>2022-07-16T15:57:47.594Z</time>
      </trkpt>
      <trkpt lat="45.62006" lon="6.82166">
        <ele>1100</ele>
        <time>2022-07-16T15:57:55.250Z</time>
      </trkpt>
      <trkpt lat="45.61992" lon="6.82186">
        <ele>1098</ele>
        <time>2022-07-16T15:57:56.788Z</time>
      </trkpt>
      <trkpt lat="45.61977" lon="6.82204">
        <ele>1096</ele>
        <time>2022-07-16T15:57:58.310Z</time>
      </trkpt>
      <trkpt lat="45.6194" lon="6.82238">
        <ele>1086</ele>
        <time>2022-07-16T15:58:01.727Z</time>
      </trkpt>
      <trkpt lat="45.6193" lon="6.82253">
        <ele>1085</ele>
        <time>2022-07-16T15:58:02.853Z</time>
      </trkpt>
      <trkpt lat="45.61922" lon="6.82272">
        <ele>1085</ele>
        <time>2022-07-16T15:58:05.029Z</time>
      </trkpt>
      <trkpt lat="45.61916" lon="6.82289">
        <ele>1086</ele>
        <time>2022-07-16T15:58:08.938Z</time>
      </trkpt>
      <trkpt lat="45.61913" lon="6.82309">
        <ele>1089</ele>
        <time>2022-07-16T15:58:16.679Z</time>
      </trkpt>
      <trkpt lat="45.61906" lon="6.82323">
        <ele>1089</ele>
        <time>2022-07-16T15:58:18.367Z</time>
      </trkpt>
      <trkpt lat="45.61902" lon="6.82325">
        <ele>1087</ele>
        <time>2022-07-16T15:58:18.696Z</time>
      </trkpt>
      <trkpt lat="45.61895" lon="6.82324">
        <ele>1084</ele>
        <time>2022-07-16T15:58:19.243Z</time>
      </trkpt>
      <trkpt lat="45.61894" lon="6.82308">
        <ele>1080</ele>
        <time>2022-07-16T15:58:20.116Z</time>
      </trkpt>
      <trkpt lat="45.61902" lon="6.82279">
        <ele>1077</ele>
        <time>2022-07-16T15:58:21.810Z</time>
      </trkpt>
      <trkpt lat="45.6193" lon="6.82206">
        <ele>1077</ele>
        <time>2022-07-16T15:58:29.978Z</time>
      </trkpt>
      <trkpt lat="45.61966" lon="6.82131">
        <ele>1076</ele>
        <time>2022-07-16T15:58:37.356Z</time>
      </trkpt>
      <trkpt lat="45.62021" lon="6.82028">
        <ele>1072</ele>
        <time>2022-07-16T15:58:45.135Z</time>
      </trkpt>
      <trkpt lat="45.62058" lon="6.81965">
        <ele>1072</ele>
        <time>2022-07-16T15:58:53.206Z</time>
      </trkpt>
      <trkpt lat="45.62065" lon="6.81948">
        <ele>1071</ele>
        <time>2022-07-16T15:58:54.278Z</time>
      </trkpt>
      <trkpt lat="45.62086" lon="6.81838">
        <ele>1064</ele>
        <time>2022-07-16T15:59:00.474Z</time>
      </trkpt>
      <trkpt lat="45.62108" lon="6.81764">
        <ele>1057</ele>
        <time>2022-07-16T15:59:04.844Z</time>
      </trkpt>
      <trkpt lat="45.6212" lon="6.81738">
        <ele>1055</ele>
        <time>2022-07-16T15:59:06.536Z</time>
      </trkpt>
      <trkpt lat="45.62146" lon="6.81699">
        <ele>1054</ele>
        <time>2022-07-16T15:59:10.391Z</time>
      </trkpt>
      <trkpt lat="45.62215" lon="6.81634">
        <ele>1057</ele>
        <time>2022-07-16T15:59:27.757Z</time>
      </trkpt>
      <trkpt lat="45.62228" lon="6.81618">
        <ele>1057</ele>
        <time>2022-07-16T15:59:30.163Z</time>
      </trkpt>
      <trkpt lat="45.62244" lon="6.81544">
        <ele>1045</ele>
        <time>2022-07-16T15:59:34.372Z</time>
      </trkpt>
      <trkpt lat="45.62249" lon="6.81532">
        <ele>1044</ele>
        <time>2022-07-16T15:59:35.131Z</time>
      </trkpt>
      <trkpt lat="45.62319" lon="6.8147">
        <ele>1042</ele>
        <time>2022-07-16T15:59:43.765Z</time>
      </trkpt>
      <trkpt lat="45.62336" lon="6.81458">
        <ele>1042</ele>
        <time>2022-07-16T15:59:46.425Z</time>
      </trkpt>
      <trkpt lat="45.62346" lon="6.81452">
        <ele>1042</ele>
        <time>2022-07-16T15:59:47.946Z</time>
      </trkpt>
      <trkpt lat="45.62383" lon="6.81438">
        <ele>1045</ele>
        <time>2022-07-16T15:59:59.478Z</time>
      </trkpt>
      <trkpt lat="45.62408" lon="6.81412">
        <ele>1042</ele>
        <time>2022-07-16T16:00:01.880Z</time>
      </trkpt>
      <trkpt lat="45.62434" lon="6.81353">
        <ele>1033</ele>
        <time>2022-07-16T16:00:05.669Z</time>
      </trkpt>
      <trkpt lat="45.62447" lon="6.81339">
        <ele>1033</ele>
        <time>2022-07-16T16:00:07.952Z</time>
      </trkpt>
      <trkpt lat="45.6251" lon="6.81289">
        <ele>1030</ele>
        <time>2022-07-16T16:00:14.281Z</time>
      </trkpt>
      <trkpt lat="45.62528" lon="6.8127">
        <ele>1026</ele>
        <time>2022-07-16T16:00:16.020Z</time>
      </trkpt>
      <trkpt lat="45.62535" lon="6.81268">
        <ele>1025</ele>
        <time>2022-07-16T16:00:16.574Z</time>
      </trkpt>
      <trkpt lat="45.62543" lon="6.81269">
        <ele>1026</ele>
        <time>2022-07-16T16:00:20.424Z</time>
      </trkpt>
      <trkpt lat="45.62592" lon="6.81305">
        <ele>1040</ele>
        <time>2022-07-16T16:00:50.231Z</time>
      </trkpt>
      <trkpt lat="45.626" lon="6.81305">
        <ele>1041</ele>
        <time>2022-07-16T16:00:54.089Z</time>
      </trkpt>
      <trkpt lat="45.62613" lon="6.813">
        <ele>1040</ele>
        <time>2022-07-16T16:00:55.135Z</time>
      </trkpt>
      <trkpt lat="45.62627" lon="6.81291">
        <ele>1038</ele>
        <time>2022-07-16T16:00:56.327Z</time>
      </trkpt>
      <trkpt lat="45.62665" lon="6.81254">
        <ele>1025</ele>
        <time>2022-07-16T16:00:59.899Z</time>
      </trkpt>
      <trkpt lat="45.62681" lon="6.81234">
        <ele>1023</ele>
        <time>2022-07-16T16:01:01.550Z</time>
      </trkpt>
      <trkpt lat="45.6269" lon="6.81181">
        <ele>1019</ele>
        <time>2022-07-16T16:01:04.514Z</time>
      </trkpt>
      <trkpt lat="45.6269" lon="6.81153">
        <ele>1018</ele>
        <time>2022-07-16T16:01:06.094Z</time>
      </trkpt>
      <trkpt lat="45.62679" lon="6.81084">
        <ele>1015</ele>
        <time>2022-07-16T16:01:09.786Z</time>
      </trkpt>
      <trkpt lat="45.62677" lon="6.81031">
        <ele>1012</ele>
        <time>2022-07-16T16:01:12.670Z</time>
      </trkpt>
      <trkpt lat="45.62682" lon="6.80934">
        <ele>1008</ele>
        <time>2022-07-16T16:01:17.818Z</time>
      </trkpt>
      <trkpt lat="45.6268" lon="6.8092">
        <ele>1007</ele>
        <time>2022-07-16T16:01:18.594Z</time>
      </trkpt>
      <trkpt lat="45.62675" lon="6.80909">
        <ele>1006</ele>
        <time>2022-07-16T16:01:19.307Z</time>
      </trkpt>
      <trkpt lat="45.62662" lon="6.80904">
        <ele>1004</ele>
        <time>2022-07-16T16:01:20.353Z</time>
      </trkpt>
      <trkpt lat="45.62653" lon="6.80906">
        <ele>1003</ele>
        <time>2022-07-16T16:01:21.061Z</time>
      </trkpt>
      <trkpt lat="45.62647" lon="6.80912">
        <ele>1002</ele>
        <time>2022-07-16T16:01:21.630Z</time>
      </trkpt>
      <trkpt lat="45.62597" lon="6.80997">
        <ele>999</ele>
        <time>2022-07-16T16:01:28.651Z</time>
      </trkpt>
      <trkpt lat="45.62577" lon="6.81051">
        <ele>998</ele>
        <time>2022-07-16T16:01:33.176Z</time>
      </trkpt>
      <trkpt lat="45.62545" lon="6.81153">
        <ele>998</ele>
        <time>2022-07-16T16:01:44.143Z</time>
      </trkpt>
      <trkpt lat="45.62539" lon="6.81161">
        <ele>997</ele>
        <time>2022-07-16T16:01:44.781Z</time>
      </trkpt>
      <trkpt lat="45.62533" lon="6.81164">
        <ele>997</ele>
        <time>2022-07-16T16:01:45.672Z</time>
      </trkpt>
      <trkpt lat="45.62529" lon="6.81165">
        <ele>997</ele>
        <time>2022-07-16T16:01:46.242Z</time>
      </trkpt>
      <trkpt lat="45.62524" lon="6.81161">
        <ele>996</ele>
        <time>2022-07-16T16:01:46.687Z</time>
      </trkpt>
      <trkpt lat="45.62515" lon="6.81122">
        <ele>992</ele>
        <time>2022-07-16T16:01:48.919Z</time>
      </trkpt>
      <trkpt lat="45.62473" lon="6.80852">
        <ele>971</ele>
        <time>2022-07-16T16:02:03.948Z</time>
      </trkpt>
      <trkpt lat="45.62464" lon="6.80809">
        <ele>969</ele>
        <time>2022-07-16T16:02:06.233Z</time>
      </trkpt>
      <trkpt lat="45.62459" lon="6.80798">
        <ele>968</ele>
        <time>2022-07-16T16:02:06.946Z</time>
      </trkpt>
      <trkpt lat="45.62453" lon="6.80794">
        <ele>967</ele>
        <time>2022-07-16T16:02:07.460Z</time>
      </trkpt>
      <trkpt lat="45.62446" lon="6.80795">
        <ele>967</ele>
        <time>2022-07-16T16:02:08.447Z</time>
      </trkpt>
      <trkpt lat="45.6244" lon="6.808">
        <ele>966</ele>
        <time>2022-07-16T16:02:08.987Z</time>
      </trkpt>
      <trkpt lat="45.62434" lon="6.80811">
        <ele>966</ele>
        <time>2022-07-16T16:02:10.355Z</time>
      </trkpt>
      <trkpt lat="45.62371" lon="6.80966">
        <ele>962</ele>
        <time>2022-07-16T16:02:22.472Z</time>
      </trkpt>
      <trkpt lat="45.6231" lon="6.81098">
        <ele>956</ele>
        <time>2022-07-16T16:02:31.167Z</time>
      </trkpt>
      <trkpt lat="45.62304" lon="6.81098">
        <ele>955</ele>
        <time>2022-07-16T16:02:31.633Z</time>
      </trkpt>
      <trkpt lat="45.62299" lon="6.81095">
        <ele>954</ele>
        <time>2022-07-16T16:02:32.055Z</time>
      </trkpt>
      <trkpt lat="45.62295" lon="6.81088">
        <ele>953</ele>
        <time>2022-07-16T16:02:32.546Z</time>
      </trkpt>
      <trkpt lat="45.62281" lon="6.81004">
        <ele>948</ele>
        <time>2022-07-16T16:02:37.238Z</time>
      </trkpt>
      <trkpt lat="45.62258" lon="6.80826">
        <ele>941</ele>
        <time>2022-07-16T16:02:47.098Z</time>
      </trkpt>
      <trkpt lat="45.62253" lon="6.80808">
        <ele>941</ele>
        <time>2022-07-16T16:02:48.999Z</time>
      </trkpt>
      <trkpt lat="45.62245" lon="6.80802">
        <ele>940</ele>
        <time>2022-07-16T16:02:49.700Z</time>
      </trkpt>
      <trkpt lat="45.62237" lon="6.80806">
        <ele>939</ele>
        <time>2022-07-16T16:02:50.359Z</time>
      </trkpt>
      <trkpt lat="45.62231" lon="6.80817">
        <ele>938</ele>
        <time>2022-07-16T16:02:51.117Z</time>
      </trkpt>
      <trkpt lat="45.62182" lon="6.81045">
        <ele>933</ele>
        <time>2022-07-16T16:03:07.565Z</time>
      </trkpt>
      <trkpt lat="45.62174" lon="6.81058">
        <ele>933</ele>
        <time>2022-07-16T16:03:09.264Z</time>
      </trkpt>
      <trkpt lat="45.62165" lon="6.81063">
        <ele>931</ele>
        <time>2022-07-16T16:03:10.014Z</time>
      </trkpt>
      <trkpt lat="45.62151" lon="6.81065">
        <ele>929</ele>
        <time>2022-07-16T16:03:11.107Z</time>
      </trkpt>
      <trkpt lat="45.6214" lon="6.81058">
        <ele>928</ele>
        <time>2022-07-16T16:03:12.043Z</time>
      </trkpt>
      <trkpt lat="45.62132" lon="6.81047">
        <ele>926</ele>
        <time>2022-07-16T16:03:12.905Z</time>
      </trkpt>
      <trkpt lat="45.62126" lon="6.81025">
        <ele>925</ele>
        <time>2022-07-16T16:03:14.138Z</time>
      </trkpt>
      <trkpt lat="45.62114" lon="6.80819">
        <ele>921</ele>
        <time>2022-07-16T16:03:28.746Z</time>
      </trkpt>
      <trkpt lat="45.62097" lon="6.80614">
        <ele>914</ele>
        <time>2022-07-16T16:03:40.665Z</time>
      </trkpt>
      <trkpt lat="45.62092" lon="6.80511">
        <ele>909</ele>
        <time>2022-07-16T16:03:46.276Z</time>
      </trkpt>
      <trkpt lat="45.62093" lon="6.80478">
        <ele>908</ele>
        <time>2022-07-16T16:03:48.274Z</time>
      </trkpt>
      <trkpt lat="45.62107" lon="6.80408">
        <ele>906</ele>
        <time>2022-07-16T16:03:52.848Z</time>
      </trkpt>
      <trkpt lat="45.62191" lon="6.80136">
        <ele>896</ele>
        <time>2022-07-16T16:04:10.075Z</time>
      </trkpt>
      <trkpt lat="45.62194" lon="6.80107">
        <ele>895</ele>
        <time>2022-07-16T16:04:11.763Z</time>
      </trkpt>
      <trkpt lat="45.62213" lon="6.80065">
        <ele>894</ele>
        <time>2022-07-16T16:04:15.264Z</time>
      </trkpt>
      <trkpt lat="45.62228" lon="6.8004">
        <ele>893</ele>
        <time>2022-07-16T16:04:17.254Z</time>
      </trkpt>
      <trkpt lat="45.62294" lon="6.79947">
        <ele>891</ele>
        <time>2022-07-16T16:04:27.273Z</time>
      </trkpt>
      <trkpt lat="45.62324" lon="6.79875">
        <ele>887</ele>
        <time>2022-07-16T16:04:31.827Z</time>
      </trkpt>
      <trkpt lat="45.62378" lon="6.79763">
        <ele>881</ele>
        <time>2022-07-16T16:04:38.789Z</time>
      </trkpt>
      <trkpt lat="45.62431" lon="6.79645">
        <ele>875</ele>
        <time>2022-07-16T16:04:46.073Z</time>
      </trkpt>
      <trkpt lat="45.62489" lon="6.7953">
        <ele>871</ele>
        <time>2022-07-16T16:04:54.890Z</time>
      </trkpt>
      <trkpt lat="45.62499" lon="6.79521">
        <ele>871</ele>
        <time>2022-07-16T16:04:56.547Z</time>
      </trkpt>
      <trkpt lat="45.62526" lon="6.79471">
        <ele>870</ele>
        <time>2022-07-16T16:05:01.267Z</time>
      </trkpt>
      <trkpt lat="45.62532" lon="6.79472">
        <ele>870</ele>
        <time>2022-07-16T16:05:02.114Z</time>
      </trkpt>
      <trkpt lat="45.62543" lon="6.79463">
        <ele>870</ele>
        <time>2022-07-16T16:05:03.892Z</time>
      </trkpt>
      <trkpt lat="45.62543" lon="6.79449">
        <ele>869</ele>
        <time>2022-07-16T16:05:04.653Z</time>
      </trkpt>
      <trkpt lat="45.62578" lon="6.79408">
        <ele>868</ele>
        <time>2022-07-16T16:05:09.516Z</time>
      </trkpt>
      <trkpt lat="45.62595" lon="6.79383">
        <ele>870</ele>
        <time>2022-07-16T16:05:17.085Z</time>
      </trkpt>
      <trkpt lat="45.6261" lon="6.79359">
        <ele>873</ele>
        <time>2022-07-16T16:05:29.236Z</time>
      </trkpt>
      <trkpt lat="45.62628" lon="6.7931">
        <ele>874</ele>
        <time>2022-07-16T16:05:36.349Z</time>
      </trkpt>
      <trkpt lat="45.62638" lon="6.79266">
        <ele>872</ele>
        <time>2022-07-16T16:05:38.740Z</time>
      </trkpt>
      <trkpt lat="45.62647" lon="6.79207">
        <ele>868</ele>
        <time>2022-07-16T16:05:42.021Z</time>
      </trkpt>
      <trkpt lat="45.62667" lon="6.79134">
        <ele>861</ele>
        <time>2022-07-16T16:05:46.281Z</time>
      </trkpt>
      <trkpt lat="45.62674" lon="6.791">
        <ele>860</ele>
        <time>2022-07-16T16:05:48.484Z</time>
      </trkpt>
      <trkpt lat="45.62686" lon="6.79025">
        <ele>858</ele>
        <time>2022-07-16T16:05:53.417Z</time>
      </trkpt>
      <trkpt lat="45.62704" lon="6.78769">
        <ele>840</ele>
        <time>2022-07-16T16:06:07.396Z</time>
      </trkpt>
      <trkpt lat="45.62713" lon="6.78717">
        <ele>839</ele>
        <time>2022-07-16T16:06:11.222Z</time>
      </trkpt>
      <trkpt lat="45.62714" lon="6.78697">
        <ele>838</ele>
        <time>2022-07-16T16:06:12.311Z</time>
      </trkpt>
      <trkpt lat="45.62709" lon="6.78654">
        <ele>838</ele>
        <time>2022-07-16T16:06:16.587Z</time>
      </trkpt>
      <trkpt lat="45.62698" lon="6.78619">
        <ele>840</ele>
        <time>2022-07-16T16:06:24.430Z</time>
      </trkpt>
      <trkpt lat="45.62695" lon="6.78613">
        <ele>840</ele>
        <time>2022-07-16T16:06:25.153Z</time>
      </trkpt>
      <trkpt lat="45.62651" lon="6.78567">
        <ele>837</ele>
        <time>2022-07-16T16:06:29.408Z</time>
      </trkpt>
      <trkpt lat="45.6263" lon="6.78541">
        <ele>836</ele>
        <time>2022-07-16T16:06:31.983Z</time>
      </trkpt>
      <trkpt lat="45.62623" lon="6.78527">
        <ele>835</ele>
        <time>2022-07-16T16:06:32.919Z</time>
      </trkpt>
      <trkpt lat="45.62612" lon="6.78492">
        <ele>835</ele>
        <time>2022-07-16T16:06:36.683Z</time>
      </trkpt>
      <trkpt lat="45.62578" lon="6.78375">
        <ele>835</ele>
        <time>2022-07-16T16:06:49.112Z</time>
      </trkpt>
      <trkpt lat="45.62566" lon="6.78316">
        <ele>836</ele>
        <time>2022-07-16T16:06:56.773Z</time>
      </trkpt>
      <trkpt lat="45.62564" lon="6.78288">
        <ele>835</ele>
        <time>2022-07-16T16:06:58.365Z</time>
      </trkpt>
      <trkpt lat="45.62567" lon="6.78213">
        <ele>833</ele>
        <time>2022-07-16T16:07:03.139Z</time>
      </trkpt>
      <trkpt lat="45.62559" lon="6.78157">
        <ele>830</ele>
        <time>2022-07-16T16:07:06.245Z</time>
      </trkpt>
      <trkpt lat="45.62545" lon="6.7811">
        <ele>828</ele>
        <time>2022-07-16T16:07:09.012Z</time>
      </trkpt>
      <trkpt lat="45.62519" lon="6.78045">
        <ele>822</ele>
        <time>2022-07-16T16:07:13.081Z</time>
      </trkpt>
      <trkpt lat="45.62504" lon="6.78017">
        <ele>819</ele>
        <time>2022-07-16T16:07:14.997Z</time>
      </trkpt>
      <trkpt lat="45.62458" lon="6.77952">
        <ele>818</ele>
        <time>2022-07-16T16:07:22.520Z</time>
      </trkpt>
      <trkpt lat="45.62398" lon="6.77878">
        <ele>813</ele>
        <time>2022-07-16T16:07:28.316Z</time>
      </trkpt>
      <trkpt lat="45.62358" lon="6.77838">
        <ele>812</ele>
        <time>2022-07-16T16:07:33.661Z</time>
      </trkpt>
      <trkpt lat="45.62355" lon="6.77825">
        <ele>812</ele>
        <time>2022-07-16T16:07:35.004Z</time>
      </trkpt>
      <trkpt lat="45.62346" lon="6.77818">
        <ele>811</ele>
        <time>2022-07-16T16:07:35.800Z</time>
      </trkpt>
      <trkpt lat="45.62341" lon="6.77818">
        <ele>811</ele>
        <time>2022-07-16T16:07:36.501Z</time>
      </trkpt>
      <trkpt lat="45.62334" lon="6.77808">
        <ele>811</ele>
        <time>2022-07-16T16:07:37.889Z</time>
      </trkpt>
      <trkpt lat="45.62276" lon="6.77674">
        <ele>809</ele>
        <time>2022-07-16T16:07:50.297Z</time>
      </trkpt>
      <trkpt lat="45.62205" lon="6.77525">
        <ele>808</ele>
        <time>2022-07-16T16:08:06.474Z</time>
      </trkpt>
      <trkpt lat="45.62194" lon="6.77514">
        <ele>808</ele>
        <time>2022-07-16T16:08:08.357Z</time>
      </trkpt>
      <trkpt lat="45.62132" lon="6.77344">
        <ele>810</ele>
        <time>2022-07-16T16:08:30.143Z</time>
      </trkpt>
      <trkpt lat="45.62068" lon="6.77191">
        <ele>814</ele>
        <time>2022-07-16T16:08:54.912Z</time>
      </trkpt>
      <trkpt lat="45.62058" lon="6.77163">
        <ele>814</ele>
        <time>2022-07-16T16:08:57.996Z</time>
      </trkpt>
      <trkpt lat="45.62058" lon="6.77156">
        <ele>814</ele>
        <time>2022-07-16T16:08:58.683Z</time>
      </trkpt>
      <trkpt lat="45.62045" lon="6.77126">
        <ele>815</ele>
        <time>2022-07-16T16:09:04.189Z</time>
      </trkpt>
      <trkpt lat="45.62048" lon="6.77118">
        <ele>815</ele>
        <time>2022-07-16T16:09:05.079Z</time>
      </trkpt>
      <trkpt lat="45.62047" lon="6.77105">
        <ele>815</ele>
        <time>2022-07-16T16:09:06.362Z</time>
      </trkpt>
      <trkpt lat="45.62069" lon="6.77089">
        <ele>816</ele>
        <time>2022-07-16T16:09:11.868Z</time>
      </trkpt>
      <trkpt lat="45.6208" lon="6.77088">
        <ele>816</ele>
        <time>2022-07-16T16:09:13.414Z</time>
      </trkpt>
      <trkpt lat="45.62139" lon="6.77085">
        <ele>817</ele>
        <time>2022-07-16T16:09:23.216Z</time>
      </trkpt>
      <trkpt lat="45.62193" lon="6.77086">
        <ele>818</ele>
        <time>2022-07-16T16:09:32.339Z</time>
      </trkpt>
      <trkpt lat="45.62233" lon="6.77091">
        <ele>820</ele>
        <time>2022-07-16T16:09:42.176Z</time>
      </trkpt>
      <trkpt lat="45.62247" lon="6.77094">
        <ele>821</ele>
        <time>2022-07-16T16:09:46.191Z</time>
      </trkpt>
      <trkpt lat="45.62274" lon="6.77106">
        <ele>823</ele>
        <time>2022-07-16T16:09:54.216Z</time>
      </trkpt>
      <trkpt lat="45.62304" lon="6.77124">
        <ele>826</ele>
        <time>2022-07-16T16:10:05.247Z</time>
      </trkpt>
      <trkpt lat="45.62328" lon="6.77145">
        <ele>829</ele>
        <time>2022-07-16T16:10:16.219Z</time>
      </trkpt>
      <trkpt lat="45.6234" lon="6.7716">
        <ele>833</ele>
        <time>2022-07-16T16:10:24.843Z</time>
      </trkpt>
      <trkpt lat="45.62392" lon="6.77256">
        <ele>842</ele>
        <time>2022-07-16T16:10:57.738Z</time>
      </trkpt>
      <trkpt lat="45.62459" lon="6.77429">
        <ele>848</ele>
        <time>2022-07-16T16:11:29.932Z</time>
      </trkpt>
      <trkpt lat="45.62464" lon="6.77455">
        <ele>848</ele>
        <time>2022-07-16T16:11:32.577Z</time>
      </trkpt>
      <trkpt lat="45.62475" lon="6.77487">
        <ele>849</ele>
        <time>2022-07-16T16:11:38.106Z</time>
      </trkpt>
      <trkpt lat="45.62495" lon="6.77524">
        <ele>856</ele>
        <time>2022-07-16T16:11:55.801Z</time>
      </trkpt>
      <trkpt lat="45.62507" lon="6.77561">
        <ele>861</ele>
        <time>2022-07-16T16:12:11.234Z</time>
      </trkpt>
      <trkpt lat="45.62508" lon="6.77589">
        <ele>860</ele>
        <time>2022-07-16T16:12:12.818Z</time>
      </trkpt>
      <trkpt lat="45.62497" lon="6.77636">
        <ele>853</ele>
        <time>2022-07-16T16:12:15.511Z</time>
      </trkpt>
      <trkpt lat="45.62495" lon="6.77665">
        <ele>852</ele>
        <time>2022-07-16T16:12:17.185Z</time>
      </trkpt>
      <trkpt lat="45.6251" lon="6.77729">
        <ele>855</ele>
        <time>2022-07-16T16:12:29.891Z</time>
      </trkpt>
      <trkpt lat="45.62525" lon="6.77764">
        <ele>857</ele>
        <time>2022-07-16T16:12:37.975Z</time>
      </trkpt>
      <trkpt lat="45.62536" lon="6.77782">
        <ele>858</ele>
        <time>2022-07-16T16:12:42.357Z</time>
      </trkpt>
      <trkpt lat="45.62541" lon="6.77785">
        <ele>860</ele>
        <time>2022-07-16T16:12:45.291Z</time>
      </trkpt>
      <trkpt lat="45.626" lon="6.77782">
        <ele>882</ele>
        <time>2022-07-16T16:13:17.234Z</time>
      </trkpt>
      <trkpt lat="45.62613" lon="6.77787">
        <ele>887</ele>
        <time>2022-07-16T16:13:24.518Z</time>
      </trkpt>
      <trkpt lat="45.6262" lon="6.77795">
        <ele>889</ele>
        <time>2022-07-16T16:13:29.366Z</time>
      </trkpt>
      <trkpt lat="45.6262" lon="6.77826">
        <ele>885</ele>
        <time>2022-07-16T16:13:31.051Z</time>
      </trkpt>
      <trkpt lat="45.62616" lon="6.77838">
        <ele>881</ele>
        <time>2022-07-16T16:13:31.773Z</time>
      </trkpt>
      <trkpt lat="45.62611" lon="6.77876">
        <ele>876</ele>
        <time>2022-07-16T16:13:33.874Z</time>
      </trkpt>
      <trkpt lat="45.62612" lon="6.77909">
        <ele>874</ele>
        <time>2022-07-16T16:13:35.668Z</time>
      </trkpt>
      <trkpt lat="45.62616" lon="6.7792">
        <ele>875</ele>
        <time>2022-07-16T16:13:39.387Z</time>
      </trkpt>
      <trkpt lat="45.62624" lon="6.77931">
        <ele>877</ele>
        <time>2022-07-16T16:13:45.392Z</time>
      </trkpt>
      <trkpt lat="45.62651" lon="6.77962">
        <ele>883</ele>
        <time>2022-07-16T16:14:04.127Z</time>
      </trkpt>
      <trkpt lat="45.6267" lon="6.78005">
        <ele>882</ele>
        <time>2022-07-16T16:14:07.704Z</time>
      </trkpt>
      <trkpt lat="45.6268" lon="6.78035">
        <ele>885</ele>
        <time>2022-07-16T16:14:19.535Z</time>
      </trkpt>
      <trkpt lat="45.62684" lon="6.78055">
        <ele>885</ele>
        <time>2022-07-16T16:14:21.576Z</time>
      </trkpt>
      <trkpt lat="45.62695" lon="6.78082">
        <ele>888</ele>
        <time>2022-07-16T16:14:33.399Z</time>
      </trkpt>
      <trkpt lat="45.62742" lon="6.78176">
        <ele>899</ele>
        <time>2022-07-16T16:15:17.123Z</time>
      </trkpt>
      <trkpt lat="45.62756" lon="6.78225">
        <ele>904</ele>
        <time>2022-07-16T16:15:37.151Z</time>
      </trkpt>
      <trkpt lat="45.62769" lon="6.78317">
        <ele>906</ele>
        <time>2022-07-16T16:15:49.923Z</time>
      </trkpt>
      <trkpt lat="45.62779" lon="6.78364">
        <ele>905</ele>
        <time>2022-07-16T16:15:53.341Z</time>
      </trkpt>
      <trkpt lat="45.6279" lon="6.78386">
        <ele>906</ele>
        <time>2022-07-16T16:15:58.069Z</time>
      </trkpt>
      <trkpt lat="45.6282" lon="6.78423">
        <ele>911</ele>
        <time>2022-07-16T16:16:17.478Z</time>
      </trkpt>
      <trkpt lat="45.62858" lon="6.78488">
        <ele>910</ele>
        <time>2022-07-16T16:16:24.251Z</time>
      </trkpt>
      <trkpt lat="45.62888" lon="6.78518">
        <ele>910</ele>
        <time>2022-07-16T16:16:29.386Z</time>
      </trkpt>
      <trkpt lat="45.62906" lon="6.78531">
        <ele>912</ele>
        <time>2022-07-16T16:16:36.684Z</time>
      </trkpt>
      <trkpt lat="45.62954" lon="6.78543">
        <ele>919</ele>
        <time>2022-07-16T16:17:03.049Z</time>
      </trkpt>
      <trkpt lat="45.62992" lon="6.78563">
        <ele>921</ele>
        <time>2022-07-16T16:17:12.941Z</time>
      </trkpt>
      <trkpt lat="45.62997" lon="6.78562">
        <ele>923</ele>
        <time>2022-07-16T16:17:15.673Z</time>
      </trkpt>
      <trkpt lat="45.63" lon="6.78558">
        <ele>924</ele>
        <time>2022-07-16T16:17:17.892Z</time>
      </trkpt>
      <trkpt lat="45.63" lon="6.78548">
        <ele>926</ele>
        <time>2022-07-16T16:17:21.676Z</time>
      </trkpt>
      <trkpt lat="45.62994" lon="6.7854">
        <ele>926</ele>
        <time>2022-07-16T16:17:22.827Z</time>
      </trkpt>
      <trkpt lat="45.6296" lon="6.78521">
        <ele>925</ele>
        <time>2022-07-16T16:17:26.526Z</time>
      </trkpt>
      <trkpt lat="45.62909" lon="6.78487">
        <ele>923</ele>
        <time>2022-07-16T16:17:31.768Z</time>
      </trkpt>
      <trkpt lat="45.62899" lon="6.78477">
        <ele>922</ele>
        <time>2022-07-16T16:17:32.716Z</time>
      </trkpt>
      <trkpt lat="45.62888" lon="6.7846">
        <ele>922</ele>
        <time>2022-07-16T16:17:34.988Z</time>
      </trkpt>
      <trkpt lat="45.62881" lon="6.78431">
        <ele>925</ele>
        <time>2022-07-16T16:17:46.596Z</time>
      </trkpt>
      <trkpt lat="45.62874" lon="6.78375">
        <ele>930</ele>
        <time>2022-07-16T16:18:05.952Z</time>
      </trkpt>
      <trkpt lat="45.62873" lon="6.78344">
        <ele>933</ele>
        <time>2022-07-16T16:18:17.694Z</time>
      </trkpt>
      <trkpt lat="45.62881" lon="6.78317">
        <ele>938</ele>
        <time>2022-07-16T16:18:28.789Z</time>
      </trkpt>
      <trkpt lat="45.62887" lon="6.78307">
        <ele>940</ele>
        <time>2022-07-16T16:18:33.775Z</time>
      </trkpt>
      <trkpt lat="45.62902" lon="6.78295">
        <ele>944</ele>
        <time>2022-07-16T16:18:43.075Z</time>
      </trkpt>
      <trkpt lat="45.62917" lon="6.78297">
        <ele>946</ele>
        <time>2022-07-16T16:18:51.147Z</time>
      </trkpt>
      <trkpt lat="45.62921" lon="6.783">
        <ele>947</ele>
        <time>2022-07-16T16:18:53.591Z</time>
      </trkpt>
      <trkpt lat="45.62987" lon="6.78365">
        <ele>949</ele>
        <time>2022-07-16T16:19:08.164Z</time>
      </trkpt>
      <trkpt lat="45.63006" lon="6.78379">
        <ele>950</ele>
        <time>2022-07-16T16:19:13.298Z</time>
      </trkpt>
      <trkpt lat="45.63025" lon="6.7839">
        <ele>951</ele>
        <time>2022-07-16T16:19:18.286Z</time>
      </trkpt>
      <trkpt lat="45.63069" lon="6.78409">
        <ele>953</ele>
        <time>2022-07-16T16:19:29.006Z</time>
      </trkpt>
      <trkpt lat="45.63115" lon="6.78422">
        <ele>955</ele>
        <time>2022-07-16T16:19:39.801Z</time>
      </trkpt>
      <trkpt lat="45.63202" lon="6.78413">
        <ele>966</ele>
        <time>2022-07-16T16:20:22.478Z</time>
      </trkpt>
      <trkpt lat="45.63226" lon="6.78412">
        <ele>971</ele>
        <time>2022-07-16T16:20:35.469Z</time>
      </trkpt>
      <trkpt lat="45.63236" lon="6.78415">
        <ele>971</ele>
        <time>2022-07-16T16:20:36.902Z</time>
      </trkpt>
      <trkpt lat="45.63247" lon="6.78423">
        <ele>970</ele>
        <time>2022-07-16T16:20:37.861Z</time>
      </trkpt>
      <trkpt lat="45.63274" lon="6.78457">
        <ele>963</ele>
        <time>2022-07-16T16:20:40.656Z</time>
      </trkpt>
      <trkpt lat="45.63324" lon="6.78497">
        <ele>963</ele>
        <time>2022-07-16T16:20:48.693Z</time>
      </trkpt>
      <trkpt lat="45.63363" lon="6.78512">
        <ele>968</ele>
        <time>2022-07-16T16:21:07.875Z</time>
      </trkpt>
      <trkpt lat="45.63396" lon="6.78536">
        <ele>965</ele>
        <time>2022-07-16T16:21:10.751Z</time>
      </trkpt>
      <trkpt lat="45.63416" lon="6.78544">
        <ele>967</ele>
        <time>2022-07-16T16:21:18.064Z</time>
      </trkpt>
      <trkpt lat="45.63435" lon="6.78543">
        <ele>969</ele>
        <time>2022-07-16T16:21:25.369Z</time>
      </trkpt>
      <trkpt lat="45.63457" lon="6.78535">
        <ele>975</ele>
        <time>2022-07-16T16:21:37.651Z</time>
      </trkpt>
      <trkpt lat="45.63468" lon="6.78534">
        <ele>976</ele>
        <time>2022-07-16T16:21:41.339Z</time>
      </trkpt>
      <trkpt lat="45.63503" lon="6.78546">
        <ele>970</ele>
        <time>2022-07-16T16:21:44.135Z</time>
      </trkpt>
      <trkpt lat="45.63556" lon="6.78553">
        <ele>961</ele>
        <time>2022-07-16T16:21:48.270Z</time>
      </trkpt>
      <trkpt lat="45.6357" lon="6.78551">
        <ele>961</ele>
        <time>2022-07-16T16:21:50.244Z</time>
      </trkpt>
      <trkpt lat="45.63605" lon="6.78534">
        <ele>968</ele>
        <time>2022-07-16T16:22:10.244Z</time>
      </trkpt>
      <trkpt lat="45.63651" lon="6.78521">
        <ele>974</ele>
        <time>2022-07-16T16:22:33.754Z</time>
      </trkpt>
      <trkpt lat="45.637" lon="6.7848">
        <ele>986</ele>
        <time>2022-07-16T16:23:04.470Z</time>
      </trkpt>
      <trkpt lat="45.63723" lon="6.78468">
        <ele>988</ele>
        <time>2022-07-16T16:23:12.049Z</time>
      </trkpt>
      <trkpt lat="45.6378" lon="6.78447">
        <ele>991</ele>
        <time>2022-07-16T16:23:26.578Z</time>
      </trkpt>
      <trkpt lat="45.638" lon="6.78443">
        <ele>990</ele>
        <time>2022-07-16T16:23:28.231Z</time>
      </trkpt>
      <trkpt lat="45.6383" lon="6.78451">
        <ele>982</ele>
        <time>2022-07-16T16:23:30.602Z</time>
      </trkpt>
      <trkpt lat="45.6385" lon="6.7845">
        <ele>983</ele>
        <time>2022-07-16T16:23:35.509Z</time>
      </trkpt>
      <trkpt lat="45.6387" lon="6.78445">
        <ele>988</ele>
        <time>2022-07-16T16:23:46.495Z</time>
      </trkpt>
      <trkpt lat="45.63898" lon="6.78434">
        <ele>996</ele>
        <time>2022-07-16T16:24:02.206Z</time>
      </trkpt>
      <trkpt lat="45.63908" lon="6.78434">
        <ele>997</ele>
        <time>2022-07-16T16:24:05.853Z</time>
      </trkpt>
      <trkpt lat="45.63918" lon="6.7844">
        <ele>995</ele>
        <time>2022-07-16T16:24:06.696Z</time>
      </trkpt>
      <trkpt lat="45.63948" lon="6.78474">
        <ele>984</ele>
        <time>2022-07-16T16:24:09.670Z</time>
      </trkpt>
      <trkpt lat="45.63987" lon="6.78501">
        <ele>979</ele>
        <time>2022-07-16T16:24:13.036Z</time>
      </trkpt>
      <trkpt lat="45.64037" lon="6.78501">
        <ele>994</ele>
        <time>2022-07-16T16:24:40.089Z</time>
      </trkpt>
      <trkpt lat="45.64053" lon="6.78507">
        <ele>996</ele>
        <time>2022-07-16T16:24:47.668Z</time>
      </trkpt>
      <trkpt lat="45.64116" lon="6.78547">
        <ele>994</ele>
        <time>2022-07-16T16:24:54.533Z</time>
      </trkpt>
      <trkpt lat="45.64162" lon="6.78591">
        <ele>986</ele>
        <time>2022-07-16T16:24:58.832Z</time>
      </trkpt>
      <trkpt lat="45.64178" lon="6.78602">
        <ele>989</ele>
        <time>2022-07-16T16:25:08.437Z</time>
      </trkpt>
      <trkpt lat="45.64202" lon="6.78613">
        <ele>994</ele>
        <time>2022-07-16T16:25:22.073Z</time>
      </trkpt>
      <trkpt lat="45.64234" lon="6.78617">
        <ele>1001</ele>
        <time>2022-07-16T16:25:39.454Z</time>
      </trkpt>
      <trkpt lat="45.64302" lon="6.78611">
        <ele>1004</ele>
        <time>2022-07-16T16:25:55.471Z</time>
      </trkpt>
      <trkpt lat="45.64364" lon="6.78611">
        <ele>1002</ele>
        <time>2022-07-16T16:26:01.441Z</time>
      </trkpt>
      <trkpt lat="45.64403" lon="6.78605">
        <ele>1003</ele>
        <time>2022-07-16T16:26:08.619Z</time>
      </trkpt>
      <trkpt lat="45.64467" lon="6.78589">
        <ele>1014</ele>
        <time>2022-07-16T16:26:43.772Z</time>
      </trkpt>
      <trkpt lat="45.645" lon="6.78591">
        <ele>1017</ele>
        <time>2022-07-16T16:26:54.833Z</time>
      </trkpt>
      <trkpt lat="45.64549" lon="6.78585">
        <ele>1011</ele>
        <time>2022-07-16T16:26:58.654Z</time>
      </trkpt>
      <trkpt lat="45.64567" lon="6.78586">
        <ele>1008</ele>
        <time>2022-07-16T16:27:00.053Z</time>
      </trkpt>
      <trkpt lat="45.64626" lon="6.78606">
        <ele>1008</ele>
        <time>2022-07-16T16:27:08.559Z</time>
      </trkpt>
      <trkpt lat="45.64655" lon="6.78613">
        <ele>1009</ele>
        <time>2022-07-16T16:27:14.550Z</time>
      </trkpt>
      <trkpt lat="45.64698" lon="6.78607">
        <ele>1013</ele>
        <time>2022-07-16T16:27:29.248Z</time>
      </trkpt>
      <trkpt lat="45.64724" lon="6.78609">
        <ele>1015</ele>
        <time>2022-07-16T16:27:36.996Z</time>
      </trkpt>
      <trkpt lat="45.64757" lon="6.78619">
        <ele>1015</ele>
        <time>2022-07-16T16:27:41.728Z</time>
      </trkpt>
      <trkpt lat="45.64812" lon="6.78648">
        <ele>1013</ele>
        <time>2022-07-16T16:27:47.266Z</time>
      </trkpt>
      <trkpt lat="45.64835" lon="6.78663">
        <ele>1011</ele>
        <time>2022-07-16T16:27:49.230Z</time>
      </trkpt>
      <trkpt lat="45.64877" lon="6.78698">
        <ele>1020</ele>
        <time>2022-07-16T16:28:15.530Z</time>
      </trkpt>
      <trkpt lat="45.64972" lon="6.7877">
        <ele>1025</ele>
        <time>2022-07-16T16:28:41.310Z</time>
      </trkpt>
      <trkpt lat="45.6501" lon="6.78783">
        <ele>1031</ele>
        <time>2022-07-16T16:29:02.450Z</time>
      </trkpt>
      <trkpt lat="45.65023" lon="6.78785">
        <ele>1033</ele>
        <time>2022-07-16T16:29:09.524Z</time>
      </trkpt>
      <trkpt lat="45.65061" lon="6.78782">
        <ele>1037</ele>
        <time>2022-07-16T16:29:24.134Z</time>
      </trkpt>
      <trkpt lat="45.6511" lon="6.78777">
        <ele>1045</ele>
        <time>2022-07-16T16:29:50.714Z</time>
      </trkpt>
      <trkpt lat="45.65128" lon="6.78773">
        <ele>1048</ele>
        <time>2022-07-16T16:30:00.570Z</time>
      </trkpt>
      <trkpt lat="45.65152" lon="6.78761">
        <ele>1051</ele>
        <time>2022-07-16T16:30:11.817Z</time>
      </trkpt>
      <trkpt lat="45.65189" lon="6.7873">
        <ele>1058</ele>
        <time>2022-07-16T16:30:35.017Z</time>
      </trkpt>
      <trkpt lat="45.65258" lon="6.78697">
        <ele>1060</ele>
        <time>2022-07-16T16:30:48.657Z</time>
      </trkpt>
      <trkpt lat="45.6527" lon="6.78695">
        <ele>1060</ele>
        <time>2022-07-16T16:30:50.352Z</time>
      </trkpt>
      <trkpt lat="45.6531" lon="6.78698">
        <ele>1064</ele>
        <time>2022-07-16T16:31:04.944Z</time>
      </trkpt>
      <trkpt lat="45.65329" lon="6.78697">
        <ele>1066</ele>
        <time>2022-07-16T16:31:12.249Z</time>
      </trkpt>
      <trkpt lat="45.65349" lon="6.78692">
        <ele>1068</ele>
        <time>2022-07-16T16:31:19.549Z</time>
      </trkpt>
      <trkpt lat="45.65356" lon="6.78688">
        <ele>1069</ele>
        <time>2022-07-16T16:31:23.583Z</time>
      </trkpt>
      <trkpt lat="45.6539" lon="6.78662">
        <ele>1070</ele>
        <time>2022-07-16T16:31:30.676Z</time>
      </trkpt>
      <trkpt lat="45.65433" lon="6.78624">
        <ele>1076</ele>
        <time>2022-07-16T16:31:53.225Z</time>
      </trkpt>
      <trkpt lat="45.65562" lon="6.7849">
        <ele>1089</ele>
        <time>2022-07-16T16:32:42.515Z</time>
      </trkpt>
      <trkpt lat="45.65597" lon="6.78451">
        <ele>1093</ele>
        <time>2022-07-16T16:32:57.283Z</time>
      </trkpt>
      <trkpt lat="45.6563" lon="6.78409">
        <ele>1097</ele>
        <time>2022-07-16T16:33:12.038Z</time>
      </trkpt>
      <trkpt lat="45.65651" lon="6.78388">
        <ele>1099</ele>
        <time>2022-07-16T16:33:19.738Z</time>
      </trkpt>
      <trkpt lat="45.6573" lon="6.7833">
        <ele>1100</ele>
        <time>2022-07-16T16:33:33.627Z</time>
      </trkpt>
      <trkpt lat="45.65773" lon="6.78304">
        <ele>1108</ele>
        <time>2022-07-16T16:33:58.885Z</time>
      </trkpt>
      <trkpt lat="45.65824" lon="6.78287">
        <ele>1114</ele>
        <time>2022-07-16T16:34:21.150Z</time>
      </trkpt>
      <trkpt lat="45.65857" lon="6.78273">
        <ele>1120</ele>
        <time>2022-07-16T16:34:39.774Z</time>
      </trkpt>
      <trkpt lat="45.65872" lon="6.78264">
        <ele>1121</ele>
        <time>2022-07-16T16:34:44.088Z</time>
      </trkpt>
      <trkpt lat="45.65885" lon="6.7825">
        <ele>1120</ele>
        <time>2022-07-16T16:34:45.294Z</time>
      </trkpt>
      <trkpt lat="45.6593" lon="6.78185">
        <ele>1124</ele>
        <time>2022-07-16T16:35:02.384Z</time>
      </trkpt>
      <trkpt lat="45.65936" lon="6.7818">
        <ele>1124</ele>
        <time>2022-07-16T16:35:03.358Z</time>
      </trkpt>
      <trkpt lat="45.65958" lon="6.7817">
        <ele>1126</ele>
        <time>2022-07-16T16:35:10.809Z</time>
      </trkpt>
      <trkpt lat="45.65974" lon="6.78167">
        <ele>1128</ele>
        <time>2022-07-16T16:35:18.486Z</time>
      </trkpt>
      <trkpt lat="45.65998" lon="6.78169">
        <ele>1132</ele>
        <time>2022-07-16T16:35:31.494Z</time>
      </trkpt>
      <trkpt lat="45.66014" lon="6.78173">
        <ele>1138</ele>
        <time>2022-07-16T16:35:40.282Z</time>
      </trkpt>
      <trkpt lat="45.66034" lon="6.78168">
        <ele>1141</ele>
        <time>2022-07-16T16:35:51.267Z</time>
      </trkpt>
      <trkpt lat="45.66054" lon="6.78147">
        <ele>1144</ele>
        <time>2022-07-16T16:36:02.635Z</time>
      </trkpt>
      <trkpt lat="45.66099" lon="6.78075">
        <ele>1144</ele>
        <time>2022-07-16T16:36:12.105Z</time>
      </trkpt>
      <trkpt lat="45.66127" lon="6.7805">
        <ele>1148</ele>
        <time>2022-07-16T16:36:27.279Z</time>
      </trkpt>
      <trkpt lat="45.66158" lon="6.78031">
        <ele>1149</ele>
        <time>2022-07-16T16:36:33.773Z</time>
      </trkpt>
      <trkpt lat="45.66208" lon="6.77987">
        <ele>1154</ele>
        <time>2022-07-16T16:36:52.484Z</time>
      </trkpt>
      <trkpt lat="45.66226" lon="6.77955">
        <ele>1156</ele>
        <time>2022-07-16T16:37:00.567Z</time>
      </trkpt>
      <trkpt lat="45.66244" lon="6.77929">
        <ele>1154</ele>
        <time>2022-07-16T16:37:02.554Z</time>
      </trkpt>
      <trkpt lat="45.66259" lon="6.7792">
        <ele>1154</ele>
        <time>2022-07-16T16:37:04.836Z</time>
      </trkpt>
      <trkpt lat="45.66297" lon="6.77922">
        <ele>1164</ele>
        <time>2022-07-16T16:37:25.410Z</time>
      </trkpt>
      <trkpt lat="45.66311" lon="6.77915">
        <ele>1166</ele>
        <time>2022-07-16T16:37:33.435Z</time>
      </trkpt>
      <trkpt lat="45.66317" lon="6.77909">
        <ele>1167</ele>
        <time>2022-07-16T16:37:37.395Z</time>
      </trkpt>
      <trkpt lat="45.66327" lon="6.77895">
        <ele>1167</ele>
        <time>2022-07-16T16:37:39.358Z</time>
      </trkpt>
      <trkpt lat="45.66357" lon="6.77841">
        <ele>1166</ele>
        <time>2022-07-16T16:37:44.621Z</time>
      </trkpt>
      <trkpt lat="45.66379" lon="6.77813">
        <ele>1167</ele>
        <time>2022-07-16T16:37:50.617Z</time>
      </trkpt>
      <trkpt lat="45.66399" lon="6.77793">
        <ele>1166</ele>
        <time>2022-07-16T16:37:52.773Z</time>
      </trkpt>
      <trkpt lat="45.66475" lon="6.7773">
        <ele>1174</ele>
        <time>2022-07-16T16:38:22.252Z</time>
      </trkpt>
      <trkpt lat="45.66489" lon="6.77714">
        <ele>1177</ele>
        <time>2022-07-16T16:38:31.946Z</time>
      </trkpt>
      <trkpt lat="45.66501" lon="6.77688">
        <ele>1177</ele>
        <time>2022-07-16T16:38:35.001Z</time>
      </trkpt>
      <trkpt lat="45.66528" lon="6.77591">
        <ele>1174</ele>
        <time>2022-07-16T16:38:41.442Z</time>
      </trkpt>
      <trkpt lat="45.66549" lon="6.77527">
        <ele>1178</ele>
        <time>2022-07-16T16:38:56.645Z</time>
      </trkpt>
      <trkpt lat="45.66595" lon="6.77444">
        <ele>1187</ele>
        <time>2022-07-16T16:39:30.837Z</time>
      </trkpt>
      <trkpt lat="45.66609" lon="6.77433">
        <ele>1191</ele>
        <time>2022-07-16T16:39:39.479Z</time>
      </trkpt>
      <trkpt lat="45.6662" lon="6.7744">
        <ele>1195</ele>
        <time>2022-07-16T16:39:45.993Z</time>
      </trkpt>
      <trkpt lat="45.66622" lon="6.77446">
        <ele>1195</ele>
        <time>2022-07-16T16:39:46.645Z</time>
      </trkpt>
      <trkpt lat="45.66621" lon="6.7746">
        <ele>1195</ele>
        <time>2022-07-16T16:39:48.024Z</time>
      </trkpt>
      <trkpt lat="45.66609" lon="6.77493">
        <ele>1190</ele>
        <time>2022-07-16T16:39:50.044Z</time>
      </trkpt>
      <trkpt lat="45.66611" lon="6.7751">
        <ele>1192</ele>
        <time>2022-07-16T16:39:56.562Z</time>
      </trkpt>
      <trkpt lat="45.66614" lon="6.77519">
        <ele>1193</ele>
        <time>2022-07-16T16:40:00.333Z</time>
      </trkpt>
      <trkpt lat="45.66634" lon="6.77551">
        <ele>1202</ele>
        <time>2022-07-16T16:40:16.566Z</time>
      </trkpt>
      <trkpt lat="45.6664" lon="6.77573">
        <ele>1205</ele>
        <time>2022-07-16T16:40:25.495Z</time>
      </trkpt>
      <trkpt lat="45.66641" lon="6.77601">
        <ele>1208</ele>
        <time>2022-07-16T16:40:36.096Z</time>
      </trkpt>
      <trkpt lat="45.66644" lon="6.77605">
        <ele>1209</ele>
        <time>2022-07-16T16:40:38.315Z</time>
      </trkpt>
      <trkpt lat="45.66652" lon="6.77603">
        <ele>1211</ele>
        <time>2022-07-16T16:40:42.709Z</time>
      </trkpt>
      <trkpt lat="45.6667" lon="6.7754">
        <ele>1213</ele>
        <time>2022-07-16T16:40:53.561Z</time>
      </trkpt>
      <trkpt lat="45.66679" lon="6.77516">
        <ele>1216</ele>
        <time>2022-07-16T16:41:03.859Z</time>
      </trkpt>
      <trkpt lat="45.66706" lon="6.77461">
        <ele>1224</ele>
        <time>2022-07-16T16:41:29.274Z</time>
      </trkpt>
      <trkpt lat="45.66708" lon="6.77449">
        <ele>1224</ele>
        <time>2022-07-16T16:41:30.483Z</time>
      </trkpt>
      <trkpt lat="45.66708" lon="6.77421">
        <ele>1223</ele>
        <time>2022-07-16T16:41:32.062Z</time>
      </trkpt>
      <trkpt lat="45.66704" lon="6.77405">
        <ele>1222</ele>
        <time>2022-07-16T16:41:32.985Z</time>
      </trkpt>
      <trkpt lat="45.66693" lon="6.77377">
        <ele>1219</ele>
        <time>2022-07-16T16:41:34.729Z</time>
      </trkpt>
      <trkpt lat="45.6668" lon="6.77355">
        <ele>1214</ele>
        <time>2022-07-16T16:41:36.293Z</time>
      </trkpt>
      <trkpt lat="45.66678" lon="6.77341">
        <ele>1214</ele>
        <time>2022-07-16T16:41:37.694Z</time>
      </trkpt>
      <trkpt lat="45.66681" lon="6.77309">
        <ele>1216</ele>
        <time>2022-07-16T16:41:45.104Z</time>
      </trkpt>
      <trkpt lat="45.66695" lon="6.77265">
        <ele>1224</ele>
        <time>2022-07-16T16:42:03.384Z</time>
      </trkpt>
      <trkpt lat="45.66698" lon="6.77236">
        <ele>1226</ele>
        <time>2022-07-16T16:42:10.689Z</time>
      </trkpt>
      <trkpt lat="45.66697" lon="6.77226">
        <ele>1226</ele>
        <time>2022-07-16T16:42:11.679Z</time>
      </trkpt>
      <trkpt lat="45.66701" lon="6.77214">
        <ele>1228</ele>
        <time>2022-07-16T16:42:16.706Z</time>
      </trkpt>
      <trkpt lat="45.66705" lon="6.77213">
        <ele>1230</ele>
        <time>2022-07-16T16:42:18.903Z</time>
      </trkpt>
      <trkpt lat="45.66711" lon="6.77216">
        <ele>1232</ele>
        <time>2022-07-16T16:42:22.342Z</time>
      </trkpt>
      <trkpt lat="45.66705" lon="6.77254">
        <ele>1229</ele>
        <time>2022-07-16T16:42:24.457Z</time>
      </trkpt>
      <trkpt lat="45.66706" lon="6.77279">
        <ele>1228</ele>
        <time>2022-07-16T16:42:25.799Z</time>
      </trkpt>
      <trkpt lat="45.66711" lon="6.7729">
        <ele>1230</ele>
        <time>2022-07-16T16:42:30.761Z</time>
      </trkpt>
      <trkpt lat="45.66728" lon="6.77309">
        <ele>1237</ele>
        <time>2022-07-16T16:42:42.432Z</time>
      </trkpt>
      <trkpt lat="45.66731" lon="6.77319">
        <ele>1237</ele>
        <time>2022-07-16T16:42:43.499Z</time>
      </trkpt>
      <trkpt lat="45.66728" lon="6.77353">
        <ele>1234</ele>
        <time>2022-07-16T16:42:45.360Z</time>
      </trkpt>
      <trkpt lat="45.66729" lon="6.77375">
        <ele>1233</ele>
        <time>2022-07-16T16:42:46.471Z</time>
      </trkpt>
      <trkpt lat="45.66755" lon="6.77418">
        <ele>1241</ele>
        <time>2022-07-16T16:43:07.971Z</time>
      </trkpt>
      <trkpt lat="45.66767" lon="6.7745">
        <ele>1247</ele>
        <time>2022-07-16T16:43:21.702Z</time>
      </trkpt>
      <trkpt lat="45.66774" lon="6.77481">
        <ele>1251</ele>
        <time>2022-07-16T16:43:34.020Z</time>
      </trkpt>
      <trkpt lat="45.66779" lon="6.77488">
        <ele>1254</ele>
        <time>2022-07-16T16:43:37.805Z</time>
      </trkpt>
      <trkpt lat="45.66784" lon="6.77481">
        <ele>1257</ele>
        <time>2022-07-16T16:43:41.590Z</time>
      </trkpt>
      <trkpt lat="45.66764" lon="6.77378">
        <ele>1248</ele>
        <time>2022-07-16T16:43:47.394Z</time>
      </trkpt>
      <trkpt lat="45.6676" lon="6.77338">
        <ele>1250</ele>
        <time>2022-07-16T16:43:55.415Z</time>
      </trkpt>
      <trkpt lat="45.66763" lon="6.77282">
        <ele>1254</ele>
        <time>2022-07-16T16:44:10.004Z</time>
      </trkpt>
      <trkpt lat="45.66756" lon="6.77247">
        <ele>1252</ele>
        <time>2022-07-16T16:44:11.981Z</time>
      </trkpt>
      <trkpt lat="45.66758" lon="6.77235">
        <ele>1252</ele>
        <time>2022-07-16T16:44:13.190Z</time>
      </trkpt>
      <trkpt lat="45.66766" lon="6.77227">
        <ele>1255</ele>
        <time>2022-07-16T16:44:18.471Z</time>
      </trkpt>
      <trkpt lat="45.66783" lon="6.77226">
        <ele>1264</ele>
        <time>2022-07-16T16:44:27.677Z</time>
      </trkpt>
      <trkpt lat="45.66797" lon="6.77218">
        <ele>1270</ele>
        <time>2022-07-16T16:44:35.833Z</time>
      </trkpt>
      <trkpt lat="45.66801" lon="6.77208">
        <ele>1271</ele>
        <time>2022-07-16T16:44:39.677Z</time>
      </trkpt>
      <trkpt lat="45.66803" lon="6.77174">
        <ele>1267</ele>
        <time>2022-07-16T16:44:41.529Z</time>
      </trkpt>
      <trkpt lat="45.66805" lon="6.77168">
        <ele>1268</ele>
        <time>2022-07-16T16:44:44.043Z</time>
      </trkpt>
      <trkpt lat="45.66808" lon="6.77167">
        <ele>1269</ele>
        <time>2022-07-16T16:44:45.709Z</time>
      </trkpt>
      <trkpt lat="45.66812" lon="6.7717">
        <ele>1271</ele>
        <time>2022-07-16T16:44:48.153Z</time>
      </trkpt>
      <trkpt lat="45.66814" lon="6.77176">
        <ele>1273</ele>
        <time>2022-07-16T16:44:50.666Z</time>
      </trkpt>
      <trkpt lat="45.66814" lon="6.77207">
        <ele>1277</ele>
        <time>2022-07-16T16:45:02.388Z</time>
      </trkpt>
      <trkpt lat="45.66811" lon="6.77227">
        <ele>1278</ele>
        <time>2022-07-16T16:45:06.421Z</time>
      </trkpt>
      <trkpt lat="45.66808" lon="6.77237">
        <ele>1278</ele>
        <time>2022-07-16T16:45:07.488Z</time>
      </trkpt>
      <trkpt lat="45.66793" lon="6.77265">
        <ele>1271</ele>
        <time>2022-07-16T16:45:09.403Z</time>
      </trkpt>
      <trkpt lat="45.66793" lon="6.77282">
        <ele>1270</ele>
        <time>2022-07-16T16:45:10.326Z</time>
      </trkpt>
      <trkpt lat="45.66814" lon="6.7733">
        <ele>1277</ele>
        <time>2022-07-16T16:45:31.739Z</time>
      </trkpt>
      <trkpt lat="45.66826" lon="6.77422">
        <ele>1278</ele>
        <time>2022-07-16T16:45:42.407Z</time>
      </trkpt>
      <trkpt lat="45.6684" lon="6.77445">
        <ele>1286</ele>
        <time>2022-07-16T16:45:53.940Z</time>
      </trkpt>
      <trkpt lat="45.66851" lon="6.77456">
        <ele>1293</ele>
        <time>2022-07-16T16:46:01.201Z</time>
      </trkpt>
      <trkpt lat="45.66858" lon="6.77471">
        <ele>1297</ele>
        <time>2022-07-16T16:46:08.021Z</time>
      </trkpt>
      <trkpt lat="45.6686" lon="6.7748">
        <ele>1298</ele>
        <time>2022-07-16T16:46:11.592Z</time>
      </trkpt>
      <trkpt lat="45.66859" lon="6.77493">
        <ele>1297</ele>
        <time>2022-07-16T16:46:12.302Z</time>
      </trkpt>
      <trkpt lat="45.66849" lon="6.77528">
        <ele>1296</ele>
        <time>2022-07-16T16:46:14.708Z</time>
      </trkpt>
      <trkpt lat="45.66851" lon="6.77537">
        <ele>1299</ele>
        <time>2022-07-16T16:46:18.279Z</time>
      </trkpt>
      <trkpt lat="45.66854" lon="6.77537">
        <ele>1301</ele>
        <time>2022-07-16T16:46:19.902Z</time>
      </trkpt>
      <trkpt lat="45.66858" lon="6.77535">
        <ele>1303</ele>
        <time>2022-07-16T16:46:22.195Z</time>
      </trkpt>
      <trkpt lat="45.66861" lon="6.77527">
        <ele>1303</ele>
        <time>2022-07-16T16:46:23.085Z</time>
      </trkpt>
      <trkpt lat="45.66875" lon="6.77478">
        <ele>1306</ele>
        <time>2022-07-16T16:46:34.480Z</time>
      </trkpt>
      <trkpt lat="45.66876" lon="6.77466">
        <ele>1307</ele>
        <time>2022-07-16T16:46:38.234Z</time>
      </trkpt>
      <trkpt lat="45.66875" lon="6.77457">
        <ele>1306</ele>
        <time>2022-07-16T16:46:38.729Z</time>
      </trkpt>
      <trkpt lat="45.6686" lon="6.7743">
        <ele>1297</ele>
        <time>2022-07-16T16:46:40.602Z</time>
      </trkpt>
      <trkpt lat="45.66859" lon="6.7742">
        <ele>1297</ele>
        <time>2022-07-16T16:46:41.592Z</time>
      </trkpt>
      <trkpt lat="45.66864" lon="6.77384">
        <ele>1301</ele>
        <time>2022-07-16T16:46:55.470Z</time>
      </trkpt>
      <trkpt lat="45.66865" lon="6.77358">
        <ele>1302</ele>
        <time>2022-07-16T16:47:00.083Z</time>
      </trkpt>
      <trkpt lat="45.66862" lon="6.77298">
        <ele>1304</ele>
        <time>2022-07-16T16:47:10.233Z</time>
      </trkpt>
      <trkpt lat="45.66872" lon="6.77237">
        <ele>1311</ele>
        <time>2022-07-16T16:47:33.923Z</time>
      </trkpt>
      <trkpt lat="45.66875" lon="6.77189">
        <ele>1306</ele>
        <time>2022-07-16T16:47:36.539Z</time>
      </trkpt>
      <trkpt lat="45.66877" lon="6.77183">
        <ele>1307</ele>
        <time>2022-07-16T16:47:39.053Z</time>
      </trkpt>
      <trkpt lat="45.66882" lon="6.77178">
        <ele>1309</ele>
        <time>2022-07-16T16:47:42.353Z</time>
      </trkpt>
      <trkpt lat="45.66889" lon="6.7718">
        <ele>1313</ele>
        <time>2022-07-16T16:47:46.215Z</time>
      </trkpt>
      <trkpt lat="45.66889" lon="6.77253">
        <ele>1321</ele>
        <time>2022-07-16T16:48:13.817Z</time>
      </trkpt>
      <trkpt lat="45.66893" lon="6.77295">
        <ele>1320</ele>
        <time>2022-07-16T16:48:16.625Z</time>
      </trkpt>
      <trkpt lat="45.66896" lon="6.77313">
        <ele>1321</ele>
        <time>2022-07-16T16:48:20.489Z</time>
      </trkpt>
      <trkpt lat="45.66913" lon="6.7737">
        <ele>1329</ele>
        <time>2022-07-16T16:48:43.922Z</time>
      </trkpt>
      <trkpt lat="45.66916" lon="6.77388">
        <ele>1330</ele>
        <time>2022-07-16T16:48:47.785Z</time>
      </trkpt>
      <trkpt lat="45.66916" lon="6.77408">
        <ele>1330</ele>
        <time>2022-07-16T16:48:49.746Z</time>
      </trkpt>
      <trkpt lat="45.66918" lon="6.77413">
        <ele>1331</ele>
        <time>2022-07-16T16:48:51.924Z</time>
      </trkpt>
      <trkpt lat="45.66923" lon="6.77413">
        <ele>1333</ele>
        <time>2022-07-16T16:48:54.629Z</time>
      </trkpt>
      <trkpt lat="45.66927" lon="6.77407">
        <ele>1336</ele>
        <time>2022-07-16T16:48:57.765Z</time>
      </trkpt>
      <trkpt lat="45.66924" lon="6.77318">
        <ele>1335</ele>
        <time>2022-07-16T16:49:04.954Z</time>
      </trkpt>
      <trkpt lat="45.66927" lon="6.77244">
        <ele>1339</ele>
        <time>2022-07-16T16:49:20.417Z</time>
      </trkpt>
      <trkpt lat="45.66929" lon="6.77235">
        <ele>1339</ele>
        <time>2022-07-16T16:49:21.343Z</time>
      </trkpt>
      <trkpt lat="45.66947" lon="6.77198">
        <ele>1345</ele>
        <time>2022-07-16T16:49:38.389Z</time>
      </trkpt>
      <trkpt lat="45.66956" lon="6.77166">
        <ele>1348</ele>
        <time>2022-07-16T16:49:49.933Z</time>
      </trkpt>
      <trkpt lat="45.6696" lon="6.77163">
        <ele>1351</ele>
        <time>2022-07-16T16:49:52.377Z</time>
      </trkpt>
      <trkpt lat="45.66962" lon="6.77164">
        <ele>1352</ele>
        <time>2022-07-16T16:49:53.523Z</time>
      </trkpt>
      <trkpt lat="45.66964" lon="6.77175">
        <ele>1353</ele>
        <time>2022-07-16T16:49:57.399Z</time>
      </trkpt>
      <trkpt lat="45.6696" lon="6.77209">
        <ele>1352</ele>
        <time>2022-07-16T16:49:59.518Z</time>
      </trkpt>
      <trkpt lat="45.66975" lon="6.77391">
        <ele>1361</ele>
        <time>2022-07-16T16:50:35.742Z</time>
      </trkpt>
      <trkpt lat="45.66969" lon="6.7743">
        <ele>1358</ele>
        <time>2022-07-16T16:50:37.910Z</time>
      </trkpt>
      <trkpt lat="45.6697" lon="6.77438">
        <ele>1359</ele>
        <time>2022-07-16T16:50:40.983Z</time>
      </trkpt>
      <trkpt lat="45.66976" lon="6.77438">
        <ele>1362</ele>
        <time>2022-07-16T16:50:44.229Z</time>
      </trkpt>
      <trkpt lat="45.66981" lon="6.77414">
        <ele>1365</ele>
        <time>2022-07-16T16:50:53.698Z</time>
      </trkpt>
      <trkpt lat="45.67" lon="6.77356">
        <ele>1372</ele>
        <time>2022-07-16T16:51:17.917Z</time>
      </trkpt>
      <trkpt lat="45.67005" lon="6.77334">
        <ele>1374</ele>
        <time>2022-07-16T16:51:25.587Z</time>
      </trkpt>
      <trkpt lat="45.67007" lon="6.77294">
        <ele>1374</ele>
        <time>2022-07-16T16:51:29.518Z</time>
      </trkpt>
      <trkpt lat="45.67004" lon="6.77196">
        <ele>1374</ele>
        <time>2022-07-16T16:51:39.134Z</time>
      </trkpt>
      <trkpt lat="45.67013" lon="6.7714">
        <ele>1381</ele>
        <time>2022-07-16T16:52:00.859Z</time>
      </trkpt>
      <trkpt lat="45.67018" lon="6.77121">
        <ele>1385</ele>
        <time>2022-07-16T16:52:08.536Z</time>
      </trkpt>
      <trkpt lat="45.6703" lon="6.771">
        <ele>1394</ele>
        <time>2022-07-16T16:52:18.792Z</time>
      </trkpt>
      <trkpt lat="45.67032" lon="6.77089">
        <ele>1396</ele>
        <time>2022-07-16T16:52:23.090Z</time>
      </trkpt>
      <trkpt lat="45.6703" lon="6.77078">
        <ele>1395</ele>
        <time>2022-07-16T16:52:23.707Z</time>
      </trkpt>
      <trkpt lat="45.67012" lon="6.7705">
        <ele>1384</ele>
        <time>2022-07-16T16:52:25.772Z</time>
      </trkpt>
      <trkpt lat="45.67012" lon="6.77034">
        <ele>1385</ele>
        <time>2022-07-16T16:52:29.470Z</time>
      </trkpt>
      <trkpt lat="45.6702" lon="6.77008">
        <ele>1391</ele>
        <time>2022-07-16T16:52:40.211Z</time>
      </trkpt>
      <trkpt lat="45.67056" lon="6.76956">
        <ele>1407</ele>
        <time>2022-07-16T16:53:07.887Z</time>
      </trkpt>
      <trkpt lat="45.67081" lon="6.76908">
        <ele>1415</ele>
        <time>2022-07-16T16:53:30.522Z</time>
      </trkpt>
      <trkpt lat="45.67089" lon="6.7688">
        <ele>1418</ele>
        <time>2022-07-16T16:53:41.959Z</time>
      </trkpt>
      <trkpt lat="45.67096" lon="6.76822">
        <ele>1419</ele>
        <time>2022-07-16T16:53:49.381Z</time>
      </trkpt>
      <trkpt lat="45.67104" lon="6.76787">
        <ele>1425</ele>
        <time>2022-07-16T16:54:03.304Z</time>
      </trkpt>
      <trkpt lat="45.67105" lon="6.76756">
        <ele>1426</ele>
        <time>2022-07-16T16:54:08.491Z</time>
      </trkpt>
      <trkpt lat="45.67098" lon="6.76709">
        <ele>1423</ele>
        <time>2022-07-16T16:54:11.100Z</time>
      </trkpt>
      <trkpt lat="45.67108" lon="6.76643">
        <ele>1428</ele>
        <time>2022-07-16T16:54:29.375Z</time>
      </trkpt>
      <trkpt lat="45.67105" lon="6.7653">
        <ele>1426</ele>
        <time>2022-07-16T16:54:37.567Z</time>
      </trkpt>
      <trkpt lat="45.67119" lon="6.765">
        <ele>1436</ele>
        <time>2022-07-16T16:54:51.206Z</time>
      </trkpt>
      <trkpt lat="45.67122" lon="6.76484">
        <ele>1439</ele>
        <time>2022-07-16T16:54:57.470Z</time>
      </trkpt>
      <trkpt lat="45.67122" lon="6.76469">
        <ele>1439</ele>
        <time>2022-07-16T16:54:58.940Z</time>
      </trkpt>
      <trkpt lat="45.67113" lon="6.76435">
        <ele>1434</ele>
        <time>2022-07-16T16:55:00.914Z</time>
      </trkpt>
      <trkpt lat="45.67111" lon="6.764">
        <ele>1433</ele>
        <time>2022-07-16T16:55:03.087Z</time>
      </trkpt>
      <trkpt lat="45.67109" lon="6.76385">
        <ele>1432</ele>
        <time>2022-07-16T16:55:03.916Z</time>
      </trkpt>
      <trkpt lat="45.67103" lon="6.76367">
        <ele>1428</ele>
        <time>2022-07-16T16:55:04.999Z</time>
      </trkpt>
      <trkpt lat="45.67102" lon="6.76352">
        <ele>1427</ele>
        <time>2022-07-16T16:55:05.817Z</time>
      </trkpt>
      <trkpt lat="45.67105" lon="6.76332">
        <ele>1429</ele>
        <time>2022-07-16T16:55:13.551Z</time>
      </trkpt>
      <trkpt lat="45.6712" lon="6.76281">
        <ele>1439</ele>
        <time>2022-07-16T16:55:34.472Z</time>
      </trkpt>
      <trkpt lat="45.67122" lon="6.76253">
        <ele>1441</ele>
        <time>2022-07-16T16:55:41.766Z</time>
      </trkpt>
      <trkpt lat="45.67125" lon="6.76176">
        <ele>1449</ele>
        <time>2022-07-16T16:56:10.924Z</time>
      </trkpt>
      <trkpt lat="45.6712" lon="6.76075">
        <ele>1459</ele>
        <time>2022-07-16T16:56:49.206Z</time>
      </trkpt>
      <trkpt lat="45.67104" lon="6.76036">
        <ele>1457</ele>
        <time>2022-07-16T16:56:51.514Z</time>
      </trkpt>
      <trkpt lat="45.67105" lon="6.76">
        <ele>1464</ele>
        <time>2022-07-16T16:57:05.136Z</time>
      </trkpt>
      <trkpt lat="45.67101" lon="6.75987">
        <ele>1465</ele>
        <time>2022-07-16T16:57:08.784Z</time>
      </trkpt>
      <trkpt lat="45.67087" lon="6.75962">
        <ele>1464</ele>
        <time>2022-07-16T16:57:10.696Z</time>
      </trkpt>
      <trkpt lat="45.67063" lon="6.75938">
        <ele>1458</ele>
        <time>2022-07-16T16:57:12.971Z</time>
      </trkpt>
      <trkpt lat="45.67046" lon="6.75915">
        <ele>1453</ele>
        <time>2022-07-16T16:57:14.788Z</time>
      </trkpt>
      <trkpt lat="45.67043" lon="6.75903">
        <ele>1453</ele>
        <time>2022-07-16T16:57:16.038Z</time>
      </trkpt>
      <trkpt lat="45.67043" lon="6.75888">
        <ele>1453</ele>
        <time>2022-07-16T16:57:17.508Z</time>
      </trkpt>
      <trkpt lat="45.67059" lon="6.75864">
        <ele>1461</ele>
        <time>2022-07-16T16:57:30.049Z</time>
      </trkpt>
      <trkpt lat="45.67111" lon="6.75756">
        <ele>1467</ele>
        <time>2022-07-16T16:57:55.064Z</time>
      </trkpt>
      <trkpt lat="45.67129" lon="6.75743">
        <ele>1469</ele>
        <time>2022-07-16T16:58:02.362Z</time>
      </trkpt>
      <trkpt lat="45.67137" lon="6.75744">
        <ele>1470</ele>
        <time>2022-07-16T16:58:06.211Z</time>
      </trkpt>
      <trkpt lat="45.6715" lon="6.75752">
        <ele>1472</ele>
        <time>2022-07-16T16:58:13.868Z</time>
      </trkpt>
      <trkpt lat="45.67173" lon="6.75754">
        <ele>1476</ele>
        <time>2022-07-16T16:58:26.335Z</time>
      </trkpt>
      <trkpt lat="45.67217" lon="6.7573">
        <ele>1482</ele>
        <time>2022-07-16T16:58:49.776Z</time>
      </trkpt>
      <trkpt lat="45.67234" lon="6.75716">
        <ele>1484</ele>
        <time>2022-07-16T16:58:57.071Z</time>
      </trkpt>
      <trkpt lat="45.67246" lon="6.75701">
        <ele>1484</ele>
        <time>2022-07-16T16:58:59.306Z</time>
      </trkpt>
      <trkpt lat="45.67265" lon="6.7567">
        <ele>1485</ele>
        <time>2022-07-16T16:59:05.231Z</time>
      </trkpt>
      <trkpt lat="45.67288" lon="6.75644">
        <ele>1486</ele>
        <time>2022-07-16T16:59:11.212Z</time>
      </trkpt>
      <trkpt lat="45.67297" lon="6.75628">
        <ele>1486</ele>
        <time>2022-07-16T16:59:13.225Z</time>
      </trkpt>
      <trkpt lat="45.67307" lon="6.75596">
        <ele>1482</ele>
        <time>2022-07-16T16:59:15.128Z</time>
      </trkpt>
      <trkpt lat="45.67316" lon="6.75556">
        <ele>1478</ele>
        <time>2022-07-16T16:59:17.409Z</time>
      </trkpt>
      <trkpt lat="45.67325" lon="6.7553">
        <ele>1476</ele>
        <time>2022-07-16T16:59:18.985Z</time>
      </trkpt>
      <trkpt lat="45.67335" lon="6.75514">
        <ele>1475</ele>
        <time>2022-07-16T16:59:20.052Z</time>
      </trkpt>
      <trkpt lat="45.67378" lon="6.75462">
        <ele>1485</ele>
        <time>2022-07-16T16:59:50.512Z</time>
      </trkpt>
      <trkpt lat="45.67392" lon="6.75434">
        <ele>1487</ele>
        <time>2022-07-16T16:59:58.049Z</time>
      </trkpt>
      <trkpt lat="45.67412" lon="6.75375">
        <ele>1486</ele>
        <time>2022-07-16T17:00:02.990Z</time>
      </trkpt>
      <trkpt lat="45.67415" lon="6.75353">
        <ele>1483</ele>
        <time>2022-07-16T17:00:04.207Z</time>
      </trkpt>
      <trkpt lat="45.67415" lon="6.75322">
        <ele>1480</ele>
        <time>2022-07-16T17:00:05.889Z</time>
      </trkpt>
      <trkpt lat="45.67411" lon="6.75295">
        <ele>1479</ele>
        <time>2022-07-16T17:00:07.436Z</time>
      </trkpt>
      <trkpt lat="45.67408" lon="6.75223">
        <ele>1477</ele>
        <time>2022-07-16T17:00:11.945Z</time>
      </trkpt>
      <trkpt lat="45.6741" lon="6.7519">
        <ele>1478</ele>
        <time>2022-07-16T17:00:17.318Z</time>
      </trkpt>
      <trkpt lat="45.67414" lon="6.75169">
        <ele>1479</ele>
        <time>2022-07-16T17:00:21.478Z</time>
      </trkpt>
      <trkpt lat="45.67428" lon="6.75138">
        <ele>1480</ele>
        <time>2022-07-16T17:00:27.088Z</time>
      </trkpt>
      <trkpt lat="45.67459" lon="6.75093">
        <ele>1482</ele>
        <time>2022-07-16T17:00:37.595Z</time>
      </trkpt>
      <trkpt lat="45.67489" lon="6.75054">
        <ele>1485</ele>
        <time>2022-07-16T17:00:49.393Z</time>
      </trkpt>
      <trkpt lat="45.67524" lon="6.75017">
        <ele>1492</ele>
        <time>2022-07-16T17:01:12.936Z</time>
      </trkpt>
      <trkpt lat="45.67546" lon="6.7498">
        <ele>1495</ele>
        <time>2022-07-16T17:01:24.059Z</time>
      </trkpt>
      <trkpt lat="45.67554" lon="6.74958">
        <ele>1496</ele>
        <time>2022-07-16T17:01:28.536Z</time>
      </trkpt>
      <trkpt lat="45.6756" lon="6.74931">
        <ele>1495</ele>
        <time>2022-07-16T17:01:30.141Z</time>
      </trkpt>
      <trkpt lat="45.67569" lon="6.74842">
        <ele>1494</ele>
        <time>2022-07-16T17:01:37.409Z</time>
      </trkpt>
      <trkpt lat="45.67573" lon="6.74827">
        <ele>1493</ele>
        <time>2022-07-16T17:01:38.281Z</time>
      </trkpt>
      <trkpt lat="45.67596" lon="6.74775">
        <ele>1493</ele>
        <time>2022-07-16T17:01:44.313Z</time>
      </trkpt>
      <trkpt lat="45.67605" lon="6.74746">
        <ele>1493</ele>
        <time>2022-07-16T17:01:47.423Z</time>
      </trkpt>
      <trkpt lat="45.67616" lon="6.74722">
        <ele>1496</ele>
        <time>2022-07-16T17:01:58.274Z</time>
      </trkpt>
      <trkpt lat="45.67637" lon="6.74693">
        <ele>1499</ele>
        <time>2022-07-16T17:02:09.218Z</time>
      </trkpt>
      <trkpt lat="45.67683" lon="6.74665">
        <ele>1501</ele>
        <time>2022-07-16T17:02:20.287Z</time>
      </trkpt>
      <trkpt lat="45.67704" lon="6.74641">
        <ele>1504</ele>
        <time>2022-07-16T17:02:31.344Z</time>
      </trkpt>
      <trkpt lat="45.67718" lon="6.74619">
        <ele>1504</ele>
        <time>2022-07-16T17:02:34.260Z</time>
      </trkpt>
      <trkpt lat="45.67809" lon="6.7438">
        <ele>1508</ele>
        <time>2022-07-16T17:03:07.303Z</time>
      </trkpt>
      <trkpt lat="45.67837" lon="6.74326">
        <ele>1509</ele>
        <time>2022-07-16T17:03:15.490Z</time>
      </trkpt>
      <trkpt lat="45.67873" lon="6.74272">
        <ele>1518</ele>
        <time>2022-07-16T17:03:43.706Z</time>
      </trkpt>
      <trkpt lat="45.67924" lon="6.74216">
        <ele>1522</ele>
        <time>2022-07-16T17:04:00.845Z</time>
      </trkpt>
      <trkpt lat="45.6793" lon="6.74205">
        <ele>1523</ele>
        <time>2022-07-16T17:04:04.493Z</time>
      </trkpt>
      <trkpt lat="45.67964" lon="6.74162">
        <ele>1522</ele>
        <time>2022-07-16T17:04:09.373Z</time>
      </trkpt>
      <trkpt lat="45.68002" lon="6.74118">
        <ele>1523</ele>
        <time>2022-07-16T17:04:17.811Z</time>
      </trkpt>
      <trkpt lat="45.68101" lon="6.74017">
        <ele>1534</ele>
        <time>2022-07-16T17:04:58.395Z</time>
      </trkpt>
      <trkpt lat="45.68121" lon="6.73988">
        <ele>1536</ele>
        <time>2022-07-16T17:05:06.446Z</time>
      </trkpt>
      <trkpt lat="45.68143" lon="6.73974">
        <ele>1537</ele>
        <time>2022-07-16T17:05:11.897Z</time>
      </trkpt>
      <trkpt lat="45.68193" lon="6.73952">
        <ele>1535</ele>
        <time>2022-07-16T17:05:16.643Z</time>
      </trkpt>
      <trkpt lat="45.68215" lon="6.73935">
        <ele>1535</ele>
        <time>2022-07-16T17:05:20.150Z</time>
      </trkpt>
      <trkpt lat="45.683" lon="6.73786">
        <ele>1542</ele>
        <time>2022-07-16T17:05:53.571Z</time>
      </trkpt>
      <trkpt lat="45.68311" lon="6.73774">
        <ele>1542</ele>
        <time>2022-07-16T17:05:55.511Z</time>
      </trkpt>
      <trkpt lat="45.68333" lon="6.73759">
        <ele>1539</ele>
        <time>2022-07-16T17:05:57.404Z</time>
      </trkpt>
      <trkpt lat="45.68358" lon="6.73748">
        <ele>1539</ele>
        <time>2022-07-16T17:06:01.073Z</time>
      </trkpt>
      <trkpt lat="45.68446" lon="6.73725">
        <ele>1540</ele>
        <time>2022-07-16T17:06:15.053Z</time>
      </trkpt>
      <trkpt lat="45.68498" lon="6.73691">
        <ele>1542</ele>
        <time>2022-07-16T17:06:26.854Z</time>
      </trkpt>
      <trkpt lat="45.68514" lon="6.73671">
        <ele>1542</ele>
        <time>2022-07-16T17:06:29.833Z</time>
      </trkpt>
      <trkpt lat="45.68529" lon="6.7365">
        <ele>1544</ele>
        <time>2022-07-16T17:06:37.153Z</time>
      </trkpt>
      <trkpt lat="45.68546" lon="6.73617">
        <ele>1547</ele>
        <time>2022-07-16T17:06:48.108Z</time>
      </trkpt>
      <trkpt lat="45.68575" lon="6.7355">
        <ele>1548</ele>
        <time>2022-07-16T17:06:57.373Z</time>
      </trkpt>
      <trkpt lat="45.68583" lon="6.73516">
        <ele>1547</ele>
        <time>2022-07-16T17:06:59.611Z</time>
      </trkpt>
      <trkpt lat="45.68587" lon="6.73398">
        <ele>1556</ele>
        <time>2022-07-16T17:07:32.629Z</time>
      </trkpt>
      <trkpt lat="45.68601" lon="6.73355">
        <ele>1563</ele>
        <time>2022-07-16T17:07:50.561Z</time>
      </trkpt>
      <trkpt lat="45.68618" lon="6.73331">
        <ele>1567</ele>
        <time>2022-07-16T17:08:03.480Z</time>
      </trkpt>
      <trkpt lat="45.68654" lon="6.73311">
        <ele>1569</ele>
        <time>2022-07-16T17:08:13.064Z</time>
      </trkpt>
      <trkpt lat="45.68748" lon="6.73287">
        <ele>1573</ele>
        <time>2022-07-16T17:08:34.798Z</time>
      </trkpt>
      <trkpt lat="45.68775" lon="6.73278">
        <ele>1577</ele>
        <time>2022-07-16T17:08:49.797Z</time>
      </trkpt>
      <trkpt lat="45.68801" lon="6.73277">
        <ele>1580</ele>
        <time>2022-07-16T17:09:00.953Z</time>
      </trkpt>
      <trkpt lat="45.68829" lon="6.73281">
        <ele>1581</ele>
        <time>2022-07-16T17:09:06.805Z</time>
      </trkpt>
      <trkpt lat="45.6888" lon="6.73302">
        <ele>1582</ele>
        <time>2022-07-16T17:09:15.802Z</time>
      </trkpt>
      <trkpt lat="45.68894" lon="6.73304">
        <ele>1583</ele>
        <time>2022-07-16T17:09:19.806Z</time>
      </trkpt>
      <trkpt lat="45.68932" lon="6.73303">
        <ele>1587</ele>
        <time>2022-07-16T17:09:34.417Z</time>
      </trkpt>
      <trkpt lat="45.68959" lon="6.73293">
        <ele>1589</ele>
        <time>2022-07-16T17:09:42.393Z</time>
      </trkpt>
      <trkpt lat="45.68998" lon="6.73284">
        <ele>1590</ele>
        <time>2022-07-16T17:09:49.607Z</time>
      </trkpt>
      <trkpt lat="45.69023" lon="6.73283">
        <ele>1591</ele>
        <time>2022-07-16T17:09:55.143Z</time>
      </trkpt>
      <trkpt lat="45.69046" lon="6.73272">
        <ele>1596</ele>
        <time>2022-07-16T17:10:08.263Z</time>
      </trkpt>
      <trkpt lat="45.69072" lon="6.73265">
        <ele>1599</ele>
        <time>2022-07-16T17:10:19.363Z</time>
      </trkpt>
      <trkpt lat="45.69109" lon="6.73259">
        <ele>1603</ele>
        <time>2022-07-16T17:10:34.005Z</time>
      </trkpt>
      <trkpt lat="45.69171" lon="6.73254">
        <ele>1607</ele>
        <time>2022-07-16T17:10:50.825Z</time>
      </trkpt>
      <trkpt lat="45.69244" lon="6.73235">
        <ele>1617</ele>
        <time>2022-07-16T17:11:30.971Z</time>
      </trkpt>
      <trkpt lat="45.69266" lon="6.73232">
        <ele>1615</ele>
        <time>2022-07-16T17:11:32.688Z</time>
      </trkpt>
      <trkpt lat="45.69282" lon="6.73226">
        <ele>1614</ele>
        <time>2022-07-16T17:11:33.923Z</time>
      </trkpt>
      <trkpt lat="45.69325" lon="6.73202">
        <ele>1610</ele>
        <time>2022-07-16T17:11:37.509Z</time>
      </trkpt>
      <trkpt lat="45.69335" lon="6.73184">
        <ele>1611</ele>
        <time>2022-07-16T17:11:41.793Z</time>
      </trkpt>
      <trkpt lat="45.69337" lon="6.73173">
        <ele>1613</ele>
        <time>2022-07-16T17:11:46.089Z</time>
      </trkpt>
      <trkpt lat="45.69331" lon="6.73132">
        <ele>1622</ele>
        <time>2022-07-16T17:12:01.920Z</time>
      </trkpt>
      <trkpt lat="45.69331" lon="6.73086">
        <ele>1629</ele>
        <time>2022-07-16T17:12:19.305Z</time>
      </trkpt>
      <trkpt lat="45.69352" lon="6.72974">
        <ele>1634</ele>
        <time>2022-07-16T17:12:40.827Z</time>
      </trkpt>
      <trkpt lat="45.69366" lon="6.72852">
        <ele>1636</ele>
        <time>2022-07-16T17:12:56.203Z</time>
      </trkpt>
      <trkpt lat="45.69396" lon="6.72697">
        <ele>1652</ele>
        <time>2022-07-16T17:13:56.989Z</time>
      </trkpt>
      <trkpt lat="45.694" lon="6.72665">
        <ele>1656</ele>
        <time>2022-07-16T17:14:09.275Z</time>
      </trkpt>
      <trkpt lat="45.69404" lon="6.72597">
        <ele>1660</ele>
        <time>2022-07-16T17:14:24.307Z</time>
      </trkpt>
      <trkpt lat="45.69403" lon="6.72568">
        <ele>1662</ele>
        <time>2022-07-16T17:14:31.607Z</time>
      </trkpt>
      <trkpt lat="45.69387" lon="6.72409">
        <ele>1679</ele>
        <time>2022-07-16T17:15:32.318Z</time>
      </trkpt>
      <trkpt lat="45.69387" lon="6.72366">
        <ele>1682</ele>
        <time>2022-07-16T17:15:43.262Z</time>
      </trkpt>
      <trkpt lat="45.69393" lon="6.72337">
        <ele>1682</ele>
        <time>2022-07-16T17:15:46.226Z</time>
      </trkpt>
      <trkpt lat="45.69428" lon="6.72254">
        <ele>1689</ele>
        <time>2022-07-16T17:16:11.767Z</time>
      </trkpt>
      <trkpt lat="45.6945" lon="6.72223">
        <ele>1698</ele>
        <time>2022-07-16T17:16:28.469Z</time>
      </trkpt>
      <trkpt lat="45.6946" lon="6.72213">
        <ele>1701</ele>
        <time>2022-07-16T17:16:35.069Z</time>
      </trkpt>
      <trkpt lat="45.69475" lon="6.72205">
        <ele>1705</ele>
        <time>2022-07-16T17:16:43.730Z</time>
      </trkpt>
      <trkpt lat="45.69498" lon="6.72209">
        <ele>1705</ele>
        <time>2022-07-16T17:16:46.980Z</time>
      </trkpt>
      <trkpt lat="45.69511" lon="6.72227">
        <ele>1704</ele>
        <time>2022-07-16T17:16:48.388Z</time>
      </trkpt>
      <trkpt lat="45.6952" lon="6.72246">
        <ele>1703</ele>
        <time>2022-07-16T17:16:49.568Z</time>
      </trkpt>
      <trkpt lat="45.69532" lon="6.72326">
        <ele>1702</ele>
        <time>2022-07-16T17:16:56.052Z</time>
      </trkpt>
      <trkpt lat="45.6953" lon="6.72358">
        <ele>1699</ele>
        <time>2022-07-16T17:16:57.796Z</time>
      </trkpt>
      <trkpt lat="45.69522" lon="6.72397">
        <ele>1693</ele>
        <time>2022-07-16T17:17:00.002Z</time>
      </trkpt>
      <trkpt lat="45.69521" lon="6.72419">
        <ele>1691</ele>
        <time>2022-07-16T17:17:01.198Z</time>
      </trkpt>
      <trkpt lat="45.69523" lon="6.72429">
        <ele>1691</ele>
        <time>2022-07-16T17:17:02.217Z</time>
      </trkpt>
      <trkpt lat="45.69531" lon="6.72449">
        <ele>1691</ele>
        <time>2022-07-16T17:17:04.475Z</time>
      </trkpt>
      <trkpt lat="45.69555" lon="6.72489">
        <ele>1697</ele>
        <time>2022-07-16T17:17:24.404Z</time>
      </trkpt>
      <trkpt lat="45.69571" lon="6.72523">
        <ele>1698</ele>
        <time>2022-07-16T17:17:30.310Z</time>
      </trkpt>
      <trkpt lat="45.69584" lon="6.72558">
        <ele>1698</ele>
        <time>2022-07-16T17:17:34.194Z</time>
      </trkpt>
      <trkpt lat="45.69602" lon="6.72625">
        <ele>1694</ele>
        <time>2022-07-16T17:17:38.089Z</time>
      </trkpt>
      <trkpt lat="45.69611" lon="6.72678">
        <ele>1689</ele>
        <time>2022-07-16T17:17:41.049Z</time>
      </trkpt>
      <trkpt lat="45.69619" lon="6.72692">
        <ele>1689</ele>
        <time>2022-07-16T17:17:42.822Z</time>
      </trkpt>
      <trkpt lat="45.69626" lon="6.72693">
        <ele>1690</ele>
        <time>2022-07-16T17:17:46.628Z</time>
      </trkpt>
      <trkpt lat="45.69634" lon="6.72687">
        <ele>1693</ele>
        <time>2022-07-16T17:17:51.514Z</time>
      </trkpt>
      <trkpt lat="45.6964" lon="6.72668">
        <ele>1699</ele>
        <time>2022-07-16T17:17:59.394Z</time>
      </trkpt>
      <trkpt lat="45.6964" lon="6.72651">
        <ele>1701</ele>
        <time>2022-07-16T17:18:05.819Z</time>
      </trkpt>
      <trkpt lat="45.69636" lon="6.72621">
        <ele>1704</ele>
        <time>2022-07-16T17:18:17.361Z</time>
      </trkpt>
      <trkpt lat="45.69625" lon="6.72586">
        <ele>1705</ele>
        <time>2022-07-16T17:18:23.073Z</time>
      </trkpt>
      <trkpt lat="45.69617" lon="6.72545">
        <ele>1710</ele>
        <time>2022-07-16T17:18:39.161Z</time>
      </trkpt>
      <trkpt lat="45.69612" lon="6.72455">
        <ele>1720</ele>
        <time>2022-07-16T17:19:13.281Z</time>
      </trkpt>
      <trkpt lat="45.69614" lon="6.72372">
        <ele>1728</ele>
        <time>2022-07-16T17:19:44.666Z</time>
      </trkpt>
      <trkpt lat="45.69609" lon="6.72333">
        <ele>1730</ele>
        <time>2022-07-16T17:19:52.617Z</time>
      </trkpt>
      <trkpt lat="45.69588" lon="6.72287">
        <ele>1725</ele>
        <time>2022-07-16T17:19:55.599Z</time>
      </trkpt>
      <trkpt lat="45.69588" lon="6.72274">
        <ele>1725</ele>
        <time>2022-07-16T17:19:56.872Z</time>
      </trkpt>
      <trkpt lat="45.69592" lon="6.72267">
        <ele>1727</ele>
        <time>2022-07-16T17:20:00.290Z</time>
      </trkpt>
      <trkpt lat="45.69596" lon="6.72264">
        <ele>1728</ele>
        <time>2022-07-16T17:20:02.734Z</time>
      </trkpt>
      <trkpt lat="45.69602" lon="6.72264">
        <ele>1730</ele>
        <time>2022-07-16T17:20:05.980Z</time>
      </trkpt>
      <trkpt lat="45.69608" lon="6.7227">
        <ele>1732</ele>
        <time>2022-07-16T17:20:09.940Z</time>
      </trkpt>
      <trkpt lat="45.69648" lon="6.72352">
        <ele>1741</ele>
        <time>2022-07-16T17:20:45.380Z</time>
      </trkpt>
      <trkpt lat="45.69697" lon="6.72467">
        <ele>1746</ele>
        <time>2022-07-16T17:21:08.944Z</time>
      </trkpt>
      <trkpt lat="45.69705" lon="6.72493">
        <ele>1745</ele>
        <time>2022-07-16T17:21:10.555Z</time>
      </trkpt>
      <trkpt lat="45.69711" lon="6.72507">
        <ele>1745</ele>
        <time>2022-07-16T17:21:12.164Z</time>
      </trkpt>
      <trkpt lat="45.6972" lon="6.7252">
        <ele>1745</ele>
        <time>2022-07-16T17:21:13.957Z</time>
      </trkpt>
      <trkpt lat="45.69735" lon="6.72529">
        <ele>1748</ele>
        <time>2022-07-16T17:21:22.757Z</time>
      </trkpt>
      <trkpt lat="45.6978" lon="6.72542">
        <ele>1753</ele>
        <time>2022-07-16T17:21:41.097Z</time>
      </trkpt>
      <trkpt lat="45.69792" lon="6.72541">
        <ele>1755</ele>
        <time>2022-07-16T17:21:47.601Z</time>
      </trkpt>
      <trkpt lat="45.69804" lon="6.72531">
        <ele>1759</ele>
        <time>2022-07-16T17:21:55.113Z</time>
      </trkpt>
      <trkpt lat="45.69807" lon="6.72525">
        <ele>1760</ele>
        <time>2022-07-16T17:21:57.902Z</time>
      </trkpt>
      <trkpt lat="45.69811" lon="6.72511">
        <ele>1764</ele>
        <time>2022-07-16T17:22:03.618Z</time>
      </trkpt>
      <trkpt lat="45.6981" lon="6.7249">
        <ele>1767</ele>
        <time>2022-07-16T17:22:11.572Z</time>
      </trkpt>
      <trkpt lat="45.69806" lon="6.72478">
        <ele>1768</ele>
        <time>2022-07-16T17:22:15.234Z</time>
      </trkpt>
      <trkpt lat="45.69789" lon="6.72451">
        <ele>1768</ele>
        <time>2022-07-16T17:22:18.795Z</time>
      </trkpt>
      <trkpt lat="45.69763" lon="6.72423">
        <ele>1768</ele>
        <time>2022-07-16T17:22:23.359Z</time>
      </trkpt>
      <trkpt lat="45.69753" lon="6.72409">
        <ele>1768</ele>
        <time>2022-07-16T17:22:25.321Z</time>
      </trkpt>
      <trkpt lat="45.6974" lon="6.72375">
        <ele>1766</ele>
        <time>2022-07-16T17:22:27.424Z</time>
      </trkpt>
      <trkpt lat="45.69739" lon="6.72349">
        <ele>1767</ele>
        <time>2022-07-16T17:22:32.036Z</time>
      </trkpt>
      <trkpt lat="45.69741" lon="6.72339">
        <ele>1768</ele>
        <time>2022-07-16T17:22:35.967Z</time>
      </trkpt>
      <trkpt lat="45.69767" lon="6.72272">
        <ele>1777</ele>
        <time>2022-07-16T17:23:04.932Z</time>
      </trkpt>
      <trkpt lat="45.69769" lon="6.72248">
        <ele>1778</ele>
        <time>2022-07-16T17:23:09.340Z</time>
      </trkpt>
      <trkpt lat="45.69768" lon="6.72232">
        <ele>1779</ele>
        <time>2022-07-16T17:23:13.040Z</time>
      </trkpt>
      <trkpt lat="45.6976" lon="6.72205">
        <ele>1778</ele>
        <time>2022-07-16T17:23:14.726Z</time>
      </trkpt>
      <trkpt lat="45.69753" lon="6.72193">
        <ele>1777</ele>
        <time>2022-07-16T17:23:15.575Z</time>
      </trkpt>
      <trkpt lat="45.69735" lon="6.72174">
        <ele>1773</ele>
        <time>2022-07-16T17:23:17.312Z</time>
      </trkpt>
      <trkpt lat="45.69726" lon="6.72152">
        <ele>1772</ele>
        <time>2022-07-16T17:23:18.690Z</time>
      </trkpt>
      <trkpt lat="45.69725" lon="6.72131">
        <ele>1773</ele>
        <time>2022-07-16T17:23:22.778Z</time>
      </trkpt>
      <trkpt lat="45.69735" lon="6.7206">
        <ele>1779</ele>
        <time>2022-07-16T17:23:45.319Z</time>
      </trkpt>
      <trkpt lat="45.69738" lon="6.72008">
        <ele>1782</ele>
        <time>2022-07-16T17:23:56.659Z</time>
      </trkpt>
      <trkpt lat="45.69738" lon="6.71974">
        <ele>1788</ele>
        <time>2022-07-16T17:24:09.508Z</time>
      </trkpt>
      <trkpt lat="45.69732" lon="6.71951">
        <ele>1792</ele>
        <time>2022-07-16T17:24:18.786Z</time>
      </trkpt>
      <trkpt lat="45.69721" lon="6.71935">
        <ele>1794</ele>
        <time>2022-07-16T17:24:26.605Z</time>
      </trkpt>
      <trkpt lat="45.696" lon="6.71859">
        <ele>1792</ele>
        <time>2022-07-16T17:24:42.037Z</time>
      </trkpt>
      <trkpt lat="45.69589" lon="6.71847">
        <ele>1791</ele>
        <time>2022-07-16T17:24:43.111Z</time>
      </trkpt>
      <trkpt lat="45.69576" lon="6.71817">
        <ele>1792</ele>
        <time>2022-07-16T17:24:48.615Z</time>
      </trkpt>
      <trkpt lat="45.69569" lon="6.71752">
        <ele>1798</ele>
        <time>2022-07-16T17:25:12.496Z</time>
      </trkpt>
      <trkpt lat="45.6957" lon="6.71728">
        <ele>1800</ele>
        <time>2022-07-16T17:25:20.023Z</time>
      </trkpt>
      <trkpt lat="45.69577" lon="6.71714">
        <ele>1801</ele>
        <time>2022-07-16T17:25:23.791Z</time>
      </trkpt>
      <trkpt lat="45.69587" lon="6.71674">
        <ele>1803</ele>
        <time>2022-07-16T17:25:32.006Z</time>
      </trkpt>
      <trkpt lat="45.69586" lon="6.71662">
        <ele>1804</ele>
        <time>2022-07-16T17:25:35.761Z</time>
      </trkpt>
      <trkpt lat="45.69581" lon="6.71651">
        <ele>1804</ele>
        <time>2022-07-16T17:25:37.047Z</time>
      </trkpt>
      <trkpt lat="45.69573" lon="6.71641">
        <ele>1806</ele>
        <time>2022-07-16T17:25:42.793Z</time>
      </trkpt>
      <trkpt lat="45.69567" lon="6.71636">
        <ele>1807</ele>
        <time>2022-07-16T17:25:46.549Z</time>
      </trkpt>
      <trkpt lat="45.69545" lon="6.71634">
        <ele>1808</ele>
        <time>2022-07-16T17:25:51.797Z</time>
      </trkpt>
      <trkpt lat="45.69533" lon="6.71638">
        <ele>1808</ele>
        <time>2022-07-16T17:25:53.525Z</time>
      </trkpt>
      <trkpt lat="45.6949" lon="6.71663">
        <ele>1803</ele>
        <time>2022-07-16T17:25:57.131Z</time>
      </trkpt>
      <trkpt lat="45.6947" lon="6.71666">
        <ele>1801</ele>
        <time>2022-07-16T17:25:58.693Z</time>
      </trkpt>
      <trkpt lat="45.69462" lon="6.71662">
        <ele>1801</ele>
        <time>2022-07-16T17:25:59.882Z</time>
      </trkpt>
      <trkpt lat="45.69443" lon="6.71645">
        <ele>1802</ele>
        <time>2022-07-16T17:26:05.191Z</time>
      </trkpt>
      <trkpt lat="45.69435" lon="6.7163">
        <ele>1804</ele>
        <time>2022-07-16T17:26:12.323Z</time>
      </trkpt>
      <trkpt lat="45.69431" lon="6.71616">
        <ele>1805</ele>
        <time>2022-07-16T17:26:15.986Z</time>
      </trkpt>
      <trkpt lat="45.69431" lon="6.71588">
        <ele>1808</ele>
        <time>2022-07-16T17:26:26.568Z</time>
      </trkpt>
      <trkpt lat="45.69443" lon="6.7154">
        <ele>1814</ele>
        <time>2022-07-16T17:26:45.836Z</time>
      </trkpt>
      <trkpt lat="45.69447" lon="6.71508">
        <ele>1818</ele>
        <time>2022-07-16T17:26:58.122Z</time>
      </trkpt>
      <trkpt lat="45.69446" lon="6.71474">
        <ele>1821</ele>
        <time>2022-07-16T17:27:09.767Z</time>
      </trkpt>
      <trkpt lat="45.69436" lon="6.71425">
        <ele>1824</ele>
        <time>2022-07-16T17:27:21.033Z</time>
      </trkpt>
      <trkpt lat="45.69404" lon="6.71334">
        <ele>1825</ele>
        <time>2022-07-16T17:27:32.490Z</time>
      </trkpt>
      <trkpt lat="45.69387" lon="6.7125">
        <ele>1828</ele>
        <time>2022-07-16T17:27:47.386Z</time>
      </trkpt>
      <trkpt lat="45.69296" lon="6.70461">
        <ele>1875</ele>
        <time>2022-07-16T17:30:43.876Z</time>
      </trkpt>
      <trkpt lat="45.69285" lon="6.70411">
        <ele>1875</ele>
        <time>2022-07-16T17:30:49.013Z</time>
      </trkpt>
      <trkpt lat="45.69262" lon="6.70328">
        <ele>1876</ele>
        <time>2022-07-16T17:30:59.268Z</time>
      </trkpt>
      <trkpt lat="45.69219" lon="6.70206">
        <ele>1893</ele>
        <time>2022-07-16T17:31:50.914Z</time>
      </trkpt>
      <trkpt lat="45.69212" lon="6.70136">
        <ele>1897</ele>
        <time>2022-07-16T17:32:06.115Z</time>
      </trkpt>
      <trkpt lat="45.69215" lon="6.70089">
        <ele>1899</ele>
        <time>2022-07-16T17:32:14.809Z</time>
      </trkpt>
      <trkpt lat="45.6922" lon="6.70064">
        <ele>1900</ele>
        <time>2022-07-16T17:32:19.417Z</time>
      </trkpt>
      <trkpt lat="45.69228" lon="6.7004">
        <ele>1901</ele>
        <time>2022-07-16T17:32:24.091Z</time>
      </trkpt>
      <trkpt lat="45.69342" lon="6.69771">
        <ele>1915</ele>
        <time>2022-07-16T17:33:23.314Z</time>
      </trkpt>
      <trkpt lat="45.69362" lon="6.69705">
        <ele>1917</ele>
        <time>2022-07-16T17:33:34.407Z</time>
      </trkpt>
      <trkpt lat="45.69377" lon="6.69639">
        <ele>1920</ele>
        <time>2022-07-16T17:33:47.302Z</time>
      </trkpt>
      <trkpt lat="45.6939" lon="6.69519">
        <ele>1931</ele>
        <time>2022-07-16T17:34:30.837Z</time>
      </trkpt>
      <trkpt lat="45.69387" lon="6.69443">
        <ele>1940</ele>
        <time>2022-07-16T17:34:59.605Z</time>
      </trkpt>
      <trkpt lat="45.69381" lon="6.69412">
        <ele>1943</ele>
        <time>2022-07-16T17:35:11.763Z</time>
      </trkpt>
      <trkpt lat="45.6936" lon="6.69355">
        <ele>1948</ele>
        <time>2022-07-16T17:35:30.170Z</time>
      </trkpt>
      <trkpt lat="45.69334" lon="6.69305">
        <ele>1949</ele>
        <time>2022-07-16T17:35:37.905Z</time>
      </trkpt>
      <trkpt lat="45.69312" lon="6.69272">
        <ele>1954</ele>
        <time>2022-07-16T17:35:55.146Z</time>
      </trkpt>
      <trkpt lat="45.69302" lon="6.69263">
        <ele>1955</ele>
        <time>2022-07-16T17:35:58.894Z</time>
      </trkpt>
      <trkpt lat="45.69284" lon="6.69252">
        <ele>1956</ele>
        <time>2022-07-16T17:36:03.729Z</time>
      </trkpt>
      <trkpt lat="45.69209" lon="6.69245">
        <ele>1961</ele>
        <time>2022-07-16T17:36:24.403Z</time>
      </trkpt>
      <trkpt lat="45.69192" lon="6.69239">
        <ele>1964</ele>
        <time>2022-07-16T17:36:33.876Z</time>
      </trkpt>
      <trkpt lat="45.69184" lon="6.69234">
        <ele>1965</ele>
        <time>2022-07-16T17:36:37.587Z</time>
      </trkpt>
      <trkpt lat="45.69169" lon="6.69217">
        <ele>1966</ele>
        <time>2022-07-16T17:36:42.351Z</time>
      </trkpt>
      <trkpt lat="45.69158" lon="6.69191">
        <ele>1968</ele>
        <time>2022-07-16T17:36:49.681Z</time>
      </trkpt>
      <trkpt lat="45.69144" lon="6.69133">
        <ele>1972</ele>
        <time>2022-07-16T17:37:04.362Z</time>
      </trkpt>
      <trkpt lat="45.69119" lon="6.68971">
        <ele>1970</ele>
        <time>2022-07-16T17:37:17.549Z</time>
      </trkpt>
      <trkpt lat="45.69134" lon="6.68894">
        <ele>1968</ele>
        <time>2022-07-16T17:37:22.736Z</time>
      </trkpt>
      <trkpt lat="45.69129" lon="6.68841">
        <ele>1966</ele>
        <time>2022-07-16T17:37:25.689Z</time>
      </trkpt>
      <trkpt lat="45.69132" lon="6.68825">
        <ele>1966</ele>
        <time>2022-07-16T17:37:27.312Z</time>
      </trkpt>
      <trkpt lat="45.69144" lon="6.68789">
        <ele>1966</ele>
        <time>2022-07-16T17:37:31.221Z</time>
      </trkpt>
      <trkpt lat="45.69145" lon="6.68767">
        <ele>1965</ele>
        <time>2022-07-16T17:37:32.331Z</time>
      </trkpt>
      <trkpt lat="45.69143" lon="6.68754">
        <ele>1964</ele>
        <time>2022-07-16T17:37:33.054Z</time>
      </trkpt>
      <trkpt lat="45.69135" lon="6.68735">
        <ele>1963</ele>
        <time>2022-07-16T17:37:34.175Z</time>
      </trkpt>
      <trkpt lat="45.69114" lon="6.68714">
        <ele>1959</ele>
        <time>2022-07-16T17:37:36.165Z</time>
      </trkpt>
      <trkpt lat="45.69106" lon="6.68695">
        <ele>1958</ele>
        <time>2022-07-16T17:37:37.286Z</time>
      </trkpt>
      <trkpt lat="45.69105" lon="6.68687">
        <ele>1958</ele>
        <time>2022-07-16T17:37:38.083Z</time>
      </trkpt>
      <trkpt lat="45.69117" lon="6.68507">
        <ele>1953</ele>
        <time>2022-07-16T17:37:49.394Z</time>
      </trkpt>
      <trkpt lat="45.69123" lon="6.68484">
        <ele>1953</ele>
        <time>2022-07-16T17:37:51.800Z</time>
      </trkpt>
      <trkpt lat="45.69154" lon="6.68427">
        <ele>1953</ele>
        <time>2022-07-16T17:37:58.878Z</time>
      </trkpt>
      <trkpt lat="45.69156" lon="6.68413">
        <ele>1952</ele>
        <time>2022-07-16T17:37:59.654Z</time>
      </trkpt>
      <trkpt lat="45.69154" lon="6.68396">
        <ele>1951</ele>
        <time>2022-07-16T17:38:00.590Z</time>
      </trkpt>
      <trkpt lat="45.69143" lon="6.68377">
        <ele>1949</ele>
        <time>2022-07-16T17:38:01.929Z</time>
      </trkpt>
      <trkpt lat="45.69119" lon="6.68345">
        <ele>1946</ele>
        <time>2022-07-16T17:38:04.477Z</time>
      </trkpt>
      <trkpt lat="45.69089" lon="6.68254">
        <ele>1942</ele>
        <time>2022-07-16T17:38:09.879Z</time>
      </trkpt>
      <trkpt lat="45.69066" lon="6.68229">
        <ele>1942</ele>
        <time>2022-07-16T17:38:13.930Z</time>
      </trkpt>
      <trkpt lat="45.69026" lon="6.68198">
        <ele>1941</ele>
        <time>2022-07-16T17:38:18.826Z</time>
      </trkpt>
      <trkpt lat="45.69012" lon="6.6818">
        <ele>1940</ele>
        <time>2022-07-16T17:38:20.318Z</time>
      </trkpt>
      <trkpt lat="45.69005" lon="6.68157">
        <ele>1940</ele>
        <time>2022-07-16T17:38:22.776Z</time>
      </trkpt>
      <trkpt lat="45.69002" lon="6.68123">
        <ele>1938</ele>
        <time>2022-07-16T17:38:24.636Z</time>
      </trkpt>
      <trkpt lat="45.69007" lon="6.68078">
        <ele>1937</ele>
        <time>2022-07-16T17:38:27.728Z</time>
      </trkpt>
      <trkpt lat="45.69012" lon="6.6806">
        <ele>1935</ele>
        <time>2022-07-16T17:38:28.779Z</time>
      </trkpt>
      <trkpt lat="45.6902" lon="6.68042">
        <ele>1933</ele>
        <time>2022-07-16T17:38:29.937Z</time>
      </trkpt>
      <trkpt lat="45.6903" lon="6.68027">
        <ele>1931</ele>
        <time>2022-07-16T17:38:31.062Z</time>
      </trkpt>
      <trkpt lat="45.6905" lon="6.68006">
        <ele>1927</ele>
        <time>2022-07-16T17:38:32.989Z</time>
      </trkpt>
      <trkpt lat="45.69062" lon="6.68">
        <ele>1926</ele>
        <time>2022-07-16T17:38:33.977Z</time>
      </trkpt>
      <trkpt lat="45.69074" lon="6.67997">
        <ele>1924</ele>
        <time>2022-07-16T17:38:34.923Z</time>
      </trkpt>
      <trkpt lat="45.69097" lon="6.68">
        <ele>1921</ele>
        <time>2022-07-16T17:38:36.718Z</time>
      </trkpt>
      <trkpt lat="45.69104" lon="6.68004">
        <ele>1921</ele>
        <time>2022-07-16T17:38:37.775Z</time>
      </trkpt>
      <trkpt lat="45.69156" lon="6.68053">
        <ele>1920</ele>
        <time>2022-07-16T17:38:44.963Z</time>
      </trkpt>
      <trkpt lat="45.69183" lon="6.68083">
        <ele>1920</ele>
        <time>2022-07-16T17:38:49.757Z</time>
      </trkpt>
      <trkpt lat="45.69214" lon="6.68122">
        <ele>1919</ele>
        <time>2022-07-16T17:38:54.087Z</time>
      </trkpt>
      <trkpt lat="45.69251" lon="6.68177">
        <ele>1918</ele>
        <time>2022-07-16T17:39:00.049Z</time>
      </trkpt>
      <trkpt lat="45.69354" lon="6.68237">
        <ele>1910</ele>
        <time>2022-07-16T17:39:08.688Z</time>
      </trkpt>
      <trkpt lat="45.69396" lon="6.68272">
        <ele>1910</ele>
        <time>2022-07-16T17:39:15.505Z</time>
      </trkpt>
      <trkpt lat="45.69405" lon="6.68276">
        <ele>1909</ele>
        <time>2022-07-16T17:39:16.238Z</time>
      </trkpt>
      <trkpt lat="45.69412" lon="6.68276">
        <ele>1908</ele>
        <time>2022-07-16T17:39:16.781Z</time>
      </trkpt>
      <trkpt lat="45.69423" lon="6.68267">
        <ele>1903</ele>
        <time>2022-07-16T17:39:17.766Z</time>
      </trkpt>
      <trkpt lat="45.69425" lon="6.68261">
        <ele>1902</ele>
        <time>2022-07-16T17:39:18.127Z</time>
      </trkpt>
      <trkpt lat="45.69423" lon="6.68244">
        <ele>1899</ele>
        <time>2022-07-16T17:39:19.062Z</time>
      </trkpt>
      <trkpt lat="45.69392" lon="6.68218">
        <ele>1899</ele>
        <time>2022-07-16T17:39:24.102Z</time>
      </trkpt>
      <trkpt lat="45.6935" lon="6.68172">
        <ele>1898</ele>
        <time>2022-07-16T17:39:30.001Z</time>
      </trkpt>
      <trkpt lat="45.69334" lon="6.68147">
        <ele>1898</ele>
        <time>2022-07-16T17:39:33.323Z</time>
      </trkpt>
      <trkpt lat="45.69317" lon="6.6804">
        <ele>1885</ele>
        <time>2022-07-16T17:39:39.278Z</time>
      </trkpt>
      <trkpt lat="45.693" lon="6.67974">
        <ele>1877</ele>
        <time>2022-07-16T17:39:43.096Z</time>
      </trkpt>
      <trkpt lat="45.69286" lon="6.67954">
        <ele>1876</ele>
        <time>2022-07-16T17:39:44.699Z</time>
      </trkpt>
      <trkpt lat="45.69268" lon="6.67942">
        <ele>1877</ele>
        <time>2022-07-16T17:39:49.581Z</time>
      </trkpt>
      <trkpt lat="45.6924" lon="6.67929">
        <ele>1880</ele>
        <time>2022-07-16T17:40:00.524Z</time>
      </trkpt>
      <trkpt lat="45.69226" lon="6.67918">
        <ele>1881</ele>
        <time>2022-07-16T17:40:04.794Z</time>
      </trkpt>
      <trkpt lat="45.69217" lon="6.67903">
        <ele>1880</ele>
        <time>2022-07-16T17:40:05.867Z</time>
      </trkpt>
      <trkpt lat="45.69201" lon="6.67861">
        <ele>1875</ele>
        <time>2022-07-16T17:40:08.463Z</time>
      </trkpt>
      <trkpt lat="45.69119" lon="6.67729">
        <ele>1869</ele>
        <time>2022-07-16T17:40:18.637Z</time>
      </trkpt>
      <trkpt lat="45.69113" lon="6.67708">
        <ele>1868</ele>
        <time>2022-07-16T17:40:19.796Z</time>
      </trkpt>
      <trkpt lat="45.69105" lon="6.67646">
        <ele>1864</ele>
        <time>2022-07-16T17:40:23.218Z</time>
      </trkpt>
      <trkpt lat="45.69094" lon="6.67594">
        <ele>1862</ele>
        <time>2022-07-16T17:40:26.239Z</time>
      </trkpt>
      <trkpt lat="45.69085" lon="6.67518">
        <ele>1857</ele>
        <time>2022-07-16T17:40:30.423Z</time>
      </trkpt>
      <trkpt lat="45.69087" lon="6.67478">
        <ele>1854</ele>
        <time>2022-07-16T17:40:32.599Z</time>
      </trkpt>
      <trkpt lat="45.69095" lon="6.67434">
        <ele>1851</ele>
        <time>2022-07-16T17:40:35.066Z</time>
      </trkpt>
      <trkpt lat="45.6911" lon="6.67403">
        <ele>1847</ele>
        <time>2022-07-16T17:40:37.113Z</time>
      </trkpt>
      <trkpt lat="45.69114" lon="6.67347">
        <ele>1847</ele>
        <time>2022-07-16T17:40:42.629Z</time>
      </trkpt>
      <trkpt lat="45.69122" lon="6.67318">
        <ele>1846</ele>
        <time>2022-07-16T17:40:44.469Z</time>
      </trkpt>
      <trkpt lat="45.69127" lon="6.67309">
        <ele>1845</ele>
        <time>2022-07-16T17:40:45.093Z</time>
      </trkpt>
      <trkpt lat="45.69149" lon="6.6729">
        <ele>1841</ele>
        <time>2022-07-16T17:40:47.089Z</time>
      </trkpt>
      <trkpt lat="45.69171" lon="6.67277">
        <ele>1837</ele>
        <time>2022-07-16T17:40:48.938Z</time>
      </trkpt>
      <trkpt lat="45.69185" lon="6.67258">
        <ele>1836</ele>
        <time>2022-07-16T17:40:50.485Z</time>
      </trkpt>
      <trkpt lat="45.69212" lon="6.67194">
        <ele>1833</ele>
        <time>2022-07-16T17:40:54.481Z</time>
      </trkpt>
      <trkpt lat="45.69243" lon="6.67152">
        <ele>1829</ele>
        <time>2022-07-16T17:40:57.798Z</time>
      </trkpt>
      <trkpt lat="45.69249" lon="6.67134">
        <ele>1828</ele>
        <time>2022-07-16T17:40:58.880Z</time>
      </trkpt>
      <trkpt lat="45.69257" lon="6.67088">
        <ele>1827</ele>
        <time>2022-07-16T17:41:02.137Z</time>
      </trkpt>
      <trkpt lat="45.69268" lon="6.67064">
        <ele>1825</ele>
        <time>2022-07-16T17:41:03.695Z</time>
      </trkpt>
      <trkpt lat="45.6929" lon="6.67029">
        <ele>1822</ele>
        <time>2022-07-16T17:41:06.250Z</time>
      </trkpt>
      <trkpt lat="45.69297" lon="6.6701">
        <ele>1820</ele>
        <time>2022-07-16T17:41:07.416Z</time>
      </trkpt>
      <trkpt lat="45.69352" lon="6.66766">
        <ele>1813</ele>
        <time>2022-07-16T17:41:23.531Z</time>
      </trkpt>
      <trkpt lat="45.69354" lon="6.66714">
        <ele>1812</ele>
        <time>2022-07-16T17:41:27.214Z</time>
      </trkpt>
      <trkpt lat="45.69351" lon="6.66653">
        <ele>1813</ele>
        <time>2022-07-16T17:41:34.841Z</time>
      </trkpt>
      <trkpt lat="45.69355" lon="6.66625">
        <ele>1814</ele>
        <time>2022-07-16T17:41:39.741Z</time>
      </trkpt>
      <trkpt lat="45.69369" lon="6.66591">
        <ele>1811</ele>
        <time>2022-07-16T17:41:41.883Z</time>
      </trkpt>
      <trkpt lat="45.69381" lon="6.66539">
        <ele>1816</ele>
        <time>2022-07-16T17:42:01.796Z</time>
      </trkpt>
      <trkpt lat="45.69388" lon="6.66529">
        <ele>1814</ele>
        <time>2022-07-16T17:42:02.564Z</time>
      </trkpt>
      <trkpt lat="45.69429" lon="6.66492">
        <ele>1810</ele>
        <time>2022-07-16T17:42:06.330Z</time>
      </trkpt>
      <trkpt lat="45.69442" lon="6.66486">
        <ele>1811</ele>
        <time>2022-07-16T17:42:10.281Z</time>
      </trkpt>
      <trkpt lat="45.6949" lon="6.66486">
        <ele>1803</ele>
        <time>2022-07-16T17:42:14.010Z</time>
      </trkpt>
      <trkpt lat="45.69501" lon="6.66489">
        <ele>1801</ele>
        <time>2022-07-16T17:42:14.880Z</time>
      </trkpt>
      <trkpt lat="45.69511" lon="6.66495">
        <ele>1798</ele>
        <time>2022-07-16T17:42:15.723Z</time>
      </trkpt>
      <trkpt lat="45.69536" lon="6.66515">
        <ele>1794</ele>
        <time>2022-07-16T17:42:17.948Z</time>
      </trkpt>
      <trkpt lat="45.69543" lon="6.66515">
        <ele>1793</ele>
        <time>2022-07-16T17:42:18.492Z</time>
      </trkpt>
      <trkpt lat="45.69553" lon="6.66509">
        <ele>1792</ele>
        <time>2022-07-16T17:42:19.334Z</time>
      </trkpt>
      <trkpt lat="45.69567" lon="6.66493">
        <ele>1791</ele>
        <time>2022-07-16T17:42:20.723Z</time>
      </trkpt>
      <trkpt lat="45.69589" lon="6.66442">
        <ele>1796</ele>
        <time>2022-07-16T17:42:39.562Z</time>
      </trkpt>
      <trkpt lat="45.69626" lon="6.66387">
        <ele>1776</ele>
        <time>2022-07-16T17:42:43.705Z</time>
      </trkpt>
      <trkpt lat="45.6963" lon="6.66372">
        <ele>1773</ele>
        <time>2022-07-16T17:42:44.577Z</time>
      </trkpt>
      <trkpt lat="45.69628" lon="6.66298">
        <ele>1772</ele>
        <time>2022-07-16T17:42:50.318Z</time>
      </trkpt>
      <trkpt lat="45.69625" lon="6.66271">
        <ele>1773</ele>
        <time>2022-07-16T17:42:55.076Z</time>
      </trkpt>
      <trkpt lat="45.69605" lon="6.66189">
        <ele>1770</ele>
        <time>2022-07-16T17:43:00.042Z</time>
      </trkpt>
      <trkpt lat="45.6959" lon="6.6615">
        <ele>1766</ele>
        <time>2022-07-16T17:43:02.458Z</time>
      </trkpt>
      <trkpt lat="45.69537" lon="6.66043">
        <ele>1753</ele>
        <time>2022-07-16T17:43:09.576Z</time>
      </trkpt>
      <trkpt lat="45.69526" lon="6.66028">
        <ele>1751</ele>
        <time>2022-07-16T17:43:10.756Z</time>
      </trkpt>
      <trkpt lat="45.69447" lon="6.65956">
        <ele>1750</ele>
        <time>2022-07-16T17:43:22.336Z</time>
      </trkpt>
      <trkpt lat="45.69394" lon="6.65886">
        <ele>1742</ele>
        <time>2022-07-16T17:43:27.938Z</time>
      </trkpt>
      <trkpt lat="45.69347" lon="6.65812">
        <ele>1733</ele>
        <time>2022-07-16T17:43:33.366Z</time>
      </trkpt>
      <trkpt lat="45.69327" lon="6.65787">
        <ele>1733</ele>
        <time>2022-07-16T17:43:37.090Z</time>
      </trkpt>
      <trkpt lat="45.69297" lon="6.65727">
        <ele>1725</ele>
        <time>2022-07-16T17:43:41.095Z</time>
      </trkpt>
      <trkpt lat="45.69282" lon="6.65706">
        <ele>1724</ele>
        <time>2022-07-16T17:43:42.839Z</time>
      </trkpt>
      <trkpt lat="45.69267" lon="6.65676">
        <ele>1720</ele>
        <time>2022-07-16T17:43:44.842Z</time>
      </trkpt>
      <trkpt lat="45.69232" lon="6.65617">
        <ele>1716</ele>
        <time>2022-07-16T17:43:49.042Z</time>
      </trkpt>
      <trkpt lat="45.69208" lon="6.65563">
        <ele>1711</ele>
        <time>2022-07-16T17:43:52.516Z</time>
      </trkpt>
      <trkpt lat="45.69177" lon="6.65476">
        <ele>1700</ele>
        <time>2022-07-16T17:43:57.816Z</time>
      </trkpt>
      <trkpt lat="45.6913" lon="6.654">
        <ele>1693</ele>
        <time>2022-07-16T17:44:03.325Z</time>
      </trkpt>
      <trkpt lat="45.69125" lon="6.65393">
        <ele>1692</ele>
        <time>2022-07-16T17:44:03.868Z</time>
      </trkpt>
      <trkpt lat="45.69112" lon="6.65384">
        <ele>1693</ele>
        <time>2022-07-16T17:44:07.922Z</time>
      </trkpt>
      <trkpt lat="45.69109" lon="6.65379">
        <ele>1692</ele>
        <time>2022-07-16T17:44:08.279Z</time>
      </trkpt>
      <trkpt lat="45.69109" lon="6.6537">
        <ele>1689</ele>
        <time>2022-07-16T17:44:08.768Z</time>
      </trkpt>
      <trkpt lat="45.69113" lon="6.65363">
        <ele>1685</ele>
        <time>2022-07-16T17:44:09.258Z</time>
      </trkpt>
      <trkpt lat="45.69118" lon="6.65361">
        <ele>1683</ele>
        <time>2022-07-16T17:44:09.662Z</time>
      </trkpt>
      <trkpt lat="45.69122" lon="6.65363">
        <ele>1682</ele>
        <time>2022-07-16T17:44:09.991Z</time>
      </trkpt>
      <trkpt lat="45.69132" lon="6.65382">
        <ele>1686</ele>
        <time>2022-07-16T17:44:18.982Z</time>
      </trkpt>
      <trkpt lat="45.69142" lon="6.65395">
        <ele>1687</ele>
        <time>2022-07-16T17:44:22.915Z</time>
      </trkpt>
      <trkpt lat="45.69211" lon="6.65474">
        <ele>1684</ele>
        <time>2022-07-16T17:44:31.276Z</time>
      </trkpt>
      <trkpt lat="45.69255" lon="6.65548">
        <ele>1684</ele>
        <time>2022-07-16T17:44:40.798Z</time>
      </trkpt>
      <trkpt lat="45.69329" lon="6.65617">
        <ele>1674</ele>
        <time>2022-07-16T17:44:47.660Z</time>
      </trkpt>
      <trkpt lat="45.69367" lon="6.65668">
        <ele>1670</ele>
        <time>2022-07-16T17:44:51.707Z</time>
      </trkpt>
      <trkpt lat="45.69386" lon="6.65686">
        <ele>1668</ele>
        <time>2022-07-16T17:44:53.477Z</time>
      </trkpt>
      <trkpt lat="45.694" lon="6.65707">
        <ele>1670</ele>
        <time>2022-07-16T17:45:00.776Z</time>
      </trkpt>
      <trkpt lat="45.69414" lon="6.6575">
        <ele>1683</ele>
        <time>2022-07-16T17:45:18.706Z</time>
      </trkpt>
      <trkpt lat="45.69424" lon="6.65762">
        <ele>1683</ele>
        <time>2022-07-16T17:45:20.536Z</time>
      </trkpt>
      <trkpt lat="45.69459" lon="6.65778">
        <ele>1676</ele>
        <time>2022-07-16T17:45:23.391Z</time>
      </trkpt>
      <trkpt lat="45.69546" lon="6.65797">
        <ele>1660</ele>
        <time>2022-07-16T17:45:30.228Z</time>
      </trkpt>
      <trkpt lat="45.69563" lon="6.65798">
        <ele>1657</ele>
        <time>2022-07-16T17:45:31.550Z</time>
      </trkpt>
      <trkpt lat="45.69569" lon="6.65796">
        <ele>1655</ele>
        <time>2022-07-16T17:45:32.029Z</time>
      </trkpt>
      <trkpt lat="45.6958" lon="6.65787">
        <ele>1651</ele>
        <time>2022-07-16T17:45:33.013Z</time>
      </trkpt>
      <trkpt lat="45.69593" lon="6.65764">
        <ele>1646</ele>
        <time>2022-07-16T17:45:34.619Z</time>
      </trkpt>
      <trkpt lat="45.69599" lon="6.65731">
        <ele>1641</ele>
        <time>2022-07-16T17:45:36.469Z</time>
      </trkpt>
      <trkpt lat="45.69594" lon="6.65707">
        <ele>1639</ele>
        <time>2022-07-16T17:45:37.828Z</time>
      </trkpt>
      <trkpt lat="45.6959" lon="6.65697">
        <ele>1639</ele>
        <time>2022-07-16T17:45:38.957Z</time>
      </trkpt>
      <trkpt lat="45.69576" lon="6.65681">
        <ele>1638</ele>
        <time>2022-07-16T17:45:40.347Z</time>
      </trkpt>
      <trkpt lat="45.6956" lon="6.65675">
        <ele>1637</ele>
        <time>2022-07-16T17:45:41.582Z</time>
      </trkpt>
      <trkpt lat="45.69544" lon="6.65675">
        <ele>1636</ele>
        <time>2022-07-16T17:45:42.758Z</time>
      </trkpt>
      <trkpt lat="45.69493" lon="6.65683">
        <ele>1638</ele>
        <time>2022-07-16T17:45:53.952Z</time>
      </trkpt>
      <trkpt lat="45.69475" lon="6.65679">
        <ele>1640</ele>
        <time>2022-07-16T17:46:01.298Z</time>
      </trkpt>
      <trkpt lat="45.69462" lon="6.6567">
        <ele>1640</ele>
        <time>2022-07-16T17:46:03.324Z</time>
      </trkpt>
      <trkpt lat="45.6945" lon="6.65651">
        <ele>1638</ele>
        <time>2022-07-16T17:46:04.714Z</time>
      </trkpt>
      <trkpt lat="45.69443" lon="6.65622">
        <ele>1636</ele>
        <time>2022-07-16T17:46:06.379Z</time>
      </trkpt>
      <trkpt lat="45.69442" lon="6.656">
        <ele>1634</ele>
        <time>2022-07-16T17:46:07.575Z</time>
      </trkpt>
      <trkpt lat="45.69446" lon="6.65574">
        <ele>1630</ele>
        <time>2022-07-16T17:46:09.020Z</time>
      </trkpt>
      <trkpt lat="45.69464" lon="6.6555">
        <ele>1624</ele>
        <time>2022-07-16T17:46:10.931Z</time>
      </trkpt>
      <trkpt lat="45.69475" lon="6.65544">
        <ele>1621</ele>
        <time>2022-07-16T17:46:11.846Z</time>
      </trkpt>
      <trkpt lat="45.69486" lon="6.65542">
        <ele>1619</ele>
        <time>2022-07-16T17:46:12.707Z</time>
      </trkpt>
      <trkpt lat="45.69498" lon="6.65543">
        <ele>1617</ele>
        <time>2022-07-16T17:46:13.641Z</time>
      </trkpt>
      <trkpt lat="45.69579" lon="6.65572">
        <ele>1616</ele>
        <time>2022-07-16T17:46:23.791Z</time>
      </trkpt>
      <trkpt lat="45.69713" lon="6.65633">
        <ele>1606</ele>
        <time>2022-07-16T17:46:34.716Z</time>
      </trkpt>
      <trkpt lat="45.69749" lon="6.6564">
        <ele>1601</ele>
        <time>2022-07-16T17:46:37.538Z</time>
      </trkpt>
      <trkpt lat="45.69783" lon="6.65637">
        <ele>1598</ele>
        <time>2022-07-16T17:46:40.185Z</time>
      </trkpt>
      <trkpt lat="45.69804" lon="6.65627">
        <ele>1595</ele>
        <time>2022-07-16T17:46:41.904Z</time>
      </trkpt>
      <trkpt lat="45.69815" lon="6.65618">
        <ele>1592</ele>
        <time>2022-07-16T17:46:42.889Z</time>
      </trkpt>
      <trkpt lat="45.69873" lon="6.65542">
        <ele>1587</ele>
        <time>2022-07-16T17:46:48.618Z</time>
      </trkpt>
      <trkpt lat="45.69887" lon="6.65532">
        <ele>1587</ele>
        <time>2022-07-16T17:46:50.813Z</time>
      </trkpt>
      <trkpt lat="45.69926" lon="6.65525">
        <ele>1592</ele>
        <time>2022-07-16T17:47:10.324Z</time>
      </trkpt>
      <trkpt lat="45.69949" lon="6.65511">
        <ele>1596</ele>
        <time>2022-07-16T17:47:23.847Z</time>
      </trkpt>
      <trkpt lat="45.69961" lon="6.65492">
        <ele>1595</ele>
        <time>2022-07-16T17:47:25.233Z</time>
      </trkpt>
      <trkpt lat="45.69986" lon="6.65418">
        <ele>1591</ele>
        <time>2022-07-16T17:47:29.694Z</time>
      </trkpt>
      <trkpt lat="45.7" lon="6.65387">
        <ele>1593</ele>
        <time>2022-07-16T17:47:37.412Z</time>
      </trkpt>
      <trkpt lat="45.70031" lon="6.65333">
        <ele>1601</ele>
        <time>2022-07-16T17:48:03.827Z</time>
      </trkpt>
      <trkpt lat="45.70037" lon="6.65309">
        <ele>1603</ele>
        <time>2022-07-16T17:48:11.209Z</time>
      </trkpt>
      <trkpt lat="45.70039" lon="6.65274">
        <ele>1603</ele>
        <time>2022-07-16T17:48:14.649Z</time>
      </trkpt>
      <trkpt lat="45.7003" lon="6.6521">
        <ele>1600</ele>
        <time>2022-07-16T17:48:17.916Z</time>
      </trkpt>
      <trkpt lat="45.70033" lon="6.65135">
        <ele>1604</ele>
        <time>2022-07-16T17:48:33.457Z</time>
      </trkpt>
      <trkpt lat="45.70024" lon="6.65071">
        <ele>1603</ele>
        <time>2022-07-16T17:48:38.367Z</time>
      </trkpt>
      <trkpt lat="45.70026" lon="6.65044">
        <ele>1603</ele>
        <time>2022-07-16T17:48:41.027Z</time>
      </trkpt>
      <trkpt lat="45.70031" lon="6.65027">
        <ele>1604</ele>
        <time>2022-07-16T17:48:44.885Z</time>
      </trkpt>
      <trkpt lat="45.70041" lon="6.65012">
        <ele>1606</ele>
        <time>2022-07-16T17:48:52.722Z</time>
      </trkpt>
      <trkpt lat="45.70082" lon="6.64974">
        <ele>1610</ele>
        <time>2022-07-16T17:49:07.867Z</time>
      </trkpt>
      <trkpt lat="45.70095" lon="6.64955">
        <ele>1613</ele>
        <time>2022-07-16T17:49:17.918Z</time>
      </trkpt>
      <trkpt lat="45.70104" lon="6.64934">
        <ele>1614</ele>
        <time>2022-07-16T17:49:22.375Z</time>
      </trkpt>
      <trkpt lat="45.70108" lon="6.64916">
        <ele>1613</ele>
        <time>2022-07-16T17:49:23.400Z</time>
      </trkpt>
      <trkpt lat="45.70107" lon="6.64869">
        <ele>1619</ele>
        <time>2022-07-16T17:49:41.169Z</time>
      </trkpt>
      <trkpt lat="45.70103" lon="6.64855">
        <ele>1619</ele>
        <time>2022-07-16T17:49:42.651Z</time>
      </trkpt>
      <trkpt lat="45.70088" lon="6.64824">
        <ele>1617</ele>
        <time>2022-07-16T17:49:44.697Z</time>
      </trkpt>
      <trkpt lat="45.70053" lon="6.64778">
        <ele>1611</ele>
        <time>2022-07-16T17:49:48.388Z</time>
      </trkpt>
      <trkpt lat="45.70033" lon="6.64742">
        <ele>1609</ele>
        <time>2022-07-16T17:49:50.754Z</time>
      </trkpt>
      <trkpt lat="45.69986" lon="6.64628">
        <ele>1601</ele>
        <time>2022-07-16T17:49:57.938Z</time>
      </trkpt>
      <trkpt lat="45.69977" lon="6.64601">
        <ele>1598</ele>
        <time>2022-07-16T17:49:59.561Z</time>
      </trkpt>
      <trkpt lat="45.69975" lon="6.64587">
        <ele>1598</ele>
        <time>2022-07-16T17:50:00.961Z</time>
      </trkpt>
      <trkpt lat="45.6998" lon="6.64558">
        <ele>1597</ele>
        <time>2022-07-16T17:50:02.692Z</time>
      </trkpt>
      <trkpt lat="45.69989" lon="6.64543">
        <ele>1599</ele>
        <time>2022-07-16T17:50:10.164Z</time>
      </trkpt>
      <trkpt lat="45.70051" lon="6.64491">
        <ele>1608</ele>
        <time>2022-07-16T17:50:44.932Z</time>
      </trkpt>
      <trkpt lat="45.70064" lon="6.64467">
        <ele>1610</ele>
        <time>2022-07-16T17:50:52.261Z</time>
      </trkpt>
      <trkpt lat="45.70074" lon="6.64431">
        <ele>1611</ele>
        <time>2022-07-16T17:50:58.000Z</time>
      </trkpt>
      <trkpt lat="45.70072" lon="6.64398">
        <ele>1611</ele>
        <time>2022-07-16T17:51:01.245Z</time>
      </trkpt>
      <trkpt lat="45.70068" lon="6.64383">
        <ele>1611</ele>
        <time>2022-07-16T17:51:02.818Z</time>
      </trkpt>
      <trkpt lat="45.70042" lon="6.64327">
        <ele>1605</ele>
        <time>2022-07-16T17:51:06.467Z</time>
      </trkpt>
      <trkpt lat="45.70029" lon="6.64244">
        <ele>1609</ele>
        <time>2022-07-16T17:51:22.905Z</time>
      </trkpt>
      <trkpt lat="45.70023" lon="6.64226">
        <ele>1611</ele>
        <time>2022-07-16T17:51:30.442Z</time>
      </trkpt>
      <trkpt lat="45.69969" lon="6.64093">
        <ele>1619</ele>
        <time>2022-07-16T17:52:01.825Z</time>
      </trkpt>
      <trkpt lat="45.69957" lon="6.64072">
        <ele>1619</ele>
        <time>2022-07-16T17:52:04.483Z</time>
      </trkpt>
      <trkpt lat="45.69928" lon="6.64026">
        <ele>1619</ele>
        <time>2022-07-16T17:52:10.554Z</time>
      </trkpt>
      <trkpt lat="45.69792" lon="6.63843">
        <ele>1623</ele>
        <time>2022-07-16T17:52:43.130Z</time>
      </trkpt>
      <trkpt lat="45.69724" lon="6.638">
        <ele>1611</ele>
        <time>2022-07-16T17:52:48.905Z</time>
      </trkpt>
      <trkpt lat="45.6969" lon="6.63771">
        <ele>1608</ele>
        <time>2022-07-16T17:52:51.980Z</time>
      </trkpt>
      <trkpt lat="45.69675" lon="6.63749">
        <ele>1609</ele>
        <time>2022-07-16T17:52:57.131Z</time>
      </trkpt>
      <trkpt lat="45.69648" lon="6.63695">
        <ele>1617</ele>
        <time>2022-07-16T17:53:22.229Z</time>
      </trkpt>
      <trkpt lat="45.6963" lon="6.63665">
        <ele>1618</ele>
        <time>2022-07-16T17:53:28.026Z</time>
      </trkpt>
      <trkpt lat="45.69587" lon="6.63623">
        <ele>1611</ele>
        <time>2022-07-16T17:53:32.070Z</time>
      </trkpt>
      <trkpt lat="45.69566" lon="6.63592">
        <ele>1614</ele>
        <time>2022-07-16T17:53:43.016Z</time>
      </trkpt>
      <trkpt lat="45.69528" lon="6.63523">
        <ele>1617</ele>
        <time>2022-07-16T17:53:57.960Z</time>
      </trkpt>
      <trkpt lat="45.69512" lon="6.6349">
        <ele>1617</ele>
        <time>2022-07-16T17:54:01.896Z</time>
      </trkpt>
      <trkpt lat="45.69499" lon="6.63446">
        <ele>1615</ele>
        <time>2022-07-16T17:54:04.398Z</time>
      </trkpt>
      <trkpt lat="45.69491" lon="6.63352">
        <ele>1614</ele>
        <time>2022-07-16T17:54:12.125Z</time>
      </trkpt>
      <trkpt lat="45.69493" lon="6.63341">
        <ele>1614</ele>
        <time>2022-07-16T17:54:13.239Z</time>
      </trkpt>
      <trkpt lat="45.69504" lon="6.63313">
        <ele>1615</ele>
        <time>2022-07-16T17:54:18.553Z</time>
      </trkpt>
      <trkpt lat="45.69514" lon="6.63302">
        <ele>1616</ele>
        <time>2022-07-16T17:54:22.381Z</time>
      </trkpt>
      <trkpt lat="45.69523" lon="6.63297">
        <ele>1616</ele>
        <time>2022-07-16T17:54:23.735Z</time>
      </trkpt>
      <trkpt lat="45.69533" lon="6.63295">
        <ele>1616</ele>
        <time>2022-07-16T17:54:25.152Z</time>
      </trkpt>
      <trkpt lat="45.69549" lon="6.63298">
        <ele>1616</ele>
        <time>2022-07-16T17:54:27.415Z</time>
      </trkpt>
      <trkpt lat="45.69564" lon="6.63305">
        <ele>1616</ele>
        <time>2022-07-16T17:54:29.629Z</time>
      </trkpt>
      <trkpt lat="45.69603" lon="6.63335">
        <ele>1612</ele>
        <time>2022-07-16T17:54:33.068Z</time>
      </trkpt>
      <trkpt lat="45.69668" lon="6.63363">
        <ele>1609</ele>
        <time>2022-07-16T17:54:38.891Z</time>
      </trkpt>
      <trkpt lat="45.69681" lon="6.63371">
        <ele>1609</ele>
        <time>2022-07-16T17:54:40.876Z</time>
      </trkpt>
      <trkpt lat="45.69729" lon="6.63388">
        <ele>1605</ele>
        <time>2022-07-16T17:54:44.718Z</time>
      </trkpt>
      <trkpt lat="45.6974" lon="6.63388">
        <ele>1603</ele>
        <time>2022-07-16T17:54:45.573Z</time>
      </trkpt>
      <trkpt lat="45.69783" lon="6.6338">
        <ele>1593</ele>
        <time>2022-07-16T17:54:48.941Z</time>
      </trkpt>
      <trkpt lat="45.69801" lon="6.63385">
        <ele>1591</ele>
        <time>2022-07-16T17:54:50.366Z</time>
      </trkpt>
      <trkpt lat="45.69835" lon="6.63412">
        <ele>1592</ele>
        <time>2022-07-16T17:54:57.501Z</time>
      </trkpt>
      <trkpt lat="45.6985" lon="6.63418">
        <ele>1593</ele>
        <time>2022-07-16T17:55:01.713Z</time>
      </trkpt>
      <trkpt lat="45.69868" lon="6.63419">
        <ele>1592</ele>
        <time>2022-07-16T17:55:03.114Z</time>
      </trkpt>
      <trkpt lat="45.69905" lon="6.63416">
        <ele>1589</ele>
        <time>2022-07-16T17:55:05.993Z</time>
      </trkpt>
      <trkpt lat="45.69937" lon="6.63398">
        <ele>1583</ele>
        <time>2022-07-16T17:55:08.664Z</time>
      </trkpt>
      <trkpt lat="45.69955" lon="6.63383">
        <ele>1578</ele>
        <time>2022-07-16T17:55:10.282Z</time>
      </trkpt>
      <trkpt lat="45.69966" lon="6.63381">
        <ele>1576</ele>
        <time>2022-07-16T17:55:11.144Z</time>
      </trkpt>
      <trkpt lat="45.69985" lon="6.63381">
        <ele>1576</ele>
        <time>2022-07-16T17:55:13.809Z</time>
      </trkpt>
      <trkpt lat="45.70013" lon="6.63386">
        <ele>1576</ele>
        <time>2022-07-16T17:55:17.767Z</time>
      </trkpt>
      <trkpt lat="45.70087" lon="6.63384">
        <ele>1568</ele>
        <time>2022-07-16T17:55:23.517Z</time>
      </trkpt>
      <trkpt lat="45.70176" lon="6.63375">
        <ele>1557</ele>
        <time>2022-07-16T17:55:30.449Z</time>
      </trkpt>
      <trkpt lat="45.70254" lon="6.63361">
        <ele>1545</ele>
        <time>2022-07-16T17:55:36.557Z</time>
      </trkpt>
      <trkpt lat="45.70315" lon="6.63342">
        <ele>1537</ele>
        <time>2022-07-16T17:55:41.407Z</time>
      </trkpt>
      <trkpt lat="45.7033" lon="6.63344">
        <ele>1538</ele>
        <time>2022-07-16T17:55:45.546Z</time>
      </trkpt>
      <trkpt lat="45.70374" lon="6.63357">
        <ele>1539</ele>
        <time>2022-07-16T17:55:53.463Z</time>
      </trkpt>
      <trkpt lat="45.70391" lon="6.63356">
        <ele>1537</ele>
        <time>2022-07-16T17:55:54.784Z</time>
      </trkpt>
      <trkpt lat="45.70417" lon="6.63345">
        <ele>1531</ele>
        <time>2022-07-16T17:55:56.891Z</time>
      </trkpt>
      <trkpt lat="45.70427" lon="6.63346">
        <ele>1530</ele>
        <time>2022-07-16T17:55:57.670Z</time>
      </trkpt>
      <trkpt lat="45.70464" lon="6.63357">
        <ele>1531</ele>
        <time>2022-07-16T17:56:04.667Z</time>
      </trkpt>
      <trkpt lat="45.70506" lon="6.63356">
        <ele>1527</ele>
        <time>2022-07-16T17:56:07.930Z</time>
      </trkpt>
      <trkpt lat="45.70546" lon="6.63352">
        <ele>1521</ele>
        <time>2022-07-16T17:56:11.045Z</time>
      </trkpt>
      <trkpt lat="45.70594" lon="6.6334">
        <ele>1513</ele>
        <time>2022-07-16T17:56:14.831Z</time>
      </trkpt>
      <trkpt lat="45.70623" lon="6.63336">
        <ele>1513</ele>
        <time>2022-07-16T17:56:18.918Z</time>
      </trkpt>
      <trkpt lat="45.7064" lon="6.6333">
        <ele>1511</ele>
        <time>2022-07-16T17:56:20.278Z</time>
      </trkpt>
      <trkpt lat="45.70658" lon="6.63319">
        <ele>1507</ele>
        <time>2022-07-16T17:56:21.799Z</time>
      </trkpt>
      <trkpt lat="45.70697" lon="6.63312">
        <ele>1497</ele>
        <time>2022-07-16T17:56:24.853Z</time>
      </trkpt>
      <trkpt lat="45.70701" lon="6.63308">
        <ele>1493</ele>
        <time>2022-07-16T17:56:25.232Z</time>
      </trkpt>
      <trkpt lat="45.70702" lon="6.63298">
        <ele>1488</ele>
        <time>2022-07-16T17:56:25.780Z</time>
      </trkpt>
      <trkpt lat="45.70697" lon="6.6329">
        <ele>1485</ele>
        <time>2022-07-16T17:56:26.362Z</time>
      </trkpt>
      <trkpt lat="45.70692" lon="6.63288">
        <ele>1486</ele>
        <time>2022-07-16T17:56:29.171Z</time>
      </trkpt>
      <trkpt lat="45.70684" lon="6.63289">
        <ele>1489</ele>
        <time>2022-07-16T17:56:33.516Z</time>
      </trkpt>
      <trkpt lat="45.70656" lon="6.63303">
        <ele>1499</ele>
        <time>2022-07-16T17:56:49.563Z</time>
      </trkpt>
      <trkpt lat="45.70631" lon="6.63311">
        <ele>1501</ele>
        <time>2022-07-16T17:56:57.262Z</time>
      </trkpt>
      <trkpt lat="45.70612" lon="6.63313">
        <ele>1501</ele>
        <time>2022-07-16T17:56:59.935Z</time>
      </trkpt>
      <trkpt lat="45.7054" lon="6.633">
        <ele>1498</ele>
        <time>2022-07-16T17:57:06.327Z</time>
      </trkpt>
      <trkpt lat="45.70512" lon="6.6329">
        <ele>1496</ele>
        <time>2022-07-16T17:57:08.569Z</time>
      </trkpt>
      <trkpt lat="45.70486" lon="6.63271">
        <ele>1490</ele>
        <time>2022-07-16T17:57:10.837Z</time>
      </trkpt>
      <trkpt lat="45.70477" lon="6.6326">
        <ele>1486</ele>
        <time>2022-07-16T17:57:11.757Z</time>
      </trkpt>
      <trkpt lat="45.70452" lon="6.63243">
        <ele>1482</ele>
        <time>2022-07-16T17:57:13.907Z</time>
      </trkpt>
      <trkpt lat="45.70416" lon="6.63239">
        <ele>1484</ele>
        <time>2022-07-16T17:57:23.088Z</time>
      </trkpt>
      <trkpt lat="45.70407" lon="6.63234">
        <ele>1482</ele>
        <time>2022-07-16T17:57:23.838Z</time>
      </trkpt>
      <trkpt lat="45.70388" lon="6.63217">
        <ele>1474</ele>
        <time>2022-07-16T17:57:25.578Z</time>
      </trkpt>
      <trkpt lat="45.70376" lon="6.63212">
        <ele>1472</ele>
        <time>2022-07-16T17:57:26.549Z</time>
      </trkpt>
      <trkpt lat="45.70358" lon="6.63209">
        <ele>1471</ele>
        <time>2022-07-16T17:57:27.962Z</time>
      </trkpt>
      <trkpt lat="45.70295" lon="6.63222">
        <ele>1477</ele>
        <time>2022-07-16T17:57:49.952Z</time>
      </trkpt>
      <trkpt lat="45.70237" lon="6.63208">
        <ele>1469</ele>
        <time>2022-07-16T17:57:54.522Z</time>
      </trkpt>
      <trkpt lat="45.70192" lon="6.63203">
        <ele>1470</ele>
        <time>2022-07-16T17:58:02.465Z</time>
      </trkpt>
      <trkpt lat="45.70165" lon="6.63197">
        <ele>1469</ele>
        <time>2022-07-16T17:58:04.984Z</time>
      </trkpt>
      <trkpt lat="45.70151" lon="6.63192">
        <ele>1469</ele>
        <time>2022-07-16T17:58:07.008Z</time>
      </trkpt>
      <trkpt lat="45.70093" lon="6.63157">
        <ele>1463</ele>
        <time>2022-07-16T17:58:11.898Z</time>
      </trkpt>
      <trkpt lat="45.70067" lon="6.6313">
        <ele>1460</ele>
        <time>2022-07-16T17:58:14.394Z</time>
      </trkpt>
      <trkpt lat="45.70031" lon="6.63101">
        <ele>1460</ele>
        <time>2022-07-16T17:58:20.188Z</time>
      </trkpt>
      <trkpt lat="45.70024" lon="6.63092">
        <ele>1459</ele>
        <time>2022-07-16T17:58:20.919Z</time>
      </trkpt>
      <trkpt lat="45.70019" lon="6.63078">
        <ele>1455</ele>
        <time>2022-07-16T17:58:21.772Z</time>
      </trkpt>
      <trkpt lat="45.70022" lon="6.63067">
        <ele>1451</ele>
        <time>2022-07-16T17:58:22.413Z</time>
      </trkpt>
      <trkpt lat="45.7003" lon="6.63062">
        <ele>1446</ele>
        <time>2022-07-16T17:58:23.091Z</time>
      </trkpt>
      <trkpt lat="45.70058" lon="6.63086">
        <ele>1446</ele>
        <time>2022-07-16T17:58:27.669Z</time>
      </trkpt>
      <trkpt lat="45.70087" lon="6.63099">
        <ele>1442</ele>
        <time>2022-07-16T17:58:30.030Z</time>
      </trkpt>
      <trkpt lat="45.70135" lon="6.63115">
        <ele>1437</ele>
        <time>2022-07-16T17:58:33.859Z</time>
      </trkpt>
      <trkpt lat="45.7017" lon="6.63135">
        <ele>1438</ele>
        <time>2022-07-16T17:58:40.843Z</time>
      </trkpt>
      <trkpt lat="45.70191" lon="6.63141">
        <ele>1439</ele>
        <time>2022-07-16T17:58:45.984Z</time>
      </trkpt>
      <trkpt lat="45.702" lon="6.63141">
        <ele>1438</ele>
        <time>2022-07-16T17:58:46.683Z</time>
      </trkpt>
      <trkpt lat="45.70225" lon="6.63132">
        <ele>1432</ele>
        <time>2022-07-16T17:58:48.686Z</time>
      </trkpt>
      <trkpt lat="45.70251" lon="6.63126">
        <ele>1426</ele>
        <time>2022-07-16T17:58:50.732Z</time>
      </trkpt>
      <trkpt lat="45.70291" lon="6.63128">
        <ele>1428</ele>
        <time>2022-07-16T17:59:00.547Z</time>
      </trkpt>
      <trkpt lat="45.70353" lon="6.63102">
        <ele>1413</ele>
        <time>2022-07-16T17:59:05.566Z</time>
      </trkpt>
      <trkpt lat="45.70404" lon="6.6309">
        <ele>1409</ele>
        <time>2022-07-16T17:59:09.582Z</time>
      </trkpt>
      <trkpt lat="45.70459" lon="6.63086">
        <ele>1403</ele>
        <time>2022-07-16T17:59:13.861Z</time>
      </trkpt>
      <trkpt lat="45.7049" lon="6.6307">
        <ele>1393</ele>
        <time>2022-07-16T17:59:16.421Z</time>
      </trkpt>
      <trkpt lat="45.70507" lon="6.63065">
        <ele>1389</ele>
        <time>2022-07-16T17:59:17.769Z</time>
      </trkpt>
      <trkpt lat="45.70514" lon="6.63065">
        <ele>1389</ele>
        <time>2022-07-16T17:59:18.751Z</time>
      </trkpt>
      <trkpt lat="45.70528" lon="6.63072">
        <ele>1391</ele>
        <time>2022-07-16T17:59:26.775Z</time>
      </trkpt>
      <trkpt lat="45.70538" lon="6.63083">
        <ele>1395</ele>
        <time>2022-07-16T17:59:33.597Z</time>
      </trkpt>
      <trkpt lat="45.70547" lon="6.63089">
        <ele>1397</ele>
        <time>2022-07-16T17:59:38.969Z</time>
      </trkpt>
      <trkpt lat="45.70558" lon="6.63092">
        <ele>1398</ele>
        <time>2022-07-16T17:59:42.668Z</time>
      </trkpt>
      <trkpt lat="45.70582" lon="6.63091">
        <ele>1396</ele>
        <time>2022-07-16T17:59:44.534Z</time>
      </trkpt>
      <trkpt lat="45.70592" lon="6.63086">
        <ele>1392</ele>
        <time>2022-07-16T17:59:45.356Z</time>
      </trkpt>
      <trkpt lat="45.70614" lon="6.63084">
        <ele>1389</ele>
        <time>2022-07-16T17:59:47.069Z</time>
      </trkpt>
      <trkpt lat="45.70739" lon="6.63114">
        <ele>1383</ele>
        <time>2022-07-16T17:59:57.638Z</time>
      </trkpt>
      <trkpt lat="45.70749" lon="6.63111">
        <ele>1380</ele>
        <time>2022-07-16T17:59:58.432Z</time>
      </trkpt>
      <trkpt lat="45.70753" lon="6.63092">
        <ele>1372</ele>
        <time>2022-07-16T17:59:59.509Z</time>
      </trkpt>
      <trkpt lat="45.70745" lon="6.63081">
        <ele>1370</ele>
        <time>2022-07-16T18:00:00.371Z</time>
      </trkpt>
      <trkpt lat="45.70715" lon="6.63078">
        <ele>1373</ele>
        <time>2022-07-16T18:00:11.315Z</time>
      </trkpt>
      <trkpt lat="45.70684" lon="6.63069">
        <ele>1374</ele>
        <time>2022-07-16T18:00:17.561Z</time>
      </trkpt>
      <trkpt lat="45.70556" lon="6.62998">
        <ele>1359</ele>
        <time>2022-07-16T18:00:28.226Z</time>
      </trkpt>
      <trkpt lat="45.70535" lon="6.62978">
        <ele>1354</ele>
        <time>2022-07-16T18:00:30.185Z</time>
      </trkpt>
      <trkpt lat="45.70522" lon="6.62958">
        <ele>1349</ele>
        <time>2022-07-16T18:00:31.667Z</time>
      </trkpt>
      <trkpt lat="45.70506" lon="6.62948">
        <ele>1347</ele>
        <time>2022-07-16T18:00:33.024Z</time>
      </trkpt>
      <trkpt lat="45.70418" lon="6.62939">
        <ele>1346</ele>
        <time>2022-07-16T18:00:43.839Z</time>
      </trkpt>
      <trkpt lat="45.70402" lon="6.62941">
        <ele>1346</ele>
        <time>2022-07-16T18:00:46.092Z</time>
      </trkpt>
      <trkpt lat="45.70375" lon="6.62949">
        <ele>1346</ele>
        <time>2022-07-16T18:00:49.960Z</time>
      </trkpt>
      <trkpt lat="45.70313" lon="6.62951">
        <ele>1346</ele>
        <time>2022-07-16T18:00:58.659Z</time>
      </trkpt>
      <trkpt lat="45.70296" lon="6.62949">
        <ele>1348</ele>
        <time>2022-07-16T18:01:06.139Z</time>
      </trkpt>
      <trkpt lat="45.70283" lon="6.62943">
        <ele>1348</ele>
        <time>2022-07-16T18:01:08.055Z</time>
      </trkpt>
      <trkpt lat="45.70268" lon="6.62934">
        <ele>1348</ele>
        <time>2022-07-16T18:01:10.336Z</time>
      </trkpt>
      <trkpt lat="45.7022" lon="6.62893">
        <ele>1339</ele>
        <time>2022-07-16T18:01:14.679Z</time>
      </trkpt>
      <trkpt lat="45.70184" lon="6.62867">
        <ele>1333</ele>
        <time>2022-07-16T18:01:17.811Z</time>
      </trkpt>
      <trkpt lat="45.7017" lon="6.6285">
        <ele>1327</ele>
        <time>2022-07-16T18:01:19.237Z</time>
      </trkpt>
      <trkpt lat="45.7016" lon="6.62842">
        <ele>1326</ele>
        <time>2022-07-16T18:01:20.127Z</time>
      </trkpt>
      <trkpt lat="45.70125" lon="6.62834">
        <ele>1332</ele>
        <time>2022-07-16T18:01:39.304Z</time>
      </trkpt>
      <trkpt lat="45.7011" lon="6.62824">
        <ele>1332</ele>
        <time>2022-07-16T18:01:41.625Z</time>
      </trkpt>
      <trkpt lat="45.70104" lon="6.62818">
        <ele>1332</ele>
        <time>2022-07-16T18:01:42.652Z</time>
      </trkpt>
      <trkpt lat="45.70075" lon="6.62762">
        <ele>1321</ele>
        <time>2022-07-16T18:01:46.435Z</time>
      </trkpt>
      <trkpt lat="45.70067" lon="6.62751">
        <ele>1321</ele>
        <time>2022-07-16T18:01:47.991Z</time>
      </trkpt>
      <trkpt lat="45.69984" lon="6.62661">
        <ele>1316</ele>
        <time>2022-07-16T18:01:56.621Z</time>
      </trkpt>
      <trkpt lat="45.69967" lon="6.62639">
        <ele>1319</ele>
        <time>2022-07-16T18:02:08.584Z</time>
      </trkpt>
      <trkpt lat="45.69947" lon="6.62604">
        <ele>1324</ele>
        <time>2022-07-16T18:02:25.673Z</time>
      </trkpt>
      <trkpt lat="45.69934" lon="6.62555">
        <ele>1321</ele>
        <time>2022-07-16T18:02:28.518Z</time>
      </trkpt>
      <trkpt lat="45.69911" lon="6.6244">
        <ele>1307</ele>
        <time>2022-07-16T18:02:35.009Z</time>
      </trkpt>
      <trkpt lat="45.69902" lon="6.62354">
        <ele>1286</ele>
        <time>2022-07-16T18:02:39.727Z</time>
      </trkpt>
      <trkpt lat="45.69898" lon="6.62339">
        <ele>1284</ele>
        <time>2022-07-16T18:02:40.599Z</time>
      </trkpt>
      <trkpt lat="45.69858" lon="6.62232">
        <ele>1294</ele>
        <time>2022-07-16T18:03:18.086Z</time>
      </trkpt>
      <trkpt lat="45.69851" lon="6.62206">
        <ele>1291</ele>
        <time>2022-07-16T18:03:19.598Z</time>
      </trkpt>
      <trkpt lat="45.69843" lon="6.62158">
        <ele>1280</ele>
        <time>2022-07-16T18:03:22.275Z</time>
      </trkpt>
      <trkpt lat="45.69848" lon="6.6211">
        <ele>1263</ele>
        <time>2022-07-16T18:03:24.909Z</time>
      </trkpt>
      <trkpt lat="45.69844" lon="6.62096">
        <ele>1261</ele>
        <time>2022-07-16T18:03:25.730Z</time>
      </trkpt>
      <trkpt lat="45.69838" lon="6.62087">
        <ele>1262</ele>
        <time>2022-07-16T18:03:29.446Z</time>
      </trkpt>
      <trkpt lat="45.69812" lon="6.62061">
        <ele>1270</ele>
        <time>2022-07-16T18:03:46.605Z</time>
      </trkpt>
      <trkpt lat="45.69798" lon="6.62037">
        <ele>1270</ele>
        <time>2022-07-16T18:03:49.668Z</time>
      </trkpt>
      <trkpt lat="45.69783" lon="6.62007">
        <ele>1268</ele>
        <time>2022-07-16T18:03:51.671Z</time>
      </trkpt>
      <trkpt lat="45.69777" lon="6.61988">
        <ele>1265</ele>
        <time>2022-07-16T18:03:52.802Z</time>
      </trkpt>
      <trkpt lat="45.6973" lon="6.61895">
        <ele>1267</ele>
        <time>2022-07-16T18:04:07.380Z</time>
      </trkpt>
      <trkpt lat="45.69722" lon="6.61867">
        <ele>1267</ele>
        <time>2022-07-16T18:04:10.344Z</time>
      </trkpt>
      <trkpt lat="45.69698" lon="6.61749">
        <ele>1266</ele>
        <time>2022-07-16T18:04:20.824Z</time>
      </trkpt>
      <trkpt lat="45.69686" lon="6.61701">
        <ele>1269</ele>
        <time>2022-07-16T18:04:32.085Z</time>
      </trkpt>
      <trkpt lat="45.69686" lon="6.61669">
        <ele>1266</ele>
        <time>2022-07-16T18:04:33.821Z</time>
      </trkpt>
      <trkpt lat="45.69691" lon="6.61665">
        <ele>1263</ele>
        <time>2022-07-16T18:04:34.266Z</time>
      </trkpt>
      <trkpt lat="45.69699" lon="6.61666">
        <ele>1259</ele>
        <time>2022-07-16T18:04:34.890Z</time>
      </trkpt>
      <trkpt lat="45.69704" lon="6.61671">
        <ele>1257</ele>
        <time>2022-07-16T18:04:35.364Z</time>
      </trkpt>
      <trkpt lat="45.69742" lon="6.61769">
        <ele>1242</ele>
        <time>2022-07-16T18:04:41.447Z</time>
      </trkpt>
      <trkpt lat="45.69777" lon="6.61887">
        <ele>1239</ele>
        <time>2022-07-16T18:04:49.960Z</time>
      </trkpt>
      <trkpt lat="45.69824" lon="6.61955">
        <ele>1229</ele>
        <time>2022-07-16T18:04:55.151Z</time>
      </trkpt>
      <trkpt lat="45.69848" lon="6.62004">
        <ele>1229</ele>
        <time>2022-07-16T18:05:01.014Z</time>
      </trkpt>
      <trkpt lat="45.69854" lon="6.62009">
        <ele>1227</ele>
        <time>2022-07-16T18:05:01.554Z</time>
      </trkpt>
      <trkpt lat="45.69858" lon="6.62008">
        <ele>1225</ele>
        <time>2022-07-16T18:05:01.869Z</time>
      </trkpt>
      <trkpt lat="45.69862" lon="6.61996">
        <ele>1220</ele>
        <time>2022-07-16T18:05:02.591Z</time>
      </trkpt>
      <trkpt lat="45.69859" lon="6.61987">
        <ele>1219</ele>
        <time>2022-07-16T18:05:03.132Z</time>
      </trkpt>
      <trkpt lat="45.6983" lon="6.61941">
        <ele>1222</ele>
        <time>2022-07-16T18:05:15.286Z</time>
      </trkpt>
      <trkpt lat="45.69818" lon="6.61917">
        <ele>1222</ele>
        <time>2022-07-16T18:05:18.178Z</time>
      </trkpt>
      <trkpt lat="45.69807" lon="6.61886">
        <ele>1224</ele>
        <time>2022-07-16T18:05:25.737Z</time>
      </trkpt>
      <trkpt lat="45.69803" lon="6.61861">
        <ele>1222</ele>
        <time>2022-07-16T18:05:27.129Z</time>
      </trkpt>
      <trkpt lat="45.69793" lon="6.61715">
        <ele>1214</ele>
        <time>2022-07-16T18:05:35.089Z</time>
      </trkpt>
      <trkpt lat="45.69804" lon="6.61661">
        <ele>1205</ele>
        <time>2022-07-16T18:05:38.142Z</time>
      </trkpt>
      <trkpt lat="45.69807" lon="6.61632">
        <ele>1200</ele>
        <time>2022-07-16T18:05:39.733Z</time>
      </trkpt>
      <trkpt lat="45.69806" lon="6.61619">
        <ele>1198</ele>
        <time>2022-07-16T18:05:40.442Z</time>
      </trkpt>
      <trkpt lat="45.69796" lon="6.61589">
        <ele>1199</ele>
        <time>2022-07-16T18:05:45.821Z</time>
      </trkpt>
      <trkpt lat="45.69764" lon="6.6153">
        <ele>1196</ele>
        <time>2022-07-16T18:05:49.812Z</time>
      </trkpt>
      <trkpt lat="45.69741" lon="6.61502">
        <ele>1193</ele>
        <time>2022-07-16T18:05:52.158Z</time>
      </trkpt>
      <trkpt lat="45.69692" lon="6.61451">
        <ele>1196</ele>
        <time>2022-07-16T18:06:06.970Z</time>
      </trkpt>
      <trkpt lat="45.69687" lon="6.61438">
        <ele>1193</ele>
        <time>2022-07-16T18:06:07.775Z</time>
      </trkpt>
      <trkpt lat="45.69689" lon="6.61423">
        <ele>1188</ele>
        <time>2022-07-16T18:06:08.604Z</time>
      </trkpt>
      <trkpt lat="45.69695" lon="6.61418">
        <ele>1185</ele>
        <time>2022-07-16T18:06:09.144Z</time>
      </trkpt>
      <trkpt lat="45.69701" lon="6.61418">
        <ele>1184</ele>
        <time>2022-07-16T18:06:09.610Z</time>
      </trkpt>
      <trkpt lat="45.69727" lon="6.61444">
        <ele>1184</ele>
        <time>2022-07-16T18:06:14.058Z</time>
      </trkpt>
      <trkpt lat="45.69752" lon="6.61457">
        <ele>1180</ele>
        <time>2022-07-16T18:06:16.125Z</time>
      </trkpt>
      <trkpt lat="45.69811" lon="6.61469">
        <ele>1172</ele>
        <time>2022-07-16T18:06:20.755Z</time>
      </trkpt>
      <trkpt lat="45.6982" lon="6.61475">
        <ele>1170</ele>
        <time>2022-07-16T18:06:21.526Z</time>
      </trkpt>
      <trkpt lat="45.69833" lon="6.61489">
        <ele>1167</ele>
        <time>2022-07-16T18:06:22.790Z</time>
      </trkpt>
      <trkpt lat="45.69842" lon="6.61504">
        <ele>1167</ele>
        <time>2022-07-16T18:06:24.727Z</time>
      </trkpt>
      <trkpt lat="45.69856" lon="6.6154">
        <ele>1169</ele>
        <time>2022-07-16T18:06:32.820Z</time>
      </trkpt>
      <trkpt lat="45.69906" lon="6.61724">
        <ele>1163</ele>
        <time>2022-07-16T18:06:44.724Z</time>
      </trkpt>
      <trkpt lat="45.69927" lon="6.61779">
        <ele>1160</ele>
        <time>2022-07-16T18:06:48.125Z</time>
      </trkpt>
      <trkpt lat="45.69959" lon="6.61828">
        <ele>1156</ele>
        <time>2022-07-16T18:06:51.766Z</time>
      </trkpt>
      <trkpt lat="45.6998" lon="6.61851">
        <ele>1154</ele>
        <time>2022-07-16T18:06:53.820Z</time>
      </trkpt>
      <trkpt lat="45.70005" lon="6.61863">
        <ele>1149</ele>
        <time>2022-07-16T18:06:55.868Z</time>
      </trkpt>
      <trkpt lat="45.7006" lon="6.61896">
        <ele>1137</ele>
        <time>2022-07-16T18:07:00.502Z</time>
      </trkpt>
      <trkpt lat="45.70071" lon="6.61905">
        <ele>1136</ele>
        <time>2022-07-16T18:07:01.486Z</time>
      </trkpt>
      <trkpt lat="45.70075" lon="6.61912">
        <ele>1136</ele>
        <time>2022-07-16T18:07:02.372Z</time>
      </trkpt>
      <trkpt lat="45.70085" lon="6.61934">
        <ele>1135</ele>
        <time>2022-07-16T18:07:03.809Z</time>
      </trkpt>
      <trkpt lat="45.70089" lon="6.61953">
        <ele>1135</ele>
        <time>2022-07-16T18:07:05.753Z</time>
      </trkpt>
      <trkpt lat="45.70093" lon="6.62026">
        <ele>1138</ele>
        <time>2022-07-16T18:07:19.051Z</time>
      </trkpt>
      <trkpt lat="45.70112" lon="6.62083">
        <ele>1132</ele>
        <time>2022-07-16T18:07:22.478Z</time>
      </trkpt>
      <trkpt lat="45.70118" lon="6.62125">
        <ele>1132</ele>
        <time>2022-07-16T18:07:26.678Z</time>
      </trkpt>
      <trkpt lat="45.70125" lon="6.62151">
        <ele>1130</ele>
        <time>2022-07-16T18:07:28.190Z</time>
      </trkpt>
      <trkpt lat="45.70155" lon="6.62212">
        <ele>1119</ele>
        <time>2022-07-16T18:07:32.239Z</time>
      </trkpt>
      <trkpt lat="45.70212" lon="6.6231">
        <ele>1110</ele>
        <time>2022-07-16T18:07:39.159Z</time>
      </trkpt>
      <trkpt lat="45.7023" lon="6.62336">
        <ele>1107</ele>
        <time>2022-07-16T18:07:41.145Z</time>
      </trkpt>
      <trkpt lat="45.70246" lon="6.62349">
        <ele>1105</ele>
        <time>2022-07-16T18:07:42.575Z</time>
      </trkpt>
      <trkpt lat="45.70379" lon="6.62428">
        <ele>1091</ele>
        <time>2022-07-16T18:07:53.762Z</time>
      </trkpt>
      <trkpt lat="45.70406" lon="6.62438">
        <ele>1088</ele>
        <time>2022-07-16T18:07:55.928Z</time>
      </trkpt>
      <trkpt lat="45.70434" lon="6.62445">
        <ele>1085</ele>
        <time>2022-07-16T18:07:58.137Z</time>
      </trkpt>
      <trkpt lat="45.70518" lon="6.62458">
        <ele>1082</ele>
        <time>2022-07-16T18:08:06.010Z</time>
      </trkpt>
      <trkpt lat="45.70521" lon="6.62456">
        <ele>1081</ele>
        <time>2022-07-16T18:08:06.267Z</time>
      </trkpt>
      <trkpt lat="45.70525" lon="6.62448">
        <ele>1078</ele>
        <time>2022-07-16T18:08:06.801Z</time>
      </trkpt>
      <trkpt lat="45.70521" lon="6.62435">
        <ele>1072</ele>
        <time>2022-07-16T18:08:07.571Z</time>
      </trkpt>
      <trkpt lat="45.70507" lon="6.6243">
        <ele>1069</ele>
        <time>2022-07-16T18:08:08.692Z</time>
      </trkpt>
      <trkpt lat="45.70478" lon="6.62428">
        <ele>1071</ele>
        <time>2022-07-16T18:08:16.819Z</time>
      </trkpt>
      <trkpt lat="45.7046" lon="6.62422">
        <ele>1072</ele>
        <time>2022-07-16T18:08:21.478Z</time>
      </trkpt>
      <trkpt lat="45.70428" lon="6.62402">
        <ele>1071</ele>
        <time>2022-07-16T18:08:24.969Z</time>
      </trkpt>
      <trkpt lat="45.70404" lon="6.6238">
        <ele>1071</ele>
        <time>2022-07-16T18:08:28.967Z</time>
      </trkpt>
      <trkpt lat="45.70393" lon="6.62366">
        <ele>1070</ele>
        <time>2022-07-16T18:08:30.110Z</time>
      </trkpt>
      <trkpt lat="45.70373" lon="6.6233">
        <ele>1066</ele>
        <time>2022-07-16T18:08:32.606Z</time>
      </trkpt>
      <trkpt lat="45.70367" lon="6.62314">
        <ele>1066</ele>
        <time>2022-07-16T18:08:34.385Z</time>
      </trkpt>
      <trkpt lat="45.7036" lon="6.62274">
        <ele>1063</ele>
        <time>2022-07-16T18:08:36.623Z</time>
      </trkpt>
      <trkpt lat="45.70373" lon="6.6218">
        <ele>1050</ele>
        <time>2022-07-16T18:08:41.822Z</time>
      </trkpt>
      <trkpt lat="45.7037" lon="6.62159">
        <ele>1049</ele>
        <time>2022-07-16T18:08:42.985Z</time>
      </trkpt>
      <trkpt lat="45.70363" lon="6.62135">
        <ele>1048</ele>
        <time>2022-07-16T18:08:44.403Z</time>
      </trkpt>
      <trkpt lat="45.70347" lon="6.62108">
        <ele>1048</ele>
        <time>2022-07-16T18:08:47.872Z</time>
      </trkpt>
      <trkpt lat="45.70347" lon="6.62081">
        <ele>1046</ele>
        <time>2022-07-16T18:08:49.337Z</time>
      </trkpt>
      <trkpt lat="45.70352" lon="6.62067">
        <ele>1049</ele>
        <time>2022-07-16T18:08:55.278Z</time>
      </trkpt>
      <trkpt lat="45.70359" lon="6.62059">
        <ele>1050</ele>
        <time>2022-07-16T18:08:58.964Z</time>
      </trkpt>
      <trkpt lat="45.70377" lon="6.62049">
        <ele>1051</ele>
        <time>2022-07-16T18:09:03.756Z</time>
      </trkpt>
      <trkpt lat="45.70398" lon="6.62041">
        <ele>1052</ele>
        <time>2022-07-16T18:09:08.951Z</time>
      </trkpt>
      <trkpt lat="45.70465" lon="6.62008">
        <ele>1057</ele>
        <time>2022-07-16T18:09:29.036Z</time>
      </trkpt>
      <trkpt lat="45.70524" lon="6.61991">
        <ele>1054</ele>
        <time>2022-07-16T18:09:33.946Z</time>
      </trkpt>
      <trkpt lat="45.70586" lon="6.61934">
        <ele>1046</ele>
        <time>2022-07-16T18:09:39.670Z</time>
      </trkpt>
      <trkpt lat="45.70599" lon="6.61914">
        <ele>1047</ele>
        <time>2022-07-16T18:09:44.425Z</time>
      </trkpt>
      <trkpt lat="45.70608" lon="6.6189">
        <ele>1050</ele>
        <time>2022-07-16T18:09:54.718Z</time>
      </trkpt>
      <trkpt lat="45.7062" lon="6.61841">
        <ele>1054</ele>
        <time>2022-07-16T18:10:09.424Z</time>
      </trkpt>
      <trkpt lat="45.70628" lon="6.61788">
        <ele>1056</ele>
        <time>2022-07-16T18:10:18.886Z</time>
      </trkpt>
      <trkpt lat="45.7064" lon="6.61616">
        <ele>1047</ele>
        <time>2022-07-16T18:10:28.265Z</time>
      </trkpt>
      <trkpt lat="45.70637" lon="6.61566">
        <ele>1049</ele>
        <time>2022-07-16T18:10:37.278Z</time>
      </trkpt>
      <trkpt lat="45.70639" lon="6.61475">
        <ele>1045</ele>
        <time>2022-07-16T18:10:41.936Z</time>
      </trkpt>
      <trkpt lat="45.70651" lon="6.61434">
        <ele>1036</ele>
        <time>2022-07-16T18:10:44.348Z</time>
      </trkpt>
      <trkpt lat="45.70684" lon="6.61347">
        <ele>1031</ele>
        <time>2022-07-16T18:10:49.720Z</time>
      </trkpt>
      <trkpt lat="45.70708" lon="6.61302">
        <ele>1029</ele>
        <time>2022-07-16T18:10:52.925Z</time>
      </trkpt>
      <trkpt lat="45.70708" lon="6.6129">
        <ele>1029</ele>
        <time>2022-07-16T18:10:54.100Z</time>
      </trkpt>
      <trkpt lat="45.70702" lon="6.61255">
        <ele>1028</ele>
        <time>2022-07-16T18:10:56.351Z</time>
      </trkpt>
      <trkpt lat="45.70705" lon="6.61239">
        <ele>1027</ele>
        <time>2022-07-16T18:10:57.250Z</time>
      </trkpt>
      <trkpt lat="45.7071" lon="6.61228">
        <ele>1026</ele>
        <time>2022-07-16T18:10:57.962Z</time>
      </trkpt>
      <trkpt lat="45.7071" lon="6.61189">
        <ele>1025</ele>
        <time>2022-07-16T18:11:00.470Z</time>
      </trkpt>
      <trkpt lat="45.70699" lon="6.61161">
        <ele>1026</ele>
        <time>2022-07-16T18:11:05.784Z</time>
      </trkpt>
      <trkpt lat="45.70685" lon="6.61141">
        <ele>1028</ele>
        <time>2022-07-16T18:11:13.078Z</time>
      </trkpt>
      <trkpt lat="45.70677" lon="6.61124">
        <ele>1028</ele>
        <time>2022-07-16T18:11:15.086Z</time>
      </trkpt>
      <trkpt lat="45.70673" lon="6.61107">
        <ele>1028</ele>
        <time>2022-07-16T18:11:16.844Z</time>
      </trkpt>
      <trkpt lat="45.70674" lon="6.61088">
        <ele>1027</ele>
        <time>2022-07-16T18:11:17.877Z</time>
      </trkpt>
      <trkpt lat="45.707" lon="6.6096">
        <ele>1019</ele>
        <time>2022-07-16T18:11:25.110Z</time>
      </trkpt>
      <trkpt lat="45.7071" lon="6.60931">
        <ele>1018</ele>
        <time>2022-07-16T18:11:27.046Z</time>
      </trkpt>
      <trkpt lat="45.70727" lon="6.60902">
        <ele>1014</ele>
        <time>2022-07-16T18:11:29.100Z</time>
      </trkpt>
      <trkpt lat="45.70734" lon="6.60885">
        <ele>1011</ele>
        <time>2022-07-16T18:11:30.171Z</time>
      </trkpt>
      <trkpt lat="45.70736" lon="6.60873">
        <ele>1011</ele>
        <time>2022-07-16T18:11:31.380Z</time>
      </trkpt>
      <trkpt lat="45.70734" lon="6.60846">
        <ele>1011</ele>
        <time>2022-07-16T18:11:34.039Z</time>
      </trkpt>
      <trkpt lat="45.70714" lon="6.60781">
        <ele>1024</ele>
        <time>2022-07-16T18:12:00.877Z</time>
      </trkpt>
      <trkpt lat="45.70701" lon="6.60727">
        <ele>1038</ele>
        <time>2022-07-16T18:12:22.459Z</time>
      </trkpt>
      <trkpt lat="45.707" lon="6.60697">
        <ele>1040</ele>
        <time>2022-07-16T18:12:29.779Z</time>
      </trkpt>
      <trkpt lat="45.70704" lon="6.60661">
        <ele>1037</ele>
        <time>2022-07-16T18:12:31.757Z</time>
      </trkpt>
      <trkpt lat="45.70714" lon="6.60631">
        <ele>1022</ele>
        <time>2022-07-16T18:12:33.560Z</time>
      </trkpt>
      <trkpt lat="45.7073" lon="6.60594">
        <ele>997</ele>
        <time>2022-07-16T18:12:35.921Z</time>
      </trkpt>
      <trkpt lat="45.70732" lon="6.6058">
        <ele>993</ele>
        <time>2022-07-16T18:12:36.697Z</time>
      </trkpt>
      <trkpt lat="45.70732" lon="6.6053">
        <ele>993</ele>
        <time>2022-07-16T18:12:41.595Z</time>
      </trkpt>
      <trkpt lat="45.70752" lon="6.605">
        <ele>968</ele>
        <time>2022-07-16T18:12:43.845Z</time>
      </trkpt>
      <trkpt lat="45.70754" lon="6.60482">
        <ele>966</ele>
        <time>2022-07-16T18:12:44.834Z</time>
      </trkpt>
      <trkpt lat="45.70745" lon="6.60416">
        <ele>964</ele>
        <time>2022-07-16T18:12:48.922Z</time>
      </trkpt>
      <trkpt lat="45.70728" lon="6.60325">
        <ele>961</ele>
        <time>2022-07-16T18:12:54.494Z</time>
      </trkpt>
      <trkpt lat="45.70722" lon="6.60304">
        <ele>959</ele>
        <time>2022-07-16T18:12:55.725Z</time>
      </trkpt>
      <trkpt lat="45.70683" lon="6.60209">
        <ele>954</ele>
        <time>2022-07-16T18:13:01.273Z</time>
      </trkpt>
      <trkpt lat="45.70661" lon="6.60124">
        <ele>950</ele>
        <time>2022-07-16T18:13:05.901Z</time>
      </trkpt>
      <trkpt lat="45.70657" lon="6.601">
        <ele>949</ele>
        <time>2022-07-16T18:13:07.213Z</time>
      </trkpt>
      <trkpt lat="45.70656" lon="6.60075">
        <ele>946</ele>
        <time>2022-07-16T18:13:08.572Z</time>
      </trkpt>
      <trkpt lat="45.70667" lon="6.59963">
        <ele>935</ele>
        <time>2022-07-16T18:13:14.708Z</time>
      </trkpt>
      <trkpt lat="45.70675" lon="6.59913">
        <ele>931</ele>
        <time>2022-07-16T18:13:17.492Z</time>
      </trkpt>
      <trkpt lat="45.70693" lon="6.59832">
        <ele>920</ele>
        <time>2022-07-16T18:13:22.103Z</time>
      </trkpt>
      <trkpt lat="45.70702" lon="6.59774">
        <ele>914</ele>
        <time>2022-07-16T18:13:25.327Z</time>
      </trkpt>
      <trkpt lat="45.70706" lon="6.59713">
        <ele>910</ele>
        <time>2022-07-16T18:13:28.651Z</time>
      </trkpt>
      <trkpt lat="45.70702" lon="6.59561">
        <ele>905</ele>
        <time>2022-07-16T18:13:37.530Z</time>
      </trkpt>
      <trkpt lat="45.70713" lon="6.59387">
        <ele>894</ele>
        <time>2022-07-16T18:13:47.009Z</time>
      </trkpt>
      <trkpt lat="45.70718" lon="6.59365">
        <ele>892</ele>
        <time>2022-07-16T18:13:48.265Z</time>
      </trkpt>
      <trkpt lat="45.70763" lon="6.59273">
        <ele>881</ele>
        <time>2022-07-16T18:13:54.359Z</time>
      </trkpt>
      <trkpt lat="45.70777" lon="6.59214">
        <ele>881</ele>
        <time>2022-07-16T18:14:00.463Z</time>
      </trkpt>
      <trkpt lat="45.70785" lon="6.59196">
        <ele>880</ele>
        <time>2022-07-16T18:14:01.620Z</time>
      </trkpt>
      <trkpt lat="45.70793" lon="6.59186">
        <ele>879</ele>
        <time>2022-07-16T18:14:02.445Z</time>
      </trkpt>
      <trkpt lat="45.70809" lon="6.59175">
        <ele>875</ele>
        <time>2022-07-16T18:14:03.824Z</time>
      </trkpt>
      <trkpt lat="45.70847" lon="6.59166">
        <ele>866</ele>
        <time>2022-07-16T18:14:06.817Z</time>
      </trkpt>
      <trkpt lat="45.70858" lon="6.59159">
        <ele>866</ele>
        <time>2022-07-16T18:14:08.505Z</time>
      </trkpt>
      <trkpt lat="45.70871" lon="6.59142">
        <ele>868</ele>
        <time>2022-07-16T18:14:15.909Z</time>
      </trkpt>
      <trkpt lat="45.70947" lon="6.59015">
        <ele>886</ele>
        <time>2022-07-16T18:15:19.102Z</time>
      </trkpt>
      <trkpt lat="45.70962" lon="6.58994">
        <ele>883</ele>
        <time>2022-07-16T18:15:20.732Z</time>
      </trkpt>
      <trkpt lat="45.70998" lon="6.58955">
        <ele>868</ele>
        <time>2022-07-16T18:15:24.239Z</time>
      </trkpt>
      <trkpt lat="45.71014" lon="6.58934">
        <ele>869</ele>
        <time>2022-07-16T18:15:29.429Z</time>
      </trkpt>
      <trkpt lat="45.71017" lon="6.58932">
        <ele>868</ele>
        <time>2022-07-16T18:15:29.686Z</time>
      </trkpt>
      <trkpt lat="45.71025" lon="6.58934">
        <ele>866</ele>
        <time>2022-07-16T18:15:30.317Z</time>
      </trkpt>
      <trkpt lat="45.71027" lon="6.58938">
        <ele>866</ele>
        <time>2022-07-16T18:15:30.799Z</time>
      </trkpt>
      <trkpt lat="45.71026" lon="6.58956">
        <ele>863</ele>
        <time>2022-07-16T18:15:31.779Z</time>
      </trkpt>
      <trkpt lat="45.71015" lon="6.58979">
        <ele>861</ele>
        <time>2022-07-16T18:15:33.291Z</time>
      </trkpt>
      <trkpt lat="45.7099" lon="6.58997">
        <ele>864</ele>
        <time>2022-07-16T18:15:44.270Z</time>
      </trkpt>
      <trkpt lat="45.70987" lon="6.5901">
        <ele>864</ele>
        <time>2022-07-16T18:15:45.611Z</time>
      </trkpt>
      <trkpt lat="45.70991" lon="6.59018">
        <ele>861</ele>
        <time>2022-07-16T18:15:46.145Z</time>
      </trkpt>
      <trkpt lat="45.70995" lon="6.59019">
        <ele>859</ele>
        <time>2022-07-16T18:15:46.461Z</time>
      </trkpt>
      <trkpt lat="45.71008" lon="6.59016">
        <ele>857</ele>
        <time>2022-07-16T18:15:47.484Z</time>
      </trkpt>
      <trkpt lat="45.7103" lon="6.59002">
        <ele>858</ele>
        <time>2022-07-16T18:15:52.935Z</time>
      </trkpt>
      <trkpt lat="45.71091" lon="6.58949">
        <ele>860</ele>
        <time>2022-07-16T18:16:06.401Z</time>
      </trkpt>
      <trkpt lat="45.711" lon="6.58938">
        <ele>863</ele>
        <time>2022-07-16T18:16:12.803Z</time>
      </trkpt>
      <trkpt lat="45.71108" lon="6.58919">
        <ele>864</ele>
        <time>2022-07-16T18:16:17.003Z</time>
      </trkpt>
      <trkpt lat="45.7112" lon="6.58871">
        <ele>863</ele>
        <time>2022-07-16T18:16:20.584Z</time>
      </trkpt>
      <trkpt lat="45.71144" lon="6.58744">
        <ele>866</ele>
        <time>2022-07-16T18:16:38.971Z</time>
      </trkpt>
      <trkpt lat="45.71168" lon="6.5868">
        <ele>879</ele>
        <time>2022-07-16T18:17:06.417Z</time>
      </trkpt>
      <trkpt lat="45.71175" lon="6.58651">
        <ele>899</ele>
        <time>2022-07-16T18:17:18.010Z</time>
      </trkpt>
      <trkpt lat="45.71193" lon="6.58431">
        <ele>962</ele>
        <time>2022-07-16T18:18:41.696Z</time>
      </trkpt>
      <trkpt lat="45.71199" lon="6.58412">
        <ele>954</ele>
        <time>2022-07-16T18:18:42.828Z</time>
      </trkpt>
      <trkpt lat="45.71258" lon="6.58303">
        <ele>857</ele>
        <time>2022-07-16T18:18:50.310Z</time>
      </trkpt>
      <trkpt lat="45.71294" lon="6.58213">
        <ele>835</ele>
        <time>2022-07-16T18:18:55.937Z</time>
      </trkpt>
      <trkpt lat="45.71298" lon="6.58193">
        <ele>832</ele>
        <time>2022-07-16T18:18:57.065Z</time>
      </trkpt>
      <trkpt lat="45.71302" lon="6.58136">
        <ele>829</ele>
        <time>2022-07-16T18:19:00.173Z</time>
      </trkpt>
      <trkpt lat="45.71314" lon="6.58088">
        <ele>827</ele>
        <time>2022-07-16T18:19:02.926Z</time>
      </trkpt>
      <trkpt lat="45.71319" lon="6.58056">
        <ele>820</ele>
        <time>2022-07-16T18:19:04.705Z</time>
      </trkpt>
      <trkpt lat="45.7132" lon="6.57986">
        <ele>813</ele>
        <time>2022-07-16T18:19:08.503Z</time>
      </trkpt>
      <trkpt lat="45.71323" lon="6.57964">
        <ele>811</ele>
        <time>2022-07-16T18:19:09.719Z</time>
      </trkpt>
      <trkpt lat="45.71339" lon="6.57934">
        <ele>800</ele>
        <time>2022-07-16T18:19:11.767Z</time>
      </trkpt>
      <trkpt lat="45.71395" lon="6.57864">
        <ele>794</ele>
        <time>2022-07-16T18:19:17.542Z</time>
      </trkpt>
      <trkpt lat="45.7141" lon="6.57841">
        <ele>787</ele>
        <time>2022-07-16T18:19:19.249Z</time>
      </trkpt>
      <trkpt lat="45.71422" lon="6.57809">
        <ele>783</ele>
        <time>2022-07-16T18:19:21.220Z</time>
      </trkpt>
      <trkpt lat="45.71425" lon="6.5779">
        <ele>781</ele>
        <time>2022-07-16T18:19:22.276Z</time>
      </trkpt>
      <trkpt lat="45.71435" lon="6.57779">
        <ele>782</ele>
        <time>2022-07-16T18:19:26.104Z</time>
      </trkpt>
      <trkpt lat="45.71448" lon="6.57719">
        <ele>776</ele>
        <time>2022-07-16T18:19:29.512Z</time>
      </trkpt>
      <trkpt lat="45.71454" lon="6.57704">
        <ele>774</ele>
        <time>2022-07-16T18:19:30.450Z</time>
      </trkpt>
      <trkpt lat="45.7146" lon="6.577">
        <ele>774</ele>
        <time>2022-07-16T18:19:31.378Z</time>
      </trkpt>
      <trkpt lat="45.71469" lon="6.57701">
        <ele>774</ele>
        <time>2022-07-16T18:19:32.645Z</time>
      </trkpt>
      <trkpt lat="45.71512" lon="6.57717">
        <ele>780</ele>
        <time>2022-07-16T18:19:56.683Z</time>
      </trkpt>
      <trkpt lat="45.71522" lon="6.57723">
        <ele>782</ele>
        <time>2022-07-16T18:20:02.549Z</time>
      </trkpt>
      <trkpt lat="45.71531" lon="6.57724">
        <ele>782</ele>
        <time>2022-07-16T18:20:03.815Z</time>
      </trkpt>
      <trkpt lat="45.71543" lon="6.57721">
        <ele>781</ele>
        <time>2022-07-16T18:20:04.762Z</time>
      </trkpt>
      <trkpt lat="45.71587" lon="6.577">
        <ele>776</ele>
        <time>2022-07-16T18:20:08.365Z</time>
      </trkpt>
      <trkpt lat="45.71607" lon="6.57698">
        <ele>775</ele>
        <time>2022-07-16T18:20:10.000Z</time>
      </trkpt>
      <trkpt lat="45.71626" lon="6.57702">
        <ele>775</ele>
        <time>2022-07-16T18:20:12.694Z</time>
      </trkpt>
      <trkpt lat="45.71648" lon="6.57717">
        <ele>780</ele>
        <time>2022-07-16T18:20:25.877Z</time>
      </trkpt>
      <trkpt lat="45.71672" lon="6.57745">
        <ele>789</ele>
        <time>2022-07-16T18:20:42.626Z</time>
      </trkpt>
      <trkpt lat="45.71693" lon="6.57764">
        <ele>796</ele>
        <time>2022-07-16T18:20:56.066Z</time>
      </trkpt>
      <trkpt lat="45.71698" lon="6.5778">
        <ele>802</ele>
        <time>2022-07-16T18:21:02.688Z</time>
      </trkpt>
      <trkpt lat="45.71696" lon="6.57789">
        <ele>805</ele>
        <time>2022-07-16T18:21:06.256Z</time>
      </trkpt>
      <trkpt lat="45.71692" lon="6.57792">
        <ele>806</ele>
        <time>2022-07-16T18:21:08.699Z</time>
      </trkpt>
      <trkpt lat="45.71684" lon="6.57792">
        <ele>806</ele>
        <time>2022-07-16T18:21:09.821Z</time>
      </trkpt>
      <trkpt lat="45.71649" lon="6.57767">
        <ele>796</ele>
        <time>2022-07-16T18:21:12.860Z</time>
      </trkpt>
      <trkpt lat="45.71638" lon="6.57766">
        <ele>796</ele>
        <time>2022-07-16T18:21:14.406Z</time>
      </trkpt>
      <trkpt lat="45.71625" lon="6.5777">
        <ele>797</ele>
        <time>2022-07-16T18:21:18.313Z</time>
      </trkpt>
      <trkpt lat="45.71605" lon="6.57792">
        <ele>803</ele>
        <time>2022-07-16T18:21:31.957Z</time>
      </trkpt>
      <trkpt lat="45.71586" lon="6.57828">
        <ele>814</ele>
        <time>2022-07-16T18:21:49.006Z</time>
      </trkpt>
      <trkpt lat="45.71572" lon="6.57844">
        <ele>816</ele>
        <time>2022-07-16T18:21:56.377Z</time>
      </trkpt>
      <trkpt lat="45.71561" lon="6.5785">
        <ele>817</ele>
        <time>2022-07-16T18:22:00.122Z</time>
      </trkpt>
      <trkpt lat="45.71543" lon="6.57855">
        <ele>817</ele>
        <time>2022-07-16T18:22:02.694Z</time>
      </trkpt>
      <trkpt lat="45.71502" lon="6.57856">
        <ele>815</ele>
        <time>2022-07-16T18:22:06.070Z</time>
      </trkpt>
      <trkpt lat="45.71494" lon="6.5786">
        <ele>814</ele>
        <time>2022-07-16T18:22:06.729Z</time>
      </trkpt>
      <trkpt lat="45.71489" lon="6.57867">
        <ele>813</ele>
        <time>2022-07-16T18:22:07.272Z</time>
      </trkpt>
      <trkpt lat="45.71491" lon="6.57882">
        <ele>817</ele>
        <time>2022-07-16T18:22:13.041Z</time>
      </trkpt>
      <trkpt lat="45.71503" lon="6.57891">
        <ele>821</ele>
        <time>2022-07-16T18:22:20.370Z</time>
      </trkpt>
      <trkpt lat="45.71544" lon="6.57906">
        <ele>825</ele>
        <time>2022-07-16T18:22:35.025Z</time>
      </trkpt>
      <trkpt lat="45.7156" lon="6.5791">
        <ele>826</ele>
        <time>2022-07-16T18:22:39.336Z</time>
      </trkpt>
      <trkpt lat="45.71574" lon="6.57907">
        <ele>826</ele>
        <time>2022-07-16T18:22:41.322Z</time>
      </trkpt>
      <trkpt lat="45.71594" lon="6.57898">
        <ele>827</ele>
        <time>2022-07-16T18:22:46.387Z</time>
      </trkpt>
      <trkpt lat="45.71606" lon="6.57887">
        <ele>826</ele>
        <time>2022-07-16T18:22:47.494Z</time>
      </trkpt>
      <trkpt lat="45.71635" lon="6.57844">
        <ele>822</ele>
        <time>2022-07-16T18:22:50.737Z</time>
      </trkpt>
      <trkpt lat="45.71641" lon="6.5784">
        <ele>822</ele>
        <time>2022-07-16T18:22:51.666Z</time>
      </trkpt>
      <trkpt lat="45.71651" lon="6.57841">
        <ele>823</ele>
        <time>2022-07-16T18:22:55.314Z</time>
      </trkpt>
      <trkpt lat="45.71656" lon="6.57844">
        <ele>824</ele>
        <time>2022-07-16T18:22:58.247Z</time>
      </trkpt>
      <trkpt lat="45.71697" lon="6.57892">
        <ele>832</ele>
        <time>2022-07-16T18:23:26.899Z</time>
      </trkpt>
      <trkpt lat="45.71712" lon="6.57918">
        <ele>836</ele>
        <time>2022-07-16T18:23:39.640Z</time>
      </trkpt>
      <trkpt lat="45.71753" lon="6.58004">
        <ele>845</ele>
        <time>2022-07-16T18:24:14.164Z</time>
      </trkpt>
      <trkpt lat="45.71764" lon="6.58016">
        <ele>848</ele>
        <time>2022-07-16T18:24:21.646Z</time>
      </trkpt>
      <trkpt lat="45.71772" lon="6.58019">
        <ele>849</ele>
        <time>2022-07-16T18:24:25.435Z</time>
      </trkpt>
      <trkpt lat="45.71825" lon="6.58008">
        <ele>851</ele>
        <time>2022-07-16T18:24:36.853Z</time>
      </trkpt>
      <trkpt lat="45.71866" lon="6.58005">
        <ele>853</ele>
        <time>2022-07-16T18:24:46.839Z</time>
      </trkpt>
      <trkpt lat="45.71998" lon="6.58025">
        <ele>865</ele>
        <time>2022-07-16T18:25:31.119Z</time>
      </trkpt>
      <trkpt lat="45.72012" lon="6.5802">
        <ele>867</ele>
        <time>2022-07-16T18:25:38.926Z</time>
      </trkpt>
      <trkpt lat="45.72044" lon="6.57998">
        <ele>870</ele>
        <time>2022-07-16T18:25:50.177Z</time>
      </trkpt>
      <trkpt lat="45.72077" lon="6.5799">
        <ele>874</ele>
        <time>2022-07-16T18:26:05.253Z</time>
      </trkpt>
      <trkpt lat="45.72111" lon="6.5799">
        <ele>879</ele>
        <time>2022-07-16T18:26:23.649Z</time>
      </trkpt>
      <trkpt lat="45.72123" lon="6.57996">
        <ele>882</ele>
        <time>2022-07-16T18:26:30.526Z</time>
      </trkpt>
      <trkpt lat="45.72131" lon="6.57996">
        <ele>883</ele>
        <time>2022-07-16T18:26:34.384Z</time>
      </trkpt>
      <trkpt lat="45.72141" lon="6.57987">
        <ele>884</ele>
        <time>2022-07-16T18:26:38.133Z</time>
      </trkpt>
      <trkpt lat="45.72156" lon="6.57956">
        <ele>882</ele>
        <time>2022-07-16T18:26:40.178Z</time>
      </trkpt>
      <trkpt lat="45.72165" lon="6.57946">
        <ele>883</ele>
        <time>2022-07-16T18:26:43.892Z</time>
      </trkpt>
      <trkpt lat="45.7222" lon="6.57911">
        <ele>888</ele>
        <time>2022-07-16T18:27:02.739Z</time>
      </trkpt>
      <trkpt lat="45.72242" lon="6.57903">
        <ele>891</ele>
        <time>2022-07-16T18:27:14.799Z</time>
      </trkpt>
      <trkpt lat="45.72278" lon="6.57901">
        <ele>896</ele>
        <time>2022-07-16T18:27:34.292Z</time>
      </trkpt>
      <trkpt lat="45.7231" lon="6.57886">
        <ele>898</ele>
        <time>2022-07-16T18:27:43.093Z</time>
      </trkpt>
      <trkpt lat="45.72354" lon="6.57872">
        <ele>901</ele>
        <time>2022-07-16T18:27:55.494Z</time>
      </trkpt>
      <trkpt lat="45.72388" lon="6.57854">
        <ele>900</ele>
        <time>2022-07-16T18:27:59.160Z</time>
      </trkpt>
      <trkpt lat="45.72398" lon="6.57854">
        <ele>901</ele>
        <time>2022-07-16T18:28:02.808Z</time>
      </trkpt>
      <trkpt lat="45.72409" lon="6.57858">
        <ele>903</ele>
        <time>2022-07-16T18:28:08.948Z</time>
      </trkpt>
      <trkpt lat="45.72454" lon="6.57882">
        <ele>913</ele>
        <time>2022-07-16T18:28:34.929Z</time>
      </trkpt>
      <trkpt lat="45.72465" lon="6.57901">
        <ele>917</ele>
        <time>2022-07-16T18:28:44.252Z</time>
      </trkpt>
      <trkpt lat="45.72476" lon="6.57933">
        <ele>924</ele>
        <time>2022-07-16T18:28:57.725Z</time>
      </trkpt>
      <trkpt lat="45.72486" lon="6.57943">
        <ele>926</ele>
        <time>2022-07-16T18:29:04.324Z</time>
      </trkpt>
      <trkpt lat="45.72502" lon="6.57948">
        <ele>929</ele>
        <time>2022-07-16T18:29:13.185Z</time>
      </trkpt>
      <trkpt lat="45.72525" lon="6.57939">
        <ele>932</ele>
        <time>2022-07-16T18:29:24.807Z</time>
      </trkpt>
      <trkpt lat="45.7256" lon="6.57918">
        <ele>934</ele>
        <time>2022-07-16T18:29:34.282Z</time>
      </trkpt>
      <trkpt lat="45.72575" lon="6.579">
        <ele>935</ele>
        <time>2022-07-16T18:29:39.117Z</time>
      </trkpt>
      <trkpt lat="45.72577" lon="6.57893">
        <ele>935</ele>
        <time>2022-07-16T18:29:39.858Z</time>
      </trkpt>
      <trkpt lat="45.72578" lon="6.57864">
        <ele>934</ele>
        <time>2022-07-16T18:29:41.519Z</time>
      </trkpt>
      <trkpt lat="45.72576" lon="6.57845">
        <ele>932</ele>
        <time>2022-07-16T18:29:42.561Z</time>
      </trkpt>
      <trkpt lat="45.72578" lon="6.5782">
        <ele>932</ele>
        <time>2022-07-16T18:29:45.025Z</time>
      </trkpt>
      <trkpt lat="45.72612" lon="6.57681">
        <ele>943</ele>
        <time>2022-07-16T18:30:25.271Z</time>
      </trkpt>
      <trkpt lat="45.7262" lon="6.57636">
        <ele>945</ele>
        <time>2022-07-16T18:30:33.882Z</time>
      </trkpt>
      <trkpt lat="45.72616" lon="6.57568">
        <ele>944</ele>
        <time>2022-07-16T18:30:39.068Z</time>
      </trkpt>
      <trkpt lat="45.72607" lon="6.57511">
        <ele>944</ele>
        <time>2022-07-16T18:30:44.791Z</time>
      </trkpt>
      <trkpt lat="45.72607" lon="6.57491">
        <ele>944</ele>
        <time>2022-07-16T18:30:46.750Z</time>
      </trkpt>
      <trkpt lat="45.72614" lon="6.57434">
        <ele>941</ele>
        <time>2022-07-16T18:30:49.889Z</time>
      </trkpt>
      <trkpt lat="45.72622" lon="6.57419">
        <ele>941</ele>
        <time>2022-07-16T18:30:51.737Z</time>
      </trkpt>
      <trkpt lat="45.72687" lon="6.57392">
        <ele>941</ele>
        <time>2022-07-16T18:31:01.231Z</time>
      </trkpt>
      <trkpt lat="45.72702" lon="6.57388">
        <ele>941</ele>
        <time>2022-07-16T18:31:03.371Z</time>
      </trkpt>
      <trkpt lat="45.72772" lon="6.57397">
        <ele>950</ele>
        <time>2022-07-16T18:31:38.655Z</time>
      </trkpt>
      <trkpt lat="45.72785" lon="6.57395">
        <ele>951</ele>
        <time>2022-07-16T18:31:42.536Z</time>
      </trkpt>
      <trkpt lat="45.72797" lon="6.57391">
        <ele>950</ele>
        <time>2022-07-16T18:31:43.493Z</time>
      </trkpt>
      <trkpt lat="45.72826" lon="6.57374">
        <ele>947</ele>
        <time>2022-07-16T18:31:45.927Z</time>
      </trkpt>
      <trkpt lat="45.72846" lon="6.57368">
        <ele>946</ele>
        <time>2022-07-16T18:31:47.608Z</time>
      </trkpt>
      <trkpt lat="45.72901" lon="6.57376">
        <ele>948</ele>
        <time>2022-07-16T18:31:59.206Z</time>
      </trkpt>
      <trkpt lat="45.72931" lon="6.57386">
        <ele>954</ele>
        <time>2022-07-16T18:32:15.871Z</time>
      </trkpt>
      <trkpt lat="45.72957" lon="6.57387">
        <ele>959</ele>
        <time>2022-07-16T18:32:29.944Z</time>
      </trkpt>
      <trkpt lat="45.73007" lon="6.57368">
        <ele>962</ele>
        <time>2022-07-16T18:32:43.334Z</time>
      </trkpt>
      <trkpt lat="45.73058" lon="6.57338">
        <ele>963</ele>
        <time>2022-07-16T18:32:52.608Z</time>
      </trkpt>
      <trkpt lat="45.73089" lon="6.57324">
        <ele>965</ele>
        <time>2022-07-16T18:33:01.232Z</time>
      </trkpt>
      <trkpt lat="45.73136" lon="6.57305">
        <ele>965</ele>
        <time>2022-07-16T18:33:08.083Z</time>
      </trkpt>
      <trkpt lat="45.73163" lon="6.57297">
        <ele>966</ele>
        <time>2022-07-16T18:33:13.875Z</time>
      </trkpt>
      <trkpt lat="45.7318" lon="6.57293">
        <ele>965</ele>
        <time>2022-07-16T18:33:15.187Z</time>
      </trkpt>
      <trkpt lat="45.73216" lon="6.57293">
        <ele>967</ele>
        <time>2022-07-16T18:33:24.350Z</time>
      </trkpt>
      <trkpt lat="45.73234" lon="6.57296">
        <ele>969</ele>
        <time>2022-07-16T18:33:31.704Z</time>
      </trkpt>
      <trkpt lat="45.73255" lon="6.57303">
        <ele>971</ele>
        <time>2022-07-16T18:33:39.050Z</time>
      </trkpt>
      <trkpt lat="45.73293" lon="6.57326">
        <ele>970</ele>
        <time>2022-07-16T18:33:43.378Z</time>
      </trkpt>
      <trkpt lat="45.73322" lon="6.57349">
        <ele>970</ele>
        <time>2022-07-16T18:33:48.028Z</time>
      </trkpt>
      <trkpt lat="45.73339" lon="6.57371">
        <ele>975</ele>
        <time>2022-07-16T18:34:00.423Z</time>
      </trkpt>
      <trkpt lat="45.73384" lon="6.57442">
        <ele>979</ele>
        <time>2022-07-16T18:34:17.963Z</time>
      </trkpt>
      <trkpt lat="45.73453" lon="6.57525">
        <ele>970</ele>
        <time>2022-07-16T18:34:24.963Z</time>
      </trkpt>
      <trkpt lat="45.73486" lon="6.57586">
        <ele>975</ele>
        <time>2022-07-16T18:34:43.328Z</time>
      </trkpt>
      <trkpt lat="45.73497" lon="6.57602">
        <ele>976</ele>
        <time>2022-07-16T18:34:47.555Z</time>
      </trkpt>
      <trkpt lat="45.73571" lon="6.57694">
        <ele>988</ele>
        <time>2022-07-16T18:35:33.320Z</time>
      </trkpt>
      <trkpt lat="45.73596" lon="6.57709">
        <ele>989</ele>
        <time>2022-07-16T18:35:39.063Z</time>
      </trkpt>
      <trkpt lat="45.73632" lon="6.57717">
        <ele>989</ele>
        <time>2022-07-16T18:35:44.174Z</time>
      </trkpt>
      <trkpt lat="45.73715" lon="6.57746">
        <ele>992</ele>
        <time>2022-07-16T18:36:01.840Z</time>
      </trkpt>
      <trkpt lat="45.73767" lon="6.57782">
        <ele>995</ele>
        <time>2022-07-16T18:36:16.189Z</time>
      </trkpt>
      <trkpt lat="45.73809" lon="6.57827">
        <ele>999</ele>
        <time>2022-07-16T18:36:31.727Z</time>
      </trkpt>
      <trkpt lat="45.73867" lon="6.57906">
        <ele>999</ele>
        <time>2022-07-16T18:36:42.953Z</time>
      </trkpt>
      <trkpt lat="45.73885" lon="6.5794">
        <ele>1002</ele>
        <time>2022-07-16T18:36:53.895Z</time>
      </trkpt>
      <trkpt lat="45.73894" lon="6.57971">
        <ele>1007</ele>
        <time>2022-07-16T18:37:06.574Z</time>
      </trkpt>
      <trkpt lat="45.73897" lon="6.58012">
        <ele>1016</ele>
        <time>2022-07-16T18:37:22.141Z</time>
      </trkpt>
      <trkpt lat="45.73906" lon="6.58037">
        <ele>1018</ele>
        <time>2022-07-16T18:37:29.436Z</time>
      </trkpt>
      <trkpt lat="45.73922" lon="6.58052">
        <ele>1015</ele>
        <time>2022-07-16T18:37:30.921Z</time>
      </trkpt>
      <trkpt lat="45.7396" lon="6.58073">
        <ele>1007</ele>
        <time>2022-07-16T18:37:34.086Z</time>
      </trkpt>
      <trkpt lat="45.7397" lon="6.58086">
        <ele>1008</ele>
        <time>2022-07-16T18:37:38.017Z</time>
      </trkpt>
      <trkpt lat="45.73976" lon="6.58101">
        <ele>1009</ele>
        <time>2022-07-16T18:37:41.790Z</time>
      </trkpt>
      <trkpt lat="45.73979" lon="6.58124">
        <ele>1012</ele>
        <time>2022-07-16T18:37:50.625Z</time>
      </trkpt>
      <trkpt lat="45.73978" lon="6.58172">
        <ele>1022</ele>
        <time>2022-07-16T18:38:08.759Z</time>
      </trkpt>
      <trkpt lat="45.73983" lon="6.58191">
        <ele>1025</ele>
        <time>2022-07-16T18:38:16.427Z</time>
      </trkpt>
      <trkpt lat="45.74033" lon="6.58275">
        <ele>1030</ele>
        <time>2022-07-16T18:38:37.369Z</time>
      </trkpt>
      <trkpt lat="45.74047" lon="6.58286">
        <ele>1029</ele>
        <time>2022-07-16T18:38:38.542Z</time>
      </trkpt>
      <trkpt lat="45.74076" lon="6.58287">
        <ele>1022</ele>
        <time>2022-07-16T18:38:40.796Z</time>
      </trkpt>
      <trkpt lat="45.74128" lon="6.58303">
        <ele>1017</ele>
        <time>2022-07-16T18:38:44.928Z</time>
      </trkpt>
      <trkpt lat="45.74143" lon="6.58304">
        <ele>1015</ele>
        <time>2022-07-16T18:38:46.094Z</time>
      </trkpt>
      <trkpt lat="45.74161" lon="6.58301">
        <ele>1010</ele>
        <time>2022-07-16T18:38:47.502Z</time>
      </trkpt>
      <trkpt lat="45.74177" lon="6.58303">
        <ele>1009</ele>
        <time>2022-07-16T18:38:48.685Z</time>
      </trkpt>
      <trkpt lat="45.74213" lon="6.5833">
        <ele>1016</ele>
        <time>2022-07-16T18:39:10.670Z</time>
      </trkpt>
      <trkpt lat="45.74237" lon="6.5834">
        <ele>1016</ele>
        <time>2022-07-16T18:39:14.176Z</time>
      </trkpt>
      <trkpt lat="45.7426" lon="6.58356">
        <ele>1016</ele>
        <time>2022-07-16T18:39:17.763Z</time>
      </trkpt>
      <trkpt lat="45.74266" lon="6.58368">
        <ele>1018</ele>
        <time>2022-07-16T18:39:23.337Z</time>
      </trkpt>
      <trkpt lat="45.74269" lon="6.58381">
        <ele>1020</ele>
        <time>2022-07-16T18:39:28.507Z</time>
      </trkpt>
      <trkpt lat="45.74269" lon="6.58413">
        <ele>1029</ele>
        <time>2022-07-16T18:39:40.590Z</time>
      </trkpt>
      <trkpt lat="45.74251" lon="6.58509">
        <ele>1056</ele>
        <time>2022-07-16T18:40:18.125Z</time>
      </trkpt>
      <trkpt lat="45.74251" lon="6.58522">
        <ele>1059</ele>
        <time>2022-07-16T18:40:23.034Z</time>
      </trkpt>
      <trkpt lat="45.74257" lon="6.58536">
        <ele>1062</ele>
        <time>2022-07-16T18:40:29.238Z</time>
      </trkpt>
      <trkpt lat="45.74265" lon="6.58541">
        <ele>1061</ele>
        <time>2022-07-16T18:40:29.916Z</time>
      </trkpt>
      <trkpt lat="45.7427" lon="6.58542">
        <ele>1061</ele>
        <time>2022-07-16T18:40:30.624Z</time>
      </trkpt>
      <trkpt lat="45.74274" lon="6.5854">
        <ele>1059</ele>
        <time>2022-07-16T18:40:30.953Z</time>
      </trkpt>
      <trkpt lat="45.74285" lon="6.5853">
        <ele>1054</ele>
        <time>2022-07-16T18:40:31.965Z</time>
      </trkpt>
      <trkpt lat="45.74305" lon="6.58498">
        <ele>1041</ele>
        <time>2022-07-16T18:40:34.295Z</time>
      </trkpt>
      <trkpt lat="45.74313" lon="6.58491">
        <ele>1037</ele>
        <time>2022-07-16T18:40:35.023Z</time>
      </trkpt>
      <trkpt lat="45.74328" lon="6.58484">
        <ele>1032</ele>
        <time>2022-07-16T18:40:36.249Z</time>
      </trkpt>
      <trkpt lat="45.74339" lon="6.58484">
        <ele>1030</ele>
        <time>2022-07-16T18:40:37.103Z</time>
      </trkpt>
      <trkpt lat="45.74384" lon="6.58493">
        <ele>1026</ele>
        <time>2022-07-16T18:40:40.633Z</time>
      </trkpt>
      <trkpt lat="45.744" lon="6.58497">
        <ele>1025</ele>
        <time>2022-07-16T18:40:41.836Z</time>
      </trkpt>
      <trkpt lat="45.74407" lon="6.58503">
        <ele>1026</ele>
        <time>2022-07-16T18:40:45.651Z</time>
      </trkpt>
      <trkpt lat="45.74414" lon="6.58524">
        <ele>1029</ele>
        <time>2022-07-16T18:40:54.439Z</time>
      </trkpt>
      <trkpt lat="45.74415" lon="6.58544">
        <ele>1033</ele>
        <time>2022-07-16T18:41:02.010Z</time>
      </trkpt>
      <trkpt lat="45.74423" lon="6.58573">
        <ele>1036</ele>
        <time>2022-07-16T18:41:13.785Z</time>
      </trkpt>
      <trkpt lat="45.7443" lon="6.5858">
        <ele>1036</ele>
        <time>2022-07-16T18:41:14.982Z</time>
      </trkpt>
      <trkpt lat="45.7444" lon="6.58585">
        <ele>1034</ele>
        <time>2022-07-16T18:41:15.805Z</time>
      </trkpt>
      <trkpt lat="45.74469" lon="6.58589">
        <ele>1028</ele>
        <time>2022-07-16T18:41:18.068Z</time>
      </trkpt>
      <trkpt lat="45.74476" lon="6.58596">
        <ele>1027</ele>
        <time>2022-07-16T18:41:18.732Z</time>
      </trkpt>
      <trkpt lat="45.74482" lon="6.58611">
        <ele>1028</ele>
        <time>2022-07-16T18:41:22.504Z</time>
      </trkpt>
      <trkpt lat="45.74486" lon="6.58676">
        <ele>1036</ele>
        <time>2022-07-16T18:41:47.142Z</time>
      </trkpt>
      <trkpt lat="45.74477" lon="6.58754">
        <ele>1052</ele>
        <time>2022-07-16T18:42:16.994Z</time>
      </trkpt>
      <trkpt lat="45.74467" lon="6.58797">
        <ele>1063</ele>
        <time>2022-07-16T18:42:34.108Z</time>
      </trkpt>
      <trkpt lat="45.7447" lon="6.58819">
        <ele>1065</ele>
        <time>2022-07-16T18:42:41.940Z</time>
      </trkpt>
      <trkpt lat="45.74483" lon="6.58829">
        <ele>1062</ele>
        <time>2022-07-16T18:42:43.086Z</time>
      </trkpt>
      <trkpt lat="45.74493" lon="6.58828">
        <ele>1058</ele>
        <time>2022-07-16T18:42:43.865Z</time>
      </trkpt>
      <trkpt lat="45.74509" lon="6.58817">
        <ele>1051</ele>
        <time>2022-07-16T18:42:45.244Z</time>
      </trkpt>
      <trkpt lat="45.7454" lon="6.58786">
        <ele>1038</ele>
        <time>2022-07-16T18:42:48.181Z</time>
      </trkpt>
      <trkpt lat="45.74549" lon="6.58785">
        <ele>1036</ele>
        <time>2022-07-16T18:42:48.882Z</time>
      </trkpt>
      <trkpt lat="45.74561" lon="6.58791">
        <ele>1034</ele>
        <time>2022-07-16T18:42:49.869Z</time>
      </trkpt>
      <trkpt lat="45.74576" lon="6.58804">
        <ele>1034</ele>
        <time>2022-07-16T18:42:52.328Z</time>
      </trkpt>
      <trkpt lat="45.74639" lon="6.58847">
        <ele>1036</ele>
        <time>2022-07-16T18:43:05.602Z</time>
      </trkpt>
      <trkpt lat="45.74671" lon="6.58874">
        <ele>1036</ele>
        <time>2022-07-16T18:43:10.811Z</time>
      </trkpt>
      <trkpt lat="45.74682" lon="6.58894">
        <ele>1037</ele>
        <time>2022-07-16T18:43:15.356Z</time>
      </trkpt>
      <trkpt lat="45.74684" lon="6.58909">
        <ele>1038</ele>
        <time>2022-07-16T18:43:19.024Z</time>
      </trkpt>
      <trkpt lat="45.74678" lon="6.58957">
        <ele>1049</ele>
        <time>2022-07-16T18:43:37.435Z</time>
      </trkpt>
      <trkpt lat="45.74678" lon="6.58965">
        <ele>1051</ele>
        <time>2022-07-16T18:43:40.456Z</time>
      </trkpt>
      <trkpt lat="45.74684" lon="6.58988">
        <ele>1053</ele>
        <time>2022-07-16T18:43:47.923Z</time>
      </trkpt>
      <trkpt lat="45.74687" lon="6.58993">
        <ele>1053</ele>
        <time>2022-07-16T18:43:48.569Z</time>
      </trkpt>
      <trkpt lat="45.74704" lon="6.59003">
        <ele>1049</ele>
        <time>2022-07-16T18:43:49.997Z</time>
      </trkpt>
      <trkpt lat="45.74714" lon="6.59012">
        <ele>1047</ele>
        <time>2022-07-16T18:43:50.914Z</time>
      </trkpt>
      <trkpt lat="45.74746" lon="6.59076">
        <ele>1048</ele>
        <time>2022-07-16T18:44:00.163Z</time>
      </trkpt>
      <trkpt lat="45.74773" lon="6.5911">
        <ele>1049</ele>
        <time>2022-07-16T18:44:06.929Z</time>
      </trkpt>
      <trkpt lat="45.74784" lon="6.59134">
        <ele>1051</ele>
        <time>2022-07-16T18:44:14.225Z</time>
      </trkpt>
      <trkpt lat="45.7479" lon="6.59183">
        <ele>1058</ele>
        <time>2022-07-16T18:44:33.009Z</time>
      </trkpt>
      <trkpt lat="45.74795" lon="6.59194">
        <ele>1060</ele>
        <time>2022-07-16T18:44:37.965Z</time>
      </trkpt>
      <trkpt lat="45.74802" lon="6.59202">
        <ele>1061</ele>
        <time>2022-07-16T18:44:41.651Z</time>
      </trkpt>
      <trkpt lat="45.74808" lon="6.59204">
        <ele>1060</ele>
        <time>2022-07-16T18:44:42.130Z</time>
      </trkpt>
      <trkpt lat="45.74822" lon="6.59197">
        <ele>1057</ele>
        <time>2022-07-16T18:44:43.282Z</time>
      </trkpt>
      <trkpt lat="45.74832" lon="6.59183">
        <ele>1053</ele>
        <time>2022-07-16T18:44:44.368Z</time>
      </trkpt>
      <trkpt lat="45.74849" lon="6.59145">
        <ele>1046</ele>
        <time>2022-07-16T18:44:46.815Z</time>
      </trkpt>
      <trkpt lat="45.74863" lon="6.59133">
        <ele>1044</ele>
        <time>2022-07-16T18:44:48.083Z</time>
      </trkpt>
      <trkpt lat="45.7496" lon="6.59114">
        <ele>1041</ele>
        <time>2022-07-16T18:44:57.668Z</time>
      </trkpt>
      <trkpt lat="45.74978" lon="6.59119">
        <ele>1041</ele>
        <time>2022-07-16T18:45:00.240Z</time>
      </trkpt>
      <trkpt lat="45.75005" lon="6.59141">
        <ele>1040</ele>
        <time>2022-07-16T18:45:03.233Z</time>
      </trkpt>
      <trkpt lat="45.75017" lon="6.59147">
        <ele>1040</ele>
        <time>2022-07-16T18:45:05.016Z</time>
      </trkpt>
      <trkpt lat="45.75034" lon="6.59146">
        <ele>1039</ele>
        <time>2022-07-16T18:45:06.304Z</time>
      </trkpt>
      <trkpt lat="45.75056" lon="6.5914">
        <ele>1038</ele>
        <time>2022-07-16T18:45:08.217Z</time>
      </trkpt>
      <trkpt lat="45.75069" lon="6.5914">
        <ele>1037</ele>
        <time>2022-07-16T18:45:09.227Z</time>
      </trkpt>
      <trkpt lat="45.7511" lon="6.5915">
        <ele>1040</ele>
        <time>2022-07-16T18:45:21.158Z</time>
      </trkpt>
      <trkpt lat="45.75124" lon="6.5916">
        <ele>1042</ele>
        <time>2022-07-16T18:45:28.990Z</time>
      </trkpt>
      <trkpt lat="45.75157" lon="6.59193">
        <ele>1046</ele>
        <time>2022-07-16T18:45:43.585Z</time>
      </trkpt>
      <trkpt lat="45.75166" lon="6.59206">
        <ele>1047</ele>
        <time>2022-07-16T18:45:47.431Z</time>
      </trkpt>
      <trkpt lat="45.75183" lon="6.59243">
        <ele>1048</ele>
        <time>2022-07-16T18:45:53.593Z</time>
      </trkpt>
      <trkpt lat="45.75196" lon="6.59249">
        <ele>1050</ele>
        <time>2022-07-16T18:46:00.983Z</time>
      </trkpt>
      <trkpt lat="45.752" lon="6.59247">
        <ele>1050</ele>
        <time>2022-07-16T18:46:01.577Z</time>
      </trkpt>
      <trkpt lat="45.75203" lon="6.59244">
        <ele>1051</ele>
        <time>2022-07-16T18:46:03.556Z</time>
      </trkpt>
      <trkpt lat="45.75205" lon="6.59229">
        <ele>1053</ele>
        <time>2022-07-16T18:46:09.322Z</time>
      </trkpt>
      <trkpt lat="45.75193" lon="6.59202">
        <ele>1053</ele>
        <time>2022-07-16T18:46:12.455Z</time>
      </trkpt>
      <trkpt lat="45.75185" lon="6.59171">
        <ele>1053</ele>
        <time>2022-07-16T18:46:15.690Z</time>
      </trkpt>
      <trkpt lat="45.75173" lon="6.59091">
        <ele>1060</ele>
        <time>2022-07-16T18:46:42.401Z</time>
      </trkpt>
      <trkpt lat="45.75163" lon="6.59059">
        <ele>1065</ele>
        <time>2022-07-16T18:46:55.638Z</time>
      </trkpt>
      <trkpt lat="45.7515" lon="6.59031">
        <ele>1069</ele>
        <time>2022-07-16T18:47:08.336Z</time>
      </trkpt>
      <trkpt lat="45.75123" lon="6.58997">
        <ele>1070</ele>
        <time>2022-07-16T18:47:15.102Z</time>
      </trkpt>
      <trkpt lat="45.75121" lon="6.58984">
        <ele>1072</ele>
        <time>2022-07-16T18:47:20.128Z</time>
      </trkpt>
      <trkpt lat="45.75123" lon="6.58981">
        <ele>1073</ele>
        <time>2022-07-16T18:47:21.694Z</time>
      </trkpt>
      <trkpt lat="45.7513" lon="6.5898">
        <ele>1076</ele>
        <time>2022-07-16T18:47:25.500Z</time>
      </trkpt>
      <trkpt lat="45.7517" lon="6.59019">
        <ele>1078</ele>
        <time>2022-07-16T18:47:36.423Z</time>
      </trkpt>
      <trkpt lat="45.75211" lon="6.59054">
        <ele>1081</ele>
        <time>2022-07-16T18:47:49.205Z</time>
      </trkpt>
      <trkpt lat="45.75233" lon="6.59079">
        <ele>1081</ele>
        <time>2022-07-16T18:47:53.144Z</time>
      </trkpt>
      <trkpt lat="45.75259" lon="6.59103">
        <ele>1084</ele>
        <time>2022-07-16T18:48:04.106Z</time>
      </trkpt>
      <trkpt lat="45.75301" lon="6.59134">
        <ele>1089</ele>
        <time>2022-07-16T18:48:22.378Z</time>
      </trkpt>
      <trkpt lat="45.75361" lon="6.59163">
        <ele>1098</ele>
        <time>2022-07-16T18:48:56.639Z</time>
      </trkpt>
      <trkpt lat="45.75375" lon="6.59172">
        <ele>1099</ele>
        <time>2022-07-16T18:49:00.818Z</time>
      </trkpt>
      <trkpt lat="45.75392" lon="6.59188">
        <ele>1100</ele>
        <time>2022-07-16T18:49:05.779Z</time>
      </trkpt>
      <trkpt lat="45.75411" lon="6.59211">
        <ele>1101</ele>
        <time>2022-07-16T18:49:11.302Z</time>
      </trkpt>
      <trkpt lat="45.7543" lon="6.59241">
        <ele>1101</ele>
        <time>2022-07-16T18:49:15.268Z</time>
      </trkpt>
      <trkpt lat="45.7544" lon="6.59241">
        <ele>1103</ele>
        <time>2022-07-16T18:49:20.678Z</time>
      </trkpt>
      <trkpt lat="45.75444" lon="6.59234">
        <ele>1105</ele>
        <time>2022-07-16T18:49:24.094Z</time>
      </trkpt>
      <trkpt lat="45.75444" lon="6.59227">
        <ele>1106</ele>
        <time>2022-07-16T18:49:26.737Z</time>
      </trkpt>
      <trkpt lat="45.75426" lon="6.59203">
        <ele>1106</ele>
        <time>2022-07-16T18:49:30.185Z</time>
      </trkpt>
      <trkpt lat="45.75407" lon="6.59167">
        <ele>1107</ele>
        <time>2022-07-16T18:49:36.415Z</time>
      </trkpt>
      <trkpt lat="45.75396" lon="6.59137">
        <ele>1110</ele>
        <time>2022-07-16T18:49:48.101Z</time>
      </trkpt>
      <trkpt lat="45.75388" lon="6.59104">
        <ele>1114</ele>
        <time>2022-07-16T18:50:01.289Z</time>
      </trkpt>
      <trkpt lat="45.75339" lon="6.59049">
        <ele>1117</ele>
        <time>2022-07-16T18:50:16.378Z</time>
      </trkpt>
      <trkpt lat="45.75327" lon="6.5903">
        <ele>1120</ele>
        <time>2022-07-16T18:50:26.053Z</time>
      </trkpt>
      <trkpt lat="45.7528" lon="6.58938">
        <ele>1132</ele>
        <time>2022-07-16T18:51:09.100Z</time>
      </trkpt>
      <trkpt lat="45.75255" lon="6.58896">
        <ele>1134</ele>
        <time>2022-07-16T18:51:18.669Z</time>
      </trkpt>
      <trkpt lat="45.75229" lon="6.58846">
        <ele>1134</ele>
        <time>2022-07-16T18:51:24.772Z</time>
      </trkpt>
      <trkpt lat="45.7522" lon="6.58837">
        <ele>1133</ele>
        <time>2022-07-16T18:51:25.625Z</time>
      </trkpt>
      <trkpt lat="45.75214" lon="6.58837">
        <ele>1132</ele>
        <time>2022-07-16T18:51:26.091Z</time>
      </trkpt>
      <trkpt lat="45.75207" lon="6.58832">
        <ele>1131</ele>
        <time>2022-07-16T18:51:26.699Z</time>
      </trkpt>
      <trkpt lat="45.75176" lon="6.58802">
        <ele>1130</ele>
        <time>2022-07-16T18:51:30.517Z</time>
      </trkpt>
      <trkpt lat="45.7506" lon="6.58678">
        <ele>1121</ele>
        <time>2022-07-16T18:51:41.178Z</time>
      </trkpt>
      <trkpt lat="45.74973" lon="6.58539">
        <ele>1121</ele>
        <time>2022-07-16T18:51:59.456Z</time>
      </trkpt>
      <trkpt lat="45.74943" lon="6.58478">
        <ele>1122</ele>
        <time>2022-07-16T18:52:08.320Z</time>
      </trkpt>
      <trkpt lat="45.74913" lon="6.58408">
        <ele>1126</ele>
        <time>2022-07-16T18:52:24.473Z</time>
      </trkpt>
      <trkpt lat="45.74848" lon="6.58302">
        <ele>1122</ele>
        <time>2022-07-16T18:52:33.206Z</time>
      </trkpt>
      <trkpt lat="45.74848" lon="6.58286">
        <ele>1126</ele>
        <time>2022-07-16T18:52:39.247Z</time>
      </trkpt>
      <trkpt lat="45.74855" lon="6.58279">
        <ele>1129</ele>
        <time>2022-07-16T18:52:43.865Z</time>
      </trkpt>
      <trkpt lat="45.74866" lon="6.58287">
        <ele>1130</ele>
        <time>2022-07-16T18:52:47.664Z</time>
      </trkpt>
      <trkpt lat="45.74912" lon="6.58352">
        <ele>1134</ele>
        <time>2022-07-16T18:53:04.852Z</time>
      </trkpt>
      <trkpt lat="45.74953" lon="6.58401">
        <ele>1137</ele>
        <time>2022-07-16T18:53:18.500Z</time>
      </trkpt>
      <trkpt lat="45.74966" lon="6.58413">
        <ele>1138</ele>
        <time>2022-07-16T18:53:22.697Z</time>
      </trkpt>
      <trkpt lat="45.74972" lon="6.5841">
        <ele>1140</ele>
        <time>2022-07-16T18:53:26.135Z</time>
      </trkpt>
      <trkpt lat="45.74974" lon="6.58401">
        <ele>1142</ele>
        <time>2022-07-16T18:53:29.701Z</time>
      </trkpt>
      <trkpt lat="45.74971" lon="6.58393">
        <ele>1143</ele>
        <time>2022-07-16T18:53:33.130Z</time>
      </trkpt>
      <trkpt lat="45.74943" lon="6.58365">
        <ele>1140</ele>
        <time>2022-07-16T18:53:35.783Z</time>
      </trkpt>
      <trkpt lat="45.74925" lon="6.58336">
        <ele>1140</ele>
        <time>2022-07-16T18:53:39.582Z</time>
      </trkpt>
      <trkpt lat="45.74909" lon="6.58297">
        <ele>1140</ele>
        <time>2022-07-16T18:53:44.010Z</time>
      </trkpt>
      <trkpt lat="45.74895" lon="6.58239">
        <ele>1144</ele>
        <time>2022-07-16T18:53:58.689Z</time>
      </trkpt>
      <trkpt lat="45.74888" lon="6.58199">
        <ele>1145</ele>
        <time>2022-07-16T18:54:04.610Z</time>
      </trkpt>
      <trkpt lat="45.74885" lon="6.58153">
        <ele>1148</ele>
        <time>2022-07-16T18:54:15.625Z</time>
      </trkpt>
      <trkpt lat="45.74877" lon="6.58093">
        <ele>1152</ele>
        <time>2022-07-16T18:54:30.294Z</time>
      </trkpt>
      <trkpt lat="45.74857" lon="6.58029">
        <ele>1152</ele>
        <time>2022-07-16T18:54:37.158Z</time>
      </trkpt>
      <trkpt lat="45.74854" lon="6.58013">
        <ele>1152</ele>
        <time>2022-07-16T18:54:38.780Z</time>
      </trkpt>
      <trkpt lat="45.74853" lon="6.5798">
        <ele>1153</ele>
        <time>2022-07-16T18:54:44.145Z</time>
      </trkpt>
      <trkpt lat="45.74857" lon="6.57959">
        <ele>1155</ele>
        <time>2022-07-16T18:54:52.159Z</time>
      </trkpt>
      <trkpt lat="45.74864" lon="6.57947">
        <ele>1156</ele>
        <time>2022-07-16T18:54:55.840Z</time>
      </trkpt>
      <trkpt lat="45.74874" lon="6.57939">
        <ele>1158</ele>
        <time>2022-07-16T18:55:02.037Z</time>
      </trkpt>
      <trkpt lat="45.74895" lon="6.57933">
        <ele>1162</ele>
        <time>2022-07-16T18:55:13.623Z</time>
      </trkpt>
      <trkpt lat="45.74905" lon="6.57926">
        <ele>1163</ele>
        <time>2022-07-16T18:55:17.317Z</time>
      </trkpt>
      <trkpt lat="45.74908" lon="6.57917">
        <ele>1164</ele>
        <time>2022-07-16T18:55:21.083Z</time>
      </trkpt>
      <trkpt lat="45.74907" lon="6.57907">
        <ele>1165</ele>
        <time>2022-07-16T18:55:24.897Z</time>
      </trkpt>
      <trkpt lat="45.74903" lon="6.579">
        <ele>1165</ele>
        <time>2022-07-16T18:55:25.783Z</time>
      </trkpt>
      <trkpt lat="45.74893" lon="6.57892">
        <ele>1164</ele>
        <time>2022-07-16T18:55:26.673Z</time>
      </trkpt>
      <trkpt lat="45.74854" lon="6.57873">
        <ele>1162</ele>
        <time>2022-07-16T18:55:30.071Z</time>
      </trkpt>
      <trkpt lat="45.7484" lon="6.57869">
        <ele>1160</ele>
        <time>2022-07-16T18:55:31.180Z</time>
      </trkpt>
      <trkpt lat="45.74819" lon="6.57869">
        <ele>1158</ele>
        <time>2022-07-16T18:55:32.812Z</time>
      </trkpt>
      <trkpt lat="45.74809" lon="6.57865">
        <ele>1158</ele>
        <time>2022-07-16T18:55:34.268Z</time>
      </trkpt>
      <trkpt lat="45.74801" lon="6.57859">
        <ele>1158</ele>
        <time>2022-07-16T18:55:35.535Z</time>
      </trkpt>
      <trkpt lat="45.74786" lon="6.57841">
        <ele>1158</ele>
        <time>2022-07-16T18:55:38.279Z</time>
      </trkpt>
      <trkpt lat="45.74777" lon="6.57819">
        <ele>1160</ele>
        <time>2022-07-16T18:55:45.662Z</time>
      </trkpt>
      <trkpt lat="45.74767" lon="6.57747">
        <ele>1166</ele>
        <time>2022-07-16T18:56:08.092Z</time>
      </trkpt>
      <trkpt lat="45.7476" lon="6.57726">
        <ele>1168</ele>
        <time>2022-07-16T18:56:15.742Z</time>
      </trkpt>
      <trkpt lat="45.74668" lon="6.5754">
        <ele>1182</ele>
        <time>2022-07-16T18:57:07.701Z</time>
      </trkpt>
      <trkpt lat="45.74653" lon="6.57507">
        <ele>1185</ele>
        <time>2022-07-16T18:57:18.709Z</time>
      </trkpt>
      <trkpt lat="45.74627" lon="6.57438">
        <ele>1193</ele>
        <time>2022-07-16T18:57:48.317Z</time>
      </trkpt>
      <trkpt lat="45.74623" lon="6.57433">
        <ele>1193</ele>
        <time>2022-07-16T18:57:49.062Z</time>
      </trkpt>
      <trkpt lat="45.74632" lon="6.57425">
        <ele>1197</ele>
        <time>2022-07-16T18:57:54.792Z</time>
      </trkpt>
      <trkpt lat="45.74639" lon="6.57429">
        <ele>1198</ele>
        <time>2022-07-16T18:57:58.826Z</time>
      </trkpt>
      <trkpt lat="45.74646" lon="6.57438">
        <ele>1198</ele>
        <time>2022-07-16T18:58:00.146Z</time>
      </trkpt>
      <trkpt lat="45.74667" lon="6.5748">
        <ele>1193</ele>
        <time>2022-07-16T18:58:02.947Z</time>
      </trkpt>
      <trkpt lat="45.7469" lon="6.57501">
        <ele>1196</ele>
        <time>2022-07-16T18:58:13.970Z</time>
      </trkpt>
      <trkpt lat="45.74743" lon="6.57533">
        <ele>1204</ele>
        <time>2022-07-16T18:58:45.088Z</time>
      </trkpt>
      <trkpt lat="45.74766" lon="6.57544">
        <ele>1207</ele>
        <time>2022-07-16T18:58:56.593Z</time>
      </trkpt>
      <trkpt lat="45.74847" lon="6.57575">
        <ele>1218</ele>
        <time>2022-07-16T18:59:40.539Z</time>
      </trkpt>
      <trkpt lat="45.74881" lon="6.5761">
        <ele>1217</ele>
        <time>2022-07-16T18:59:44.948Z</time>
      </trkpt>
      <trkpt lat="45.74895" lon="6.57619">
        <ele>1217</ele>
        <time>2022-07-16T18:59:47.100Z</time>
      </trkpt>
      <trkpt lat="45.74928" lon="6.57633">
        <ele>1220</ele>
        <time>2022-07-16T18:59:58.260Z</time>
      </trkpt>
      <trkpt lat="45.7497" lon="6.57644">
        <ele>1225</ele>
        <time>2022-07-16T19:00:16.950Z</time>
      </trkpt>
      <trkpt lat="45.75028" lon="6.57672">
        <ele>1229</ele>
        <time>2022-07-16T19:00:33.642Z</time>
      </trkpt>
      <trkpt lat="45.75057" lon="6.57679">
        <ele>1233</ele>
        <time>2022-07-16T19:00:49.554Z</time>
      </trkpt>
      <trkpt lat="45.75078" lon="6.57676">
        <ele>1239</ele>
        <time>2022-07-16T19:01:00.972Z</time>
      </trkpt>
      <trkpt lat="45.75096" lon="6.57678">
        <ele>1243</ele>
        <time>2022-07-16T19:01:10.741Z</time>
      </trkpt>
      <trkpt lat="45.75108" lon="6.57687">
        <ele>1244</ele>
        <time>2022-07-16T19:01:14.678Z</time>
      </trkpt>
      <trkpt lat="45.75126" lon="6.57708">
        <ele>1244</ele>
        <time>2022-07-16T19:01:17.933Z</time>
      </trkpt>
      <trkpt lat="45.75144" lon="6.57756">
        <ele>1240</ele>
        <time>2022-07-16T19:01:20.888Z</time>
      </trkpt>
      <trkpt lat="45.75156" lon="6.57773">
        <ele>1241</ele>
        <time>2022-07-16T19:01:25.294Z</time>
      </trkpt>
      <trkpt lat="45.75181" lon="6.57786">
        <ele>1247</ele>
        <time>2022-07-16T19:01:39.683Z</time>
      </trkpt>
      <trkpt lat="45.75188" lon="6.57783">
        <ele>1249</ele>
        <time>2022-07-16T19:01:43.637Z</time>
      </trkpt>
      <trkpt lat="45.75191" lon="6.57778">
        <ele>1251</ele>
        <time>2022-07-16T19:01:46.126Z</time>
      </trkpt>
      <trkpt lat="45.7519" lon="6.57772">
        <ele>1252</ele>
        <time>2022-07-16T19:01:48.455Z</time>
      </trkpt>
      <trkpt lat="45.75185" lon="6.57766">
        <ele>1252</ele>
        <time>2022-07-16T19:01:49.370Z</time>
      </trkpt>
      <trkpt lat="45.75171" lon="6.57762">
        <ele>1247</ele>
        <time>2022-07-16T19:01:50.479Z</time>
      </trkpt>
      <trkpt lat="45.75165" lon="6.57754">
        <ele>1247</ele>
        <time>2022-07-16T19:01:51.629Z</time>
      </trkpt>
      <trkpt lat="45.7516" lon="6.57734">
        <ele>1249</ele>
        <time>2022-07-16T19:01:59.649Z</time>
      </trkpt>
      <trkpt lat="45.75159" lon="6.57695">
        <ele>1257</ele>
        <time>2022-07-16T19:02:14.383Z</time>
      </trkpt>
      <trkpt lat="45.75154" lon="6.5768">
        <ele>1259</ele>
        <time>2022-07-16T19:02:20.659Z</time>
      </trkpt>
      <trkpt lat="45.75143" lon="6.5766">
        <ele>1260</ele>
        <time>2022-07-16T19:02:25.205Z</time>
      </trkpt>
      <trkpt lat="45.75116" lon="6.57622">
        <ele>1264</ele>
        <time>2022-07-16T19:02:39.821Z</time>
      </trkpt>
      <trkpt lat="45.751" lon="6.57607">
        <ele>1265</ele>
        <time>2022-07-16T19:02:44.583Z</time>
      </trkpt>
      <trkpt lat="45.75076" lon="6.57599">
        <ele>1262</ele>
        <time>2022-07-16T19:02:46.497Z</time>
      </trkpt>
      <trkpt lat="45.75065" lon="6.57592">
        <ele>1262</ele>
        <time>2022-07-16T19:02:48.186Z</time>
      </trkpt>
      <trkpt lat="45.75052" lon="6.57579">
        <ele>1263</ele>
        <time>2022-07-16T19:02:52.438Z</time>
      </trkpt>
      <trkpt lat="45.75036" lon="6.57559">
        <ele>1266</ele>
        <time>2022-07-16T19:03:03.926Z</time>
      </trkpt>
      <trkpt lat="45.7501" lon="6.57511">
        <ele>1276</ele>
        <time>2022-07-16T19:03:26.867Z</time>
      </trkpt>
      <trkpt lat="45.74968" lon="6.57483">
        <ele>1278</ele>
        <time>2022-07-16T19:03:37.616Z</time>
      </trkpt>
      <trkpt lat="45.74927" lon="6.57429">
        <ele>1294</ele>
        <time>2022-07-16T19:04:07.746Z</time>
      </trkpt>
      <trkpt lat="45.74884" lon="6.57385">
        <ele>1300</ele>
        <time>2022-07-16T19:04:29.954Z</time>
      </trkpt>
      <trkpt lat="45.74836" lon="6.57331">
        <ele>1301</ele>
        <time>2022-07-16T19:04:40.026Z</time>
      </trkpt>
      <trkpt lat="45.74796" lon="6.57282">
        <ele>1307</ele>
        <time>2022-07-16T19:05:02.259Z</time>
      </trkpt>
      <trkpt lat="45.7478" lon="6.57257">
        <ele>1310</ele>
        <time>2022-07-16T19:05:13.936Z</time>
      </trkpt>
      <trkpt lat="45.74761" lon="6.57215">
        <ele>1319</ele>
        <time>2022-07-16T19:05:32.835Z</time>
      </trkpt>
      <trkpt lat="45.74748" lon="6.57195">
        <ele>1323</ele>
        <time>2022-07-16T19:05:43.155Z</time>
      </trkpt>
      <trkpt lat="45.74707" lon="6.57168">
        <ele>1324</ele>
        <time>2022-07-16T19:05:51.096Z</time>
      </trkpt>
      <trkpt lat="45.74586" lon="6.57074">
        <ele>1326</ele>
        <time>2022-07-16T19:06:13.368Z</time>
      </trkpt>
      <trkpt lat="45.74527" lon="6.57036">
        <ele>1323</ele>
        <time>2022-07-16T19:06:18.809Z</time>
      </trkpt>
      <trkpt lat="45.74507" lon="6.57016">
        <ele>1324</ele>
        <time>2022-07-16T19:06:24.287Z</time>
      </trkpt>
      <trkpt lat="45.7449" lon="6.56992">
        <ele>1326</ele>
        <time>2022-07-16T19:06:31.806Z</time>
      </trkpt>
      <trkpt lat="45.74466" lon="6.56951">
        <ele>1327</ele>
        <time>2022-07-16T19:06:38.748Z</time>
      </trkpt>
      <trkpt lat="45.74459" lon="6.56934">
        <ele>1328</ele>
        <time>2022-07-16T19:06:42.713Z</time>
      </trkpt>
      <trkpt lat="45.74455" lon="6.56908">
        <ele>1331</ele>
        <time>2022-07-16T19:06:52.766Z</time>
      </trkpt>
      <trkpt lat="45.74465" lon="6.56842">
        <ele>1342</ele>
        <time>2022-07-16T19:07:18.268Z</time>
      </trkpt>
      <trkpt lat="45.74462" lon="6.56804">
        <ele>1345</ele>
        <time>2022-07-16T19:07:29.342Z</time>
      </trkpt>
      <trkpt lat="45.74456" lon="6.56787">
        <ele>1346</ele>
        <time>2022-07-16T19:07:33.249Z</time>
      </trkpt>
      <trkpt lat="45.74425" lon="6.5673">
        <ele>1348</ele>
        <time>2022-07-16T19:07:44.359Z</time>
      </trkpt>
      <trkpt lat="45.74379" lon="6.56667">
        <ele>1348</ele>
        <time>2022-07-16T19:07:53.285Z</time>
      </trkpt>
      <trkpt lat="45.74335" lon="6.56564">
        <ele>1356</ele>
        <time>2022-07-16T19:08:22.580Z</time>
      </trkpt>
      <trkpt lat="45.74274" lon="6.56439">
        <ele>1366</ele>
        <time>2022-07-16T19:08:59.246Z</time>
      </trkpt>
      <trkpt lat="45.74267" lon="6.56416">
        <ele>1368</ele>
        <time>2022-07-16T19:09:06.661Z</time>
      </trkpt>
      <trkpt lat="45.74267" lon="6.56387">
        <ele>1369</ele>
        <time>2022-07-16T19:09:11.606Z</time>
      </trkpt>
      <trkpt lat="45.74274" lon="6.5637">
        <ele>1370</ele>
        <time>2022-07-16T19:09:15.572Z</time>
      </trkpt>
      <trkpt lat="45.74284" lon="6.56359">
        <ele>1371</ele>
        <time>2022-07-16T19:09:19.399Z</time>
      </trkpt>
      <trkpt lat="45.74318" lon="6.56334">
        <ele>1374</ele>
        <time>2022-07-16T19:09:30.925Z</time>
      </trkpt>
      <trkpt lat="45.74334" lon="6.56314">
        <ele>1378</ele>
        <time>2022-07-16T19:09:42.413Z</time>
      </trkpt>
      <trkpt lat="45.74339" lon="6.56289">
        <ele>1382</ele>
        <time>2022-07-16T19:09:52.233Z</time>
      </trkpt>
      <trkpt lat="45.74337" lon="6.56266">
        <ele>1384</ele>
        <time>2022-07-16T19:09:59.901Z</time>
      </trkpt>
      <trkpt lat="45.74306" lon="6.56154">
        <ele>1386</ele>
        <time>2022-07-16T19:10:14.981Z</time>
      </trkpt>
      <trkpt lat="45.74301" lon="6.56108">
        <ele>1390</ele>
        <time>2022-07-16T19:10:30.279Z</time>
      </trkpt>
      <trkpt lat="45.74294" lon="6.56076">
        <ele>1392</ele>
        <time>2022-07-16T19:10:37.757Z</time>
      </trkpt>
      <trkpt lat="45.74275" lon="6.5604">
        <ele>1394</ele>
        <time>2022-07-16T19:10:46.232Z</time>
      </trkpt>
      <trkpt lat="45.74246" lon="6.56004">
        <ele>1393</ele>
        <time>2022-07-16T19:10:50.177Z</time>
      </trkpt>
      <trkpt lat="45.74216" lon="6.55949">
        <ele>1398</ele>
        <time>2022-07-16T19:11:08.417Z</time>
      </trkpt>
      <trkpt lat="45.74213" lon="6.55937">
        <ele>1399</ele>
        <time>2022-07-16T19:11:12.108Z</time>
      </trkpt>
      <trkpt lat="45.74212" lon="6.55898">
        <ele>1403</ele>
        <time>2022-07-16T19:11:26.845Z</time>
      </trkpt>
      <trkpt lat="45.74202" lon="6.55836">
        <ele>1408</ele>
        <time>2022-07-16T19:11:45.310Z</time>
      </trkpt>
      <trkpt lat="45.74176" lon="6.55775">
        <ele>1408</ele>
        <time>2022-07-16T19:11:52.307Z</time>
      </trkpt>
      <trkpt lat="45.74165" lon="6.55676">
        <ele>1417</ele>
        <time>2022-07-16T19:12:27.709Z</time>
      </trkpt>
      <trkpt lat="45.74157" lon="6.55652">
        <ele>1418</ele>
        <time>2022-07-16T19:12:32.381Z</time>
      </trkpt>
      <trkpt lat="45.74157" lon="6.55643">
        <ele>1419</ele>
        <time>2022-07-16T19:12:35.779Z</time>
      </trkpt>
      <trkpt lat="45.74161" lon="6.55636">
        <ele>1420</ele>
        <time>2022-07-16T19:12:39.195Z</time>
      </trkpt>
      <trkpt lat="45.74164" lon="6.55635">
        <ele>1420</ele>
        <time>2022-07-16T19:12:39.627Z</time>
      </trkpt>
      <trkpt lat="45.7417" lon="6.55636">
        <ele>1422</ele>
        <time>2022-07-16T19:12:42.896Z</time>
      </trkpt>
      <trkpt lat="45.74176" lon="6.55643">
        <ele>1423</ele>
        <time>2022-07-16T19:12:46.843Z</time>
      </trkpt>
      <trkpt lat="45.74194" lon="6.55702">
        <ele>1421</ele>
        <time>2022-07-16T19:12:50.687Z</time>
      </trkpt>
      <trkpt lat="45.74207" lon="6.55728">
        <ele>1421</ele>
        <time>2022-07-16T19:12:53.818Z</time>
      </trkpt>
      <trkpt lat="45.74223" lon="6.55749">
        <ele>1422</ele>
        <time>2022-07-16T19:12:59.007Z</time>
      </trkpt>
      <trkpt lat="45.74234" lon="6.55758">
        <ele>1423</ele>
        <time>2022-07-16T19:13:02.842Z</time>
      </trkpt>
      <trkpt lat="45.74254" lon="6.55769">
        <ele>1426</ele>
        <time>2022-07-16T19:13:14.433Z</time>
      </trkpt>
      <trkpt lat="45.74281" lon="6.55796">
        <ele>1429</ele>
        <time>2022-07-16T19:13:25.486Z</time>
      </trkpt>
      <trkpt lat="45.74293" lon="6.55803">
        <ele>1431</ele>
        <time>2022-07-16T19:13:32.497Z</time>
      </trkpt>
      <trkpt lat="45.7434" lon="6.55812">
        <ele>1440</ele>
        <time>2022-07-16T19:13:58.153Z</time>
      </trkpt>
      <trkpt lat="45.74365" lon="6.55823">
        <ele>1444</ele>
        <time>2022-07-16T19:14:12.303Z</time>
      </trkpt>
      <trkpt lat="45.74374" lon="6.55834">
        <ele>1445</ele>
        <time>2022-07-16T19:14:16.053Z</time>
      </trkpt>
      <trkpt lat="45.74381" lon="6.55849">
        <ele>1444</ele>
        <time>2022-07-16T19:14:17.031Z</time>
      </trkpt>
      <trkpt lat="45.74403" lon="6.55921">
        <ele>1439</ele>
        <time>2022-07-16T19:14:21.293Z</time>
      </trkpt>
      <trkpt lat="45.74413" lon="6.55935">
        <ele>1440</ele>
        <time>2022-07-16T19:14:25.285Z</time>
      </trkpt>
      <trkpt lat="45.74418" lon="6.55935">
        <ele>1441</ele>
        <time>2022-07-16T19:14:27.990Z</time>
      </trkpt>
      <trkpt lat="45.74422" lon="6.55929">
        <ele>1442</ele>
        <time>2022-07-16T19:14:31.124Z</time>
      </trkpt>
      <trkpt lat="45.7442" lon="6.55916">
        <ele>1444</ele>
        <time>2022-07-16T19:14:36.150Z</time>
      </trkpt>
      <trkpt lat="45.74405" lon="6.55894">
        <ele>1444</ele>
        <time>2022-07-16T19:14:39.161Z</time>
      </trkpt>
      <trkpt lat="45.74401" lon="6.55879">
        <ele>1445</ele>
        <time>2022-07-16T19:14:42.861Z</time>
      </trkpt>
      <trkpt lat="45.74402" lon="6.55829">
        <ele>1452</ele>
        <time>2022-07-16T19:15:01.748Z</time>
      </trkpt>
      <trkpt lat="45.744" lon="6.55805">
        <ele>1455</ele>
        <time>2022-07-16T19:15:10.875Z</time>
      </trkpt>
      <trkpt lat="45.74391" lon="6.55782">
        <ele>1457</ele>
        <time>2022-07-16T19:15:18.208Z</time>
      </trkpt>
      <trkpt lat="45.74374" lon="6.55753">
        <ele>1458</ele>
        <time>2022-07-16T19:15:23.882Z</time>
      </trkpt>
      <trkpt lat="45.74357" lon="6.557">
        <ele>1463</ele>
        <time>2022-07-16T19:15:42.980Z</time>
      </trkpt>
      <trkpt lat="45.74335" lon="6.55665">
        <ele>1464</ele>
        <time>2022-07-16T19:15:49.372Z</time>
      </trkpt>
      <trkpt lat="45.74323" lon="6.5564">
        <ele>1464</ele>
        <time>2022-07-16T19:15:52.343Z</time>
      </trkpt>
      <trkpt lat="45.74313" lon="6.55545">
        <ele>1471</ele>
        <time>2022-07-16T19:16:17.898Z</time>
      </trkpt>
      <trkpt lat="45.743" lon="6.55495">
        <ele>1471</ele>
        <time>2022-07-16T19:16:23.121Z</time>
      </trkpt>
      <trkpt lat="45.74297" lon="6.55474">
        <ele>1472</ele>
        <time>2022-07-16T19:16:27.246Z</time>
      </trkpt>
      <trkpt lat="45.74297" lon="6.5544">
        <ele>1473</ele>
        <time>2022-07-16T19:16:32.667Z</time>
      </trkpt>
      <trkpt lat="45.74315" lon="6.55344">
        <ele>1481</ele>
        <time>2022-07-16T19:17:02.414Z</time>
      </trkpt>
      <trkpt lat="45.74317" lon="6.55322">
        <ele>1483</ele>
        <time>2022-07-16T19:17:10.305Z</time>
      </trkpt>
      <trkpt lat="45.74315" lon="6.55292">
        <ele>1485</ele>
        <time>2022-07-16T19:17:17.627Z</time>
      </trkpt>
      <trkpt lat="45.74293" lon="6.55184">
        <ele>1488</ele>
        <time>2022-07-16T19:17:34.571Z</time>
      </trkpt>
      <trkpt lat="45.74294" lon="6.55166">
        <ele>1489</ele>
        <time>2022-07-16T19:17:38.398Z</time>
      </trkpt>
      <trkpt lat="45.74303" lon="6.5512">
        <ele>1492</ele>
        <time>2022-07-16T19:17:49.479Z</time>
      </trkpt>
      <trkpt lat="45.74315" lon="6.55086">
        <ele>1494</ele>
        <time>2022-07-16T19:17:57.291Z</time>
      </trkpt>
      <trkpt lat="45.74344" lon="6.55047">
        <ele>1500</ele>
        <time>2022-07-16T19:18:18.810Z</time>
      </trkpt>
      <trkpt lat="45.74426" lon="6.54946">
        <ele>1515</ele>
        <time>2022-07-16T19:19:17.316Z</time>
      </trkpt>
      <trkpt lat="45.74439" lon="6.54932">
        <ele>1515</ele>
        <time>2022-07-16T19:19:19.597Z</time>
      </trkpt>
      <trkpt lat="45.74451" lon="6.54925">
        <ele>1515</ele>
        <time>2022-07-16T19:19:21.414Z</time>
      </trkpt>
      <trkpt lat="45.74465" lon="6.54922">
        <ele>1516</ele>
        <time>2022-07-16T19:19:25.430Z</time>
      </trkpt>
      <trkpt lat="45.74484" lon="6.54926">
        <ele>1516</ele>
        <time>2022-07-16T19:19:28.123Z</time>
      </trkpt>
      <trkpt lat="45.74502" lon="6.54937">
        <ele>1517</ele>
        <time>2022-07-16T19:19:32.958Z</time>
      </trkpt>
      <trkpt lat="45.7452" lon="6.54954">
        <ele>1519</ele>
        <time>2022-07-16T19:19:40.305Z</time>
      </trkpt>
      <trkpt lat="45.74531" lon="6.54957">
        <ele>1520</ele>
        <time>2022-07-16T19:19:44.004Z</time>
      </trkpt>
      <trkpt lat="45.74556" lon="6.54949">
        <ele>1522</ele>
        <time>2022-07-16T19:19:51.704Z</time>
      </trkpt>
      <trkpt lat="45.74624" lon="6.54915">
        <ele>1525</ele>
        <time>2022-07-16T19:20:08.039Z</time>
      </trkpt>
      <trkpt lat="45.74699" lon="6.549">
        <ele>1532</ele>
        <time>2022-07-16T19:20:33.767Z</time>
      </trkpt>
      <trkpt lat="45.74717" lon="6.54886">
        <ele>1534</ele>
        <time>2022-07-16T19:20:41.071Z</time>
      </trkpt>
      <trkpt lat="45.74735" lon="6.54856">
        <ele>1537</ele>
        <time>2022-07-16T19:20:52.071Z</time>
      </trkpt>
      <trkpt lat="45.74742" lon="6.5483">
        <ele>1539</ele>
        <time>2022-07-16T19:20:59.367Z</time>
      </trkpt>
      <trkpt lat="45.74746" lon="6.54803">
        <ele>1539</ele>
        <time>2022-07-16T19:21:02.069Z</time>
      </trkpt>
      <trkpt lat="45.74754" lon="6.5478">
        <ele>1540</ele>
        <time>2022-07-16T19:21:06.640Z</time>
      </trkpt>
      <trkpt lat="45.74773" lon="6.5476">
        <ele>1542</ele>
        <time>2022-07-16T19:21:14.133Z</time>
      </trkpt>
      <trkpt lat="45.74785" lon="6.54753">
        <ele>1543</ele>
        <time>2022-07-16T19:21:18.000Z</time>
      </trkpt>
      <trkpt lat="45.74809" lon="6.54747">
        <ele>1546</ele>
        <time>2022-07-16T19:21:29.474Z</time>
      </trkpt>
      <trkpt lat="45.74822" lon="6.54751">
        <ele>1548</ele>
        <time>2022-07-16T19:21:36.668Z</time>
      </trkpt>
      <trkpt lat="45.7485" lon="6.54766">
        <ele>1551</ele>
        <time>2022-07-16T19:21:47.611Z</time>
      </trkpt>
      <trkpt lat="45.7487" lon="6.54771">
        <ele>1552</ele>
        <time>2022-07-16T19:21:52.567Z</time>
      </trkpt>
      <trkpt lat="45.74898" lon="6.54765">
        <ele>1554</ele>
        <time>2022-07-16T19:22:00.597Z</time>
      </trkpt>
      <trkpt lat="45.74912" lon="6.54766">
        <ele>1555</ele>
        <time>2022-07-16T19:22:04.594Z</time>
      </trkpt>
      <trkpt lat="45.7494" lon="6.54761">
        <ele>1558</ele>
        <time>2022-07-16T19:22:15.563Z</time>
      </trkpt>
      <trkpt lat="45.7501" lon="6.54743">
        <ele>1564</ele>
        <time>2022-07-16T19:22:38.076Z</time>
      </trkpt>
      <trkpt lat="45.75019" lon="6.54737">
        <ele>1564</ele>
        <time>2022-07-16T19:22:39.469Z</time>
      </trkpt>
      <trkpt lat="45.75064" lon="6.54727">
        <ele>1567</ele>
        <time>2022-07-16T19:22:51.935Z</time>
      </trkpt>
      <trkpt lat="45.75169" lon="6.54687">
        <ele>1574</ele>
        <time>2022-07-16T19:23:21.367Z</time>
      </trkpt>
      <trkpt lat="45.75257" lon="6.54646">
        <ele>1580</ele>
        <time>2022-07-16T19:23:46.508Z</time>
      </trkpt>
      <trkpt lat="45.75271" lon="6.54641">
        <ele>1581</ele>
        <time>2022-07-16T19:23:50.560Z</time>
      </trkpt>
      <trkpt lat="45.75297" lon="6.54639">
        <ele>1584</ele>
        <time>2022-07-16T19:24:01.712Z</time>
      </trkpt>
      <trkpt lat="45.75311" lon="6.54635">
        <ele>1585</ele>
        <time>2022-07-16T19:24:05.743Z</time>
      </trkpt>
      <trkpt lat="45.75369" lon="6.54599">
        <ele>1588</ele>
        <time>2022-07-16T19:24:20.992Z</time>
      </trkpt>
      <trkpt lat="45.75385" lon="6.54592">
        <ele>1589</ele>
        <time>2022-07-16T19:24:25.376Z</time>
      </trkpt>
      <trkpt lat="45.75398" lon="6.5459">
        <ele>1590</ele>
        <time>2022-07-16T19:24:29.257Z</time>
      </trkpt>
      <trkpt lat="45.75431" lon="6.54592">
        <ele>1595</ele>
        <time>2022-07-16T19:24:47.128Z</time>
      </trkpt>
      <trkpt lat="45.75437" lon="6.5459">
        <ele>1596</ele>
        <time>2022-07-16T19:24:50.461Z</time>
      </trkpt>
      <trkpt lat="45.75451" lon="6.54584">
        <ele>1598</ele>
        <time>2022-07-16T19:24:58.367Z</time>
      </trkpt>
      <trkpt lat="45.75464" lon="6.54575">
        <ele>1601</ele>
        <time>2022-07-16T19:25:06.179Z</time>
      </trkpt>
      <trkpt lat="45.75489" lon="6.5455">
        <ele>1604</ele>
        <time>2022-07-16T19:25:17.130Z</time>
      </trkpt>
      <trkpt lat="45.7551" lon="6.54521">
        <ele>1605</ele>
        <time>2022-07-16T19:25:23.094Z</time>
      </trkpt>
      <trkpt lat="45.75527" lon="6.54483">
        <ele>1606</ele>
        <time>2022-07-16T19:25:29.323Z</time>
      </trkpt>
      <trkpt lat="45.75552" lon="6.54405">
        <ele>1609</ele>
        <time>2022-07-16T19:25:44.022Z</time>
      </trkpt>
      <trkpt lat="45.75608" lon="6.54251">
        <ele>1618</ele>
        <time>2022-07-16T19:26:19.364Z</time>
      </trkpt>
      <trkpt lat="45.75617" lon="6.54217">
        <ele>1620</ele>
        <time>2022-07-16T19:26:27.036Z</time>
      </trkpt>
      <trkpt lat="45.75629" lon="6.54146">
        <ele>1623</ele>
        <time>2022-07-16T19:26:40.309Z</time>
      </trkpt>
      <trkpt lat="45.75636" lon="6.54121">
        <ele>1624</ele>
        <time>2022-07-16T19:26:45.018Z</time>
      </trkpt>
      <trkpt lat="45.75716" lon="6.53948">
        <ele>1636</ele>
        <time>2022-07-16T19:27:30.285Z</time>
      </trkpt>
      <trkpt lat="45.75723" lon="6.53943">
        <ele>1637</ele>
        <time>2022-07-16T19:27:34.201Z</time>
      </trkpt>
      <trkpt lat="45.75731" lon="6.53919">
        <ele>1637</ele>
        <time>2022-07-16T19:27:36.804Z</time>
      </trkpt>
      <trkpt lat="45.75741" lon="6.53904">
        <ele>1639</ele>
        <time>2022-07-16T19:27:44.636Z</time>
      </trkpt>
      <trkpt lat="45.7576" lon="6.53832">
        <ele>1643</ele>
        <time>2022-07-16T19:28:00.326Z</time>
      </trkpt>
      <trkpt lat="45.75781" lon="6.53773">
        <ele>1647</ele>
        <time>2022-07-16T19:28:15.231Z</time>
      </trkpt>
      <trkpt lat="45.75791" lon="6.53754">
        <ele>1649</ele>
        <time>2022-07-16T19:28:22.795Z</time>
      </trkpt>
      <trkpt lat="45.75804" lon="6.53696">
        <ele>1650</ele>
        <time>2022-07-16T19:28:30.395Z</time>
      </trkpt>
      <trkpt lat="45.75836" lon="6.53615">
        <ele>1653</ele>
        <time>2022-07-16T19:28:45.937Z</time>
      </trkpt>
      <trkpt lat="45.7586" lon="6.53576">
        <ele>1654</ele>
        <time>2022-07-16T19:28:52.745Z</time>
      </trkpt>
      <trkpt lat="45.75891" lon="6.53542">
        <ele>1656</ele>
        <time>2022-07-16T19:29:02.398Z</time>
      </trkpt>
      <trkpt lat="45.7591" lon="6.53501">
        <ele>1657</ele>
        <time>2022-07-16T19:29:08.967Z</time>
      </trkpt>
      <trkpt lat="45.75939" lon="6.53448">
        <ele>1658</ele>
        <time>2022-07-16T19:29:17.155Z</time>
      </trkpt>
      <trkpt lat="45.75957" lon="6.53431">
        <ele>1659</ele>
        <time>2022-07-16T19:29:22.321Z</time>
      </trkpt>
      <trkpt lat="45.75958" lon="6.53422">
        <ele>1659</ele>
        <time>2022-07-16T19:29:23.212Z</time>
      </trkpt>
      <trkpt lat="45.75943" lon="6.53411">
        <ele>1657</ele>
        <time>2022-07-16T19:29:24.522Z</time>
      </trkpt>
      <trkpt lat="45.75944" lon="6.53382">
        <ele>1657</ele>
        <time>2022-07-16T19:29:27.363Z</time>
      </trkpt>
      <trkpt lat="45.75955" lon="6.5336">
        <ele>1657</ele>
        <time>2022-07-16T19:29:30.012Z</time>
      </trkpt>
      <trkpt lat="45.75975" lon="6.5333">
        <ele>1657</ele>
        <time>2022-07-16T19:29:34.073Z</time>
        <extensions>
          <visugpx:TrkExtension xmlns:visugpx="https://www.visugpx.com/editgpx/">
            <visugpx:node>4</visugpx:node>
            </visugpx:TrkExtension>
        </extensions>
      </trkpt>
    </trkseg>
  </trk>
</gpx>